<?xml version='1.0' encoding='UTF-8'?><gpx version="1.1" creator="JPX - https://github.com/jenetics/jpx" xmlns="http://www.topografix.com/GPX/1/1"><trk><trkseg><trkpt lat="42.5215943" lon="14.1508146"><ele>2.0</ele><time>2026-05-02T06:14:58.832Z</time></trkpt><trkpt lat="42.5224399" lon="14.152072"><ele>4.0</ele><time>2026-05-02T06:15:05.833Z</time></trkpt><trkpt lat="42.5215913" lon="14.1508095"><ele>4.0</ele><time>2026-05-02T06:15:07.802Z</time></trkpt><trkpt lat="42.5215334" lon="14.1508644"><ele>4.0</ele><time>2026-05-02T06:15:19.216Z</time></trkpt><trkpt lat="42.5222736" lon="14.1520629"><ele>3.0</ele><time>2026-05-02T06:15:35.068Z</time></trkpt><trkpt lat="42.522093" lon="14.1523038"><ele>2.0</ele><time>2026-05-02T06:15:59.82Z</time></trkpt><trkpt lat="42.5221444" lon="14.1526355"><ele>1.9999999999999998</ele><time>2026-05-02T06:16:00.837Z</time></trkpt><trkpt lat="42.5221334" lon="14.1525109"><ele>2.0</ele><time>2026-05-02T06:16:09.851Z</time></trkpt><trkpt lat="42.522208" lon="14.1524238"><ele>2.0</ele><time>2026-05-02T06:16:40.062Z</time></trkpt><trkpt lat="42.5221786" lon="14.1523277"><ele>2.0</ele><time>2026-05-02T06:16:45.06Z</time></trkpt><trkpt lat="42.5221443" lon="14.1522257"><ele>1.9999999999999998</ele><time>2026-05-02T06:16:47.057Z</time></trkpt><trkpt lat="42.5220738" lon="14.1521518"><ele>2.0</ele><time>2026-05-02T06:16:49.047Z</time></trkpt><trkpt lat="42.5220019" lon="14.1521634"><ele>1.7142857142857142</ele><time>2026-05-02T06:16:51.051Z</time></trkpt><trkpt lat="42.5219356" lon="14.1522075"><ele>1.4285714285714284</ele><time>2026-05-02T06:16:53.053Z</time></trkpt><trkpt lat="42.5219066" lon="14.1522856"><ele>1.1428571428571428</ele><time>2026-05-02T06:16:55.054Z</time></trkpt><trkpt lat="42.5219192" lon="14.1523919"><ele>0.8571428571428571</ele><time>2026-05-02T06:16:58.059Z</time></trkpt><trkpt lat="42.5219239" lon="14.1524804"><ele>0.5714285714285714</ele><time>2026-05-02T06:17:35.085Z</time></trkpt><trkpt lat="42.5219456" lon="14.152566"><ele>0.2857142857142857</ele><time>2026-05-02T06:18:20.089Z</time></trkpt><trkpt lat="42.5219811" lon="14.1526414"><ele>0.0</ele><time>2026-05-02T06:18:56.101Z</time></trkpt><trkpt lat="42.5220503" lon="14.1527803"><ele>0.2857142857142857</ele><time>2026-05-02T06:18:58.089Z</time></trkpt><trkpt lat="42.5220828" lon="14.152854"><ele>0.5714285714285714</ele><time>2026-05-02T06:18:59.094Z</time></trkpt><trkpt lat="42.5221113" lon="14.1529338"><ele>0.8571428571428571</ele><time>2026-05-02T06:19:00.094Z</time></trkpt><trkpt lat="42.5221427" lon="14.153015"><ele>1.1428571428571428</ele><time>2026-05-02T06:19:01.098Z</time></trkpt><trkpt lat="42.5221924" lon="14.1531288"><ele>1.4285714285714284</ele><time>2026-05-02T06:19:03.088Z</time></trkpt><trkpt lat="42.5222349" lon="14.1532248"><ele>1.7142857142857142</ele><time>2026-05-02T06:19:06.089Z</time></trkpt><trkpt lat="42.5222752" lon="14.1533076"><ele>2.0</ele><time>2026-05-02T06:19:09.091Z</time></trkpt><trkpt lat="42.5221966" lon="14.1534122"><ele>2.0</ele><time>2026-05-02T06:19:12.095Z</time></trkpt><trkpt lat="42.5221397" lon="14.153452"><ele>2.0</ele><time>2026-05-02T06:19:13.085Z</time></trkpt><trkpt lat="42.522034" lon="14.1535211"><ele>2.0</ele><time>2026-05-02T06:19:15.087Z</time></trkpt><trkpt lat="42.5219379" lon="14.1535652"><ele>2.0</ele><time>2026-05-02T06:19:17.086Z</time></trkpt><trkpt lat="42.5218672" lon="14.153537"><ele>2.0</ele><time>2026-05-02T06:19:19.092Z</time></trkpt><trkpt lat="42.5218052" lon="14.1533894"><ele>1.6666666666666665</ele><time>2026-05-02T06:19:21.092Z</time></trkpt><trkpt lat="42.5217813" lon="14.1532742"><ele>1.3333333333333333</ele><time>2026-05-02T06:19:22.084Z</time></trkpt><trkpt lat="42.5217505" lon="14.1531649"><ele>1.0</ele><time>2026-05-02T06:19:23.085Z</time></trkpt><trkpt lat="42.5217226" lon="14.1530571"><ele>0.6666666666666666</ele><time>2026-05-02T06:19:24.091Z</time></trkpt><trkpt lat="42.5216902" lon="14.1529582"><ele>0.3333333333333333</ele><time>2026-05-02T06:19:25.09Z</time></trkpt><trkpt lat="42.5216614" lon="14.1528563"><ele>0.0</ele><time>2026-05-02T06:19:26.095Z</time></trkpt><trkpt lat="42.5216295" lon="14.1527504"><ele>0.0</ele><time>2026-05-02T06:19:27.091Z</time></trkpt><trkpt lat="42.5215957" lon="14.1526393"><ele>0.0</ele><time>2026-05-02T06:19:28.094Z</time></trkpt><trkpt lat="42.5215541" lon="14.1525239"><ele>0.0</ele><time>2026-05-02T06:19:29.087Z</time></trkpt><trkpt lat="42.5215117" lon="14.1524039"><ele>0.0</ele><time>2026-05-02T06:19:30.095Z</time></trkpt><trkpt lat="42.5214725" lon="14.1522776"><ele>0.0</ele><time>2026-05-02T06:19:31.091Z</time></trkpt><trkpt lat="42.5214334" lon="14.1521499"><ele>0.0</ele><time>2026-05-02T06:19:32.092Z</time></trkpt><trkpt lat="42.5213887" lon="14.1520191"><ele>0.0</ele><time>2026-05-02T06:19:33.083Z</time></trkpt><trkpt lat="42.5213372" lon="14.1518781"><ele>0.0</ele><time>2026-05-02T06:19:34.093Z</time></trkpt><trkpt lat="42.5212853" lon="14.151739"><ele>0.0</ele><time>2026-05-02T06:19:35.09Z</time></trkpt><trkpt lat="42.5212375" lon="14.1515936"><ele>0.5</ele><time>2026-05-02T06:19:36.092Z</time></trkpt><trkpt lat="42.5211896" lon="14.151452"><ele>1.0</ele><time>2026-05-02T06:19:37.093Z</time></trkpt><trkpt lat="42.5211362" lon="14.1512995"><ele>1.5</ele><time>2026-05-02T06:19:38.09Z</time></trkpt><trkpt lat="42.5210767" lon="14.151146"><ele>2.0</ele><time>2026-05-02T06:19:39.096Z</time></trkpt><trkpt lat="42.5210156" lon="14.1509887"><ele>2.0</ele><time>2026-05-02T06:19:40.096Z</time></trkpt><trkpt lat="42.5209616" lon="14.1508319"><ele>2.0</ele><time>2026-05-02T06:19:41.087Z</time></trkpt><trkpt lat="42.5209106" lon="14.1506719"><ele>2.0</ele><time>2026-05-02T06:19:42.088Z</time></trkpt><trkpt lat="42.520856" lon="14.1505139"><ele>2.0</ele><time>2026-05-02T06:19:43.097Z</time></trkpt><trkpt lat="42.520803" lon="14.1503595"><ele>2.0</ele><time>2026-05-02T06:19:44.087Z</time></trkpt><trkpt lat="42.5207576" lon="14.1501994"><ele>2.0</ele><time>2026-05-02T06:19:45.09Z</time></trkpt><trkpt lat="42.5207075" lon="14.1500349"><ele>2.0</ele><time>2026-05-02T06:19:46.097Z</time></trkpt><trkpt lat="42.5206543" lon="14.1498669"><ele>2.0</ele><time>2026-05-02T06:19:47.102Z</time></trkpt><trkpt lat="42.5205976" lon="14.1497098"><ele>2.0</ele><time>2026-05-02T06:19:48.101Z</time></trkpt><trkpt lat="42.5205445" lon="14.1495556"><ele>2.0</ele><time>2026-05-02T06:19:49.092Z</time></trkpt><trkpt lat="42.5204968" lon="14.1494089"><ele>2.0</ele><time>2026-05-02T06:19:50.095Z</time></trkpt><trkpt lat="42.5204462" lon="14.1492571"><ele>2.0</ele><time>2026-05-02T06:19:51.092Z</time></trkpt><trkpt lat="42.5203934" lon="14.1491056"><ele>2.0</ele><time>2026-05-02T06:19:52.094Z</time></trkpt><trkpt lat="42.5203434" lon="14.1489608"><ele>2.0</ele><time>2026-05-02T06:19:53.092Z</time></trkpt><trkpt lat="42.5202906" lon="14.1488215"><ele>2.0</ele><time>2026-05-02T06:19:54.096Z</time></trkpt><trkpt lat="42.520242" lon="14.1486795"><ele>2.0</ele><time>2026-05-02T06:19:55.091Z</time></trkpt><trkpt lat="42.5201918" lon="14.1485453"><ele>2.0</ele><time>2026-05-02T06:19:56.09Z</time></trkpt><trkpt lat="42.5201472" lon="14.1484179"><ele>2.0</ele><time>2026-05-02T06:19:57.085Z</time></trkpt><trkpt lat="42.5201" lon="14.1482935"><ele>2.0</ele><time>2026-05-02T06:19:58.087Z</time></trkpt><trkpt lat="42.520047" lon="14.1481692"><ele>2.0</ele><time>2026-05-02T06:19:59.089Z</time></trkpt><trkpt lat="42.5199888" lon="14.1480355"><ele>2.0</ele><time>2026-05-02T06:20:00.084Z</time></trkpt><trkpt lat="42.5199163" lon="14.1478944"><ele>1.8</ele><time>2026-05-02T06:20:01.088Z</time></trkpt><trkpt lat="42.5198387" lon="14.1477639"><ele>1.6</ele><time>2026-05-02T06:20:02.093Z</time></trkpt><trkpt lat="42.5197688" lon="14.1476483"><ele>1.4000000000000001</ele><time>2026-05-02T06:20:03.088Z</time></trkpt><trkpt lat="42.5197027" lon="14.147543"><ele>1.2000000000000002</ele><time>2026-05-02T06:20:04.094Z</time></trkpt><trkpt lat="42.5196411" lon="14.1474421"><ele>1.0</ele><time>2026-05-02T06:20:05.083Z</time></trkpt><trkpt lat="42.5195803" lon="14.1473452"><ele>1.4</ele><time>2026-05-02T06:20:06.088Z</time></trkpt><trkpt lat="42.5195277" lon="14.1472316"><ele>1.8</ele><time>2026-05-02T06:20:07.08Z</time></trkpt><trkpt lat="42.5194956" lon="14.1471074"><ele>2.1999999999999997</ele><time>2026-05-02T06:20:08.084Z</time></trkpt><trkpt lat="42.5194756" lon="14.1469659"><ele>2.6</ele><time>2026-05-02T06:20:09.082Z</time></trkpt><trkpt lat="42.5194456" lon="14.1468137"><ele>3.0</ele><time>2026-05-02T06:20:10.074Z</time></trkpt><trkpt lat="42.5194338" lon="14.1466658"><ele>3.0</ele><time>2026-05-02T06:20:11.079Z</time></trkpt><trkpt lat="42.5194458" lon="14.1465344"><ele>3.0</ele><time>2026-05-02T06:20:12.068Z</time></trkpt><trkpt lat="42.5194718" lon="14.1464201"><ele>3.0</ele><time>2026-05-02T06:20:13.083Z</time></trkpt><trkpt lat="42.5195022" lon="14.1463206"><ele>3.0</ele><time>2026-05-02T06:20:14.079Z</time></trkpt><trkpt lat="42.5195447" lon="14.1462462"><ele>3.0</ele><time>2026-05-02T06:20:15.085Z</time></trkpt><trkpt lat="42.5196104" lon="14.146142"><ele>3.0</ele><time>2026-05-02T06:20:17.088Z</time></trkpt><trkpt lat="42.5196622" lon="14.1460804"><ele>3.0</ele><time>2026-05-02T06:20:19.094Z</time></trkpt><trkpt lat="42.519712" lon="14.1460194"><ele>3.0</ele><time>2026-05-02T06:20:21.092Z</time></trkpt><trkpt lat="42.5197276" lon="14.1459235"><ele>3.0</ele><time>2026-05-02T06:20:23.093Z</time></trkpt><trkpt lat="42.5196612" lon="14.1458378"><ele>3.0</ele><time>2026-05-02T06:20:25.092Z</time></trkpt><trkpt lat="42.5195948" lon="14.14579"><ele>3.0</ele><time>2026-05-02T06:20:26.094Z</time></trkpt><trkpt lat="42.5195234" lon="14.1457269"><ele>3.0</ele><time>2026-05-02T06:20:27.092Z</time></trkpt><trkpt lat="42.5194433" lon="14.1456625"><ele>3.0</ele><time>2026-05-02T06:20:28.089Z</time></trkpt><trkpt lat="42.5193499" lon="14.1455923"><ele>3.0</ele><time>2026-05-02T06:20:29.095Z</time></trkpt><trkpt lat="42.5192471" lon="14.1455182"><ele>3.0</ele><time>2026-05-02T06:20:30.094Z</time></trkpt><trkpt lat="42.5191361" lon="14.1454522"><ele>3.0</ele><time>2026-05-02T06:20:31.085Z</time></trkpt><trkpt lat="42.5190031" lon="14.1453919"><ele>3.0</ele><time>2026-05-02T06:20:32.085Z</time></trkpt><trkpt lat="42.5188844" lon="14.1453201"><ele>3.0</ele><time>2026-05-02T06:20:33.083Z</time></trkpt><trkpt lat="42.5187737" lon="14.1452325"><ele>3.0</ele><time>2026-05-02T06:20:34.084Z</time></trkpt><trkpt lat="42.5186561" lon="14.1451493"><ele>3.0</ele><time>2026-05-02T06:20:35.092Z</time></trkpt><trkpt lat="42.5185389" lon="14.1450659"><ele>3.0</ele><time>2026-05-02T06:20:36.091Z</time></trkpt><trkpt lat="42.5184203" lon="14.1449827"><ele>3.0</ele><time>2026-05-02T06:20:37.089Z</time></trkpt><trkpt lat="42.5183057" lon="14.144904"><ele>3.0</ele><time>2026-05-02T06:20:38.095Z</time></trkpt><trkpt lat="42.5181975" lon="14.1448334"><ele>3.0</ele><time>2026-05-02T06:20:39.095Z</time></trkpt><trkpt lat="42.5180932" lon="14.1447593"><ele>3.0</ele><time>2026-05-02T06:20:40.103Z</time></trkpt><trkpt lat="42.5179933" lon="14.1446902"><ele>3.0</ele><time>2026-05-02T06:20:41.099Z</time></trkpt><trkpt lat="42.5179011" lon="14.1446241"><ele>3.0</ele><time>2026-05-02T06:20:42.093Z</time></trkpt><trkpt lat="42.5178097" lon="14.1445552"><ele>3.0</ele><time>2026-05-02T06:20:43.093Z</time></trkpt><trkpt lat="42.5177192" lon="14.1444944"><ele>3.0</ele><time>2026-05-02T06:20:44.099Z</time></trkpt><trkpt lat="42.5176295" lon="14.1444252"><ele>3.0</ele><time>2026-05-02T06:20:45.098Z</time></trkpt><trkpt lat="42.5175421" lon="14.1443591"><ele>3.0</ele><time>2026-05-02T06:20:46.093Z</time></trkpt><trkpt lat="42.5174468" lon="14.1442788"><ele>3.0</ele><time>2026-05-02T06:20:47.099Z</time></trkpt><trkpt lat="42.5173445" lon="14.144205"><ele>3.0</ele><time>2026-05-02T06:20:48.101Z</time></trkpt><trkpt lat="42.5172326" lon="14.1441374"><ele>3.0</ele><time>2026-05-02T06:20:49.096Z</time></trkpt><trkpt lat="42.517119" lon="14.1440672"><ele>3.0</ele><time>2026-05-02T06:20:50.097Z</time></trkpt><trkpt lat="42.5170017" lon="14.1439865"><ele>3.0</ele><time>2026-05-02T06:20:51.097Z</time></trkpt><trkpt lat="42.5168838" lon="14.1439047"><ele>3.0</ele><time>2026-05-02T06:20:52.096Z</time></trkpt><trkpt lat="42.5167631" lon="14.1438203"><ele>3.75</ele><time>2026-05-02T06:20:53.103Z</time></trkpt><trkpt lat="42.5166462" lon="14.1437242"><ele>4.5</ele><time>2026-05-02T06:20:54.104Z</time></trkpt><trkpt lat="42.5165265" lon="14.1436343"><ele>5.25</ele><time>2026-05-02T06:20:55.101Z</time></trkpt><trkpt lat="42.51641" lon="14.1435492"><ele>6.0</ele><time>2026-05-02T06:20:56.104Z</time></trkpt><trkpt lat="42.5162764" lon="14.143442"><ele>5.5</ele><time>2026-05-02T06:20:57.102Z</time></trkpt><trkpt lat="42.5161571" lon="14.1433439"><ele>5.0</ele><time>2026-05-02T06:20:58.099Z</time></trkpt><trkpt lat="42.5160359" lon="14.1432425"><ele>4.5</ele><time>2026-05-02T06:20:59.102Z</time></trkpt><trkpt lat="42.515916" lon="14.1431522"><ele>4.0</ele><time>2026-05-02T06:21:00.098Z</time></trkpt><trkpt lat="42.5158043" lon="14.1430706"><ele>3.75</ele><time>2026-05-02T06:21:01.101Z</time></trkpt><trkpt lat="42.5156927" lon="14.1429941"><ele>3.5</ele><time>2026-05-02T06:21:02.092Z</time></trkpt><trkpt lat="42.5155873" lon="14.1429054"><ele>3.25</ele><time>2026-05-02T06:21:03.094Z</time></trkpt><trkpt lat="42.5154739" lon="14.1428273"><ele>3.0</ele><time>2026-05-02T06:21:04.096Z</time></trkpt><trkpt lat="42.5153527" lon="14.1427359"><ele>2.75</ele><time>2026-05-02T06:21:05.093Z</time></trkpt><trkpt lat="42.5152324" lon="14.1426483"><ele>2.5</ele><time>2026-05-02T06:21:06.09Z</time></trkpt><trkpt lat="42.515116" lon="14.1425551"><ele>2.25</ele><time>2026-05-02T06:21:07.093Z</time></trkpt><trkpt lat="42.5149961" lon="14.1424611"><ele>2.0</ele><time>2026-05-02T06:21:08.09Z</time></trkpt><trkpt lat="42.5148827" lon="14.1423713"><ele>1.8</ele><time>2026-05-02T06:21:09.091Z</time></trkpt><trkpt lat="42.5147791" lon="14.1422955"><ele>1.6</ele><time>2026-05-02T06:21:10.096Z</time></trkpt><trkpt lat="42.5146881" lon="14.1422293"><ele>1.4000000000000001</ele><time>2026-05-02T06:21:11.098Z</time></trkpt><trkpt lat="42.5145985" lon="14.1421658"><ele>1.2000000000000002</ele><time>2026-05-02T06:21:12.099Z</time></trkpt><trkpt lat="42.5144972" lon="14.1421037"><ele>1.0</ele><time>2026-05-02T06:21:13.092Z</time></trkpt><trkpt lat="42.5143908" lon="14.1420278"><ele>1.5</ele><time>2026-05-02T06:21:14.094Z</time></trkpt><trkpt lat="42.5142705" lon="14.1419488"><ele>2.0</ele><time>2026-05-02T06:21:15.1Z</time></trkpt><trkpt lat="42.5141523" lon="14.1418649"><ele>2.5</ele><time>2026-05-02T06:21:16.098Z</time></trkpt><trkpt lat="42.5140353" lon="14.1417793"><ele>3.0</ele><time>2026-05-02T06:21:17.097Z</time></trkpt><trkpt lat="42.5139204" lon="14.1416974"><ele>3.0</ele><time>2026-05-02T06:21:18.11Z</time></trkpt><trkpt lat="42.5138152" lon="14.1416277"><ele>3.0</ele><time>2026-05-02T06:21:19.1Z</time></trkpt><trkpt lat="42.5137217" lon="14.1415617"><ele>3.0</ele><time>2026-05-02T06:21:20.09Z</time></trkpt><trkpt lat="42.5136348" lon="14.1415034"><ele>3.0</ele><time>2026-05-02T06:21:21.092Z</time></trkpt><trkpt lat="42.5135547" lon="14.1414492"><ele>3.0</ele><time>2026-05-02T06:21:22.096Z</time></trkpt><trkpt lat="42.5134714" lon="14.1413894"><ele>3.5999999999999996</ele><time>2026-05-02T06:21:23.092Z</time></trkpt><trkpt lat="42.5133778" lon="14.1413246"><ele>4.199999999999999</ele><time>2026-05-02T06:21:24.095Z</time></trkpt><trkpt lat="42.5132875" lon="14.1412609"><ele>4.8</ele><time>2026-05-02T06:21:25.097Z</time></trkpt><trkpt lat="42.5132063" lon="14.1411956"><ele>5.3999999999999995</ele><time>2026-05-02T06:21:26.094Z</time></trkpt><trkpt lat="42.5131357" lon="14.1411426"><ele>6.0</ele><time>2026-05-02T06:21:27.097Z</time></trkpt><trkpt lat="42.5130793" lon="14.1410779"><ele>5.999999999999999</ele><time>2026-05-02T06:21:28.105Z</time></trkpt><trkpt lat="42.5130359" lon="14.1410067"><ele>6.0</ele><time>2026-05-02T06:21:29.101Z</time></trkpt><trkpt lat="42.5129946" lon="14.1409338"><ele>6.0</ele><time>2026-05-02T06:21:30.096Z</time></trkpt><trkpt lat="42.5129599" lon="14.1408597"><ele>6.0</ele><time>2026-05-02T06:21:31.103Z</time></trkpt><trkpt lat="42.5129325" lon="14.1407728"><ele>6.0</ele><time>2026-05-02T06:21:32.1Z</time></trkpt><trkpt lat="42.5129113" lon="14.1406702"><ele>5.999999999999999</ele><time>2026-05-02T06:21:33.099Z</time></trkpt><trkpt lat="42.5129016" lon="14.1405707"><ele>6.0</ele><time>2026-05-02T06:21:34.101Z</time></trkpt><trkpt lat="42.5128962" lon="14.140477"><ele>6.0</ele><time>2026-05-02T06:21:35.101Z</time></trkpt><trkpt lat="42.5128974" lon="14.1403676"><ele>6.0</ele><time>2026-05-02T06:21:36.099Z</time></trkpt><trkpt lat="42.5129119" lon="14.1402513"><ele>6.0</ele><time>2026-05-02T06:21:37.105Z</time></trkpt><trkpt lat="42.5129303" lon="14.1401367"><ele>6.0</ele><time>2026-05-02T06:21:38.103Z</time></trkpt><trkpt lat="42.512958" lon="14.1400238"><ele>6.0</ele><time>2026-05-02T06:21:39.097Z</time></trkpt><trkpt lat="42.5129925" lon="14.1399197"><ele>6.0</ele><time>2026-05-02T06:21:40.097Z</time></trkpt><trkpt lat="42.5130268" lon="14.1398264"><ele>6.199999999999999</ele><time>2026-05-02T06:21:41.099Z</time></trkpt><trkpt lat="42.5130656" lon="14.1397257"><ele>6.3999999999999995</ele><time>2026-05-02T06:21:42.094Z</time></trkpt><trkpt lat="42.5131069" lon="14.1396113"><ele>6.6</ele><time>2026-05-02T06:21:43.105Z</time></trkpt><trkpt lat="42.5131565" lon="14.1394773"><ele>6.8</ele><time>2026-05-02T06:21:44.101Z</time></trkpt><trkpt lat="42.5132108" lon="14.1393279"><ele>7.0</ele><time>2026-05-02T06:21:45.107Z</time></trkpt><trkpt lat="42.5132701" lon="14.1391666"><ele>6.333333333333334</ele><time>2026-05-02T06:21:46.1Z</time></trkpt><trkpt lat="42.513335" lon="14.1389961"><ele>5.666666666666667</ele><time>2026-05-02T06:21:47.107Z</time></trkpt><trkpt lat="42.5134053" lon="14.1388221"><ele>5.0</ele><time>2026-05-02T06:21:48.1Z</time></trkpt><trkpt lat="42.5135159" lon="14.1386287"><ele>5.0</ele><time>2026-05-02T06:21:49.107Z</time></trkpt><trkpt lat="42.5136006" lon="14.1384748"><ele>5.0</ele><time>2026-05-02T06:21:50.095Z</time></trkpt><trkpt lat="42.5136692" lon="14.1383061"><ele>5.0</ele><time>2026-05-02T06:21:51.105Z</time></trkpt><trkpt lat="42.5137112" lon="14.1381807"><ele>5.0</ele><time>2026-05-02T06:21:52.104Z</time></trkpt><trkpt lat="42.5137747" lon="14.1380484"><ele>5.2</ele><time>2026-05-02T06:21:53.098Z</time></trkpt><trkpt lat="42.5138415" lon="14.1379234"><ele>5.4</ele><time>2026-05-02T06:21:54.102Z</time></trkpt><trkpt lat="42.513906" lon="14.1378274"><ele>5.6</ele><time>2026-05-02T06:21:55.097Z</time></trkpt><trkpt lat="42.5139637" lon="14.137729"><ele>5.8</ele><time>2026-05-02T06:21:56.103Z</time></trkpt><trkpt lat="42.5140173" lon="14.1376417"><ele>6.0</ele><time>2026-05-02T06:21:57.103Z</time></trkpt><trkpt lat="42.5140603" lon="14.1375528"><ele>6.0</ele><time>2026-05-02T06:21:58.1Z</time></trkpt><trkpt lat="42.5140622" lon="14.1374614"><ele>6.0</ele><time>2026-05-02T06:21:59.108Z</time></trkpt><trkpt lat="42.5140286" lon="14.1373858"><ele>6.0</ele><time>2026-05-02T06:22:00.105Z</time></trkpt><trkpt lat="42.5139631" lon="14.137329"><ele>6.0</ele><time>2026-05-02T06:22:01.109Z</time></trkpt><trkpt lat="42.5138763" lon="14.1372828"><ele>6.0</ele><time>2026-05-02T06:22:02.094Z</time></trkpt><trkpt lat="42.5137955" lon="14.1372113"><ele>6.0</ele><time>2026-05-02T06:22:03.099Z</time></trkpt><trkpt lat="42.5137129" lon="14.1370868"><ele>5.5</ele><time>2026-05-02T06:22:04.091Z</time></trkpt><trkpt lat="42.5136406" lon="14.1369335"><ele>5.0</ele><time>2026-05-02T06:22:05.089Z</time></trkpt><trkpt lat="42.5135803" lon="14.136766"><ele>4.5</ele><time>2026-05-02T06:22:06.094Z</time></trkpt><trkpt lat="42.513533" lon="14.1365821"><ele>4.0</ele><time>2026-05-02T06:22:07.095Z</time></trkpt><trkpt lat="42.5134888" lon="14.1363886"><ele>3.6666666666666665</ele><time>2026-05-02T06:22:08.094Z</time></trkpt><trkpt lat="42.513434" lon="14.136175"><ele>3.333333333333333</ele><time>2026-05-02T06:22:09.097Z</time></trkpt><trkpt lat="42.5133741" lon="14.1359675"><ele>3.0</ele><time>2026-05-02T06:22:10.091Z</time></trkpt><trkpt lat="42.5133029" lon="14.1357918"><ele>2.6666666666666665</ele><time>2026-05-02T06:22:11.094Z</time></trkpt><trkpt lat="42.5132335" lon="14.1356047"><ele>2.333333333333333</ele><time>2026-05-02T06:22:12.097Z</time></trkpt><trkpt lat="42.51314" lon="14.1354301"><ele>2.0</ele><time>2026-05-02T06:22:13.089Z</time></trkpt><trkpt lat="42.5130264" lon="14.135271"><ele>2.333333333333333</ele><time>2026-05-02T06:22:14.098Z</time></trkpt><trkpt lat="42.5128944" lon="14.1351352"><ele>2.6666666666666665</ele><time>2026-05-02T06:22:15.093Z</time></trkpt><trkpt lat="42.5127571" lon="14.1350318"><ele>3.0</ele><time>2026-05-02T06:22:16.096Z</time></trkpt><trkpt lat="42.5126185" lon="14.1349252"><ele>2.3333333333333335</ele><time>2026-05-02T06:22:17.106Z</time></trkpt><trkpt lat="42.5124782" lon="14.1348241"><ele>1.6666666666666665</ele><time>2026-05-02T06:22:18.111Z</time></trkpt><trkpt lat="42.5123336" lon="14.1347453"><ele>1.0</ele><time>2026-05-02T06:22:19.102Z</time></trkpt><trkpt lat="42.5121874" lon="14.134642"><ele>2.3333333333333335</ele><time>2026-05-02T06:22:20.107Z</time></trkpt><trkpt lat="42.512038" lon="14.1345207"><ele>3.666666666666667</ele><time>2026-05-02T06:22:21.101Z</time></trkpt><trkpt lat="42.5118866" lon="14.1344035"><ele>5.0</ele><time>2026-05-02T06:22:22.1Z</time></trkpt><trkpt lat="42.5117639" lon="14.1342404"><ele>5.0</ele><time>2026-05-02T06:22:23.098Z</time></trkpt><trkpt lat="42.5116351" lon="14.1340473"><ele>5.0</ele><time>2026-05-02T06:22:24.095Z</time></trkpt><trkpt lat="42.5115344" lon="14.1338479"><ele>5.0</ele><time>2026-05-02T06:22:25.094Z</time></trkpt><trkpt lat="42.5114548" lon="14.1336692"><ele>5.0</ele><time>2026-05-02T06:22:26.102Z</time></trkpt><trkpt lat="42.5113914" lon="14.1334778"><ele>5.0</ele><time>2026-05-02T06:22:27.111Z</time></trkpt><trkpt lat="42.5112968" lon="14.1332985"><ele>5.0</ele><time>2026-05-02T06:22:28.1Z</time></trkpt><trkpt lat="42.511182" lon="14.1331114"><ele>5.333333333333334</ele><time>2026-05-02T06:22:29.107Z</time></trkpt><trkpt lat="42.5110727" lon="14.1329371"><ele>5.666666666666667</ele><time>2026-05-02T06:22:30.094Z</time></trkpt><trkpt lat="42.5109589" lon="14.1327478"><ele>6.0</ele><time>2026-05-02T06:22:31.106Z</time></trkpt><trkpt lat="42.5108578" lon="14.1325615"><ele>5.333333333333333</ele><time>2026-05-02T06:22:32.095Z</time></trkpt><trkpt lat="42.510759" lon="14.1323729"><ele>4.666666666666666</ele><time>2026-05-02T06:22:33.11Z</time></trkpt><trkpt lat="42.5106686" lon="14.1321921"><ele>4.0</ele><time>2026-05-02T06:22:34.104Z</time></trkpt><trkpt lat="42.5105783" lon="14.1320184"><ele>4.0</ele><time>2026-05-02T06:22:35.107Z</time></trkpt><trkpt lat="42.5104622" lon="14.1318175"><ele>4.0</ele><time>2026-05-02T06:22:36.098Z</time></trkpt><trkpt lat="42.5103394" lon="14.1316244"><ele>4.0</ele><time>2026-05-02T06:22:37.107Z</time></trkpt><trkpt lat="42.5102241" lon="14.1314434"><ele>4.333333333333333</ele><time>2026-05-02T06:22:38.101Z</time></trkpt><trkpt lat="42.5101303" lon="14.1312548"><ele>4.666666666666667</ele><time>2026-05-02T06:22:39.099Z</time></trkpt><trkpt lat="42.5100363" lon="14.1310798"><ele>5.0</ele><time>2026-05-02T06:22:40.097Z</time></trkpt><trkpt lat="42.5099339" lon="14.1309105"><ele>5.0</ele><time>2026-05-02T06:22:41.105Z</time></trkpt><trkpt lat="42.5098272" lon="14.1307521"><ele>5.0</ele><time>2026-05-02T06:22:42.101Z</time></trkpt><trkpt lat="42.5097106" lon="14.1305959"><ele>5.0</ele><time>2026-05-02T06:22:43.103Z</time></trkpt><trkpt lat="42.5095963" lon="14.1304589"><ele>5.5</ele><time>2026-05-02T06:22:44.102Z</time></trkpt><trkpt lat="42.5095018" lon="14.1303183"><ele>6.0</ele><time>2026-05-02T06:22:45.108Z</time></trkpt><trkpt lat="42.5094098" lon="14.1301816"><ele>6.5</ele><time>2026-05-02T06:22:46.1Z</time></trkpt><trkpt lat="42.509324" lon="14.1300578"><ele>7.0</ele><time>2026-05-02T06:22:47.106Z</time></trkpt><trkpt lat="42.5092476" lon="14.1299546"><ele>6.666666666666667</ele><time>2026-05-02T06:22:48.098Z</time></trkpt><trkpt lat="42.509175" lon="14.1298437"><ele>6.333333333333334</ele><time>2026-05-02T06:22:49.098Z</time></trkpt><trkpt lat="42.5091345" lon="14.1297446"><ele>6.0</ele><time>2026-05-02T06:22:50.095Z</time></trkpt><trkpt lat="42.5091329" lon="14.1296403"><ele>5.666666666666667</ele><time>2026-05-02T06:22:51.101Z</time></trkpt><trkpt lat="42.5091098" lon="14.1295472"><ele>5.333333333333334</ele><time>2026-05-02T06:22:52.105Z</time></trkpt><trkpt lat="42.5090901" lon="14.129461"><ele>5.0</ele><time>2026-05-02T06:22:53.098Z</time></trkpt><trkpt lat="42.5089984" lon="14.1293289"><ele>5.0</ele><time>2026-05-02T06:22:55.099Z</time></trkpt><trkpt lat="42.5089148" lon="14.1292669"><ele>5.0</ele><time>2026-05-02T06:22:56.097Z</time></trkpt><trkpt lat="42.5088215" lon="14.1291871"><ele>5.0</ele><time>2026-05-02T06:22:57.107Z</time></trkpt><trkpt lat="42.508733" lon="14.129067"><ele>5.0</ele><time>2026-05-02T06:22:58.091Z</time></trkpt><trkpt lat="42.5086416" lon="14.1289258"><ele>5.333333333333334</ele><time>2026-05-02T06:22:59.097Z</time></trkpt><trkpt lat="42.5085441" lon="14.1287683"><ele>5.666666666666667</ele><time>2026-05-02T06:23:00.101Z</time></trkpt><trkpt lat="42.5084254" lon="14.1285692"><ele>6.0</ele><time>2026-05-02T06:23:01.102Z</time></trkpt><trkpt lat="42.5083159" lon="14.1283835"><ele>5.666666666666667</ele><time>2026-05-02T06:23:02.105Z</time></trkpt><trkpt lat="42.5082271" lon="14.1282028"><ele>5.333333333333334</ele><time>2026-05-02T06:23:03.102Z</time></trkpt><trkpt lat="42.50813" lon="14.1280153"><ele>5.0</ele><time>2026-05-02T06:23:04.102Z</time></trkpt><trkpt lat="42.5080297" lon="14.1278356"><ele>5.0</ele><time>2026-05-02T06:23:05.112Z</time></trkpt><trkpt lat="42.5079246" lon="14.1276607"><ele>5.0</ele><time>2026-05-02T06:23:06.106Z</time></trkpt><trkpt lat="42.5078127" lon="14.1274777"><ele>5.0</ele><time>2026-05-02T06:23:07.109Z</time></trkpt><trkpt lat="42.5077024" lon="14.1272985"><ele>6.0</ele><time>2026-05-02T06:23:08.099Z</time></trkpt><trkpt lat="42.507594" lon="14.1271057"><ele>7.0</ele><time>2026-05-02T06:23:09.106Z</time></trkpt><trkpt lat="42.5074871" lon="14.1269086"><ele>8.0</ele><time>2026-05-02T06:23:10.104Z</time></trkpt><trkpt lat="42.5073816" lon="14.1267127"><ele>7.666666666666666</ele><time>2026-05-02T06:23:11.105Z</time></trkpt><trkpt lat="42.5072699" lon="14.1265051"><ele>7.333333333333334</ele><time>2026-05-02T06:23:12.097Z</time></trkpt><trkpt lat="42.5071506" lon="14.1263041"><ele>7.0</ele><time>2026-05-02T06:23:13.109Z</time></trkpt><trkpt lat="42.5070393" lon="14.1261018"><ele>7.0</ele><time>2026-05-02T06:23:14.107Z</time></trkpt><trkpt lat="42.5069206" lon="14.1258987"><ele>7.0</ele><time>2026-05-02T06:23:15.099Z</time></trkpt><trkpt lat="42.5067959" lon="14.1257002"><ele>7.0</ele><time>2026-05-02T06:23:16.099Z</time></trkpt><trkpt lat="42.5066678" lon="14.125507"><ele>7.333333333333334</ele><time>2026-05-02T06:23:17.107Z</time></trkpt><trkpt lat="42.5065322" lon="14.125318"><ele>7.666666666666666</ele><time>2026-05-02T06:23:18.101Z</time></trkpt><trkpt lat="42.5063982" lon="14.1251328"><ele>8.0</ele><time>2026-05-02T06:23:19.106Z</time></trkpt><trkpt lat="42.5062496" lon="14.124953"><ele>8.333333333333332</ele><time>2026-05-02T06:23:20.104Z</time></trkpt><trkpt lat="42.5061" lon="14.1247651"><ele>8.666666666666666</ele><time>2026-05-02T06:23:21.102Z</time></trkpt><trkpt lat="42.505947" lon="14.1245808"><ele>9.0</ele><time>2026-05-02T06:23:22.106Z</time></trkpt><trkpt lat="42.5058022" lon="14.1244159"><ele>9.0</ele><time>2026-05-02T06:23:23.107Z</time></trkpt><trkpt lat="42.5056446" lon="14.1242527"><ele>9.0</ele><time>2026-05-02T06:23:24.104Z</time></trkpt><trkpt lat="42.5054928" lon="14.1240841"><ele>9.0</ele><time>2026-05-02T06:23:25.103Z</time></trkpt><trkpt lat="42.5053293" lon="14.1239097"><ele>8.333333333333334</ele><time>2026-05-02T06:23:26.104Z</time></trkpt><trkpt lat="42.5051548" lon="14.1237497"><ele>7.666666666666667</ele><time>2026-05-02T06:23:27.106Z</time></trkpt><trkpt lat="42.5049797" lon="14.1235889"><ele>7.0</ele><time>2026-05-02T06:23:28.103Z</time></trkpt><trkpt lat="42.5047877" lon="14.1234259"><ele>7.0</ele><time>2026-05-02T06:23:29.101Z</time></trkpt><trkpt lat="42.5046111" lon="14.1232701"><ele>7.0</ele><time>2026-05-02T06:23:30.103Z</time></trkpt><trkpt lat="42.5044354" lon="14.1231178"><ele>7.0</ele><time>2026-05-02T06:23:31.094Z</time></trkpt><trkpt lat="42.5042653" lon="14.1229694"><ele>8.0</ele><time>2026-05-02T06:23:32.097Z</time></trkpt><trkpt lat="42.5041084" lon="14.122792"><ele>9.0</ele><time>2026-05-02T06:23:33.093Z</time></trkpt><trkpt lat="42.5039457" lon="14.1226419"><ele>10.0</ele><time>2026-05-02T06:23:34.097Z</time></trkpt><trkpt lat="42.5037608" lon="14.1224933"><ele>9.666666666666668</ele><time>2026-05-02T06:23:35.103Z</time></trkpt><trkpt lat="42.5036176" lon="14.1223519"><ele>9.333333333333334</ele><time>2026-05-02T06:23:36.092Z</time></trkpt><trkpt lat="42.5034773" lon="14.1222301"><ele>9.0</ele><time>2026-05-02T06:23:37.092Z</time></trkpt><trkpt lat="42.5033373" lon="14.1221022"><ele>9.0</ele><time>2026-05-02T06:23:38.099Z</time></trkpt><trkpt lat="42.5032049" lon="14.1219934"><ele>9.0</ele><time>2026-05-02T06:23:39.096Z</time></trkpt><trkpt lat="42.5030996" lon="14.1218999"><ele>9.0</ele><time>2026-05-02T06:23:40.099Z</time></trkpt><trkpt lat="42.503012" lon="14.1218093"><ele>9.0</ele><time>2026-05-02T06:23:41.106Z</time></trkpt><trkpt lat="42.5029454" lon="14.1216996"><ele>8.833333333333334</ele><time>2026-05-02T06:23:42.094Z</time></trkpt><trkpt lat="42.5028848" lon="14.1215761"><ele>8.666666666666666</ele><time>2026-05-02T06:23:43.099Z</time></trkpt><trkpt lat="42.5028573" lon="14.1214624"><ele>8.5</ele><time>2026-05-02T06:23:44.102Z</time></trkpt><trkpt lat="42.5028141" lon="14.1213657"><ele>8.333333333333332</ele><time>2026-05-02T06:23:45.092Z</time></trkpt><trkpt lat="42.5027459" lon="14.1213034"><ele>8.166666666666666</ele><time>2026-05-02T06:23:46.107Z</time></trkpt><trkpt lat="42.5026665" lon="14.1212843"><ele>8.0</ele><time>2026-05-02T06:23:47.104Z</time></trkpt><trkpt lat="42.5025698" lon="14.1212786"><ele>8.0</ele><time>2026-05-02T06:23:48.096Z</time></trkpt><trkpt lat="42.5024656" lon="14.1212823"><ele>8.0</ele><time>2026-05-02T06:23:49.099Z</time></trkpt><trkpt lat="42.5023632" lon="14.1212786"><ele>8.0</ele><time>2026-05-02T06:23:50.102Z</time></trkpt><trkpt lat="42.5022433" lon="14.1212219"><ele>8.0</ele><time>2026-05-02T06:23:51.097Z</time></trkpt><trkpt lat="42.5021113" lon="14.121146"><ele>8.666666666666666</ele><time>2026-05-02T06:23:52.096Z</time></trkpt><trkpt lat="42.5019664" lon="14.1210567"><ele>9.333333333333334</ele><time>2026-05-02T06:23:53.094Z</time></trkpt><trkpt lat="42.5017852" lon="14.1209594"><ele>10.0</ele><time>2026-05-02T06:23:54.093Z</time></trkpt><trkpt lat="42.5016017" lon="14.1208701"><ele>10.0</ele><time>2026-05-02T06:23:55.096Z</time></trkpt><trkpt lat="42.5014236" lon="14.1208069"><ele>10.0</ele><time>2026-05-02T06:23:56.096Z</time></trkpt><trkpt lat="42.501259" lon="14.1207712"><ele>10.0</ele><time>2026-05-02T06:23:57.087Z</time></trkpt><trkpt lat="42.5010841" lon="14.1207218"><ele>10.333333333333334</ele><time>2026-05-02T06:23:58.096Z</time></trkpt><trkpt lat="42.5009124" lon="14.1206221"><ele>10.666666666666666</ele><time>2026-05-02T06:23:59.087Z</time></trkpt><trkpt lat="42.5007524" lon="14.1205071"><ele>11.0</ele><time>2026-05-02T06:24:00.098Z</time></trkpt><trkpt lat="42.5006016" lon="14.120387"><ele>11.0</ele><time>2026-05-02T06:24:01.092Z</time></trkpt><trkpt lat="42.5004345" lon="14.1202571"><ele>11.0</ele><time>2026-05-02T06:24:02.095Z</time></trkpt><trkpt lat="42.5002757" lon="14.1201487"><ele>11.0</ele><time>2026-05-02T06:24:03.087Z</time></trkpt><trkpt lat="42.500149" lon="14.1200334"><ele>10.8</ele><time>2026-05-02T06:24:04.102Z</time></trkpt><trkpt lat="42.5000343" lon="14.1199426"><ele>10.600000000000001</ele><time>2026-05-02T06:24:05.083Z</time></trkpt><trkpt lat="42.4999439" lon="14.1198887"><ele>10.4</ele><time>2026-05-02T06:24:06.085Z</time></trkpt><trkpt lat="42.499852" lon="14.1198165"><ele>10.2</ele><time>2026-05-02T06:24:07.095Z</time></trkpt><trkpt lat="42.4997799" lon="14.1197754"><ele>10.0</ele><time>2026-05-02T06:24:08.1Z</time></trkpt><trkpt lat="42.4996885" lon="14.1197733"><ele>10.0</ele><time>2026-05-02T06:24:09.098Z</time></trkpt><trkpt lat="42.4996017" lon="14.119815"><ele>10.0</ele><time>2026-05-02T06:24:10.081Z</time></trkpt><trkpt lat="42.4995303" lon="14.1199308"><ele>10.0</ele><time>2026-05-02T06:24:11.091Z</time></trkpt><trkpt lat="42.4994248" lon="14.1200418"><ele>10.0</ele><time>2026-05-02T06:24:12.088Z</time></trkpt><trkpt lat="42.4993267" lon="14.120187"><ele>11.666666666666668</ele><time>2026-05-02T06:24:13.095Z</time></trkpt><trkpt lat="42.4992204" lon="14.1203347"><ele>13.333333333333334</ele><time>2026-05-02T06:24:14.089Z</time></trkpt><trkpt lat="42.4990965" lon="14.1204927"><ele>15.0</ele><time>2026-05-02T06:24:15.102Z</time></trkpt><trkpt lat="42.4989701" lon="14.1206416"><ele>15.0</ele><time>2026-05-02T06:24:16.099Z</time></trkpt><trkpt lat="42.4988532" lon="14.120811"><ele>15.0</ele><time>2026-05-02T06:24:17.105Z</time></trkpt><trkpt lat="42.498725" lon="14.1209575"><ele>15.0</ele><time>2026-05-02T06:24:18.101Z</time></trkpt><trkpt lat="42.4986095" lon="14.1211043"><ele>15.0</ele><time>2026-05-02T06:24:19.096Z</time></trkpt><trkpt lat="42.4985102" lon="14.1212384"><ele>15.0</ele><time>2026-05-02T06:24:20.097Z</time></trkpt><trkpt lat="42.498408" lon="14.1213709"><ele>15.0</ele><time>2026-05-02T06:24:21.103Z</time></trkpt><trkpt lat="42.4983078" lon="14.1214917"><ele>15.0</ele><time>2026-05-02T06:24:22.102Z</time></trkpt><trkpt lat="42.4981816" lon="14.1215802"><ele>15.0</ele><time>2026-05-02T06:24:23.098Z</time></trkpt><trkpt lat="42.498061" lon="14.1216687"><ele>15.0</ele><time>2026-05-02T06:24:24.1Z</time></trkpt><trkpt lat="42.4979404" lon="14.1217911"><ele>15.0</ele><time>2026-05-02T06:24:25.101Z</time></trkpt><trkpt lat="42.497827" lon="14.1219462"><ele>15.0</ele><time>2026-05-02T06:24:26.091Z</time></trkpt><trkpt lat="42.4977109" lon="14.1220989"><ele>15.0</ele><time>2026-05-02T06:24:27.093Z</time></trkpt><trkpt lat="42.4975957" lon="14.122283"><ele>15.0</ele><time>2026-05-02T06:24:28.102Z</time></trkpt><trkpt lat="42.4974896" lon="14.1224873"><ele>15.0</ele><time>2026-05-02T06:24:29.1Z</time></trkpt><trkpt lat="42.4973771" lon="14.1226764"><ele>14.666666666666668</ele><time>2026-05-02T06:24:30.099Z</time></trkpt><trkpt lat="42.4972922" lon="14.1228646"><ele>14.333333333333334</ele><time>2026-05-02T06:24:31.101Z</time></trkpt><trkpt lat="42.4972143" lon="14.1230237"><ele>14.0</ele><time>2026-05-02T06:24:32.101Z</time></trkpt><trkpt lat="42.4971133" lon="14.1231737"><ele>14.5</ele><time>2026-05-02T06:24:33.097Z</time></trkpt><trkpt lat="42.4970152" lon="14.1233075"><ele>15.0</ele><time>2026-05-02T06:24:34.098Z</time></trkpt><trkpt lat="42.4969325" lon="14.1234534"><ele>15.5</ele><time>2026-05-02T06:24:35.097Z</time></trkpt><trkpt lat="42.4968429" lon="14.1235596"><ele>16.0</ele><time>2026-05-02T06:24:36.099Z</time></trkpt><trkpt lat="42.4967428" lon="14.1236857"><ele>16.0</ele><time>2026-05-02T06:24:37.101Z</time></trkpt><trkpt lat="42.4966419" lon="14.1237973"><ele>16.0</ele><time>2026-05-02T06:24:38.101Z</time></trkpt><trkpt lat="42.4965173" lon="14.1238669"><ele>16.0</ele><time>2026-05-02T06:24:39.099Z</time></trkpt><trkpt lat="42.4964024" lon="14.1239658"><ele>16.0</ele><time>2026-05-02T06:24:40.1Z</time></trkpt><trkpt lat="42.4963066" lon="14.1240578"><ele>15.8</ele><time>2026-05-02T06:24:41.094Z</time></trkpt><trkpt lat="42.4962215" lon="14.1241512"><ele>15.600000000000001</ele><time>2026-05-02T06:24:42.102Z</time></trkpt><trkpt lat="42.4961424" lon="14.1242335"><ele>15.4</ele><time>2026-05-02T06:24:43.089Z</time></trkpt><trkpt lat="42.4960706" lon="14.1242971"><ele>15.2</ele><time>2026-05-02T06:24:44.091Z</time></trkpt><trkpt lat="42.4960056" lon="14.1243616"><ele>15.0</ele><time>2026-05-02T06:24:45.092Z</time></trkpt><trkpt lat="42.4959384" lon="14.1244048"><ele>15.0</ele><time>2026-05-02T06:24:46.093Z</time></trkpt><trkpt lat="42.49587" lon="14.1244319"><ele>15.0</ele><time>2026-05-02T06:24:47.094Z</time></trkpt><trkpt lat="42.4957985" lon="14.1244785"><ele>15.0</ele><time>2026-05-02T06:24:48.097Z</time></trkpt><trkpt lat="42.4957243" lon="14.1245246"><ele>15.0</ele><time>2026-05-02T06:24:49.09Z</time></trkpt><trkpt lat="42.4956382" lon="14.1245442"><ele>15.0</ele><time>2026-05-02T06:24:50.089Z</time></trkpt><trkpt lat="42.4955441" lon="14.1245523"><ele>15.0</ele><time>2026-05-02T06:24:51.093Z</time></trkpt><trkpt lat="42.4954345" lon="14.1245503"><ele>15.5</ele><time>2026-05-02T06:24:52.089Z</time></trkpt><trkpt lat="42.4953089" lon="14.1245433"><ele>16.0</ele><time>2026-05-02T06:24:53.096Z</time></trkpt><trkpt lat="42.4951829" lon="14.1245388"><ele>16.5</ele><time>2026-05-02T06:24:54.094Z</time></trkpt><trkpt lat="42.4950611" lon="14.1245323"><ele>17.0</ele><time>2026-05-02T06:24:55.092Z</time></trkpt><trkpt lat="42.4949384" lon="14.1245376"><ele>17.0</ele><time>2026-05-02T06:24:56.094Z</time></trkpt><trkpt lat="42.4948283" lon="14.1245367"><ele>17.0</ele><time>2026-05-02T06:24:57.095Z</time></trkpt><trkpt lat="42.4947247" lon="14.124534"><ele>17.0</ele><time>2026-05-02T06:24:58.099Z</time></trkpt><trkpt lat="42.4946277" lon="14.1245235"><ele>17.0</ele><time>2026-05-02T06:24:59.093Z</time></trkpt><trkpt lat="42.4945384" lon="14.124514"><ele>17.0</ele><time>2026-05-02T06:25:00.09Z</time></trkpt><trkpt lat="42.4944573" lon="14.1244993"><ele>17.166666666666668</ele><time>2026-05-02T06:25:01.088Z</time></trkpt><trkpt lat="42.4943838" lon="14.1245094"><ele>17.333333333333336</ele><time>2026-05-02T06:25:02.086Z</time></trkpt><trkpt lat="42.4943115" lon="14.1245649"><ele>17.5</ele><time>2026-05-02T06:25:03.085Z</time></trkpt><trkpt lat="42.4942397" lon="14.1246484"><ele>17.666666666666668</ele><time>2026-05-02T06:25:04.078Z</time></trkpt><trkpt lat="42.4941639" lon="14.1247386"><ele>17.833333333333332</ele><time>2026-05-02T06:25:05.078Z</time></trkpt><trkpt lat="42.4940947" lon="14.1248269"><ele>18.0</ele><time>2026-05-02T06:25:06.085Z</time></trkpt><trkpt lat="42.4940378" lon="14.124912"><ele>18.0</ele><time>2026-05-02T06:25:07.079Z</time></trkpt><trkpt lat="42.4939857" lon="14.1249887"><ele>18.0</ele><time>2026-05-02T06:25:08.082Z</time></trkpt><trkpt lat="42.4939512" lon="14.1250715"><ele>18.0</ele><time>2026-05-02T06:25:09.08Z</time></trkpt><trkpt lat="42.4938989" lon="14.125208"><ele>18.0</ele><time>2026-05-02T06:25:11.091Z</time></trkpt><trkpt lat="42.4938488" lon="14.1252927"><ele>18.0</ele><time>2026-05-02T06:25:23.102Z</time></trkpt><trkpt lat="42.4937856" lon="14.1253055"><ele>18.0</ele><time>2026-05-02T06:25:27.092Z</time></trkpt><trkpt lat="42.493696" lon="14.125219"><ele>18.166666666666668</ele><time>2026-05-02T06:25:29.101Z</time></trkpt><trkpt lat="42.4936351" lon="14.1251627"><ele>18.333333333333332</ele><time>2026-05-02T06:25:30.096Z</time></trkpt><trkpt lat="42.4935645" lon="14.1250902"><ele>18.5</ele><time>2026-05-02T06:25:31.091Z</time></trkpt><trkpt lat="42.4934858" lon="14.1250062"><ele>18.666666666666664</ele><time>2026-05-02T06:25:32.085Z</time></trkpt><trkpt lat="42.493414" lon="14.1249348"><ele>18.833333333333332</ele><time>2026-05-02T06:25:33.091Z</time></trkpt><trkpt lat="42.4933497" lon="14.1248717"><ele>19.0</ele><time>2026-05-02T06:25:34.087Z</time></trkpt><trkpt lat="42.493296" lon="14.1248144"><ele>19.0</ele><time>2026-05-02T06:25:35.086Z</time></trkpt><trkpt lat="42.4932409" lon="14.1247605"><ele>19.0</ele><time>2026-05-02T06:25:36.095Z</time></trkpt><trkpt lat="42.4931384" lon="14.1246746"><ele>19.0</ele><time>2026-05-02T06:25:38.093Z</time></trkpt><trkpt lat="42.4930659" lon="14.1246127"><ele>19.0</ele><time>2026-05-02T06:25:40.087Z</time></trkpt><trkpt lat="42.4930015" lon="14.1245487"><ele>19.0</ele><time>2026-05-02T06:25:42.093Z</time></trkpt><trkpt lat="42.49291" lon="14.1244787"><ele>19.5</ele><time>2026-05-02T06:25:44.092Z</time></trkpt><trkpt lat="42.4928515" lon="14.1244349"><ele>20.0</ele><time>2026-05-02T06:25:45.096Z</time></trkpt><trkpt lat="42.4927829" lon="14.1243841"><ele>20.5</ele><time>2026-05-02T06:25:46.094Z</time></trkpt><trkpt lat="42.4927116" lon="14.1243274"><ele>21.0</ele><time>2026-05-02T06:25:47.093Z</time></trkpt><trkpt lat="42.4926373" lon="14.1242623"><ele>21.5</ele><time>2026-05-02T06:25:48.092Z</time></trkpt><trkpt lat="42.4925437" lon="14.1241894"><ele>22.0</ele><time>2026-05-02T06:25:49.09Z</time></trkpt><trkpt lat="42.4924439" lon="14.1241053"><ele>21.75</ele><time>2026-05-02T06:25:50.096Z</time></trkpt><trkpt lat="42.4923304" lon="14.1240051"><ele>21.5</ele><time>2026-05-02T06:25:51.088Z</time></trkpt><trkpt lat="42.4922158" lon="14.1239026"><ele>21.25</ele><time>2026-05-02T06:25:52.095Z</time></trkpt><trkpt lat="42.4921033" lon="14.1238044"><ele>21.0</ele><time>2026-05-02T06:25:53.092Z</time></trkpt><trkpt lat="42.4919936" lon="14.1237106"><ele>21.0</ele><time>2026-05-02T06:25:54.096Z</time></trkpt><trkpt lat="42.4918891" lon="14.1236268"><ele>21.0</ele><time>2026-05-02T06:25:55.087Z</time></trkpt><trkpt lat="42.4917949" lon="14.1235519"><ele>21.0</ele><time>2026-05-02T06:25:56.087Z</time></trkpt><trkpt lat="42.4917143" lon="14.1234909"><ele>21.0</ele><time>2026-05-02T06:25:57.082Z</time></trkpt><trkpt lat="42.4916347" lon="14.1234303"><ele>21.0</ele><time>2026-05-02T06:25:58.082Z</time></trkpt><trkpt lat="42.4915528" lon="14.1233635"><ele>21.0</ele><time>2026-05-02T06:25:59.099Z</time></trkpt><trkpt lat="42.4914681" lon="14.123303"><ele>21.0</ele><time>2026-05-02T06:26:00.084Z</time></trkpt><trkpt lat="42.4913808" lon="14.1232369"><ele>21.0</ele><time>2026-05-02T06:26:01.089Z</time></trkpt><trkpt lat="42.4912933" lon="14.1231698"><ele>21.0</ele><time>2026-05-02T06:26:02.089Z</time></trkpt><trkpt lat="42.4912081" lon="14.1231046"><ele>21.0</ele><time>2026-05-02T06:26:03.091Z</time></trkpt><trkpt lat="42.4911272" lon="14.1230405"><ele>21.5</ele><time>2026-05-02T06:26:04.091Z</time></trkpt><trkpt lat="42.4910315" lon="14.122973"><ele>22.0</ele><time>2026-05-02T06:26:05.094Z</time></trkpt><trkpt lat="42.4909291" lon="14.1228922"><ele>22.5</ele><time>2026-05-02T06:26:06.092Z</time></trkpt><trkpt lat="42.4908229" lon="14.1228085"><ele>23.0</ele><time>2026-05-02T06:26:07.09Z</time></trkpt><trkpt lat="42.4907099" lon="14.1227202"><ele>23.0</ele><time>2026-05-02T06:26:08.089Z</time></trkpt><trkpt lat="42.4905916" lon="14.1226351"><ele>23.0</ele><time>2026-05-02T06:26:09.086Z</time></trkpt><trkpt lat="42.4904744" lon="14.1225365"><ele>23.0</ele><time>2026-05-02T06:26:10.091Z</time></trkpt><trkpt lat="42.4903551" lon="14.1224422"><ele>23.0</ele><time>2026-05-02T06:26:11.086Z</time></trkpt><trkpt lat="42.490247" lon="14.122333"><ele>22.75</ele><time>2026-05-02T06:26:12.093Z</time></trkpt><trkpt lat="42.4901247" lon="14.1222394"><ele>22.5</ele><time>2026-05-02T06:26:13.096Z</time></trkpt><trkpt lat="42.4900139" lon="14.1221472"><ele>22.25</ele><time>2026-05-02T06:26:14.095Z</time></trkpt><trkpt lat="42.4898894" lon="14.1220428"><ele>22.0</ele><time>2026-05-02T06:26:15.087Z</time></trkpt><trkpt lat="42.489763" lon="14.1219491"><ele>22.0</ele><time>2026-05-02T06:26:16.088Z</time></trkpt><trkpt lat="42.4896282" lon="14.1218218"><ele>22.0</ele><time>2026-05-02T06:26:17.09Z</time></trkpt><trkpt lat="42.4895071" lon="14.1217223"><ele>22.0</ele><time>2026-05-02T06:26:18.096Z</time></trkpt><trkpt lat="42.4893932" lon="14.1216264"><ele>22.0</ele><time>2026-05-02T06:26:19.097Z</time></trkpt><trkpt lat="42.4892802" lon="14.1215391"><ele>22.25</ele><time>2026-05-02T06:26:20.093Z</time></trkpt><trkpt lat="42.4891715" lon="14.1214357"><ele>22.5</ele><time>2026-05-02T06:26:21.095Z</time></trkpt><trkpt lat="42.4890602" lon="14.1213415"><ele>22.75</ele><time>2026-05-02T06:26:22.101Z</time></trkpt><trkpt lat="42.4889363" lon="14.1212496"><ele>23.0</ele><time>2026-05-02T06:26:23.097Z</time></trkpt><trkpt lat="42.4888121" lon="14.1211452"><ele>23.666666666666668</ele><time>2026-05-02T06:26:24.099Z</time></trkpt><trkpt lat="42.4886655" lon="14.1210328"><ele>24.333333333333336</ele><time>2026-05-02T06:26:25.098Z</time></trkpt><trkpt lat="42.4885428" lon="14.120943"><ele>25.0</ele><time>2026-05-02T06:26:26.095Z</time></trkpt><trkpt lat="42.4884201" lon="14.1208368"><ele>25.0</ele><time>2026-05-02T06:26:27.092Z</time></trkpt><trkpt lat="42.4882862" lon="14.1207455"><ele>25.0</ele><time>2026-05-02T06:26:28.099Z</time></trkpt><trkpt lat="42.4881448" lon="14.1206432"><ele>25.0</ele><time>2026-05-02T06:26:29.095Z</time></trkpt><trkpt lat="42.4880228" lon="14.1205341"><ele>25.25</ele><time>2026-05-02T06:26:30.101Z</time></trkpt><trkpt lat="42.4879122" lon="14.1204315"><ele>25.5</ele><time>2026-05-02T06:26:31.1Z</time></trkpt><trkpt lat="42.4878088" lon="14.1203426"><ele>25.75</ele><time>2026-05-02T06:26:32.101Z</time></trkpt><trkpt lat="42.4876877" lon="14.1202389"><ele>26.0</ele><time>2026-05-02T06:26:33.097Z</time></trkpt><trkpt lat="42.4875471" lon="14.1201355"><ele>26.0</ele><time>2026-05-02T06:26:34.101Z</time></trkpt><trkpt lat="42.4874216" lon="14.1200335"><ele>26.0</ele><time>2026-05-02T06:26:35.102Z</time></trkpt><trkpt lat="42.487285" lon="14.1199242"><ele>26.0</ele><time>2026-05-02T06:26:36.096Z</time></trkpt><trkpt lat="42.4871591" lon="14.1198028"><ele>26.0</ele><time>2026-05-02T06:26:37.093Z</time></trkpt><trkpt lat="42.4870507" lon="14.1197135"><ele>26.0</ele><time>2026-05-02T06:26:38.082Z</time></trkpt><trkpt lat="42.4869536" lon="14.1196502"><ele>26.0</ele><time>2026-05-02T06:26:39.097Z</time></trkpt><trkpt lat="42.4868452" lon="14.1195643"><ele>26.0</ele><time>2026-05-02T06:26:40.093Z</time></trkpt><trkpt lat="42.4867458" lon="14.1194835"><ele>26.0</ele><time>2026-05-02T06:26:41.094Z</time></trkpt><trkpt lat="42.4866431" lon="14.1193855"><ele>26.0</ele><time>2026-05-02T06:26:42.107Z</time></trkpt><trkpt lat="42.4865301" lon="14.1192925"><ele>26.0</ele><time>2026-05-02T06:26:43.095Z</time></trkpt><trkpt lat="42.486421" lon="14.1192017"><ele>26.0</ele><time>2026-05-02T06:26:44.099Z</time></trkpt><trkpt lat="42.4863111" lon="14.1191077"><ele>25.75</ele><time>2026-05-02T06:26:45.093Z</time></trkpt><trkpt lat="42.4862053" lon="14.1190235"><ele>25.5</ele><time>2026-05-02T06:26:46.101Z</time></trkpt><trkpt lat="42.486095" lon="14.1189367"><ele>25.25</ele><time>2026-05-02T06:26:47.097Z</time></trkpt><trkpt lat="42.485984" lon="14.1188474"><ele>25.0</ele><time>2026-05-02T06:26:48.098Z</time></trkpt><trkpt lat="42.4858679" lon="14.1187638"><ele>25.0</ele><time>2026-05-02T06:26:49.091Z</time></trkpt><trkpt lat="42.4857538" lon="14.1186777"><ele>25.0</ele><time>2026-05-02T06:26:50.098Z</time></trkpt><trkpt lat="42.4856362" lon="14.1185855"><ele>25.0</ele><time>2026-05-02T06:26:51.092Z</time></trkpt><trkpt lat="42.4855256" lon="14.1184995"><ele>25.0</ele><time>2026-05-02T06:26:52.107Z</time></trkpt><trkpt lat="42.4854136" lon="14.11841"><ele>25.5</ele><time>2026-05-02T06:26:53.098Z</time></trkpt><trkpt lat="42.4853103" lon="14.1183249"><ele>26.0</ele><time>2026-05-02T06:26:54.099Z</time></trkpt><trkpt lat="42.4852107" lon="14.118249"><ele>26.5</ele><time>2026-05-02T06:26:55.099Z</time></trkpt><trkpt lat="42.4851117" lon="14.1181738"><ele>27.0</ele><time>2026-05-02T06:26:56.096Z</time></trkpt><trkpt lat="42.485012" lon="14.1181033"><ele>27.0</ele><time>2026-05-02T06:26:57.106Z</time></trkpt><trkpt lat="42.4849102" lon="14.1180256"><ele>27.0</ele><time>2026-05-02T06:26:58.093Z</time></trkpt><trkpt lat="42.4848127" lon="14.1179492"><ele>27.0</ele><time>2026-05-02T06:26:59.095Z</time></trkpt><trkpt lat="42.4847117" lon="14.1178686"><ele>27.0</ele><time>2026-05-02T06:27:00.094Z</time></trkpt><trkpt lat="42.4846112" lon="14.1177877"><ele>27.0</ele><time>2026-05-02T06:27:01.087Z</time></trkpt><trkpt lat="42.4845097" lon="14.1177031"><ele>27.0</ele><time>2026-05-02T06:27:02.087Z</time></trkpt><trkpt lat="42.4844071" lon="14.1176063"><ele>27.0</ele><time>2026-05-02T06:27:03.089Z</time></trkpt><trkpt lat="42.4842924" lon="14.1175035"><ele>27.0</ele><time>2026-05-02T06:27:04.093Z</time></trkpt><trkpt lat="42.4841703" lon="14.1173967"><ele>27.0</ele><time>2026-05-02T06:27:05.086Z</time></trkpt><trkpt lat="42.4840376" lon="14.1172868"><ele>27.0</ele><time>2026-05-02T06:27:06.097Z</time></trkpt><trkpt lat="42.483907" lon="14.1171852"><ele>27.0</ele><time>2026-05-02T06:27:07.089Z</time></trkpt><trkpt lat="42.4837832" lon="14.1170809"><ele>28.0</ele><time>2026-05-02T06:27:08.091Z</time></trkpt><trkpt lat="42.483628" lon="14.116965"><ele>29.0</ele><time>2026-05-02T06:27:09.095Z</time></trkpt><trkpt lat="42.4834993" lon="14.1168579"><ele>30.0</ele><time>2026-05-02T06:27:10.094Z</time></trkpt><trkpt lat="42.4833702" lon="14.1167493"><ele>30.0</ele><time>2026-05-02T06:27:11.098Z</time></trkpt><trkpt lat="42.4832578" lon="14.1166565"><ele>30.0</ele><time>2026-05-02T06:27:12.102Z</time></trkpt><trkpt lat="42.4831332" lon="14.1165351"><ele>30.0</ele><time>2026-05-02T06:27:13.101Z</time></trkpt><trkpt lat="42.483002" lon="14.1164227"><ele>30.0</ele><time>2026-05-02T06:27:14.102Z</time></trkpt><trkpt lat="42.4828792" lon="14.1163284"><ele>29.666666666666664</ele><time>2026-05-02T06:27:15.103Z</time></trkpt><trkpt lat="42.4827574" lon="14.1162289"><ele>29.333333333333332</ele><time>2026-05-02T06:27:16.1Z</time></trkpt><trkpt lat="42.4826193" lon="14.1161167"><ele>29.0</ele><time>2026-05-02T06:27:17.103Z</time></trkpt><trkpt lat="42.4824734" lon="14.1160079"><ele>29.0</ele><time>2026-05-02T06:27:18.101Z</time></trkpt><trkpt lat="42.4823241" lon="14.1159067"><ele>29.0</ele><time>2026-05-02T06:27:19.099Z</time></trkpt><trkpt lat="42.4821793" lon="14.1158093"><ele>29.0</ele><time>2026-05-02T06:27:20.106Z</time></trkpt><trkpt lat="42.4820467" lon="14.1156977"><ele>30.333333333333332</ele><time>2026-05-02T06:27:21.103Z</time></trkpt><trkpt lat="42.4819234" lon="14.1155856"><ele>31.666666666666664</ele><time>2026-05-02T06:27:22.101Z</time></trkpt><trkpt lat="42.4817996" lon="14.1154769"><ele>33.0</ele><time>2026-05-02T06:27:23.11Z</time></trkpt><trkpt lat="42.4816708" lon="14.1153594"><ele>33.0</ele><time>2026-05-02T06:27:24.102Z</time></trkpt><trkpt lat="42.4815518" lon="14.115242"><ele>33.0</ele><time>2026-05-02T06:27:25.106Z</time></trkpt><trkpt lat="42.4814223" lon="14.1151504"><ele>33.0</ele><time>2026-05-02T06:27:26.099Z</time></trkpt><trkpt lat="42.4813123" lon="14.1150577"><ele>33.0</ele><time>2026-05-02T06:27:27.114Z</time></trkpt><trkpt lat="42.4811942" lon="14.1149702"><ele>32.25</ele><time>2026-05-02T06:27:28.109Z</time></trkpt><trkpt lat="42.4810687" lon="14.114869"><ele>31.5</ele><time>2026-05-02T06:27:29.113Z</time></trkpt><trkpt lat="42.480957" lon="14.1147777"><ele>30.75</ele><time>2026-05-02T06:27:30.102Z</time></trkpt><trkpt lat="42.4808438" lon="14.1146804"><ele>30.0</ele><time>2026-05-02T06:27:31.109Z</time></trkpt><trkpt lat="42.480741" lon="14.1145971"><ele>30.0</ele><time>2026-05-02T06:27:32.101Z</time></trkpt><trkpt lat="42.4806325" lon="14.1145107"><ele>30.0</ele><time>2026-05-02T06:27:33.097Z</time></trkpt><trkpt lat="42.4805253" lon="14.1144239"><ele>30.0</ele><time>2026-05-02T06:27:34.104Z</time></trkpt><trkpt lat="42.480424" lon="14.1143532"><ele>30.0</ele><time>2026-05-02T06:27:35.101Z</time></trkpt><trkpt lat="42.4803115" lon="14.1142684"><ele>30.0</ele><time>2026-05-02T06:27:36.102Z</time></trkpt><trkpt lat="42.4802164" lon="14.1142068"><ele>30.0</ele><time>2026-05-02T06:27:37.099Z</time></trkpt><trkpt lat="42.4801187" lon="14.1141265"><ele>30.0</ele><time>2026-05-02T06:27:38.1Z</time></trkpt><trkpt lat="42.4800236" lon="14.1140418"><ele>30.0</ele><time>2026-05-02T06:27:39.106Z</time></trkpt><trkpt lat="42.4799203" lon="14.1139511"><ele>29.8</ele><time>2026-05-02T06:27:40.099Z</time></trkpt><trkpt lat="42.4798215" lon="14.1138679"><ele>29.6</ele><time>2026-05-02T06:27:41.109Z</time></trkpt><trkpt lat="42.4797257" lon="14.1137926"><ele>29.4</ele><time>2026-05-02T06:27:42.1Z</time></trkpt><trkpt lat="42.4796446" lon="14.1137264"><ele>29.2</ele><time>2026-05-02T06:27:43.1Z</time></trkpt><trkpt lat="42.4795711" lon="14.1136661"><ele>29.0</ele><time>2026-05-02T06:27:44.105Z</time></trkpt><trkpt lat="42.4794937" lon="14.1136056"><ele>29.6</ele><time>2026-05-02T06:27:45.1Z</time></trkpt><trkpt lat="42.4794175" lon="14.1135462"><ele>30.2</ele><time>2026-05-02T06:27:46.11Z</time></trkpt><trkpt lat="42.479337" lon="14.1134854"><ele>30.800000000000004</ele><time>2026-05-02T06:27:47.108Z</time></trkpt><trkpt lat="42.4792549" lon="14.1134143"><ele>31.400000000000002</ele><time>2026-05-02T06:27:48.111Z</time></trkpt><trkpt lat="42.47917" lon="14.1133421"><ele>32.0</ele><time>2026-05-02T06:27:49.11Z</time></trkpt><trkpt lat="42.4790767" lon="14.1132688"><ele>32.2</ele><time>2026-05-02T06:27:50.107Z</time></trkpt><trkpt lat="42.4789876" lon="14.113198"><ele>32.400000000000006</ele><time>2026-05-02T06:27:51.105Z</time></trkpt><trkpt lat="42.4788931" lon="14.1131236"><ele>32.599999999999994</ele><time>2026-05-02T06:27:52.113Z</time></trkpt><trkpt lat="42.4788012" lon="14.1130543"><ele>32.8</ele><time>2026-05-02T06:27:53.115Z</time></trkpt><trkpt lat="42.4787147" lon="14.1129868"><ele>33.0</ele><time>2026-05-02T06:27:54.117Z</time></trkpt><trkpt lat="42.4786274" lon="14.1129109"><ele>33.0</ele><time>2026-05-02T06:27:55.104Z</time></trkpt><trkpt lat="42.4785389" lon="14.1128353"><ele>33.0</ele><time>2026-05-02T06:27:56.109Z</time></trkpt><trkpt lat="42.4784515" lon="14.1127581"><ele>33.0</ele><time>2026-05-02T06:27:57.102Z</time></trkpt><trkpt lat="42.4783598" lon="14.1126856"><ele>33.0</ele><time>2026-05-02T06:27:58.098Z</time></trkpt><trkpt lat="42.4782693" lon="14.1126184"><ele>33.0</ele><time>2026-05-02T06:27:59.105Z</time></trkpt><trkpt lat="42.4781773" lon="14.1125443"><ele>33.0</ele><time>2026-05-02T06:28:00.095Z</time></trkpt><trkpt lat="42.4780832" lon="14.1124675"><ele>33.0</ele><time>2026-05-02T06:28:01.108Z</time></trkpt><trkpt lat="42.4779826" lon="14.1123877"><ele>33.0</ele><time>2026-05-02T06:28:02.102Z</time></trkpt><trkpt lat="42.4778793" lon="14.1123144"><ele>33.0</ele><time>2026-05-02T06:28:03.1Z</time></trkpt><trkpt lat="42.477773" lon="14.1122404"><ele>33.5</ele><time>2026-05-02T06:28:04.096Z</time></trkpt><trkpt lat="42.477669" lon="14.1121454"><ele>34.0</ele><time>2026-05-02T06:28:05.089Z</time></trkpt><trkpt lat="42.4775577" lon="14.112055"><ele>34.5</ele><time>2026-05-02T06:28:06.093Z</time></trkpt><trkpt lat="42.47745" lon="14.1119664"><ele>35.0</ele><time>2026-05-02T06:28:07.081Z</time></trkpt><trkpt lat="42.4773466" lon="14.1118807"><ele>35.0</ele><time>2026-05-02T06:28:08.091Z</time></trkpt><trkpt lat="42.4772535" lon="14.1118007"><ele>35.0</ele><time>2026-05-02T06:28:09.087Z</time></trkpt><trkpt lat="42.4771581" lon="14.1117228"><ele>35.0</ele><time>2026-05-02T06:28:10.096Z</time></trkpt><trkpt lat="42.4770613" lon="14.1116444"><ele>35.0</ele><time>2026-05-02T06:28:11.087Z</time></trkpt><trkpt lat="42.4769689" lon="14.1115658"><ele>35.0</ele><time>2026-05-02T06:28:12.098Z</time></trkpt><trkpt lat="42.4768746" lon="14.1114898"><ele>35.0</ele><time>2026-05-02T06:28:13.099Z</time></trkpt><trkpt lat="42.4767848" lon="14.1114115"><ele>35.0</ele><time>2026-05-02T06:28:14.097Z</time></trkpt><trkpt lat="42.476691" lon="14.1113342"><ele>35.0</ele><time>2026-05-02T06:28:15.097Z</time></trkpt><trkpt lat="42.4766" lon="14.1112559"><ele>35.0</ele><time>2026-05-02T06:28:16.093Z</time></trkpt><trkpt lat="42.4765134" lon="14.1111814"><ele>35.0</ele><time>2026-05-02T06:28:17.103Z</time></trkpt><trkpt lat="42.4764448" lon="14.1111117"><ele>35.0</ele><time>2026-05-02T06:28:18.101Z</time></trkpt><trkpt lat="42.476384" lon="14.1110466"><ele>35.0</ele><time>2026-05-02T06:28:19.103Z</time></trkpt><trkpt lat="42.4763385" lon="14.1109848"><ele>35.0</ele><time>2026-05-02T06:28:20.097Z</time></trkpt><trkpt lat="42.4762965" lon="14.1108456"><ele>35.0</ele><time>2026-05-02T06:28:22.098Z</time></trkpt><trkpt lat="42.4762962" lon="14.1106775"><ele>35.0</ele><time>2026-05-02T06:28:24.095Z</time></trkpt><trkpt lat="42.4762413" lon="14.1105534"><ele>35.33333333333333</ele><time>2026-05-02T06:28:26.103Z</time></trkpt><trkpt lat="42.476118" lon="14.1105558"><ele>35.666666666666664</ele><time>2026-05-02T06:28:28.1Z</time></trkpt><trkpt lat="42.476056" lon="14.1105888"><ele>36.0</ele><time>2026-05-02T06:28:29.099Z</time></trkpt><trkpt lat="42.47599" lon="14.1106211"><ele>36.333333333333336</ele><time>2026-05-02T06:28:30.095Z</time></trkpt><trkpt lat="42.4759129" lon="14.1106414"><ele>36.66666666666667</ele><time>2026-05-02T06:28:31.095Z</time></trkpt><trkpt lat="42.4758318" lon="14.1106317"><ele>37.0</ele><time>2026-05-02T06:28:32.099Z</time></trkpt><trkpt lat="42.4757474" lon="14.1105928"><ele>37.0</ele><time>2026-05-02T06:28:33.096Z</time></trkpt><trkpt lat="42.4756547" lon="14.1105443"><ele>37.0</ele><time>2026-05-02T06:28:34.099Z</time></trkpt><trkpt lat="42.4755614" lon="14.1104898"><ele>37.0</ele><time>2026-05-02T06:28:35.092Z</time></trkpt><trkpt lat="42.4754552" lon="14.1104561"><ele>37.0</ele><time>2026-05-02T06:28:36.098Z</time></trkpt><trkpt lat="42.4753373" lon="14.1104442"><ele>37.0</ele><time>2026-05-02T06:28:37.094Z</time></trkpt><trkpt lat="42.475212" lon="14.110456"><ele>38.75</ele><time>2026-05-02T06:28:38.092Z</time></trkpt><trkpt lat="42.475087" lon="14.1104849"><ele>40.5</ele><time>2026-05-02T06:28:39.1Z</time></trkpt><trkpt lat="42.4749642" lon="14.1105142"><ele>42.25</ele><time>2026-05-02T06:28:40.093Z</time></trkpt><trkpt lat="42.474839" lon="14.1105301"><ele>44.0</ele><time>2026-05-02T06:28:41.093Z</time></trkpt><trkpt lat="42.4747051" lon="14.1105332"><ele>46.666666666666664</ele><time>2026-05-02T06:28:42.089Z</time></trkpt><trkpt lat="42.4745669" lon="14.1105005"><ele>49.33333333333333</ele><time>2026-05-02T06:28:43.095Z</time></trkpt><trkpt lat="42.4744093" lon="14.1104175"><ele>52.0</ele><time>2026-05-02T06:28:44.093Z</time></trkpt><trkpt lat="42.4742435" lon="14.1103513"><ele>52.0</ele><time>2026-05-02T06:28:45.089Z</time></trkpt><trkpt lat="42.4740813" lon="14.1102616"><ele>52.0</ele><time>2026-05-02T06:28:46.088Z</time></trkpt><trkpt lat="42.4739123" lon="14.110175"><ele>52.0</ele><time>2026-05-02T06:28:47.087Z</time></trkpt><trkpt lat="42.4737506" lon="14.1101045"><ele>53.33333333333333</ele><time>2026-05-02T06:28:48.089Z</time></trkpt><trkpt lat="42.4735781" lon="14.1100255"><ele>54.66666666666667</ele><time>2026-05-02T06:28:49.086Z</time></trkpt><trkpt lat="42.4734018" lon="14.1099634"><ele>56.0</ele><time>2026-05-02T06:28:50.087Z</time></trkpt><trkpt lat="42.4732396" lon="14.1098789"><ele>59.66666666666667</ele><time>2026-05-02T06:28:51.081Z</time></trkpt><trkpt lat="42.4730674" lon="14.1098035"><ele>63.33333333333333</ele><time>2026-05-02T06:28:52.084Z</time></trkpt><trkpt lat="42.4729089" lon="14.1097263"><ele>67.0</ele><time>2026-05-02T06:28:53.092Z</time></trkpt><trkpt lat="42.4727506" lon="14.1096454"><ele>67.0</ele><time>2026-05-02T06:28:54.087Z</time></trkpt><trkpt lat="42.4725978" lon="14.1095792"><ele>67.0</ele><time>2026-05-02T06:28:55.079Z</time></trkpt><trkpt lat="42.4724523" lon="14.1095063"><ele>67.0</ele><time>2026-05-02T06:28:56.092Z</time></trkpt><trkpt lat="42.4723106" lon="14.1094663"><ele>67.0</ele><time>2026-05-02T06:28:57.097Z</time></trkpt><trkpt lat="42.4721628" lon="14.1094205"><ele>67.0</ele><time>2026-05-02T06:28:58.103Z</time></trkpt><trkpt lat="42.472004" lon="14.1093677"><ele>67.0</ele><time>2026-05-02T06:28:59.088Z</time></trkpt><trkpt lat="42.4718771" lon="14.1092852"><ele>65.66666666666666</ele><time>2026-05-02T06:29:00.091Z</time></trkpt><trkpt lat="42.4717329" lon="14.1091975"><ele>64.33333333333333</ele><time>2026-05-02T06:29:01.086Z</time></trkpt><trkpt lat="42.4715921" lon="14.109055"><ele>63.0</ele><time>2026-05-02T06:29:02.095Z</time></trkpt><trkpt lat="42.4714574" lon="14.1088919"><ele>64.0</ele><time>2026-05-02T06:29:03.092Z</time></trkpt><trkpt lat="42.4713279" lon="14.1087278"><ele>65.0</ele><time>2026-05-02T06:29:04.093Z</time></trkpt><trkpt lat="42.4712266" lon="14.1085731"><ele>66.0</ele><time>2026-05-02T06:29:05.092Z</time></trkpt><trkpt lat="42.4711252" lon="14.1084158"><ele>66.0</ele><time>2026-05-02T06:29:06.092Z</time></trkpt><trkpt lat="42.4710256" lon="14.1082812"><ele>66.0</ele><time>2026-05-02T06:29:07.091Z</time></trkpt><trkpt lat="42.4709323" lon="14.1081296"><ele>66.0</ele><time>2026-05-02T06:29:08.091Z</time></trkpt><trkpt lat="42.4708376" lon="14.1079596"><ele>66.0</ele><time>2026-05-02T06:29:09.095Z</time></trkpt><trkpt lat="42.4707566" lon="14.1077827"><ele>70.0</ele><time>2026-05-02T06:29:10.097Z</time></trkpt><trkpt lat="42.4706752" lon="14.1075809"><ele>74.0</ele><time>2026-05-02T06:29:11.107Z</time></trkpt><trkpt lat="42.4706012" lon="14.1073813"><ele>78.0</ele><time>2026-05-02T06:29:12.096Z</time></trkpt><trkpt lat="42.4705122" lon="14.1071809"><ele>76.0</ele><time>2026-05-02T06:29:13.095Z</time></trkpt><trkpt lat="42.4704593" lon="14.1069898"><ele>74.0</ele><time>2026-05-02T06:29:14.091Z</time></trkpt><trkpt lat="42.4704177" lon="14.106781"><ele>72.0</ele><time>2026-05-02T06:29:15.097Z</time></trkpt><trkpt lat="42.4703569" lon="14.1066044"><ele>76.0</ele><time>2026-05-02T06:29:16.084Z</time></trkpt><trkpt lat="42.4702662" lon="14.1064317"><ele>80.0</ele><time>2026-05-02T06:29:17.089Z</time></trkpt><trkpt lat="42.4701592" lon="14.10626"><ele>84.0</ele><time>2026-05-02T06:29:18.083Z</time></trkpt><trkpt lat="42.4700336" lon="14.1061483"><ele>84.0</ele><time>2026-05-02T06:29:19.075Z</time></trkpt><trkpt lat="42.4699098" lon="14.1060224"><ele>84.0</ele><time>2026-05-02T06:29:20.076Z</time></trkpt><trkpt lat="42.4697624" lon="14.1059041"><ele>84.0</ele><time>2026-05-02T06:29:21.085Z</time></trkpt><trkpt lat="42.4696023" lon="14.1058203"><ele>87.33333333333333</ele><time>2026-05-02T06:29:22.088Z</time></trkpt><trkpt lat="42.4694506" lon="14.1057165"><ele>90.66666666666666</ele><time>2026-05-02T06:29:23.081Z</time></trkpt><trkpt lat="42.4693035" lon="14.1056188"><ele>94.0</ele><time>2026-05-02T06:29:24.085Z</time></trkpt><trkpt lat="42.4691603" lon="14.1055235"><ele>94.0</ele><time>2026-05-02T06:29:25.08Z</time></trkpt><trkpt lat="42.4690347" lon="14.1054444"><ele>94.0</ele><time>2026-05-02T06:29:26.08Z</time></trkpt><trkpt lat="42.4689109" lon="14.1053573"><ele>94.0</ele><time>2026-05-02T06:29:27.083Z</time></trkpt><trkpt lat="42.4687823" lon="14.1052788"><ele>94.0</ele><time>2026-05-02T06:29:28.093Z</time></trkpt><trkpt lat="42.4686417" lon="14.1052083"><ele>94.5</ele><time>2026-05-02T06:29:29.088Z</time></trkpt><trkpt lat="42.4685046" lon="14.1051494"><ele>95.0</ele><time>2026-05-02T06:29:30.086Z</time></trkpt><trkpt lat="42.4683517" lon="14.1051231"><ele>95.5</ele><time>2026-05-02T06:29:31.082Z</time></trkpt><trkpt lat="42.4682084" lon="14.1050902"><ele>96.0</ele><time>2026-05-02T06:29:32.084Z</time></trkpt><trkpt lat="42.468064" lon="14.1050691"><ele>94.5</ele><time>2026-05-02T06:29:33.081Z</time></trkpt><trkpt lat="42.4679329" lon="14.1050296"><ele>93.0</ele><time>2026-05-02T06:29:34.077Z</time></trkpt><trkpt lat="42.4677971" lon="14.1049604"><ele>91.5</ele><time>2026-05-02T06:29:35.076Z</time></trkpt><trkpt lat="42.4677085" lon="14.1049179"><ele>90.0</ele><time>2026-05-02T06:29:36.07Z</time></trkpt><trkpt lat="42.4676008" lon="14.1048255"><ele>93.5</ele><time>2026-05-02T06:29:37.076Z</time></trkpt><trkpt lat="42.4674813" lon="14.1047067"><ele>97.0</ele><time>2026-05-02T06:29:38.078Z</time></trkpt><trkpt lat="42.4673574" lon="14.1045778"><ele>100.5</ele><time>2026-05-02T06:29:39.072Z</time></trkpt><trkpt lat="42.4672468" lon="14.1044511"><ele>104.0</ele><time>2026-05-02T06:29:40.077Z</time></trkpt><trkpt lat="42.4671201" lon="14.1043554"><ele>103.0</ele><time>2026-05-02T06:29:41.09Z</time></trkpt><trkpt lat="42.4669827" lon="14.1042351"><ele>102.0</ele><time>2026-05-02T06:29:42.092Z</time></trkpt><trkpt lat="42.4668719" lon="14.1041404"><ele>101.0</ele><time>2026-05-02T06:29:43.091Z</time></trkpt><trkpt lat="42.466749" lon="14.1040594"><ele>100.0</ele><time>2026-05-02T06:29:44.089Z</time></trkpt><trkpt lat="42.4666532" lon="14.1039648"><ele>99.75</ele><time>2026-05-02T06:29:45.093Z</time></trkpt><trkpt lat="42.4665393" lon="14.1039002"><ele>99.5</ele><time>2026-05-02T06:29:46.1Z</time></trkpt><trkpt lat="42.46644" lon="14.1038109"><ele>99.25</ele><time>2026-05-02T06:29:47.101Z</time></trkpt><trkpt lat="42.466316" lon="14.1037487"><ele>99.0</ele><time>2026-05-02T06:29:48.097Z</time></trkpt><trkpt lat="42.4661791" lon="14.103719"><ele>102.5</ele><time>2026-05-02T06:29:49.091Z</time></trkpt><trkpt lat="42.4660461" lon="14.1037357"><ele>106.0</ele><time>2026-05-02T06:29:50.089Z</time></trkpt><trkpt lat="42.4659117" lon="14.1037493"><ele>109.5</ele><time>2026-05-02T06:29:51.094Z</time></trkpt><trkpt lat="42.4657749" lon="14.1037802"><ele>113.0</ele><time>2026-05-02T06:29:52.089Z</time></trkpt><trkpt lat="42.465649" lon="14.1038124"><ele>113.0</ele><time>2026-05-02T06:29:53.092Z</time></trkpt><trkpt lat="42.4655321" lon="14.1038406"><ele>113.00000000000001</ele><time>2026-05-02T06:29:54.084Z</time></trkpt><trkpt lat="42.4654164" lon="14.1037876"><ele>113.00000000000001</ele><time>2026-05-02T06:29:55.083Z</time></trkpt><trkpt lat="42.4653204" lon="14.103739"><ele>113.0</ele><time>2026-05-02T06:29:56.078Z</time></trkpt><trkpt lat="42.4652369" lon="14.1037092"><ele>113.0</ele><time>2026-05-02T06:29:57.074Z</time></trkpt><trkpt lat="42.4651437" lon="14.1036514"><ele>113.83333333333333</ele><time>2026-05-02T06:29:58.074Z</time></trkpt><trkpt lat="42.4650744" lon="14.1035951"><ele>114.66666666666666</ele><time>2026-05-02T06:29:59.073Z</time></trkpt><trkpt lat="42.4650056" lon="14.1035427"><ele>115.5</ele><time>2026-05-02T06:30:00.069Z</time></trkpt><trkpt lat="42.4649375" lon="14.1034946"><ele>116.33333333333334</ele><time>2026-05-02T06:30:01.051Z</time></trkpt><trkpt lat="42.4648604" lon="14.1034113"><ele>117.16666666666667</ele><time>2026-05-02T06:30:02.046Z</time></trkpt><trkpt lat="42.4648052" lon="14.1033355"><ele>118.0</ele><time>2026-05-02T06:30:03.063Z</time></trkpt><trkpt lat="42.4647489" lon="14.1032523"><ele>118.33333333333334</ele><time>2026-05-02T06:30:04.068Z</time></trkpt><trkpt lat="42.4646884" lon="14.1031837"><ele>118.66666666666667</ele><time>2026-05-02T06:30:05.071Z</time></trkpt><trkpt lat="42.46461" lon="14.1031246"><ele>119.0</ele><time>2026-05-02T06:30:06.082Z</time></trkpt><trkpt lat="42.4645232" lon="14.1030916"><ele>119.33333333333334</ele><time>2026-05-02T06:30:07.079Z</time></trkpt><trkpt lat="42.4644381" lon="14.1030855"><ele>119.66666666666667</ele><time>2026-05-02T06:30:08.08Z</time></trkpt><trkpt lat="42.4643748" lon="14.1031349"><ele>120.0</ele><time>2026-05-02T06:30:09.086Z</time></trkpt><trkpt lat="42.4643641" lon="14.1033064"><ele>120.0</ele><time>2026-05-02T06:30:11.078Z</time></trkpt><trkpt lat="42.464419" lon="14.1033922"><ele>120.0</ele><time>2026-05-02T06:30:12.09Z</time></trkpt><trkpt lat="42.4644995" lon="14.103458"><ele>120.0</ele><time>2026-05-02T06:30:13.081Z</time></trkpt><trkpt lat="42.4645868" lon="14.1035154"><ele>120.0</ele><time>2026-05-02T06:30:14.085Z</time></trkpt><trkpt lat="42.4646688" lon="14.1035562"><ele>120.0</ele><time>2026-05-02T06:30:15.08Z</time></trkpt><trkpt lat="42.4647308" lon="14.1035997"><ele>120.0</ele><time>2026-05-02T06:30:16.088Z</time></trkpt><trkpt lat="42.4647935" lon="14.1037435"><ele>120.0</ele><time>2026-05-02T06:30:18.083Z</time></trkpt><trkpt lat="42.4647671" lon="14.1038577"><ele>120.0</ele><time>2026-05-02T06:30:20.088Z</time></trkpt><trkpt lat="42.4647034" lon="14.1038906"><ele>120.0</ele><time>2026-05-02T06:30:21.091Z</time></trkpt><trkpt lat="42.4646255" lon="14.1039222"><ele>120.0</ele><time>2026-05-02T06:30:22.083Z</time></trkpt><trkpt lat="42.4645361" lon="14.1039596"><ele>120.0</ele><time>2026-05-02T06:30:23.085Z</time></trkpt><trkpt lat="42.4644244" lon="14.1039897"><ele>120.0</ele><time>2026-05-02T06:30:24.085Z</time></trkpt><trkpt lat="42.4643216" lon="14.1040222"><ele>120.0</ele><time>2026-05-02T06:30:25.083Z</time></trkpt><trkpt lat="42.4642075" lon="14.1040364"><ele>120.0</ele><time>2026-05-02T06:30:26.081Z</time></trkpt><trkpt lat="42.4640697" lon="14.1040321"><ele>120.0</ele><time>2026-05-02T06:30:27.09Z</time></trkpt><trkpt lat="42.4639395" lon="14.1040323"><ele>120.0</ele><time>2026-05-02T06:30:28.083Z</time></trkpt><trkpt lat="42.4638163" lon="14.1040272"><ele>120.8</ele><time>2026-05-02T06:30:29.086Z</time></trkpt><trkpt lat="42.4637037" lon="14.1040314"><ele>121.6</ele><time>2026-05-02T06:30:30.082Z</time></trkpt><trkpt lat="42.4636002" lon="14.1040395"><ele>122.4</ele><time>2026-05-02T06:30:31.083Z</time></trkpt><trkpt lat="42.4634997" lon="14.1040512"><ele>123.2</ele><time>2026-05-02T06:30:32.085Z</time></trkpt><trkpt lat="42.4634094" lon="14.104072"><ele>124.0</ele><time>2026-05-02T06:30:33.082Z</time></trkpt><trkpt lat="42.4633266" lon="14.1041122"><ele>125.0</ele><time>2026-05-02T06:30:34.086Z</time></trkpt><trkpt lat="42.4632527" lon="14.1041763"><ele>126.0</ele><time>2026-05-02T06:30:35.077Z</time></trkpt><trkpt lat="42.4631849" lon="14.1042625"><ele>127.0</ele><time>2026-05-02T06:30:36.078Z</time></trkpt><trkpt lat="42.463124" lon="14.1043622"><ele>128.0</ele><time>2026-05-02T06:30:37.071Z</time></trkpt><trkpt lat="42.4630529" lon="14.1044438"><ele>129.0</ele><time>2026-05-02T06:30:38.078Z</time></trkpt><trkpt lat="42.4629959" lon="14.1045235"><ele>129.33333333333334</ele><time>2026-05-02T06:30:39.075Z</time></trkpt><trkpt lat="42.4629363" lon="14.1045947"><ele>129.66666666666666</ele><time>2026-05-02T06:30:40.079Z</time></trkpt><trkpt lat="42.4628819" lon="14.1046596"><ele>130.0</ele><time>2026-05-02T06:30:41.076Z</time></trkpt><trkpt lat="42.4628227" lon="14.1047155"><ele>130.33333333333331</ele><time>2026-05-02T06:30:42.081Z</time></trkpt><trkpt lat="42.4627243" lon="14.1047804"><ele>130.66666666666666</ele><time>2026-05-02T06:30:44.077Z</time></trkpt><trkpt lat="42.462619" lon="14.1047356"><ele>131.0</ele><time>2026-05-02T06:30:46.077Z</time></trkpt><trkpt lat="42.4625239" lon="14.1046396"><ele>131.0</ele><time>2026-05-02T06:30:48.083Z</time></trkpt><trkpt lat="42.4624429" lon="14.1046869"><ele>131.0</ele><time>2026-05-02T06:30:50.089Z</time></trkpt><trkpt lat="42.4624302" lon="14.1048248"><ele>131.0</ele><time>2026-05-02T06:30:52.086Z</time></trkpt><trkpt lat="42.4624642" lon="14.1049774"><ele>131.0</ele><time>2026-05-02T06:30:54.095Z</time></trkpt><trkpt lat="42.4624457" lon="14.1050652"><ele>131.0</ele><time>2026-05-02T06:30:55.096Z</time></trkpt><trkpt lat="42.4623889" lon="14.1051566"><ele>131.5</ele><time>2026-05-02T06:30:56.099Z</time></trkpt><trkpt lat="42.4623096" lon="14.1052632"><ele>132.0</ele><time>2026-05-02T06:30:57.093Z</time></trkpt><trkpt lat="42.4622056" lon="14.1053805"><ele>132.5</ele><time>2026-05-02T06:30:58.095Z</time></trkpt><trkpt lat="42.4620708" lon="14.1054923"><ele>133.0</ele><time>2026-05-02T06:30:59.092Z</time></trkpt><trkpt lat="42.4618998" lon="14.1056144"><ele>135.0</ele><time>2026-05-02T06:31:00.102Z</time></trkpt><trkpt lat="42.4617546" lon="14.1057389"><ele>137.0</ele><time>2026-05-02T06:31:01.087Z</time></trkpt><trkpt lat="42.4616307" lon="14.1058845"><ele>139.0</ele><time>2026-05-02T06:31:02.088Z</time></trkpt><trkpt lat="42.4614904" lon="14.1060173"><ele>139.0</ele><time>2026-05-02T06:31:03.089Z</time></trkpt><trkpt lat="42.4613612" lon="14.1061444"><ele>139.0</ele><time>2026-05-02T06:31:04.087Z</time></trkpt><trkpt lat="42.4612279" lon="14.106256"><ele>139.0</ele><time>2026-05-02T06:31:05.091Z</time></trkpt><trkpt lat="42.4611439" lon="14.106378"><ele>139.0</ele><time>2026-05-02T06:31:06.087Z</time></trkpt><trkpt lat="42.4610115" lon="14.1064618"><ele>140.25</ele><time>2026-05-02T06:31:07.073Z</time></trkpt><trkpt lat="42.4609027" lon="14.1065094"><ele>141.5</ele><time>2026-05-02T06:31:08.073Z</time></trkpt><trkpt lat="42.4607674" lon="14.1065666"><ele>142.75</ele><time>2026-05-02T06:31:09.078Z</time></trkpt><trkpt lat="42.4606584" lon="14.1066744"><ele>144.0</ele><time>2026-05-02T06:31:10.078Z</time></trkpt><trkpt lat="42.4605552" lon="14.1068124"><ele>144.0</ele><time>2026-05-02T06:31:11.072Z</time></trkpt><trkpt lat="42.4604758" lon="14.107002"><ele>144.0</ele><time>2026-05-02T06:31:12.079Z</time></trkpt><trkpt lat="42.4604154" lon="14.1072054"><ele>144.0</ele><time>2026-05-02T06:31:13.079Z</time></trkpt><trkpt lat="42.4603832" lon="14.1074175"><ele>148.0</ele><time>2026-05-02T06:31:14.079Z</time></trkpt><trkpt lat="42.4603537" lon="14.1076368"><ele>152.0</ele><time>2026-05-02T06:31:15.08Z</time></trkpt><trkpt lat="42.4603369" lon="14.1078263"><ele>156.0</ele><time>2026-05-02T06:31:16.084Z</time></trkpt><trkpt lat="42.4603052" lon="14.1080038"><ele>160.0</ele><time>2026-05-02T06:31:17.075Z</time></trkpt><trkpt lat="42.460231" lon="14.1081903"><ele>159.0</ele><time>2026-05-02T06:31:18.078Z</time></trkpt><trkpt lat="42.4601409" lon="14.1083483"><ele>158.0</ele><time>2026-05-02T06:31:19.082Z</time></trkpt><trkpt lat="42.4600864" lon="14.1085326"><ele>157.0</ele><time>2026-05-02T06:31:20.086Z</time></trkpt><trkpt lat="42.4600101" lon="14.1087227"><ele>157.0</ele><time>2026-05-02T06:31:21.082Z</time></trkpt><trkpt lat="42.4599567" lon="14.1089068"><ele>157.0</ele><time>2026-05-02T06:31:22.076Z</time></trkpt><trkpt lat="42.4598854" lon="14.1090783"><ele>157.0</ele><time>2026-05-02T06:31:23.078Z</time></trkpt><trkpt lat="42.4598035" lon="14.1092242"><ele>157.0</ele><time>2026-05-02T06:31:24.081Z</time></trkpt><trkpt lat="42.4596818" lon="14.1093859"><ele>159.33333333333334</ele><time>2026-05-02T06:31:25.081Z</time></trkpt><trkpt lat="42.4595494" lon="14.1095198"><ele>161.66666666666666</ele><time>2026-05-02T06:31:26.083Z</time></trkpt><trkpt lat="42.4593892" lon="14.1096142"><ele>164.0</ele><time>2026-05-02T06:31:27.08Z</time></trkpt><trkpt lat="42.4592621" lon="14.1097498"><ele>164.0</ele><time>2026-05-02T06:31:28.09Z</time></trkpt><trkpt lat="42.4591416" lon="14.1098656"><ele>164.0</ele><time>2026-05-02T06:31:29.078Z</time></trkpt><trkpt lat="42.4590298" lon="14.1100381"><ele>164.0</ele><time>2026-05-02T06:31:30.085Z</time></trkpt><trkpt lat="42.4589055" lon="14.1102036"><ele>163.33333333333331</ele><time>2026-05-02T06:31:31.083Z</time></trkpt><trkpt lat="42.458803" lon="14.1103791"><ele>162.66666666666666</ele><time>2026-05-02T06:31:32.093Z</time></trkpt><trkpt lat="42.4586761" lon="14.1105749"><ele>162.0</ele><time>2026-05-02T06:31:33.093Z</time></trkpt><trkpt lat="42.4585818" lon="14.1107576"><ele>162.0</ele><time>2026-05-02T06:31:34.093Z</time></trkpt><trkpt lat="42.4584843" lon="14.1108911"><ele>162.0</ele><time>2026-05-02T06:31:35.082Z</time></trkpt><trkpt lat="42.4584103" lon="14.111029"><ele>162.0</ele><time>2026-05-02T06:31:36.084Z</time></trkpt><trkpt lat="42.4583258" lon="14.1111408"><ele>162.0</ele><time>2026-05-02T06:31:37.088Z</time></trkpt><trkpt lat="42.4582455" lon="14.1112405"><ele>162.0</ele><time>2026-05-02T06:31:38.082Z</time></trkpt><trkpt lat="42.4581642" lon="14.1113041"><ele>162.0</ele><time>2026-05-02T06:31:39.102Z</time></trkpt><trkpt lat="42.4580681" lon="14.11126"><ele>162.0</ele><time>2026-05-02T06:31:40.092Z</time></trkpt><trkpt lat="42.4579827" lon="14.1111386"><ele>162.0</ele><time>2026-05-02T06:31:41.096Z</time></trkpt><trkpt lat="42.4579426" lon="14.111001"><ele>162.0</ele><time>2026-05-02T06:31:42.08Z</time></trkpt><trkpt lat="42.4579196" lon="14.1108554"><ele>162.33333333333334</ele><time>2026-05-02T06:31:43.081Z</time></trkpt><trkpt lat="42.4578955" lon="14.1107426"><ele>162.66666666666666</ele><time>2026-05-02T06:31:44.078Z</time></trkpt><trkpt lat="42.4578484" lon="14.1106648"><ele>163.0</ele><time>2026-05-02T06:31:45.082Z</time></trkpt><trkpt lat="42.4577703" lon="14.1106505"><ele>163.33333333333331</ele><time>2026-05-02T06:31:46.084Z</time></trkpt><trkpt lat="42.4577154" lon="14.1107234"><ele>163.66666666666666</ele><time>2026-05-02T06:31:47.088Z</time></trkpt><trkpt lat="42.4576909" lon="14.1108466"><ele>164.0</ele><time>2026-05-02T06:31:48.098Z</time></trkpt><trkpt lat="42.4577085" lon="14.1109695"><ele>166.75</ele><time>2026-05-02T06:31:49.08Z</time></trkpt><trkpt lat="42.4577544" lon="14.1111062"><ele>169.5</ele><time>2026-05-02T06:31:50.081Z</time></trkpt><trkpt lat="42.4578081" lon="14.111267"><ele>172.25</ele><time>2026-05-02T06:31:51.079Z</time></trkpt><trkpt lat="42.4578562" lon="14.1114553"><ele>175.0</ele><time>2026-05-02T06:31:52.086Z</time></trkpt><trkpt lat="42.4578988" lon="14.1116603"><ele>175.66666666666669</ele><time>2026-05-02T06:31:53.075Z</time></trkpt><trkpt lat="42.4579449" lon="14.1119398"><ele>176.33333333333334</ele><time>2026-05-02T06:31:54.082Z</time></trkpt><trkpt lat="42.4579916" lon="14.1121881"><ele>177.0</ele><time>2026-05-02T06:31:55.09Z</time></trkpt><trkpt lat="42.4580462" lon="14.1123912"><ele>176.5</ele><time>2026-05-02T06:31:56.093Z</time></trkpt><trkpt lat="42.4580752" lon="14.1126"><ele>176.0</ele><time>2026-05-02T06:31:57.088Z</time></trkpt><trkpt lat="42.4581016" lon="14.1128054"><ele>175.5</ele><time>2026-05-02T06:31:58.087Z</time></trkpt><trkpt lat="42.4581338" lon="14.1129769"><ele>175.0</ele><time>2026-05-02T06:31:59.083Z</time></trkpt><trkpt lat="42.4581384" lon="14.1131342"><ele>175.75</ele><time>2026-05-02T06:32:00.083Z</time></trkpt><trkpt lat="42.458073" lon="14.1132847"><ele>176.5</ele><time>2026-05-02T06:32:01.092Z</time></trkpt><trkpt lat="42.4580168" lon="14.1134275"><ele>177.25</ele><time>2026-05-02T06:32:02.087Z</time></trkpt><trkpt lat="42.4579588" lon="14.1135704"><ele>178.0</ele><time>2026-05-02T06:32:03.099Z</time></trkpt><trkpt lat="42.4579057" lon="14.1137413"><ele>178.5</ele><time>2026-05-02T06:32:04.093Z</time></trkpt><trkpt lat="42.4578864" lon="14.1139268"><ele>179.0</ele><time>2026-05-02T06:32:05.101Z</time></trkpt><trkpt lat="42.4578847" lon="14.1141296"><ele>179.5</ele><time>2026-05-02T06:32:06.087Z</time></trkpt><trkpt lat="42.4579076" lon="14.1143464"><ele>180.0</ele><time>2026-05-02T06:32:07.099Z</time></trkpt><trkpt lat="42.457888" lon="14.1145343"><ele>177.0</ele><time>2026-05-02T06:32:08.089Z</time></trkpt><trkpt lat="42.4578678" lon="14.1147231"><ele>174.0</ele><time>2026-05-02T06:32:09.095Z</time></trkpt><trkpt lat="42.4578322" lon="14.1148929"><ele>171.0</ele><time>2026-05-02T06:32:10.082Z</time></trkpt><trkpt lat="42.4577961" lon="14.1150499"><ele>168.0</ele><time>2026-05-02T06:32:11.094Z</time></trkpt><trkpt lat="42.4577798" lon="14.1151895"><ele>167.75</ele><time>2026-05-02T06:32:12.093Z</time></trkpt><trkpt lat="42.4577873" lon="14.1153094"><ele>167.5</ele><time>2026-05-02T06:32:13.086Z</time></trkpt><trkpt lat="42.457831" lon="14.1154466"><ele>167.25</ele><time>2026-05-02T06:32:14.093Z</time></trkpt><trkpt lat="42.457903" lon="14.1155897"><ele>167.0</ele><time>2026-05-02T06:32:15.095Z</time></trkpt><trkpt lat="42.4579934" lon="14.1157038"><ele>167.0</ele><time>2026-05-02T06:32:16.094Z</time></trkpt><trkpt lat="42.4581295" lon="14.1158211"><ele>167.0</ele><time>2026-05-02T06:32:17.092Z</time></trkpt><trkpt lat="42.4582529" lon="14.1159353"><ele>167.0</ele><time>2026-05-02T06:32:18.095Z</time></trkpt><trkpt lat="42.4583707" lon="14.1160679"><ele>167.0</ele><time>2026-05-02T06:32:19.094Z</time></trkpt><trkpt lat="42.4584658" lon="14.1161956"><ele>167.0</ele><time>2026-05-02T06:32:20.09Z</time></trkpt><trkpt lat="42.4585579" lon="14.1163136"><ele>167.0</ele><time>2026-05-02T06:32:21.093Z</time></trkpt><trkpt lat="42.4586349" lon="14.1164341"><ele>167.0</ele><time>2026-05-02T06:32:22.099Z</time></trkpt><trkpt lat="42.4587225" lon="14.1165185"><ele>166.0</ele><time>2026-05-02T06:32:23.09Z</time></trkpt><trkpt lat="42.4588107" lon="14.1166186"><ele>165.0</ele><time>2026-05-02T06:32:24.096Z</time></trkpt><trkpt lat="42.4589155" lon="14.1167242"><ele>164.0</ele><time>2026-05-02T06:32:25.095Z</time></trkpt><trkpt lat="42.4590419" lon="14.1168274"><ele>163.0</ele><time>2026-05-02T06:32:26.095Z</time></trkpt><trkpt lat="42.459192" lon="14.1169289"><ele>163.0</ele><time>2026-05-02T06:32:27.097Z</time></trkpt><trkpt lat="42.4593311" lon="14.1170525"><ele>163.0</ele><time>2026-05-02T06:32:28.103Z</time></trkpt><trkpt lat="42.4594704" lon="14.1171776"><ele>163.0</ele><time>2026-05-02T06:32:29.101Z</time></trkpt><trkpt lat="42.4595861" lon="14.1172861"><ele>162.5</ele><time>2026-05-02T06:32:30.101Z</time></trkpt><trkpt lat="42.4597107" lon="14.1173838"><ele>162.0</ele><time>2026-05-02T06:32:31.106Z</time></trkpt><trkpt lat="42.4598201" lon="14.1174822"><ele>161.5</ele><time>2026-05-02T06:32:32.108Z</time></trkpt><trkpt lat="42.459947" lon="14.1175837"><ele>161.0</ele><time>2026-05-02T06:32:33.103Z</time></trkpt><trkpt lat="42.4600515" lon="14.1176733"><ele>160.75</ele><time>2026-05-02T06:32:34.103Z</time></trkpt><trkpt lat="42.4601494" lon="14.1177655"><ele>160.5</ele><time>2026-05-02T06:32:35.094Z</time></trkpt><trkpt lat="42.4602561" lon="14.1178595"><ele>160.25</ele><time>2026-05-02T06:32:36.104Z</time></trkpt><trkpt lat="42.4603425" lon="14.1179703"><ele>160.0</ele><time>2026-05-02T06:32:37.09Z</time></trkpt><trkpt lat="42.4604139" lon="14.1180669"><ele>160.25</ele><time>2026-05-02T06:32:38.088Z</time></trkpt><trkpt lat="42.4604713" lon="14.1182183"><ele>160.5</ele><time>2026-05-02T06:32:39.096Z</time></trkpt><trkpt lat="42.4604878" lon="14.1183849"><ele>160.75</ele><time>2026-05-02T06:32:40.093Z</time></trkpt><trkpt lat="42.4604624" lon="14.1185319"><ele>161.0</ele><time>2026-05-02T06:32:41.09Z</time></trkpt><trkpt lat="42.4604445" lon="14.1186998"><ele>160.75</ele><time>2026-05-02T06:32:42.085Z</time></trkpt><trkpt lat="42.4604087" lon="14.1188698"><ele>160.5</ele><time>2026-05-02T06:32:43.087Z</time></trkpt><trkpt lat="42.460338" lon="14.1190534"><ele>160.25</ele><time>2026-05-02T06:32:44.078Z</time></trkpt><trkpt lat="42.4602875" lon="14.1191868"><ele>160.0</ele><time>2026-05-02T06:32:45.085Z</time></trkpt><trkpt lat="42.4602379" lon="14.1193068"><ele>160.0</ele><time>2026-05-02T06:32:46.085Z</time></trkpt><trkpt lat="42.4601888" lon="14.1194105"><ele>160.0</ele><time>2026-05-02T06:32:47.085Z</time></trkpt><trkpt lat="42.4601484" lon="14.1194799"><ele>160.0</ele><time>2026-05-02T06:32:48.083Z</time></trkpt><trkpt lat="42.4601026" lon="14.1195593"><ele>160.0</ele><time>2026-05-02T06:32:49.084Z</time></trkpt><trkpt lat="42.460039" lon="14.1196457"><ele>160.0</ele><time>2026-05-02T06:32:50.095Z</time></trkpt><trkpt lat="42.4599579" lon="14.119699"><ele>160.0</ele><time>2026-05-02T06:32:51.093Z</time></trkpt><trkpt lat="42.4598828" lon="14.1197754"><ele>160.0</ele><time>2026-05-02T06:32:52.104Z</time></trkpt><trkpt lat="42.4598226" lon="14.1198812"><ele>160.0</ele><time>2026-05-02T06:32:53.09Z</time></trkpt><trkpt lat="42.4597807" lon="14.1200116"><ele>160.0</ele><time>2026-05-02T06:32:54.092Z</time></trkpt><trkpt lat="42.459732" lon="14.1201299"><ele>160.0</ele><time>2026-05-02T06:32:55.098Z</time></trkpt><trkpt lat="42.4596623" lon="14.1202411"><ele>160.0</ele><time>2026-05-02T06:32:56.095Z</time></trkpt><trkpt lat="42.4595634" lon="14.1203481"><ele>159.66666666666669</ele><time>2026-05-02T06:32:57.087Z</time></trkpt><trkpt lat="42.4594487" lon="14.1204532"><ele>159.33333333333334</ele><time>2026-05-02T06:32:58.093Z</time></trkpt><trkpt lat="42.4593313" lon="14.1205663"><ele>159.0</ele><time>2026-05-02T06:32:59.098Z</time></trkpt><trkpt lat="42.4591897" lon="14.1206963"><ele>159.25</ele><time>2026-05-02T06:33:00.1Z</time></trkpt><trkpt lat="42.4590718" lon="14.1207987"><ele>159.5</ele><time>2026-05-02T06:33:01.101Z</time></trkpt><trkpt lat="42.4589815" lon="14.1209063"><ele>159.75</ele><time>2026-05-02T06:33:02.105Z</time></trkpt><trkpt lat="42.4588895" lon="14.120994"><ele>160.0</ele><time>2026-05-02T06:33:03.098Z</time></trkpt><trkpt lat="42.4588044" lon="14.1210656"><ele>160.16666666666669</ele><time>2026-05-02T06:33:04.096Z</time></trkpt><trkpt lat="42.4587543" lon="14.1211207"><ele>160.33333333333334</ele><time>2026-05-02T06:33:05.1Z</time></trkpt><trkpt lat="42.4586535" lon="14.1212025"><ele>160.5</ele><time>2026-05-02T06:33:07.1Z</time></trkpt><trkpt lat="42.4585827" lon="14.1212885"><ele>160.66666666666666</ele><time>2026-05-02T06:33:09.094Z</time></trkpt><trkpt lat="42.4585262" lon="14.1213309"><ele>160.83333333333331</ele><time>2026-05-02T06:33:19.108Z</time></trkpt><trkpt lat="42.4585775" lon="14.121281"><ele>161.0</ele><time>2026-05-02T06:33:24.097Z</time></trkpt><trkpt lat="42.4586465" lon="14.1212363"><ele>161.0</ele><time>2026-05-02T06:33:25.106Z</time></trkpt><trkpt lat="42.458712" lon="14.1212015"><ele>161.0</ele><time>2026-05-02T06:33:26.098Z</time></trkpt><trkpt lat="42.458815" lon="14.1211309"><ele>161.0</ele><time>2026-05-02T06:33:28.1Z</time></trkpt><trkpt lat="42.4588468" lon="14.1210211"><ele>161.0</ele><time>2026-05-02T06:33:30.097Z</time></trkpt><trkpt lat="42.4587606" lon="14.120891"><ele>161.0</ele><time>2026-05-02T06:33:32.084Z</time></trkpt><trkpt lat="42.4586904" lon="14.1208228"><ele>161.0</ele><time>2026-05-02T06:33:33.096Z</time></trkpt><trkpt lat="42.4586267" lon="14.1207617"><ele>161.0</ele><time>2026-05-02T06:33:34.101Z</time></trkpt><trkpt lat="42.4585757" lon="14.1207032"><ele>161.0</ele><time>2026-05-02T06:33:35.1Z</time></trkpt><trkpt lat="42.4585228" lon="14.1206419"><ele>161.0</ele><time>2026-05-02T06:33:36.098Z</time></trkpt><trkpt lat="42.4584642" lon="14.1205687"><ele>161.0</ele><time>2026-05-02T06:33:37.097Z</time></trkpt><trkpt lat="42.4584061" lon="14.1204979"><ele>161.0</ele><time>2026-05-02T06:33:38.099Z</time></trkpt><trkpt lat="42.4583446" lon="14.1204286"><ele>159.71428571428572</ele><time>2026-05-02T06:33:39.094Z</time></trkpt><trkpt lat="42.4582858" lon="14.1203656"><ele>158.42857142857144</ele><time>2026-05-02T06:33:40.096Z</time></trkpt><trkpt lat="42.4582291" lon="14.1203047"><ele>157.14285714285714</ele><time>2026-05-02T06:33:41.096Z</time></trkpt><trkpt lat="42.4581703" lon="14.1202448"><ele>155.85714285714286</ele><time>2026-05-02T06:33:42.095Z</time></trkpt><trkpt lat="42.4581143" lon="14.1201854"><ele>154.57142857142858</ele><time>2026-05-02T06:33:43.085Z</time></trkpt><trkpt lat="42.4580698" lon="14.1201222"><ele>153.28571428571428</ele><time>2026-05-02T06:33:44.093Z</time></trkpt><trkpt lat="42.4580246" lon="14.120058"><ele>152.0</ele><time>2026-05-02T06:33:45.093Z</time></trkpt><trkpt lat="42.4579805" lon="14.1199796"><ele>148.66666666666666</ele><time>2026-05-02T06:33:46.094Z</time></trkpt><trkpt lat="42.4579316" lon="14.1198948"><ele>145.33333333333331</ele><time>2026-05-02T06:33:47.093Z</time></trkpt><trkpt lat="42.4578777" lon="14.1198118"><ele>142.0</ele><time>2026-05-02T06:33:48.094Z</time></trkpt><trkpt lat="42.4578187" lon="14.1197306"><ele>138.66666666666666</ele><time>2026-05-02T06:33:49.091Z</time></trkpt><trkpt lat="42.4577682" lon="14.1196599"><ele>135.33333333333334</ele><time>2026-05-02T06:33:50.091Z</time></trkpt><trkpt lat="42.4576938" lon="14.1195496"><ele>132.0</ele><time>2026-05-02T06:33:52.086Z</time></trkpt><trkpt lat="42.4576368" lon="14.1194743"><ele>132.0</ele><time>2026-05-02T06:33:54.085Z</time></trkpt><trkpt lat="42.4575675" lon="14.1194042"><ele>132.0</ele><time>2026-05-02T06:33:56.09Z</time></trkpt><trkpt lat="42.4574942" lon="14.1192993"><ele>132.0</ele><time>2026-05-02T06:33:58.094Z</time></trkpt><trkpt lat="42.4574177" lon="14.1192367"><ele>132.0</ele><time>2026-05-02T06:34:00.084Z</time></trkpt><trkpt lat="42.4573145" lon="14.1192179"><ele>132.0</ele><time>2026-05-02T06:34:03.083Z</time></trkpt><trkpt lat="42.4572199" lon="14.119212"><ele>132.0</ele><time>2026-05-02T06:34:05.082Z</time></trkpt><trkpt lat="42.4571412" lon="14.1192128"><ele>132.0</ele><time>2026-05-02T06:34:07.082Z</time></trkpt><trkpt lat="42.4570568" lon="14.11921"><ele>132.0</ele><time>2026-05-02T06:34:09.083Z</time></trkpt><trkpt lat="42.4569782" lon="14.1192047"><ele>132.0</ele><time>2026-05-02T06:34:11.082Z</time></trkpt><trkpt lat="42.4568947" lon="14.1192166"><ele>132.0</ele><time>2026-05-02T06:34:13.078Z</time></trkpt><trkpt lat="42.4568155" lon="14.1192299"><ele>132.0</ele><time>2026-05-02T06:34:15.086Z</time></trkpt><trkpt lat="42.4567536" lon="14.1192551"><ele>130.66666666666666</ele><time>2026-05-02T06:34:21.09Z</time></trkpt><trkpt lat="42.4566787" lon="14.1192611"><ele>129.33333333333334</ele><time>2026-05-02T06:34:30.084Z</time></trkpt><trkpt lat="42.4566062" lon="14.1192905"><ele>128.0</ele><time>2026-05-02T06:34:32.078Z</time></trkpt><trkpt lat="42.4565122" lon="14.119298"><ele>126.66666666666667</ele><time>2026-05-02T06:34:34.08Z</time></trkpt><trkpt lat="42.4564234" lon="14.1192932"><ele>125.33333333333334</ele><time>2026-05-02T06:34:36.083Z</time></trkpt><trkpt lat="42.4563175" lon="14.1193097"><ele>124.0</ele><time>2026-05-02T06:34:38.076Z</time></trkpt><trkpt lat="42.4562325" lon="14.1193288"><ele>123.16666666666667</ele><time>2026-05-02T06:34:40.08Z</time></trkpt><trkpt lat="42.456157" lon="14.1193154"><ele>122.33333333333334</ele><time>2026-05-02T06:34:55.097Z</time></trkpt><trkpt lat="42.4560923" lon="14.1193172"><ele>121.5</ele><time>2026-05-02T06:38:01.099Z</time></trkpt><trkpt lat="42.4560064" lon="14.1193034"><ele>120.66666666666666</ele><time>2026-05-02T06:38:04.099Z</time></trkpt><trkpt lat="42.4559128" lon="14.1192755"><ele>119.83333333333333</ele><time>2026-05-02T06:38:06.102Z</time></trkpt><trkpt lat="42.4558261" lon="14.1192387"><ele>119.0</ele><time>2026-05-02T06:38:08.097Z</time></trkpt><trkpt lat="42.4557587" lon="14.1192099"><ele>119.0</ele><time>2026-05-02T06:38:10.091Z</time></trkpt><trkpt lat="42.455695" lon="14.1191791"><ele>119.0</ele><time>2026-05-02T06:38:12.095Z</time></trkpt><trkpt lat="42.4556172" lon="14.1191545"><ele>119.0</ele><time>2026-05-02T06:38:15.089Z</time></trkpt><trkpt lat="42.4555477" lon="14.1191452"><ele>119.0</ele><time>2026-05-02T06:39:39.09Z</time></trkpt><trkpt lat="42.4554822" lon="14.1191589"><ele>119.0</ele><time>2026-05-02T06:39:43.088Z</time></trkpt><trkpt lat="42.4553999" lon="14.1191614"><ele>119.0</ele><time>2026-05-02T06:39:47.094Z</time></trkpt><trkpt lat="42.4553354" lon="14.1191736"><ele>119.0</ele><time>2026-05-02T06:39:53.092Z</time></trkpt><trkpt lat="42.4552641" lon="14.1191967"><ele>118.16666666666666</ele><time>2026-05-02T06:39:58.093Z</time></trkpt><trkpt lat="42.4551839" lon="14.1191873"><ele>117.33333333333333</ele><time>2026-05-02T06:40:02.099Z</time></trkpt><trkpt lat="42.4550936" lon="14.1191715"><ele>116.5</ele><time>2026-05-02T06:40:08.096Z</time></trkpt><trkpt lat="42.4550172" lon="14.1191538"><ele>115.66666666666666</ele><time>2026-05-02T06:40:12.098Z</time></trkpt><trkpt lat="42.4549396" lon="14.1191343"><ele>114.83333333333333</ele><time>2026-05-02T06:40:16.1Z</time></trkpt><trkpt lat="42.4548783" lon="14.1191098"><ele>114.0</ele><time>2026-05-02T06:40:20.103Z</time></trkpt><trkpt lat="42.4548358" lon="14.1190434"><ele>113.4</ele><time>2026-05-02T06:40:25.093Z</time></trkpt><trkpt lat="42.4548376" lon="14.11894"><ele>112.80000000000001</ele><time>2026-05-02T06:40:29.085Z</time></trkpt><trkpt lat="42.4548496" lon="14.118817"><ele>112.19999999999999</ele><time>2026-05-02T06:40:32.057Z</time></trkpt><trkpt lat="42.4548814" lon="14.118629"><ele>111.6</ele><time>2026-05-02T06:40:34.057Z</time></trkpt><trkpt lat="42.4549281" lon="14.1185575"><ele>111.0</ele><time>2026-05-02T06:40:35.076Z</time></trkpt><trkpt lat="42.4549292" lon="14.1184536"><ele>111.0</ele><time>2026-05-02T06:40:36.078Z</time></trkpt><trkpt lat="42.4549486" lon="14.1182871"><ele>111.0</ele><time>2026-05-02T06:40:38.088Z</time></trkpt><trkpt lat="42.4549551" lon="14.118136"><ele>111.0</ele><time>2026-05-02T06:40:40.091Z</time></trkpt><trkpt lat="42.4549799" lon="14.1179747"><ele>111.0</ele><time>2026-05-02T06:40:42.091Z</time></trkpt><trkpt lat="42.455006" lon="14.1178757"><ele>111.0</ele><time>2026-05-02T06:40:43.093Z</time></trkpt><trkpt lat="42.4550201" lon="14.1177715"><ele>111.83333333333333</ele><time>2026-05-02T06:40:44.093Z</time></trkpt><trkpt lat="42.4550283" lon="14.1176699"><ele>112.66666666666666</ele><time>2026-05-02T06:40:45.09Z</time></trkpt><trkpt lat="42.4550401" lon="14.1175547"><ele>113.5</ele><time>2026-05-02T06:40:46.098Z</time></trkpt><trkpt lat="42.4550472" lon="14.1174425"><ele>114.33333333333333</ele><time>2026-05-02T06:40:47.102Z</time></trkpt><trkpt lat="42.455048" lon="14.1173423"><ele>115.16666666666666</ele><time>2026-05-02T06:40:48.1Z</time></trkpt><trkpt lat="42.4550252" lon="14.1172199"><ele>116.0</ele><time>2026-05-02T06:40:50.094Z</time></trkpt><trkpt lat="42.4549649" lon="14.1171491"><ele>117.4</ele><time>2026-05-02T06:40:53.096Z</time></trkpt><trkpt lat="42.4548636" lon="14.117155"><ele>118.8</ele><time>2026-05-02T06:40:55.085Z</time></trkpt><trkpt lat="42.4547918" lon="14.1171536"><ele>120.20000000000002</ele><time>2026-05-02T06:40:56.086Z</time></trkpt><trkpt lat="42.4547048" lon="14.1171428"><ele>121.60000000000001</ele><time>2026-05-02T06:40:57.085Z</time></trkpt><trkpt lat="42.4546088" lon="14.1171086"><ele>123.0</ele><time>2026-05-02T06:40:58.09Z</time></trkpt><trkpt lat="42.454511" lon="14.1170884"><ele>123.4</ele><time>2026-05-02T06:40:59.082Z</time></trkpt><trkpt lat="42.4544085" lon="14.1170674"><ele>123.80000000000001</ele><time>2026-05-02T06:41:00.097Z</time></trkpt><trkpt lat="42.4543099" lon="14.1170393"><ele>124.2</ele><time>2026-05-02T06:41:01.098Z</time></trkpt><trkpt lat="42.4542168" lon="14.1170189"><ele>124.6</ele><time>2026-05-02T06:41:02.093Z</time></trkpt><trkpt lat="42.4541184" lon="14.1170014"><ele>125.0</ele><time>2026-05-02T06:41:03.092Z</time></trkpt><trkpt lat="42.4540187" lon="14.1169853"><ele>124.99999999999999</ele><time>2026-05-02T06:41:04.096Z</time></trkpt><trkpt lat="42.4539232" lon="14.1169724"><ele>125.0</ele><time>2026-05-02T06:41:05.086Z</time></trkpt><trkpt lat="42.4538344" lon="14.1169588"><ele>125.0</ele><time>2026-05-02T06:41:06.093Z</time></trkpt><trkpt lat="42.4537565" lon="14.1169477"><ele>125.0</ele><time>2026-05-02T06:41:07.091Z</time></trkpt><trkpt lat="42.453691" lon="14.1169457"><ele>124.99999999999999</ele><time>2026-05-02T06:41:08.088Z</time></trkpt><trkpt lat="42.4536284" lon="14.1169561"><ele>125.0</ele><time>2026-05-02T06:41:09.094Z</time></trkpt><trkpt lat="42.4535165" lon="14.1170143"><ele>125.33333333333333</ele><time>2026-05-02T06:41:11.092Z</time></trkpt><trkpt lat="42.4534495" lon="14.1170783"><ele>125.66666666666666</ele><time>2026-05-02T06:41:12.091Z</time></trkpt><trkpt lat="42.4533796" lon="14.1171507"><ele>126.0</ele><time>2026-05-02T06:41:13.084Z</time></trkpt><trkpt lat="42.4533252" lon="14.1172169"><ele>126.33333333333334</ele><time>2026-05-02T06:41:14.089Z</time></trkpt><trkpt lat="42.4532238" lon="14.1173257"><ele>126.66666666666667</ele><time>2026-05-02T06:41:16.087Z</time></trkpt><trkpt lat="42.4531512" lon="14.1173557"><ele>127.0</ele><time>2026-05-02T06:41:17.091Z</time></trkpt><trkpt lat="42.4530721" lon="14.1173693"><ele>127.0</ele><time>2026-05-02T06:41:18.091Z</time></trkpt><trkpt lat="42.4529809" lon="14.1173845"><ele>126.99999999999999</ele><time>2026-05-02T06:41:19.098Z</time></trkpt><trkpt lat="42.4528798" lon="14.1173954"><ele>126.99999999999999</ele><time>2026-05-02T06:41:20.088Z</time></trkpt><trkpt lat="42.4527934" lon="14.1173971"><ele>127.0</ele><time>2026-05-02T06:41:21.092Z</time></trkpt><trkpt lat="42.4527191" lon="14.1173899"><ele>127.0</ele><time>2026-05-02T06:41:22.097Z</time></trkpt><trkpt lat="42.45262" lon="14.1173385"><ele>127.6</ele><time>2026-05-02T06:41:24.09Z</time></trkpt><trkpt lat="42.452562" lon="14.1172318"><ele>128.2</ele><time>2026-05-02T06:41:26.088Z</time></trkpt><trkpt lat="42.4525337" lon="14.1170572"><ele>128.8</ele><time>2026-05-02T06:41:28.087Z</time></trkpt><trkpt lat="42.4524994" lon="14.1169537"><ele>129.4</ele><time>2026-05-02T06:41:29.097Z</time></trkpt><trkpt lat="42.4524539" lon="14.1168548"><ele>130.0</ele><time>2026-05-02T06:41:30.094Z</time></trkpt><trkpt lat="42.4524034" lon="14.1167462"><ele>130.0</ele><time>2026-05-02T06:41:31.097Z</time></trkpt><trkpt lat="42.4523553" lon="14.1166542"><ele>130.0</ele><time>2026-05-02T06:41:32.098Z</time></trkpt><trkpt lat="42.4522945" lon="14.1165641"><ele>130.0</ele><time>2026-05-02T06:41:33.089Z</time></trkpt><trkpt lat="42.4522335" lon="14.1164907"><ele>130.0</ele><time>2026-05-02T06:41:34.095Z</time></trkpt><trkpt lat="42.4521683" lon="14.1164308"><ele>130.0</ele><time>2026-05-02T06:41:35.087Z</time></trkpt><trkpt lat="42.4521015" lon="14.1163842"><ele>130.0</ele><time>2026-05-02T06:41:36.09Z</time></trkpt><trkpt lat="42.4520277" lon="14.1163489"><ele>131.16666666666669</ele><time>2026-05-02T06:41:37.098Z</time></trkpt><trkpt lat="42.4519457" lon="14.1163215"><ele>132.33333333333334</ele><time>2026-05-02T06:41:38.092Z</time></trkpt><trkpt lat="42.4518623" lon="14.1163139"><ele>133.5</ele><time>2026-05-02T06:41:39.09Z</time></trkpt><trkpt lat="42.4517841" lon="14.1163173"><ele>134.66666666666666</ele><time>2026-05-02T06:41:40.09Z</time></trkpt><trkpt lat="42.4517126" lon="14.1163209"><ele>135.83333333333331</ele><time>2026-05-02T06:41:41.095Z</time></trkpt><trkpt lat="42.4516475" lon="14.116327"><ele>137.0</ele><time>2026-05-02T06:41:42.09Z</time></trkpt><trkpt lat="42.45153" lon="14.1163363"><ele>137.0</ele><time>2026-05-02T06:41:44.09Z</time></trkpt><trkpt lat="42.4514112" lon="14.116347"><ele>137.0</ele><time>2026-05-02T06:41:46.09Z</time></trkpt><trkpt lat="42.4513028" lon="14.116327"><ele>137.0</ele><time>2026-05-02T06:41:48.097Z</time></trkpt><trkpt lat="42.4512172" lon="14.1162659"><ele>137.0</ele><time>2026-05-02T06:41:50.092Z</time></trkpt><trkpt lat="42.4511594" lon="14.116186"><ele>137.0</ele><time>2026-05-02T06:41:52.095Z</time></trkpt><trkpt lat="42.4510878" lon="14.1161347"><ele>133.2</ele><time>2026-05-02T06:41:54.093Z</time></trkpt><trkpt lat="42.4509876" lon="14.1161502"><ele>129.39999999999998</ele><time>2026-05-02T06:41:56.094Z</time></trkpt><trkpt lat="42.4508803" lon="14.1161991"><ele>125.60000000000001</ele><time>2026-05-02T06:41:58.096Z</time></trkpt><trkpt lat="42.4507648" lon="14.1162615"><ele>121.80000000000001</ele><time>2026-05-02T06:42:00.098Z</time></trkpt><trkpt lat="42.4507032" lon="14.1163006"><ele>118.0</ele><time>2026-05-02T06:42:01.1Z</time></trkpt><trkpt lat="42.4506399" lon="14.1163377"><ele>118.00000000000001</ele><time>2026-05-02T06:42:02.088Z</time></trkpt><trkpt lat="42.4505796" lon="14.1163776"><ele>118.0</ele><time>2026-05-02T06:42:03.101Z</time></trkpt><trkpt lat="42.450472" lon="14.1164744"><ele>118.0</ele><time>2026-05-02T06:42:05.092Z</time></trkpt><trkpt lat="42.4504218" lon="14.1165312"><ele>118.0</ele><time>2026-05-02T06:42:06.092Z</time></trkpt><trkpt lat="42.4503685" lon="14.1165892"><ele>118.00000000000001</ele><time>2026-05-02T06:42:07.102Z</time></trkpt><trkpt lat="42.4503136" lon="14.1166508"><ele>118.0</ele><time>2026-05-02T06:42:08.087Z</time></trkpt><trkpt lat="42.4502551" lon="14.1167083"><ele>116.16666666666667</ele><time>2026-05-02T06:42:09.093Z</time></trkpt><trkpt lat="42.4502022" lon="14.1167703"><ele>114.33333333333334</ele><time>2026-05-02T06:42:10.089Z</time></trkpt><trkpt lat="42.4501482" lon="14.1168224"><ele>112.5</ele><time>2026-05-02T06:42:11.1Z</time></trkpt><trkpt lat="42.4500942" lon="14.1168789"><ele>110.66666666666666</ele><time>2026-05-02T06:42:12.093Z</time></trkpt><trkpt lat="42.4500398" lon="14.1169308"><ele>108.83333333333333</ele><time>2026-05-02T06:42:13.094Z</time></trkpt><trkpt lat="42.4499307" lon="14.1170165"><ele>107.0</ele><time>2026-05-02T06:42:15.095Z</time></trkpt><trkpt lat="42.4498695" lon="14.1170615"><ele>106.99999999999999</ele><time>2026-05-02T06:42:16.092Z</time></trkpt><trkpt lat="42.4498001" lon="14.1170985"><ele>107.0</ele><time>2026-05-02T06:42:17.098Z</time></trkpt><trkpt lat="42.4497231" lon="14.1171389"><ele>107.0</ele><time>2026-05-02T06:42:18.093Z</time></trkpt><trkpt lat="42.4496457" lon="14.1171706"><ele>107.0</ele><time>2026-05-02T06:42:19.089Z</time></trkpt><trkpt lat="42.4495659" lon="14.1172025"><ele>106.99999999999999</ele><time>2026-05-02T06:42:20.095Z</time></trkpt><trkpt lat="42.4494818" lon="14.1172173"><ele>107.0</ele><time>2026-05-02T06:42:21.088Z</time></trkpt><trkpt lat="42.4494029" lon="14.1172187"><ele>105.33333333333333</ele><time>2026-05-02T06:42:22.09Z</time></trkpt><trkpt lat="42.4493246" lon="14.1172011"><ele>103.66666666666666</ele><time>2026-05-02T06:42:23.094Z</time></trkpt><trkpt lat="42.4492462" lon="14.1171663"><ele>102.0</ele><time>2026-05-02T06:42:24.092Z</time></trkpt><trkpt lat="42.449174" lon="14.117137"><ele>100.33333333333334</ele><time>2026-05-02T06:42:25.089Z</time></trkpt><trkpt lat="42.449107" lon="14.1171164"><ele>98.66666666666667</ele><time>2026-05-02T06:42:26.091Z</time></trkpt><trkpt lat="42.4490371" lon="14.1170998"><ele>97.0</ele><time>2026-05-02T06:42:27.087Z</time></trkpt><trkpt lat="42.4489311" lon="14.1170738"><ele>97.0</ele><time>2026-05-02T06:42:29.089Z</time></trkpt><trkpt lat="42.4488515" lon="14.1170491"><ele>97.0</ele><time>2026-05-02T06:42:32.086Z</time></trkpt><trkpt lat="42.4487849" lon="14.117024"><ele>97.0</ele><time>2026-05-02T06:42:42.086Z</time></trkpt><trkpt lat="42.4487184" lon="14.1170095"><ele>97.0</ele><time>2026-05-02T06:42:47.094Z</time></trkpt><trkpt lat="42.4486366" lon="14.1170103"><ele>97.0</ele><time>2026-05-02T06:42:51.095Z</time></trkpt><trkpt lat="42.448559" lon="14.1170269"><ele>97.0</ele><time>2026-05-02T06:42:54.091Z</time></trkpt><trkpt lat="42.4484985" lon="14.1170702"><ele>97.0</ele><time>2026-05-02T06:42:57.085Z</time></trkpt><trkpt lat="42.4484968" lon="14.1171633"><ele>96.71428571428571</ele><time>2026-05-02T06:43:00.086Z</time></trkpt><trkpt lat="42.4485083" lon="14.1172475"><ele>96.42857142857143</ele><time>2026-05-02T06:43:03.065Z</time></trkpt><trkpt lat="42.4485102" lon="14.1173564"><ele>96.14285714285714</ele><time>2026-05-02T06:43:07.065Z</time></trkpt><trkpt lat="42.4485181" lon="14.1174432"><ele>95.85714285714286</ele><time>2026-05-02T06:43:14.08Z</time></trkpt><trkpt lat="42.4485191" lon="14.1175509"><ele>95.57142857142858</ele><time>2026-05-02T06:43:18.067Z</time></trkpt><trkpt lat="42.4484895" lon="14.1176415"><ele>95.28571428571429</ele><time>2026-05-02T06:43:21.092Z</time></trkpt><trkpt lat="42.4485341" lon="14.1177358"><ele>95.0</ele><time>2026-05-02T06:43:23.094Z</time></trkpt><trkpt lat="42.4485418" lon="14.1178284"><ele>94.0</ele><time>2026-05-02T06:43:36.094Z</time></trkpt><trkpt lat="42.448553" lon="14.1179289"><ele>93.0</ele><time>2026-05-02T06:43:42.091Z</time></trkpt><trkpt lat="42.4485487" lon="14.1180437"><ele>92.0</ele><time>2026-05-02T06:43:46.09Z</time></trkpt><trkpt lat="42.448536" lon="14.1181439"><ele>91.0</ele><time>2026-05-02T06:43:48.091Z</time></trkpt><trkpt lat="42.4485375" lon="14.1182716"><ele>90.0</ele><time>2026-05-02T06:43:51.087Z</time></trkpt><trkpt lat="42.4485546" lon="14.118404"><ele>89.0</ele><time>2026-05-02T06:43:54.096Z</time></trkpt><trkpt lat="42.4485615" lon="14.1185381"><ele>89.0</ele><time>2026-05-02T06:43:56.095Z</time></trkpt><trkpt lat="42.4485792" lon="14.1186799"><ele>89.0</ele><time>2026-05-02T06:43:58.091Z</time></trkpt><trkpt lat="42.4485903" lon="14.118793"><ele>89.0</ele><time>2026-05-02T06:44:00.089Z</time></trkpt><trkpt lat="42.4485992" lon="14.1189003"><ele>89.0</ele><time>2026-05-02T06:44:02.089Z</time></trkpt><trkpt lat="42.4486018" lon="14.1189919"><ele>89.0</ele><time>2026-05-02T06:44:04.087Z</time></trkpt><trkpt lat="42.4486149" lon="14.1190815"><ele>89.0</ele><time>2026-05-02T06:46:05.087Z</time></trkpt><trkpt lat="42.4486274" lon="14.1191702"><ele>90.16666666666667</ele><time>2026-05-02T06:54:33.093Z</time></trkpt><trkpt lat="42.4486325" lon="14.1192987"><ele>91.33333333333334</ele><time>2026-05-02T06:54:39.093Z</time></trkpt><trkpt lat="42.4486425" lon="14.1194221"><ele>92.5</ele><time>2026-05-02T06:54:41.09Z</time></trkpt><trkpt lat="42.448649" lon="14.1195177"><ele>93.66666666666667</ele><time>2026-05-02T06:54:43.081Z</time></trkpt><trkpt lat="42.4486535" lon="14.1196201"><ele>94.83333333333333</ele><time>2026-05-02T06:54:45.08Z</time></trkpt><trkpt lat="42.4486578" lon="14.1197118"><ele>96.0</ele><time>2026-05-02T06:54:50.08Z</time></trkpt><trkpt lat="42.4486532" lon="14.1198456"><ele>97.42857142857142</ele><time>2026-05-02T06:54:53.08Z</time></trkpt><trkpt lat="42.448651" lon="14.1199631"><ele>98.85714285714286</ele><time>2026-05-02T06:54:57.076Z</time></trkpt><trkpt lat="42.4486483" lon="14.1200526"><ele>100.28571428571428</ele><time>2026-05-02T06:55:01.075Z</time></trkpt><trkpt lat="42.4486536" lon="14.1201643"><ele>101.71428571428571</ele><time>2026-05-02T06:55:04.077Z</time></trkpt><trkpt lat="42.448649" lon="14.1202513"><ele>103.14285714285714</ele><time>2026-05-02T06:55:06.078Z</time></trkpt><trkpt lat="42.4486535" lon="14.1203513"><ele>104.57142857142857</ele><time>2026-05-02T06:55:08.076Z</time></trkpt><trkpt lat="42.448658" lon="14.1204421"><ele>106.0</ele><time>2026-05-02T06:55:10.071Z</time></trkpt><trkpt lat="42.4486504" lon="14.1205599"><ele>106.0</ele><time>2026-05-02T06:55:14.081Z</time></trkpt><trkpt lat="42.4486508" lon="14.120688"><ele>106.0</ele><time>2026-05-02T06:55:17.081Z</time></trkpt><trkpt lat="42.448655" lon="14.1208187"><ele>106.0</ele><time>2026-05-02T06:55:19.078Z</time></trkpt><trkpt lat="42.4486626" lon="14.1209901"><ele>106.0</ele><time>2026-05-02T06:55:21.081Z</time></trkpt><trkpt lat="42.448666" lon="14.1210828"><ele>106.0</ele><time>2026-05-02T06:55:22.085Z</time></trkpt><trkpt lat="42.4486806" lon="14.1212514"><ele>108.4</ele><time>2026-05-02T06:55:24.071Z</time></trkpt><trkpt lat="42.4486805" lon="14.1213412"><ele>110.8</ele><time>2026-05-02T06:55:25.075Z</time></trkpt><trkpt lat="42.4486837" lon="14.1214899"><ele>113.20000000000002</ele><time>2026-05-02T06:55:27.074Z</time></trkpt><trkpt lat="42.4486887" lon="14.121628"><ele>115.60000000000001</ele><time>2026-05-02T06:55:29.083Z</time></trkpt><trkpt lat="42.4486993" lon="14.1217791"><ele>118.0</ele><time>2026-05-02T06:55:31.072Z</time></trkpt><trkpt lat="42.4487117" lon="14.1218815"><ele>119.33333333333334</ele><time>2026-05-02T06:55:32.078Z</time></trkpt><trkpt lat="42.4487299" lon="14.1219894"><ele>120.66666666666667</ele><time>2026-05-02T06:55:33.078Z</time></trkpt><trkpt lat="42.4487553" lon="14.1221069"><ele>122.0</ele><time>2026-05-02T06:55:34.082Z</time></trkpt><trkpt lat="42.448784" lon="14.122227"><ele>123.33333333333334</ele><time>2026-05-02T06:55:35.083Z</time></trkpt><trkpt lat="42.4488137" lon="14.1223403"><ele>124.66666666666667</ele><time>2026-05-02T06:55:36.091Z</time></trkpt><trkpt lat="42.4488447" lon="14.122439"><ele>126.0</ele><time>2026-05-02T06:55:37.083Z</time></trkpt><trkpt lat="42.4488806" lon="14.1225276"><ele>126.66666666666667</ele><time>2026-05-02T06:55:38.076Z</time></trkpt><trkpt lat="42.4489225" lon="14.1226506"><ele>127.33333333333334</ele><time>2026-05-02T06:55:40.093Z</time></trkpt><trkpt lat="42.4489504" lon="14.1227498"><ele>128.0</ele><time>2026-05-02T06:55:44.095Z</time></trkpt><trkpt lat="42.4488821" lon="14.1227273"><ele>128.66666666666669</ele><time>2026-05-02T06:55:47.087Z</time></trkpt><trkpt lat="42.4488113" lon="14.1226977"><ele>129.33333333333334</ele><time>2026-05-02T06:55:49.089Z</time></trkpt><trkpt lat="42.4487654" lon="14.1226332"><ele>130.0</ele><time>2026-05-02T07:01:23.122Z</time></trkpt><trkpt lat="42.4486413" lon="14.1225747"><ele>130.0</ele><time>2026-05-02T07:01:31.108Z</time></trkpt><trkpt lat="42.4485615" lon="14.1225145"><ele>130.0</ele><time>2026-05-02T07:01:32.118Z</time></trkpt><trkpt lat="42.4484711" lon="14.1224561"><ele>130.0</ele><time>2026-05-02T07:01:33.101Z</time></trkpt><trkpt lat="42.4483678" lon="14.1223954"><ele>130.0</ele><time>2026-05-02T07:01:34.11Z</time></trkpt><trkpt lat="42.4482644" lon="14.1223339"><ele>130.0</ele><time>2026-05-02T07:01:35.1Z</time></trkpt><trkpt lat="42.4481593" lon="14.1222652"><ele>129.25</ele><time>2026-05-02T07:01:36.104Z</time></trkpt><trkpt lat="42.4480515" lon="14.1221964"><ele>128.5</ele><time>2026-05-02T07:01:37.103Z</time></trkpt><trkpt lat="42.4479489" lon="14.1221249"><ele>127.75</ele><time>2026-05-02T07:01:38.103Z</time></trkpt><trkpt lat="42.4478461" lon="14.1220529"><ele>127.0</ele><time>2026-05-02T07:01:39.101Z</time></trkpt><trkpt lat="42.4477519" lon="14.1219828"><ele>128.6</ele><time>2026-05-02T07:01:40.101Z</time></trkpt><trkpt lat="42.447677" lon="14.1219204"><ele>130.2</ele><time>2026-05-02T07:01:41.09Z</time></trkpt><trkpt lat="42.4476005" lon="14.1218656"><ele>131.8</ele><time>2026-05-02T07:01:42.103Z</time></trkpt><trkpt lat="42.4475151" lon="14.1218165"><ele>133.4</ele><time>2026-05-02T07:01:43.094Z</time></trkpt><trkpt lat="42.4474182" lon="14.1217769"><ele>135.0</ele><time>2026-05-02T07:01:44.098Z</time></trkpt><trkpt lat="42.4472986" lon="14.1217596"><ele>135.0</ele><time>2026-05-02T07:01:45.103Z</time></trkpt><trkpt lat="42.4471669" lon="14.1217473"><ele>135.0</ele><time>2026-05-02T07:01:46.1Z</time></trkpt><trkpt lat="42.4470266" lon="14.121715"><ele>135.0</ele><time>2026-05-02T07:01:47.103Z</time></trkpt><trkpt lat="42.4468872" lon="14.1216916"><ele>135.0</ele><time>2026-05-02T07:01:48.094Z</time></trkpt><trkpt lat="42.4467484" lon="14.1216749"><ele>134.25</ele><time>2026-05-02T07:01:49.103Z</time></trkpt><trkpt lat="42.4466169" lon="14.1216805"><ele>133.5</ele><time>2026-05-02T07:01:50.1Z</time></trkpt><trkpt lat="42.4464816" lon="14.1217033"><ele>132.75</ele><time>2026-05-02T07:01:51.104Z</time></trkpt><trkpt lat="42.4463474" lon="14.1217458"><ele>132.0</ele><time>2026-05-02T07:01:52.11Z</time></trkpt><trkpt lat="42.4462137" lon="14.1217812"><ele>131.0</ele><time>2026-05-02T07:01:53.104Z</time></trkpt><trkpt lat="42.4460886" lon="14.1218068"><ele>130.0</ele><time>2026-05-02T07:01:54.101Z</time></trkpt><trkpt lat="42.4459689" lon="14.1218319"><ele>129.0</ele><time>2026-05-02T07:01:55.115Z</time></trkpt><trkpt lat="42.4458518" lon="14.1218631"><ele>128.0</ele><time>2026-05-02T07:01:56.104Z</time></trkpt><trkpt lat="42.4457363" lon="14.1219182"><ele>128.0</ele><time>2026-05-02T07:01:57.104Z</time></trkpt><trkpt lat="42.4456201" lon="14.1219964"><ele>128.0</ele><time>2026-05-02T07:01:58.109Z</time></trkpt><trkpt lat="42.4455179" lon="14.1221138"><ele>128.0</ele><time>2026-05-02T07:01:59.107Z</time></trkpt><trkpt lat="42.4454187" lon="14.1222485"><ele>128.0</ele><time>2026-05-02T07:02:00.101Z</time></trkpt><trkpt lat="42.4453146" lon="14.1223881"><ele>127.5</ele><time>2026-05-02T07:02:01.092Z</time></trkpt><trkpt lat="42.4451939" lon="14.1225185"><ele>127.0</ele><time>2026-05-02T07:02:02.098Z</time></trkpt><trkpt lat="42.445035" lon="14.122586"><ele>126.5</ele><time>2026-05-02T07:02:03.099Z</time></trkpt><trkpt lat="42.444939" lon="14.1226615"><ele>126.0</ele><time>2026-05-02T07:02:04.096Z</time></trkpt><trkpt lat="42.4448247" lon="14.1227443"><ele>126.0</ele><time>2026-05-02T07:02:05.102Z</time></trkpt><trkpt lat="42.4447095" lon="14.1228158"><ele>126.0</ele><time>2026-05-02T07:02:06.101Z</time></trkpt><trkpt lat="42.4446223" lon="14.1229285"><ele>126.0</ele><time>2026-05-02T07:02:07.096Z</time></trkpt><trkpt lat="42.4445378" lon="14.1230658"><ele>126.0</ele><time>2026-05-02T07:02:08.101Z</time></trkpt><trkpt lat="42.4444507" lon="14.1231923"><ele>124.25</ele><time>2026-05-02T07:02:09.102Z</time></trkpt><trkpt lat="42.4443603" lon="14.1233088"><ele>122.5</ele><time>2026-05-02T07:02:10.102Z</time></trkpt><trkpt lat="42.4442607" lon="14.1234096"><ele>120.75</ele><time>2026-05-02T07:02:11.103Z</time></trkpt><trkpt lat="42.4441531" lon="14.12347"><ele>119.0</ele><time>2026-05-02T07:02:12.098Z</time></trkpt><trkpt lat="42.4440408" lon="14.1234818"><ele>119.0</ele><time>2026-05-02T07:02:13.099Z</time></trkpt><trkpt lat="42.4439284" lon="14.1234532"><ele>119.0</ele><time>2026-05-02T07:02:14.113Z</time></trkpt><trkpt lat="42.4438105" lon="14.1234346"><ele>119.0</ele><time>2026-05-02T07:02:15.1Z</time></trkpt><trkpt lat="42.4436871" lon="14.1234387"><ele>119.0</ele><time>2026-05-02T07:02:16.108Z</time></trkpt><trkpt lat="42.4435499" lon="14.123472"><ele>116.33333333333333</ele><time>2026-05-02T07:02:17.104Z</time></trkpt><trkpt lat="42.443387" lon="14.1235224"><ele>113.66666666666666</ele><time>2026-05-02T07:02:18.104Z</time></trkpt><trkpt lat="42.4432409" lon="14.1235732"><ele>111.0</ele><time>2026-05-02T07:02:19.1Z</time></trkpt><trkpt lat="42.4430943" lon="14.1236148"><ele>109.0</ele><time>2026-05-02T07:02:20.103Z</time></trkpt><trkpt lat="42.4429396" lon="14.1236685"><ele>107.0</ele><time>2026-05-02T07:02:21.105Z</time></trkpt><trkpt lat="42.4427869" lon="14.1237332"><ele>105.0</ele><time>2026-05-02T07:02:22.113Z</time></trkpt><trkpt lat="42.4426433" lon="14.1237959"><ele>105.0</ele><time>2026-05-02T07:02:23.107Z</time></trkpt><trkpt lat="42.4424964" lon="14.1238263"><ele>105.0</ele><time>2026-05-02T07:02:24.108Z</time></trkpt><trkpt lat="42.4423335" lon="14.1238494"><ele>105.0</ele><time>2026-05-02T07:02:25.101Z</time></trkpt><trkpt lat="42.4421879" lon="14.1238903"><ele>107.66666666666666</ele><time>2026-05-02T07:02:26.108Z</time></trkpt><trkpt lat="42.4420374" lon="14.1239225"><ele>110.33333333333333</ele><time>2026-05-02T07:02:27.099Z</time></trkpt><trkpt lat="42.4418841" lon="14.1239337"><ele>113.0</ele><time>2026-05-02T07:02:28.098Z</time></trkpt><trkpt lat="42.4417261" lon="14.1239071"><ele>113.0</ele><time>2026-05-02T07:02:29.09Z</time></trkpt><trkpt lat="42.4415777" lon="14.1238818"><ele>113.0</ele><time>2026-05-02T07:02:30.092Z</time></trkpt><trkpt lat="42.4414477" lon="14.12384"><ele>113.0</ele><time>2026-05-02T07:02:31.091Z</time></trkpt><trkpt lat="42.4413255" lon="14.1237963"><ele>113.0</ele><time>2026-05-02T07:02:32.094Z</time></trkpt><trkpt lat="42.4412089" lon="14.1237306"><ele>111.25</ele><time>2026-05-02T07:02:33.096Z</time></trkpt><trkpt lat="42.4410903" lon="14.123643"><ele>109.5</ele><time>2026-05-02T07:02:34.092Z</time></trkpt><trkpt lat="42.4409549" lon="14.1235871"><ele>107.75</ele><time>2026-05-02T07:02:35.097Z</time></trkpt><trkpt lat="42.4408209" lon="14.1234845"><ele>106.0</ele><time>2026-05-02T07:02:36.097Z</time></trkpt><trkpt lat="42.4406809" lon="14.1233903"><ele>106.0</ele><time>2026-05-02T07:02:37.104Z</time></trkpt><trkpt lat="42.4405411" lon="14.1233164"><ele>106.0</ele><time>2026-05-02T07:02:38.099Z</time></trkpt><trkpt lat="42.4404111" lon="14.1232717"><ele>106.0</ele><time>2026-05-02T07:02:39.096Z</time></trkpt><trkpt lat="42.4402733" lon="14.1232504"><ele>106.0</ele><time>2026-05-02T07:02:40.091Z</time></trkpt><trkpt lat="42.4401326" lon="14.1232444"><ele>106.25</ele><time>2026-05-02T07:02:41.091Z</time></trkpt><trkpt lat="42.4400115" lon="14.1232191"><ele>106.5</ele><time>2026-05-02T07:02:42.097Z</time></trkpt><trkpt lat="42.4398691" lon="14.1232157"><ele>106.75</ele><time>2026-05-02T07:02:43.089Z</time></trkpt><trkpt lat="42.4397446" lon="14.1231989"><ele>107.0</ele><time>2026-05-02T07:02:44.091Z</time></trkpt><trkpt lat="42.439614" lon="14.123221"><ele>100.25</ele><time>2026-05-02T07:02:45.083Z</time></trkpt><trkpt lat="42.4394791" lon="14.1232642"><ele>93.5</ele><time>2026-05-02T07:02:46.086Z</time></trkpt><trkpt lat="42.4393448" lon="14.1233202"><ele>86.75</ele><time>2026-05-02T07:02:47.088Z</time></trkpt><trkpt lat="42.4392144" lon="14.1233992"><ele>80.0</ele><time>2026-05-02T07:02:48.097Z</time></trkpt><trkpt lat="42.4390969" lon="14.1234604"><ele>80.0</ele><time>2026-05-02T07:02:49.089Z</time></trkpt><trkpt lat="42.4389575" lon="14.1234887"><ele>80.0</ele><time>2026-05-02T07:02:50.089Z</time></trkpt><trkpt lat="42.4388266" lon="14.1234952"><ele>80.0</ele><time>2026-05-02T07:02:51.096Z</time></trkpt><trkpt lat="42.4386891" lon="14.123513"><ele>80.0</ele><time>2026-05-02T07:02:52.1Z</time></trkpt><trkpt lat="42.4385437" lon="14.1235452"><ele>77.25</ele><time>2026-05-02T07:02:53.102Z</time></trkpt><trkpt lat="42.4383973" lon="14.1235675"><ele>74.5</ele><time>2026-05-02T07:02:54.103Z</time></trkpt><trkpt lat="42.4382699" lon="14.123609"><ele>71.75</ele><time>2026-05-02T07:02:55.1Z</time></trkpt><trkpt lat="42.4381305" lon="14.1236596"><ele>69.0</ele><time>2026-05-02T07:02:56.097Z</time></trkpt><trkpt lat="42.4379859" lon="14.1237069"><ele>68.8</ele><time>2026-05-02T07:02:57.103Z</time></trkpt><trkpt lat="42.437864" lon="14.1237309"><ele>68.60000000000001</ele><time>2026-05-02T07:02:58.095Z</time></trkpt><trkpt lat="42.4377541" lon="14.1237654"><ele>68.4</ele><time>2026-05-02T07:02:59.098Z</time></trkpt><trkpt lat="42.4376629" lon="14.1237596"><ele>68.2</ele><time>2026-05-02T07:03:00.097Z</time></trkpt><trkpt lat="42.4375777" lon="14.1237227"><ele>68.0</ele><time>2026-05-02T07:03:01.096Z</time></trkpt><trkpt lat="42.4374768" lon="14.1236591"><ele>68.0</ele><time>2026-05-02T07:03:02.094Z</time></trkpt><trkpt lat="42.4373686" lon="14.1236164"><ele>68.0</ele><time>2026-05-02T07:03:03.079Z</time></trkpt><trkpt lat="42.4372609" lon="14.1235997"><ele>68.0</ele><time>2026-05-02T07:03:04.082Z</time></trkpt><trkpt lat="42.4371667" lon="14.1235659"><ele>68.0</ele><time>2026-05-02T07:03:05.086Z</time></trkpt><trkpt lat="42.4370813" lon="14.1234917"><ele>68.0</ele><time>2026-05-02T07:03:06.087Z</time></trkpt><trkpt lat="42.4369712" lon="14.1234052"><ele>66.0</ele><time>2026-05-02T07:03:07.097Z</time></trkpt><trkpt lat="42.4368462" lon="14.1233327"><ele>64.0</ele><time>2026-05-02T07:03:08.082Z</time></trkpt><trkpt lat="42.4367091" lon="14.1232679"><ele>62.0</ele><time>2026-05-02T07:03:09.08Z</time></trkpt><trkpt lat="42.4365531" lon="14.1232219"><ele>60.0</ele><time>2026-05-02T07:03:10.088Z</time></trkpt><trkpt lat="42.4363963" lon="14.1231997"><ele>61.0</ele><time>2026-05-02T07:03:11.082Z</time></trkpt><trkpt lat="42.43624" lon="14.1231738"><ele>62.0</ele><time>2026-05-02T07:03:12.088Z</time></trkpt><trkpt lat="42.4361015" lon="14.1231156"><ele>63.0</ele><time>2026-05-02T07:03:13.088Z</time></trkpt><trkpt lat="42.43596" lon="14.1230788"><ele>64.0</ele><time>2026-05-02T07:03:14.09Z</time></trkpt><trkpt lat="42.4358279" lon="14.1230532"><ele>64.0</ele><time>2026-05-02T07:03:15.087Z</time></trkpt><trkpt lat="42.4356846" lon="14.1230062"><ele>64.0</ele><time>2026-05-02T07:03:16.085Z</time></trkpt><trkpt lat="42.435559" lon="14.1230085"><ele>64.0</ele><time>2026-05-02T07:03:17.089Z</time></trkpt><trkpt lat="42.4354348" lon="14.1230769"><ele>64.0</ele><time>2026-05-02T07:03:18.096Z</time></trkpt><trkpt lat="42.4353407" lon="14.1231809"><ele>64.66666666666666</ele><time>2026-05-02T07:03:19.092Z</time></trkpt><trkpt lat="42.4352255" lon="14.1233235"><ele>65.33333333333333</ele><time>2026-05-02T07:03:20.089Z</time></trkpt><trkpt lat="42.4351131" lon="14.1234637"><ele>66.0</ele><time>2026-05-02T07:03:21.09Z</time></trkpt><trkpt lat="42.434996" lon="14.1236361"><ele>66.0</ele><time>2026-05-02T07:03:22.093Z</time></trkpt><trkpt lat="42.4348676" lon="14.1238146"><ele>66.0</ele><time>2026-05-02T07:03:23.093Z</time></trkpt><trkpt lat="42.43474" lon="14.1239975"><ele>66.0</ele><time>2026-05-02T07:03:24.093Z</time></trkpt><trkpt lat="42.43463" lon="14.1241623"><ele>65.33333333333333</ele><time>2026-05-02T07:03:25.096Z</time></trkpt><trkpt lat="42.4345037" lon="14.1243185"><ele>64.66666666666666</ele><time>2026-05-02T07:03:26.092Z</time></trkpt><trkpt lat="42.43437" lon="14.1244652"><ele>64.0</ele><time>2026-05-02T07:03:27.094Z</time></trkpt><trkpt lat="42.4342543" lon="14.1246331"><ele>64.0</ele><time>2026-05-02T07:03:28.104Z</time></trkpt><trkpt lat="42.4341458" lon="14.1248102"><ele>64.0</ele><time>2026-05-02T07:03:29.095Z</time></trkpt><trkpt lat="42.4340361" lon="14.1249779"><ele>64.0</ele><time>2026-05-02T07:03:30.097Z</time></trkpt><trkpt lat="42.433944" lon="14.1251127"><ele>63.400000000000006</ele><time>2026-05-02T07:03:31.092Z</time></trkpt><trkpt lat="42.433876" lon="14.1252165"><ele>62.800000000000004</ele><time>2026-05-02T07:03:32.087Z</time></trkpt><trkpt lat="42.4338186" lon="14.1253137"><ele>62.199999999999996</ele><time>2026-05-02T07:03:33.095Z</time></trkpt><trkpt lat="42.433751" lon="14.125368"><ele>61.599999999999994</ele><time>2026-05-02T07:03:34.083Z</time></trkpt><trkpt lat="42.4336571" lon="14.1254187"><ele>61.0</ele><time>2026-05-02T07:03:36.086Z</time></trkpt><trkpt lat="42.4335989" lon="14.1253433"><ele>60.99999999999999</ele><time>2026-05-02T07:03:40.09Z</time></trkpt><trkpt lat="42.4335383" lon="14.1252976"><ele>61.0</ele><time>2026-05-02T07:03:44.064Z</time></trkpt><trkpt lat="42.4334767" lon="14.1252555"><ele>61.0</ele><time>2026-05-02T07:03:47.064Z</time></trkpt><trkpt lat="42.433421" lon="14.1251607"><ele>61.0</ele><time>2026-05-02T07:03:48.077Z</time></trkpt><trkpt lat="42.4333324" lon="14.1251245"><ele>60.99999999999999</ele><time>2026-05-02T07:03:50.079Z</time></trkpt><trkpt lat="42.4332904" lon="14.1252181"><ele>61.0</ele><time>2026-05-02T07:03:52.092Z</time></trkpt><trkpt lat="42.4332494" lon="14.1252919"><ele>61.0</ele><time>2026-05-02T07:03:53.081Z</time></trkpt><trkpt lat="42.4331881" lon="14.1253644"><ele>60.99999999999999</ele><time>2026-05-02T07:03:54.084Z</time></trkpt><trkpt lat="42.433112" lon="14.125432"><ele>60.99999999999999</ele><time>2026-05-02T07:03:55.082Z</time></trkpt><trkpt lat="42.4330317" lon="14.1255053"><ele>61.0</ele><time>2026-05-02T07:03:56.089Z</time></trkpt><trkpt lat="42.4329447" lon="14.125569"><ele>61.0</ele><time>2026-05-02T07:03:57.092Z</time></trkpt><trkpt lat="42.4328612" lon="14.125625"><ele>61.4</ele><time>2026-05-02T07:03:58.091Z</time></trkpt><trkpt lat="42.4327746" lon="14.1256853"><ele>61.8</ele><time>2026-05-02T07:03:59.089Z</time></trkpt><trkpt lat="42.432691" lon="14.1257587"><ele>62.199999999999996</ele><time>2026-05-02T07:04:00.084Z</time></trkpt><trkpt lat="42.4326171" lon="14.1258347"><ele>62.599999999999994</ele><time>2026-05-02T07:04:01.089Z</time></trkpt><trkpt lat="42.432543" lon="14.1259073"><ele>63.0</ele><time>2026-05-02T07:04:02.092Z</time></trkpt><trkpt lat="42.4324591" lon="14.1259591"><ele>63.0</ele><time>2026-05-02T07:04:03.09Z</time></trkpt><trkpt lat="42.4323686" lon="14.1260045"><ele>63.0</ele><time>2026-05-02T07:04:04.091Z</time></trkpt><trkpt lat="42.432261" lon="14.1260593"><ele>63.0</ele><time>2026-05-02T07:04:05.092Z</time></trkpt><trkpt lat="42.4321505" lon="14.1261182"><ele>63.0</ele><time>2026-05-02T07:04:06.083Z</time></trkpt><trkpt lat="42.4320502" lon="14.1261666"><ele>63.0</ele><time>2026-05-02T07:04:07.085Z</time></trkpt><trkpt lat="42.431968" lon="14.1262171"><ele>64.8</ele><time>2026-05-02T07:04:08.088Z</time></trkpt><trkpt lat="42.4318888" lon="14.1262658"><ele>66.6</ele><time>2026-05-02T07:04:09.092Z</time></trkpt><trkpt lat="42.4318107" lon="14.1262997"><ele>68.4</ele><time>2026-05-02T07:04:10.095Z</time></trkpt><trkpt lat="42.4317318" lon="14.1263229"><ele>70.2</ele><time>2026-05-02T07:04:11.086Z</time></trkpt><trkpt lat="42.4316338" lon="14.1263325"><ele>72.0</ele><time>2026-05-02T07:04:12.087Z</time></trkpt><trkpt lat="42.4315254" lon="14.126333"><ele>72.0</ele><time>2026-05-02T07:04:13.081Z</time></trkpt><trkpt lat="42.4314095" lon="14.1263342"><ele>72.0</ele><time>2026-05-02T07:04:14.092Z</time></trkpt><trkpt lat="42.4312993" lon="14.1263476"><ele>72.0</ele><time>2026-05-02T07:04:15.086Z</time></trkpt><trkpt lat="42.4311968" lon="14.1263694"><ele>72.0</ele><time>2026-05-02T07:04:16.097Z</time></trkpt><trkpt lat="42.4310981" lon="14.1264067"><ele>72.0</ele><time>2026-05-02T07:04:17.091Z</time></trkpt><trkpt lat="42.4309983" lon="14.1264603"><ele>72.8</ele><time>2026-05-02T07:04:18.086Z</time></trkpt><trkpt lat="42.4309103" lon="14.1265178"><ele>73.6</ele><time>2026-05-02T07:04:19.094Z</time></trkpt><trkpt lat="42.4308298" lon="14.1265784"><ele>74.39999999999999</ele><time>2026-05-02T07:04:20.095Z</time></trkpt><trkpt lat="42.4307519" lon="14.1266485"><ele>75.2</ele><time>2026-05-02T07:04:21.092Z</time></trkpt><trkpt lat="42.430675" lon="14.126742"><ele>76.0</ele><time>2026-05-02T07:04:22.089Z</time></trkpt><trkpt lat="42.4305943" lon="14.1268445"><ele>76.0</ele><time>2026-05-02T07:04:23.09Z</time></trkpt><trkpt lat="42.4305184" lon="14.1269334"><ele>76.0</ele><time>2026-05-02T07:04:24.091Z</time></trkpt><trkpt lat="42.4304394" lon="14.1270063"><ele>76.0</ele><time>2026-05-02T07:04:25.094Z</time></trkpt><trkpt lat="42.4303724" lon="14.1270164"><ele>76.0</ele><time>2026-05-02T07:04:26.084Z</time></trkpt><trkpt lat="42.4302702" lon="14.1269416"><ele>76.0</ele><time>2026-05-02T07:04:28.098Z</time></trkpt><trkpt lat="42.4302299" lon="14.1268584"><ele>76.83333333333333</ele><time>2026-05-02T07:04:30.091Z</time></trkpt><trkpt lat="42.4301933" lon="14.1267703"><ele>77.66666666666666</ele><time>2026-05-02T07:04:33.087Z</time></trkpt><trkpt lat="42.4301218" lon="14.1267364"><ele>78.5</ele><time>2026-05-02T07:04:35.091Z</time></trkpt><trkpt lat="42.4300251" lon="14.1267502"><ele>79.33333333333333</ele><time>2026-05-02T07:04:37.093Z</time></trkpt><trkpt lat="42.4299027" lon="14.1267746"><ele>80.16666666666667</ele><time>2026-05-02T07:04:39.09Z</time></trkpt><trkpt lat="42.4298327" lon="14.1267894"><ele>81.0</ele><time>2026-05-02T07:04:40.079Z</time></trkpt><trkpt lat="42.4297627" lon="14.1267955"><ele>81.0</ele><time>2026-05-02T07:04:41.08Z</time></trkpt><trkpt lat="42.4296834" lon="14.1268096"><ele>81.0</ele><time>2026-05-02T07:04:42.074Z</time></trkpt><trkpt lat="42.4296152" lon="14.1268268"><ele>81.0</ele><time>2026-05-02T07:04:43.075Z</time></trkpt><trkpt lat="42.4295496" lon="14.126837"><ele>81.0</ele><time>2026-05-02T07:04:44.07Z</time></trkpt><trkpt lat="42.4294776" lon="14.1268412"><ele>81.0</ele><time>2026-05-02T07:04:45.073Z</time></trkpt><trkpt lat="42.4294086" lon="14.1268325"><ele>81.0</ele><time>2026-05-02T07:04:46.067Z</time></trkpt><trkpt lat="42.4293281" lon="14.1268267"><ele>81.0</ele><time>2026-05-02T07:04:47.073Z</time></trkpt><trkpt lat="42.4292446" lon="14.1268261"><ele>78.66666666666667</ele><time>2026-05-02T07:04:48.068Z</time></trkpt><trkpt lat="42.4291661" lon="14.1268128"><ele>76.33333333333333</ele><time>2026-05-02T07:04:49.065Z</time></trkpt><trkpt lat="42.4290838" lon="14.1267966"><ele>74.0</ele><time>2026-05-02T07:04:50.064Z</time></trkpt><trkpt lat="42.429005" lon="14.1267779"><ele>71.66666666666666</ele><time>2026-05-02T07:04:51.074Z</time></trkpt><trkpt lat="42.4289282" lon="14.12675"><ele>69.33333333333333</ele><time>2026-05-02T07:04:52.075Z</time></trkpt><trkpt lat="42.4288593" lon="14.1267125"><ele>67.0</ele><time>2026-05-02T07:04:53.077Z</time></trkpt><trkpt lat="42.4288006" lon="14.1266639"><ele>65.66666666666666</ele><time>2026-05-02T07:04:54.075Z</time></trkpt><trkpt lat="42.4287448" lon="14.1266063"><ele>64.33333333333333</ele><time>2026-05-02T07:04:55.078Z</time></trkpt><trkpt lat="42.4286935" lon="14.1265355"><ele>63.0</ele><time>2026-05-02T07:04:56.08Z</time></trkpt><trkpt lat="42.42865" lon="14.1264542"><ele>61.66666666666667</ele><time>2026-05-02T07:04:57.079Z</time></trkpt><trkpt lat="42.4286095" lon="14.1263662"><ele>60.333333333333336</ele><time>2026-05-02T07:04:58.076Z</time></trkpt><trkpt lat="42.4285641" lon="14.126277"><ele>59.0</ele><time>2026-05-02T07:04:59.075Z</time></trkpt><trkpt lat="42.4285103" lon="14.1261897"><ele>58.0</ele><time>2026-05-02T07:05:00.075Z</time></trkpt><trkpt lat="42.4284545" lon="14.1261166"><ele>57.0</ele><time>2026-05-02T07:05:01.074Z</time></trkpt><trkpt lat="42.4284024" lon="14.126067"><ele>56.0</ele><time>2026-05-02T07:05:02.079Z</time></trkpt><trkpt lat="42.4283427" lon="14.1260177"><ele>55.0</ele><time>2026-05-02T07:05:03.079Z</time></trkpt><trkpt lat="42.4282805" lon="14.1259758"><ele>54.0</ele><time>2026-05-02T07:05:04.074Z</time></trkpt><trkpt lat="42.4282056" lon="14.125949"><ele>53.0</ele><time>2026-05-02T07:05:05.082Z</time></trkpt><trkpt lat="42.4281355" lon="14.1259386"><ele>52.0</ele><time>2026-05-02T07:05:06.083Z</time></trkpt><trkpt lat="42.4280613" lon="14.125942"><ele>51.99999999999999</ele><time>2026-05-02T07:05:07.075Z</time></trkpt><trkpt lat="42.4279834" lon="14.1259536"><ele>52.0</ele><time>2026-05-02T07:05:08.078Z</time></trkpt><trkpt lat="42.4278956" lon="14.1259661"><ele>52.0</ele><time>2026-05-02T07:05:09.077Z</time></trkpt><trkpt lat="42.4278103" lon="14.1259639"><ele>52.0</ele><time>2026-05-02T07:05:10.076Z</time></trkpt><trkpt lat="42.4277236" lon="14.1259516"><ele>51.99999999999999</ele><time>2026-05-02T07:05:11.076Z</time></trkpt><trkpt lat="42.4276258" lon="14.1259198"><ele>52.0</ele><time>2026-05-02T07:05:12.076Z</time></trkpt><trkpt lat="42.427529" lon="14.1258732"><ele>50.83333333333333</ele><time>2026-05-02T07:05:13.083Z</time></trkpt><trkpt lat="42.4274428" lon="14.1258193"><ele>49.666666666666664</ele><time>2026-05-02T07:05:14.075Z</time></trkpt><trkpt lat="42.427361" lon="14.1257713"><ele>48.5</ele><time>2026-05-02T07:05:15.079Z</time></trkpt><trkpt lat="42.4272745" lon="14.1257273"><ele>47.33333333333333</ele><time>2026-05-02T07:05:16.074Z</time></trkpt><trkpt lat="42.4271869" lon="14.1257014"><ele>46.166666666666664</ele><time>2026-05-02T07:05:17.075Z</time></trkpt><trkpt lat="42.4271063" lon="14.1256837"><ele>45.0</ele><time>2026-05-02T07:05:18.077Z</time></trkpt><trkpt lat="42.4270254" lon="14.125677"><ele>43.5</ele><time>2026-05-02T07:05:19.076Z</time></trkpt><trkpt lat="42.4269541" lon="14.1256766"><ele>42.0</ele><time>2026-05-02T07:05:20.077Z</time></trkpt><trkpt lat="42.4268398" lon="14.1256534"><ele>40.5</ele><time>2026-05-02T07:05:22.081Z</time></trkpt><trkpt lat="42.4267749" lon="14.1255899"><ele>39.0</ele><time>2026-05-02T07:05:24.085Z</time></trkpt><trkpt lat="42.4267267" lon="14.125501"><ele>37.5</ele><time>2026-05-02T07:05:27.084Z</time></trkpt><trkpt lat="42.426717" lon="14.1253759"><ele>36.0</ele><time>2026-05-02T07:05:29.093Z</time></trkpt><trkpt lat="42.4267102" lon="14.1252538"><ele>36.0</ele><time>2026-05-02T07:05:30.09Z</time></trkpt><trkpt lat="42.4267033" lon="14.1251112"><ele>36.0</ele><time>2026-05-02T07:05:31.09Z</time></trkpt><trkpt lat="42.4266817" lon="14.1249472"><ele>36.0</ele><time>2026-05-02T07:05:32.09Z</time></trkpt><trkpt lat="42.4266554" lon="14.1247988"><ele>36.0</ele><time>2026-05-02T07:05:33.085Z</time></trkpt><trkpt lat="42.4266306" lon="14.1246619"><ele>36.0</ele><time>2026-05-02T07:05:34.086Z</time></trkpt><trkpt lat="42.4266075" lon="14.1245435"><ele>36.5</ele><time>2026-05-02T07:05:35.082Z</time></trkpt><trkpt lat="42.4265904" lon="14.1244368"><ele>37.0</ele><time>2026-05-02T07:05:36.088Z</time></trkpt><trkpt lat="42.4265695" lon="14.1243424"><ele>37.5</ele><time>2026-05-02T07:05:37.09Z</time></trkpt><trkpt lat="42.4265452" lon="14.1242449"><ele>38.0</ele><time>2026-05-02T07:05:38.091Z</time></trkpt><trkpt lat="42.4265221" lon="14.1241495"><ele>38.5</ele><time>2026-05-02T07:05:39.095Z</time></trkpt><trkpt lat="42.426492" lon="14.1240456"><ele>39.0</ele><time>2026-05-02T07:05:40.089Z</time></trkpt><trkpt lat="42.4264562" lon="14.1239388"><ele>40.25</ele><time>2026-05-02T07:05:41.099Z</time></trkpt><trkpt lat="42.4264206" lon="14.1238164"><ele>41.5</ele><time>2026-05-02T07:05:42.096Z</time></trkpt><trkpt lat="42.4263864" lon="14.1236767"><ele>42.75</ele><time>2026-05-02T07:05:43.09Z</time></trkpt><trkpt lat="42.426357" lon="14.1235206"><ele>44.0</ele><time>2026-05-02T07:05:44.096Z</time></trkpt><trkpt lat="42.4263338" lon="14.1233459"><ele>42.0</ele><time>2026-05-02T07:05:45.091Z</time></trkpt><trkpt lat="42.4263045" lon="14.1231555"><ele>40.0</ele><time>2026-05-02T07:05:46.093Z</time></trkpt><trkpt lat="42.4262727" lon="14.1229363"><ele>38.0</ele><time>2026-05-02T07:05:47.097Z</time></trkpt><trkpt lat="42.426241" lon="14.1227177"><ele>38.0</ele><time>2026-05-02T07:05:48.095Z</time></trkpt><trkpt lat="42.4262262" lon="14.1225166"><ele>38.0</ele><time>2026-05-02T07:05:49.093Z</time></trkpt><trkpt lat="42.4261951" lon="14.1222908"><ele>38.0</ele><time>2026-05-02T07:05:50.095Z</time></trkpt><trkpt lat="42.4261694" lon="14.1220948"><ele>38.25</ele><time>2026-05-02T07:05:51.092Z</time></trkpt><trkpt lat="42.4261393" lon="14.1219"><ele>38.5</ele><time>2026-05-02T07:05:52.092Z</time></trkpt><trkpt lat="42.4261058" lon="14.1217041"><ele>38.75</ele><time>2026-05-02T07:05:53.093Z</time></trkpt><trkpt lat="42.4260803" lon="14.1215168"><ele>39.0</ele><time>2026-05-02T07:05:54.093Z</time></trkpt><trkpt lat="42.4260219" lon="14.121305"><ele>39.666666666666664</ele><time>2026-05-02T07:05:55.088Z</time></trkpt><trkpt lat="42.4259824" lon="14.1211134"><ele>40.33333333333333</ele><time>2026-05-02T07:05:56.086Z</time></trkpt><trkpt lat="42.4259084" lon="14.1209081"><ele>41.0</ele><time>2026-05-02T07:05:57.085Z</time></trkpt><trkpt lat="42.4258539" lon="14.1207316"><ele>42.33333333333333</ele><time>2026-05-02T07:05:58.092Z</time></trkpt><trkpt lat="42.425789" lon="14.1205279"><ele>43.666666666666664</ele><time>2026-05-02T07:05:59.09Z</time></trkpt><trkpt lat="42.4257222" lon="14.1203386"><ele>45.0</ele><time>2026-05-02T07:06:00.091Z</time></trkpt><trkpt lat="42.4256405" lon="14.1201419"><ele>45.0</ele><time>2026-05-02T07:06:01.091Z</time></trkpt><trkpt lat="42.425573" lon="14.1199444"><ele>45.0</ele><time>2026-05-02T07:06:02.089Z</time></trkpt><trkpt lat="42.4255332" lon="14.1197596"><ele>45.0</ele><time>2026-05-02T07:06:03.088Z</time></trkpt><trkpt lat="42.4254765" lon="14.1195511"><ele>43.0</ele><time>2026-05-02T07:06:04.084Z</time></trkpt><trkpt lat="42.4254129" lon="14.1193183"><ele>41.0</ele><time>2026-05-02T07:06:05.093Z</time></trkpt><trkpt lat="42.4254015" lon="14.1190663"><ele>39.0</ele><time>2026-05-02T07:06:06.087Z</time></trkpt><trkpt lat="42.4253654" lon="14.1188317"><ele>39.0</ele><time>2026-05-02T07:06:07.078Z</time></trkpt><trkpt lat="42.4253367" lon="14.1185625"><ele>39.0</ele><time>2026-05-02T07:06:08.091Z</time></trkpt><trkpt lat="42.4252959" lon="14.1183099"><ele>39.0</ele><time>2026-05-02T07:06:09.085Z</time></trkpt><trkpt lat="42.4252482" lon="14.118063"><ele>39.333333333333336</ele><time>2026-05-02T07:06:10.092Z</time></trkpt><trkpt lat="42.4251883" lon="14.1177693"><ele>39.66666666666667</ele><time>2026-05-02T07:06:11.088Z</time></trkpt><trkpt lat="42.4251493" lon="14.1175144"><ele>40.0</ele><time>2026-05-02T07:06:12.09Z</time></trkpt><trkpt lat="42.425109" lon="14.1172522"><ele>41.333333333333336</ele><time>2026-05-02T07:06:13.086Z</time></trkpt><trkpt lat="42.425083" lon="14.1169781"><ele>42.666666666666664</ele><time>2026-05-02T07:06:14.094Z</time></trkpt><trkpt lat="42.4250402" lon="14.1167032"><ele>44.0</ele><time>2026-05-02T07:06:15.09Z</time></trkpt><trkpt lat="42.4250269" lon="14.1164461"><ele>44.0</ele><time>2026-05-02T07:06:16.092Z</time></trkpt><trkpt lat="42.4250248" lon="14.1161921"><ele>44.0</ele><time>2026-05-02T07:06:17.091Z</time></trkpt><trkpt lat="42.4250184" lon="14.1159322"><ele>44.0</ele><time>2026-05-02T07:06:18.092Z</time></trkpt><trkpt lat="42.4250083" lon="14.1156732"><ele>44.33333333333333</ele><time>2026-05-02T07:06:19.09Z</time></trkpt><trkpt lat="42.4250045" lon="14.1153842"><ele>44.666666666666664</ele><time>2026-05-02T07:06:20.091Z</time></trkpt><trkpt lat="42.4249754" lon="14.1150913"><ele>45.0</ele><time>2026-05-02T07:06:21.094Z</time></trkpt><trkpt lat="42.4249393" lon="14.1148244"><ele>46.0</ele><time>2026-05-02T07:06:22.091Z</time></trkpt><trkpt lat="42.4249135" lon="14.1145634"><ele>47.0</ele><time>2026-05-02T07:06:23.09Z</time></trkpt><trkpt lat="42.4248806" lon="14.1143106"><ele>48.0</ele><time>2026-05-02T07:06:24.091Z</time></trkpt><trkpt lat="42.4248781" lon="14.1140804"><ele>48.66666666666667</ele><time>2026-05-02T07:06:25.093Z</time></trkpt><trkpt lat="42.4248725" lon="14.1138538"><ele>49.333333333333336</ele><time>2026-05-02T07:06:26.095Z</time></trkpt><trkpt lat="42.4248551" lon="14.1136196"><ele>50.0</ele><time>2026-05-02T07:06:27.094Z</time></trkpt><trkpt lat="42.4248453" lon="14.113416"><ele>50.5</ele><time>2026-05-02T07:06:28.097Z</time></trkpt><trkpt lat="42.424828" lon="14.1132127"><ele>51.0</ele><time>2026-05-02T07:06:29.092Z</time></trkpt><trkpt lat="42.4248063" lon="14.1130239"><ele>51.5</ele><time>2026-05-02T07:06:30.093Z</time></trkpt><trkpt lat="42.4248062" lon="14.1128495"><ele>52.0</ele><time>2026-05-02T07:06:31.099Z</time></trkpt><trkpt lat="42.4248241" lon="14.1126939"><ele>52.0</ele><time>2026-05-02T07:06:32.092Z</time></trkpt><trkpt lat="42.4248451" lon="14.112522"><ele>52.0</ele><time>2026-05-02T07:06:33.096Z</time></trkpt><trkpt lat="42.4248855" lon="14.1123829"><ele>52.0</ele><time>2026-05-02T07:06:34.102Z</time></trkpt><trkpt lat="42.4249452" lon="14.1122517"><ele>52.0</ele><time>2026-05-02T07:06:35.098Z</time></trkpt><trkpt lat="42.4249814" lon="14.1121112"><ele>51.33333333333333</ele><time>2026-05-02T07:06:36.095Z</time></trkpt><trkpt lat="42.4250164" lon="14.111993"><ele>50.666666666666664</ele><time>2026-05-02T07:06:37.087Z</time></trkpt><trkpt lat="42.4250498" lon="14.1118769"><ele>50.0</ele><time>2026-05-02T07:06:38.096Z</time></trkpt><trkpt lat="42.4250804" lon="14.1117662"><ele>49.33333333333333</ele><time>2026-05-02T07:06:39.095Z</time></trkpt><trkpt lat="42.4251155" lon="14.1116607"><ele>48.666666666666664</ele><time>2026-05-02T07:06:40.088Z</time></trkpt><trkpt lat="42.4251405" lon="14.1115674"><ele>48.0</ele><time>2026-05-02T07:06:41.09Z</time></trkpt><trkpt lat="42.4251658" lon="14.1114793"><ele>48.0</ele><time>2026-05-02T07:06:42.092Z</time></trkpt><trkpt lat="42.4252074" lon="14.1113628"><ele>48.0</ele><time>2026-05-02T07:06:44.087Z</time></trkpt><trkpt lat="42.4251173" lon="14.1113883"><ele>48.0</ele><time>2026-05-02T07:06:47.1Z</time></trkpt><trkpt lat="42.4250561" lon="14.1114513"><ele>48.0</ele><time>2026-05-02T07:06:48.085Z</time></trkpt><trkpt lat="42.4249663" lon="14.1115222"><ele>48.0</ele><time>2026-05-02T07:06:49.088Z</time></trkpt><trkpt lat="42.4248652" lon="14.1116018"><ele>48.0</ele><time>2026-05-02T07:06:50.084Z</time></trkpt><trkpt lat="42.4247564" lon="14.1116708"><ele>48.0</ele><time>2026-05-02T07:06:51.091Z</time></trkpt><trkpt lat="42.4246442" lon="14.1117295"><ele>48.0</ele><time>2026-05-02T07:06:52.093Z</time></trkpt><trkpt lat="42.4245292" lon="14.1117801"><ele>48.0</ele><time>2026-05-02T07:06:53.09Z</time></trkpt><trkpt lat="42.4244169" lon="14.1118127"><ele>46.8</ele><time>2026-05-02T07:06:54.091Z</time></trkpt><trkpt lat="42.4243042" lon="14.1118342"><ele>45.599999999999994</ele><time>2026-05-02T07:06:55.088Z</time></trkpt><trkpt lat="42.4241972" lon="14.111845"><ele>44.400000000000006</ele><time>2026-05-02T07:06:56.09Z</time></trkpt><trkpt lat="42.4240991" lon="14.1118595"><ele>43.2</ele><time>2026-05-02T07:06:57.088Z</time></trkpt><trkpt lat="42.4240105" lon="14.1118833"><ele>42.0</ele><time>2026-05-02T07:06:58.098Z</time></trkpt><trkpt lat="42.4239214" lon="14.1119142"><ele>42.0</ele><time>2026-05-02T07:06:59.091Z</time></trkpt><trkpt lat="42.4238322" lon="14.1119443"><ele>42.0</ele><time>2026-05-02T07:07:00.087Z</time></trkpt><trkpt lat="42.4237371" lon="14.1119593"><ele>42.0</ele><time>2026-05-02T07:07:01.089Z</time></trkpt><trkpt lat="42.4236426" lon="14.1119635"><ele>42.0</ele><time>2026-05-02T07:07:02.098Z</time></trkpt><trkpt lat="42.4235437" lon="14.1119609"><ele>42.0</ele><time>2026-05-02T07:07:03.093Z</time></trkpt><trkpt lat="42.4234378" lon="14.1119559"><ele>40.75</ele><time>2026-05-02T07:07:04.086Z</time></trkpt><trkpt lat="42.4233297" lon="14.1119764"><ele>39.5</ele><time>2026-05-02T07:07:05.09Z</time></trkpt><trkpt lat="42.4232217" lon="14.1120332"><ele>38.25</ele><time>2026-05-02T07:07:06.087Z</time></trkpt><trkpt lat="42.423115" lon="14.1121336"><ele>37.0</ele><time>2026-05-02T07:07:07.08Z</time></trkpt><trkpt lat="42.4230249" lon="14.1122355"><ele>38.400000000000006</ele><time>2026-05-02T07:07:08.081Z</time></trkpt><trkpt lat="42.4229485" lon="14.1123347"><ele>39.800000000000004</ele><time>2026-05-02T07:07:09.08Z</time></trkpt><trkpt lat="42.4228828" lon="14.1124306"><ele>41.2</ele><time>2026-05-02T07:07:10.082Z</time></trkpt><trkpt lat="42.4228131" lon="14.1125241"><ele>42.6</ele><time>2026-05-02T07:07:11.081Z</time></trkpt><trkpt lat="42.4227353" lon="14.112621"><ele>44.0</ele><time>2026-05-02T07:07:12.091Z</time></trkpt><trkpt lat="42.422647" lon="14.1127202"><ele>44.0</ele><time>2026-05-02T07:07:13.083Z</time></trkpt><trkpt lat="42.4225422" lon="14.1128197"><ele>44.0</ele><time>2026-05-02T07:07:14.089Z</time></trkpt><trkpt lat="42.4224295" lon="14.1129256"><ele>44.0</ele><time>2026-05-02T07:07:15.083Z</time></trkpt><trkpt lat="42.4222905" lon="14.113051"><ele>44.0</ele><time>2026-05-02T07:07:16.086Z</time></trkpt><trkpt lat="42.4221589" lon="14.1131687"><ele>45.25</ele><time>2026-05-02T07:07:17.082Z</time></trkpt><trkpt lat="42.4220509" lon="14.1132778"><ele>46.5</ele><time>2026-05-02T07:07:18.083Z</time></trkpt><trkpt lat="42.4219492" lon="14.1133757"><ele>47.75</ele><time>2026-05-02T07:07:19.079Z</time></trkpt><trkpt lat="42.4218496" lon="14.1134442"><ele>49.0</ele><time>2026-05-02T07:07:20.081Z</time></trkpt><trkpt lat="42.4217443" lon="14.1134905"><ele>49.0</ele><time>2026-05-02T07:07:21.08Z</time></trkpt><trkpt lat="42.4216247" lon="14.1135094"><ele>49.0</ele><time>2026-05-02T07:07:22.087Z</time></trkpt><trkpt lat="42.421498" lon="14.1135591"><ele>49.0</ele><time>2026-05-02T07:07:23.082Z</time></trkpt><trkpt lat="42.4213646" lon="14.1136142"><ele>49.0</ele><time>2026-05-02T07:07:24.078Z</time></trkpt><trkpt lat="42.4212306" lon="14.1136669"><ele>50.0</ele><time>2026-05-02T07:07:25.081Z</time></trkpt><trkpt lat="42.4211146" lon="14.1137507"><ele>51.0</ele><time>2026-05-02T07:07:26.08Z</time></trkpt><trkpt lat="42.4209797" lon="14.1138387"><ele>52.0</ele><time>2026-05-02T07:07:27.082Z</time></trkpt><trkpt lat="42.4208505" lon="14.1139274"><ele>53.0</ele><time>2026-05-02T07:07:28.081Z</time></trkpt><trkpt lat="42.4207373" lon="14.1140095"><ele>55.5</ele><time>2026-05-02T07:07:29.076Z</time></trkpt><trkpt lat="42.4206654" lon="14.1140767"><ele>58.0</ele><time>2026-05-02T07:07:30.085Z</time></trkpt><trkpt lat="42.4205632" lon="14.1141294"><ele>60.5</ele><time>2026-05-02T07:07:31.083Z</time></trkpt><trkpt lat="42.4204713" lon="14.1142411"><ele>63.0</ele><time>2026-05-02T07:07:32.085Z</time></trkpt><trkpt lat="42.4203838" lon="14.1143733"><ele>63.0</ele><time>2026-05-02T07:07:33.082Z</time></trkpt><trkpt lat="42.4202854" lon="14.1145173"><ele>63.0</ele><time>2026-05-02T07:07:34.08Z</time></trkpt><trkpt lat="42.4201737" lon="14.1146514"><ele>63.0</ele><time>2026-05-02T07:07:35.075Z</time></trkpt><trkpt lat="42.4200654" lon="14.1147533"><ele>63.0</ele><time>2026-05-02T07:07:36.089Z</time></trkpt><trkpt lat="42.4199492" lon="14.1148255"><ele>63.0</ele><time>2026-05-02T07:07:37.083Z</time></trkpt><trkpt lat="42.41985" lon="14.1148978"><ele>63.0</ele><time>2026-05-02T07:07:38.091Z</time></trkpt><trkpt lat="42.4197483" lon="14.1149594"><ele>63.0</ele><time>2026-05-02T07:07:39.085Z</time></trkpt><trkpt lat="42.419643" lon="14.1150291"><ele>63.0</ele><time>2026-05-02T07:07:40.087Z</time></trkpt><trkpt lat="42.4195386" lon="14.1151144"><ele>67.25</ele><time>2026-05-02T07:07:41.089Z</time></trkpt><trkpt lat="42.4194424" lon="14.1152296"><ele>71.5</ele><time>2026-05-02T07:07:42.089Z</time></trkpt><trkpt lat="42.4193518" lon="14.115362"><ele>75.75</ele><time>2026-05-02T07:07:43.092Z</time></trkpt><trkpt lat="42.4192525" lon="14.1154832"><ele>80.0</ele><time>2026-05-02T07:07:44.084Z</time></trkpt><trkpt lat="42.4191432" lon="14.1155829"><ele>80.0</ele><time>2026-05-02T07:07:45.078Z</time></trkpt><trkpt lat="42.4190439" lon="14.1156693"><ele>80.0</ele><time>2026-05-02T07:07:46.082Z</time></trkpt><trkpt lat="42.4189612" lon="14.1157534"><ele>80.0</ele><time>2026-05-02T07:07:47.086Z</time></trkpt><trkpt lat="42.4189066" lon="14.1158328"><ele>80.0</ele><time>2026-05-02T07:07:48.085Z</time></trkpt><trkpt lat="42.4188325" lon="14.115937"><ele>80.0</ele><time>2026-05-02T07:07:50.084Z</time></trkpt><trkpt lat="42.4187587" lon="14.1159409"><ele>82.75</ele><time>2026-05-02T07:07:53.084Z</time></trkpt><trkpt lat="42.4186718" lon="14.1158204"><ele>85.5</ele><time>2026-05-02T07:07:55.09Z</time></trkpt><trkpt lat="42.4185963" lon="14.1157359"><ele>88.25</ele><time>2026-05-02T07:07:56.096Z</time></trkpt><trkpt lat="42.4185012" lon="14.1156523"><ele>91.0</ele><time>2026-05-02T07:07:57.102Z</time></trkpt><trkpt lat="42.4183954" lon="14.1155692"><ele>92.75</ele><time>2026-05-02T07:07:58.091Z</time></trkpt><trkpt lat="42.4182818" lon="14.1154907"><ele>94.5</ele><time>2026-05-02T07:07:59.097Z</time></trkpt><trkpt lat="42.4181717" lon="14.1154284"><ele>96.25</ele><time>2026-05-02T07:08:00.099Z</time></trkpt><trkpt lat="42.418061" lon="14.1153646"><ele>98.0</ele><time>2026-05-02T07:08:01.092Z</time></trkpt><trkpt lat="42.4179462" lon="14.115303"><ele>100.0</ele><time>2026-05-02T07:08:02.095Z</time></trkpt><trkpt lat="42.4178249" lon="14.1152484"><ele>102.0</ele><time>2026-05-02T07:08:03.085Z</time></trkpt><trkpt lat="42.4177009" lon="14.1152105"><ele>104.0</ele><time>2026-05-02T07:08:04.087Z</time></trkpt><trkpt lat="42.4175795" lon="14.1151711"><ele>106.0</ele><time>2026-05-02T07:08:05.087Z</time></trkpt><trkpt lat="42.4174717" lon="14.1151352"><ele>106.0</ele><time>2026-05-02T07:08:06.084Z</time></trkpt><trkpt lat="42.4173716" lon="14.1151127"><ele>106.0</ele><time>2026-05-02T07:08:07.089Z</time></trkpt><trkpt lat="42.4172648" lon="14.1150868"><ele>106.0</ele><time>2026-05-02T07:08:08.083Z</time></trkpt><trkpt lat="42.4171503" lon="14.1150745"><ele>106.0</ele><time>2026-05-02T07:08:09.085Z</time></trkpt><trkpt lat="42.4170345" lon="14.1150679"><ele>106.0</ele><time>2026-05-02T07:08:10.087Z</time></trkpt><trkpt lat="42.4169177" lon="14.1150624"><ele>107.25</ele><time>2026-05-02T07:08:11.084Z</time></trkpt><trkpt lat="42.4168006" lon="14.1150653"><ele>108.5</ele><time>2026-05-02T07:08:12.091Z</time></trkpt><trkpt lat="42.416681" lon="14.1150783"><ele>109.75</ele><time>2026-05-02T07:08:13.09Z</time></trkpt><trkpt lat="42.4165537" lon="14.1151128"><ele>111.0</ele><time>2026-05-02T07:08:14.098Z</time></trkpt><trkpt lat="42.4164266" lon="14.1151409"><ele>112.25</ele><time>2026-05-02T07:08:15.088Z</time></trkpt><trkpt lat="42.4162931" lon="14.1151637"><ele>113.5</ele><time>2026-05-02T07:08:16.091Z</time></trkpt><trkpt lat="42.4161583" lon="14.1151762"><ele>114.75</ele><time>2026-05-02T07:08:17.093Z</time></trkpt><trkpt lat="42.416026" lon="14.1152122"><ele>116.0</ele><time>2026-05-02T07:08:18.097Z</time></trkpt><trkpt lat="42.4159021" lon="14.1152201"><ele>116.0</ele><time>2026-05-02T07:08:19.089Z</time></trkpt><trkpt lat="42.4157608" lon="14.115234"><ele>116.0</ele><time>2026-05-02T07:08:20.092Z</time></trkpt><trkpt lat="42.4156444" lon="14.1152705"><ele>116.0</ele><time>2026-05-02T07:08:21.097Z</time></trkpt><trkpt lat="42.415555" lon="14.1153155"><ele>116.0</ele><time>2026-05-02T07:08:22.097Z</time></trkpt><trkpt lat="42.4154715" lon="14.1153317"><ele>116.0</ele><time>2026-05-02T07:08:23.095Z</time></trkpt><trkpt lat="42.4153958" lon="14.1153403"><ele>115.99999999999999</ele><time>2026-05-02T07:08:24.103Z</time></trkpt><trkpt lat="42.4152986" lon="14.1153562"><ele>116.0</ele><time>2026-05-02T07:08:26.1Z</time></trkpt><trkpt lat="42.4152218" lon="14.1154021"><ele>116.0</ele><time>2026-05-02T07:08:29.1Z</time></trkpt><trkpt lat="42.4151738" lon="14.1154628"><ele>116.0</ele><time>2026-05-02T07:08:30.1Z</time></trkpt><trkpt lat="42.4151157" lon="14.115554"><ele>115.99999999999999</ele><time>2026-05-02T07:08:31.092Z</time></trkpt><trkpt lat="42.4150445" lon="14.1156541"><ele>116.0</ele><time>2026-05-02T07:08:32.093Z</time></trkpt><trkpt lat="42.4149691" lon="14.115764"><ele>116.0</ele><time>2026-05-02T07:08:33.089Z</time></trkpt><trkpt lat="42.4148838" lon="14.1158778"><ele>116.0</ele><time>2026-05-02T07:08:34.093Z</time></trkpt><trkpt lat="42.4147956" lon="14.1159851"><ele>116.0</ele><time>2026-05-02T07:08:35.09Z</time></trkpt><trkpt lat="42.4146991" lon="14.1160889"><ele>116.0</ele><time>2026-05-02T07:08:36.095Z</time></trkpt><trkpt lat="42.4145881" lon="14.1161952"><ele>114.75</ele><time>2026-05-02T07:08:37.094Z</time></trkpt><trkpt lat="42.4144673" lon="14.1162977"><ele>113.5</ele><time>2026-05-02T07:08:38.096Z</time></trkpt><trkpt lat="42.4143276" lon="14.1163869"><ele>112.25</ele><time>2026-05-02T07:08:39.094Z</time></trkpt><trkpt lat="42.4141978" lon="14.1164828"><ele>111.0</ele><time>2026-05-02T07:08:40.101Z</time></trkpt><trkpt lat="42.4140797" lon="14.1165606"><ele>110.75</ele><time>2026-05-02T07:08:41.091Z</time></trkpt><trkpt lat="42.4139631" lon="14.1166228"><ele>110.5</ele><time>2026-05-02T07:08:42.094Z</time></trkpt><trkpt lat="42.4138614" lon="14.1167023"><ele>110.25</ele><time>2026-05-02T07:08:43.088Z</time></trkpt><trkpt lat="42.413753" lon="14.1167678"><ele>110.0</ele><time>2026-05-02T07:08:44.096Z</time></trkpt><trkpt lat="42.4136621" lon="14.1168696"><ele>109.75</ele><time>2026-05-02T07:08:45.092Z</time></trkpt><trkpt lat="42.4135755" lon="14.1170113"><ele>109.5</ele><time>2026-05-02T07:08:46.087Z</time></trkpt><trkpt lat="42.413483" lon="14.1171568"><ele>109.25</ele><time>2026-05-02T07:08:47.094Z</time></trkpt><trkpt lat="42.4133887" lon="14.1173165"><ele>109.0</ele><time>2026-05-02T07:08:48.093Z</time></trkpt><trkpt lat="42.4133015" lon="14.1174998"><ele>109.0</ele><time>2026-05-02T07:08:49.093Z</time></trkpt><trkpt lat="42.4132054" lon="14.1176475"><ele>109.0</ele><time>2026-05-02T07:08:50.096Z</time></trkpt><trkpt lat="42.413128" lon="14.1177883"><ele>109.0</ele><time>2026-05-02T07:08:51.098Z</time></trkpt><trkpt lat="42.4130594" lon="14.1179198"><ele>109.0</ele><time>2026-05-02T07:08:52.098Z</time></trkpt><trkpt lat="42.4129858" lon="14.1180536"><ele>108.5</ele><time>2026-05-02T07:08:53.104Z</time></trkpt><trkpt lat="42.4129107" lon="14.1181827"><ele>108.0</ele><time>2026-05-02T07:08:54.098Z</time></trkpt><trkpt lat="42.4128175" lon="14.1183164"><ele>107.5</ele><time>2026-05-02T07:08:55.099Z</time></trkpt><trkpt lat="42.4127169" lon="14.1184445"><ele>107.0</ele><time>2026-05-02T07:08:56.097Z</time></trkpt><trkpt lat="42.4126067" lon="14.1185581"><ele>107.0</ele><time>2026-05-02T07:08:57.096Z</time></trkpt><trkpt lat="42.4124864" lon="14.1186613"><ele>107.0</ele><time>2026-05-02T07:08:58.094Z</time></trkpt><trkpt lat="42.412354" lon="14.1187479"><ele>107.0</ele><time>2026-05-02T07:08:59.097Z</time></trkpt><trkpt lat="42.4122105" lon="14.1188303"><ele>107.0</ele><time>2026-05-02T07:09:00.096Z</time></trkpt><trkpt lat="42.4120895" lon="14.1189161"><ele>105.75</ele><time>2026-05-02T07:09:01.096Z</time></trkpt><trkpt lat="42.4119674" lon="14.1190057"><ele>104.5</ele><time>2026-05-02T07:09:02.098Z</time></trkpt><trkpt lat="42.4118325" lon="14.119097"><ele>103.25</ele><time>2026-05-02T07:09:03.096Z</time></trkpt><trkpt lat="42.4116994" lon="14.1191754"><ele>102.0</ele><time>2026-05-02T07:09:04.096Z</time></trkpt><trkpt lat="42.4115882" lon="14.1192349"><ele>102.0</ele><time>2026-05-02T07:09:05.093Z</time></trkpt><trkpt lat="42.4114914" lon="14.1192949"><ele>102.0</ele><time>2026-05-02T07:09:06.091Z</time></trkpt><trkpt lat="42.4114132" lon="14.1193423"><ele>102.0</ele><time>2026-05-02T07:09:07.086Z</time></trkpt><trkpt lat="42.4113514" lon="14.1193851"><ele>102.0</ele><time>2026-05-02T07:09:08.095Z</time></trkpt><trkpt lat="42.4112945" lon="14.1194307"><ele>102.0</ele><time>2026-05-02T07:09:09.098Z</time></trkpt><trkpt lat="42.4112209" lon="14.1194688"><ele>102.0</ele><time>2026-05-02T07:09:10.094Z</time></trkpt><trkpt lat="42.411151" lon="14.1195294"><ele>102.19999999999999</ele><time>2026-05-02T07:09:11.098Z</time></trkpt><trkpt lat="42.4110752" lon="14.1195863"><ele>102.4</ele><time>2026-05-02T07:09:12.098Z</time></trkpt><trkpt lat="42.4109983" lon="14.1196591"><ele>102.6</ele><time>2026-05-02T07:09:13.094Z</time></trkpt><trkpt lat="42.4109207" lon="14.1197401"><ele>102.80000000000001</ele><time>2026-05-02T07:09:14.099Z</time></trkpt><trkpt lat="42.4108441" lon="14.1198127"><ele>103.0</ele><time>2026-05-02T07:09:15.095Z</time></trkpt><trkpt lat="42.4107777" lon="14.1198782"><ele>102.16666666666667</ele><time>2026-05-02T07:09:16.097Z</time></trkpt><trkpt lat="42.4106915" lon="14.119952"><ele>101.33333333333334</ele><time>2026-05-02T07:09:18.094Z</time></trkpt><trkpt lat="42.4106178" lon="14.1199882"><ele>100.5</ele><time>2026-05-02T07:09:21.099Z</time></trkpt><trkpt lat="42.4105431" lon="14.1199807"><ele>99.66666666666666</ele><time>2026-05-02T07:09:24.09Z</time></trkpt><trkpt lat="42.4104924" lon="14.1199271"><ele>98.83333333333333</ele><time>2026-05-02T07:09:26.089Z</time></trkpt><trkpt lat="42.4104148" lon="14.1198513"><ele>98.0</ele><time>2026-05-02T07:09:28.089Z</time></trkpt><trkpt lat="42.4103347" lon="14.1197502"><ele>97.2</ele><time>2026-05-02T07:09:30.093Z</time></trkpt><trkpt lat="42.4102788" lon="14.1196237"><ele>96.4</ele><time>2026-05-02T07:09:32.086Z</time></trkpt><trkpt lat="42.410235" lon="14.1195165"><ele>95.60000000000001</ele><time>2026-05-02T07:09:34.084Z</time></trkpt><trkpt lat="42.4101762" lon="14.1193963"><ele>94.80000000000001</ele><time>2026-05-02T07:09:36.076Z</time></trkpt><trkpt lat="42.4101338" lon="14.1193243"><ele>94.0</ele><time>2026-05-02T07:09:37.078Z</time></trkpt><trkpt lat="42.41006" lon="14.119209"><ele>94.0</ele><time>2026-05-02T07:09:39.087Z</time></trkpt><trkpt lat="42.410008" lon="14.1191479"><ele>94.0</ele><time>2026-05-02T07:09:40.08Z</time></trkpt><trkpt lat="42.4099603" lon="14.1190878"><ele>94.0</ele><time>2026-05-02T07:09:41.085Z</time></trkpt><trkpt lat="42.4099095" lon="14.1190344"><ele>94.0</ele><time>2026-05-02T07:09:42.087Z</time></trkpt><trkpt lat="42.4098521" lon="14.1189857"><ele>94.0</ele><time>2026-05-02T07:09:43.081Z</time></trkpt><trkpt lat="42.4097387" lon="14.1189215"><ele>94.0</ele><time>2026-05-02T07:09:45.093Z</time></trkpt><trkpt lat="42.4096275" lon="14.1188415"><ele>92.33333333333333</ele><time>2026-05-02T07:09:47.093Z</time></trkpt><trkpt lat="42.4095722" lon="14.1187924"><ele>90.66666666666666</ele><time>2026-05-02T07:09:48.088Z</time></trkpt><trkpt lat="42.4095097" lon="14.118742"><ele>89.0</ele><time>2026-05-02T07:09:49.091Z</time></trkpt><trkpt lat="42.4094369" lon="14.1186949"><ele>87.33333333333333</ele><time>2026-05-02T07:09:50.091Z</time></trkpt><trkpt lat="42.4093586" lon="14.1186491"><ele>85.66666666666667</ele><time>2026-05-02T07:09:51.089Z</time></trkpt><trkpt lat="42.4092886" lon="14.1186027"><ele>84.0</ele><time>2026-05-02T07:09:52.089Z</time></trkpt><trkpt lat="42.4092221" lon="14.1185648"><ele>84.0</ele><time>2026-05-02T07:09:53.081Z</time></trkpt><trkpt lat="42.4091669" lon="14.1185111"><ele>84.0</ele><time>2026-05-02T07:09:54.087Z</time></trkpt><trkpt lat="42.4090807" lon="14.1183999"><ele>84.0</ele><time>2026-05-02T07:09:56.084Z</time></trkpt><trkpt lat="42.4089926" lon="14.1183"><ele>84.0</ele><time>2026-05-02T07:09:58.09Z</time></trkpt><trkpt lat="42.4089454" lon="14.1182354"><ele>84.0</ele><time>2026-05-02T07:09:59.081Z</time></trkpt><trkpt lat="42.4088969" lon="14.1181493"><ele>84.0</ele><time>2026-05-02T07:10:00.078Z</time></trkpt><trkpt lat="42.4088515" lon="14.1180446"><ele>82.66666666666667</ele><time>2026-05-02T07:10:01.078Z</time></trkpt><trkpt lat="42.4088063" lon="14.1179363"><ele>81.33333333333333</ele><time>2026-05-02T07:10:02.087Z</time></trkpt><trkpt lat="42.4087676" lon="14.1178341"><ele>80.0</ele><time>2026-05-02T07:10:03.081Z</time></trkpt><trkpt lat="42.4087312" lon="14.1177289"><ele>78.66666666666666</ele><time>2026-05-02T07:10:04.081Z</time></trkpt><trkpt lat="42.4086939" lon="14.1176229"><ele>77.33333333333333</ele><time>2026-05-02T07:10:05.087Z</time></trkpt><trkpt lat="42.4086689" lon="14.1175334"><ele>76.0</ele><time>2026-05-02T07:10:06.084Z</time></trkpt><trkpt lat="42.4086446" lon="14.1174527"><ele>76.83333333333333</ele><time>2026-05-02T07:10:07.09Z</time></trkpt><trkpt lat="42.4086202" lon="14.1173412"><ele>77.66666666666666</ele><time>2026-05-02T07:10:09.083Z</time></trkpt><trkpt lat="42.4085998" lon="14.1172547"><ele>78.5</ele><time>2026-05-02T07:10:11.086Z</time></trkpt><trkpt lat="42.4085594" lon="14.117176"><ele>79.33333333333333</ele><time>2026-05-02T07:10:13.077Z</time></trkpt><trkpt lat="42.4085048" lon="14.1171253"><ele>80.16666666666667</ele><time>2026-05-02T07:10:14.089Z</time></trkpt><trkpt lat="42.4084341" lon="14.1170635"><ele>81.0</ele><time>2026-05-02T07:10:15.09Z</time></trkpt><trkpt lat="42.4083572" lon="14.1169869"><ele>81.0</ele><time>2026-05-02T07:10:16.09Z</time></trkpt><trkpt lat="42.4082815" lon="14.1168893"><ele>81.0</ele><time>2026-05-02T07:10:17.098Z</time></trkpt><trkpt lat="42.4082082" lon="14.1167999"><ele>81.0</ele><time>2026-05-02T07:10:18.094Z</time></trkpt><trkpt lat="42.4081315" lon="14.1167226"><ele>81.0</ele><time>2026-05-02T07:10:19.092Z</time></trkpt><trkpt lat="42.4080543" lon="14.1166697"><ele>81.0</ele><time>2026-05-02T07:10:20.08Z</time></trkpt><trkpt lat="42.4079694" lon="14.1166394"><ele>82.83333333333333</ele><time>2026-05-02T07:10:21.085Z</time></trkpt><trkpt lat="42.4078928" lon="14.1166143"><ele>84.66666666666667</ele><time>2026-05-02T07:10:22.091Z</time></trkpt><trkpt lat="42.4078165" lon="14.1165787"><ele>86.5</ele><time>2026-05-02T07:10:23.086Z</time></trkpt><trkpt lat="42.4077312" lon="14.1165349"><ele>88.33333333333334</ele><time>2026-05-02T07:10:24.083Z</time></trkpt><trkpt lat="42.4076441" lon="14.1164998"><ele>90.16666666666667</ele><time>2026-05-02T07:10:25.084Z</time></trkpt><trkpt lat="42.4075504" lon="14.1164653"><ele>92.0</ele><time>2026-05-02T07:10:26.083Z</time></trkpt><trkpt lat="42.4074565" lon="14.1164395"><ele>92.5</ele><time>2026-05-02T07:10:27.085Z</time></trkpt><trkpt lat="42.4073671" lon="14.1164146"><ele>93.0</ele><time>2026-05-02T07:10:28.087Z</time></trkpt><trkpt lat="42.4072773" lon="14.1163869"><ele>93.5</ele><time>2026-05-02T07:10:29.092Z</time></trkpt><trkpt lat="42.4071885" lon="14.1163569"><ele>94.0</ele><time>2026-05-02T07:10:30.096Z</time></trkpt><trkpt lat="42.4071038" lon="14.11633"><ele>94.5</ele><time>2026-05-02T07:10:31.099Z</time></trkpt><trkpt lat="42.4070242" lon="14.1163056"><ele>95.0</ele><time>2026-05-02T07:10:32.1Z</time></trkpt><trkpt lat="42.4069497" lon="14.1162686"><ele>96.6</ele><time>2026-05-02T07:10:33.092Z</time></trkpt><trkpt lat="42.4068759" lon="14.1162143"><ele>98.2</ele><time>2026-05-02T07:10:34.092Z</time></trkpt><trkpt lat="42.4067961" lon="14.1161425"><ele>99.80000000000001</ele><time>2026-05-02T07:10:35.097Z</time></trkpt><trkpt lat="42.4067035" lon="14.1160627"><ele>101.4</ele><time>2026-05-02T07:10:36.105Z</time></trkpt><trkpt lat="42.4066065" lon="14.1159795"><ele>103.0</ele><time>2026-05-02T07:10:37.101Z</time></trkpt><trkpt lat="42.4065015" lon="14.1158982"><ele>103.0</ele><time>2026-05-02T07:10:38.098Z</time></trkpt><trkpt lat="42.4064048" lon="14.1158295"><ele>103.0</ele><time>2026-05-02T07:10:39.095Z</time></trkpt><trkpt lat="42.4063116" lon="14.1157694"><ele>103.0</ele><time>2026-05-02T07:10:40.101Z</time></trkpt><trkpt lat="42.4062125" lon="14.1157045"><ele>103.0</ele><time>2026-05-02T07:10:41.097Z</time></trkpt><trkpt lat="42.4061174" lon="14.1156427"><ele>103.0</ele><time>2026-05-02T07:10:42.097Z</time></trkpt><trkpt lat="42.406034" lon="14.1155794"><ele>104.00000000000001</ele><time>2026-05-02T07:10:43.099Z</time></trkpt><trkpt lat="42.4059552" lon="14.1155189"><ele>105.0</ele><time>2026-05-02T07:10:44.093Z</time></trkpt><trkpt lat="42.405893" lon="14.1154691"><ele>106.0</ele><time>2026-05-02T07:10:45.093Z</time></trkpt><trkpt lat="42.4058362" lon="14.1154268"><ele>107.0</ele><time>2026-05-02T07:10:46.087Z</time></trkpt><trkpt lat="42.4057464" lon="14.1153915"><ele>108.00000000000001</ele><time>2026-05-02T07:10:48.099Z</time></trkpt><trkpt lat="42.4056804" lon="14.1154001"><ele>109.0</ele><time>2026-05-02T07:10:49.086Z</time></trkpt><trkpt lat="42.4055902" lon="14.1154229"><ele>107.6</ele><time>2026-05-02T07:10:50.092Z</time></trkpt><trkpt lat="42.405491" lon="14.1154505"><ele>106.2</ele><time>2026-05-02T07:10:51.098Z</time></trkpt><trkpt lat="42.4053939" lon="14.1154571"><ele>104.8</ele><time>2026-05-02T07:10:52.103Z</time></trkpt><trkpt lat="42.4053025" lon="14.1154567"><ele>103.39999999999999</ele><time>2026-05-02T07:10:53.095Z</time></trkpt><trkpt lat="42.4052177" lon="14.1154549"><ele>102.0</ele><time>2026-05-02T07:10:54.099Z</time></trkpt><trkpt lat="42.4051411" lon="14.1154483"><ele>102.0</ele><time>2026-05-02T07:10:55.101Z</time></trkpt><trkpt lat="42.4050715" lon="14.1154424"><ele>102.0</ele><time>2026-05-02T07:10:56.099Z</time></trkpt><trkpt lat="42.4050078" lon="14.1154295"><ele>102.0</ele><time>2026-05-02T07:10:57.103Z</time></trkpt><trkpt lat="42.404927" lon="14.1154134"><ele>102.0</ele><time>2026-05-02T07:10:59.097Z</time></trkpt><trkpt lat="42.4048627" lon="14.1153639"><ele>102.0</ele><time>2026-05-02T07:11:02.094Z</time></trkpt><trkpt lat="42.4047807" lon="14.1153032"><ele>102.0</ele><time>2026-05-02T07:11:05.096Z</time></trkpt><trkpt lat="42.4046972" lon="14.1152392"><ele>102.0</ele><time>2026-05-02T07:11:07.098Z</time></trkpt><trkpt lat="42.4046396" lon="14.1151967"><ele>102.0</ele><time>2026-05-02T07:11:09.089Z</time></trkpt><trkpt lat="42.4046717" lon="14.1152732"><ele>102.0</ele><time>2026-05-02T07:11:16.098Z</time></trkpt><trkpt lat="42.4047944" lon="14.1153451"><ele>102.0</ele><time>2026-05-02T07:11:19.086Z</time></trkpt><trkpt lat="42.4048745" lon="14.1153954"><ele>102.0</ele><time>2026-05-02T07:11:20.096Z</time></trkpt><trkpt lat="42.4049629" lon="14.1154456"><ele>102.0</ele><time>2026-05-02T07:11:21.094Z</time></trkpt><trkpt lat="42.4050518" lon="14.1154764"><ele>102.0</ele><time>2026-05-02T07:11:22.098Z</time></trkpt><trkpt lat="42.4051465" lon="14.1154901"><ele>102.0</ele><time>2026-05-02T07:11:23.096Z</time></trkpt><trkpt lat="42.4052351" lon="14.1155003"><ele>102.0</ele><time>2026-05-02T07:11:24.099Z</time></trkpt><trkpt lat="42.4053136" lon="14.115506"><ele>102.0</ele><time>2026-05-02T07:11:25.098Z</time></trkpt><trkpt lat="42.4053792" lon="14.1155124"><ele>102.0</ele><time>2026-05-02T07:11:26.098Z</time></trkpt><trkpt lat="42.4054734" lon="14.1155271"><ele>102.0</ele><time>2026-05-02T07:11:28.097Z</time></trkpt><trkpt lat="42.4054603" lon="14.1156118"><ele>102.0</ele><time>2026-05-02T07:11:36.094Z</time></trkpt><trkpt lat="42.4053938" lon="14.1157655"><ele>102.0</ele><time>2026-05-02T07:11:38.089Z</time></trkpt><trkpt lat="42.4053593" lon="14.1158626"><ele>102.0</ele><time>2026-05-02T07:11:39.079Z</time></trkpt><trkpt lat="42.4053125" lon="14.1159685"><ele>102.0</ele><time>2026-05-02T07:11:40.081Z</time></trkpt><trkpt lat="42.4052534" lon="14.1160798"><ele>102.0</ele><time>2026-05-02T07:11:41.089Z</time></trkpt><trkpt lat="42.4051727" lon="14.1161944"><ele>102.0</ele><time>2026-05-02T07:11:42.079Z</time></trkpt><trkpt lat="42.4050863" lon="14.1163051"><ele>102.0</ele><time>2026-05-02T07:11:43.089Z</time></trkpt><trkpt lat="42.4050025" lon="14.1164203"><ele>102.0</ele><time>2026-05-02T07:11:44.088Z</time></trkpt><trkpt lat="42.404921" lon="14.1165279"><ele>102.0</ele><time>2026-05-02T07:11:45.087Z</time></trkpt><trkpt lat="42.4048455" lon="14.1166262"><ele>100.0</ele><time>2026-05-02T07:11:46.081Z</time></trkpt><trkpt lat="42.4047644" lon="14.1167167"><ele>98.0</ele><time>2026-05-02T07:11:47.098Z</time></trkpt><trkpt lat="42.4046725" lon="14.1168129"><ele>96.0</ele><time>2026-05-02T07:11:48.087Z</time></trkpt><trkpt lat="42.404574" lon="14.1169074"><ele>94.0</ele><time>2026-05-02T07:11:49.098Z</time></trkpt><trkpt lat="42.4044727" lon="14.1170147"><ele>93.0</ele><time>2026-05-02T07:11:50.087Z</time></trkpt><trkpt lat="42.4043777" lon="14.1171342"><ele>92.0</ele><time>2026-05-02T07:11:51.094Z</time></trkpt><trkpt lat="42.4042853" lon="14.1172526"><ele>91.0</ele><time>2026-05-02T07:11:52.097Z</time></trkpt><trkpt lat="42.4041953" lon="14.1173626"><ele>90.0</ele><time>2026-05-02T07:11:53.099Z</time></trkpt><trkpt lat="42.4041096" lon="14.1174698"><ele>88.75</ele><time>2026-05-02T07:11:54.101Z</time></trkpt><trkpt lat="42.404028" lon="14.117574"><ele>87.5</ele><time>2026-05-02T07:11:55.104Z</time></trkpt><trkpt lat="42.4039411" lon="14.1176836"><ele>86.25</ele><time>2026-05-02T07:11:56.1Z</time></trkpt><trkpt lat="42.4038573" lon="14.1177947"><ele>85.0</ele><time>2026-05-02T07:11:57.095Z</time></trkpt><trkpt lat="42.4037642" lon="14.1179106"><ele>84.25</ele><time>2026-05-02T07:11:58.103Z</time></trkpt><trkpt lat="42.4036667" lon="14.1180286"><ele>83.5</ele><time>2026-05-02T07:11:59.097Z</time></trkpt><trkpt lat="42.403567" lon="14.1181524"><ele>82.75</ele><time>2026-05-02T07:12:00.1Z</time></trkpt><trkpt lat="42.4034646" lon="14.1182727"><ele>82.0</ele><time>2026-05-02T07:12:01.095Z</time></trkpt><trkpt lat="42.4033625" lon="14.1183873"><ele>81.5</ele><time>2026-05-02T07:12:02.089Z</time></trkpt><trkpt lat="42.4032595" lon="14.1185021"><ele>81.0</ele><time>2026-05-02T07:12:03.098Z</time></trkpt><trkpt lat="42.4031642" lon="14.118614"><ele>80.5</ele><time>2026-05-02T07:12:04.1Z</time></trkpt><trkpt lat="42.4030736" lon="14.1187305"><ele>80.0</ele><time>2026-05-02T07:12:05.097Z</time></trkpt><trkpt lat="42.4029899" lon="14.1188379"><ele>79.75</ele><time>2026-05-02T07:12:06.098Z</time></trkpt><trkpt lat="42.4029054" lon="14.1189418"><ele>79.5</ele><time>2026-05-02T07:12:07.101Z</time></trkpt><trkpt lat="42.4028188" lon="14.1190491"><ele>79.25</ele><time>2026-05-02T07:12:08.091Z</time></trkpt><trkpt lat="42.4027326" lon="14.1191549"><ele>79.0</ele><time>2026-05-02T07:12:09.093Z</time></trkpt><trkpt lat="42.4026474" lon="14.119253"><ele>78.2</ele><time>2026-05-02T07:12:10.085Z</time></trkpt><trkpt lat="42.4025586" lon="14.1193426"><ele>77.4</ele><time>2026-05-02T07:12:11.092Z</time></trkpt><trkpt lat="42.4024756" lon="14.1194286"><ele>76.6</ele><time>2026-05-02T07:12:12.092Z</time></trkpt><trkpt lat="42.4023979" lon="14.1195126"><ele>75.8</ele><time>2026-05-02T07:12:13.09Z</time></trkpt><trkpt lat="42.4023207" lon="14.1195876"><ele>75.0</ele><time>2026-05-02T07:12:14.085Z</time></trkpt><trkpt lat="42.4022318" lon="14.1196712"><ele>74.5</ele><time>2026-05-02T07:12:15.093Z</time></trkpt><trkpt lat="42.4021427" lon="14.1197508"><ele>74.0</ele><time>2026-05-02T07:12:16.097Z</time></trkpt><trkpt lat="42.4020367" lon="14.1198376"><ele>73.5</ele><time>2026-05-02T07:12:17.097Z</time></trkpt><trkpt lat="42.4019213" lon="14.119936"><ele>73.0</ele><time>2026-05-02T07:12:18.094Z</time></trkpt><trkpt lat="42.4017997" lon="14.1200381"><ele>71.0</ele><time>2026-05-02T07:12:19.096Z</time></trkpt><trkpt lat="42.4016438" lon="14.1201379"><ele>69.0</ele><time>2026-05-02T07:12:20.095Z</time></trkpt><trkpt lat="42.4015135" lon="14.1202626"><ele>67.0</ele><time>2026-05-02T07:12:21.1Z</time></trkpt><trkpt lat="42.4013911" lon="14.1203887"><ele>66.5</ele><time>2026-05-02T07:12:22.097Z</time></trkpt><trkpt lat="42.4012684" lon="14.1204752"><ele>66.0</ele><time>2026-05-02T07:12:23.1Z</time></trkpt><trkpt lat="42.4011777" lon="14.1205785"><ele>65.5</ele><time>2026-05-02T07:12:24.097Z</time></trkpt><trkpt lat="42.4010918" lon="14.1206691"><ele>65.0</ele><time>2026-05-02T07:12:25.099Z</time></trkpt><trkpt lat="42.4009831" lon="14.120747"><ele>64.75</ele><time>2026-05-02T07:12:26.097Z</time></trkpt><trkpt lat="42.4009044" lon="14.1208225"><ele>64.5</ele><time>2026-05-02T07:12:27.09Z</time></trkpt><trkpt lat="42.4007916" lon="14.120941"><ele>64.25</ele><time>2026-05-02T07:12:28.091Z</time></trkpt><trkpt lat="42.4006711" lon="14.1210658"><ele>64.0</ele><time>2026-05-02T07:12:29.094Z</time></trkpt><trkpt lat="42.4005539" lon="14.1211705"><ele>65.75</ele><time>2026-05-02T07:12:30.087Z</time></trkpt><trkpt lat="42.4004345" lon="14.1212752"><ele>67.5</ele><time>2026-05-02T07:12:31.092Z</time></trkpt><trkpt lat="42.4003083" lon="14.1213525"><ele>69.25</ele><time>2026-05-02T07:12:32.086Z</time></trkpt><trkpt lat="42.4002183" lon="14.1214113"><ele>71.0</ele><time>2026-05-02T07:12:33.094Z</time></trkpt><trkpt lat="42.4001246" lon="14.1214839"><ele>68.5</ele><time>2026-05-02T07:12:34.087Z</time></trkpt><trkpt lat="42.4000518" lon="14.1216051"><ele>66.0</ele><time>2026-05-02T07:12:35.091Z</time></trkpt><trkpt lat="42.3999893" lon="14.1217582"><ele>63.5</ele><time>2026-05-02T07:12:36.088Z</time></trkpt><trkpt lat="42.3999283" lon="14.1219454"><ele>61.0</ele><time>2026-05-02T07:12:37.086Z</time></trkpt><trkpt lat="42.3998503" lon="14.1221236"><ele>61.0</ele><time>2026-05-02T07:12:38.084Z</time></trkpt><trkpt lat="42.399777" lon="14.1223146"><ele>61.0</ele><time>2026-05-02T07:12:39.082Z</time></trkpt><trkpt lat="42.3997116" lon="14.1224699"><ele>61.0</ele><time>2026-05-02T07:12:40.076Z</time></trkpt><trkpt lat="42.3996891" lon="14.1226311"><ele>61.0</ele><time>2026-05-02T07:12:41.084Z</time></trkpt><trkpt lat="42.3996798" lon="14.1227954"><ele>61.0</ele><time>2026-05-02T07:12:42.083Z</time></trkpt><trkpt lat="42.3996944" lon="14.1229846"><ele>61.0</ele><time>2026-05-02T07:12:43.086Z</time></trkpt><trkpt lat="42.3997243" lon="14.1231615"><ele>61.0</ele><time>2026-05-02T07:12:44.092Z</time></trkpt><trkpt lat="42.3997236" lon="14.1233043"><ele>61.0</ele><time>2026-05-02T07:12:45.089Z</time></trkpt><trkpt lat="42.3997096" lon="14.1234262"><ele>59.25</ele><time>2026-05-02T07:12:46.09Z</time></trkpt><trkpt lat="42.399665" lon="14.1235599"><ele>57.5</ele><time>2026-05-02T07:12:47.091Z</time></trkpt><trkpt lat="42.3996013" lon="14.1237173"><ele>55.75</ele><time>2026-05-02T07:12:48.09Z</time></trkpt><trkpt lat="42.3995309" lon="14.1238888"><ele>54.0</ele><time>2026-05-02T07:12:49.085Z</time></trkpt><trkpt lat="42.399438" lon="14.1240812"><ele>53.33333333333333</ele><time>2026-05-02T07:12:50.082Z</time></trkpt><trkpt lat="42.3993482" lon="14.1242815"><ele>52.666666666666664</ele><time>2026-05-02T07:12:51.084Z</time></trkpt><trkpt lat="42.3992606" lon="14.1244757"><ele>52.0</ele><time>2026-05-02T07:12:52.085Z</time></trkpt><trkpt lat="42.3991824" lon="14.1246491"><ele>52.0</ele><time>2026-05-02T07:12:53.083Z</time></trkpt><trkpt lat="42.3990998" lon="14.1248023"><ele>52.0</ele><time>2026-05-02T07:12:54.078Z</time></trkpt><trkpt lat="42.3990176" lon="14.1249505"><ele>52.0</ele><time>2026-05-02T07:12:55.081Z</time></trkpt><trkpt lat="42.398932" lon="14.1250851"><ele>52.0</ele><time>2026-05-02T07:12:56.082Z</time></trkpt><trkpt lat="42.3988363" lon="14.1251934"><ele>50.25</ele><time>2026-05-02T07:12:57.085Z</time></trkpt><trkpt lat="42.3987273" lon="14.1252829"><ele>48.5</ele><time>2026-05-02T07:12:58.09Z</time></trkpt><trkpt lat="42.3986081" lon="14.1253404"><ele>46.75</ele><time>2026-05-02T07:12:59.09Z</time></trkpt><trkpt lat="42.3984782" lon="14.1253503"><ele>45.0</ele><time>2026-05-02T07:13:00.084Z</time></trkpt><trkpt lat="42.3983292" lon="14.1253161"><ele>45.0</ele><time>2026-05-02T07:13:01.086Z</time></trkpt><trkpt lat="42.398203" lon="14.1252771"><ele>45.0</ele><time>2026-05-02T07:13:02.092Z</time></trkpt><trkpt lat="42.3980698" lon="14.125226"><ele>45.0</ele><time>2026-05-02T07:13:03.089Z</time></trkpt><trkpt lat="42.3979362" lon="14.1252325"><ele>45.0</ele><time>2026-05-02T07:13:04.095Z</time></trkpt><trkpt lat="42.397835" lon="14.1253109"><ele>45.25</ele><time>2026-05-02T07:13:05.082Z</time></trkpt><trkpt lat="42.3977403" lon="14.1254372"><ele>45.5</ele><time>2026-05-02T07:13:06.088Z</time></trkpt><trkpt lat="42.3976787" lon="14.1256079"><ele>45.75</ele><time>2026-05-02T07:13:07.086Z</time></trkpt><trkpt lat="42.3976172" lon="14.1257641"><ele>46.0</ele><time>2026-05-02T07:13:08.093Z</time></trkpt><trkpt lat="42.3975614" lon="14.1259169"><ele>47.0</ele><time>2026-05-02T07:13:09.078Z</time></trkpt><trkpt lat="42.397487" lon="14.1260362"><ele>48.0</ele><time>2026-05-02T07:13:10.087Z</time></trkpt><trkpt lat="42.3973891" lon="14.1261234"><ele>49.0</ele><time>2026-05-02T07:13:11.083Z</time></trkpt><trkpt lat="42.3972816" lon="14.1261916"><ele>50.0</ele><time>2026-05-02T07:13:12.088Z</time></trkpt><trkpt lat="42.3971632" lon="14.1262289"><ele>51.0</ele><time>2026-05-02T07:13:13.093Z</time></trkpt><trkpt lat="42.3970511" lon="14.1262611"><ele>52.0</ele><time>2026-05-02T07:13:14.105Z</time></trkpt><trkpt lat="42.3969376" lon="14.1262943"><ele>53.0</ele><time>2026-05-02T07:13:15.097Z</time></trkpt><trkpt lat="42.3968179" lon="14.1263344"><ele>54.0</ele><time>2026-05-02T07:13:16.105Z</time></trkpt><trkpt lat="42.3966949" lon="14.1263777"><ele>54.0</ele><time>2026-05-02T07:13:17.101Z</time></trkpt><trkpt lat="42.3965618" lon="14.126432"><ele>54.0</ele><time>2026-05-02T07:13:18.101Z</time></trkpt><trkpt lat="42.3964182" lon="14.1264697"><ele>54.0</ele><time>2026-05-02T07:13:19.095Z</time></trkpt><trkpt lat="42.3962702" lon="14.1264917"><ele>54.0</ele><time>2026-05-02T07:13:20.101Z</time></trkpt><trkpt lat="42.3961227" lon="14.1265503"><ele>54.0</ele><time>2026-05-02T07:13:21.097Z</time></trkpt><trkpt lat="42.3959739" lon="14.1265747"><ele>54.0</ele><time>2026-05-02T07:13:22.104Z</time></trkpt><trkpt lat="42.39582" lon="14.126604"><ele>54.0</ele><time>2026-05-02T07:13:23.105Z</time></trkpt><trkpt lat="42.3956648" lon="14.12663"><ele>54.0</ele><time>2026-05-02T07:13:24.102Z</time></trkpt><trkpt lat="42.3955029" lon="14.1266685"><ele>54.0</ele><time>2026-05-02T07:13:25.101Z</time></trkpt><trkpt lat="42.3953565" lon="14.1267101"><ele>54.0</ele><time>2026-05-02T07:13:26.101Z</time></trkpt><trkpt lat="42.3952066" lon="14.126731"><ele>54.0</ele><time>2026-05-02T07:13:27.091Z</time></trkpt><trkpt lat="42.3950735" lon="14.126761"><ele>54.0</ele><time>2026-05-02T07:13:28.095Z</time></trkpt><trkpt lat="42.3949274" lon="14.1268096"><ele>54.0</ele><time>2026-05-02T07:13:29.096Z</time></trkpt><trkpt lat="42.3947731" lon="14.1268278"><ele>54.0</ele><time>2026-05-02T07:13:30.1Z</time></trkpt><trkpt lat="42.3946284" lon="14.1268482"><ele>55.0</ele><time>2026-05-02T07:13:31.107Z</time></trkpt><trkpt lat="42.394471" lon="14.1268706"><ele>56.0</ele><time>2026-05-02T07:13:32.101Z</time></trkpt><trkpt lat="42.3943094" lon="14.1269093"><ele>57.0</ele><time>2026-05-02T07:13:33.095Z</time></trkpt><trkpt lat="42.3941494" lon="14.126936"><ele>57.0</ele><time>2026-05-02T07:13:34.097Z</time></trkpt><trkpt lat="42.3939865" lon="14.1269694"><ele>57.0</ele><time>2026-05-02T07:13:35.1Z</time></trkpt><trkpt lat="42.3938331" lon="14.1270108"><ele>57.0</ele><time>2026-05-02T07:13:36.096Z</time></trkpt><trkpt lat="42.3936793" lon="14.1270665"><ele>56.33333333333333</ele><time>2026-05-02T07:13:37.094Z</time></trkpt><trkpt lat="42.3935252" lon="14.1271559"><ele>55.666666666666664</ele><time>2026-05-02T07:13:38.097Z</time></trkpt><trkpt lat="42.3933916" lon="14.1272789"><ele>55.0</ele><time>2026-05-02T07:13:39.096Z</time></trkpt><trkpt lat="42.393253" lon="14.1274429"><ele>54.666666666666664</ele><time>2026-05-02T07:13:40.093Z</time></trkpt><trkpt lat="42.3930999" lon="14.1276045"><ele>54.33333333333333</ele><time>2026-05-02T07:13:41.09Z</time></trkpt><trkpt lat="42.3929594" lon="14.1277648"><ele>54.0</ele><time>2026-05-02T07:13:42.091Z</time></trkpt><trkpt lat="42.3928156" lon="14.1279312"><ele>54.0</ele><time>2026-05-02T07:13:43.088Z</time></trkpt><trkpt lat="42.3926864" lon="14.1281014"><ele>54.0</ele><time>2026-05-02T07:13:44.087Z</time></trkpt><trkpt lat="42.392562" lon="14.1282816"><ele>54.0</ele><time>2026-05-02T07:13:45.086Z</time></trkpt><trkpt lat="42.3924471" lon="14.1284868"><ele>54.0</ele><time>2026-05-02T07:13:46.092Z</time></trkpt><trkpt lat="42.3923264" lon="14.1286655"><ele>54.0</ele><time>2026-05-02T07:13:47.099Z</time></trkpt><trkpt lat="42.3922228" lon="14.128831"><ele>54.0</ele><time>2026-05-02T07:13:48.092Z</time></trkpt><trkpt lat="42.3921157" lon="14.1289934"><ele>54.25</ele><time>2026-05-02T07:13:49.096Z</time></trkpt><trkpt lat="42.392006" lon="14.1291576"><ele>54.5</ele><time>2026-05-02T07:13:50.093Z</time></trkpt><trkpt lat="42.3918979" lon="14.129307"><ele>54.75</ele><time>2026-05-02T07:13:51.091Z</time></trkpt><trkpt lat="42.3918075" lon="14.1294206"><ele>55.0</ele><time>2026-05-02T07:13:52.085Z</time></trkpt><trkpt lat="42.3917009" lon="14.1294952"><ele>55.0</ele><time>2026-05-02T07:13:53.097Z</time></trkpt><trkpt lat="42.3915916" lon="14.1295181"><ele>55.0</ele><time>2026-05-02T07:13:54.088Z</time></trkpt><trkpt lat="42.3914828" lon="14.129524"><ele>55.0</ele><time>2026-05-02T07:13:55.094Z</time></trkpt><trkpt lat="42.3913704" lon="14.1294852"><ele>55.0</ele><time>2026-05-02T07:13:56.092Z</time></trkpt><trkpt lat="42.391262" lon="14.1294215"><ele>51.75</ele><time>2026-05-02T07:13:57.09Z</time></trkpt><trkpt lat="42.3911411" lon="14.129366"><ele>48.5</ele><time>2026-05-02T07:13:58.086Z</time></trkpt><trkpt lat="42.3910091" lon="14.1293292"><ele>45.25</ele><time>2026-05-02T07:13:59.081Z</time></trkpt><trkpt lat="42.3908585" lon="14.1293188"><ele>42.0</ele><time>2026-05-02T07:14:00.092Z</time></trkpt><trkpt lat="42.3906802" lon="14.1293862"><ele>42.0</ele><time>2026-05-02T07:14:01.084Z</time></trkpt><trkpt lat="42.3905144" lon="14.1294546"><ele>42.0</ele><time>2026-05-02T07:14:02.083Z</time></trkpt><trkpt lat="42.3903686" lon="14.1295216"><ele>42.0</ele><time>2026-05-02T07:14:03.085Z</time></trkpt><trkpt lat="42.3902361" lon="14.1295992"><ele>39.0</ele><time>2026-05-02T07:14:04.087Z</time></trkpt><trkpt lat="42.3901281" lon="14.129647"><ele>36.0</ele><time>2026-05-02T07:14:05.088Z</time></trkpt><trkpt lat="42.390017" lon="14.1297002"><ele>33.0</ele><time>2026-05-02T07:14:06.094Z</time></trkpt><trkpt lat="42.3899104" lon="14.129762"><ele>30.0</ele><time>2026-05-02T07:14:07.095Z</time></trkpt><trkpt lat="42.3897926" lon="14.1298082"><ele>30.0</ele><time>2026-05-02T07:14:08.096Z</time></trkpt><trkpt lat="42.389714" lon="14.1298328"><ele>30.0</ele><time>2026-05-02T07:14:09.094Z</time></trkpt><trkpt lat="42.3896515" lon="14.1298577"><ele>30.0</ele><time>2026-05-02T07:14:10.091Z</time></trkpt><trkpt lat="42.3895681" lon="14.1298728"><ele>30.0</ele><time>2026-05-02T07:14:13.097Z</time></trkpt><trkpt lat="42.3894872" lon="14.1298967"><ele>30.0</ele><time>2026-05-02T07:14:16.116Z</time></trkpt><trkpt lat="42.3893715" lon="14.130013"><ele>30.0</ele><time>2026-05-02T07:14:18.11Z</time></trkpt><trkpt lat="42.3893036" lon="14.130094"><ele>30.0</ele><time>2026-05-02T07:14:19.091Z</time></trkpt><trkpt lat="42.3892227" lon="14.1301691"><ele>30.0</ele><time>2026-05-02T07:14:20.113Z</time></trkpt><trkpt lat="42.3891365" lon="14.1302377"><ele>30.0</ele><time>2026-05-02T07:14:21.109Z</time></trkpt><trkpt lat="42.3890385" lon="14.1303001"><ele>30.0</ele><time>2026-05-02T07:14:22.103Z</time></trkpt><trkpt lat="42.3889431" lon="14.1303624"><ele>30.0</ele><time>2026-05-02T07:14:23.105Z</time></trkpt><trkpt lat="42.3888559" lon="14.1304222"><ele>30.0</ele><time>2026-05-02T07:14:24.113Z</time></trkpt><trkpt lat="42.3887788" lon="14.1304722"><ele>30.0</ele><time>2026-05-02T07:14:25.115Z</time></trkpt><trkpt lat="42.3887138" lon="14.1305235"><ele>30.0</ele><time>2026-05-02T07:14:26.109Z</time></trkpt><trkpt lat="42.3886163" lon="14.1306048"><ele>30.0</ele><time>2026-05-02T07:14:28.115Z</time></trkpt><trkpt lat="42.388538" lon="14.1306322"><ele>30.0</ele><time>2026-05-02T07:14:30.111Z</time></trkpt><trkpt lat="42.3884257" lon="14.1306"><ele>30.0</ele><time>2026-05-02T07:14:32.107Z</time></trkpt><trkpt lat="42.3883441" lon="14.1305595"><ele>30.0</ele><time>2026-05-02T07:14:33.109Z</time></trkpt><trkpt lat="42.3882577" lon="14.1305084"><ele>30.0</ele><time>2026-05-02T07:14:34.091Z</time></trkpt><trkpt lat="42.3881861" lon="14.1304561"><ele>30.0</ele><time>2026-05-02T07:14:35.105Z</time></trkpt><trkpt lat="42.3881253" lon="14.1303963"><ele>30.0</ele><time>2026-05-02T07:14:36.109Z</time></trkpt><trkpt lat="42.3880346" lon="14.1303142"><ele>30.0</ele><time>2026-05-02T07:14:38.108Z</time></trkpt><trkpt lat="42.3879108" lon="14.1302931"><ele>30.0</ele><time>2026-05-02T07:14:40.113Z</time></trkpt><trkpt lat="42.3878317" lon="14.1302719"><ele>30.0</ele><time>2026-05-02T07:14:41.109Z</time></trkpt><trkpt lat="42.3877456" lon="14.1302147"><ele>30.0</ele><time>2026-05-02T07:14:42.111Z</time></trkpt><trkpt lat="42.3876558" lon="14.1301284"><ele>30.5</ele><time>2026-05-02T07:14:43.114Z</time></trkpt><trkpt lat="42.3875567" lon="14.1300317"><ele>31.0</ele><time>2026-05-02T07:14:44.116Z</time></trkpt><trkpt lat="42.3874483" lon="14.1299249"><ele>31.5</ele><time>2026-05-02T07:14:45.116Z</time></trkpt><trkpt lat="42.3873366" lon="14.1298102"><ele>32.0</ele><time>2026-05-02T07:14:46.117Z</time></trkpt><trkpt lat="42.3872513" lon="14.129691"><ele>32.2</ele><time>2026-05-02T07:14:47.117Z</time></trkpt><trkpt lat="42.3871454" lon="14.129583"><ele>32.400000000000006</ele><time>2026-05-02T07:14:48.097Z</time></trkpt><trkpt lat="42.3870725" lon="14.1294902"><ele>32.599999999999994</ele><time>2026-05-02T07:14:49.113Z</time></trkpt><trkpt lat="42.3869965" lon="14.1294025"><ele>32.8</ele><time>2026-05-02T07:14:50.119Z</time></trkpt><trkpt lat="42.3869028" lon="14.129311"><ele>33.0</ele><time>2026-05-02T07:14:51.112Z</time></trkpt><trkpt lat="42.3868086" lon="14.1292254"><ele>33.0</ele><time>2026-05-02T07:14:52.107Z</time></trkpt><trkpt lat="42.3867174" lon="14.1290883"><ele>33.0</ele><time>2026-05-02T07:14:53.096Z</time></trkpt><trkpt lat="42.3866353" lon="14.1289428"><ele>33.0</ele><time>2026-05-02T07:14:54.101Z</time></trkpt><trkpt lat="42.3865714" lon="14.1287661"><ele>33.0</ele><time>2026-05-02T07:14:55.098Z</time></trkpt><trkpt lat="42.3864803" lon="14.128608"><ele>33.5</ele><time>2026-05-02T07:14:56.097Z</time></trkpt><trkpt lat="42.3863697" lon="14.128463"><ele>34.0</ele><time>2026-05-02T07:14:57.125Z</time></trkpt><trkpt lat="42.3862753" lon="14.1283312"><ele>34.5</ele><time>2026-05-02T07:14:58.116Z</time></trkpt><trkpt lat="42.3861928" lon="14.1282089"><ele>35.0</ele><time>2026-05-02T07:14:59.117Z</time></trkpt><trkpt lat="42.3861073" lon="14.1281314"><ele>35.2</ele><time>2026-05-02T07:15:00.104Z</time></trkpt><trkpt lat="42.3860259" lon="14.1280572"><ele>35.4</ele><time>2026-05-02T07:15:01.116Z</time></trkpt><trkpt lat="42.3859299" lon="14.1279837"><ele>35.6</ele><time>2026-05-02T07:15:02.109Z</time></trkpt><trkpt lat="42.3858499" lon="14.1278918"><ele>35.8</ele><time>2026-05-02T07:15:03.122Z</time></trkpt><trkpt lat="42.3857399" lon="14.1278076"><ele>36.0</ele><time>2026-05-02T07:15:04.113Z</time></trkpt><trkpt lat="42.3856501" lon="14.1277288"><ele>36.0</ele><time>2026-05-02T07:15:05.117Z</time></trkpt><trkpt lat="42.3855537" lon="14.1276214"><ele>36.0</ele><time>2026-05-02T07:15:06.107Z</time></trkpt><trkpt lat="42.3854542" lon="14.1275091"><ele>36.0</ele><time>2026-05-02T07:15:07.116Z</time></trkpt><trkpt lat="42.3853492" lon="14.1273962"><ele>36.0</ele><time>2026-05-02T07:15:08.111Z</time></trkpt><trkpt lat="42.385247" lon="14.1272767"><ele>38.25</ele><time>2026-05-02T07:15:09.111Z</time></trkpt><trkpt lat="42.3851469" lon="14.1271771"><ele>40.5</ele><time>2026-05-02T07:15:10.112Z</time></trkpt><trkpt lat="42.3850503" lon="14.1270849"><ele>42.75</ele><time>2026-05-02T07:15:11.105Z</time></trkpt><trkpt lat="42.3849335" lon="14.1270102"><ele>45.0</ele><time>2026-05-02T07:15:12.092Z</time></trkpt><trkpt lat="42.3847972" lon="14.1269449"><ele>44.0</ele><time>2026-05-02T07:15:13.084Z</time></trkpt><trkpt lat="42.384605" lon="14.126909"><ele>43.0</ele><time>2026-05-02T07:15:14.084Z</time></trkpt><trkpt lat="42.3844116" lon="14.1268894"><ele>42.0</ele><time>2026-05-02T07:15:15.086Z</time></trkpt><trkpt lat="42.3841967" lon="14.1268316"><ele>42.0</ele><time>2026-05-02T07:15:16.084Z</time></trkpt><trkpt lat="42.3840033" lon="14.1267278"><ele>42.0</ele><time>2026-05-02T07:15:17.112Z</time></trkpt><trkpt lat="42.3838292" lon="14.1266101"><ele>42.0</ele><time>2026-05-02T07:15:18.078Z</time></trkpt><trkpt lat="42.3836937" lon="14.1265426"><ele>44.75</ele><time>2026-05-02T07:15:19.112Z</time></trkpt><trkpt lat="42.3835924" lon="14.1264817"><ele>47.5</ele><time>2026-05-02T07:15:20.107Z</time></trkpt><trkpt lat="42.3835057" lon="14.1263878"><ele>50.25</ele><time>2026-05-02T07:15:21.091Z</time></trkpt><trkpt lat="42.3833848" lon="14.1263333"><ele>53.0</ele><time>2026-05-02T07:15:22.109Z</time></trkpt><trkpt lat="42.3832344" lon="14.1263078"><ele>53.0</ele><time>2026-05-02T07:15:23.105Z</time></trkpt><trkpt lat="42.3830673" lon="14.1262993"><ele>53.0</ele><time>2026-05-02T07:15:24.105Z</time></trkpt><trkpt lat="42.3829094" lon="14.1262986"><ele>53.0</ele><time>2026-05-02T07:15:25.104Z</time></trkpt><trkpt lat="42.3827704" lon="14.1262981"><ele>53.0</ele><time>2026-05-02T07:15:26.107Z</time></trkpt><trkpt lat="42.382643" lon="14.1262528"><ele>53.0</ele><time>2026-05-02T07:15:27.106Z</time></trkpt><trkpt lat="42.3825046" lon="14.1261639"><ele>53.0</ele><time>2026-05-02T07:15:28.109Z</time></trkpt><trkpt lat="42.3823558" lon="14.12606"><ele>53.0</ele><time>2026-05-02T07:15:29.084Z</time></trkpt><trkpt lat="42.3821942" lon="14.1259784"><ele>53.0</ele><time>2026-05-02T07:15:30.084Z</time></trkpt><trkpt lat="42.3820681" lon="14.1258641"><ele>53.0</ele><time>2026-05-02T07:15:31.106Z</time></trkpt><trkpt lat="42.3819499" lon="14.1257218"><ele>53.0</ele><time>2026-05-02T07:15:32.106Z</time></trkpt><trkpt lat="42.3818063" lon="14.1255871"><ele>53.0</ele><time>2026-05-02T07:15:33.108Z</time></trkpt><trkpt lat="42.3816462" lon="14.1254744"><ele>53.0</ele><time>2026-05-02T07:15:34.106Z</time></trkpt><trkpt lat="42.3814736" lon="14.1253723"><ele>51.333333333333336</ele><time>2026-05-02T07:15:35.117Z</time></trkpt><trkpt lat="42.3813122" lon="14.1252646"><ele>49.66666666666667</ele><time>2026-05-02T07:15:36.108Z</time></trkpt><trkpt lat="42.3811475" lon="14.1251546"><ele>48.0</ele><time>2026-05-02T07:15:37.093Z</time></trkpt><trkpt lat="42.380985" lon="14.1250265"><ele>48.0</ele><time>2026-05-02T07:15:38.085Z</time></trkpt><trkpt lat="42.3808144" lon="14.1249086"><ele>48.0</ele><time>2026-05-02T07:15:39.098Z</time></trkpt><trkpt lat="42.3806444" lon="14.124781"><ele>48.0</ele><time>2026-05-02T07:15:40.108Z</time></trkpt><trkpt lat="42.3804815" lon="14.1246475"><ele>49.33333333333333</ele><time>2026-05-02T07:15:41.109Z</time></trkpt><trkpt lat="42.3803232" lon="14.1245203"><ele>50.666666666666664</ele><time>2026-05-02T07:15:42.113Z</time></trkpt><trkpt lat="42.3801962" lon="14.1244124"><ele>52.0</ele><time>2026-05-02T07:15:43.11Z</time></trkpt><trkpt lat="42.38007" lon="14.1243275"><ele>52.0</ele><time>2026-05-02T07:15:44.113Z</time></trkpt><trkpt lat="42.3799642" lon="14.1242401"><ele>52.0</ele><time>2026-05-02T07:15:45.111Z</time></trkpt><trkpt lat="42.3798976" lon="14.1241663"><ele>52.0</ele><time>2026-05-02T07:15:46.112Z</time></trkpt><trkpt lat="42.3798477" lon="14.124076"><ele>52.0</ele><time>2026-05-02T07:15:47.105Z</time></trkpt><trkpt lat="42.3798301" lon="14.1239701"><ele>52.0</ele><time>2026-05-02T07:15:48.112Z</time></trkpt><trkpt lat="42.3798132" lon="14.123861"><ele>53.400000000000006</ele><time>2026-05-02T07:15:49.09Z</time></trkpt><trkpt lat="42.3797682" lon="14.1237562"><ele>54.800000000000004</ele><time>2026-05-02T07:15:50.093Z</time></trkpt><trkpt lat="42.3797138" lon="14.1237023"><ele>56.2</ele><time>2026-05-02T07:15:51.111Z</time></trkpt><trkpt lat="42.3796253" lon="14.1236721"><ele>57.6</ele><time>2026-05-02T07:15:52.105Z</time></trkpt><trkpt lat="42.3795176" lon="14.1236556"><ele>59.0</ele><time>2026-05-02T07:15:53.107Z</time></trkpt><trkpt lat="42.3793866" lon="14.1236361"><ele>59.0</ele><time>2026-05-02T07:15:54.099Z</time></trkpt><trkpt lat="42.3792382" lon="14.1235877"><ele>59.0</ele><time>2026-05-02T07:15:55.076Z</time></trkpt><trkpt lat="42.3790264" lon="14.1235687"><ele>59.0</ele><time>2026-05-02T07:15:56.082Z</time></trkpt><trkpt lat="42.3788291" lon="14.1235412"><ele>57.66666666666667</ele><time>2026-05-02T07:15:57.079Z</time></trkpt><trkpt lat="42.3786041" lon="14.1234951"><ele>56.33333333333333</ele><time>2026-05-02T07:15:58.081Z</time></trkpt><trkpt lat="42.3784142" lon="14.1234718"><ele>55.0</ele><time>2026-05-02T07:15:59.109Z</time></trkpt><trkpt lat="42.3782327" lon="14.1234557"><ele>55.0</ele><time>2026-05-02T07:16:00.082Z</time></trkpt><trkpt lat="42.3780719" lon="14.1234337"><ele>55.0</ele><time>2026-05-02T07:16:01.093Z</time></trkpt><trkpt lat="42.3779179" lon="14.1234096"><ele>55.0</ele><time>2026-05-02T07:16:02.083Z</time></trkpt><trkpt lat="42.3777889" lon="14.1233838"><ele>55.0</ele><time>2026-05-02T07:16:03.111Z</time></trkpt><trkpt lat="42.3776642" lon="14.1233595"><ele>52.75</ele><time>2026-05-02T07:16:04.083Z</time></trkpt><trkpt lat="42.3775454" lon="14.123345"><ele>50.5</ele><time>2026-05-02T07:16:05.089Z</time></trkpt><trkpt lat="42.3774247" lon="14.1233255"><ele>48.25</ele><time>2026-05-02T07:16:06.084Z</time></trkpt><trkpt lat="42.3773097" lon="14.1233245"><ele>46.0</ele><time>2026-05-02T07:16:07.111Z</time></trkpt><trkpt lat="42.3771856" lon="14.123383"><ele>45.5</ele><time>2026-05-02T07:16:08.107Z</time></trkpt><trkpt lat="42.3771003" lon="14.1235132"><ele>45.0</ele><time>2026-05-02T07:16:09.111Z</time></trkpt><trkpt lat="42.3770366" lon="14.1236602"><ele>44.5</ele><time>2026-05-02T07:16:10.085Z</time></trkpt><trkpt lat="42.3769771" lon="14.1238148"><ele>44.0</ele><time>2026-05-02T07:16:11.114Z</time></trkpt><trkpt lat="42.3769094" lon="14.1239506"><ele>44.0</ele><time>2026-05-02T07:16:12.108Z</time></trkpt><trkpt lat="42.3768234" lon="14.1240613"><ele>44.0</ele><time>2026-05-02T07:16:13.11Z</time></trkpt><trkpt lat="42.3767466" lon="14.1241403"><ele>44.0</ele><time>2026-05-02T07:16:14.116Z</time></trkpt><trkpt lat="42.3766798" lon="14.1241809"><ele>44.0</ele><time>2026-05-02T07:16:15.107Z</time></trkpt><trkpt lat="42.3766146" lon="14.1242125"><ele>44.0</ele><time>2026-05-02T07:16:16.113Z</time></trkpt><trkpt lat="42.3765442" lon="14.1242108"><ele>44.0</ele><time>2026-05-02T07:16:17.11Z</time></trkpt><trkpt lat="42.3764656" lon="14.1241969"><ele>43.800000000000004</ele><time>2026-05-02T07:16:18.111Z</time></trkpt><trkpt lat="42.3763813" lon="14.1241705"><ele>43.6</ele><time>2026-05-02T07:16:19.116Z</time></trkpt><trkpt lat="42.3762915" lon="14.124129"><ele>43.4</ele><time>2026-05-02T07:16:20.11Z</time></trkpt><trkpt lat="42.3761945" lon="14.1240711"><ele>43.2</ele><time>2026-05-02T07:16:21.114Z</time></trkpt><trkpt lat="42.3760735" lon="14.1240156"><ele>43.0</ele><time>2026-05-02T07:16:22.114Z</time></trkpt><trkpt lat="42.3759397" lon="14.1239701"><ele>43.0</ele><time>2026-05-02T07:16:23.117Z</time></trkpt><trkpt lat="42.3758035" lon="14.1239154"><ele>43.0</ele><time>2026-05-02T07:16:24.116Z</time></trkpt><trkpt lat="42.3756533" lon="14.1238207"><ele>43.0</ele><time>2026-05-02T07:16:25.113Z</time></trkpt><trkpt lat="42.375513" lon="14.1237278"><ele>41.66666666666667</ele><time>2026-05-02T07:16:26.117Z</time></trkpt><trkpt lat="42.3753804" lon="14.1236209"><ele>40.333333333333336</ele><time>2026-05-02T07:16:27.112Z</time></trkpt><trkpt lat="42.3752346" lon="14.1234934"><ele>39.0</ele><time>2026-05-02T07:16:28.126Z</time></trkpt><trkpt lat="42.3750894" lon="14.1233769"><ele>39.0</ele><time>2026-05-02T07:16:29.118Z</time></trkpt><trkpt lat="42.3749522" lon="14.1232637"><ele>39.0</ele><time>2026-05-02T07:16:30.115Z</time></trkpt><trkpt lat="42.3748568" lon="14.1231701"><ele>39.0</ele><time>2026-05-02T07:16:31.119Z</time></trkpt><trkpt lat="42.3747597" lon="14.1230883"><ele>39.0</ele><time>2026-05-02T07:16:32.12Z</time></trkpt><trkpt lat="42.3746535" lon="14.1230221"><ele>39.4</ele><time>2026-05-02T07:16:33.122Z</time></trkpt><trkpt lat="42.3745763" lon="14.1229435"><ele>39.8</ele><time>2026-05-02T07:16:34.124Z</time></trkpt><trkpt lat="42.3744904" lon="14.1228768"><ele>40.199999999999996</ele><time>2026-05-02T07:16:35.119Z</time></trkpt><trkpt lat="42.3744151" lon="14.1228144"><ele>40.599999999999994</ele><time>2026-05-02T07:16:36.117Z</time></trkpt><trkpt lat="42.3743392" lon="14.122747"><ele>41.0</ele><time>2026-05-02T07:16:37.12Z</time></trkpt><trkpt lat="42.3742715" lon="14.12267"><ele>41.0</ele><time>2026-05-02T07:16:38.115Z</time></trkpt><trkpt lat="42.3742021" lon="14.1225898"><ele>41.0</ele><time>2026-05-02T07:16:39.114Z</time></trkpt><trkpt lat="42.3741158" lon="14.1225324"><ele>41.0</ele><time>2026-05-02T07:16:40.115Z</time></trkpt><trkpt lat="42.3740135" lon="14.1224791"><ele>41.0</ele><time>2026-05-02T07:16:41.104Z</time></trkpt><trkpt lat="42.3738948" lon="14.122405"><ele>41.0</ele><time>2026-05-02T07:16:42.111Z</time></trkpt><trkpt lat="42.3737465" lon="14.1223067"><ele>41.0</ele><time>2026-05-02T07:16:43.116Z</time></trkpt><trkpt lat="42.3735678" lon="14.1221908"><ele>41.0</ele><time>2026-05-02T07:16:44.119Z</time></trkpt><trkpt lat="42.3734017" lon="14.1220837"><ele>41.0</ele><time>2026-05-02T07:16:45.117Z</time></trkpt><trkpt lat="42.3732432" lon="14.1219509"><ele>41.0</ele><time>2026-05-02T07:16:46.112Z</time></trkpt><trkpt lat="42.3731049" lon="14.1218178"><ele>41.0</ele><time>2026-05-02T07:16:47.118Z</time></trkpt><trkpt lat="42.3729474" lon="14.1217096"><ele>41.0</ele><time>2026-05-02T07:16:48.116Z</time></trkpt><trkpt lat="42.3727889" lon="14.1215964"><ele>41.666666666666664</ele><time>2026-05-02T07:16:49.124Z</time></trkpt><trkpt lat="42.3726405" lon="14.1214813"><ele>42.333333333333336</ele><time>2026-05-02T07:16:50.117Z</time></trkpt><trkpt lat="42.3724972" lon="14.1213689"><ele>43.0</ele><time>2026-05-02T07:16:51.128Z</time></trkpt><trkpt lat="42.3723616" lon="14.1212536"><ele>43.0</ele><time>2026-05-02T07:16:52.125Z</time></trkpt><trkpt lat="42.3722141" lon="14.1211375"><ele>43.0</ele><time>2026-05-02T07:16:53.123Z</time></trkpt><trkpt lat="42.3720567" lon="14.1210344"><ele>43.0</ele><time>2026-05-02T07:16:54.12Z</time></trkpt><trkpt lat="42.371863" lon="14.1209533"><ele>41.333333333333336</ele><time>2026-05-02T07:16:55.116Z</time></trkpt><trkpt lat="42.3716808" lon="14.1208703"><ele>39.666666666666664</ele><time>2026-05-02T07:16:56.117Z</time></trkpt><trkpt lat="42.3714943" lon="14.1207947"><ele>38.0</ele><time>2026-05-02T07:16:57.115Z</time></trkpt><trkpt lat="42.3712936" lon="14.1207217"><ele>38.0</ele><time>2026-05-02T07:16:58.095Z</time></trkpt><trkpt lat="42.3710945" lon="14.1206154"><ele>38.0</ele><time>2026-05-02T07:16:59.094Z</time></trkpt><trkpt lat="42.3708988" lon="14.1205548"><ele>38.0</ele><time>2026-05-02T07:17:00.117Z</time></trkpt><trkpt lat="42.3707041" lon="14.1204942"><ele>37.666666666666664</ele><time>2026-05-02T07:17:01.116Z</time></trkpt><trkpt lat="42.3704849" lon="14.120437"><ele>37.333333333333336</ele><time>2026-05-02T07:17:02.092Z</time></trkpt><trkpt lat="42.3702805" lon="14.1204009"><ele>37.0</ele><time>2026-05-02T07:17:03.111Z</time></trkpt><trkpt lat="42.3700737" lon="14.1203972"><ele>37.0</ele><time>2026-05-02T07:17:04.113Z</time></trkpt><trkpt lat="42.3698747" lon="14.1203899"><ele>37.0</ele><time>2026-05-02T07:17:05.115Z</time></trkpt><trkpt lat="42.3696977" lon="14.1203729"><ele>37.0</ele><time>2026-05-02T07:17:06.114Z</time></trkpt><trkpt lat="42.3695065" lon="14.1203613"><ele>37.0</ele><time>2026-05-02T07:17:07.114Z</time></trkpt><trkpt lat="42.3693226" lon="14.120323"><ele>37.0</ele><time>2026-05-02T07:17:08.104Z</time></trkpt><trkpt lat="42.3691376" lon="14.1202894"><ele>37.0</ele><time>2026-05-02T07:17:09.112Z</time></trkpt><trkpt lat="42.3689411" lon="14.1202537"><ele>34.333333333333336</ele><time>2026-05-02T07:17:10.113Z</time></trkpt><trkpt lat="42.3687448" lon="14.1202242"><ele>31.666666666666664</ele><time>2026-05-02T07:17:11.113Z</time></trkpt><trkpt lat="42.3685672" lon="14.1201951"><ele>29.0</ele><time>2026-05-02T07:17:12.109Z</time></trkpt><trkpt lat="42.3683741" lon="14.1201349"><ele>29.0</ele><time>2026-05-02T07:17:13.117Z</time></trkpt><trkpt lat="42.3681898" lon="14.1200553"><ele>29.0</ele><time>2026-05-02T07:17:14.112Z</time></trkpt><trkpt lat="42.3680203" lon="14.1199386"><ele>29.0</ele><time>2026-05-02T07:17:15.117Z</time></trkpt><trkpt lat="42.3678618" lon="14.1198032"><ele>28.666666666666664</ele><time>2026-05-02T07:17:16.12Z</time></trkpt><trkpt lat="42.3676973" lon="14.1196965"><ele>28.333333333333336</ele><time>2026-05-02T07:17:17.122Z</time></trkpt><trkpt lat="42.3675361" lon="14.1195883"><ele>28.0</ele><time>2026-05-02T07:17:18.121Z</time></trkpt><trkpt lat="42.3673815" lon="14.1194693"><ele>28.0</ele><time>2026-05-02T07:17:19.117Z</time></trkpt><trkpt lat="42.3672229" lon="14.1193678"><ele>28.0</ele><time>2026-05-02T07:17:20.127Z</time></trkpt><trkpt lat="42.3670675" lon="14.1192719"><ele>28.0</ele><time>2026-05-02T07:17:21.13Z</time></trkpt><trkpt lat="42.366909" lon="14.1191735"><ele>28.0</ele><time>2026-05-02T07:17:22.129Z</time></trkpt><trkpt lat="42.3667565" lon="14.1190672"><ele>28.0</ele><time>2026-05-02T07:17:23.11Z</time></trkpt><trkpt lat="42.3665951" lon="14.1189461"><ele>28.0</ele><time>2026-05-02T07:17:24.098Z</time></trkpt><trkpt lat="42.3664442" lon="14.1188496"><ele>28.0</ele><time>2026-05-02T07:17:25.1Z</time></trkpt><trkpt lat="42.3662942" lon="14.1187508"><ele>28.0</ele><time>2026-05-02T07:17:26.095Z</time></trkpt><trkpt lat="42.3661559" lon="14.1186313"><ele>28.0</ele><time>2026-05-02T07:17:27.119Z</time></trkpt><trkpt lat="42.3660267" lon="14.1185331"><ele>28.0</ele><time>2026-05-02T07:17:28.119Z</time></trkpt><trkpt lat="42.3659078" lon="14.1184457"><ele>28.0</ele><time>2026-05-02T07:17:29.118Z</time></trkpt><trkpt lat="42.3657796" lon="14.1183593"><ele>28.0</ele><time>2026-05-02T07:17:30.114Z</time></trkpt><trkpt lat="42.3656484" lon="14.1182541"><ele>28.0</ele><time>2026-05-02T07:17:31.11Z</time></trkpt><trkpt lat="42.3655137" lon="14.1181634"><ele>29.0</ele><time>2026-05-02T07:17:32.109Z</time></trkpt><trkpt lat="42.3653807" lon="14.1180724"><ele>30.0</ele><time>2026-05-02T07:17:33.116Z</time></trkpt><trkpt lat="42.3652402" lon="14.1179643"><ele>31.0</ele><time>2026-05-02T07:17:34.112Z</time></trkpt><trkpt lat="42.3651152" lon="14.1178915"><ele>32.0</ele><time>2026-05-02T07:17:35.116Z</time></trkpt><trkpt lat="42.3649865" lon="14.1178146"><ele>32.0</ele><time>2026-05-02T07:17:36.111Z</time></trkpt><trkpt lat="42.3648496" lon="14.1177335"><ele>32.0</ele><time>2026-05-02T07:17:37.118Z</time></trkpt><trkpt lat="42.3647134" lon="14.1176458"><ele>32.0</ele><time>2026-05-02T07:17:38.111Z</time></trkpt><trkpt lat="42.3645829" lon="14.1175636"><ele>32.0</ele><time>2026-05-02T07:17:39.098Z</time></trkpt><trkpt lat="42.3644486" lon="14.1174995"><ele>32.33333333333333</ele><time>2026-05-02T07:17:40.111Z</time></trkpt><trkpt lat="42.364314" lon="14.1174399"><ele>32.666666666666664</ele><time>2026-05-02T07:17:41.092Z</time></trkpt><trkpt lat="42.3641565" lon="14.1174108"><ele>33.0</ele><time>2026-05-02T07:17:42.092Z</time></trkpt><trkpt lat="42.3640032" lon="14.1174153"><ele>32.333333333333336</ele><time>2026-05-02T07:17:43.091Z</time></trkpt><trkpt lat="42.3638496" lon="14.1174264"><ele>31.666666666666668</ele><time>2026-05-02T07:17:44.09Z</time></trkpt><trkpt lat="42.3636862" lon="14.1174156"><ele>31.0</ele><time>2026-05-02T07:17:45.095Z</time></trkpt><trkpt lat="42.3635188" lon="14.1174309"><ele>31.0</ele><time>2026-05-02T07:17:46.088Z</time></trkpt><trkpt lat="42.3633382" lon="14.1174377"><ele>31.0</ele><time>2026-05-02T07:17:47.09Z</time></trkpt><trkpt lat="42.3631766" lon="14.1174466"><ele>31.0</ele><time>2026-05-02T07:17:48.089Z</time></trkpt><trkpt lat="42.3630335" lon="14.1174356"><ele>30.333333333333336</ele><time>2026-05-02T07:17:49.088Z</time></trkpt><trkpt lat="42.3628758" lon="14.1174093"><ele>29.666666666666664</ele><time>2026-05-02T07:17:50.091Z</time></trkpt><trkpt lat="42.3627236" lon="14.1173791"><ele>29.0</ele><time>2026-05-02T07:17:51.087Z</time></trkpt><trkpt lat="42.3625749" lon="14.1173335"><ele>31.333333333333332</ele><time>2026-05-02T07:17:52.086Z</time></trkpt><trkpt lat="42.3624081" lon="14.1172697"><ele>33.666666666666664</ele><time>2026-05-02T07:17:53.082Z</time></trkpt><trkpt lat="42.3622419" lon="14.1171796"><ele>36.0</ele><time>2026-05-02T07:17:54.089Z</time></trkpt><trkpt lat="42.3620689" lon="14.1170958"><ele>36.0</ele><time>2026-05-02T07:17:55.088Z</time></trkpt><trkpt lat="42.3618702" lon="14.1170092"><ele>36.0</ele><time>2026-05-02T07:17:56.088Z</time></trkpt><trkpt lat="42.3616436" lon="14.1169199"><ele>36.0</ele><time>2026-05-02T07:17:57.097Z</time></trkpt><trkpt lat="42.3614406" lon="14.11683"><ele>33.0</ele><time>2026-05-02T07:17:58.091Z</time></trkpt><trkpt lat="42.3612247" lon="14.1167311"><ele>30.0</ele><time>2026-05-02T07:17:59.09Z</time></trkpt><trkpt lat="42.3609873" lon="14.116628"><ele>36.0</ele><time>2026-05-02T07:18:00.089Z</time></trkpt><trkpt lat="42.3607369" lon="14.1165336"><ele>42.0</ele><time>2026-05-02T07:18:01.11Z</time></trkpt><trkpt lat="42.3605427" lon="14.1164431"><ele>40.333333333333336</ele><time>2026-05-02T07:18:02.105Z</time></trkpt><trkpt lat="42.360393" lon="14.1163546"><ele>38.66666666666667</ele><time>2026-05-02T07:18:03.114Z</time></trkpt><trkpt lat="42.3602122" lon="14.116276"><ele>37.0</ele><time>2026-05-02T07:18:04.108Z</time></trkpt><trkpt lat="42.3600046" lon="14.1161864"><ele>37.0</ele><time>2026-05-02T07:18:05.085Z</time></trkpt><trkpt lat="42.3597915" lon="14.1160785"><ele>37.0</ele><time>2026-05-02T07:18:06.105Z</time></trkpt><trkpt lat="42.3595676" lon="14.1159728"><ele>36.66666666666667</ele><time>2026-05-02T07:18:07.11Z</time></trkpt><trkpt lat="42.3593869" lon="14.1158813"><ele>36.333333333333336</ele><time>2026-05-02T07:18:08.112Z</time></trkpt><trkpt lat="42.3592178" lon="14.1158028"><ele>36.0</ele><time>2026-05-02T07:18:09.091Z</time></trkpt><trkpt lat="42.3590561" lon="14.115751"><ele>37.666666666666664</ele><time>2026-05-02T07:18:10.084Z</time></trkpt><trkpt lat="42.358919" lon="14.1157284"><ele>39.33333333333333</ele><time>2026-05-02T07:18:11.11Z</time></trkpt><trkpt lat="42.3587737" lon="14.1156738"><ele>41.0</ele><time>2026-05-02T07:18:12.11Z</time></trkpt><trkpt lat="42.3586082" lon="14.1156066"><ele>41.0</ele><time>2026-05-02T07:18:13.115Z</time></trkpt><trkpt lat="42.3584469" lon="14.1155144"><ele>41.0</ele><time>2026-05-02T07:18:14.115Z</time></trkpt><trkpt lat="42.3582635" lon="14.1154341"><ele>41.0</ele><time>2026-05-02T07:18:15.117Z</time></trkpt><trkpt lat="42.3580667" lon="14.1153632"><ele>41.0</ele><time>2026-05-02T07:18:16.117Z</time></trkpt><trkpt lat="42.3578742" lon="14.1152839"><ele>41.0</ele><time>2026-05-02T07:18:17.119Z</time></trkpt><trkpt lat="42.3576763" lon="14.1152002"><ele>41.0</ele><time>2026-05-02T07:18:18.114Z</time></trkpt><trkpt lat="42.3574768" lon="14.1151038"><ele>41.0</ele><time>2026-05-02T07:18:19.121Z</time></trkpt><trkpt lat="42.357297" lon="14.1150273"><ele>41.0</ele><time>2026-05-02T07:18:20.12Z</time></trkpt><trkpt lat="42.3571142" lon="14.1149556"><ele>41.0</ele><time>2026-05-02T07:18:21.12Z</time></trkpt><trkpt lat="42.3569193" lon="14.1148604"><ele>43.0</ele><time>2026-05-02T07:18:22.116Z</time></trkpt><trkpt lat="42.3567199" lon="14.1147745"><ele>45.0</ele><time>2026-05-02T07:18:23.119Z</time></trkpt><trkpt lat="42.3565287" lon="14.1147095"><ele>47.0</ele><time>2026-05-02T07:18:24.115Z</time></trkpt><trkpt lat="42.3563365" lon="14.1146239"><ele>47.0</ele><time>2026-05-02T07:18:25.12Z</time></trkpt><trkpt lat="42.356121" lon="14.1145342"><ele>47.0</ele><time>2026-05-02T07:18:26.091Z</time></trkpt><trkpt lat="42.3559127" lon="14.1144576"><ele>47.0</ele><time>2026-05-02T07:18:27.101Z</time></trkpt><trkpt lat="42.3556969" lon="14.1143865"><ele>42.0</ele><time>2026-05-02T07:18:28.117Z</time></trkpt><trkpt lat="42.355487" lon="14.1143096"><ele>37.0</ele><time>2026-05-02T07:18:29.095Z</time></trkpt><trkpt lat="42.3552531" lon="14.1142205"><ele>37.0</ele><time>2026-05-02T07:18:30.115Z</time></trkpt><trkpt lat="42.3550237" lon="14.1141302"><ele>37.0</ele><time>2026-05-02T07:18:31.114Z</time></trkpt><trkpt lat="42.3548046" lon="14.1140326"><ele>36.5</ele><time>2026-05-02T07:18:32.119Z</time></trkpt><trkpt lat="42.3545814" lon="14.1139409"><ele>36.0</ele><time>2026-05-02T07:18:33.117Z</time></trkpt><trkpt lat="42.3543529" lon="14.1138517"><ele>36.0</ele><time>2026-05-02T07:18:34.122Z</time></trkpt><trkpt lat="42.3541259" lon="14.113765"><ele>36.0</ele><time>2026-05-02T07:18:35.117Z</time></trkpt><trkpt lat="42.3539014" lon="14.1136877"><ele>35.5</ele><time>2026-05-02T07:18:36.119Z</time></trkpt><trkpt lat="42.3536717" lon="14.1135941"><ele>35.0</ele><time>2026-05-02T07:18:37.123Z</time></trkpt><trkpt lat="42.353444" lon="14.1134986"><ele>35.0</ele><time>2026-05-02T07:18:38.119Z</time></trkpt><trkpt lat="42.3532233" lon="14.1134066"><ele>35.0</ele><time>2026-05-02T07:18:39.121Z</time></trkpt><trkpt lat="42.3530157" lon="14.1133202"><ele>35.0</ele><time>2026-05-02T07:18:40.118Z</time></trkpt><trkpt lat="42.3528305" lon="14.1132397"><ele>35.0</ele><time>2026-05-02T07:18:41.116Z</time></trkpt><trkpt lat="42.3526359" lon="14.1131589"><ele>35.0</ele><time>2026-05-02T07:18:42.121Z</time></trkpt><trkpt lat="42.3524391" lon="14.1130892"><ele>35.0</ele><time>2026-05-02T07:18:43.119Z</time></trkpt><trkpt lat="42.3522305" lon="14.11301"><ele>36.666666666666664</ele><time>2026-05-02T07:18:44.127Z</time></trkpt><trkpt lat="42.3520251" lon="14.1129475"><ele>38.333333333333336</ele><time>2026-05-02T07:18:45.1Z</time></trkpt><trkpt lat="42.3518185" lon="14.1128612"><ele>40.0</ele><time>2026-05-02T07:18:46.118Z</time></trkpt><trkpt lat="42.351614" lon="14.1127644"><ele>40.0</ele><time>2026-05-02T07:18:47.114Z</time></trkpt><trkpt lat="42.3514198" lon="14.1126683"><ele>40.0</ele><time>2026-05-02T07:18:48.115Z</time></trkpt><trkpt lat="42.3512541" lon="14.1125922"><ele>40.0</ele><time>2026-05-02T07:18:49.113Z</time></trkpt><trkpt lat="42.3510875" lon="14.1125217"><ele>41.0</ele><time>2026-05-02T07:18:50.092Z</time></trkpt><trkpt lat="42.3509373" lon="14.1124714"><ele>42.0</ele><time>2026-05-02T07:18:51.1Z</time></trkpt><trkpt lat="42.3507914" lon="14.1124531"><ele>43.0</ele><time>2026-05-02T07:18:52.116Z</time></trkpt><trkpt lat="42.3506532" lon="14.1124433"><ele>44.0</ele><time>2026-05-02T07:18:53.118Z</time></trkpt><trkpt lat="42.350519" lon="14.1124373"><ele>44.0</ele><time>2026-05-02T07:18:54.113Z</time></trkpt><trkpt lat="42.3504001" lon="14.1124116"><ele>44.0</ele><time>2026-05-02T07:18:55.114Z</time></trkpt><trkpt lat="42.3502821" lon="14.1123792"><ele>44.0</ele><time>2026-05-02T07:18:56.12Z</time></trkpt><trkpt lat="42.3501709" lon="14.1123581"><ele>44.0</ele><time>2026-05-02T07:18:57.114Z</time></trkpt><trkpt lat="42.3500652" lon="14.1123236"><ele>44.0</ele><time>2026-05-02T07:18:58.121Z</time></trkpt><trkpt lat="42.3499665" lon="14.1123145"><ele>44.0</ele><time>2026-05-02T07:18:59.112Z</time></trkpt><trkpt lat="42.349876" lon="14.1123317"><ele>44.0</ele><time>2026-05-02T07:19:00.12Z</time></trkpt><trkpt lat="42.3497989" lon="14.1124208"><ele>44.0</ele><time>2026-05-02T07:19:01.099Z</time></trkpt><trkpt lat="42.3497505" lon="14.1125324"><ele>44.0</ele><time>2026-05-02T07:19:02.111Z</time></trkpt><trkpt lat="42.3497095" lon="14.1126373"><ele>43.5</ele><time>2026-05-02T07:19:03.122Z</time></trkpt><trkpt lat="42.3496627" lon="14.1127284"><ele>43.0</ele><time>2026-05-02T07:19:04.116Z</time></trkpt><trkpt lat="42.3496092" lon="14.1128105"><ele>42.5</ele><time>2026-05-02T07:19:05.115Z</time></trkpt><trkpt lat="42.3495544" lon="14.1128756"><ele>42.0</ele><time>2026-05-02T07:19:06.115Z</time></trkpt><trkpt lat="42.3494967" lon="14.1129254"><ele>41.5</ele><time>2026-05-02T07:19:07.118Z</time></trkpt><trkpt lat="42.3493964" lon="14.1129791"><ele>41.0</ele><time>2026-05-02T07:19:09.125Z</time></trkpt><trkpt lat="42.3492889" lon="14.1130374"><ele>41.0</ele><time>2026-05-02T07:19:11.12Z</time></trkpt><trkpt lat="42.3491702" lon="14.1131071"><ele>41.0</ele><time>2026-05-02T07:19:13.125Z</time></trkpt><trkpt lat="42.3490921" lon="14.1131547"><ele>41.0</ele><time>2026-05-02T07:19:14.125Z</time></trkpt><trkpt lat="42.3490054" lon="14.1132091"><ele>41.0</ele><time>2026-05-02T07:19:15.121Z</time></trkpt><trkpt lat="42.3489174" lon="14.1132685"><ele>41.0</ele><time>2026-05-02T07:19:16.124Z</time></trkpt><trkpt lat="42.3488353" lon="14.1133237"><ele>41.666666666666664</ele><time>2026-05-02T07:19:17.124Z</time></trkpt><trkpt lat="42.3487603" lon="14.1133708"><ele>42.33333333333333</ele><time>2026-05-02T07:19:18.126Z</time></trkpt><trkpt lat="42.3486902" lon="14.1134104"><ele>43.0</ele><time>2026-05-02T07:19:19.121Z</time></trkpt><trkpt lat="42.348616" lon="14.1134519"><ele>43.666666666666664</ele><time>2026-05-02T07:19:20.122Z</time></trkpt><trkpt lat="42.3485423" lon="14.1134927"><ele>44.333333333333336</ele><time>2026-05-02T07:19:21.127Z</time></trkpt><trkpt lat="42.3484762" lon="14.1135304"><ele>45.0</ele><time>2026-05-02T07:19:22.127Z</time></trkpt><trkpt lat="42.3483654" lon="14.1135839"><ele>45.0</ele><time>2026-05-02T07:19:24.118Z</time></trkpt><trkpt lat="42.3482931" lon="14.1136229"><ele>45.0</ele><time>2026-05-02T07:19:26.118Z</time></trkpt><trkpt lat="42.3483529" lon="14.1137224"><ele>45.0</ele><time>2026-05-02T07:19:29.118Z</time></trkpt><trkpt lat="42.3484349" lon="14.1136829"><ele>45.0</ele><time>2026-05-02T07:19:31.118Z</time></trkpt><trkpt lat="42.3485737" lon="14.1136069"><ele>45.0</ele><time>2026-05-02T07:19:33.116Z</time></trkpt><trkpt lat="42.3486823" lon="14.1135715"><ele>45.0</ele><time>2026-05-02T07:19:34.117Z</time></trkpt><trkpt lat="42.3487944" lon="14.1135188"><ele>45.0</ele><time>2026-05-02T07:19:35.118Z</time></trkpt><trkpt lat="42.3489203" lon="14.1134425"><ele>45.0</ele><time>2026-05-02T07:19:36.113Z</time></trkpt><trkpt lat="42.3490606" lon="14.1133573"><ele>45.0</ele><time>2026-05-02T07:19:37.125Z</time></trkpt><trkpt lat="42.3492081" lon="14.1132689"><ele>44.0</ele><time>2026-05-02T07:19:38.12Z</time></trkpt><trkpt lat="42.349322" lon="14.1131738"><ele>43.0</ele><time>2026-05-02T07:19:39.124Z</time></trkpt><trkpt lat="42.3494282" lon="14.1130773"><ele>42.0</ele><time>2026-05-02T07:19:40.125Z</time></trkpt><trkpt lat="42.3495235" lon="14.1130228"><ele>41.0</ele><time>2026-05-02T07:19:41.122Z</time></trkpt><trkpt lat="42.3496184" lon="14.1129706"><ele>41.0</ele><time>2026-05-02T07:19:42.121Z</time></trkpt><trkpt lat="42.3497075" lon="14.1129277"><ele>41.0</ele><time>2026-05-02T07:19:43.12Z</time></trkpt><trkpt lat="42.3497947" lon="14.1128833"><ele>41.0</ele><time>2026-05-02T07:19:44.102Z</time></trkpt><trkpt lat="42.3498681" lon="14.1128249"><ele>41.0</ele><time>2026-05-02T07:19:45.096Z</time></trkpt><trkpt lat="42.3499374" lon="14.1127758"><ele>41.0</ele><time>2026-05-02T07:19:46.096Z</time></trkpt><trkpt lat="42.3500051" lon="14.1127235"><ele>41.0</ele><time>2026-05-02T07:19:47.096Z</time></trkpt><trkpt lat="42.3500663" lon="14.112659"><ele>41.599999999999994</ele><time>2026-05-02T07:19:48.091Z</time></trkpt><trkpt lat="42.350109" lon="14.1125889"><ele>42.2</ele><time>2026-05-02T07:19:49.095Z</time></trkpt><trkpt lat="42.3500984" lon="14.112424"><ele>42.8</ele><time>2026-05-02T07:19:51.1Z</time></trkpt><trkpt lat="42.3499855" lon="14.1123609"><ele>43.400000000000006</ele><time>2026-05-02T07:19:53.1Z</time></trkpt><trkpt lat="42.3499156" lon="14.1124089"><ele>44.0</ele><time>2026-05-02T07:19:54.097Z</time></trkpt><trkpt lat="42.3498459" lon="14.1124941"><ele>44.0</ele><time>2026-05-02T07:19:55.095Z</time></trkpt><trkpt lat="42.349777" lon="14.1125745"><ele>44.0</ele><time>2026-05-02T07:19:56.112Z</time></trkpt><trkpt lat="42.3497025" lon="14.1126295"><ele>44.0</ele><time>2026-05-02T07:19:57.115Z</time></trkpt><trkpt lat="42.3496378" lon="14.112686"><ele>44.0</ele><time>2026-05-02T07:19:58.121Z</time></trkpt><trkpt lat="42.3495348" lon="14.1127398"><ele>44.0</ele><time>2026-05-02T07:20:00.116Z</time></trkpt><trkpt lat="42.3494555" lon="14.1126638"><ele>43.800000000000004</ele><time>2026-05-02T07:20:02.107Z</time></trkpt><trkpt lat="42.3494142" lon="14.1125122"><ele>43.6</ele><time>2026-05-02T07:20:04.108Z</time></trkpt><trkpt lat="42.3493353" lon="14.1123638"><ele>43.4</ele><time>2026-05-02T07:20:06.116Z</time></trkpt><trkpt lat="42.349269" lon="14.1122974"><ele>43.2</ele><time>2026-05-02T07:20:07.116Z</time></trkpt><trkpt lat="42.3492002" lon="14.1122419"><ele>43.0</ele><time>2026-05-02T07:20:08.113Z</time></trkpt><trkpt lat="42.349138" lon="14.1121928"><ele>43.0</ele><time>2026-05-02T07:20:09.119Z</time></trkpt><trkpt lat="42.3490526" lon="14.1121206"><ele>43.0</ele><time>2026-05-02T07:20:11.112Z</time></trkpt><trkpt lat="42.3490099" lon="14.1120247"><ele>43.0</ele><time>2026-05-02T07:20:13.087Z</time></trkpt><trkpt lat="42.3490067" lon="14.1118673"><ele>43.0</ele><time>2026-05-02T07:20:15.084Z</time></trkpt><trkpt lat="42.3490185" lon="14.111759"><ele>43.0</ele><time>2026-05-02T07:20:16.089Z</time></trkpt><trkpt lat="42.3490116" lon="14.1116676"><ele>43.0</ele><time>2026-05-02T07:20:17.088Z</time></trkpt><trkpt lat="42.3489809" lon="14.1115063"><ele>43.0</ele><time>2026-05-02T07:20:19.089Z</time></trkpt><trkpt lat="42.3489658" lon="14.1114107"><ele>43.0</ele><time>2026-05-02T07:20:20.094Z</time></trkpt><trkpt lat="42.3489494" lon="14.1113122"><ele>43.0</ele><time>2026-05-02T07:20:21.101Z</time></trkpt><trkpt lat="42.3489332" lon="14.1112224"><ele>43.0</ele><time>2026-05-02T07:20:22.098Z</time></trkpt><trkpt lat="42.3489199" lon="14.1111309"><ele>43.0</ele><time>2026-05-02T07:20:23.097Z</time></trkpt><trkpt lat="42.3489095" lon="14.1110375"><ele>43.0</ele><time>2026-05-02T07:20:24.097Z</time></trkpt><trkpt lat="42.3488944" lon="14.1108817"><ele>43.4</ele><time>2026-05-02T07:20:26.092Z</time></trkpt><trkpt lat="42.3489041" lon="14.110738"><ele>43.8</ele><time>2026-05-02T07:20:28.093Z</time></trkpt><trkpt lat="42.348927" lon="14.1105912"><ele>44.2</ele><time>2026-05-02T07:20:30.096Z</time></trkpt><trkpt lat="42.3489154" lon="14.1104093"><ele>44.6</ele><time>2026-05-02T07:20:32.087Z</time></trkpt><trkpt lat="42.3488967" lon="14.1103016"><ele>45.0</ele><time>2026-05-02T07:20:33.089Z</time></trkpt><trkpt lat="42.3488858" lon="14.1102109"><ele>45.0</ele><time>2026-05-02T07:20:34.092Z</time></trkpt><trkpt lat="42.3488825" lon="14.1100528"><ele>45.0</ele><time>2026-05-02T07:20:36.09Z</time></trkpt><trkpt lat="42.3488382" lon="14.1099291"><ele>45.0</ele><time>2026-05-02T07:20:38.094Z</time></trkpt><trkpt lat="42.3487474" lon="14.1098348"><ele>45.0</ele><time>2026-05-02T07:20:40.109Z</time></trkpt><trkpt lat="42.3486487" lon="14.1097675"><ele>45.0</ele><time>2026-05-02T07:20:42.11Z</time></trkpt><trkpt lat="42.3485613" lon="14.1097123"><ele>45.333333333333336</ele><time>2026-05-02T07:20:44.112Z</time></trkpt><trkpt lat="42.3484917" lon="14.1096463"><ele>45.666666666666664</ele><time>2026-05-02T07:20:47.112Z</time></trkpt><trkpt lat="42.3484235" lon="14.1095836"><ele>46.0</ele><time>2026-05-02T07:20:49.103Z</time></trkpt><trkpt lat="42.3483399" lon="14.1095029"><ele>46.33333333333333</ele><time>2026-05-02T07:20:51.105Z</time></trkpt><trkpt lat="42.3482867" lon="14.1094405"><ele>46.666666666666664</ele><time>2026-05-02T07:20:52.105Z</time></trkpt><trkpt lat="42.3482347" lon="14.1093683"><ele>47.0</ele><time>2026-05-02T07:20:53.114Z</time></trkpt><trkpt lat="42.3481786" lon="14.1092808"><ele>47.0</ele><time>2026-05-02T07:20:54.113Z</time></trkpt><trkpt lat="42.3481264" lon="14.1091856"><ele>47.0</ele><time>2026-05-02T07:20:55.104Z</time></trkpt><trkpt lat="42.3480737" lon="14.1091058"><ele>47.0</ele><time>2026-05-02T07:20:56.108Z</time></trkpt><trkpt lat="42.3480163" lon="14.1090428"><ele>47.0</ele><time>2026-05-02T07:20:57.108Z</time></trkpt><trkpt lat="42.3479693" lon="14.108981"><ele>47.0</ele><time>2026-05-02T07:20:58.089Z</time></trkpt><trkpt lat="42.3479063" lon="14.108853"><ele>47.0</ele><time>2026-05-02T07:21:00.085Z</time></trkpt><trkpt lat="42.3478748" lon="14.1087663"><ele>46.8</ele><time>2026-05-02T07:21:01.083Z</time></trkpt><trkpt lat="42.3478335" lon="14.108656"><ele>46.6</ele><time>2026-05-02T07:21:02.081Z</time></trkpt><trkpt lat="42.347785" lon="14.1085455"><ele>46.4</ele><time>2026-05-02T07:21:03.084Z</time></trkpt><trkpt lat="42.3477335" lon="14.108446"><ele>46.199999999999996</ele><time>2026-05-02T07:21:04.085Z</time></trkpt><trkpt lat="42.3476745" lon="14.108332"><ele>46.0</ele><time>2026-05-02T07:21:05.083Z</time></trkpt><trkpt lat="42.34762" lon="14.1082142"><ele>46.0</ele><time>2026-05-02T07:21:06.083Z</time></trkpt><trkpt lat="42.3475689" lon="14.1081172"><ele>46.0</ele><time>2026-05-02T07:21:07.089Z</time></trkpt><trkpt lat="42.3475218" lon="14.1080295"><ele>46.0</ele><time>2026-05-02T07:21:08.088Z</time></trkpt><trkpt lat="42.3474875" lon="14.1079569"><ele>46.0</ele><time>2026-05-02T07:21:09.091Z</time></trkpt><trkpt lat="42.3474585" lon="14.1078706"><ele>46.0</ele><time>2026-05-02T07:21:10.088Z</time></trkpt><trkpt lat="42.3474331" lon="14.1077583"><ele>46.0</ele><time>2026-05-02T07:21:11.089Z</time></trkpt><trkpt lat="42.3474142" lon="14.10763"><ele>46.0</ele><time>2026-05-02T07:21:12.093Z</time></trkpt><trkpt lat="42.3473844" lon="14.1075081"><ele>46.0</ele><time>2026-05-02T07:21:13.087Z</time></trkpt><trkpt lat="42.3473588" lon="14.1074069"><ele>46.0</ele><time>2026-05-02T07:21:14.091Z</time></trkpt><trkpt lat="42.3473333" lon="14.1073254"><ele>46.0</ele><time>2026-05-02T07:21:15.088Z</time></trkpt><trkpt lat="42.3472984" lon="14.1072339"><ele>46.0</ele><time>2026-05-02T07:21:16.095Z</time></trkpt><trkpt lat="42.3472582" lon="14.1071366"><ele>46.0</ele><time>2026-05-02T07:21:17.086Z</time></trkpt><trkpt lat="42.3472218" lon="14.1070473"><ele>46.0</ele><time>2026-05-02T07:21:18.094Z</time></trkpt><trkpt lat="42.3471754" lon="14.1069063"><ele>46.0</ele><time>2026-05-02T07:21:20.092Z</time></trkpt><trkpt lat="42.3471988" lon="14.1067484"><ele>46.0</ele><time>2026-05-02T07:21:22.095Z</time></trkpt><trkpt lat="42.3472284" lon="14.106651"><ele>46.0</ele><time>2026-05-02T07:21:23.088Z</time></trkpt><trkpt lat="42.3472754" lon="14.1065536"><ele>46.0</ele><time>2026-05-02T07:21:24.1Z</time></trkpt><trkpt lat="42.3473237" lon="14.1064631"><ele>46.0</ele><time>2026-05-02T07:21:25.1Z</time></trkpt><trkpt lat="42.3473556" lon="14.1063717"><ele>46.0</ele><time>2026-05-02T07:21:26.095Z</time></trkpt><trkpt lat="42.3473846" lon="14.1062594"><ele>46.0</ele><time>2026-05-02T07:21:27.098Z</time></trkpt><trkpt lat="42.3474196" lon="14.106149"><ele>46.0</ele><time>2026-05-02T07:21:28.1Z</time></trkpt><trkpt lat="42.3474555" lon="14.1060395"><ele>46.0</ele><time>2026-05-02T07:21:29.104Z</time></trkpt><trkpt lat="42.3474804" lon="14.1059369"><ele>46.0</ele><time>2026-05-02T07:21:30.1Z</time></trkpt><trkpt lat="42.3474991" lon="14.1058412"><ele>46.0</ele><time>2026-05-02T07:21:31.095Z</time></trkpt><trkpt lat="42.3475322" lon="14.1057626"><ele>46.0</ele><time>2026-05-02T07:21:32.092Z</time></trkpt><trkpt lat="42.3475911" lon="14.1056829"><ele>46.0</ele><time>2026-05-02T07:21:33.095Z</time></trkpt><trkpt lat="42.3476617" lon="14.1055828"><ele>46.0</ele><time>2026-05-02T07:21:34.101Z</time></trkpt><trkpt lat="42.3477289" lon="14.1054523"><ele>46.0</ele><time>2026-05-02T07:21:35.098Z</time></trkpt><trkpt lat="42.3477875" lon="14.1053185"><ele>45.8</ele><time>2026-05-02T07:21:36.096Z</time></trkpt><trkpt lat="42.3478495" lon="14.10521"><ele>45.599999999999994</ele><time>2026-05-02T07:21:37.097Z</time></trkpt><trkpt lat="42.3479096" lon="14.1051068"><ele>45.4</ele><time>2026-05-02T07:21:38.1Z</time></trkpt><trkpt lat="42.3479722" lon="14.1050015"><ele>45.2</ele><time>2026-05-02T07:21:39.092Z</time></trkpt><trkpt lat="42.3480316" lon="14.1048942"><ele>45.0</ele><time>2026-05-02T07:21:40.094Z</time></trkpt><trkpt lat="42.3480983" lon="14.1048046"><ele>46.2</ele><time>2026-05-02T07:21:41.09Z</time></trkpt><trkpt lat="42.348164" lon="14.1047312"><ele>47.4</ele><time>2026-05-02T07:21:42.096Z</time></trkpt><trkpt lat="42.3482266" lon="14.1046436"><ele>48.599999999999994</ele><time>2026-05-02T07:21:43.091Z</time></trkpt><trkpt lat="42.3482861" lon="14.1045318"><ele>49.8</ele><time>2026-05-02T07:21:44.104Z</time></trkpt><trkpt lat="42.3483385" lon="14.1044139"><ele>51.0</ele><time>2026-05-02T07:21:45.101Z</time></trkpt><trkpt lat="42.3483739" lon="14.1042797"><ele>51.0</ele><time>2026-05-02T07:21:46.098Z</time></trkpt><trkpt lat="42.3484026" lon="14.104146"><ele>51.0</ele><time>2026-05-02T07:21:47.098Z</time></trkpt><trkpt lat="42.3484341" lon="14.1040063"><ele>51.0</ele><time>2026-05-02T07:21:48.096Z</time></trkpt><trkpt lat="42.3484693" lon="14.1038719"><ele>51.0</ele><time>2026-05-02T07:21:49.093Z</time></trkpt><trkpt lat="42.3484965" lon="14.1037309"><ele>51.0</ele><time>2026-05-02T07:21:50.096Z</time></trkpt><trkpt lat="42.3485216" lon="14.1035817"><ele>50.25</ele><time>2026-05-02T07:21:51.104Z</time></trkpt><trkpt lat="42.3485343" lon="14.1034158"><ele>49.5</ele><time>2026-05-02T07:21:52.107Z</time></trkpt><trkpt lat="42.3485457" lon="14.1032483"><ele>48.75</ele><time>2026-05-02T07:21:53.1Z</time></trkpt><trkpt lat="42.3485564" lon="14.1030758"><ele>48.0</ele><time>2026-05-02T07:21:54.099Z</time></trkpt><trkpt lat="42.3485687" lon="14.1029006"><ele>48.0</ele><time>2026-05-02T07:21:55.099Z</time></trkpt><trkpt lat="42.3485764" lon="14.1027419"><ele>48.0</ele><time>2026-05-02T07:21:56.099Z</time></trkpt><trkpt lat="42.3485779" lon="14.1025928"><ele>48.0</ele><time>2026-05-02T07:21:57.096Z</time></trkpt><trkpt lat="42.3485943" lon="14.1024405"><ele>48.0</ele><time>2026-05-02T07:21:58.104Z</time></trkpt><trkpt lat="42.348626" lon="14.1022747"><ele>48.0</ele><time>2026-05-02T07:21:59.1Z</time></trkpt><trkpt lat="42.3486582" lon="14.1021148"><ele>48.0</ele><time>2026-05-02T07:22:00.103Z</time></trkpt><trkpt lat="42.348688" lon="14.1019602"><ele>48.0</ele><time>2026-05-02T07:22:01.107Z</time></trkpt><trkpt lat="42.3487245" lon="14.1018056"><ele>48.0</ele><time>2026-05-02T07:22:02.103Z</time></trkpt><trkpt lat="42.3487618" lon="14.101658"><ele>48.333333333333336</ele><time>2026-05-02T07:22:03.102Z</time></trkpt><trkpt lat="42.3487918" lon="14.1015261"><ele>48.66666666666667</ele><time>2026-05-02T07:22:04.103Z</time></trkpt><trkpt lat="42.3488241" lon="14.1014087"><ele>49.0</ele><time>2026-05-02T07:22:05.096Z</time></trkpt><trkpt lat="42.3488575" lon="14.1013028"><ele>49.333333333333336</ele><time>2026-05-02T07:22:06.097Z</time></trkpt><trkpt lat="42.3488879" lon="14.1012203"><ele>49.66666666666667</ele><time>2026-05-02T07:22:07.086Z</time></trkpt><trkpt lat="42.3489285" lon="14.1011015"><ele>50.0</ele><time>2026-05-02T07:22:09.092Z</time></trkpt><trkpt lat="42.3489841" lon="14.101051"><ele>50.4</ele><time>2026-05-02T07:22:11.096Z</time></trkpt><trkpt lat="42.3490986" lon="14.1010039"><ele>50.8</ele><time>2026-05-02T07:22:13.096Z</time></trkpt><trkpt lat="42.3491531" lon="14.1009314"><ele>51.2</ele><time>2026-05-02T07:22:14.096Z</time></trkpt><trkpt lat="42.349192" lon="14.1008366"><ele>51.6</ele><time>2026-05-02T07:22:15.097Z</time></trkpt><trkpt lat="42.3492208" lon="14.1007525"><ele>52.0</ele><time>2026-05-02T07:22:16.095Z</time></trkpt><trkpt lat="42.3493035" lon="14.1006457"><ele>52.0</ele><time>2026-05-02T07:22:18.092Z</time></trkpt><trkpt lat="42.3493846" lon="14.1005377"><ele>52.0</ele><time>2026-05-02T07:22:20.094Z</time></trkpt><trkpt lat="42.3494263" lon="14.1004506"><ele>52.0</ele><time>2026-05-02T07:22:21.104Z</time></trkpt><trkpt lat="42.3494765" lon="14.1003311"><ele>52.0</ele><time>2026-05-02T07:22:22.1Z</time></trkpt><trkpt lat="42.3495222" lon="14.1002102"><ele>52.0</ele><time>2026-05-02T07:22:23.097Z</time></trkpt><trkpt lat="42.3495637" lon="14.1000969"><ele>52.0</ele><time>2026-05-02T07:22:24.096Z</time></trkpt><trkpt lat="42.3495916" lon="14.0999895"><ele>52.0</ele><time>2026-05-02T07:22:25.095Z</time></trkpt><trkpt lat="42.3496124" lon="14.099906"><ele>52.0</ele><time>2026-05-02T07:22:26.093Z</time></trkpt><trkpt lat="42.3496423" lon="14.0997912"><ele>52.0</ele><time>2026-05-02T07:22:28.1Z</time></trkpt><trkpt lat="42.349649" lon="14.0996702"><ele>52.0</ele><time>2026-05-02T07:22:30.095Z</time></trkpt><trkpt lat="42.349601" lon="14.0995074"><ele>51.714285714285715</ele><time>2026-05-02T07:22:32.096Z</time></trkpt><trkpt lat="42.3495554" lon="14.099414"><ele>51.42857142857143</ele><time>2026-05-02T07:22:33.101Z</time></trkpt><trkpt lat="42.3495095" lon="14.0993172"><ele>51.142857142857146</ele><time>2026-05-02T07:22:34.1Z</time></trkpt><trkpt lat="42.3494695" lon="14.0992302"><ele>50.85714285714286</ele><time>2026-05-02T07:22:35.097Z</time></trkpt><trkpt lat="42.3494491" lon="14.0991441"><ele>50.57142857142857</ele><time>2026-05-02T07:22:36.099Z</time></trkpt><trkpt lat="42.3494405" lon="14.0990529"><ele>50.28571428571429</ele><time>2026-05-02T07:22:37.095Z</time></trkpt><trkpt lat="42.3494408" lon="14.0989623"><ele>50.0</ele><time>2026-05-02T07:22:38.098Z</time></trkpt><trkpt lat="42.3494808" lon="14.0988149"><ele>50.0</ele><time>2026-05-02T07:22:40.092Z</time></trkpt><trkpt lat="42.3495474" lon="14.0986481"><ele>50.0</ele><time>2026-05-02T07:22:42.088Z</time></trkpt><trkpt lat="42.3495882" lon="14.0985133"><ele>50.0</ele><time>2026-05-02T07:22:43.09Z</time></trkpt><trkpt lat="42.34963" lon="14.0983642"><ele>50.0</ele><time>2026-05-02T07:22:44.098Z</time></trkpt><trkpt lat="42.3496631" lon="14.0982151"><ele>50.2</ele><time>2026-05-02T07:22:45.098Z</time></trkpt><trkpt lat="42.3496926" lon="14.0980724"><ele>50.4</ele><time>2026-05-02T07:22:46.099Z</time></trkpt><trkpt lat="42.3497153" lon="14.097938"><ele>50.599999999999994</ele><time>2026-05-02T07:22:47.1Z</time></trkpt><trkpt lat="42.3497401" lon="14.0978193"><ele>50.8</ele><time>2026-05-02T07:22:48.103Z</time></trkpt><trkpt lat="42.3497752" lon="14.0976858"><ele>51.0</ele><time>2026-05-02T07:22:49.096Z</time></trkpt><trkpt lat="42.3498171" lon="14.0975359"><ele>51.0</ele><time>2026-05-02T07:22:50.101Z</time></trkpt><trkpt lat="42.3498582" lon="14.0973832"><ele>51.0</ele><time>2026-05-02T07:22:51.1Z</time></trkpt><trkpt lat="42.3498963" lon="14.0972228"><ele>51.0</ele><time>2026-05-02T07:22:52.101Z</time></trkpt><trkpt lat="42.3499296" lon="14.0970518"><ele>51.0</ele><time>2026-05-02T07:22:53.099Z</time></trkpt><trkpt lat="42.3499605" lon="14.0968804"><ele>51.0</ele><time>2026-05-02T07:22:54.096Z</time></trkpt><trkpt lat="42.3499829" lon="14.0967175"><ele>51.0</ele><time>2026-05-02T07:22:55.098Z</time></trkpt><trkpt lat="42.3500005" lon="14.0965589"><ele>51.0</ele><time>2026-05-02T07:22:56.099Z</time></trkpt><trkpt lat="42.3500126" lon="14.0963945"><ele>51.0</ele><time>2026-05-02T07:22:57.095Z</time></trkpt><trkpt lat="42.350023" lon="14.0962258"><ele>51.25</ele><time>2026-05-02T07:22:58.1Z</time></trkpt><trkpt lat="42.3500348" lon="14.0960567"><ele>51.5</ele><time>2026-05-02T07:22:59.095Z</time></trkpt><trkpt lat="42.3500433" lon="14.0958903"><ele>51.75</ele><time>2026-05-02T07:23:00.097Z</time></trkpt><trkpt lat="42.3500445" lon="14.0957244"><ele>52.0</ele><time>2026-05-02T07:23:01.1Z</time></trkpt><trkpt lat="42.3500479" lon="14.0955657"><ele>52.0</ele><time>2026-05-02T07:23:02.098Z</time></trkpt><trkpt lat="42.350051" lon="14.095408"><ele>52.0</ele><time>2026-05-02T07:23:03.095Z</time></trkpt><trkpt lat="42.3500539" lon="14.0952473"><ele>52.0</ele><time>2026-05-02T07:23:04.101Z</time></trkpt><trkpt lat="42.3500578" lon="14.0950833"><ele>52.0</ele><time>2026-05-02T07:23:05.098Z</time></trkpt><trkpt lat="42.3500544" lon="14.094916"><ele>52.0</ele><time>2026-05-02T07:23:06.1Z</time></trkpt><trkpt lat="42.3500435" lon="14.0947507"><ele>52.0</ele><time>2026-05-02T07:23:07.108Z</time></trkpt><trkpt lat="42.3500235" lon="14.0945887"><ele>52.0</ele><time>2026-05-02T07:23:08.099Z</time></trkpt><trkpt lat="42.3499963" lon="14.0944328"><ele>52.0</ele><time>2026-05-02T07:23:09.105Z</time></trkpt><trkpt lat="42.3499689" lon="14.0942816"><ele>52.0</ele><time>2026-05-02T07:23:10.1Z</time></trkpt><trkpt lat="42.3499415" lon="14.0941413"><ele>52.0</ele><time>2026-05-02T07:23:11.108Z</time></trkpt><trkpt lat="42.3499132" lon="14.0940161"><ele>52.0</ele><time>2026-05-02T07:23:12.1Z</time></trkpt><trkpt lat="42.3498859" lon="14.0939063"><ele>52.0</ele><time>2026-05-02T07:23:13.106Z</time></trkpt><trkpt lat="42.3498632" lon="14.0937949"><ele>52.0</ele><time>2026-05-02T07:23:14.107Z</time></trkpt><trkpt lat="42.3498414" lon="14.0936923"><ele>51.83333333333333</ele><time>2026-05-02T07:23:15.103Z</time></trkpt><trkpt lat="42.349815" lon="14.0935751"><ele>51.666666666666664</ele><time>2026-05-02T07:23:16.104Z</time></trkpt><trkpt lat="42.3497813" lon="14.0934693"><ele>51.5</ele><time>2026-05-02T07:23:17.103Z</time></trkpt><trkpt lat="42.3497451" lon="14.0933835"><ele>51.33333333333333</ele><time>2026-05-02T07:23:18.104Z</time></trkpt><trkpt lat="42.3497072" lon="14.0933122"><ele>51.166666666666664</ele><time>2026-05-02T07:23:19.098Z</time></trkpt><trkpt lat="42.3496815" lon="14.0931887"><ele>51.0</ele><time>2026-05-02T07:23:21.1Z</time></trkpt><trkpt lat="42.349676" lon="14.0930263"><ele>51.833333333333336</ele><time>2026-05-02T07:23:23.095Z</time></trkpt><trkpt lat="42.3496719" lon="14.0929301"><ele>52.66666666666667</ele><time>2026-05-02T07:23:24.095Z</time></trkpt><trkpt lat="42.3496525" lon="14.0928382"><ele>53.5</ele><time>2026-05-02T07:23:25.098Z</time></trkpt><trkpt lat="42.3496225" lon="14.0927418"><ele>54.333333333333336</ele><time>2026-05-02T07:23:26.1Z</time></trkpt><trkpt lat="42.349578" lon="14.0926448"><ele>55.16666666666667</ele><time>2026-05-02T07:23:27.098Z</time></trkpt><trkpt lat="42.349524" lon="14.0925406"><ele>56.0</ele><time>2026-05-02T07:23:28.104Z</time></trkpt><trkpt lat="42.3494579" lon="14.0924411"><ele>56.199999999999996</ele><time>2026-05-02T07:23:29.098Z</time></trkpt><trkpt lat="42.3493959" lon="14.092333"><ele>56.39999999999999</ele><time>2026-05-02T07:23:30.097Z</time></trkpt><trkpt lat="42.3493489" lon="14.0922139"><ele>56.6</ele><time>2026-05-02T07:23:31.096Z</time></trkpt><trkpt lat="42.3493199" lon="14.0920816"><ele>56.8</ele><time>2026-05-02T07:23:32.094Z</time></trkpt><trkpt lat="42.349287" lon="14.0919362"><ele>57.0</ele><time>2026-05-02T07:23:33.091Z</time></trkpt><trkpt lat="42.3492516" lon="14.0917729"><ele>57.0</ele><time>2026-05-02T07:23:34.098Z</time></trkpt><trkpt lat="42.3492178" lon="14.091626"><ele>57.0</ele><time>2026-05-02T07:23:35.096Z</time></trkpt><trkpt lat="42.3491918" lon="14.0914916"><ele>57.0</ele><time>2026-05-02T07:23:36.101Z</time></trkpt><trkpt lat="42.3491683" lon="14.0913546"><ele>57.0</ele><time>2026-05-02T07:23:37.099Z</time></trkpt><trkpt lat="42.3491539" lon="14.0912163"><ele>57.0</ele><time>2026-05-02T07:23:38.099Z</time></trkpt><trkpt lat="42.349144" lon="14.0910931"><ele>57.0</ele><time>2026-05-02T07:23:39.094Z</time></trkpt><trkpt lat="42.3491427" lon="14.0909792"><ele>57.0</ele><time>2026-05-02T07:23:40.102Z</time></trkpt><trkpt lat="42.349143" lon="14.0908655"><ele>57.0</ele><time>2026-05-02T07:23:41.097Z</time></trkpt><trkpt lat="42.3491341" lon="14.0907487"><ele>57.0</ele><time>2026-05-02T07:23:42.096Z</time></trkpt><trkpt lat="42.3491105" lon="14.0906209"><ele>57.0</ele><time>2026-05-02T07:23:43.099Z</time></trkpt><trkpt lat="42.3490771" lon="14.0904859"><ele>57.0</ele><time>2026-05-02T07:23:44.103Z</time></trkpt><trkpt lat="42.3490376" lon="14.0903299"><ele>57.0</ele><time>2026-05-02T07:23:45.098Z</time></trkpt><trkpt lat="42.3490026" lon="14.0901723"><ele>57.0</ele><time>2026-05-02T07:23:46.097Z</time></trkpt><trkpt lat="42.3489762" lon="14.0900225"><ele>57.0</ele><time>2026-05-02T07:23:47.1Z</time></trkpt><trkpt lat="42.3489544" lon="14.0898745"><ele>57.0</ele><time>2026-05-02T07:23:48.098Z</time></trkpt><trkpt lat="42.3489292" lon="14.0897072"><ele>57.0</ele><time>2026-05-02T07:23:49.11Z</time></trkpt><trkpt lat="42.348909" lon="14.0895485"><ele>57.0</ele><time>2026-05-02T07:23:50.095Z</time></trkpt><trkpt lat="42.3488956" lon="14.0894067"><ele>57.0</ele><time>2026-05-02T07:23:51.106Z</time></trkpt><trkpt lat="42.3488799" lon="14.0892719"><ele>59.0</ele><time>2026-05-02T07:23:52.1Z</time></trkpt><trkpt lat="42.348859" lon="14.0891282"><ele>61.0</ele><time>2026-05-02T07:23:53.099Z</time></trkpt><trkpt lat="42.3488399" lon="14.0889748"><ele>63.0</ele><time>2026-05-02T07:23:54.101Z</time></trkpt><trkpt lat="42.3488243" lon="14.0888118"><ele>65.0</ele><time>2026-05-02T07:23:55.099Z</time></trkpt><trkpt lat="42.3488191" lon="14.0886422"><ele>65.0</ele><time>2026-05-02T07:23:56.1Z</time></trkpt><trkpt lat="42.3488152" lon="14.0884806"><ele>65.0</ele><time>2026-05-02T07:23:57.098Z</time></trkpt><trkpt lat="42.3488121" lon="14.0883301"><ele>65.0</ele><time>2026-05-02T07:23:58.099Z</time></trkpt><trkpt lat="42.3488084" lon="14.0881943"><ele>65.0</ele><time>2026-05-02T07:23:59.099Z</time></trkpt><trkpt lat="42.3488024" lon="14.0880703"><ele>65.0</ele><time>2026-05-02T07:24:00.097Z</time></trkpt><trkpt lat="42.3487931" lon="14.0879632"><ele>64.66666666666667</ele><time>2026-05-02T07:24:01.096Z</time></trkpt><trkpt lat="42.3487753" lon="14.0878611"><ele>64.33333333333334</ele><time>2026-05-02T07:24:02.098Z</time></trkpt><trkpt lat="42.3487466" lon="14.0877491"><ele>64.0</ele><time>2026-05-02T07:24:03.094Z</time></trkpt><trkpt lat="42.3487105" lon="14.0876412"><ele>63.66666666666667</ele><time>2026-05-02T07:24:04.094Z</time></trkpt><trkpt lat="42.3486882" lon="14.0875265"><ele>63.333333333333336</ele><time>2026-05-02T07:24:05.097Z</time></trkpt><trkpt lat="42.3486771" lon="14.0874058"><ele>63.0</ele><time>2026-05-02T07:24:06.092Z</time></trkpt><trkpt lat="42.3486671" lon="14.0873009"><ele>63.0</ele><time>2026-05-02T07:24:07.101Z</time></trkpt><trkpt lat="42.3486484" lon="14.0871891"><ele>63.0</ele><time>2026-05-02T07:24:08.093Z</time></trkpt><trkpt lat="42.3486136" lon="14.0870929"><ele>63.0</ele><time>2026-05-02T07:24:09.098Z</time></trkpt><trkpt lat="42.3485683" lon="14.0870181"><ele>63.0</ele><time>2026-05-02T07:24:10.096Z</time></trkpt><trkpt lat="42.3485122" lon="14.0869477"><ele>63.0</ele><time>2026-05-02T07:24:11.098Z</time></trkpt><trkpt lat="42.3484434" lon="14.0868791"><ele>63.0</ele><time>2026-05-02T07:24:12.109Z</time></trkpt><trkpt lat="42.3483757" lon="14.0868245"><ele>63.0</ele><time>2026-05-02T07:24:13.101Z</time></trkpt><trkpt lat="42.3483122" lon="14.086777"><ele>63.0</ele><time>2026-05-02T07:24:14.104Z</time></trkpt><trkpt lat="42.3482567" lon="14.0867279"><ele>63.0</ele><time>2026-05-02T07:24:15.098Z</time></trkpt><trkpt lat="42.3481668" lon="14.0866577"><ele>63.0</ele><time>2026-05-02T07:24:17.099Z</time></trkpt><trkpt lat="42.3481269" lon="14.086553"><ele>63.0</ele><time>2026-05-02T07:24:19.097Z</time></trkpt><trkpt lat="42.3481128" lon="14.0864497"><ele>63.0</ele><time>2026-05-02T07:24:21.1Z</time></trkpt><trkpt lat="42.3480936" lon="14.086342"><ele>63.0</ele><time>2026-05-02T07:24:24.1Z</time></trkpt><trkpt lat="42.3481012" lon="14.086229"><ele>63.0</ele><time>2026-05-02T07:24:26.098Z</time></trkpt><trkpt lat="42.3481124" lon="14.0860963"><ele>63.0</ele><time>2026-05-02T07:24:28.099Z</time></trkpt><trkpt lat="42.3481227" lon="14.0859731"><ele>63.0</ele><time>2026-05-02T07:24:30.093Z</time></trkpt><trkpt lat="42.3480905" lon="14.0858667"><ele>63.0</ele><time>2026-05-02T07:24:33.092Z</time></trkpt><trkpt lat="42.3480649" lon="14.0857773"><ele>63.0</ele><time>2026-05-02T07:24:36.093Z</time></trkpt><trkpt lat="42.3480352" lon="14.0856561"><ele>64.2</ele><time>2026-05-02T07:24:38.092Z</time></trkpt><trkpt lat="42.348031" lon="14.0855119"><ele>65.4</ele><time>2026-05-02T07:24:40.093Z</time></trkpt><trkpt lat="42.3480167" lon="14.0853717"><ele>66.60000000000001</ele><time>2026-05-02T07:24:42.096Z</time></trkpt><trkpt lat="42.3479858" lon="14.0852569"><ele>67.8</ele><time>2026-05-02T07:24:44.096Z</time></trkpt><trkpt lat="42.3479196" lon="14.0851147"><ele>69.0</ele><time>2026-05-02T07:24:46.098Z</time></trkpt><trkpt lat="42.347861" lon="14.0849828"><ele>68.83333333333333</ele><time>2026-05-02T07:24:48.098Z</time></trkpt><trkpt lat="42.347842" lon="14.0848908"><ele>68.66666666666667</ele><time>2026-05-02T07:24:49.089Z</time></trkpt><trkpt lat="42.3478279" lon="14.084776"><ele>68.5</ele><time>2026-05-02T07:24:50.087Z</time></trkpt><trkpt lat="42.3478132" lon="14.0846579"><ele>68.33333333333334</ele><time>2026-05-02T07:24:51.093Z</time></trkpt><trkpt lat="42.3477969" lon="14.0845637"><ele>68.16666666666667</ele><time>2026-05-02T07:24:52.092Z</time></trkpt><trkpt lat="42.3477575" lon="14.084468"><ele>68.0</ele><time>2026-05-02T07:24:53.088Z</time></trkpt><trkpt lat="42.3477147" lon="14.0843632"><ele>68.0</ele><time>2026-05-02T07:24:54.09Z</time></trkpt><trkpt lat="42.3476781" lon="14.0842654"><ele>68.0</ele><time>2026-05-02T07:24:55.091Z</time></trkpt><trkpt lat="42.3476432" lon="14.084164"><ele>68.0</ele><time>2026-05-02T07:24:56.087Z</time></trkpt><trkpt lat="42.3476098" lon="14.0840691"><ele>68.0</ele><time>2026-05-02T07:24:57.087Z</time></trkpt><trkpt lat="42.3475957" lon="14.0839746"><ele>68.0</ele><time>2026-05-02T07:24:58.092Z</time></trkpt><trkpt lat="42.3475866" lon="14.0838742"><ele>68.0</ele><time>2026-05-02T07:24:59.083Z</time></trkpt><trkpt lat="42.3475781" lon="14.0837735"><ele>68.0</ele><time>2026-05-02T07:25:00.093Z</time></trkpt><trkpt lat="42.3475726" lon="14.0836033"><ele>68.0</ele><time>2026-05-02T07:25:02.095Z</time></trkpt><trkpt lat="42.3475705" lon="14.0835056"><ele>68.0</ele><time>2026-05-02T07:25:03.094Z</time></trkpt><trkpt lat="42.3475737" lon="14.0834004"><ele>68.0</ele><time>2026-05-02T07:25:04.095Z</time></trkpt><trkpt lat="42.3475772" lon="14.0832841"><ele>68.0</ele><time>2026-05-02T07:25:05.095Z</time></trkpt><trkpt lat="42.3475913" lon="14.0831603"><ele>68.0</ele><time>2026-05-02T07:25:06.096Z</time></trkpt><trkpt lat="42.3476249" lon="14.0830489"><ele>68.0</ele><time>2026-05-02T07:25:07.09Z</time></trkpt><trkpt lat="42.3476607" lon="14.0829644"><ele>68.0</ele><time>2026-05-02T07:25:08.085Z</time></trkpt><trkpt lat="42.3477608" lon="14.0828585"><ele>68.0</ele><time>2026-05-02T07:25:10.082Z</time></trkpt><trkpt lat="42.3478428" lon="14.0827891"><ele>68.0</ele><time>2026-05-02T07:25:11.089Z</time></trkpt><trkpt lat="42.3479261" lon="14.0827"><ele>68.0</ele><time>2026-05-02T07:25:12.088Z</time></trkpt><trkpt lat="42.3479994" lon="14.0825939"><ele>68.0</ele><time>2026-05-02T07:25:13.091Z</time></trkpt><trkpt lat="42.3480647" lon="14.0824655"><ele>68.0</ele><time>2026-05-02T07:25:14.088Z</time></trkpt><trkpt lat="42.3481223" lon="14.0823257"><ele>68.0</ele><time>2026-05-02T07:25:15.084Z</time></trkpt><trkpt lat="42.3481717" lon="14.0822043"><ele>68.0</ele><time>2026-05-02T07:25:16.089Z</time></trkpt><trkpt lat="42.3482063" lon="14.0821226"><ele>67.85714285714285</ele><time>2026-05-02T07:25:17.097Z</time></trkpt><trkpt lat="42.3482434" lon="14.0820458"><ele>67.71428571428571</ele><time>2026-05-02T07:25:18.093Z</time></trkpt><trkpt lat="42.3482876" lon="14.0819555"><ele>67.57142857142857</ele><time>2026-05-02T07:25:19.087Z</time></trkpt><trkpt lat="42.3483162" lon="14.0818782"><ele>67.42857142857142</ele><time>2026-05-02T07:25:20.092Z</time></trkpt><trkpt lat="42.3483475" lon="14.0817764"><ele>67.28571428571428</ele><time>2026-05-02T07:25:23.093Z</time></trkpt><trkpt lat="42.3483711" lon="14.0816746"><ele>67.14285714285714</ele><time>2026-05-02T07:25:25.091Z</time></trkpt><trkpt lat="42.3483705" lon="14.0815781"><ele>67.0</ele><time>2026-05-02T07:25:52.106Z</time></trkpt><trkpt lat="42.3483443" lon="14.0816824"><ele>66.66666666666666</ele><time>2026-05-02T07:26:06.093Z</time></trkpt><trkpt lat="42.348335" lon="14.081799"><ele>66.33333333333333</ele><time>2026-05-02T07:26:08.091Z</time></trkpt><trkpt lat="42.348353" lon="14.0819057"><ele>66.0</ele><time>2026-05-02T07:26:10.095Z</time></trkpt><trkpt lat="42.3484153" lon="14.0819625"><ele>65.66666666666667</ele><time>2026-05-02T07:26:12.087Z</time></trkpt><trkpt lat="42.3484971" lon="14.0820383"><ele>65.33333333333334</ele><time>2026-05-02T07:26:14.094Z</time></trkpt><trkpt lat="42.3485711" lon="14.0820062"><ele>65.0</ele><time>2026-05-02T07:26:17.079Z</time></trkpt><trkpt lat="42.3485926" lon="14.0819257"><ele>65.0</ele><time>2026-05-02T07:26:18.094Z</time></trkpt><trkpt lat="42.3486315" lon="14.0817701"><ele>65.0</ele><time>2026-05-02T07:26:20.09Z</time></trkpt><trkpt lat="42.3486464" lon="14.0816134"><ele>65.0</ele><time>2026-05-02T07:26:22.092Z</time></trkpt><trkpt lat="42.3487281" lon="14.0815063"><ele>65.0</ele><time>2026-05-02T07:26:24.09Z</time></trkpt><trkpt lat="42.3487937" lon="14.0814521"><ele>65.0</ele><time>2026-05-02T07:26:25.088Z</time></trkpt><trkpt lat="42.3488594" lon="14.081403"><ele>65.33333333333334</ele><time>2026-05-02T07:26:26.081Z</time></trkpt><trkpt lat="42.348921" lon="14.0813664"><ele>65.66666666666667</ele><time>2026-05-02T07:26:27.083Z</time></trkpt><trkpt lat="42.348986" lon="14.0813329"><ele>66.0</ele><time>2026-05-02T07:26:28.084Z</time></trkpt><trkpt lat="42.3490983" lon="14.0812627"><ele>66.33333333333333</ele><time>2026-05-02T07:26:30.082Z</time></trkpt><trkpt lat="42.3491617" lon="14.0812477"><ele>66.66666666666666</ele><time>2026-05-02T07:26:31.088Z</time></trkpt><trkpt lat="42.3492271" lon="14.0812484"><ele>67.0</ele><time>2026-05-02T07:26:32.091Z</time></trkpt><trkpt lat="42.3492925" lon="14.0812678"><ele>67.0</ele><time>2026-05-02T07:26:33.091Z</time></trkpt><trkpt lat="42.3493597" lon="14.0812879"><ele>67.0</ele><time>2026-05-02T07:26:34.092Z</time></trkpt><trkpt lat="42.3494375" lon="14.0813111"><ele>67.0</ele><time>2026-05-02T07:26:35.091Z</time></trkpt><trkpt lat="42.3495044" lon="14.0813257"><ele>67.0</ele><time>2026-05-02T07:26:36.092Z</time></trkpt><trkpt lat="42.3495813" lon="14.0813139"><ele>67.0</ele><time>2026-05-02T07:26:38.097Z</time></trkpt><trkpt lat="42.3496489" lon="14.0812365"><ele>67.0</ele><time>2026-05-02T07:26:40.101Z</time></trkpt><trkpt lat="42.349697" lon="14.081129"><ele>67.0</ele><time>2026-05-02T07:26:42.104Z</time></trkpt><trkpt lat="42.3496989" lon="14.0810012"><ele>67.0</ele><time>2026-05-02T07:26:44.102Z</time></trkpt><trkpt lat="42.3496617" lon="14.0808519"><ele>67.0</ele><time>2026-05-02T07:26:46.098Z</time></trkpt><trkpt lat="42.3495916" lon="14.0807313"><ele>67.0</ele><time>2026-05-02T07:26:48.099Z</time></trkpt><trkpt lat="42.3495467" lon="14.0806347"><ele>67.0</ele><time>2026-05-02T07:26:50.086Z</time></trkpt><trkpt lat="42.349554" lon="14.0805399"><ele>66.83333333333333</ele><time>2026-05-02T07:26:52.093Z</time></trkpt><trkpt lat="42.3496447" lon="14.0804501"><ele>66.66666666666666</ele><time>2026-05-02T07:26:54.092Z</time></trkpt><trkpt lat="42.3496963" lon="14.0803932"><ele>66.5</ele><time>2026-05-02T07:26:55.096Z</time></trkpt><trkpt lat="42.3497539" lon="14.0803239"><ele>66.33333333333333</ele><time>2026-05-02T07:26:56.095Z</time></trkpt><trkpt lat="42.3498252" lon="14.0802515"><ele>66.16666666666667</ele><time>2026-05-02T07:26:57.095Z</time></trkpt><trkpt lat="42.3498992" lon="14.0801844"><ele>66.0</ele><time>2026-05-02T07:26:58.094Z</time></trkpt><trkpt lat="42.3499744" lon="14.0801307"><ele>66.0</ele><time>2026-05-02T07:26:59.094Z</time></trkpt><trkpt lat="42.3500517" lon="14.0800826"><ele>66.0</ele><time>2026-05-02T07:27:00.095Z</time></trkpt><trkpt lat="42.3501322" lon="14.0800165"><ele>66.0</ele><time>2026-05-02T07:27:01.102Z</time></trkpt><trkpt lat="42.3502062" lon="14.0799384"><ele>66.0</ele><time>2026-05-02T07:27:02.099Z</time></trkpt><trkpt lat="42.3502673" lon="14.0798455"><ele>66.0</ele><time>2026-05-02T07:27:03.097Z</time></trkpt><trkpt lat="42.3503227" lon="14.0797324"><ele>66.0</ele><time>2026-05-02T07:27:04.097Z</time></trkpt><trkpt lat="42.3503651" lon="14.0796145"><ele>66.0</ele><time>2026-05-02T07:27:05.091Z</time></trkpt><trkpt lat="42.350396" lon="14.0794762"><ele>66.0</ele><time>2026-05-02T07:27:06.095Z</time></trkpt><trkpt lat="42.3504225" lon="14.0793311"><ele>66.0</ele><time>2026-05-02T07:27:07.09Z</time></trkpt><trkpt lat="42.3504461" lon="14.0791963"><ele>66.0</ele><time>2026-05-02T07:27:08.094Z</time></trkpt><trkpt lat="42.3504708" lon="14.0790658"><ele>66.0</ele><time>2026-05-02T07:27:09.093Z</time></trkpt><trkpt lat="42.3505018" lon="14.0789339"><ele>66.0</ele><time>2026-05-02T07:27:10.089Z</time></trkpt><trkpt lat="42.3505332" lon="14.0788181"><ele>66.0</ele><time>2026-05-02T07:27:11.094Z</time></trkpt><trkpt lat="42.350566" lon="14.0787267"><ele>66.0</ele><time>2026-05-02T07:27:12.093Z</time></trkpt><trkpt lat="42.3506019" lon="14.0786384"><ele>66.0</ele><time>2026-05-02T07:27:13.095Z</time></trkpt><trkpt lat="42.3506274" lon="14.0785418"><ele>66.0</ele><time>2026-05-02T07:27:14.096Z</time></trkpt><trkpt lat="42.3506281" lon="14.0784354"><ele>66.16666666666667</ele><time>2026-05-02T07:27:15.095Z</time></trkpt><trkpt lat="42.3506161" lon="14.0783155"><ele>66.33333333333333</ele><time>2026-05-02T07:27:16.097Z</time></trkpt><trkpt lat="42.3506005" lon="14.0782025"><ele>66.5</ele><time>2026-05-02T07:27:17.095Z</time></trkpt><trkpt lat="42.3505707" lon="14.0780955"><ele>66.66666666666666</ele><time>2026-05-02T07:27:18.094Z</time></trkpt><trkpt lat="42.3505412" lon="14.0779829"><ele>66.83333333333333</ele><time>2026-05-02T07:27:19.093Z</time></trkpt><trkpt lat="42.3505224" lon="14.0778749"><ele>67.0</ele><time>2026-05-02T07:27:20.086Z</time></trkpt><trkpt lat="42.350506" lon="14.0777383"><ele>67.0</ele><time>2026-05-02T07:27:22.095Z</time></trkpt><trkpt lat="42.3504895" lon="14.0775665"><ele>67.0</ele><time>2026-05-02T07:27:24.094Z</time></trkpt><trkpt lat="42.3504811" lon="14.0774404"><ele>67.0</ele><time>2026-05-02T07:27:25.091Z</time></trkpt><trkpt lat="42.3504836" lon="14.0773013"><ele>67.0</ele><time>2026-05-02T07:27:26.098Z</time></trkpt><trkpt lat="42.3504834" lon="14.0771418"><ele>67.0</ele><time>2026-05-02T07:27:27.091Z</time></trkpt><trkpt lat="42.350486" lon="14.0769987"><ele>67.16666666666666</ele><time>2026-05-02T07:27:28.094Z</time></trkpt><trkpt lat="42.3504853" lon="14.0768853"><ele>67.33333333333333</ele><time>2026-05-02T07:27:29.088Z</time></trkpt><trkpt lat="42.3504815" lon="14.0767799"><ele>67.5</ele><time>2026-05-02T07:27:30.089Z</time></trkpt><trkpt lat="42.3504733" lon="14.0766689"><ele>67.66666666666667</ele><time>2026-05-02T07:27:31.093Z</time></trkpt><trkpt lat="42.3504701" lon="14.076561"><ele>67.83333333333334</ele><time>2026-05-02T07:27:32.09Z</time></trkpt><trkpt lat="42.350486" lon="14.0764584"><ele>68.0</ele><time>2026-05-02T07:27:33.089Z</time></trkpt><trkpt lat="42.35051" lon="14.0763602"><ele>68.33333333333334</ele><time>2026-05-02T07:27:34.087Z</time></trkpt><trkpt lat="42.3505277" lon="14.0762633"><ele>68.66666666666667</ele><time>2026-05-02T07:27:35.093Z</time></trkpt><trkpt lat="42.3505381" lon="14.0761667"><ele>69.0</ele><time>2026-05-02T07:27:36.09Z</time></trkpt><trkpt lat="42.3505403" lon="14.0760531"><ele>69.33333333333333</ele><time>2026-05-02T07:27:37.089Z</time></trkpt><trkpt lat="42.350514" lon="14.0759279"><ele>69.66666666666666</ele><time>2026-05-02T07:27:38.091Z</time></trkpt><trkpt lat="42.3504865" lon="14.0758039"><ele>70.0</ele><time>2026-05-02T07:27:39.084Z</time></trkpt><trkpt lat="42.3504636" lon="14.0756884"><ele>70.2</ele><time>2026-05-02T07:27:40.089Z</time></trkpt><trkpt lat="42.350445" lon="14.0755833"><ele>70.4</ele><time>2026-05-02T07:27:41.086Z</time></trkpt><trkpt lat="42.3504236" lon="14.0754491"><ele>70.6</ele><time>2026-05-02T07:27:43.084Z</time></trkpt><trkpt lat="42.3505123" lon="14.0753655"><ele>70.8</ele><time>2026-05-02T07:27:54.095Z</time></trkpt><trkpt lat="42.3505847" lon="14.0753471"><ele>71.0</ele><time>2026-05-02T07:27:55.089Z</time></trkpt><trkpt lat="42.3507011" lon="14.0753201"><ele>71.0</ele><time>2026-05-02T07:27:56.094Z</time></trkpt><trkpt lat="42.350835" lon="14.0752791"><ele>71.0</ele><time>2026-05-02T07:27:57.092Z</time></trkpt><trkpt lat="42.3509684" lon="14.0752386"><ele>71.0</ele><time>2026-05-02T07:27:58.088Z</time></trkpt><trkpt lat="42.3510887" lon="14.0752043"><ele>71.0</ele><time>2026-05-02T07:27:59.084Z</time></trkpt><trkpt lat="42.3511861" lon="14.0751771"><ele>71.0</ele><time>2026-05-02T07:28:00.094Z</time></trkpt><trkpt lat="42.3512699" lon="14.0751564"><ele>71.0</ele><time>2026-05-02T07:28:01.097Z</time></trkpt><trkpt lat="42.3513459" lon="14.0751377"><ele>71.0</ele><time>2026-05-02T07:28:02.096Z</time></trkpt><trkpt lat="42.3514166" lon="14.0751177"><ele>71.0</ele><time>2026-05-02T07:28:03.096Z</time></trkpt><trkpt lat="42.3514826" lon="14.075104"><ele>71.0</ele><time>2026-05-02T07:28:04.1Z</time></trkpt><trkpt lat="42.3515577" lon="14.0750982"><ele>71.0</ele><time>2026-05-02T07:28:05.091Z</time></trkpt><trkpt lat="42.3516507" lon="14.0751014"><ele>71.5</ele><time>2026-05-02T07:28:06.089Z</time></trkpt><trkpt lat="42.3517632" lon="14.0751204"><ele>72.0</ele><time>2026-05-02T07:28:07.091Z</time></trkpt><trkpt lat="42.3518961" lon="14.0751431"><ele>72.5</ele><time>2026-05-02T07:28:08.093Z</time></trkpt><trkpt lat="42.3520425" lon="14.0751594"><ele>73.0</ele><time>2026-05-02T07:28:09.1Z</time></trkpt><trkpt lat="42.3522418" lon="14.0751725"><ele>74.33333333333333</ele><time>2026-05-02T07:28:10.094Z</time></trkpt><trkpt lat="42.3524172" lon="14.0752148"><ele>75.66666666666667</ele><time>2026-05-02T07:28:11.097Z</time></trkpt><trkpt lat="42.3525676" lon="14.0752364"><ele>77.0</ele><time>2026-05-02T07:28:12.092Z</time></trkpt><trkpt lat="42.3527018" lon="14.0752374"><ele>77.0</ele><time>2026-05-02T07:28:13.095Z</time></trkpt><trkpt lat="42.3528542" lon="14.0752556"><ele>77.0</ele><time>2026-05-02T07:28:14.096Z</time></trkpt><trkpt lat="42.3529935" lon="14.0753102"><ele>77.0</ele><time>2026-05-02T07:28:15.095Z</time></trkpt><trkpt lat="42.3531296" lon="14.0753607"><ele>77.0</ele><time>2026-05-02T07:28:16.094Z</time></trkpt><trkpt lat="42.3532527" lon="14.07539"><ele>80.5</ele><time>2026-05-02T07:28:17.094Z</time></trkpt><trkpt lat="42.3533694" lon="14.0753927"><ele>84.0</ele><time>2026-05-02T07:28:18.092Z</time></trkpt><trkpt lat="42.3534925" lon="14.0753784"><ele>87.5</ele><time>2026-05-02T07:28:19.086Z</time></trkpt><trkpt lat="42.3536194" lon="14.0753546"><ele>91.0</ele><time>2026-05-02T07:28:20.086Z</time></trkpt><trkpt lat="42.3537659" lon="14.0753243"><ele>92.5</ele><time>2026-05-02T07:28:21.087Z</time></trkpt><trkpt lat="42.3539185" lon="14.0752908"><ele>94.0</ele><time>2026-05-02T07:28:22.09Z</time></trkpt><trkpt lat="42.3540562" lon="14.0752454"><ele>95.5</ele><time>2026-05-02T07:28:23.101Z</time></trkpt><trkpt lat="42.3541855" lon="14.0751967"><ele>97.0</ele><time>2026-05-02T07:28:24.103Z</time></trkpt><trkpt lat="42.3543366" lon="14.0751595"><ele>97.0</ele><time>2026-05-02T07:28:25.103Z</time></trkpt><trkpt lat="42.3545002" lon="14.0751338"><ele>97.0</ele><time>2026-05-02T07:28:26.102Z</time></trkpt><trkpt lat="42.3546456" lon="14.0750886"><ele>97.0</ele><time>2026-05-02T07:28:27.1Z</time></trkpt><trkpt lat="42.3547802" lon="14.0750544"><ele>101.33333333333334</ele><time>2026-05-02T07:28:28.094Z</time></trkpt><trkpt lat="42.3549532" lon="14.0750215"><ele>105.66666666666666</ele><time>2026-05-02T07:28:29.098Z</time></trkpt><trkpt lat="42.3551206" lon="14.075001"><ele>110.0</ele><time>2026-05-02T07:28:30.099Z</time></trkpt><trkpt lat="42.3552503" lon="14.074984"><ele>110.0</ele><time>2026-05-02T07:28:31.098Z</time></trkpt><trkpt lat="42.3553861" lon="14.0749729"><ele>110.0</ele><time>2026-05-02T07:28:32.096Z</time></trkpt><trkpt lat="42.3555223" lon="14.074945"><ele>110.0</ele><time>2026-05-02T07:28:33.098Z</time></trkpt><trkpt lat="42.3556665" lon="14.0749247"><ele>110.0</ele><time>2026-05-02T07:28:34.104Z</time></trkpt><trkpt lat="42.3558048" lon="14.0748996"><ele>112.5</ele><time>2026-05-02T07:28:35.109Z</time></trkpt><trkpt lat="42.3559279" lon="14.0748861"><ele>115.0</ele><time>2026-05-02T07:28:36.105Z</time></trkpt><trkpt lat="42.3560555" lon="14.0748893"><ele>117.5</ele><time>2026-05-02T07:28:37.106Z</time></trkpt><trkpt lat="42.3562158" lon="14.0749042"><ele>120.0</ele><time>2026-05-02T07:28:38.104Z</time></trkpt><trkpt lat="42.3563742" lon="14.0749312"><ele>120.75</ele><time>2026-05-02T07:28:39.11Z</time></trkpt><trkpt lat="42.3564955" lon="14.0749677"><ele>121.5</ele><time>2026-05-02T07:28:40.102Z</time></trkpt><trkpt lat="42.3566051" lon="14.0749786"><ele>122.25</ele><time>2026-05-02T07:28:41.104Z</time></trkpt><trkpt lat="42.3567211" lon="14.074992"><ele>123.0</ele><time>2026-05-02T07:28:42.107Z</time></trkpt><trkpt lat="42.356828" lon="14.0750106"><ele>123.0</ele><time>2026-05-02T07:28:43.111Z</time></trkpt><trkpt lat="42.3569411" lon="14.0750313"><ele>123.0</ele><time>2026-05-02T07:28:44.106Z</time></trkpt><trkpt lat="42.3570668" lon="14.0750565"><ele>123.0</ele><time>2026-05-02T07:28:45.105Z</time></trkpt><trkpt lat="42.3572044" lon="14.075089"><ele>123.0</ele><time>2026-05-02T07:28:46.103Z</time></trkpt><trkpt lat="42.3573584" lon="14.0751335"><ele>122.75</ele><time>2026-05-02T07:28:47.1Z</time></trkpt><trkpt lat="42.3575186" lon="14.0751713"><ele>122.5</ele><time>2026-05-02T07:28:48.097Z</time></trkpt><trkpt lat="42.3576503" lon="14.0752153"><ele>122.25</ele><time>2026-05-02T07:28:49.102Z</time></trkpt><trkpt lat="42.3577966" lon="14.0752317"><ele>122.0</ele><time>2026-05-02T07:28:50.1Z</time></trkpt><trkpt lat="42.3579318" lon="14.075259"><ele>121.75</ele><time>2026-05-02T07:28:51.103Z</time></trkpt><trkpt lat="42.3580847" lon="14.0753119"><ele>121.5</ele><time>2026-05-02T07:28:52.102Z</time></trkpt><trkpt lat="42.3582176" lon="14.0753688"><ele>121.25</ele><time>2026-05-02T07:28:53.104Z</time></trkpt><trkpt lat="42.3583454" lon="14.0754209"><ele>121.0</ele><time>2026-05-02T07:28:54.103Z</time></trkpt><trkpt lat="42.3584509" lon="14.0754585"><ele>121.0</ele><time>2026-05-02T07:28:55.102Z</time></trkpt><trkpt lat="42.3585401" lon="14.0754908"><ele>121.0</ele><time>2026-05-02T07:28:56.101Z</time></trkpt><trkpt lat="42.3586413" lon="14.0755531"><ele>121.0</ele><time>2026-05-02T07:28:58.105Z</time></trkpt><trkpt lat="42.3587341" lon="14.0756069"><ele>121.0</ele><time>2026-05-02T07:29:00.101Z</time></trkpt><trkpt lat="42.358861" lon="14.0755682"><ele>121.0</ele><time>2026-05-02T07:29:02.099Z</time></trkpt><trkpt lat="42.3589542" lon="14.0755086"><ele>122.0</ele><time>2026-05-02T07:29:03.102Z</time></trkpt><trkpt lat="42.3590647" lon="14.0754315"><ele>123.0</ele><time>2026-05-02T07:29:04.096Z</time></trkpt><trkpt lat="42.3591895" lon="14.0753363"><ele>124.0</ele><time>2026-05-02T07:29:05.095Z</time></trkpt><trkpt lat="42.3593268" lon="14.0752387"><ele>125.0</ele><time>2026-05-02T07:29:06.097Z</time></trkpt><trkpt lat="42.3594954" lon="14.075097"><ele>125.0</ele><time>2026-05-02T07:29:07.096Z</time></trkpt><trkpt lat="42.3596559" lon="14.0750021"><ele>125.0</ele><time>2026-05-02T07:29:08.1Z</time></trkpt><trkpt lat="42.3597938" lon="14.0748908"><ele>125.0</ele><time>2026-05-02T07:29:09.101Z</time></trkpt><trkpt lat="42.3599114" lon="14.0747994"><ele>125.75</ele><time>2026-05-02T07:29:10.095Z</time></trkpt><trkpt lat="42.3600238" lon="14.0747101"><ele>126.5</ele><time>2026-05-02T07:29:11.092Z</time></trkpt><trkpt lat="42.3601393" lon="14.0746306"><ele>127.25</ele><time>2026-05-02T07:29:12.093Z</time></trkpt><trkpt lat="42.3602556" lon="14.0745673"><ele>128.0</ele><time>2026-05-02T07:29:13.099Z</time></trkpt><trkpt lat="42.360392" lon="14.0744759"><ele>128.0</ele><time>2026-05-02T07:29:14.097Z</time></trkpt><trkpt lat="42.3605282" lon="14.0743683"><ele>128.0</ele><time>2026-05-02T07:29:15.093Z</time></trkpt><trkpt lat="42.3606642" lon="14.0742781"><ele>128.0</ele><time>2026-05-02T07:29:16.095Z</time></trkpt><trkpt lat="42.3607866" lon="14.0742049"><ele>128.0</ele><time>2026-05-02T07:29:17.094Z</time></trkpt><trkpt lat="42.360894" lon="14.0741189"><ele>129.20000000000002</ele><time>2026-05-02T07:29:18.092Z</time></trkpt><trkpt lat="42.3609998" lon="14.0740354"><ele>130.4</ele><time>2026-05-02T07:29:19.098Z</time></trkpt><trkpt lat="42.3610804" lon="14.0739798"><ele>131.60000000000002</ele><time>2026-05-02T07:29:20.088Z</time></trkpt><trkpt lat="42.3611463" lon="14.0739328"><ele>132.8</ele><time>2026-05-02T07:29:21.11Z</time></trkpt><trkpt lat="42.3612375" lon="14.0739104"><ele>134.0</ele><time>2026-05-02T07:29:22.1Z</time></trkpt><trkpt lat="42.3613334" lon="14.0738499"><ele>134.5</ele><time>2026-05-02T07:29:23.098Z</time></trkpt><trkpt lat="42.3614241" lon="14.0737794"><ele>135.0</ele><time>2026-05-02T07:29:24.089Z</time></trkpt><trkpt lat="42.3615063" lon="14.073706"><ele>135.5</ele><time>2026-05-02T07:29:25.096Z</time></trkpt><trkpt lat="42.361585" lon="14.0736396"><ele>136.0</ele><time>2026-05-02T07:29:26.094Z</time></trkpt><trkpt lat="42.3616547" lon="14.0735857"><ele>136.5</ele><time>2026-05-02T07:29:27.103Z</time></trkpt><trkpt lat="42.3617139" lon="14.0735457"><ele>137.0</ele><time>2026-05-02T07:29:28.098Z</time></trkpt><trkpt lat="42.3617841" lon="14.0735181"><ele>137.0</ele><time>2026-05-02T07:29:30.091Z</time></trkpt><trkpt lat="42.3618179" lon="14.0733872"><ele>137.0</ele><time>2026-05-02T07:29:38.099Z</time></trkpt><trkpt lat="42.3617736" lon="14.0732858"><ele>137.0</ele><time>2026-05-02T07:29:39.103Z</time></trkpt><trkpt lat="42.3616946" lon="14.0731603"><ele>137.0</ele><time>2026-05-02T07:29:40.099Z</time></trkpt><trkpt lat="42.3615955" lon="14.0730129"><ele>137.0</ele><time>2026-05-02T07:29:41.103Z</time></trkpt><trkpt lat="42.3614996" lon="14.072859"><ele>137.0</ele><time>2026-05-02T07:29:42.096Z</time></trkpt><trkpt lat="42.3613908" lon="14.0726556"><ele>137.0</ele><time>2026-05-02T07:29:43.101Z</time></trkpt><trkpt lat="42.3612706" lon="14.0724554"><ele>135.66666666666666</ele><time>2026-05-02T07:29:44.095Z</time></trkpt><trkpt lat="42.3611438" lon="14.0722746"><ele>134.33333333333334</ele><time>2026-05-02T07:29:45.098Z</time></trkpt><trkpt lat="42.3610071" lon="14.0721172"><ele>133.0</ele><time>2026-05-02T07:29:46.095Z</time></trkpt><trkpt lat="42.360876" lon="14.0719314"><ele>133.0</ele><time>2026-05-02T07:29:47.096Z</time></trkpt><trkpt lat="42.360767" lon="14.0717659"><ele>133.0</ele><time>2026-05-02T07:29:48.097Z</time></trkpt><trkpt lat="42.3606952" lon="14.0715854"><ele>133.0</ele><time>2026-05-02T07:29:49.096Z</time></trkpt><trkpt lat="42.3606316" lon="14.0713685"><ele>133.0</ele><time>2026-05-02T07:29:50.096Z</time></trkpt><trkpt lat="42.3605595" lon="14.0711382"><ele>133.0</ele><time>2026-05-02T07:29:51.098Z</time></trkpt><trkpt lat="42.3604963" lon="14.070889"><ele>133.0</ele><time>2026-05-02T07:29:52.1Z</time></trkpt><trkpt lat="42.3604572" lon="14.0706268"><ele>133.66666666666669</ele><time>2026-05-02T07:29:53.11Z</time></trkpt><trkpt lat="42.3604136" lon="14.0703759"><ele>134.33333333333334</ele><time>2026-05-02T07:29:54.099Z</time></trkpt><trkpt lat="42.3603527" lon="14.0701409"><ele>135.0</ele><time>2026-05-02T07:29:55.102Z</time></trkpt><trkpt lat="42.3603038" lon="14.0699015"><ele>136.0</ele><time>2026-05-02T07:29:56.095Z</time></trkpt><trkpt lat="42.3602697" lon="14.0696668"><ele>137.0</ele><time>2026-05-02T07:29:57.103Z</time></trkpt><trkpt lat="42.360243" lon="14.0694262"><ele>138.0</ele><time>2026-05-02T07:29:58.095Z</time></trkpt><trkpt lat="42.3602411" lon="14.0691891"><ele>138.66666666666666</ele><time>2026-05-02T07:29:59.104Z</time></trkpt><trkpt lat="42.3602691" lon="14.0689588"><ele>139.33333333333331</ele><time>2026-05-02T07:30:00.092Z</time></trkpt><trkpt lat="42.3603273" lon="14.0687362"><ele>140.0</ele><time>2026-05-02T07:30:01.103Z</time></trkpt><trkpt lat="42.3603886" lon="14.0685682"><ele>140.0</ele><time>2026-05-02T07:30:02.097Z</time></trkpt><trkpt lat="42.3604445" lon="14.0684429"><ele>140.0</ele><time>2026-05-02T07:30:03.106Z</time></trkpt><trkpt lat="42.3605003" lon="14.0683722"><ele>140.0</ele><time>2026-05-02T07:30:04.091Z</time></trkpt><trkpt lat="42.3605555" lon="14.0682921"><ele>140.0</ele><time>2026-05-02T07:30:05.096Z</time></trkpt><trkpt lat="42.3605932" lon="14.0682004"><ele>140.0</ele><time>2026-05-02T07:30:06.098Z</time></trkpt><trkpt lat="42.3606406" lon="14.0681206"><ele>140.0</ele><time>2026-05-02T07:30:07.107Z</time></trkpt><trkpt lat="42.3606895" lon="14.068011"><ele>140.0</ele><time>2026-05-02T07:30:08.092Z</time></trkpt><trkpt lat="42.3607196" lon="14.0678897"><ele>140.0</ele><time>2026-05-02T07:30:09.103Z</time></trkpt><trkpt lat="42.3607392" lon="14.0677385"><ele>140.0</ele><time>2026-05-02T07:30:10.101Z</time></trkpt><trkpt lat="42.3607278" lon="14.0675767"><ele>140.0</ele><time>2026-05-02T07:30:11.107Z</time></trkpt><trkpt lat="42.360677" lon="14.067419"><ele>139.2</ele><time>2026-05-02T07:30:12.097Z</time></trkpt><trkpt lat="42.3606108" lon="14.0672768"><ele>138.4</ele><time>2026-05-02T07:30:13.103Z</time></trkpt><trkpt lat="42.3605356" lon="14.0671493"><ele>137.6</ele><time>2026-05-02T07:30:14.1Z</time></trkpt><trkpt lat="42.3604682" lon="14.0670364"><ele>136.8</ele><time>2026-05-02T07:30:15.104Z</time></trkpt><trkpt lat="42.360418" lon="14.066932"><ele>136.0</ele><time>2026-05-02T07:30:16.098Z</time></trkpt><trkpt lat="42.3603884" lon="14.0668303"><ele>135.0</ele><time>2026-05-02T07:30:17.108Z</time></trkpt><trkpt lat="42.3603735" lon="14.0667281"><ele>134.0</ele><time>2026-05-02T07:30:18.095Z</time></trkpt><trkpt lat="42.360342" lon="14.0665794"><ele>133.0</ele><time>2026-05-02T07:30:20.092Z</time></trkpt><trkpt lat="42.3602297" lon="14.0664991"><ele>132.0</ele><time>2026-05-02T07:30:22.099Z</time></trkpt><trkpt lat="42.3601254" lon="14.0664845"><ele>131.0</ele><time>2026-05-02T07:30:23.096Z</time></trkpt><trkpt lat="42.3599935" lon="14.0664259"><ele>131.0</ele><time>2026-05-02T07:30:24.099Z</time></trkpt><trkpt lat="42.3598948" lon="14.0663072"><ele>131.0</ele><time>2026-05-02T07:30:25.087Z</time></trkpt><trkpt lat="42.3597954" lon="14.0661576"><ele>131.0</ele><time>2026-05-02T07:30:26.094Z</time></trkpt><trkpt lat="42.3597218" lon="14.06594"><ele>129.25</ele><time>2026-05-02T07:30:27.09Z</time></trkpt><trkpt lat="42.3596148" lon="14.0657748"><ele>127.5</ele><time>2026-05-02T07:30:28.093Z</time></trkpt><trkpt lat="42.3595348" lon="14.0656179"><ele>125.75</ele><time>2026-05-02T07:30:29.091Z</time></trkpt><trkpt lat="42.3594689" lon="14.0654733"><ele>124.0</ele><time>2026-05-02T07:30:30.095Z</time></trkpt><trkpt lat="42.3593919" lon="14.065333"><ele>124.0</ele><time>2026-05-02T07:30:31.089Z</time></trkpt><trkpt lat="42.359292" lon="14.0652173"><ele>124.0</ele><time>2026-05-02T07:30:32.09Z</time></trkpt><trkpt lat="42.3591792" lon="14.0651005"><ele>124.0</ele><time>2026-05-02T07:30:33.089Z</time></trkpt><trkpt lat="42.3590656" lon="14.0649809"><ele>124.0</ele><time>2026-05-02T07:30:34.09Z</time></trkpt><trkpt lat="42.3589584" lon="14.0648581"><ele>123.5</ele><time>2026-05-02T07:30:35.084Z</time></trkpt><trkpt lat="42.3588711" lon="14.0647092"><ele>123.0</ele><time>2026-05-02T07:30:36.093Z</time></trkpt><trkpt lat="42.358791" lon="14.0645715"><ele>122.5</ele><time>2026-05-02T07:30:37.091Z</time></trkpt><trkpt lat="42.3587126" lon="14.0644476"><ele>122.0</ele><time>2026-05-02T07:30:38.097Z</time></trkpt><trkpt lat="42.3586452" lon="14.0643161"><ele>121.6</ele><time>2026-05-02T07:30:39.095Z</time></trkpt><trkpt lat="42.3585919" lon="14.0642083"><ele>121.19999999999999</ele><time>2026-05-02T07:30:40.094Z</time></trkpt><trkpt lat="42.3585404" lon="14.0641095"><ele>120.8</ele><time>2026-05-02T07:30:41.093Z</time></trkpt><trkpt lat="42.3584758" lon="14.0640301"><ele>120.4</ele><time>2026-05-02T07:30:42.095Z</time></trkpt><trkpt lat="42.3583968" lon="14.0639629"><ele>120.0</ele><time>2026-05-02T07:30:43.09Z</time></trkpt><trkpt lat="42.3582927" lon="14.0639115"><ele>117.8</ele><time>2026-05-02T07:30:44.091Z</time></trkpt><trkpt lat="42.3581748" lon="14.063894"><ele>115.6</ele><time>2026-05-02T07:30:45.088Z</time></trkpt><trkpt lat="42.3580628" lon="14.0639089"><ele>113.4</ele><time>2026-05-02T07:30:46.088Z</time></trkpt><trkpt lat="42.3579596" lon="14.0639284"><ele>111.2</ele><time>2026-05-02T07:30:47.09Z</time></trkpt><trkpt lat="42.3578631" lon="14.0639458"><ele>109.0</ele><time>2026-05-02T07:30:48.087Z</time></trkpt><trkpt lat="42.3577677" lon="14.0639541"><ele>108.2</ele><time>2026-05-02T07:30:49.092Z</time></trkpt><trkpt lat="42.3576745" lon="14.06394"><ele>107.4</ele><time>2026-05-02T07:30:50.086Z</time></trkpt><trkpt lat="42.3575787" lon="14.0639014"><ele>106.6</ele><time>2026-05-02T07:30:51.088Z</time></trkpt><trkpt lat="42.3574853" lon="14.0638287"><ele>105.8</ele><time>2026-05-02T07:30:52.087Z</time></trkpt><trkpt lat="42.3573859" lon="14.0637393"><ele>105.0</ele><time>2026-05-02T07:30:53.083Z</time></trkpt><trkpt lat="42.3572721" lon="14.063654"><ele>103.75</ele><time>2026-05-02T07:30:54.081Z</time></trkpt><trkpt lat="42.3571517" lon="14.0635962"><ele>102.5</ele><time>2026-05-02T07:30:55.081Z</time></trkpt><trkpt lat="42.3570363" lon="14.0635518"><ele>101.25</ele><time>2026-05-02T07:30:56.083Z</time></trkpt><trkpt lat="42.3569279" lon="14.0635148"><ele>100.0</ele><time>2026-05-02T07:30:57.083Z</time></trkpt><trkpt lat="42.356821" lon="14.0634854"><ele>100.0</ele><time>2026-05-02T07:30:58.087Z</time></trkpt><trkpt lat="42.3567099" lon="14.063476"><ele>100.0</ele><time>2026-05-02T07:30:59.086Z</time></trkpt><trkpt lat="42.3565892" lon="14.0634992"><ele>100.0</ele><time>2026-05-02T07:31:00.088Z</time></trkpt><trkpt lat="42.3564674" lon="14.0635361"><ele>100.0</ele><time>2026-05-02T07:31:01.081Z</time></trkpt><trkpt lat="42.3563558" lon="14.0635908"><ele>98.4</ele><time>2026-05-02T07:31:02.083Z</time></trkpt><trkpt lat="42.3562497" lon="14.0636681"><ele>96.8</ele><time>2026-05-02T07:31:03.085Z</time></trkpt><trkpt lat="42.3561526" lon="14.063745"><ele>95.19999999999999</ele><time>2026-05-02T07:31:04.087Z</time></trkpt><trkpt lat="42.3560669" lon="14.0638088"><ele>93.6</ele><time>2026-05-02T07:31:05.085Z</time></trkpt><trkpt lat="42.3559935" lon="14.0638531"><ele>92.0</ele><time>2026-05-02T07:31:06.079Z</time></trkpt><trkpt lat="42.3559178" lon="14.0638656"><ele>92.0</ele><time>2026-05-02T07:31:07.075Z</time></trkpt><trkpt lat="42.3558317" lon="14.0638503"><ele>92.0</ele><time>2026-05-02T07:31:08.078Z</time></trkpt><trkpt lat="42.355736" lon="14.0638064"><ele>92.0</ele><time>2026-05-02T07:31:09.082Z</time></trkpt><trkpt lat="42.3556453" lon="14.0637123"><ele>92.0</ele><time>2026-05-02T07:31:10.083Z</time></trkpt><trkpt lat="42.3555742" lon="14.0635988"><ele>92.0</ele><time>2026-05-02T07:31:11.082Z</time></trkpt><trkpt lat="42.3555316" lon="14.063448"><ele>89.66666666666667</ele><time>2026-05-02T07:31:12.084Z</time></trkpt><trkpt lat="42.3555076" lon="14.063262"><ele>87.33333333333333</ele><time>2026-05-02T07:31:13.086Z</time></trkpt><trkpt lat="42.3554809" lon="14.0630638"><ele>85.0</ele><time>2026-05-02T07:31:14.089Z</time></trkpt><trkpt lat="42.3554493" lon="14.0628482"><ele>85.0</ele><time>2026-05-02T07:31:15.09Z</time></trkpt><trkpt lat="42.3553598" lon="14.0626882"><ele>85.0</ele><time>2026-05-02T07:31:16.092Z</time></trkpt><trkpt lat="42.3552664" lon="14.0625217"><ele>85.0</ele><time>2026-05-02T07:31:17.09Z</time></trkpt><trkpt lat="42.3551582" lon="14.0623708"><ele>86.66666666666666</ele><time>2026-05-02T07:31:18.091Z</time></trkpt><trkpt lat="42.3550514" lon="14.0622114"><ele>88.33333333333333</ele><time>2026-05-02T07:31:19.088Z</time></trkpt><trkpt lat="42.354936" lon="14.0620519"><ele>90.0</ele><time>2026-05-02T07:31:20.088Z</time></trkpt><trkpt lat="42.3548455" lon="14.0618875"><ele>90.0</ele><time>2026-05-02T07:31:21.092Z</time></trkpt><trkpt lat="42.3547301" lon="14.0617308"><ele>90.0</ele><time>2026-05-02T07:31:22.097Z</time></trkpt><trkpt lat="42.3546319" lon="14.0615505"><ele>90.0</ele><time>2026-05-02T07:31:23.096Z</time></trkpt><trkpt lat="42.3545128" lon="14.0613676"><ele>91.33333333333333</ele><time>2026-05-02T07:31:24.098Z</time></trkpt><trkpt lat="42.3543946" lon="14.0611727"><ele>92.66666666666666</ele><time>2026-05-02T07:31:25.094Z</time></trkpt><trkpt lat="42.3542825" lon="14.060986"><ele>94.0</ele><time>2026-05-02T07:31:26.097Z</time></trkpt><trkpt lat="42.3541525" lon="14.0607736"><ele>93.33333333333333</ele><time>2026-05-02T07:31:27.096Z</time></trkpt><trkpt lat="42.3540189" lon="14.0605518"><ele>92.66666666666667</ele><time>2026-05-02T07:31:28.092Z</time></trkpt><trkpt lat="42.3538872" lon="14.060327"><ele>92.0</ele><time>2026-05-02T07:31:29.089Z</time></trkpt><trkpt lat="42.3537849" lon="14.0601138"><ele>92.5</ele><time>2026-05-02T07:31:30.086Z</time></trkpt><trkpt lat="42.3536974" lon="14.0599279"><ele>93.0</ele><time>2026-05-02T07:31:31.083Z</time></trkpt><trkpt lat="42.3536123" lon="14.0597633"><ele>93.5</ele><time>2026-05-02T07:31:32.086Z</time></trkpt><trkpt lat="42.3535382" lon="14.0596091"><ele>94.0</ele><time>2026-05-02T07:31:33.09Z</time></trkpt><trkpt lat="42.3534872" lon="14.0594584"><ele>94.0</ele><time>2026-05-02T07:31:34.086Z</time></trkpt><trkpt lat="42.3534498" lon="14.0592616"><ele>94.0</ele><time>2026-05-02T07:31:35.087Z</time></trkpt><trkpt lat="42.3534404" lon="14.0590508"><ele>94.0</ele><time>2026-05-02T07:31:36.091Z</time></trkpt><trkpt lat="42.3534326" lon="14.0588511"><ele>93.66666666666666</ele><time>2026-05-02T07:31:37.089Z</time></trkpt><trkpt lat="42.3534304" lon="14.058615"><ele>93.33333333333333</ele><time>2026-05-02T07:31:38.086Z</time></trkpt><trkpt lat="42.353411" lon="14.0583448"><ele>93.0</ele><time>2026-05-02T07:31:39.098Z</time></trkpt><trkpt lat="42.3533704" lon="14.0580282"><ele>92.66666666666667</ele><time>2026-05-02T07:31:40.088Z</time></trkpt><trkpt lat="42.3533562" lon="14.0576999"><ele>92.33333333333334</ele><time>2026-05-02T07:31:41.09Z</time></trkpt><trkpt lat="42.3533406" lon="14.0574233"><ele>92.0</ele><time>2026-05-02T07:31:42.086Z</time></trkpt><trkpt lat="42.3533008" lon="14.0571664"><ele>91.33333333333334</ele><time>2026-05-02T07:31:43.096Z</time></trkpt><trkpt lat="42.3532784" lon="14.0569275"><ele>90.66666666666667</ele><time>2026-05-02T07:31:44.087Z</time></trkpt><trkpt lat="42.3532714" lon="14.0567046"><ele>90.0</ele><time>2026-05-02T07:31:45.092Z</time></trkpt><trkpt lat="42.3532352" lon="14.056474"><ele>89.66666666666667</ele><time>2026-05-02T07:31:46.087Z</time></trkpt><trkpt lat="42.3531938" lon="14.0562393"><ele>89.33333333333334</ele><time>2026-05-02T07:31:47.093Z</time></trkpt><trkpt lat="42.3531551" lon="14.0560134"><ele>89.0</ele><time>2026-05-02T07:31:48.087Z</time></trkpt><trkpt lat="42.3531192" lon="14.0557907"><ele>89.66666666666667</ele><time>2026-05-02T07:31:49.097Z</time></trkpt><trkpt lat="42.3531" lon="14.0555822"><ele>90.33333333333333</ele><time>2026-05-02T07:31:50.091Z</time></trkpt><trkpt lat="42.3530822" lon="14.0553727"><ele>91.0</ele><time>2026-05-02T07:31:51.104Z</time></trkpt><trkpt lat="42.3530648" lon="14.0551602"><ele>91.0</ele><time>2026-05-02T07:31:52.092Z</time></trkpt><trkpt lat="42.3530418" lon="14.0549681"><ele>91.0</ele><time>2026-05-02T07:31:53.1Z</time></trkpt><trkpt lat="42.3530349" lon="14.054778"><ele>91.0</ele><time>2026-05-02T07:31:54.094Z</time></trkpt><trkpt lat="42.35305" lon="14.0545701"><ele>91.0</ele><time>2026-05-02T07:31:55.098Z</time></trkpt><trkpt lat="42.3530911" lon="14.0543569"><ele>92.0</ele><time>2026-05-02T07:31:56.093Z</time></trkpt><trkpt lat="42.3531339" lon="14.0541501"><ele>93.0</ele><time>2026-05-02T07:31:57.098Z</time></trkpt><trkpt lat="42.353178" lon="14.0539458"><ele>94.0</ele><time>2026-05-02T07:31:58.091Z</time></trkpt><trkpt lat="42.3532122" lon="14.0537661"><ele>96.0</ele><time>2026-05-02T07:31:59.099Z</time></trkpt><trkpt lat="42.3532294" lon="14.053615"><ele>98.0</ele><time>2026-05-02T07:32:00.094Z</time></trkpt><trkpt lat="42.353232" lon="14.0534532"><ele>100.0</ele><time>2026-05-02T07:32:01.09Z</time></trkpt><trkpt lat="42.3531998" lon="14.0532887"><ele>102.0</ele><time>2026-05-02T07:32:02.093Z</time></trkpt><trkpt lat="42.3531149" lon="14.0531159"><ele>102.0</ele><time>2026-05-02T07:32:03.09Z</time></trkpt><trkpt lat="42.3530223" lon="14.0529642"><ele>102.0</ele><time>2026-05-02T07:32:04.097Z</time></trkpt><trkpt lat="42.3529431" lon="14.0527952"><ele>102.0</ele><time>2026-05-02T07:32:05.089Z</time></trkpt><trkpt lat="42.3528993" lon="14.052612"><ele>102.0</ele><time>2026-05-02T07:32:06.084Z</time></trkpt><trkpt lat="42.3528621" lon="14.0523961"><ele>103.66666666666666</ele><time>2026-05-02T07:32:07.084Z</time></trkpt><trkpt lat="42.352896" lon="14.0521731"><ele>105.33333333333333</ele><time>2026-05-02T07:32:08.083Z</time></trkpt><trkpt lat="42.3529237" lon="14.0519861"><ele>107.0</ele><time>2026-05-02T07:32:09.086Z</time></trkpt><trkpt lat="42.3530039" lon="14.051782"><ele>108.33333333333333</ele><time>2026-05-02T07:32:10.088Z</time></trkpt><trkpt lat="42.3530559" lon="14.051588"><ele>109.66666666666666</ele><time>2026-05-02T07:32:11.087Z</time></trkpt><trkpt lat="42.3531149" lon="14.0513633"><ele>111.0</ele><time>2026-05-02T07:32:12.08Z</time></trkpt><trkpt lat="42.3531223" lon="14.0511318"><ele>111.0</ele><time>2026-05-02T07:32:13.078Z</time></trkpt><trkpt lat="42.3531445" lon="14.0508757"><ele>111.0</ele><time>2026-05-02T07:32:14.087Z</time></trkpt><trkpt lat="42.3531658" lon="14.0506388"><ele>111.0</ele><time>2026-05-02T07:32:15.086Z</time></trkpt><trkpt lat="42.3532225" lon="14.0503992"><ele>111.66666666666666</ele><time>2026-05-02T07:32:16.086Z</time></trkpt><trkpt lat="42.3532478" lon="14.0501723"><ele>112.33333333333333</ele><time>2026-05-02T07:32:17.086Z</time></trkpt><trkpt lat="42.3532502" lon="14.0499464"><ele>113.0</ele><time>2026-05-02T07:32:18.085Z</time></trkpt><trkpt lat="42.353223" lon="14.0497227"><ele>114.66666666666666</ele><time>2026-05-02T07:32:19.086Z</time></trkpt><trkpt lat="42.3531718" lon="14.0495014"><ele>116.33333333333334</ele><time>2026-05-02T07:32:20.09Z</time></trkpt><trkpt lat="42.3531051" lon="14.0492883"><ele>118.0</ele><time>2026-05-02T07:32:21.095Z</time></trkpt><trkpt lat="42.3530743" lon="14.0490944"><ele>118.25</ele><time>2026-05-02T07:32:22.082Z</time></trkpt><trkpt lat="42.3530923" lon="14.0489052"><ele>118.5</ele><time>2026-05-02T07:32:23.075Z</time></trkpt><trkpt lat="42.3530967" lon="14.0487056"><ele>118.75</ele><time>2026-05-02T07:32:24.084Z</time></trkpt><trkpt lat="42.3530821" lon="14.0485033"><ele>119.0</ele><time>2026-05-02T07:32:25.085Z</time></trkpt><trkpt lat="42.353085" lon="14.048329"><ele>115.5</ele><time>2026-05-02T07:32:26.082Z</time></trkpt><trkpt lat="42.3530228" lon="14.0481687"><ele>112.0</ele><time>2026-05-02T07:32:27.086Z</time></trkpt><trkpt lat="42.3529823" lon="14.0480014"><ele>108.5</ele><time>2026-05-02T07:32:28.089Z</time></trkpt><trkpt lat="42.3529925" lon="14.047811"><ele>105.0</ele><time>2026-05-02T07:32:29.091Z</time></trkpt><trkpt lat="42.35303" lon="14.0476402"><ele>108.5</ele><time>2026-05-02T07:32:30.091Z</time></trkpt><trkpt lat="42.3531091" lon="14.0474985"><ele>112.0</ele><time>2026-05-02T07:32:31.088Z</time></trkpt><trkpt lat="42.3531978" lon="14.0473749"><ele>115.5</ele><time>2026-05-02T07:32:32.098Z</time></trkpt><trkpt lat="42.3532789" lon="14.0472186"><ele>119.0</ele><time>2026-05-02T07:32:33.095Z</time></trkpt><trkpt lat="42.3533475" lon="14.0470331"><ele>119.0</ele><time>2026-05-02T07:32:34.094Z</time></trkpt><trkpt lat="42.3534158" lon="14.0468165"><ele>119.0</ele><time>2026-05-02T07:32:35.087Z</time></trkpt><trkpt lat="42.3534759" lon="14.0466166"><ele>119.0</ele><time>2026-05-02T07:32:36.084Z</time></trkpt><trkpt lat="42.3535533" lon="14.0463819"><ele>119.33333333333333</ele><time>2026-05-02T07:32:37.083Z</time></trkpt><trkpt lat="42.3536023" lon="14.0461401"><ele>119.66666666666666</ele><time>2026-05-02T07:32:38.086Z</time></trkpt><trkpt lat="42.3536508" lon="14.0458949"><ele>120.0</ele><time>2026-05-02T07:32:39.088Z</time></trkpt><trkpt lat="42.3536726" lon="14.0456581"><ele>120.0</ele><time>2026-05-02T07:32:40.097Z</time></trkpt><trkpt lat="42.3536956" lon="14.0454245"><ele>120.0</ele><time>2026-05-02T07:32:41.094Z</time></trkpt><trkpt lat="42.3536674" lon="14.0451932"><ele>120.0</ele><time>2026-05-02T07:32:42.095Z</time></trkpt><trkpt lat="42.3536463" lon="14.0449617"><ele>121.25</ele><time>2026-05-02T07:32:43.098Z</time></trkpt><trkpt lat="42.3536366" lon="14.044742"><ele>122.5</ele><time>2026-05-02T07:32:44.097Z</time></trkpt><trkpt lat="42.3536344" lon="14.0445416"><ele>123.75</ele><time>2026-05-02T07:32:45.094Z</time></trkpt><trkpt lat="42.3536258" lon="14.0443733"><ele>125.0</ele><time>2026-05-02T07:32:46.096Z</time></trkpt><trkpt lat="42.3536449" lon="14.0441851"><ele>126.0</ele><time>2026-05-02T07:32:47.098Z</time></trkpt><trkpt lat="42.3536911" lon="14.0440078"><ele>127.0</ele><time>2026-05-02T07:32:48.095Z</time></trkpt><trkpt lat="42.3537443" lon="14.0438149"><ele>128.0</ele><time>2026-05-02T07:32:49.099Z</time></trkpt><trkpt lat="42.3537983" lon="14.043616"><ele>129.0</ele><time>2026-05-02T07:32:50.093Z</time></trkpt><trkpt lat="42.3538429" lon="14.0434208"><ele>130.0</ele><time>2026-05-02T07:32:51.096Z</time></trkpt><trkpt lat="42.3539" lon="14.0432238"><ele>131.0</ele><time>2026-05-02T07:32:52.095Z</time></trkpt><trkpt lat="42.3539575" lon="14.0430222"><ele>132.0</ele><time>2026-05-02T07:32:53.106Z</time></trkpt><trkpt lat="42.3540032" lon="14.0428056"><ele>132.0</ele><time>2026-05-02T07:32:54.1Z</time></trkpt><trkpt lat="42.3540483" lon="14.0425684"><ele>132.0</ele><time>2026-05-02T07:32:55.108Z</time></trkpt><trkpt lat="42.3540785" lon="14.0423279"><ele>132.0</ele><time>2026-05-02T07:32:56.099Z</time></trkpt><trkpt lat="42.35412" lon="14.042062"><ele>132.0</ele><time>2026-05-02T07:32:57.103Z</time></trkpt><trkpt lat="42.3541623" lon="14.0418035"><ele>132.0</ele><time>2026-05-02T07:32:58.099Z</time></trkpt><trkpt lat="42.3542011" lon="14.0415655"><ele>132.0</ele><time>2026-05-02T07:32:59.103Z</time></trkpt><trkpt lat="42.3542433" lon="14.0413666"><ele>132.75</ele><time>2026-05-02T07:33:00.097Z</time></trkpt><trkpt lat="42.3542614" lon="14.0411814"><ele>133.5</ele><time>2026-05-02T07:33:01.1Z</time></trkpt><trkpt lat="42.354283" lon="14.0410263"><ele>134.25</ele><time>2026-05-02T07:33:02.092Z</time></trkpt><trkpt lat="42.3543076" lon="14.0408512"><ele>135.0</ele><time>2026-05-02T07:33:03.093Z</time></trkpt><trkpt lat="42.3543383" lon="14.0406795"><ele>136.25</ele><time>2026-05-02T07:33:04.093Z</time></trkpt><trkpt lat="42.3543687" lon="14.0404855"><ele>137.5</ele><time>2026-05-02T07:33:05.095Z</time></trkpt><trkpt lat="42.3544025" lon="14.0403185"><ele>138.75</ele><time>2026-05-02T07:33:06.096Z</time></trkpt><trkpt lat="42.354448" lon="14.0401593"><ele>140.0</ele><time>2026-05-02T07:33:07.094Z</time></trkpt><trkpt lat="42.3544859" lon="14.0399801"><ele>140.25</ele><time>2026-05-02T07:33:08.094Z</time></trkpt><trkpt lat="42.3545228" lon="14.0398074"><ele>140.5</ele><time>2026-05-02T07:33:09.099Z</time></trkpt><trkpt lat="42.354559" lon="14.0396298"><ele>140.75</ele><time>2026-05-02T07:33:10.096Z</time></trkpt><trkpt lat="42.3545855" lon="14.0394458"><ele>141.0</ele><time>2026-05-02T07:33:11.1Z</time></trkpt><trkpt lat="42.3545957" lon="14.0392666"><ele>140.25</ele><time>2026-05-02T07:33:12.094Z</time></trkpt><trkpt lat="42.3546346" lon="14.0390741"><ele>139.5</ele><time>2026-05-02T07:33:13.094Z</time></trkpt><trkpt lat="42.3546571" lon="14.0388817"><ele>138.75</ele><time>2026-05-02T07:33:14.097Z</time></trkpt><trkpt lat="42.3546826" lon="14.0386825"><ele>138.0</ele><time>2026-05-02T07:33:15.092Z</time></trkpt><trkpt lat="42.3547105" lon="14.0384703"><ele>136.0</ele><time>2026-05-02T07:33:16.095Z</time></trkpt><trkpt lat="42.3547437" lon="14.0382639"><ele>134.0</ele><time>2026-05-02T07:33:17.097Z</time></trkpt><trkpt lat="42.3547873" lon="14.0380333"><ele>132.0</ele><time>2026-05-02T07:33:18.095Z</time></trkpt><trkpt lat="42.3548188" lon="14.0378275"><ele>132.0</ele><time>2026-05-02T07:33:19.096Z</time></trkpt><trkpt lat="42.3548492" lon="14.0376106"><ele>132.0</ele><time>2026-05-02T07:33:20.093Z</time></trkpt><trkpt lat="42.354878" lon="14.0374036"><ele>132.0</ele><time>2026-05-02T07:33:21.096Z</time></trkpt><trkpt lat="42.3549059" lon="14.037183"><ele>132.33333333333334</ele><time>2026-05-02T07:33:22.098Z</time></trkpt><trkpt lat="42.3549315" lon="14.036944"><ele>132.66666666666669</ele><time>2026-05-02T07:33:23.094Z</time></trkpt><trkpt lat="42.3549536" lon="14.0367071"><ele>133.0</ele><time>2026-05-02T07:33:24.095Z</time></trkpt><trkpt lat="42.354984" lon="14.0364607"><ele>133.33333333333334</ele><time>2026-05-02T07:33:25.093Z</time></trkpt><trkpt lat="42.3549795" lon="14.0362237"><ele>133.66666666666666</ele><time>2026-05-02T07:33:26.098Z</time></trkpt><trkpt lat="42.3549661" lon="14.0359633"><ele>134.0</ele><time>2026-05-02T07:33:27.097Z</time></trkpt><trkpt lat="42.3549479" lon="14.0357114"><ele>135.0</ele><time>2026-05-02T07:33:28.1Z</time></trkpt><trkpt lat="42.3549384" lon="14.0354462"><ele>136.0</ele><time>2026-05-02T07:33:29.102Z</time></trkpt><trkpt lat="42.3549348" lon="14.0351775"><ele>137.0</ele><time>2026-05-02T07:33:30.096Z</time></trkpt><trkpt lat="42.3549207" lon="14.034907"><ele>137.33333333333331</ele><time>2026-05-02T07:33:31.105Z</time></trkpt><trkpt lat="42.35492" lon="14.0346403"><ele>137.66666666666666</ele><time>2026-05-02T07:33:32.1Z</time></trkpt><trkpt lat="42.354924" lon="14.0343813"><ele>138.0</ele><time>2026-05-02T07:33:33.101Z</time></trkpt><trkpt lat="42.3549255" lon="14.034109"><ele>138.0</ele><time>2026-05-02T07:33:34.099Z</time></trkpt><trkpt lat="42.3549277" lon="14.0338359"><ele>138.0</ele><time>2026-05-02T07:33:35.104Z</time></trkpt><trkpt lat="42.3549117" lon="14.0335426"><ele>138.0</ele><time>2026-05-02T07:33:36.099Z</time></trkpt><trkpt lat="42.354909" lon="14.0332571"><ele>138.33333333333334</ele><time>2026-05-02T07:33:37.104Z</time></trkpt><trkpt lat="42.3549004" lon="14.0329755"><ele>138.66666666666669</ele><time>2026-05-02T07:33:38.098Z</time></trkpt><trkpt lat="42.3549003" lon="14.0326857"><ele>139.0</ele><time>2026-05-02T07:33:39.104Z</time></trkpt><trkpt lat="42.354901" lon="14.032401"><ele>139.0</ele><time>2026-05-02T07:33:40.098Z</time></trkpt><trkpt lat="42.3549005" lon="14.0321093"><ele>139.0</ele><time>2026-05-02T07:33:41.104Z</time></trkpt><trkpt lat="42.3548985" lon="14.0318182"><ele>139.0</ele><time>2026-05-02T07:33:42.098Z</time></trkpt><trkpt lat="42.3548875" lon="14.0315311"><ele>139.0</ele><time>2026-05-02T07:33:43.099Z</time></trkpt><trkpt lat="42.3548832" lon="14.0312311"><ele>139.0</ele><time>2026-05-02T07:33:44.102Z</time></trkpt><trkpt lat="42.3548867" lon="14.0309345"><ele>139.0</ele><time>2026-05-02T07:33:45.101Z</time></trkpt><trkpt lat="42.3548938" lon="14.0306382"><ele>139.66666666666669</ele><time>2026-05-02T07:33:46.099Z</time></trkpt><trkpt lat="42.3548942" lon="14.0303653"><ele>140.33333333333334</ele><time>2026-05-02T07:33:47.105Z</time></trkpt><trkpt lat="42.354884" lon="14.0300911"><ele>141.0</ele><time>2026-05-02T07:33:48.1Z</time></trkpt><trkpt lat="42.3548871" lon="14.0298367"><ele>142.0</ele><time>2026-05-02T07:33:49.106Z</time></trkpt><trkpt lat="42.354884" lon="14.0295741"><ele>143.0</ele><time>2026-05-02T07:33:50.098Z</time></trkpt><trkpt lat="42.354882" lon="14.0293032"><ele>144.0</ele><time>2026-05-02T07:33:51.101Z</time></trkpt><trkpt lat="42.354885" lon="14.0290207"><ele>144.0</ele><time>2026-05-02T07:33:52.1Z</time></trkpt><trkpt lat="42.35488" lon="14.0287516"><ele>144.0</ele><time>2026-05-02T07:33:53.101Z</time></trkpt><trkpt lat="42.3548717" lon="14.02847"><ele>144.0</ele><time>2026-05-02T07:33:54.096Z</time></trkpt><trkpt lat="42.3548562" lon="14.0281838"><ele>144.33333333333334</ele><time>2026-05-02T07:33:55.096Z</time></trkpt><trkpt lat="42.3548453" lon="14.0278985"><ele>144.66666666666669</ele><time>2026-05-02T07:33:56.099Z</time></trkpt><trkpt lat="42.3548481" lon="14.0276126"><ele>145.0</ele><time>2026-05-02T07:33:57.096Z</time></trkpt><trkpt lat="42.3548573" lon="14.0273247"><ele>145.66666666666669</ele><time>2026-05-02T07:33:58.1Z</time></trkpt><trkpt lat="42.3548506" lon="14.0270349"><ele>146.33333333333334</ele><time>2026-05-02T07:33:59.1Z</time></trkpt><trkpt lat="42.3548463" lon="14.0267482"><ele>147.0</ele><time>2026-05-02T07:34:00.098Z</time></trkpt><trkpt lat="42.354839" lon="14.0264606"><ele>147.0</ele><time>2026-05-02T07:34:01.1Z</time></trkpt><trkpt lat="42.3548463" lon="14.0261509"><ele>147.0</ele><time>2026-05-02T07:34:02.095Z</time></trkpt><trkpt lat="42.3548464" lon="14.0258601"><ele>147.0</ele><time>2026-05-02T07:34:03.102Z</time></trkpt><trkpt lat="42.3548378" lon="14.0255818"><ele>147.66666666666666</ele><time>2026-05-02T07:34:04.098Z</time></trkpt><trkpt lat="42.3548166" lon="14.0253113"><ele>148.33333333333331</ele><time>2026-05-02T07:34:05.103Z</time></trkpt><trkpt lat="42.354806" lon="14.0250515"><ele>149.0</ele><time>2026-05-02T07:34:06.093Z</time></trkpt><trkpt lat="42.3548091" lon="14.0248233"><ele>149.25</ele><time>2026-05-02T07:34:07.101Z</time></trkpt><trkpt lat="42.3548248" lon="14.0246158"><ele>149.5</ele><time>2026-05-02T07:34:08.091Z</time></trkpt><trkpt lat="42.3548394" lon="14.0244251"><ele>149.75</ele><time>2026-05-02T07:34:09.099Z</time></trkpt><trkpt lat="42.3548588" lon="14.024251"><ele>150.0</ele><time>2026-05-02T07:34:10.095Z</time></trkpt><trkpt lat="42.354879" lon="14.0240907"><ele>150.33333333333334</ele><time>2026-05-02T07:34:11.1Z</time></trkpt><trkpt lat="42.3548983" lon="14.0239536"><ele>150.66666666666666</ele><time>2026-05-02T07:34:12.095Z</time></trkpt><trkpt lat="42.3549064" lon="14.0238219"><ele>151.0</ele><time>2026-05-02T07:34:13.093Z</time></trkpt><trkpt lat="42.3549011" lon="14.0237192"><ele>151.33333333333331</ele><time>2026-05-02T07:34:14.092Z</time></trkpt><trkpt lat="42.3548677" lon="14.0236189"><ele>151.66666666666666</ele><time>2026-05-02T07:34:16.099Z</time></trkpt><trkpt lat="42.3547921" lon="14.0236205"><ele>152.0</ele><time>2026-05-02T07:34:18.093Z</time></trkpt><trkpt lat="42.3547256" lon="14.0236617"><ele>152.6</ele><time>2026-05-02T07:34:19.09Z</time></trkpt><trkpt lat="42.3546472" lon="14.0237198"><ele>153.2</ele><time>2026-05-02T07:34:20.088Z</time></trkpt><trkpt lat="42.3545679" lon="14.0238108"><ele>153.8</ele><time>2026-05-02T07:34:21.091Z</time></trkpt><trkpt lat="42.354482" lon="14.0239255"><ele>154.4</ele><time>2026-05-02T07:34:22.095Z</time></trkpt><trkpt lat="42.3544006" lon="14.0240372"><ele>155.0</ele><time>2026-05-02T07:34:23.094Z</time></trkpt><trkpt lat="42.3543253" lon="14.0241277"><ele>154.8</ele><time>2026-05-02T07:34:24.091Z</time></trkpt><trkpt lat="42.3542584" lon="14.0241974"><ele>154.6</ele><time>2026-05-02T07:34:25.094Z</time></trkpt><trkpt lat="42.3542029" lon="14.0242544"><ele>154.4</ele><time>2026-05-02T07:34:26.096Z</time></trkpt><trkpt lat="42.3541157" lon="14.0243187"><ele>154.2</ele><time>2026-05-02T07:34:28.097Z</time></trkpt><trkpt lat="42.3540277" lon="14.0243047"><ele>154.0</ele><time>2026-05-02T07:34:30.1Z</time></trkpt><trkpt lat="42.3539234" lon="14.0242152"><ele>154.66666666666669</ele><time>2026-05-02T07:34:32.098Z</time></trkpt><trkpt lat="42.3538476" lon="14.024148"><ele>155.33333333333334</ele><time>2026-05-02T07:34:33.101Z</time></trkpt><trkpt lat="42.3537721" lon="14.02409"><ele>156.0</ele><time>2026-05-02T07:34:34.097Z</time></trkpt><trkpt lat="42.3536988" lon="14.0240483"><ele>156.66666666666666</ele><time>2026-05-02T07:34:35.096Z</time></trkpt><trkpt lat="42.3536169" lon="14.0240237"><ele>157.33333333333331</ele><time>2026-05-02T07:34:36.097Z</time></trkpt><trkpt lat="42.3535214" lon="14.0240103"><ele>158.0</ele><time>2026-05-02T07:34:37.1Z</time></trkpt><trkpt lat="42.3534079" lon="14.0240132"><ele>158.0</ele><time>2026-05-02T07:34:38.1Z</time></trkpt><trkpt lat="42.3532932" lon="14.0240122"><ele>158.0</ele><time>2026-05-02T07:34:39.101Z</time></trkpt><trkpt lat="42.353182" lon="14.0240005"><ele>158.0</ele><time>2026-05-02T07:34:40.095Z</time></trkpt><trkpt lat="42.3530669" lon="14.0239879"><ele>158.0</ele><time>2026-05-02T07:34:41.097Z</time></trkpt><trkpt lat="42.3529542" lon="14.0239705"><ele>159.60000000000002</ele><time>2026-05-02T07:34:42.099Z</time></trkpt><trkpt lat="42.3528472" lon="14.0239536"><ele>161.20000000000002</ele><time>2026-05-02T07:34:43.096Z</time></trkpt><trkpt lat="42.3527518" lon="14.0239347"><ele>162.8</ele><time>2026-05-02T07:34:44.099Z</time></trkpt><trkpt lat="42.3526515" lon="14.0239173"><ele>164.4</ele><time>2026-05-02T07:34:45.098Z</time></trkpt><trkpt lat="42.3525538" lon="14.0238999"><ele>166.0</ele><time>2026-05-02T07:34:46.098Z</time></trkpt><trkpt lat="42.3524614" lon="14.0238815"><ele>166.0</ele><time>2026-05-02T07:34:47.098Z</time></trkpt><trkpt lat="42.3523741" lon="14.0238657"><ele>166.0</ele><time>2026-05-02T07:34:48.1Z</time></trkpt><trkpt lat="42.352284" lon="14.0238515"><ele>166.0</ele><time>2026-05-02T07:34:49.1Z</time></trkpt><trkpt lat="42.3521922" lon="14.0238385"><ele>166.0</ele><time>2026-05-02T07:34:50.093Z</time></trkpt><trkpt lat="42.3521083" lon="14.0238367"><ele>166.0</ele><time>2026-05-02T07:34:51.094Z</time></trkpt><trkpt lat="42.3520268" lon="14.0238471"><ele>166.0</ele><time>2026-05-02T07:34:52.096Z</time></trkpt><trkpt lat="42.3519342" lon="14.02387"><ele>167.4</ele><time>2026-05-02T07:34:53.095Z</time></trkpt><trkpt lat="42.3518289" lon="14.023905"><ele>168.8</ele><time>2026-05-02T07:34:54.09Z</time></trkpt><trkpt lat="42.351716" lon="14.0239475"><ele>170.20000000000002</ele><time>2026-05-02T07:34:55.095Z</time></trkpt><trkpt lat="42.3516172" lon="14.0239847"><ele>171.60000000000002</ele><time>2026-05-02T07:34:56.087Z</time></trkpt><trkpt lat="42.3515387" lon="14.0240141"><ele>173.0</ele><time>2026-05-02T07:34:57.091Z</time></trkpt><trkpt lat="42.3514696" lon="14.0240285"><ele>173.0</ele><time>2026-05-02T07:34:58.093Z</time></trkpt><trkpt lat="42.3513996" lon="14.0240242"><ele>173.0</ele><time>2026-05-02T07:34:59.082Z</time></trkpt><trkpt lat="42.3513298" lon="14.024002"><ele>173.0</ele><time>2026-05-02T07:35:00.087Z</time></trkpt><trkpt lat="42.3512732" lon="14.0239635"><ele>173.0</ele><time>2026-05-02T07:35:01.085Z</time></trkpt><trkpt lat="42.351207" lon="14.0238274"><ele>173.0</ele><time>2026-05-02T07:35:03.088Z</time></trkpt><trkpt lat="42.3511811" lon="14.0237278"><ele>173.0</ele><time>2026-05-02T07:35:04.092Z</time></trkpt><trkpt lat="42.351152" lon="14.0236031"><ele>174.60000000000002</ele><time>2026-05-02T07:35:05.09Z</time></trkpt><trkpt lat="42.3511213" lon="14.0234652"><ele>176.20000000000002</ele><time>2026-05-02T07:35:06.095Z</time></trkpt><trkpt lat="42.3510871" lon="14.0233368"><ele>177.8</ele><time>2026-05-02T07:35:07.092Z</time></trkpt><trkpt lat="42.3510433" lon="14.023226"><ele>179.4</ele><time>2026-05-02T07:35:08.093Z</time></trkpt><trkpt lat="42.3509914" lon="14.0231267"><ele>181.0</ele><time>2026-05-02T07:35:09.091Z</time></trkpt><trkpt lat="42.3509301" lon="14.0230452"><ele>182.25</ele><time>2026-05-02T07:35:10.091Z</time></trkpt><trkpt lat="42.3508599" lon="14.0229653"><ele>183.5</ele><time>2026-05-02T07:35:11.093Z</time></trkpt><trkpt lat="42.3507653" lon="14.0228682"><ele>184.75</ele><time>2026-05-02T07:35:12.096Z</time></trkpt><trkpt lat="42.3506757" lon="14.0227574"><ele>186.0</ele><time>2026-05-02T07:35:13.089Z</time></trkpt><trkpt lat="42.3505938" lon="14.0226366"><ele>186.60000000000002</ele><time>2026-05-02T07:35:14.103Z</time></trkpt><trkpt lat="42.3505221" lon="14.022517"><ele>187.2</ele><time>2026-05-02T07:35:15.1Z</time></trkpt><trkpt lat="42.3504515" lon="14.0224083"><ele>187.8</ele><time>2026-05-02T07:35:16.094Z</time></trkpt><trkpt lat="42.3503903" lon="14.0223176"><ele>188.39999999999998</ele><time>2026-05-02T07:35:17.099Z</time></trkpt><trkpt lat="42.3503389" lon="14.0222484"><ele>189.0</ele><time>2026-05-02T07:35:18.098Z</time></trkpt><trkpt lat="42.3502808" lon="14.0221984"><ele>189.0</ele><time>2026-05-02T07:35:19.094Z</time></trkpt><trkpt lat="42.350222" lon="14.0221668"><ele>189.0</ele><time>2026-05-02T07:35:20.095Z</time></trkpt><trkpt lat="42.3501512" lon="14.0221617"><ele>189.0</ele><time>2026-05-02T07:35:21.107Z</time></trkpt><trkpt lat="42.350079" lon="14.0222148"><ele>189.0</ele><time>2026-05-02T07:35:22.101Z</time></trkpt><trkpt lat="42.3500074" lon="14.0222925"><ele>189.0</ele><time>2026-05-02T07:35:23.101Z</time></trkpt><trkpt lat="42.349922" lon="14.0223883"><ele>189.0</ele><time>2026-05-02T07:35:24.095Z</time></trkpt><trkpt lat="42.3498225" lon="14.0225004"><ele>189.0</ele><time>2026-05-02T07:35:25.1Z</time></trkpt><trkpt lat="42.3497118" lon="14.0226098"><ele>189.0</ele><time>2026-05-02T07:35:26.101Z</time></trkpt><trkpt lat="42.3495938" lon="14.0227193"><ele>189.0</ele><time>2026-05-02T07:35:27.106Z</time></trkpt><trkpt lat="42.3494724" lon="14.0228314"><ele>189.0</ele><time>2026-05-02T07:35:28.099Z</time></trkpt><trkpt lat="42.3493425" lon="14.0229435"><ele>189.0</ele><time>2026-05-02T07:35:29.099Z</time></trkpt><trkpt lat="42.349245" lon="14.0230257"><ele>189.0</ele><time>2026-05-02T07:35:30.091Z</time></trkpt><trkpt lat="42.3491564" lon="14.0231164"><ele>189.0</ele><time>2026-05-02T07:35:31.098Z</time></trkpt><trkpt lat="42.3490929" lon="14.0231931"><ele>189.0</ele><time>2026-05-02T07:35:32.092Z</time></trkpt><trkpt lat="42.3490403" lon="14.0232423"><ele>189.0</ele><time>2026-05-02T07:35:33.093Z</time></trkpt><trkpt lat="42.3489738" lon="14.0233181"><ele>189.2</ele><time>2026-05-02T07:35:35.089Z</time></trkpt><trkpt lat="42.3488972" lon="14.0233132"><ele>189.39999999999998</ele><time>2026-05-02T07:35:37.086Z</time></trkpt><trkpt lat="42.3488106" lon="14.023226"><ele>189.6</ele><time>2026-05-02T07:35:39.067Z</time></trkpt><trkpt lat="42.3487627" lon="14.0231215"><ele>189.8</ele><time>2026-05-02T07:35:40.088Z</time></trkpt><trkpt lat="42.3487137" lon="14.023003"><ele>190.0</ele><time>2026-05-02T07:35:41.087Z</time></trkpt><trkpt lat="42.3486639" lon="14.0228869"><ele>191.66666666666669</ele><time>2026-05-02T07:35:42.09Z</time></trkpt><trkpt lat="42.348597" lon="14.0227316"><ele>193.33333333333334</ele><time>2026-05-02T07:35:43.091Z</time></trkpt><trkpt lat="42.3485124" lon="14.0225511"><ele>195.0</ele><time>2026-05-02T07:35:44.092Z</time></trkpt><trkpt lat="42.348384" lon="14.0222957"><ele>195.0</ele><time>2026-05-02T07:35:45.086Z</time></trkpt><trkpt lat="42.3482413" lon="14.0221085"><ele>195.0</ele><time>2026-05-02T07:35:46.085Z</time></trkpt><trkpt lat="42.3480888" lon="14.0219143"><ele>195.0</ele><time>2026-05-02T07:35:47.088Z</time></trkpt><trkpt lat="42.3479531" lon="14.0217323"><ele>195.33333333333331</ele><time>2026-05-02T07:35:48.085Z</time></trkpt><trkpt lat="42.3478224" lon="14.0215506"><ele>195.66666666666666</ele><time>2026-05-02T07:35:49.084Z</time></trkpt><trkpt lat="42.347693" lon="14.0213457"><ele>196.0</ele><time>2026-05-02T07:35:50.084Z</time></trkpt><trkpt lat="42.3475566" lon="14.0211793"><ele>196.0</ele><time>2026-05-02T07:35:51.087Z</time></trkpt><trkpt lat="42.3474299" lon="14.0209923"><ele>196.0</ele><time>2026-05-02T07:35:52.092Z</time></trkpt><trkpt lat="42.3473091" lon="14.0207909"><ele>196.0</ele><time>2026-05-02T07:35:53.094Z</time></trkpt><trkpt lat="42.3472055" lon="14.0206035"><ele>196.66666666666666</ele><time>2026-05-02T07:35:54.091Z</time></trkpt><trkpt lat="42.3471" lon="14.0204125"><ele>197.33333333333331</ele><time>2026-05-02T07:35:55.097Z</time></trkpt><trkpt lat="42.3470074" lon="14.0202071"><ele>198.0</ele><time>2026-05-02T07:35:56.096Z</time></trkpt><trkpt lat="42.3468992" lon="14.0200165"><ele>197.66666666666669</ele><time>2026-05-02T07:35:57.098Z</time></trkpt><trkpt lat="42.3467921" lon="14.0198287"><ele>197.33333333333334</ele><time>2026-05-02T07:35:58.099Z</time></trkpt><trkpt lat="42.3467033" lon="14.0196255"><ele>197.0</ele><time>2026-05-02T07:35:59.102Z</time></trkpt><trkpt lat="42.3466031" lon="14.0194202"><ele>197.0</ele><time>2026-05-02T07:36:00.094Z</time></trkpt><trkpt lat="42.3465109" lon="14.0192083"><ele>197.0</ele><time>2026-05-02T07:36:01.1Z</time></trkpt><trkpt lat="42.3464195" lon="14.0190089"><ele>197.0</ele><time>2026-05-02T07:36:02.094Z</time></trkpt><trkpt lat="42.3463387" lon="14.0188085"><ele>198.33333333333334</ele><time>2026-05-02T07:36:03.101Z</time></trkpt><trkpt lat="42.3462497" lon="14.0186115"><ele>199.66666666666669</ele><time>2026-05-02T07:36:04.098Z</time></trkpt><trkpt lat="42.3461565" lon="14.0184136"><ele>201.0</ele><time>2026-05-02T07:36:05.094Z</time></trkpt><trkpt lat="42.3460534" lon="14.0182411"><ele>201.66666666666669</ele><time>2026-05-02T07:36:06.094Z</time></trkpt><trkpt lat="42.3459823" lon="14.0180454"><ele>202.33333333333334</ele><time>2026-05-02T07:36:07.098Z</time></trkpt><trkpt lat="42.3459045" lon="14.0178744"><ele>203.0</ele><time>2026-05-02T07:36:08.094Z</time></trkpt><trkpt lat="42.3458171" lon="14.0176928"><ele>203.0</ele><time>2026-05-02T07:36:09.096Z</time></trkpt><trkpt lat="42.3457434" lon="14.0175355"><ele>203.0</ele><time>2026-05-02T07:36:10.101Z</time></trkpt><trkpt lat="42.3456593" lon="14.0173661"><ele>203.0</ele><time>2026-05-02T07:36:11.099Z</time></trkpt><trkpt lat="42.3455754" lon="14.0172041"><ele>203.0</ele><time>2026-05-02T07:36:12.099Z</time></trkpt><trkpt lat="42.345489" lon="14.0170177"><ele>203.5</ele><time>2026-05-02T07:36:13.094Z</time></trkpt><trkpt lat="42.3453897" lon="14.0168743"><ele>204.0</ele><time>2026-05-02T07:36:14.1Z</time></trkpt><trkpt lat="42.345307" lon="14.0167291"><ele>204.5</ele><time>2026-05-02T07:36:15.096Z</time></trkpt><trkpt lat="42.3452286" lon="14.0165908"><ele>205.0</ele><time>2026-05-02T07:36:16.098Z</time></trkpt><trkpt lat="42.3451729" lon="14.0164648"><ele>205.33333333333331</ele><time>2026-05-02T07:36:17.096Z</time></trkpt><trkpt lat="42.345132" lon="14.0163451"><ele>205.66666666666666</ele><time>2026-05-02T07:36:18.095Z</time></trkpt><trkpt lat="42.3451079" lon="14.0162228"><ele>206.0</ele><time>2026-05-02T07:36:19.09Z</time></trkpt><trkpt lat="42.3450681" lon="14.01613"><ele>206.33333333333331</ele><time>2026-05-02T07:36:20.086Z</time></trkpt><trkpt lat="42.345025" lon="14.0160599"><ele>206.66666666666666</ele><time>2026-05-02T07:36:21.096Z</time></trkpt><trkpt lat="42.3449587" lon="14.0160432"><ele>207.0</ele><time>2026-05-02T07:36:22.087Z</time></trkpt><trkpt lat="42.344865" lon="14.0160668"><ele>207.0</ele><time>2026-05-02T07:36:23.084Z</time></trkpt><trkpt lat="42.344745" lon="14.0161072"><ele>207.0</ele><time>2026-05-02T07:36:24.085Z</time></trkpt><trkpt lat="42.3446068" lon="14.016149"><ele>207.0</ele><time>2026-05-02T07:36:25.086Z</time></trkpt><trkpt lat="42.3444661" lon="14.0161888"><ele>207.0</ele><time>2026-05-02T07:36:26.093Z</time></trkpt><trkpt lat="42.3443352" lon="14.0162448"><ele>207.0</ele><time>2026-05-02T07:36:27.087Z</time></trkpt><trkpt lat="42.3441985" lon="14.0162927"><ele>207.0</ele><time>2026-05-02T07:36:28.095Z</time></trkpt><trkpt lat="42.3440965" lon="14.016291"><ele>207.0</ele><time>2026-05-02T07:36:29.094Z</time></trkpt><trkpt lat="42.3440133" lon="14.0163096"><ele>207.0</ele><time>2026-05-02T07:36:30.093Z</time></trkpt><trkpt lat="42.3439175" lon="14.0163337"><ele>207.0</ele><time>2026-05-02T07:36:31.091Z</time></trkpt><trkpt lat="42.34384" lon="14.0163435"><ele>206.39999999999998</ele><time>2026-05-02T07:36:32.096Z</time></trkpt><trkpt lat="42.3437529" lon="14.0163404"><ele>205.79999999999998</ele><time>2026-05-02T07:36:33.092Z</time></trkpt><trkpt lat="42.3436676" lon="14.0163234"><ele>205.2</ele><time>2026-05-02T07:36:34.098Z</time></trkpt><trkpt lat="42.3435762" lon="14.0163085"><ele>204.6</ele><time>2026-05-02T07:36:35.1Z</time></trkpt><trkpt lat="42.3434865" lon="14.0162841"><ele>204.0</ele><time>2026-05-02T07:36:36.098Z</time></trkpt><trkpt lat="42.3433952" lon="14.0162587"><ele>204.0</ele><time>2026-05-02T07:36:37.093Z</time></trkpt><trkpt lat="42.3432959" lon="14.0162222"><ele>204.0</ele><time>2026-05-02T07:36:38.101Z</time></trkpt><trkpt lat="42.3431964" lon="14.0161849"><ele>204.0</ele><time>2026-05-02T07:36:39.097Z</time></trkpt><trkpt lat="42.3430959" lon="14.0161472"><ele>204.0</ele><time>2026-05-02T07:36:40.1Z</time></trkpt><trkpt lat="42.3429964" lon="14.0161138"><ele>204.0</ele><time>2026-05-02T07:36:41.093Z</time></trkpt><trkpt lat="42.3429053" lon="14.0160829"><ele>202.16666666666666</ele><time>2026-05-02T07:36:42.096Z</time></trkpt><trkpt lat="42.3428303" lon="14.0160542"><ele>200.33333333333331</ele><time>2026-05-02T07:36:43.091Z</time></trkpt><trkpt lat="42.3427603" lon="14.0160425"><ele>198.5</ele><time>2026-05-02T07:36:44.095Z</time></trkpt><trkpt lat="42.342695" lon="14.0160655"><ele>196.66666666666666</ele><time>2026-05-02T07:36:45.096Z</time></trkpt><trkpt lat="42.3426429" lon="14.0161448"><ele>194.83333333333331</ele><time>2026-05-02T07:36:46.092Z</time></trkpt><trkpt lat="42.3425945" lon="14.0162605"><ele>193.0</ele><time>2026-05-02T07:36:47.092Z</time></trkpt><trkpt lat="42.3425552" lon="14.0164027"><ele>193.0</ele><time>2026-05-02T07:36:48.092Z</time></trkpt><trkpt lat="42.3425097" lon="14.0165608"><ele>193.0</ele><time>2026-05-02T07:36:49.098Z</time></trkpt><trkpt lat="42.3424666" lon="14.0167008"><ele>193.0</ele><time>2026-05-02T07:36:50.09Z</time></trkpt><trkpt lat="42.3424336" lon="14.0168017"><ele>193.0</ele><time>2026-05-02T07:36:51.097Z</time></trkpt><trkpt lat="42.3424155" lon="14.0168889"><ele>193.0</ele><time>2026-05-02T07:36:52.093Z</time></trkpt><trkpt lat="42.3424049" lon="14.0169904"><ele>192.66666666666666</ele><time>2026-05-02T07:36:54.092Z</time></trkpt><trkpt lat="42.3423481" lon="14.017045"><ele>192.33333333333331</ele><time>2026-05-02T07:36:56.086Z</time></trkpt><trkpt lat="42.3422858" lon="14.0170808"><ele>192.0</ele><time>2026-05-02T07:36:59.095Z</time></trkpt><trkpt lat="42.3421949" lon="14.0170392"><ele>191.66666666666666</ele><time>2026-05-02T07:37:32.094Z</time></trkpt><trkpt lat="42.3421325" lon="14.0169941"><ele>191.33333333333331</ele><time>2026-05-02T07:37:33.1Z</time></trkpt><trkpt lat="42.3420473" lon="14.0169129"><ele>191.0</ele><time>2026-05-02T07:37:34.097Z</time></trkpt><trkpt lat="42.3419653" lon="14.0168292"><ele>188.8</ele><time>2026-05-02T07:37:35.098Z</time></trkpt><trkpt lat="42.34188" lon="14.0167496"><ele>186.60000000000002</ele><time>2026-05-02T07:37:36.093Z</time></trkpt><trkpt lat="42.3417921" lon="14.0166767"><ele>184.4</ele><time>2026-05-02T07:37:37.098Z</time></trkpt><trkpt lat="42.3417004" lon="14.0166019"><ele>182.2</ele><time>2026-05-02T07:37:38.1Z</time></trkpt><trkpt lat="42.3416093" lon="14.0165279"><ele>180.0</ele><time>2026-05-02T07:37:39.101Z</time></trkpt><trkpt lat="42.3415244" lon="14.0164535"><ele>179.66666666666666</ele><time>2026-05-02T07:37:40.098Z</time></trkpt><trkpt lat="42.3414449" lon="14.0163867"><ele>179.33333333333334</ele><time>2026-05-02T07:37:41.101Z</time></trkpt><trkpt lat="42.3413739" lon="14.016328"><ele>179.0</ele><time>2026-05-02T07:37:42.102Z</time></trkpt><trkpt lat="42.3413067" lon="14.0162768"><ele>178.66666666666669</ele><time>2026-05-02T07:37:43.102Z</time></trkpt><trkpt lat="42.3412394" lon="14.0162305"><ele>178.33333333333334</ele><time>2026-05-02T07:37:44.101Z</time></trkpt><trkpt lat="42.3411711" lon="14.0161861"><ele>178.0</ele><time>2026-05-02T07:37:45.097Z</time></trkpt><trkpt lat="42.3411096" lon="14.0161364"><ele>178.4</ele><time>2026-05-02T07:37:46.084Z</time></trkpt><trkpt lat="42.3410512" lon="14.0160817"><ele>178.8</ele><time>2026-05-02T07:37:47.092Z</time></trkpt><trkpt lat="42.3409904" lon="14.0160062"><ele>179.2</ele><time>2026-05-02T07:37:48.091Z</time></trkpt><trkpt lat="42.3409249" lon="14.0159065"><ele>179.6</ele><time>2026-05-02T07:37:49.098Z</time></trkpt><trkpt lat="42.3408585" lon="14.0157962"><ele>180.0</ele><time>2026-05-02T07:37:50.094Z</time></trkpt><trkpt lat="42.3407934" lon="14.015691"><ele>180.0</ele><time>2026-05-02T07:37:51.104Z</time></trkpt><trkpt lat="42.3407424" lon="14.0155854"><ele>180.0</ele><time>2026-05-02T07:37:52.097Z</time></trkpt><trkpt lat="42.3407012" lon="14.0154805"><ele>180.0</ele><time>2026-05-02T07:37:53.096Z</time></trkpt><trkpt lat="42.340669" lon="14.0153833"><ele>180.0</ele><time>2026-05-02T07:37:54.101Z</time></trkpt><trkpt lat="42.3406342" lon="14.0152426"><ele>180.0</ele><time>2026-05-02T07:37:56.095Z</time></trkpt><trkpt lat="42.3405528" lon="14.0151478"><ele>180.66666666666666</ele><time>2026-05-02T07:37:58.099Z</time></trkpt><trkpt lat="42.3404892" lon="14.0151263"><ele>181.33333333333334</ele><time>2026-05-02T07:37:59.097Z</time></trkpt><trkpt lat="42.3404188" lon="14.0151181"><ele>182.0</ele><time>2026-05-02T07:38:00.095Z</time></trkpt><trkpt lat="42.3403383" lon="14.0151468"><ele>182.66666666666669</ele><time>2026-05-02T07:38:01.1Z</time></trkpt><trkpt lat="42.3402519" lon="14.0152097"><ele>183.33333333333334</ele><time>2026-05-02T07:38:02.101Z</time></trkpt><trkpt lat="42.3401647" lon="14.015283"><ele>184.0</ele><time>2026-05-02T07:38:03.095Z</time></trkpt><trkpt lat="42.340092" lon="14.0153386"><ele>184.0</ele><time>2026-05-02T07:38:04.098Z</time></trkpt><trkpt lat="42.3400352" lon="14.0153834"><ele>184.0</ele><time>2026-05-02T07:38:05.099Z</time></trkpt><trkpt lat="42.3399449" lon="14.0154627"><ele>184.0</ele><time>2026-05-02T07:38:07.096Z</time></trkpt><trkpt lat="42.3398649" lon="14.015543"><ele>184.0</ele><time>2026-05-02T07:38:09.096Z</time></trkpt><trkpt lat="42.3397834" lon="14.0156179"><ele>184.0</ele><time>2026-05-02T07:38:11.093Z</time></trkpt><trkpt lat="42.339683" lon="14.0156547"><ele>183.16666666666669</ele><time>2026-05-02T07:38:13.091Z</time></trkpt><trkpt lat="42.3396184" lon="14.0156346"><ele>182.33333333333334</ele><time>2026-05-02T07:38:14.095Z</time></trkpt><trkpt lat="42.3395555" lon="14.0156018"><ele>181.5</ele><time>2026-05-02T07:38:15.089Z</time></trkpt><trkpt lat="42.3394893" lon="14.0155627"><ele>180.66666666666666</ele><time>2026-05-02T07:38:16.084Z</time></trkpt><trkpt lat="42.3394274" lon="14.0155241"><ele>179.83333333333331</ele><time>2026-05-02T07:38:17.083Z</time></trkpt><trkpt lat="42.3393255" lon="14.0154543"><ele>179.0</ele><time>2026-05-02T07:38:19.089Z</time></trkpt><trkpt lat="42.339243" lon="14.0153669"><ele>179.0</ele><time>2026-05-02T07:38:21.09Z</time></trkpt><trkpt lat="42.3392047" lon="14.0152965"><ele>179.0</ele><time>2026-05-02T07:38:22.085Z</time></trkpt><trkpt lat="42.3391716" lon="14.0151987"><ele>179.0</ele><time>2026-05-02T07:38:23.087Z</time></trkpt><trkpt lat="42.3391482" lon="14.0151044"><ele>179.0</ele><time>2026-05-02T07:38:24.091Z</time></trkpt><trkpt lat="42.3391322" lon="14.0150148"><ele>179.0</ele><time>2026-05-02T07:38:25.089Z</time></trkpt><trkpt lat="42.3391094" lon="14.0149122"><ele>179.0</ele><time>2026-05-02T07:38:26.079Z</time></trkpt><trkpt lat="42.3390788" lon="14.0147891"><ele>180.0</ele><time>2026-05-02T07:38:27.088Z</time></trkpt><trkpt lat="42.3390257" lon="14.0146495"><ele>181.0</ele><time>2026-05-02T07:38:28.091Z</time></trkpt><trkpt lat="42.3389783" lon="14.014517"><ele>182.0</ele><time>2026-05-02T07:38:29.089Z</time></trkpt><trkpt lat="42.3389349" lon="14.0143948"><ele>183.0</ele><time>2026-05-02T07:38:30.09Z</time></trkpt><trkpt lat="42.3388884" lon="14.0142768"><ele>184.0</ele><time>2026-05-02T07:38:31.095Z</time></trkpt><trkpt lat="42.3388417" lon="14.0141518"><ele>184.0</ele><time>2026-05-02T07:38:32.096Z</time></trkpt><trkpt lat="42.3387982" lon="14.0140317"><ele>184.0</ele><time>2026-05-02T07:38:33.1Z</time></trkpt><trkpt lat="42.3387498" lon="14.0139088"><ele>184.0</ele><time>2026-05-02T07:38:34.095Z</time></trkpt><trkpt lat="42.3386903" lon="14.0137764"><ele>184.0</ele><time>2026-05-02T07:38:35.09Z</time></trkpt><trkpt lat="42.3386375" lon="14.0136278"><ele>184.0</ele><time>2026-05-02T07:38:36.098Z</time></trkpt><trkpt lat="42.338587" lon="14.0134793"><ele>184.0</ele><time>2026-05-02T07:38:37.097Z</time></trkpt><trkpt lat="42.3385459" lon="14.0133401"><ele>184.0</ele><time>2026-05-02T07:38:38.099Z</time></trkpt><trkpt lat="42.3385027" lon="14.01322"><ele>184.0</ele><time>2026-05-02T07:38:39.099Z</time></trkpt><trkpt lat="42.3384632" lon="14.0130961"><ele>184.0</ele><time>2026-05-02T07:38:40.091Z</time></trkpt><trkpt lat="42.3384275" lon="14.0129814"><ele>184.0</ele><time>2026-05-02T07:38:41.096Z</time></trkpt><trkpt lat="42.3383976" lon="14.0128843"><ele>185.39999999999998</ele><time>2026-05-02T07:38:42.096Z</time></trkpt><trkpt lat="42.3383602" lon="14.0127479"><ele>186.8</ele><time>2026-05-02T07:38:44.101Z</time></trkpt><trkpt lat="42.3383858" lon="14.0126486"><ele>188.2</ele><time>2026-05-02T07:38:47.097Z</time></trkpt><trkpt lat="42.3384803" lon="14.0126283"><ele>189.60000000000002</ele><time>2026-05-02T07:38:50.091Z</time></trkpt><trkpt lat="42.338594" lon="14.0125689"><ele>191.0</ele><time>2026-05-02T07:38:52.096Z</time></trkpt><trkpt lat="42.338672" lon="14.0125287"><ele>192.16666666666666</ele><time>2026-05-02T07:38:53.103Z</time></trkpt><trkpt lat="42.3387551" lon="14.0124855"><ele>193.33333333333331</ele><time>2026-05-02T07:38:54.098Z</time></trkpt><trkpt lat="42.3388356" lon="14.012443"><ele>194.5</ele><time>2026-05-02T07:38:55.102Z</time></trkpt><trkpt lat="42.3388957" lon="14.0124068"><ele>195.66666666666666</ele><time>2026-05-02T07:38:56.098Z</time></trkpt><trkpt lat="42.3389206" lon="14.0123283"><ele>196.83333333333334</ele><time>2026-05-02T07:38:58.097Z</time></trkpt><trkpt lat="42.3388412" lon="14.0123023"><ele>198.0</ele><time>2026-05-02T07:39:00.095Z</time></trkpt><trkpt lat="42.3387487" lon="14.0122883"><ele>198.0</ele><time>2026-05-02T07:39:01.096Z</time></trkpt><trkpt lat="42.3386326" lon="14.0122367"><ele>198.0</ele><time>2026-05-02T07:39:02.104Z</time></trkpt><trkpt lat="42.3384923" lon="14.0121569"><ele>198.0</ele><time>2026-05-02T07:39:03.098Z</time></trkpt><trkpt lat="42.3383363" lon="14.0120911"><ele>198.0</ele><time>2026-05-02T07:39:04.097Z</time></trkpt><trkpt lat="42.3381373" lon="14.0120123"><ele>194.66666666666666</ele><time>2026-05-02T07:39:05.098Z</time></trkpt><trkpt lat="42.3379757" lon="14.0119529"><ele>191.33333333333331</ele><time>2026-05-02T07:39:06.1Z</time></trkpt><trkpt lat="42.3378316" lon="14.0118756"><ele>188.0</ele><time>2026-05-02T07:39:07.098Z</time></trkpt><trkpt lat="42.3376843" lon="14.0117605"><ele>189.75</ele><time>2026-05-02T07:39:08.097Z</time></trkpt><trkpt lat="42.3375545" lon="14.011635"><ele>191.5</ele><time>2026-05-02T07:39:09.095Z</time></trkpt><trkpt lat="42.3374333" lon="14.0115302"><ele>193.25</ele><time>2026-05-02T07:39:10.097Z</time></trkpt><trkpt lat="42.3373301" lon="14.0114081"><ele>195.0</ele><time>2026-05-02T07:39:11.091Z</time></trkpt><trkpt lat="42.3372538" lon="14.0112525"><ele>192.2</ele><time>2026-05-02T07:39:12.091Z</time></trkpt><trkpt lat="42.3372033" lon="14.0111061"><ele>189.4</ele><time>2026-05-02T07:39:13.095Z</time></trkpt><trkpt lat="42.3371359" lon="14.0109898"><ele>186.60000000000002</ele><time>2026-05-02T07:39:14.096Z</time></trkpt><trkpt lat="42.3370554" lon="14.0109028"><ele>183.8</ele><time>2026-05-02T07:39:15.088Z</time></trkpt><trkpt lat="42.3369515" lon="14.0108656"><ele>181.0</ele><time>2026-05-02T07:39:16.093Z</time></trkpt><trkpt lat="42.3368316" lon="14.0108707"><ele>181.0</ele><time>2026-05-02T07:39:17.094Z</time></trkpt><trkpt lat="42.3367155" lon="14.0109421"><ele>181.0</ele><time>2026-05-02T07:39:18.087Z</time></trkpt><trkpt lat="42.3365911" lon="14.0110128"><ele>181.0</ele><time>2026-05-02T07:39:19.092Z</time></trkpt><trkpt lat="42.336476" lon="14.0110998"><ele>181.0</ele><time>2026-05-02T07:39:20.095Z</time></trkpt><trkpt lat="42.3363791" lon="14.0111816"><ele>183.75</ele><time>2026-05-02T07:39:21.095Z</time></trkpt><trkpt lat="42.3363046" lon="14.0113013"><ele>186.5</ele><time>2026-05-02T07:39:22.095Z</time></trkpt><trkpt lat="42.3362461" lon="14.0114559"><ele>189.25</ele><time>2026-05-02T07:39:23.093Z</time></trkpt><trkpt lat="42.3361878" lon="14.0116339"><ele>192.0</ele><time>2026-05-02T07:39:24.099Z</time></trkpt><trkpt lat="42.3361137" lon="14.0118572"><ele>192.5</ele><time>2026-05-02T07:39:25.098Z</time></trkpt><trkpt lat="42.3360445" lon="14.0120685"><ele>193.0</ele><time>2026-05-02T07:39:26.091Z</time></trkpt><trkpt lat="42.3360068" lon="14.0122502"><ele>193.5</ele><time>2026-05-02T07:39:27.092Z</time></trkpt><trkpt lat="42.3359883" lon="14.0124244"><ele>194.0</ele><time>2026-05-02T07:39:28.088Z</time></trkpt><trkpt lat="42.3360022" lon="14.0126376"><ele>195.66666666666669</ele><time>2026-05-02T07:39:29.087Z</time></trkpt><trkpt lat="42.3360269" lon="14.012842"><ele>197.33333333333331</ele><time>2026-05-02T07:39:30.092Z</time></trkpt><trkpt lat="42.3360473" lon="14.0130781"><ele>199.0</ele><time>2026-05-02T07:39:31.092Z</time></trkpt><trkpt lat="42.3360491" lon="14.0133135"><ele>200.33333333333331</ele><time>2026-05-02T07:39:32.09Z</time></trkpt><trkpt lat="42.336047" lon="14.013543"><ele>201.66666666666669</ele><time>2026-05-02T07:39:33.097Z</time></trkpt><trkpt lat="42.3360449" lon="14.0137653"><ele>203.0</ele><time>2026-05-02T07:39:34.094Z</time></trkpt><trkpt lat="42.336054" lon="14.0139805"><ele>203.25</ele><time>2026-05-02T07:39:35.09Z</time></trkpt><trkpt lat="42.3360624" lon="14.0141751"><ele>203.5</ele><time>2026-05-02T07:39:36.092Z</time></trkpt><trkpt lat="42.3360623" lon="14.0143433"><ele>203.75</ele><time>2026-05-02T07:39:37.087Z</time></trkpt><trkpt lat="42.336045" lon="14.01452"><ele>204.0</ele><time>2026-05-02T07:39:38.097Z</time></trkpt><trkpt lat="42.3360647" lon="14.0147016"><ele>204.0</ele><time>2026-05-02T07:39:39.088Z</time></trkpt><trkpt lat="42.3361233" lon="14.0148396"><ele>204.0</ele><time>2026-05-02T07:39:40.087Z</time></trkpt><trkpt lat="42.3361758" lon="14.0149377"><ele>204.0</ele><time>2026-05-02T07:39:41.094Z</time></trkpt><trkpt lat="42.3361521" lon="14.0151001"><ele>204.0</ele><time>2026-05-02T07:39:43.089Z</time></trkpt><trkpt lat="42.3360484" lon="14.0151783"><ele>204.0</ele><time>2026-05-02T07:39:45.08Z</time></trkpt><trkpt lat="42.3359317" lon="14.0151136"><ele>204.0</ele><time>2026-05-02T07:39:47.09Z</time></trkpt><trkpt lat="42.335874" lon="14.0150307"><ele>204.0</ele><time>2026-05-02T07:39:48.09Z</time></trkpt><trkpt lat="42.3358179" lon="14.0149575"><ele>204.0</ele><time>2026-05-02T07:39:49.091Z</time></trkpt><trkpt lat="42.3357649" lon="14.0148938"><ele>204.0</ele><time>2026-05-02T07:39:50.093Z</time></trkpt><trkpt lat="42.3357191" lon="14.0148193"><ele>204.0</ele><time>2026-05-02T07:39:51.096Z</time></trkpt><trkpt lat="42.3356875" lon="14.0147281"><ele>204.0</ele><time>2026-05-02T07:39:52.092Z</time></trkpt><trkpt lat="42.3356685" lon="14.0146454"><ele>204.0</ele><time>2026-05-02T07:39:53.09Z</time></trkpt><trkpt lat="42.3356278" lon="14.0145695"><ele>204.75</ele><time>2026-05-02T07:39:54.087Z</time></trkpt><trkpt lat="42.3355537" lon="14.014526"><ele>205.5</ele><time>2026-05-02T07:39:55.094Z</time></trkpt><trkpt lat="42.3354392" lon="14.0145322"><ele>206.25</ele><time>2026-05-02T07:39:56.082Z</time></trkpt><trkpt lat="42.3353076" lon="14.0145358"><ele>207.0</ele><time>2026-05-02T07:39:57.093Z</time></trkpt><trkpt lat="42.3351688" lon="14.0145285"><ele>207.0</ele><time>2026-05-02T07:39:58.082Z</time></trkpt><trkpt lat="42.3350149" lon="14.0145071"><ele>207.0</ele><time>2026-05-02T07:39:59.094Z</time></trkpt><trkpt lat="42.3348186" lon="14.014494"><ele>207.0</ele><time>2026-05-02T07:40:00.085Z</time></trkpt><trkpt lat="42.3346271" lon="14.0144684"><ele>204.66666666666669</ele><time>2026-05-02T07:40:01.092Z</time></trkpt><trkpt lat="42.3344397" lon="14.0144258"><ele>202.33333333333334</ele><time>2026-05-02T07:40:02.089Z</time></trkpt><trkpt lat="42.3342295" lon="14.014394"><ele>200.0</ele><time>2026-05-02T07:40:03.088Z</time></trkpt><trkpt lat="42.334017" lon="14.0143593"><ele>198.66666666666669</ele><time>2026-05-02T07:40:04.091Z</time></trkpt><trkpt lat="42.3338269" lon="14.0143341"><ele>197.33333333333331</ele><time>2026-05-02T07:40:05.088Z</time></trkpt><trkpt lat="42.3336551" lon="14.0143196"><ele>196.0</ele><time>2026-05-02T07:40:06.087Z</time></trkpt><trkpt lat="42.3334867" lon="14.0142997"><ele>196.0</ele><time>2026-05-02T07:40:07.087Z</time></trkpt><trkpt lat="42.33333" lon="14.0142766"><ele>196.0</ele><time>2026-05-02T07:40:08.089Z</time></trkpt><trkpt lat="42.3331698" lon="14.0142636"><ele>196.0</ele><time>2026-05-02T07:40:09.089Z</time></trkpt><trkpt lat="42.3330209" lon="14.014247"><ele>195.25</ele><time>2026-05-02T07:40:10.089Z</time></trkpt><trkpt lat="42.3328687" lon="14.0142264"><ele>194.5</ele><time>2026-05-02T07:40:11.092Z</time></trkpt><trkpt lat="42.3327188" lon="14.0142073"><ele>193.75</ele><time>2026-05-02T07:40:12.089Z</time></trkpt><trkpt lat="42.3325844" lon="14.0141917"><ele>193.0</ele><time>2026-05-02T07:40:13.088Z</time></trkpt><trkpt lat="42.3324508" lon="14.0141824"><ele>193.0</ele><time>2026-05-02T07:40:14.092Z</time></trkpt><trkpt lat="42.3323282" lon="14.0141646"><ele>193.0</ele><time>2026-05-02T07:40:15.089Z</time></trkpt><trkpt lat="42.3322006" lon="14.014156"><ele>193.0</ele><time>2026-05-02T07:40:16.086Z</time></trkpt><trkpt lat="42.3320641" lon="14.0141856"><ele>193.0</ele><time>2026-05-02T07:40:17.088Z</time></trkpt><trkpt lat="42.3319078" lon="14.0142422"><ele>190.0</ele><time>2026-05-02T07:40:18.082Z</time></trkpt><trkpt lat="42.3317616" lon="14.0143202"><ele>187.0</ele><time>2026-05-02T07:40:19.085Z</time></trkpt><trkpt lat="42.3316162" lon="14.0144177"><ele>184.0</ele><time>2026-05-02T07:40:20.087Z</time></trkpt><trkpt lat="42.3314838" lon="14.0145453"><ele>180.66666666666669</ele><time>2026-05-02T07:40:21.09Z</time></trkpt><trkpt lat="42.3313522" lon="14.014654"><ele>177.33333333333334</ele><time>2026-05-02T07:40:22.092Z</time></trkpt><trkpt lat="42.3312144" lon="14.0147536"><ele>174.0</ele><time>2026-05-02T07:40:23.093Z</time></trkpt><trkpt lat="42.3310857" lon="14.0148576"><ele>174.0</ele><time>2026-05-02T07:40:24.093Z</time></trkpt><trkpt lat="42.3309698" lon="14.0149286"><ele>174.0</ele><time>2026-05-02T07:40:25.092Z</time></trkpt><trkpt lat="42.3308568" lon="14.0149814"><ele>174.0</ele><time>2026-05-02T07:40:26.09Z</time></trkpt><trkpt lat="42.3307324" lon="14.0149999"><ele>174.0</ele><time>2026-05-02T07:40:27.087Z</time></trkpt><trkpt lat="42.3306025" lon="14.0149925"><ele>173.0</ele><time>2026-05-02T07:40:28.088Z</time></trkpt><trkpt lat="42.3304609" lon="14.0149374"><ele>172.0</ele><time>2026-05-02T07:40:29.088Z</time></trkpt><trkpt lat="42.3303306" lon="14.0148682"><ele>171.0</ele><time>2026-05-02T07:40:30.085Z</time></trkpt><trkpt lat="42.3302236" lon="14.0147474"><ele>170.0</ele><time>2026-05-02T07:40:31.093Z</time></trkpt><trkpt lat="42.3301034" lon="14.0145751"><ele>170.0</ele><time>2026-05-02T07:40:32.085Z</time></trkpt><trkpt lat="42.3299867" lon="14.0144257"><ele>170.0</ele><time>2026-05-02T07:40:33.09Z</time></trkpt><trkpt lat="42.3298698" lon="14.014256"><ele>170.0</ele><time>2026-05-02T07:40:34.085Z</time></trkpt><trkpt lat="42.3297467" lon="14.0140787"><ele>167.66666666666666</ele><time>2026-05-02T07:40:35.091Z</time></trkpt><trkpt lat="42.3296416" lon="14.0139021"><ele>165.33333333333334</ele><time>2026-05-02T07:40:36.086Z</time></trkpt><trkpt lat="42.3295373" lon="14.0137314"><ele>163.0</ele><time>2026-05-02T07:40:37.089Z</time></trkpt><trkpt lat="42.3294414" lon="14.0135652"><ele>163.0</ele><time>2026-05-02T07:40:38.088Z</time></trkpt><trkpt lat="42.3293281" lon="14.0133961"><ele>163.0</ele><time>2026-05-02T07:40:39.086Z</time></trkpt><trkpt lat="42.3292293" lon="14.0132444"><ele>163.0</ele><time>2026-05-02T07:40:40.088Z</time></trkpt><trkpt lat="42.3291455" lon="14.0130906"><ele>161.75</ele><time>2026-05-02T07:40:41.088Z</time></trkpt><trkpt lat="42.329063" lon="14.0129321"><ele>160.5</ele><time>2026-05-02T07:40:42.091Z</time></trkpt><trkpt lat="42.3289974" lon="14.0127696"><ele>159.25</ele><time>2026-05-02T07:40:43.099Z</time></trkpt><trkpt lat="42.3289311" lon="14.0126283"><ele>158.0</ele><time>2026-05-02T07:40:44.097Z</time></trkpt><trkpt lat="42.3288548" lon="14.0125132"><ele>158.0</ele><time>2026-05-02T07:40:45.086Z</time></trkpt><trkpt lat="42.328758" lon="14.0124141"><ele>158.0</ele><time>2026-05-02T07:40:46.088Z</time></trkpt><trkpt lat="42.3286488" lon="14.0123357"><ele>158.0</ele><time>2026-05-02T07:40:47.093Z</time></trkpt><trkpt lat="42.3285187" lon="14.012274"><ele>158.0</ele><time>2026-05-02T07:40:48.086Z</time></trkpt><trkpt lat="42.328384" lon="14.0122228"><ele>158.0</ele><time>2026-05-02T07:40:49.092Z</time></trkpt><trkpt lat="42.3282411" lon="14.0121783"><ele>158.0</ele><time>2026-05-02T07:40:50.089Z</time></trkpt><trkpt lat="42.3280839" lon="14.0121136"><ele>158.0</ele><time>2026-05-02T07:40:51.095Z</time></trkpt><trkpt lat="42.3279194" lon="14.0120238"><ele>156.66666666666666</ele><time>2026-05-02T07:40:52.089Z</time></trkpt><trkpt lat="42.3277439" lon="14.0119323"><ele>155.33333333333334</ele><time>2026-05-02T07:40:53.094Z</time></trkpt><trkpt lat="42.327567" lon="14.0118645"><ele>154.0</ele><time>2026-05-02T07:40:54.086Z</time></trkpt><trkpt lat="42.327394" lon="14.0118152"><ele>154.0</ele><time>2026-05-02T07:40:55.09Z</time></trkpt><trkpt lat="42.3272673" lon="14.0117658"><ele>154.0</ele><time>2026-05-02T07:40:56.082Z</time></trkpt><trkpt lat="42.3271416" lon="14.0117355"><ele>154.0</ele><time>2026-05-02T07:40:57.098Z</time></trkpt><trkpt lat="42.32703" lon="14.0117271"><ele>154.0</ele><time>2026-05-02T07:40:58.091Z</time></trkpt><trkpt lat="42.3269258" lon="14.0116741"><ele>153.0</ele><time>2026-05-02T07:40:59.088Z</time></trkpt><trkpt lat="42.3268281" lon="14.0115928"><ele>152.0</ele><time>2026-05-02T07:41:00.085Z</time></trkpt><trkpt lat="42.326741" lon="14.0114876"><ele>151.0</ele><time>2026-05-02T07:41:01.091Z</time></trkpt><trkpt lat="42.3266697" lon="14.011336"><ele>150.0</ele><time>2026-05-02T07:41:02.087Z</time></trkpt><trkpt lat="42.3266047" lon="14.0111676"><ele>150.0</ele><time>2026-05-02T07:41:03.092Z</time></trkpt><trkpt lat="42.3265477" lon="14.0109631"><ele>150.0</ele><time>2026-05-02T07:41:04.092Z</time></trkpt><trkpt lat="42.3264859" lon="14.0107334"><ele>150.0</ele><time>2026-05-02T07:41:05.089Z</time></trkpt><trkpt lat="42.3264162" lon="14.0105073"><ele>148.33333333333334</ele><time>2026-05-02T07:41:06.096Z</time></trkpt><trkpt lat="42.3263526" lon="14.0102702"><ele>146.66666666666669</ele><time>2026-05-02T07:41:07.098Z</time></trkpt><trkpt lat="42.3262668" lon="14.0100319"><ele>145.0</ele><time>2026-05-02T07:41:08.091Z</time></trkpt><trkpt lat="42.3261808" lon="14.0097791"><ele>145.0</ele><time>2026-05-02T07:41:09.102Z</time></trkpt><trkpt lat="42.3260887" lon="14.0095161"><ele>145.0</ele><time>2026-05-02T07:41:10.099Z</time></trkpt><trkpt lat="42.3260076" lon="14.0092751"><ele>145.0</ele><time>2026-05-02T07:41:11.095Z</time></trkpt><trkpt lat="42.3259232" lon="14.0090521"><ele>144.33333333333334</ele><time>2026-05-02T07:41:12.09Z</time></trkpt><trkpt lat="42.325852" lon="14.0088308"><ele>143.66666666666666</ele><time>2026-05-02T07:41:13.099Z</time></trkpt><trkpt lat="42.3257926" lon="14.0086164"><ele>143.0</ele><time>2026-05-02T07:41:14.096Z</time></trkpt><trkpt lat="42.3257305" lon="14.0084218"><ele>141.66666666666666</ele><time>2026-05-02T07:41:15.1Z</time></trkpt><trkpt lat="42.3256591" lon="14.0082175"><ele>140.33333333333334</ele><time>2026-05-02T07:41:16.094Z</time></trkpt><trkpt lat="42.325582" lon="14.008022"><ele>139.0</ele><time>2026-05-02T07:41:17.103Z</time></trkpt><trkpt lat="42.3254892" lon="14.0078093"><ele>139.0</ele><time>2026-05-02T07:41:18.094Z</time></trkpt><trkpt lat="42.3254026" lon="14.0076015"><ele>139.0</ele><time>2026-05-02T07:41:19.1Z</time></trkpt><trkpt lat="42.3252899" lon="14.0074057"><ele>139.0</ele><time>2026-05-02T07:41:20.092Z</time></trkpt><trkpt lat="42.3251922" lon="14.007188"><ele>138.0</ele><time>2026-05-02T07:41:21.104Z</time></trkpt><trkpt lat="42.3251034" lon="14.0069533"><ele>137.0</ele><time>2026-05-02T07:41:22.092Z</time></trkpt><trkpt lat="42.3250449" lon="14.0066883"><ele>136.0</ele><time>2026-05-02T07:41:23.099Z</time></trkpt><trkpt lat="42.3249872" lon="14.0064244"><ele>135.66666666666669</ele><time>2026-05-02T07:41:24.092Z</time></trkpt><trkpt lat="42.3249272" lon="14.0061525"><ele>135.33333333333334</ele><time>2026-05-02T07:41:25.099Z</time></trkpt><trkpt lat="42.3248592" lon="14.0058829"><ele>135.0</ele><time>2026-05-02T07:41:26.088Z</time></trkpt><trkpt lat="42.3248077" lon="14.0056015"><ele>135.0</ele><time>2026-05-02T07:41:27.096Z</time></trkpt><trkpt lat="42.3247426" lon="14.0053435"><ele>135.0</ele><time>2026-05-02T07:41:28.091Z</time></trkpt><trkpt lat="42.3246683" lon="14.00508"><ele>135.0</ele><time>2026-05-02T07:41:29.101Z</time></trkpt><trkpt lat="42.3245739" lon="14.0048102"><ele>135.0</ele><time>2026-05-02T07:41:30.09Z</time></trkpt><trkpt lat="42.3244924" lon="14.0045436"><ele>135.0</ele><time>2026-05-02T07:41:31.099Z</time></trkpt><trkpt lat="42.3243927" lon="14.004291"><ele>135.0</ele><time>2026-05-02T07:41:32.094Z</time></trkpt><trkpt lat="42.3242977" lon="14.0040438"><ele>136.33333333333334</ele><time>2026-05-02T07:41:33.097Z</time></trkpt><trkpt lat="42.3241981" lon="14.0037826"><ele>137.66666666666669</ele><time>2026-05-02T07:41:34.091Z</time></trkpt><trkpt lat="42.324098" lon="14.0035412"><ele>139.0</ele><time>2026-05-02T07:41:35.098Z</time></trkpt><trkpt lat="42.3240032" lon="14.0032945"><ele>138.0</ele><time>2026-05-02T07:41:36.09Z</time></trkpt><trkpt lat="42.3239168" lon="14.0030531"><ele>137.0</ele><time>2026-05-02T07:41:37.098Z</time></trkpt><trkpt lat="42.3238355" lon="14.0027942"><ele>136.0</ele><time>2026-05-02T07:41:38.094Z</time></trkpt><trkpt lat="42.3237469" lon="14.0025544"><ele>136.66666666666669</ele><time>2026-05-02T07:41:39.1Z</time></trkpt><trkpt lat="42.3236681" lon="14.0023018"><ele>137.33333333333334</ele><time>2026-05-02T07:41:40.092Z</time></trkpt><trkpt lat="42.3235857" lon="14.0020714"><ele>138.0</ele><time>2026-05-02T07:41:41.096Z</time></trkpt><trkpt lat="42.3235045" lon="14.0018316"><ele>138.66666666666666</ele><time>2026-05-02T07:41:42.096Z</time></trkpt><trkpt lat="42.3234184" lon="14.0015877"><ele>139.33333333333331</ele><time>2026-05-02T07:41:43.094Z</time></trkpt><trkpt lat="42.3233362" lon="14.0013367"><ele>140.0</ele><time>2026-05-02T07:41:44.099Z</time></trkpt><trkpt lat="42.3232595" lon="14.0010924"><ele>140.0</ele><time>2026-05-02T07:41:45.093Z</time></trkpt><trkpt lat="42.323179" lon="14.0008341"><ele>140.0</ele><time>2026-05-02T07:41:46.093Z</time></trkpt><trkpt lat="42.3230856" lon="14.0005821"><ele>140.0</ele><time>2026-05-02T07:41:47.096Z</time></trkpt><trkpt lat="42.3229991" lon="14.000349"><ele>138.33333333333331</ele><time>2026-05-02T07:41:48.094Z</time></trkpt><trkpt lat="42.3229242" lon="14.0001142"><ele>136.66666666666666</ele><time>2026-05-02T07:41:49.094Z</time></trkpt><trkpt lat="42.322847" lon="13.9998827"><ele>135.0</ele><time>2026-05-02T07:41:50.094Z</time></trkpt><trkpt lat="42.3227824" lon="13.9996623"><ele>135.0</ele><time>2026-05-02T07:41:51.104Z</time></trkpt><trkpt lat="42.3227106" lon="13.9994384"><ele>135.0</ele><time>2026-05-02T07:41:52.095Z</time></trkpt><trkpt lat="42.3226284" lon="13.9992268"><ele>135.0</ele><time>2026-05-02T07:41:53.099Z</time></trkpt><trkpt lat="42.3225597" lon="13.9990062"><ele>136.33333333333334</ele><time>2026-05-02T07:41:54.092Z</time></trkpt><trkpt lat="42.3224921" lon="13.998787"><ele>137.66666666666669</ele><time>2026-05-02T07:41:55.095Z</time></trkpt><trkpt lat="42.3224129" lon="13.9985759"><ele>139.0</ele><time>2026-05-02T07:41:56.097Z</time></trkpt><trkpt lat="42.3223404" lon="13.9983454"><ele>139.0</ele><time>2026-05-02T07:41:57.094Z</time></trkpt><trkpt lat="42.3222641" lon="13.9981088"><ele>139.0</ele><time>2026-05-02T07:41:58.095Z</time></trkpt><trkpt lat="42.3221946" lon="13.9978591"><ele>139.0</ele><time>2026-05-02T07:41:59.095Z</time></trkpt><trkpt lat="42.3221326" lon="13.9976078"><ele>137.33333333333334</ele><time>2026-05-02T07:42:00.092Z</time></trkpt><trkpt lat="42.3220529" lon="13.997366"><ele>135.66666666666666</ele><time>2026-05-02T07:42:01.103Z</time></trkpt><trkpt lat="42.3219645" lon="13.9971116"><ele>134.0</ele><time>2026-05-02T07:42:02.092Z</time></trkpt><trkpt lat="42.3218851" lon="13.996851"><ele>133.66666666666666</ele><time>2026-05-02T07:42:03.097Z</time></trkpt><trkpt lat="42.3218068" lon="13.9965941"><ele>133.33333333333334</ele><time>2026-05-02T07:42:04.093Z</time></trkpt><trkpt lat="42.3217221" lon="13.9963398"><ele>133.0</ele><time>2026-05-02T07:42:05.093Z</time></trkpt><trkpt lat="42.3216309" lon="13.9960962"><ele>133.0</ele><time>2026-05-02T07:42:06.095Z</time></trkpt><trkpt lat="42.3215526" lon="13.9958412"><ele>133.0</ele><time>2026-05-02T07:42:07.093Z</time></trkpt><trkpt lat="42.321481" lon="13.9956192"><ele>133.0</ele><time>2026-05-02T07:42:08.091Z</time></trkpt><trkpt lat="42.3214091" lon="13.9954293"><ele>133.0</ele><time>2026-05-02T07:42:09.096Z</time></trkpt><trkpt lat="42.3213318" lon="13.9952374"><ele>133.0</ele><time>2026-05-02T07:42:10.092Z</time></trkpt><trkpt lat="42.3212628" lon="13.9950429"><ele>133.0</ele><time>2026-05-02T07:42:11.1Z</time></trkpt><trkpt lat="42.3212029" lon="13.9948725"><ele>133.0</ele><time>2026-05-02T07:42:12.094Z</time></trkpt><trkpt lat="42.3211403" lon="13.9947098"><ele>133.0</ele><time>2026-05-02T07:42:13.098Z</time></trkpt><trkpt lat="42.3210885" lon="13.9945527"><ele>133.0</ele><time>2026-05-02T07:42:14.096Z</time></trkpt><trkpt lat="42.3210349" lon="13.9943985"><ele>133.0</ele><time>2026-05-02T07:42:15.102Z</time></trkpt><trkpt lat="42.3209739" lon="13.9942674"><ele>133.20000000000002</ele><time>2026-05-02T07:42:16.093Z</time></trkpt><trkpt lat="42.3209235" lon="13.9941385"><ele>133.4</ele><time>2026-05-02T07:42:17.102Z</time></trkpt><trkpt lat="42.3208693" lon="13.9940133"><ele>133.60000000000002</ele><time>2026-05-02T07:42:18.095Z</time></trkpt><trkpt lat="42.3208307" lon="13.9938872"><ele>133.8</ele><time>2026-05-02T07:42:19.101Z</time></trkpt><trkpt lat="42.3207786" lon="13.9937759"><ele>134.0</ele><time>2026-05-02T07:42:20.095Z</time></trkpt><trkpt lat="42.3207312" lon="13.993684"><ele>134.0</ele><time>2026-05-02T07:42:21.1Z</time></trkpt><trkpt lat="42.3206853" lon="13.9935994"><ele>134.0</ele><time>2026-05-02T07:42:22.093Z</time></trkpt><trkpt lat="42.3205841" lon="13.9935393"><ele>134.0</ele><time>2026-05-02T07:42:24.085Z</time></trkpt><trkpt lat="42.3204914" lon="13.9936056"><ele>134.0</ele><time>2026-05-02T07:42:26.088Z</time></trkpt><trkpt lat="42.3203862" lon="13.9937247"><ele>134.0</ele><time>2026-05-02T07:42:28.081Z</time></trkpt><trkpt lat="42.3203017" lon="13.9938015"><ele>134.8</ele><time>2026-05-02T07:42:29.094Z</time></trkpt><trkpt lat="42.3202086" lon="13.993878"><ele>135.60000000000002</ele><time>2026-05-02T07:42:30.094Z</time></trkpt><trkpt lat="42.3201209" lon="13.9939646"><ele>136.4</ele><time>2026-05-02T07:42:31.091Z</time></trkpt><trkpt lat="42.3200492" lon="13.9940716"><ele>137.20000000000002</ele><time>2026-05-02T07:42:32.088Z</time></trkpt><trkpt lat="42.3199792" lon="13.9942076"><ele>138.0</ele><time>2026-05-02T07:42:33.092Z</time></trkpt><trkpt lat="42.3199046" lon="13.9943537"><ele>138.0</ele><time>2026-05-02T07:42:34.091Z</time></trkpt><trkpt lat="42.3198208" lon="13.9944983"><ele>138.0</ele><time>2026-05-02T07:42:35.092Z</time></trkpt><trkpt lat="42.3197322" lon="13.9946341"><ele>138.0</ele><time>2026-05-02T07:42:36.091Z</time></trkpt><trkpt lat="42.3196394" lon="13.99477"><ele>138.0</ele><time>2026-05-02T07:42:37.09Z</time></trkpt><trkpt lat="42.3195471" lon="13.9949156"><ele>138.75</ele><time>2026-05-02T07:42:38.09Z</time></trkpt><trkpt lat="42.3194615" lon="13.9950626"><ele>139.5</ele><time>2026-05-02T07:42:39.093Z</time></trkpt><trkpt lat="42.319378" lon="13.9952434"><ele>140.25</ele><time>2026-05-02T07:42:40.094Z</time></trkpt><trkpt lat="42.3192856" lon="13.9954072"><ele>141.0</ele><time>2026-05-02T07:42:41.089Z</time></trkpt><trkpt lat="42.3192207" lon="13.9955888"><ele>141.0</ele><time>2026-05-02T07:42:42.09Z</time></trkpt><trkpt lat="42.3191591" lon="13.99577"><ele>141.0</ele><time>2026-05-02T07:42:43.089Z</time></trkpt><trkpt lat="42.3190749" lon="13.9959489"><ele>141.0</ele><time>2026-05-02T07:42:44.096Z</time></trkpt><trkpt lat="42.3189883" lon="13.9961052"><ele>141.0</ele><time>2026-05-02T07:42:45.099Z</time></trkpt><trkpt lat="42.3189267" lon="13.9962514"><ele>142.75</ele><time>2026-05-02T07:42:46.091Z</time></trkpt><trkpt lat="42.3188698" lon="13.9963876"><ele>144.5</ele><time>2026-05-02T07:42:47.104Z</time></trkpt><trkpt lat="42.3187999" lon="13.9965255"><ele>146.25</ele><time>2026-05-02T07:42:48.09Z</time></trkpt><trkpt lat="42.3187261" lon="13.9966595"><ele>148.0</ele><time>2026-05-02T07:42:49.094Z</time></trkpt><trkpt lat="42.318644" lon="13.9967837"><ele>148.0</ele><time>2026-05-02T07:42:50.089Z</time></trkpt><trkpt lat="42.3185992" lon="13.9969484"><ele>148.0</ele><time>2026-05-02T07:42:51.096Z</time></trkpt><trkpt lat="42.3185841" lon="13.9971349"><ele>148.0</ele><time>2026-05-02T07:42:52.093Z</time></trkpt><trkpt lat="42.3185752" lon="13.997304"><ele>148.0</ele><time>2026-05-02T07:42:53.096Z</time></trkpt><trkpt lat="42.3185642" lon="13.9974729"><ele>147.75</ele><time>2026-05-02T07:42:54.091Z</time></trkpt><trkpt lat="42.3185484" lon="13.9976495"><ele>147.5</ele><time>2026-05-02T07:42:55.088Z</time></trkpt><trkpt lat="42.3185305" lon="13.9978224"><ele>147.25</ele><time>2026-05-02T07:42:56.09Z</time></trkpt><trkpt lat="42.318514" lon="13.9979991"><ele>147.0</ele><time>2026-05-02T07:42:57.091Z</time></trkpt><trkpt lat="42.3184982" lon="13.9981747"><ele>146.5</ele><time>2026-05-02T07:42:58.09Z</time></trkpt><trkpt lat="42.3184828" lon="13.9983438"><ele>146.0</ele><time>2026-05-02T07:42:59.09Z</time></trkpt><trkpt lat="42.3184708" lon="13.9985022"><ele>145.5</ele><time>2026-05-02T07:43:00.096Z</time></trkpt><trkpt lat="42.318462" lon="13.9986623"><ele>145.0</ele><time>2026-05-02T07:43:01.094Z</time></trkpt><trkpt lat="42.3184473" lon="13.9988328"><ele>145.0</ele><time>2026-05-02T07:43:02.088Z</time></trkpt><trkpt lat="42.3184351" lon="13.9990078"><ele>145.0</ele><time>2026-05-02T07:43:03.088Z</time></trkpt><trkpt lat="42.3184245" lon="13.9991858"><ele>145.0</ele><time>2026-05-02T07:43:04.093Z</time></trkpt><trkpt lat="42.3184133" lon="13.9993634"><ele>145.0</ele><time>2026-05-02T07:43:05.086Z</time></trkpt><trkpt lat="42.318405" lon="13.9995392"><ele>143.5</ele><time>2026-05-02T07:43:06.091Z</time></trkpt><trkpt lat="42.3183923" lon="13.9997155"><ele>142.0</ele><time>2026-05-02T07:43:07.086Z</time></trkpt><trkpt lat="42.3183799" lon="13.9998893"><ele>140.5</ele><time>2026-05-02T07:43:08.09Z</time></trkpt><trkpt lat="42.3183723" lon="14.0000516"><ele>139.0</ele><time>2026-05-02T07:43:09.088Z</time></trkpt><trkpt lat="42.3183694" lon="14.0002075"><ele>139.0</ele><time>2026-05-02T07:43:10.089Z</time></trkpt><trkpt lat="42.3183645" lon="14.0003539"><ele>139.0</ele><time>2026-05-02T07:43:11.084Z</time></trkpt><trkpt lat="42.3183529" lon="14.0004946"><ele>139.0</ele><time>2026-05-02T07:43:12.087Z</time></trkpt><trkpt lat="42.3183405" lon="14.00063"><ele>139.0</ele><time>2026-05-02T07:43:13.094Z</time></trkpt><trkpt lat="42.3183311" lon="14.0007647"><ele>139.0</ele><time>2026-05-02T07:43:14.09Z</time></trkpt><trkpt lat="42.318323" lon="14.0009039"><ele>138.2</ele><time>2026-05-02T07:43:15.095Z</time></trkpt><trkpt lat="42.3183124" lon="14.0010393"><ele>137.4</ele><time>2026-05-02T07:43:16.089Z</time></trkpt><trkpt lat="42.318304" lon="14.0011696"><ele>136.6</ele><time>2026-05-02T07:43:17.103Z</time></trkpt><trkpt lat="42.318289" lon="14.0012923"><ele>135.8</ele><time>2026-05-02T07:43:18.089Z</time></trkpt><trkpt lat="42.3182646" lon="14.0014021"><ele>135.0</ele><time>2026-05-02T07:43:19.095Z</time></trkpt><trkpt lat="42.3182346" lon="14.0015013"><ele>135.0</ele><time>2026-05-02T07:43:20.089Z</time></trkpt><trkpt lat="42.3182049" lon="14.001589"><ele>135.0</ele><time>2026-05-02T07:43:21.097Z</time></trkpt><trkpt lat="42.3181838" lon="14.001684"><ele>135.0</ele><time>2026-05-02T07:43:22.089Z</time></trkpt><trkpt lat="42.3181781" lon="14.0017802"><ele>135.0</ele><time>2026-05-02T07:43:23.093Z</time></trkpt><trkpt lat="42.3181885" lon="14.0018793"><ele>135.0</ele><time>2026-05-02T07:43:24.096Z</time></trkpt><trkpt lat="42.3182074" lon="14.0019848"><ele>135.0</ele><time>2026-05-02T07:43:25.097Z</time></trkpt><trkpt lat="42.3182355" lon="14.002106"><ele>134.0</ele><time>2026-05-02T07:43:26.094Z</time></trkpt><trkpt lat="42.3182668" lon="14.0022437"><ele>133.0</ele><time>2026-05-02T07:43:27.095Z</time></trkpt><trkpt lat="42.3183043" lon="14.0023878"><ele>132.0</ele><time>2026-05-02T07:43:28.102Z</time></trkpt><trkpt lat="42.3183338" lon="14.0025378"><ele>131.0</ele><time>2026-05-02T07:43:29.094Z</time></trkpt><trkpt lat="42.3183524" lon="14.0026953"><ele>129.6</ele><time>2026-05-02T07:43:30.098Z</time></trkpt><trkpt lat="42.3183677" lon="14.0028556"><ele>128.2</ele><time>2026-05-02T07:43:31.092Z</time></trkpt><trkpt lat="42.3183744" lon="14.0030024"><ele>126.80000000000001</ele><time>2026-05-02T07:43:32.095Z</time></trkpt><trkpt lat="42.3183806" lon="14.0031436"><ele>125.4</ele><time>2026-05-02T07:43:33.092Z</time></trkpt><trkpt lat="42.3183839" lon="14.0032771"><ele>124.0</ele><time>2026-05-02T07:43:34.092Z</time></trkpt><trkpt lat="42.318385" lon="14.0034128"><ele>123.2</ele><time>2026-05-02T07:43:35.093Z</time></trkpt><trkpt lat="42.3183783" lon="14.0035567"><ele>122.4</ele><time>2026-05-02T07:43:36.093Z</time></trkpt><trkpt lat="42.3183612" lon="14.0037014"><ele>121.6</ele><time>2026-05-02T07:43:37.089Z</time></trkpt><trkpt lat="42.3183336" lon="14.0038309"><ele>120.8</ele><time>2026-05-02T07:43:38.093Z</time></trkpt><trkpt lat="42.3182933" lon="14.003957"><ele>120.0</ele><time>2026-05-02T07:43:39.091Z</time></trkpt><trkpt lat="42.3182437" lon="14.0040924"><ele>119.25</ele><time>2026-05-02T07:43:40.089Z</time></trkpt><trkpt lat="42.3181857" lon="14.0042404"><ele>118.5</ele><time>2026-05-02T07:43:41.094Z</time></trkpt><trkpt lat="42.3181216" lon="14.0043955"><ele>117.75</ele><time>2026-05-02T07:43:42.095Z</time></trkpt><trkpt lat="42.3180623" lon="14.0045469"><ele>117.0</ele><time>2026-05-02T07:43:43.095Z</time></trkpt><trkpt lat="42.3180044" lon="14.0046899"><ele>117.0</ele><time>2026-05-02T07:43:44.102Z</time></trkpt><trkpt lat="42.3179459" lon="14.0048416"><ele>117.0</ele><time>2026-05-02T07:43:45.092Z</time></trkpt><trkpt lat="42.3178834" lon="14.0049975"><ele>117.0</ele><time>2026-05-02T07:43:46.097Z</time></trkpt><trkpt lat="42.3178227" lon="14.0051603"><ele>117.0</ele><time>2026-05-02T07:43:47.097Z</time></trkpt><trkpt lat="42.3177649" lon="14.0053319"><ele>117.0</ele><time>2026-05-02T07:43:48.098Z</time></trkpt><trkpt lat="42.3177045" lon="14.0055093"><ele>117.0</ele><time>2026-05-02T07:43:49.096Z</time></trkpt><trkpt lat="42.3176566" lon="14.0056635"><ele>117.0</ele><time>2026-05-02T07:43:50.097Z</time></trkpt><trkpt lat="42.3175982" lon="14.0058094"><ele>117.0</ele><time>2026-05-02T07:43:51.097Z</time></trkpt><trkpt lat="42.317558" lon="14.0059656"><ele>117.75</ele><time>2026-05-02T07:43:52.1Z</time></trkpt><trkpt lat="42.317511" lon="14.0060947"><ele>118.5</ele><time>2026-05-02T07:43:53.095Z</time></trkpt><trkpt lat="42.3174651" lon="14.0062209"><ele>119.25</ele><time>2026-05-02T07:43:54.095Z</time></trkpt><trkpt lat="42.3174036" lon="14.0063538"><ele>120.0</ele><time>2026-05-02T07:43:55.095Z</time></trkpt><trkpt lat="42.3173703" lon="14.0065192"><ele>120.0</ele><time>2026-05-02T07:43:56.09Z</time></trkpt><trkpt lat="42.3173346" lon="14.0066876"><ele>120.0</ele><time>2026-05-02T07:43:57.086Z</time></trkpt><trkpt lat="42.317284" lon="14.0068568"><ele>120.0</ele><time>2026-05-02T07:43:58.086Z</time></trkpt><trkpt lat="42.3172356" lon="14.0070097"><ele>120.0</ele><time>2026-05-02T07:43:59.081Z</time></trkpt><trkpt lat="42.3171851" lon="14.0071521"><ele>120.0</ele><time>2026-05-02T07:44:00.08Z</time></trkpt><trkpt lat="42.3171507" lon="14.0072694"><ele>120.0</ele><time>2026-05-02T07:44:01.076Z</time></trkpt><trkpt lat="42.3170907" lon="14.0073937"><ele>120.0</ele><time>2026-05-02T07:44:03.092Z</time></trkpt><trkpt lat="42.3170605" lon="14.0075517"><ele>120.0</ele><time>2026-05-02T07:44:05.095Z</time></trkpt><trkpt lat="42.3170364" lon="14.0076553"><ele>120.0</ele><time>2026-05-02T07:44:06.096Z</time></trkpt><trkpt lat="42.3169987" lon="14.007777"><ele>120.0</ele><time>2026-05-02T07:44:07.093Z</time></trkpt><trkpt lat="42.3169352" lon="14.0079053"><ele>120.0</ele><time>2026-05-02T07:44:08.086Z</time></trkpt><trkpt lat="42.3168453" lon="14.0080408"><ele>120.0</ele><time>2026-05-02T07:44:09.097Z</time></trkpt><trkpt lat="42.3167308" lon="14.0081596"><ele>120.0</ele><time>2026-05-02T07:44:10.092Z</time></trkpt><trkpt lat="42.3166106" lon="14.0082727"><ele>118.25</ele><time>2026-05-02T07:44:11.098Z</time></trkpt><trkpt lat="42.3164823" lon="14.0083785"><ele>116.5</ele><time>2026-05-02T07:44:12.097Z</time></trkpt><trkpt lat="42.3163929" lon="14.0084759"><ele>114.75</ele><time>2026-05-02T07:44:13.096Z</time></trkpt><trkpt lat="42.3163002" lon="14.0085628"><ele>113.0</ele><time>2026-05-02T07:44:14.092Z</time></trkpt><trkpt lat="42.3162446" lon="14.0086364"><ele>112.60000000000001</ele><time>2026-05-02T07:44:15.094Z</time></trkpt><trkpt lat="42.3161994" lon="14.0087132"><ele>112.20000000000002</ele><time>2026-05-02T07:44:16.091Z</time></trkpt><trkpt lat="42.3161546" lon="14.0087877"><ele>111.8</ele><time>2026-05-02T07:44:17.092Z</time></trkpt><trkpt lat="42.3160648" lon="14.0088648"><ele>111.4</ele><time>2026-05-02T07:44:18.089Z</time></trkpt><trkpt lat="42.3159406" lon="14.0089254"><ele>111.0</ele><time>2026-05-02T07:44:19.088Z</time></trkpt><trkpt lat="42.3157985" lon="14.0090149"><ele>111.0</ele><time>2026-05-02T07:44:20.091Z</time></trkpt><trkpt lat="42.3156329" lon="14.0091477"><ele>111.0</ele><time>2026-05-02T07:44:21.095Z</time></trkpt><trkpt lat="42.3154673" lon="14.0092783"><ele>111.0</ele><time>2026-05-02T07:44:22.093Z</time></trkpt><trkpt lat="42.3152725" lon="14.009406"><ele>109.66666666666666</ele><time>2026-05-02T07:44:23.089Z</time></trkpt><trkpt lat="42.3150862" lon="14.0095445"><ele>108.33333333333333</ele><time>2026-05-02T07:44:24.093Z</time></trkpt><trkpt lat="42.3148944" lon="14.0097027"><ele>107.0</ele><time>2026-05-02T07:44:25.092Z</time></trkpt><trkpt lat="42.3147035" lon="14.009877"><ele>105.5</ele><time>2026-05-02T07:44:26.092Z</time></trkpt><trkpt lat="42.3145099" lon="14.0100476"><ele>104.0</ele><time>2026-05-02T07:44:27.092Z</time></trkpt><trkpt lat="42.3143226" lon="14.0102099"><ele>104.0</ele><time>2026-05-02T07:44:28.091Z</time></trkpt><trkpt lat="42.3141375" lon="14.0103448"><ele>104.0</ele><time>2026-05-02T07:44:29.091Z</time></trkpt><trkpt lat="42.3139614" lon="14.0104799"><ele>104.0</ele><time>2026-05-02T07:44:30.094Z</time></trkpt><trkpt lat="42.3137897" lon="14.0106271"><ele>104.0</ele><time>2026-05-02T07:44:31.099Z</time></trkpt><trkpt lat="42.3136456" lon="14.0107629"><ele>104.0</ele><time>2026-05-02T07:44:32.092Z</time></trkpt><trkpt lat="42.3134972" lon="14.0108787"><ele>104.0</ele><time>2026-05-02T07:44:33.091Z</time></trkpt><trkpt lat="42.313318" lon="14.0109629"><ele>103.33333333333333</ele><time>2026-05-02T07:44:34.086Z</time></trkpt><trkpt lat="42.3131308" lon="14.011003"><ele>102.66666666666666</ele><time>2026-05-02T07:44:35.086Z</time></trkpt><trkpt lat="42.3129327" lon="14.0110322"><ele>102.0</ele><time>2026-05-02T07:44:36.091Z</time></trkpt><trkpt lat="42.3127312" lon="14.0110962"><ele>102.0</ele><time>2026-05-02T07:44:37.096Z</time></trkpt><trkpt lat="42.3125221" lon="14.0111147"><ele>102.0</ele><time>2026-05-02T07:44:38.092Z</time></trkpt><trkpt lat="42.3123115" lon="14.0111321"><ele>102.0</ele><time>2026-05-02T07:44:39.093Z</time></trkpt><trkpt lat="42.3120926" lon="14.0111274"><ele>102.5</ele><time>2026-05-02T07:44:40.092Z</time></trkpt><trkpt lat="42.3118745" lon="14.0111086"><ele>103.0</ele><time>2026-05-02T07:44:41.106Z</time></trkpt><trkpt lat="42.3116445" lon="14.0110723"><ele>102.0</ele><time>2026-05-02T07:44:42.1Z</time></trkpt><trkpt lat="42.3114057" lon="14.0110305"><ele>101.0</ele><time>2026-05-02T07:44:43.105Z</time></trkpt><trkpt lat="42.3111773" lon="14.0109884"><ele>101.0</ele><time>2026-05-02T07:44:44.101Z</time></trkpt><trkpt lat="42.3109419" lon="14.0109571"><ele>101.0</ele><time>2026-05-02T07:44:45.101Z</time></trkpt><trkpt lat="42.310704" lon="14.010913"><ele>101.0</ele><time>2026-05-02T07:44:46.103Z</time></trkpt><trkpt lat="42.3104795" lon="14.0108683"><ele>101.0</ele><time>2026-05-02T07:44:47.102Z</time></trkpt><trkpt lat="42.3102612" lon="14.0108072"><ele>101.33333333333333</ele><time>2026-05-02T07:44:48.096Z</time></trkpt><trkpt lat="42.3100404" lon="14.0107703"><ele>101.66666666666666</ele><time>2026-05-02T07:44:49.101Z</time></trkpt><trkpt lat="42.3098217" lon="14.0107461"><ele>102.0</ele><time>2026-05-02T07:44:50.1Z</time></trkpt><trkpt lat="42.3096088" lon="14.0107082"><ele>102.33333333333334</ele><time>2026-05-02T07:44:51.101Z</time></trkpt><trkpt lat="42.3093907" lon="14.0106642"><ele>102.66666666666667</ele><time>2026-05-02T07:44:52.092Z</time></trkpt><trkpt lat="42.3091831" lon="14.0105995"><ele>103.0</ele><time>2026-05-02T07:44:53.092Z</time></trkpt><trkpt lat="42.308971" lon="14.0105479"><ele>105.33333333333334</ele><time>2026-05-02T07:44:54.097Z</time></trkpt><trkpt lat="42.3087752" lon="14.0105033"><ele>107.66666666666666</ele><time>2026-05-02T07:44:55.091Z</time></trkpt><trkpt lat="42.3086076" lon="14.0104611"><ele>110.0</ele><time>2026-05-02T07:44:56.088Z</time></trkpt><trkpt lat="42.3084479" lon="14.0104415"><ele>110.0</ele><time>2026-05-02T07:44:57.085Z</time></trkpt><trkpt lat="42.3083043" lon="14.0104721"><ele>110.0</ele><time>2026-05-02T07:44:58.091Z</time></trkpt><trkpt lat="42.308162" lon="14.0105546"><ele>110.0</ele><time>2026-05-02T07:44:59.087Z</time></trkpt><trkpt lat="42.3080263" lon="14.0106795"><ele>111.0</ele><time>2026-05-02T07:45:00.078Z</time></trkpt><trkpt lat="42.3078918" lon="14.0107925"><ele>112.0</ele><time>2026-05-02T07:45:01.075Z</time></trkpt><trkpt lat="42.3077621" lon="14.010909"><ele>113.0</ele><time>2026-05-02T07:45:02.083Z</time></trkpt><trkpt lat="42.3076433" lon="14.0109354"><ele>114.0</ele><time>2026-05-02T07:45:03.071Z</time></trkpt><trkpt lat="42.3074931" lon="14.0109389"><ele>114.0</ele><time>2026-05-02T07:45:04.076Z</time></trkpt><trkpt lat="42.3073445" lon="14.010878"><ele>114.0</ele><time>2026-05-02T07:45:05.073Z</time></trkpt><trkpt lat="42.307181" lon="14.0107915"><ele>114.0</ele><time>2026-05-02T07:45:06.075Z</time></trkpt><trkpt lat="42.3070416" lon="14.0107223"><ele>116.75</ele><time>2026-05-02T07:45:07.078Z</time></trkpt><trkpt lat="42.30692" lon="14.0106275"><ele>119.5</ele><time>2026-05-02T07:45:08.08Z</time></trkpt><trkpt lat="42.3068724" lon="14.0104727"><ele>122.25</ele><time>2026-05-02T07:45:09.084Z</time></trkpt><trkpt lat="42.3068394" lon="14.0102668"><ele>125.0</ele><time>2026-05-02T07:45:10.08Z</time></trkpt><trkpt lat="42.3068196" lon="14.0100084"><ele>126.0</ele><time>2026-05-02T07:45:11.074Z</time></trkpt><trkpt lat="42.3067666" lon="14.0097597"><ele>127.0</ele><time>2026-05-02T07:45:12.082Z</time></trkpt><trkpt lat="42.3067031" lon="14.0094954"><ele>128.0</ele><time>2026-05-02T07:45:13.081Z</time></trkpt><trkpt lat="42.3066255" lon="14.0092444"><ele>129.66666666666666</ele><time>2026-05-02T07:45:14.089Z</time></trkpt><trkpt lat="42.3065462" lon="14.0089744"><ele>131.33333333333334</ele><time>2026-05-02T07:45:15.081Z</time></trkpt><trkpt lat="42.3064753" lon="14.0087211"><ele>133.0</ele><time>2026-05-02T07:45:16.082Z</time></trkpt><trkpt lat="42.3064003" lon="14.0084694"><ele>137.33333333333334</ele><time>2026-05-02T07:45:17.086Z</time></trkpt><trkpt lat="42.3063215" lon="14.0082138"><ele>141.66666666666666</ele><time>2026-05-02T07:45:18.082Z</time></trkpt><trkpt lat="42.3062591" lon="14.0079538"><ele>146.0</ele><time>2026-05-02T07:45:19.084Z</time></trkpt><trkpt lat="42.3061829" lon="14.0076979"><ele>147.0</ele><time>2026-05-02T07:45:20.083Z</time></trkpt><trkpt lat="42.3061156" lon="14.0074256"><ele>148.0</ele><time>2026-05-02T07:45:21.083Z</time></trkpt><trkpt lat="42.3060261" lon="14.0071747"><ele>149.0</ele><time>2026-05-02T07:45:22.082Z</time></trkpt><trkpt lat="42.3059352" lon="14.0069196"><ele>149.0</ele><time>2026-05-02T07:45:23.079Z</time></trkpt><trkpt lat="42.3058314" lon="14.0066771"><ele>149.0</ele><time>2026-05-02T07:45:24.083Z</time></trkpt><trkpt lat="42.305726" lon="14.006416"><ele>149.0</ele><time>2026-05-02T07:45:25.083Z</time></trkpt><trkpt lat="42.3055922" lon="14.0061879"><ele>156.0</ele><time>2026-05-02T07:45:26.082Z</time></trkpt><trkpt lat="42.3054404" lon="14.005947"><ele>163.0</ele><time>2026-05-02T07:45:27.083Z</time></trkpt><trkpt lat="42.3052846" lon="14.0057147"><ele>163.0</ele><time>2026-05-02T07:45:28.088Z</time></trkpt><trkpt lat="42.3051673" lon="14.005478"><ele>163.0</ele><time>2026-05-02T07:45:29.082Z</time></trkpt><trkpt lat="42.3050554" lon="14.0052425"><ele>163.0</ele><time>2026-05-02T07:45:30.082Z</time></trkpt><trkpt lat="42.3049505" lon="14.0050038"><ele>162.66666666666669</ele><time>2026-05-02T07:45:31.082Z</time></trkpt><trkpt lat="42.304853" lon="14.0047745"><ele>162.33333333333334</ele><time>2026-05-02T07:45:32.077Z</time></trkpt><trkpt lat="42.304773" lon="14.0045567"><ele>162.0</ele><time>2026-05-02T07:45:33.079Z</time></trkpt><trkpt lat="42.3046971" lon="14.0043518"><ele>164.0</ele><time>2026-05-02T07:45:34.078Z</time></trkpt><trkpt lat="42.3046147" lon="14.0041895"><ele>166.0</ele><time>2026-05-02T07:45:35.081Z</time></trkpt><trkpt lat="42.3045447" lon="14.0040468"><ele>168.0</ele><time>2026-05-02T07:45:36.077Z</time></trkpt><trkpt lat="42.30446" lon="14.0039359"><ele>170.0</ele><time>2026-05-02T07:45:37.08Z</time></trkpt><trkpt lat="42.3043565" lon="14.0038702"><ele>170.0</ele><time>2026-05-02T07:45:38.074Z</time></trkpt><trkpt lat="42.3042292" lon="14.0037962"><ele>170.0</ele><time>2026-05-02T07:45:39.089Z</time></trkpt><trkpt lat="42.3040723" lon="14.0037371"><ele>170.0</ele><time>2026-05-02T07:45:40.084Z</time></trkpt><trkpt lat="42.3038773" lon="14.0036767"><ele>168.66666666666666</ele><time>2026-05-02T07:45:41.084Z</time></trkpt><trkpt lat="42.3037076" lon="14.0035606"><ele>167.33333333333334</ele><time>2026-05-02T07:45:42.079Z</time></trkpt><trkpt lat="42.3035434" lon="14.0034401"><ele>166.0</ele><time>2026-05-02T07:45:43.081Z</time></trkpt><trkpt lat="42.3033844" lon="14.0033221"><ele>167.0</ele><time>2026-05-02T07:45:44.086Z</time></trkpt><trkpt lat="42.3032148" lon="14.0032273"><ele>168.0</ele><time>2026-05-02T07:45:45.087Z</time></trkpt><trkpt lat="42.303061" lon="14.0031624"><ele>169.0</ele><time>2026-05-02T07:45:46.082Z</time></trkpt><trkpt lat="42.3028832" lon="14.0031105"><ele>169.0</ele><time>2026-05-02T07:45:47.08Z</time></trkpt><trkpt lat="42.3027069" lon="14.0030509"><ele>169.0</ele><time>2026-05-02T07:45:48.081Z</time></trkpt><trkpt lat="42.3025334" lon="14.0030436"><ele>169.0</ele><time>2026-05-02T07:45:49.084Z</time></trkpt><trkpt lat="42.3023635" lon="14.0030433"><ele>165.66666666666669</ele><time>2026-05-02T07:45:50.083Z</time></trkpt><trkpt lat="42.3021996" lon="14.0030532"><ele>162.33333333333334</ele><time>2026-05-02T07:45:51.088Z</time></trkpt><trkpt lat="42.3020442" lon="14.0030351"><ele>159.0</ele><time>2026-05-02T07:45:52.09Z</time></trkpt><trkpt lat="42.3018795" lon="14.0030026"><ele>159.0</ele><time>2026-05-02T07:45:53.086Z</time></trkpt><trkpt lat="42.3017024" lon="14.0029573"><ele>159.0</ele><time>2026-05-02T07:45:54.081Z</time></trkpt><trkpt lat="42.3015816" lon="14.0028325"><ele>159.0</ele><time>2026-05-02T07:45:55.084Z</time></trkpt><trkpt lat="42.3015047" lon="14.0027327"><ele>159.0</ele><time>2026-05-02T07:45:56.078Z</time></trkpt><trkpt lat="42.3014448" lon="14.0026728"><ele>159.0</ele><time>2026-05-02T07:45:57.083Z</time></trkpt><trkpt lat="42.3014368" lon="14.0025789"><ele>159.0</ele><time>2026-05-02T07:46:41.08Z</time></trkpt><trkpt lat="42.3013977" lon="14.0023849"><ele>159.0</ele><time>2026-05-02T07:46:43.084Z</time></trkpt><trkpt lat="42.3013633" lon="14.0022212"><ele>159.0</ele><time>2026-05-02T07:46:44.092Z</time></trkpt><trkpt lat="42.3013401" lon="14.0020259"><ele>159.66666666666666</ele><time>2026-05-02T07:46:45.082Z</time></trkpt><trkpt lat="42.3012986" lon="14.0018115"><ele>160.33333333333331</ele><time>2026-05-02T07:46:46.086Z</time></trkpt><trkpt lat="42.3012294" lon="14.0015207"><ele>161.0</ele><time>2026-05-02T07:46:47.087Z</time></trkpt><trkpt lat="42.3011673" lon="14.0012654"><ele>161.0</ele><time>2026-05-02T07:46:48.084Z</time></trkpt><trkpt lat="42.3010765" lon="14.0010653"><ele>161.0</ele><time>2026-05-02T07:46:49.093Z</time></trkpt><trkpt lat="42.3009805" lon="14.0009031"><ele>161.0</ele><time>2026-05-02T07:46:50.082Z</time></trkpt><trkpt lat="42.300915" lon="14.0007577"><ele>160.4</ele><time>2026-05-02T07:46:51.089Z</time></trkpt><trkpt lat="42.3008493" lon="14.0006336"><ele>159.8</ele><time>2026-05-02T07:46:52.089Z</time></trkpt><trkpt lat="42.3007896" lon="14.0005223"><ele>159.20000000000002</ele><time>2026-05-02T07:46:53.085Z</time></trkpt><trkpt lat="42.3007234" lon="14.0004206"><ele>158.60000000000002</ele><time>2026-05-02T07:46:54.084Z</time></trkpt><trkpt lat="42.300651" lon="14.000322"><ele>158.0</ele><time>2026-05-02T07:46:55.088Z</time></trkpt><trkpt lat="42.3005813" lon="14.0002015"><ele>158.0</ele><time>2026-05-02T07:46:56.089Z</time></trkpt><trkpt lat="42.3004782" lon="14.00008"><ele>158.0</ele><time>2026-05-02T07:46:57.089Z</time></trkpt><trkpt lat="42.3003925" lon="13.9999585"><ele>158.0</ele><time>2026-05-02T07:46:58.087Z</time></trkpt><trkpt lat="42.3003093" lon="13.9998279"><ele>158.0</ele><time>2026-05-02T07:46:59.084Z</time></trkpt><trkpt lat="42.3002271" lon="13.9996817"><ele>158.0</ele><time>2026-05-02T07:47:00.085Z</time></trkpt><trkpt lat="42.3001613" lon="13.9995323"><ele>158.0</ele><time>2026-05-02T07:47:01.087Z</time></trkpt><trkpt lat="42.3001172" lon="13.9993766"><ele>158.0</ele><time>2026-05-02T07:47:02.087Z</time></trkpt><trkpt lat="42.3000544" lon="13.9992355"><ele>158.0</ele><time>2026-05-02T07:47:03.084Z</time></trkpt><trkpt lat="42.2999737" lon="13.9990931"><ele>158.5</ele><time>2026-05-02T07:47:04.084Z</time></trkpt><trkpt lat="42.2998928" lon="13.9989371"><ele>159.0</ele><time>2026-05-02T07:47:05.083Z</time></trkpt><trkpt lat="42.2998177" lon="13.9987924"><ele>159.5</ele><time>2026-05-02T07:47:06.084Z</time></trkpt><trkpt lat="42.2997476" lon="13.9986445"><ele>160.0</ele><time>2026-05-02T07:47:07.084Z</time></trkpt><trkpt lat="42.2996751" lon="13.9985005"><ele>160.0</ele><time>2026-05-02T07:47:08.084Z</time></trkpt><trkpt lat="42.2995989" lon="13.9983642"><ele>160.0</ele><time>2026-05-02T07:47:09.085Z</time></trkpt><trkpt lat="42.2995174" lon="13.9982255"><ele>160.0</ele><time>2026-05-02T07:47:10.086Z</time></trkpt><trkpt lat="42.2994337" lon="13.99808"><ele>160.0</ele><time>2026-05-02T07:47:11.086Z</time></trkpt><trkpt lat="42.2993535" lon="13.9979334"><ele>159.5</ele><time>2026-05-02T07:47:12.087Z</time></trkpt><trkpt lat="42.2992762" lon="13.9978104"><ele>159.0</ele><time>2026-05-02T07:47:13.084Z</time></trkpt><trkpt lat="42.299219" lon="13.9976623"><ele>158.5</ele><time>2026-05-02T07:47:14.086Z</time></trkpt><trkpt lat="42.2992095" lon="13.9974876"><ele>158.0</ele><time>2026-05-02T07:47:15.087Z</time></trkpt><trkpt lat="42.2991899" lon="13.9973187"><ele>158.0</ele><time>2026-05-02T07:47:16.087Z</time></trkpt><trkpt lat="42.2991846" lon="13.9971567"><ele>158.0</ele><time>2026-05-02T07:47:17.09Z</time></trkpt><trkpt lat="42.2991767" lon="13.9969864"><ele>158.0</ele><time>2026-05-02T07:47:18.085Z</time></trkpt><trkpt lat="42.2991887" lon="13.9968255"><ele>158.0</ele><time>2026-05-02T07:47:19.091Z</time></trkpt><trkpt lat="42.2991678" lon="13.996657"><ele>157.5</ele><time>2026-05-02T07:47:20.081Z</time></trkpt><trkpt lat="42.2991323" lon="13.9964935"><ele>157.0</ele><time>2026-05-02T07:47:21.089Z</time></trkpt><trkpt lat="42.2990674" lon="13.9963492"><ele>156.5</ele><time>2026-05-02T07:47:22.088Z</time></trkpt><trkpt lat="42.2989809" lon="13.9962222"><ele>156.0</ele><time>2026-05-02T07:47:23.087Z</time></trkpt><trkpt lat="42.2988768" lon="13.9960971"><ele>154.5</ele><time>2026-05-02T07:47:24.085Z</time></trkpt><trkpt lat="42.2987677" lon="13.9959705"><ele>153.0</ele><time>2026-05-02T07:47:25.086Z</time></trkpt><trkpt lat="42.298655" lon="13.9958397"><ele>151.5</ele><time>2026-05-02T07:47:26.083Z</time></trkpt><trkpt lat="42.2985868" lon="13.9956914"><ele>150.0</ele><time>2026-05-02T07:47:27.085Z</time></trkpt><trkpt lat="42.2985319" lon="13.9955755"><ele>150.0</ele><time>2026-05-02T07:47:28.088Z</time></trkpt><trkpt lat="42.2984799" lon="13.9954224"><ele>150.0</ele><time>2026-05-02T07:47:29.082Z</time></trkpt><trkpt lat="42.2983981" lon="13.9952721"><ele>150.0</ele><time>2026-05-02T07:47:30.086Z</time></trkpt><trkpt lat="42.2983115" lon="13.9951186"><ele>150.0</ele><time>2026-05-02T07:47:31.082Z</time></trkpt><trkpt lat="42.2982231" lon="13.9949654"><ele>151.25</ele><time>2026-05-02T07:47:32.088Z</time></trkpt><trkpt lat="42.2981453" lon="13.9948162"><ele>152.5</ele><time>2026-05-02T07:47:33.084Z</time></trkpt><trkpt lat="42.2980675" lon="13.9946632"><ele>153.75</ele><time>2026-05-02T07:47:34.086Z</time></trkpt><trkpt lat="42.2979876" lon="13.9945164"><ele>155.0</ele><time>2026-05-02T07:47:35.087Z</time></trkpt><trkpt lat="42.2978933" lon="13.9943408"><ele>150.33333333333331</ele><time>2026-05-02T07:47:36.08Z</time></trkpt><trkpt lat="42.2977981" lon="13.9941673"><ele>145.66666666666666</ele><time>2026-05-02T07:47:37.09Z</time></trkpt><trkpt lat="42.2977162" lon="13.9939834"><ele>141.0</ele><time>2026-05-02T07:47:38.082Z</time></trkpt><trkpt lat="42.2976504" lon="13.9938118"><ele>141.0</ele><time>2026-05-02T07:47:39.092Z</time></trkpt><trkpt lat="42.2975812" lon="13.9936405"><ele>141.0</ele><time>2026-05-02T07:47:40.084Z</time></trkpt><trkpt lat="42.2974902" lon="13.9934682"><ele>141.0</ele><time>2026-05-02T07:47:41.085Z</time></trkpt><trkpt lat="42.2973988" lon="13.9932879"><ele>143.33333333333334</ele><time>2026-05-02T07:47:42.084Z</time></trkpt><trkpt lat="42.2973004" lon="13.9931079"><ele>145.66666666666669</ele><time>2026-05-02T07:47:43.084Z</time></trkpt><trkpt lat="42.2972219" lon="13.9929458"><ele>148.0</ele><time>2026-05-02T07:47:44.087Z</time></trkpt><trkpt lat="42.2971471" lon="13.9927834"><ele>144.33333333333334</ele><time>2026-05-02T07:47:45.086Z</time></trkpt><trkpt lat="42.2970629" lon="13.9926268"><ele>140.66666666666666</ele><time>2026-05-02T07:47:46.087Z</time></trkpt><trkpt lat="42.2969876" lon="13.9924481"><ele>137.0</ele><time>2026-05-02T07:47:47.085Z</time></trkpt><trkpt lat="42.2969084" lon="13.9922376"><ele>137.0</ele><time>2026-05-02T07:47:48.086Z</time></trkpt><trkpt lat="42.2968313" lon="13.992025"><ele>137.0</ele><time>2026-05-02T07:47:49.085Z</time></trkpt><trkpt lat="42.2967777" lon="13.9918219"><ele>137.0</ele><time>2026-05-02T07:47:50.084Z</time></trkpt><trkpt lat="42.2967489" lon="13.9916319"><ele>137.66666666666666</ele><time>2026-05-02T07:47:51.088Z</time></trkpt><trkpt lat="42.2967134" lon="13.9914534"><ele>138.33333333333334</ele><time>2026-05-02T07:47:52.088Z</time></trkpt><trkpt lat="42.2966955" lon="13.9912477"><ele>139.0</ele><time>2026-05-02T07:47:53.088Z</time></trkpt><trkpt lat="42.2966762" lon="13.9910301"><ele>138.75</ele><time>2026-05-02T07:47:54.088Z</time></trkpt><trkpt lat="42.296673" lon="13.9908394"><ele>138.5</ele><time>2026-05-02T07:47:55.086Z</time></trkpt><trkpt lat="42.2966734" lon="13.9906615"><ele>138.25</ele><time>2026-05-02T07:47:56.088Z</time></trkpt><trkpt lat="42.296662" lon="13.9905042"><ele>138.0</ele><time>2026-05-02T07:47:57.083Z</time></trkpt><trkpt lat="42.2966263" lon="13.9903424"><ele>138.0</ele><time>2026-05-02T07:47:58.086Z</time></trkpt><trkpt lat="42.2965613" lon="13.9901859"><ele>138.0</ele><time>2026-05-02T07:47:59.082Z</time></trkpt><trkpt lat="42.2964819" lon="13.9900689"><ele>138.0</ele><time>2026-05-02T07:48:00.081Z</time></trkpt><trkpt lat="42.2963995" lon="13.9899611"><ele>138.0</ele><time>2026-05-02T07:48:01.087Z</time></trkpt><trkpt lat="42.2963079" lon="13.9898791"><ele>136.0</ele><time>2026-05-02T07:48:02.079Z</time></trkpt><trkpt lat="42.2962045" lon="13.989833"><ele>134.0</ele><time>2026-05-02T07:48:03.085Z</time></trkpt><trkpt lat="42.296092" lon="13.9897978"><ele>132.0</ele><time>2026-05-02T07:48:04.08Z</time></trkpt><trkpt lat="42.295981" lon="13.9897688"><ele>130.0</ele><time>2026-05-02T07:48:05.087Z</time></trkpt><trkpt lat="42.2958772" lon="13.9897233"><ele>128.0</ele><time>2026-05-02T07:48:06.083Z</time></trkpt><trkpt lat="42.2957796" lon="13.9896547"><ele>128.0</ele><time>2026-05-02T07:48:07.083Z</time></trkpt><trkpt lat="42.2956857" lon="13.989572"><ele>128.0</ele><time>2026-05-02T07:48:08.087Z</time></trkpt><trkpt lat="42.2956009" lon="13.9894999"><ele>128.0</ele><time>2026-05-02T07:48:09.086Z</time></trkpt><trkpt lat="42.2955183" lon="13.9894375"><ele>128.0</ele><time>2026-05-02T07:48:10.087Z</time></trkpt><trkpt lat="42.2954373" lon="13.9893816"><ele>128.0</ele><time>2026-05-02T07:48:11.09Z</time></trkpt><trkpt lat="42.2953618" lon="13.9893372"><ele>127.66666666666666</ele><time>2026-05-02T07:48:12.089Z</time></trkpt><trkpt lat="42.2953023" lon="13.9893013"><ele>127.33333333333333</ele><time>2026-05-02T07:48:13.086Z</time></trkpt><trkpt lat="42.2952352" lon="13.9892661"><ele>127.0</ele><time>2026-05-02T07:48:15.086Z</time></trkpt><trkpt lat="42.2951539" lon="13.9892508"><ele>126.66666666666666</ele><time>2026-05-02T07:48:19.091Z</time></trkpt><trkpt lat="42.2950508" lon="13.989312"><ele>126.33333333333333</ele><time>2026-05-02T07:48:21.094Z</time></trkpt><trkpt lat="42.2949577" lon="13.9893082"><ele>126.0</ele><time>2026-05-02T07:48:23.083Z</time></trkpt><trkpt lat="42.2949393" lon="13.9892079"><ele>127.0</ele><time>2026-05-02T07:48:25.094Z</time></trkpt><trkpt lat="42.294945" lon="13.989086"><ele>128.0</ele><time>2026-05-02T07:48:26.082Z</time></trkpt><trkpt lat="42.2949441" lon="13.9889367"><ele>129.0</ele><time>2026-05-02T07:48:27.088Z</time></trkpt><trkpt lat="42.2949172" lon="13.9887836"><ele>130.0</ele><time>2026-05-02T07:48:28.087Z</time></trkpt><trkpt lat="42.2948754" lon="13.9886077"><ele>130.0</ele><time>2026-05-02T07:48:29.088Z</time></trkpt><trkpt lat="42.2948255" lon="13.9884067"><ele>130.0</ele><time>2026-05-02T07:48:30.081Z</time></trkpt><trkpt lat="42.2947761" lon="13.9881458"><ele>130.0</ele><time>2026-05-02T07:48:31.094Z</time></trkpt><trkpt lat="42.2947155" lon="13.9879006"><ele>131.0</ele><time>2026-05-02T07:48:32.087Z</time></trkpt><trkpt lat="42.2946508" lon="13.9876572"><ele>132.0</ele><time>2026-05-02T07:48:33.094Z</time></trkpt><trkpt lat="42.2945984" lon="13.9874767"><ele>133.0</ele><time>2026-05-02T07:48:34.088Z</time></trkpt><trkpt lat="42.2945544" lon="13.9873133"><ele>133.4</ele><time>2026-05-02T07:48:35.087Z</time></trkpt><trkpt lat="42.294493" lon="13.9871685"><ele>133.8</ele><time>2026-05-02T07:48:36.083Z</time></trkpt><trkpt lat="42.2944521" lon="13.9870504"><ele>134.2</ele><time>2026-05-02T07:48:37.088Z</time></trkpt><trkpt lat="42.2944093" lon="13.986942"><ele>134.6</ele><time>2026-05-02T07:48:38.079Z</time></trkpt><trkpt lat="42.2944034" lon="13.9868527"><ele>135.0</ele><time>2026-05-02T07:48:39.083Z</time></trkpt><trkpt lat="42.2944587" lon="13.9867342"><ele>135.6</ele><time>2026-05-02T07:48:41.092Z</time></trkpt><trkpt lat="42.2944669" lon="13.9866346"><ele>136.2</ele><time>2026-05-02T07:48:44.091Z</time></trkpt><trkpt lat="42.2943991" lon="13.9865864"><ele>136.8</ele><time>2026-05-02T07:48:46.09Z</time></trkpt><trkpt lat="42.2943164" lon="13.9864209"><ele>137.4</ele><time>2026-05-02T07:48:48.09Z</time></trkpt><trkpt lat="42.2942766" lon="13.9862889"><ele>138.0</ele><time>2026-05-02T07:48:49.087Z</time></trkpt><trkpt lat="42.2942392" lon="13.9861382"><ele>138.0</ele><time>2026-05-02T07:48:50.086Z</time></trkpt><trkpt lat="42.2941935" lon="13.9859795"><ele>138.0</ele><time>2026-05-02T07:48:51.087Z</time></trkpt><trkpt lat="42.294156" lon="13.9858198"><ele>138.0</ele><time>2026-05-02T07:48:52.09Z</time></trkpt><trkpt lat="42.2941205" lon="13.985664"><ele>138.0</ele><time>2026-05-02T07:48:53.089Z</time></trkpt><trkpt lat="42.2940798" lon="13.9855077"><ele>138.75</ele><time>2026-05-02T07:48:54.085Z</time></trkpt><trkpt lat="42.2940366" lon="13.9853407"><ele>139.5</ele><time>2026-05-02T07:48:55.086Z</time></trkpt><trkpt lat="42.2939902" lon="13.9851777"><ele>140.25</ele><time>2026-05-02T07:48:56.084Z</time></trkpt><trkpt lat="42.29394" lon="13.9850207"><ele>141.0</ele><time>2026-05-02T07:48:57.088Z</time></trkpt><trkpt lat="42.2938981" lon="13.9848741"><ele>142.4</ele><time>2026-05-02T07:48:58.08Z</time></trkpt><trkpt lat="42.2938596" lon="13.9847468"><ele>143.8</ele><time>2026-05-02T07:48:59.088Z</time></trkpt><trkpt lat="42.2938115" lon="13.9846358"><ele>145.20000000000002</ele><time>2026-05-02T07:49:00.082Z</time></trkpt><trkpt lat="42.2937504" lon="13.9845243"><ele>146.6</ele><time>2026-05-02T07:49:01.087Z</time></trkpt><trkpt lat="42.2936835" lon="13.9844058"><ele>148.0</ele><time>2026-05-02T07:49:02.083Z</time></trkpt><trkpt lat="42.2936061" lon="13.9842959"><ele>148.0</ele><time>2026-05-02T07:49:03.088Z</time></trkpt><trkpt lat="42.2935377" lon="13.9841912"><ele>148.0</ele><time>2026-05-02T07:49:04.087Z</time></trkpt><trkpt lat="42.2934766" lon="13.984089"><ele>148.0</ele><time>2026-05-02T07:49:05.089Z</time></trkpt><trkpt lat="42.2934091" lon="13.9839992"><ele>148.0</ele><time>2026-05-02T07:49:06.085Z</time></trkpt><trkpt lat="42.2933351" lon="13.983919"><ele>148.0</ele><time>2026-05-02T07:49:07.089Z</time></trkpt><trkpt lat="42.2932454" lon="13.9838491"><ele>148.4</ele><time>2026-05-02T07:49:08.089Z</time></trkpt><trkpt lat="42.2931551" lon="13.983787"><ele>148.8</ele><time>2026-05-02T07:49:09.085Z</time></trkpt><trkpt lat="42.2930669" lon="13.9837236"><ele>149.2</ele><time>2026-05-02T07:49:10.09Z</time></trkpt><trkpt lat="42.2929975" lon="13.983642"><ele>149.6</ele><time>2026-05-02T07:49:11.085Z</time></trkpt><trkpt lat="42.2929312" lon="13.9835421"><ele>150.0</ele><time>2026-05-02T07:49:12.088Z</time></trkpt><trkpt lat="42.2928659" lon="13.9834216"><ele>152.5</ele><time>2026-05-02T07:49:13.086Z</time></trkpt><trkpt lat="42.2928049" lon="13.9832801"><ele>155.0</ele><time>2026-05-02T07:49:14.091Z</time></trkpt><trkpt lat="42.2927389" lon="13.983138"><ele>157.5</ele><time>2026-05-02T07:49:15.088Z</time></trkpt><trkpt lat="42.2926747" lon="13.983007"><ele>160.0</ele><time>2026-05-02T07:49:16.09Z</time></trkpt><trkpt lat="42.2926078" lon="13.9828802"><ele>160.0</ele><time>2026-05-02T07:49:17.088Z</time></trkpt><trkpt lat="42.2925406" lon="13.9827479"><ele>160.0</ele><time>2026-05-02T07:49:18.088Z</time></trkpt><trkpt lat="42.29247" lon="13.9826179"><ele>160.0</ele><time>2026-05-02T07:49:19.093Z</time></trkpt><trkpt lat="42.2923944" lon="13.9824929"><ele>160.0</ele><time>2026-05-02T07:49:20.088Z</time></trkpt><trkpt lat="42.2923218" lon="13.9823691"><ele>161.5</ele><time>2026-05-02T07:49:21.098Z</time></trkpt><trkpt lat="42.2922544" lon="13.9822503"><ele>163.0</ele><time>2026-05-02T07:49:22.092Z</time></trkpt><trkpt lat="42.2921972" lon="13.9821477"><ele>164.5</ele><time>2026-05-02T07:49:23.093Z</time></trkpt><trkpt lat="42.2921473" lon="13.98206"><ele>166.0</ele><time>2026-05-02T07:49:24.09Z</time></trkpt><trkpt lat="42.2921036" lon="13.9819827"><ele>167.5</ele><time>2026-05-02T07:49:25.095Z</time></trkpt><trkpt lat="42.2920508" lon="13.981907"><ele>169.0</ele><time>2026-05-02T07:49:26.089Z</time></trkpt><trkpt lat="42.2919931" lon="13.9818298"><ele>169.0</ele><time>2026-05-02T07:49:27.095Z</time></trkpt><trkpt lat="42.2919336" lon="13.9817429"><ele>169.0</ele><time>2026-05-02T07:49:28.093Z</time></trkpt><trkpt lat="42.2918665" lon="13.9816487"><ele>169.0</ele><time>2026-05-02T07:49:29.091Z</time></trkpt><trkpt lat="42.2917922" lon="13.9815448"><ele>169.0</ele><time>2026-05-02T07:49:30.089Z</time></trkpt><trkpt lat="42.2917192" lon="13.9814426"><ele>169.0</ele><time>2026-05-02T07:49:31.089Z</time></trkpt><trkpt lat="42.2916553" lon="13.9813534"><ele>168.6</ele><time>2026-05-02T07:49:32.088Z</time></trkpt><trkpt lat="42.2916003" lon="13.9812717"><ele>168.2</ele><time>2026-05-02T07:49:33.092Z</time></trkpt><trkpt lat="42.2915495" lon="13.9812024"><ele>167.79999999999998</ele><time>2026-05-02T07:49:34.091Z</time></trkpt><trkpt lat="42.2915002" lon="13.9811366"><ele>167.39999999999998</ele><time>2026-05-02T07:49:35.087Z</time></trkpt><trkpt lat="42.2913977" lon="13.9810578"><ele>167.0</ele><time>2026-05-02T07:49:37.086Z</time></trkpt><trkpt lat="42.291285" lon="13.9810405"><ele>168.5</ele><time>2026-05-02T07:49:39.084Z</time></trkpt><trkpt lat="42.2912128" lon="13.9810381"><ele>170.0</ele><time>2026-05-02T07:49:40.084Z</time></trkpt><trkpt lat="42.291133" lon="13.9810582"><ele>171.5</ele><time>2026-05-02T07:49:41.079Z</time></trkpt><trkpt lat="42.2910562" lon="13.9810466"><ele>173.0</ele><time>2026-05-02T07:49:42.078Z</time></trkpt><trkpt lat="42.2909851" lon="13.9810157"><ele>174.5</ele><time>2026-05-02T07:49:43.072Z</time></trkpt><trkpt lat="42.2909215" lon="13.9809534"><ele>176.0</ele><time>2026-05-02T07:49:44.081Z</time></trkpt><trkpt lat="42.2908669" lon="13.9808572"><ele>174.25</ele><time>2026-05-02T07:49:45.075Z</time></trkpt><trkpt lat="42.2908386" lon="13.980733"><ele>172.5</ele><time>2026-05-02T07:49:46.077Z</time></trkpt><trkpt lat="42.2908337" lon="13.9805899"><ele>170.75</ele><time>2026-05-02T07:49:47.077Z</time></trkpt><trkpt lat="42.2908398" lon="13.9804239"><ele>169.0</ele><time>2026-05-02T07:49:48.073Z</time></trkpt><trkpt lat="42.2908543" lon="13.9802396"><ele>169.0</ele><time>2026-05-02T07:49:49.086Z</time></trkpt><trkpt lat="42.2908448" lon="13.9800749"><ele>169.0</ele><time>2026-05-02T07:49:50.083Z</time></trkpt><trkpt lat="42.2907988" lon="13.9799131"><ele>169.0</ele><time>2026-05-02T07:49:51.091Z</time></trkpt><trkpt lat="42.2907259" lon="13.9797599"><ele>169.0</ele><time>2026-05-02T07:49:52.087Z</time></trkpt><trkpt lat="42.2906168" lon="13.9796261"><ele>172.2</ele><time>2026-05-02T07:49:53.079Z</time></trkpt><trkpt lat="42.2904699" lon="13.9795528"><ele>175.39999999999998</ele><time>2026-05-02T07:49:54.082Z</time></trkpt><trkpt lat="42.2903707" lon="13.9794803"><ele>178.6</ele><time>2026-05-02T07:49:55.079Z</time></trkpt><trkpt lat="42.2903151" lon="13.979367"><ele>181.8</ele><time>2026-05-02T07:49:56.076Z</time></trkpt><trkpt lat="42.2902898" lon="13.979265"><ele>185.0</ele><time>2026-05-02T07:49:57.086Z</time></trkpt><trkpt lat="42.2903229" lon="13.9791585"><ele>185.0</ele><time>2026-05-02T07:49:58.081Z</time></trkpt><trkpt lat="42.2903677" lon="13.9790313"><ele>185.0</ele><time>2026-05-02T07:49:59.08Z</time></trkpt><trkpt lat="42.2904174" lon="13.9788909"><ele>185.0</ele><time>2026-05-02T07:50:00.083Z</time></trkpt><trkpt lat="42.290463" lon="13.9787691"><ele>185.0</ele><time>2026-05-02T07:50:01.082Z</time></trkpt><trkpt lat="42.2904815" lon="13.9786647"><ele>185.0</ele><time>2026-05-02T07:50:02.088Z</time></trkpt><trkpt lat="42.290452" lon="13.9785864"><ele>185.0</ele><time>2026-05-02T07:50:03.086Z</time></trkpt><trkpt lat="42.2903853" lon="13.9785357"><ele>185.0</ele><time>2026-05-02T07:50:04.086Z</time></trkpt><trkpt lat="42.2903094" lon="13.9785384"><ele>185.0</ele><time>2026-05-02T07:50:05.085Z</time></trkpt><trkpt lat="42.2902279" lon="13.9785746"><ele>185.0</ele><time>2026-05-02T07:50:06.083Z</time></trkpt><trkpt lat="42.2901449" lon="13.9786361"><ele>185.0</ele><time>2026-05-02T07:50:07.084Z</time></trkpt><trkpt lat="42.2900492" lon="13.9787186"><ele>185.0</ele><time>2026-05-02T07:50:08.085Z</time></trkpt><trkpt lat="42.2899406" lon="13.9787951"><ele>185.0</ele><time>2026-05-02T07:50:09.091Z</time></trkpt><trkpt lat="42.2898391" lon="13.978851"><ele>185.0</ele><time>2026-05-02T07:50:10.086Z</time></trkpt><trkpt lat="42.2897515" lon="13.9788915"><ele>185.0</ele><time>2026-05-02T07:50:11.081Z</time></trkpt><trkpt lat="42.2896818" lon="13.9789095"><ele>185.0</ele><time>2026-05-02T07:50:12.089Z</time></trkpt><trkpt lat="42.2895816" lon="13.9788039"><ele>185.0</ele><time>2026-05-02T07:50:14.086Z</time></trkpt><trkpt lat="42.2895433" lon="13.978689"><ele>187.16666666666666</ele><time>2026-05-02T07:50:15.092Z</time></trkpt><trkpt lat="42.2895176" lon="13.9785481"><ele>189.33333333333331</ele><time>2026-05-02T07:50:16.083Z</time></trkpt><trkpt lat="42.2895028" lon="13.9784077"><ele>191.5</ele><time>2026-05-02T07:50:17.092Z</time></trkpt><trkpt lat="42.2894964" lon="13.9782838"><ele>193.66666666666666</ele><time>2026-05-02T07:50:18.084Z</time></trkpt><trkpt lat="42.2894903" lon="13.9781831"><ele>195.83333333333334</ele><time>2026-05-02T07:50:19.094Z</time></trkpt><trkpt lat="42.2894837" lon="13.9780981"><ele>198.0</ele><time>2026-05-02T07:50:20.085Z</time></trkpt><trkpt lat="42.2894486" lon="13.9779636"><ele>198.60000000000002</ele><time>2026-05-02T07:50:22.087Z</time></trkpt><trkpt lat="42.2893927" lon="13.9778744"><ele>199.20000000000002</ele><time>2026-05-02T07:50:24.085Z</time></trkpt><trkpt lat="42.2892963" lon="13.9778217"><ele>199.8</ele><time>2026-05-02T07:50:26.086Z</time></trkpt><trkpt lat="42.2891791" lon="13.9778398"><ele>200.4</ele><time>2026-05-02T07:50:28.083Z</time></trkpt><trkpt lat="42.2891166" lon="13.9778778"><ele>201.0</ele><time>2026-05-02T07:50:29.082Z</time></trkpt><trkpt lat="42.2890377" lon="13.9779338"><ele>201.0</ele><time>2026-05-02T07:50:30.087Z</time></trkpt><trkpt lat="42.2889519" lon="13.9779965"><ele>201.0</ele><time>2026-05-02T07:50:31.088Z</time></trkpt><trkpt lat="42.2888722" lon="13.978066"><ele>201.0</ele><time>2026-05-02T07:50:32.083Z</time></trkpt><trkpt lat="42.2888017" lon="13.9781542"><ele>201.0</ele><time>2026-05-02T07:50:33.086Z</time></trkpt><trkpt lat="42.288745" lon="13.9782459"><ele>201.0</ele><time>2026-05-02T07:50:34.087Z</time></trkpt><trkpt lat="42.2887114" lon="13.9783397"><ele>203.60000000000002</ele><time>2026-05-02T07:50:35.086Z</time></trkpt><trkpt lat="42.2886855" lon="13.9784382"><ele>206.2</ele><time>2026-05-02T07:50:36.088Z</time></trkpt><trkpt lat="42.2886435" lon="13.9785466"><ele>208.79999999999998</ele><time>2026-05-02T07:50:37.084Z</time></trkpt><trkpt lat="42.2885792" lon="13.9786635"><ele>211.39999999999998</ele><time>2026-05-02T07:50:38.092Z</time></trkpt><trkpt lat="42.2885159" lon="13.9787668"><ele>214.0</ele><time>2026-05-02T07:50:39.085Z</time></trkpt><trkpt lat="42.2884642" lon="13.9788607"><ele>214.0</ele><time>2026-05-02T07:50:40.089Z</time></trkpt><trkpt lat="42.2884223" lon="13.9789334"><ele>213.99999999999997</ele><time>2026-05-02T07:50:41.086Z</time></trkpt><trkpt lat="42.2883717" lon="13.9790601"><ele>213.99999999999997</ele><time>2026-05-02T07:50:43.087Z</time></trkpt><trkpt lat="42.2883558" lon="13.9792087"><ele>214.0</ele><time>2026-05-02T07:50:45.087Z</time></trkpt><trkpt lat="42.2883518" lon="13.9793188"><ele>214.0</ele><time>2026-05-02T07:50:46.087Z</time></trkpt><trkpt lat="42.2883444" lon="13.9794319"><ele>214.66666666666666</ele><time>2026-05-02T07:50:47.078Z</time></trkpt><trkpt lat="42.2883413" lon="13.9795456"><ele>215.33333333333331</ele><time>2026-05-02T07:50:48.082Z</time></trkpt><trkpt lat="42.2883328" lon="13.9796723"><ele>216.0</ele><time>2026-05-02T07:50:49.082Z</time></trkpt><trkpt lat="42.2883232" lon="13.9797962"><ele>216.66666666666669</ele><time>2026-05-02T07:50:50.083Z</time></trkpt><trkpt lat="42.2883136" lon="13.9799069"><ele>217.33333333333334</ele><time>2026-05-02T07:50:51.092Z</time></trkpt><trkpt lat="42.2883093" lon="13.9800153"><ele>218.0</ele><time>2026-05-02T07:50:52.085Z</time></trkpt><trkpt lat="42.2883076" lon="13.9801193"><ele>218.50000000000003</ele><time>2026-05-02T07:50:53.089Z</time></trkpt><trkpt lat="42.2883274" lon="13.9802227"><ele>219.0</ele><time>2026-05-02T07:50:54.088Z</time></trkpt><trkpt lat="42.2883671" lon="13.9803223"><ele>219.5</ele><time>2026-05-02T07:50:55.084Z</time></trkpt><trkpt lat="42.2884096" lon="13.980423"><ele>220.0</ele><time>2026-05-02T07:50:56.082Z</time></trkpt><trkpt lat="42.2884522" lon="13.9805229"><ele>220.50000000000003</ele><time>2026-05-02T07:50:57.088Z</time></trkpt><trkpt lat="42.2884747" lon="13.9806136"><ele>221.0</ele><time>2026-05-02T07:50:58.09Z</time></trkpt><trkpt lat="42.2884516" lon="13.980766"><ele>221.0</ele><time>2026-05-02T07:51:00.084Z</time></trkpt><trkpt lat="42.2883584" lon="13.9808698"><ele>221.00000000000003</ele><time>2026-05-02T07:51:02.086Z</time></trkpt><trkpt lat="42.2882967" lon="13.9808868"><ele>221.00000000000003</ele><time>2026-05-02T07:51:03.088Z</time></trkpt><trkpt lat="42.2881832" lon="13.9808027"><ele>221.0</ele><time>2026-05-02T07:51:05.085Z</time></trkpt><trkpt lat="42.2881366" lon="13.9807275"><ele>221.0</ele><time>2026-05-02T07:51:06.086Z</time></trkpt><trkpt lat="42.2881084" lon="13.9806389"><ele>225.8</ele><time>2026-05-02T07:51:07.086Z</time></trkpt><trkpt lat="42.2880818" lon="13.9805506"><ele>230.60000000000002</ele><time>2026-05-02T07:51:08.088Z</time></trkpt><trkpt lat="42.2880007" lon="13.9804801"><ele>235.4</ele><time>2026-05-02T07:51:10.082Z</time></trkpt><trkpt lat="42.2879149" lon="13.9805251"><ele>240.2</ele><time>2026-05-02T07:51:12.086Z</time></trkpt><trkpt lat="42.2878922" lon="13.9806481"><ele>245.0</ele><time>2026-05-02T07:51:14.086Z</time></trkpt><trkpt lat="42.2879286" lon="13.980823"><ele>246.33333333333334</ele><time>2026-05-02T07:51:16.084Z</time></trkpt><trkpt lat="42.2879472" lon="13.9809349"><ele>247.66666666666669</ele><time>2026-05-02T07:51:17.089Z</time></trkpt><trkpt lat="42.287963" lon="13.9810459"><ele>249.0</ele><time>2026-05-02T07:51:18.084Z</time></trkpt><trkpt lat="42.2879826" lon="13.9811534"><ele>250.33333333333331</ele><time>2026-05-02T07:51:19.092Z</time></trkpt><trkpt lat="42.2880031" lon="13.9812512"><ele>251.66666666666666</ele><time>2026-05-02T07:51:20.088Z</time></trkpt><trkpt lat="42.2880153" lon="13.9813385"><ele>253.0</ele><time>2026-05-02T07:51:21.092Z</time></trkpt><trkpt lat="42.2879891" lon="13.9814483"><ele>253.0</ele><time>2026-05-02T07:51:23.087Z</time></trkpt><trkpt lat="42.2879026" lon="13.9815047"><ele>253.0</ele><time>2026-05-02T07:51:25.089Z</time></trkpt><trkpt lat="42.2878188" lon="13.9814189"><ele>253.0</ele><time>2026-05-02T07:51:27.082Z</time></trkpt><trkpt lat="42.2877828" lon="13.9812428"><ele>253.0</ele><time>2026-05-02T07:51:29.09Z</time></trkpt><trkpt lat="42.2877534" lon="13.9811629"><ele>253.0</ele><time>2026-05-02T07:51:30.088Z</time></trkpt><trkpt lat="42.2876738" lon="13.9810959"><ele>252.99999999999997</ele><time>2026-05-02T07:51:32.087Z</time></trkpt><trkpt lat="42.287559" lon="13.9810478"><ele>253.0</ele><time>2026-05-02T07:51:34.09Z</time></trkpt><trkpt lat="42.2874895" lon="13.9810212"><ele>253.0</ele><time>2026-05-02T07:51:35.089Z</time></trkpt><trkpt lat="42.287424" lon="13.9810035"><ele>253.0</ele><time>2026-05-02T07:51:36.09Z</time></trkpt><trkpt lat="42.2873592" lon="13.9809862"><ele>252.99999999999997</ele><time>2026-05-02T07:51:37.085Z</time></trkpt><trkpt lat="42.2872911" lon="13.980956"><ele>253.0</ele><time>2026-05-02T07:51:38.087Z</time></trkpt><trkpt lat="42.287227" lon="13.9809317"><ele>253.8</ele><time>2026-05-02T07:51:39.087Z</time></trkpt><trkpt lat="42.2871117" lon="13.9808831"><ele>254.60000000000002</ele><time>2026-05-02T07:51:41.09Z</time></trkpt><trkpt lat="42.2870207" lon="13.9808264"><ele>255.39999999999998</ele><time>2026-05-02T07:51:43.083Z</time></trkpt><trkpt lat="42.2869702" lon="13.9807569"><ele>256.2</ele><time>2026-05-02T07:51:47.086Z</time></trkpt><trkpt lat="42.2869271" lon="13.9806888"><ele>257.0</ele><time>2026-05-02T07:51:49.085Z</time></trkpt><trkpt lat="42.2869413" lon="13.9805421"><ele>257.0</ele><time>2026-05-02T07:51:51.084Z</time></trkpt><trkpt lat="42.2869485" lon="13.9804474"><ele>257.0</ele><time>2026-05-02T07:51:52.087Z</time></trkpt><trkpt lat="42.2869632" lon="13.9803325"><ele>257.0</ele><time>2026-05-02T07:51:53.095Z</time></trkpt><trkpt lat="42.2869787" lon="13.9802164"><ele>257.0</ele><time>2026-05-02T07:51:54.088Z</time></trkpt><trkpt lat="42.2869876" lon="13.980108"><ele>257.0</ele><time>2026-05-02T07:51:55.099Z</time></trkpt><trkpt lat="42.2869975" lon="13.9800156"><ele>257.0</ele><time>2026-05-02T07:51:56.086Z</time></trkpt><trkpt lat="42.2869924" lon="13.9799304"><ele>257.1666666666667</ele><time>2026-05-02T07:51:57.088Z</time></trkpt><trkpt lat="42.2869741" lon="13.979847"><ele>257.33333333333337</ele><time>2026-05-02T07:51:58.087Z</time></trkpt><trkpt lat="42.286932" lon="13.979689"><ele>257.5</ele><time>2026-05-02T07:52:00.085Z</time></trkpt><trkpt lat="42.2868981" lon="13.9796031"><ele>257.6666666666667</ele><time>2026-05-02T07:52:01.084Z</time></trkpt><trkpt lat="42.286869" lon="13.9795051"><ele>257.8333333333333</ele><time>2026-05-02T07:52:02.082Z</time></trkpt><trkpt lat="42.2868595" lon="13.9794019"><ele>258.0</ele><time>2026-05-02T07:52:03.096Z</time></trkpt><trkpt lat="42.2868579" lon="13.9792905"><ele>257.6666666666667</ele><time>2026-05-02T07:52:04.088Z</time></trkpt><trkpt lat="42.2868525" lon="13.9791653"><ele>257.3333333333333</ele><time>2026-05-02T07:52:05.093Z</time></trkpt><trkpt lat="42.2868454" lon="13.97904"><ele>257.0</ele><time>2026-05-02T07:52:06.088Z</time></trkpt><trkpt lat="42.2868321" lon="13.9789308"><ele>256.66666666666663</ele><time>2026-05-02T07:52:07.097Z</time></trkpt><trkpt lat="42.286818" lon="13.9788123"><ele>256.3333333333333</ele><time>2026-05-02T07:52:08.092Z</time></trkpt><trkpt lat="42.2867951" lon="13.9786939"><ele>256.0</ele><time>2026-05-02T07:52:09.092Z</time></trkpt><trkpt lat="42.2867706" lon="13.9785946"><ele>256.0</ele><time>2026-05-02T07:52:10.092Z</time></trkpt><trkpt lat="42.2867432" lon="13.9784952"><ele>256.0</ele><time>2026-05-02T07:52:11.091Z</time></trkpt><trkpt lat="42.2866959" lon="13.9783868"><ele>256.0</ele><time>2026-05-02T07:52:12.093Z</time></trkpt><trkpt lat="42.2866313" lon="13.9782779"><ele>256.0</ele><time>2026-05-02T07:52:13.092Z</time></trkpt><trkpt lat="42.2865655" lon="13.9781707"><ele>256.0</ele><time>2026-05-02T07:52:14.093Z</time></trkpt><trkpt lat="42.2864903" lon="13.9780814"><ele>257.8</ele><time>2026-05-02T07:52:15.089Z</time></trkpt><trkpt lat="42.2864051" lon="13.9779864"><ele>259.6</ele><time>2026-05-02T07:52:16.09Z</time></trkpt><trkpt lat="42.2863149" lon="13.977891"><ele>261.4</ele><time>2026-05-02T07:52:17.093Z</time></trkpt><trkpt lat="42.286239" lon="13.9778012"><ele>263.2</ele><time>2026-05-02T07:52:18.095Z</time></trkpt><trkpt lat="42.2861701" lon="13.9777149"><ele>265.0</ele><time>2026-05-02T07:52:19.091Z</time></trkpt><trkpt lat="42.286116" lon="13.977621"><ele>264.8</ele><time>2026-05-02T07:52:20.091Z</time></trkpt><trkpt lat="42.2860741" lon="13.9775181"><ele>264.6</ele><time>2026-05-02T07:52:21.098Z</time></trkpt><trkpt lat="42.2860322" lon="13.9774105"><ele>264.4</ele><time>2026-05-02T07:52:22.096Z</time></trkpt><trkpt lat="42.2859753" lon="13.9773037"><ele>264.2</ele><time>2026-05-02T07:52:23.093Z</time></trkpt><trkpt lat="42.2859066" lon="13.9772123"><ele>264.0</ele><time>2026-05-02T07:52:24.091Z</time></trkpt><trkpt lat="42.2858353" lon="13.9771361"><ele>264.0</ele><time>2026-05-02T07:52:25.092Z</time></trkpt><trkpt lat="42.2857624" lon="13.9770741"><ele>264.0</ele><time>2026-05-02T07:52:26.095Z</time></trkpt><trkpt lat="42.2856947" lon="13.977025"><ele>264.0</ele><time>2026-05-02T07:52:27.089Z</time></trkpt><trkpt lat="42.2856361" lon="13.976983"><ele>264.0</ele><time>2026-05-02T07:52:28.089Z</time></trkpt><trkpt lat="42.2855307" lon="13.9769155"><ele>264.0</ele><time>2026-05-02T07:52:30.09Z</time></trkpt><trkpt lat="42.2854358" lon="13.9768098"><ele>264.8333333333333</ele><time>2026-05-02T07:52:32.087Z</time></trkpt><trkpt lat="42.2853933" lon="13.9767414"><ele>265.6666666666667</ele><time>2026-05-02T07:52:33.08Z</time></trkpt><trkpt lat="42.2853562" lon="13.9766653"><ele>266.5</ele><time>2026-05-02T07:52:34.083Z</time></trkpt><trkpt lat="42.2853445" lon="13.9765705"><ele>267.33333333333337</ele><time>2026-05-02T07:52:35.076Z</time></trkpt><trkpt lat="42.2853483" lon="13.9764724"><ele>268.1666666666667</ele><time>2026-05-02T07:52:36.081Z</time></trkpt><trkpt lat="42.2853634" lon="13.9763551"><ele>269.0</ele><time>2026-05-02T07:52:37.085Z</time></trkpt><trkpt lat="42.2853931" lon="13.9762037"><ele>269.0</ele><time>2026-05-02T07:52:38.088Z</time></trkpt><trkpt lat="42.2854178" lon="13.9760472"><ele>269.0</ele><time>2026-05-02T07:52:39.091Z</time></trkpt><trkpt lat="42.2854298" lon="13.9758746"><ele>269.0</ele><time>2026-05-02T07:52:40.084Z</time></trkpt><trkpt lat="42.2854341" lon="13.9756946"><ele>269.0</ele><time>2026-05-02T07:52:41.087Z</time></trkpt><trkpt lat="42.2854196" lon="13.9754992"><ele>270.25</ele><time>2026-05-02T07:52:42.092Z</time></trkpt><trkpt lat="42.2853917" lon="13.9753116"><ele>271.5</ele><time>2026-05-02T07:52:43.085Z</time></trkpt><trkpt lat="42.285363" lon="13.9751449"><ele>272.75</ele><time>2026-05-02T07:52:44.087Z</time></trkpt><trkpt lat="42.2853223" lon="13.9749837"><ele>274.0</ele><time>2026-05-02T07:52:45.089Z</time></trkpt><trkpt lat="42.2852689" lon="13.9748219"><ele>274.66666666666663</ele><time>2026-05-02T07:52:46.09Z</time></trkpt><trkpt lat="42.2852019" lon="13.9746554"><ele>275.3333333333333</ele><time>2026-05-02T07:52:47.094Z</time></trkpt><trkpt lat="42.2851225" lon="13.9744824"><ele>276.0</ele><time>2026-05-02T07:52:48.087Z</time></trkpt><trkpt lat="42.2850158" lon="13.9742843"><ele>276.3333333333333</ele><time>2026-05-02T07:52:49.089Z</time></trkpt><trkpt lat="42.2849052" lon="13.9741033"><ele>276.66666666666663</ele><time>2026-05-02T07:52:50.091Z</time></trkpt><trkpt lat="42.2848196" lon="13.9739132"><ele>277.0</ele><time>2026-05-02T07:52:51.095Z</time></trkpt><trkpt lat="42.2847215" lon="13.9737576"><ele>279.75</ele><time>2026-05-02T07:52:52.09Z</time></trkpt><trkpt lat="42.2846548" lon="13.9736232"><ele>282.5</ele><time>2026-05-02T07:52:53.086Z</time></trkpt><trkpt lat="42.2846152" lon="13.973482"><ele>285.25</ele><time>2026-05-02T07:52:54.091Z</time></trkpt><trkpt lat="42.2845574" lon="13.973329"><ele>288.0</ele><time>2026-05-02T07:52:55.092Z</time></trkpt><trkpt lat="42.2844995" lon="13.9732031"><ele>288.75</ele><time>2026-05-02T07:52:56.093Z</time></trkpt><trkpt lat="42.2844106" lon="13.9730989"><ele>289.5</ele><time>2026-05-02T07:52:57.089Z</time></trkpt><trkpt lat="42.284318" lon="13.973017"><ele>290.25</ele><time>2026-05-02T07:52:58.085Z</time></trkpt><trkpt lat="42.284195" lon="13.972922"><ele>291.0</ele><time>2026-05-02T07:52:59.09Z</time></trkpt><trkpt lat="42.2840569" lon="13.972825"><ele>292.5</ele><time>2026-05-02T07:53:00.098Z</time></trkpt><trkpt lat="42.283913" lon="13.9727395"><ele>294.0</ele><time>2026-05-02T07:53:01.085Z</time></trkpt><trkpt lat="42.283812" lon="13.9726782"><ele>295.5</ele><time>2026-05-02T07:53:02.091Z</time></trkpt><trkpt lat="42.2837004" lon="13.9726205"><ele>297.0</ele><time>2026-05-02T07:53:03.096Z</time></trkpt><trkpt lat="42.2835798" lon="13.972559"><ele>296.0</ele><time>2026-05-02T07:53:04.095Z</time></trkpt><trkpt lat="42.2834565" lon="13.9725073"><ele>295.0</ele><time>2026-05-02T07:53:05.093Z</time></trkpt><trkpt lat="42.2833436" lon="13.9724875"><ele>294.0</ele><time>2026-05-02T07:53:06.088Z</time></trkpt><trkpt lat="42.2832378" lon="13.9724807"><ele>293.0</ele><time>2026-05-02T07:53:07.09Z</time></trkpt><trkpt lat="42.2831376" lon="13.9724576"><ele>294.33333333333337</ele><time>2026-05-02T07:53:08.089Z</time></trkpt><trkpt lat="42.2830698" lon="13.9723936"><ele>295.6666666666667</ele><time>2026-05-02T07:53:09.089Z</time></trkpt><trkpt lat="42.2830198" lon="13.9723056"><ele>297.0</ele><time>2026-05-02T07:53:10.092Z</time></trkpt><trkpt lat="42.2829778" lon="13.9722036"><ele>298.3333333333333</ele><time>2026-05-02T07:53:11.086Z</time></trkpt><trkpt lat="42.2829371" lon="13.9721175"><ele>299.66666666666663</ele><time>2026-05-02T07:53:12.094Z</time></trkpt><trkpt lat="42.2828621" lon="13.9720255"><ele>301.0</ele><time>2026-05-02T07:53:14.094Z</time></trkpt><trkpt lat="42.2828163" lon="13.9719448"><ele>301.0</ele><time>2026-05-02T07:53:24.096Z</time></trkpt><trkpt lat="42.2828177" lon="13.971832"><ele>301.0</ele><time>2026-05-02T07:57:32.117Z</time></trkpt><trkpt lat="42.2827891" lon="13.9717554"><ele>301.0</ele><time>2026-05-02T07:57:36.105Z</time></trkpt><trkpt lat="42.2828032" lon="13.9718415"><ele>301.0</ele><time>2026-05-02T07:57:39.119Z</time></trkpt><trkpt lat="42.2828563" lon="13.9719095"><ele>301.0</ele><time>2026-05-02T07:57:41.117Z</time></trkpt><trkpt lat="42.2829132" lon="13.9718449"><ele>301.0</ele><time>2026-05-02T07:57:43.108Z</time></trkpt><trkpt lat="42.282958" lon="13.9717703"><ele>301.0</ele><time>2026-05-02T07:57:44.115Z</time></trkpt><trkpt lat="42.2830141" lon="13.971699"><ele>301.2</ele><time>2026-05-02T07:57:45.11Z</time></trkpt><trkpt lat="42.283072" lon="13.9716075"><ele>301.40000000000003</ele><time>2026-05-02T07:57:46.105Z</time></trkpt><trkpt lat="42.2831193" lon="13.9714968"><ele>301.6</ele><time>2026-05-02T07:57:47.111Z</time></trkpt><trkpt lat="42.2831526" lon="13.9713844"><ele>301.8</ele><time>2026-05-02T07:57:48.115Z</time></trkpt><trkpt lat="42.2831866" lon="13.9712727"><ele>302.0</ele><time>2026-05-02T07:57:49.112Z</time></trkpt><trkpt lat="42.2832346" lon="13.9711714"><ele>299.8</ele><time>2026-05-02T07:57:50.111Z</time></trkpt><trkpt lat="42.2833001" lon="13.9710802"><ele>297.6</ele><time>2026-05-02T07:57:51.11Z</time></trkpt><trkpt lat="42.2833801" lon="13.9709858"><ele>295.40000000000003</ele><time>2026-05-02T07:57:52.118Z</time></trkpt><trkpt lat="42.2834674" lon="13.9708873"><ele>293.2</ele><time>2026-05-02T07:57:53.111Z</time></trkpt><trkpt lat="42.2835546" lon="13.9707906"><ele>291.0</ele><time>2026-05-02T07:57:54.115Z</time></trkpt><trkpt lat="42.2836324" lon="13.970704"><ele>290.8333333333333</ele><time>2026-05-02T07:57:55.112Z</time></trkpt><trkpt lat="42.283707" lon="13.9706208"><ele>290.6666666666667</ele><time>2026-05-02T07:57:56.108Z</time></trkpt><trkpt lat="42.2837704" lon="13.9705566"><ele>290.5</ele><time>2026-05-02T07:57:57.114Z</time></trkpt><trkpt lat="42.2838254" lon="13.9705141"><ele>290.33333333333337</ele><time>2026-05-02T07:57:59.112Z</time></trkpt><trkpt lat="42.2839079" lon="13.9704664"><ele>290.1666666666667</ele><time>2026-05-02T07:58:12.108Z</time></trkpt><trkpt lat="42.2840279" lon="13.9704684"><ele>290.0</ele><time>2026-05-02T07:58:14.104Z</time></trkpt><trkpt lat="42.2841035" lon="13.9704725"><ele>289.4</ele><time>2026-05-02T07:58:15.094Z</time></trkpt><trkpt lat="42.2842005" lon="13.9704752"><ele>288.8</ele><time>2026-05-02T07:58:16.098Z</time></trkpt><trkpt lat="42.2843083" lon="13.9704678"><ele>288.2</ele><time>2026-05-02T07:58:17.107Z</time></trkpt><trkpt lat="42.2844265" lon="13.9704457"><ele>287.6</ele><time>2026-05-02T07:58:18.105Z</time></trkpt><trkpt lat="42.2845472" lon="13.9704216"><ele>287.0</ele><time>2026-05-02T07:58:19.106Z</time></trkpt><trkpt lat="42.2846668" lon="13.9704009"><ele>287.2</ele><time>2026-05-02T07:58:20.11Z</time></trkpt><trkpt lat="42.2847821" lon="13.9703749"><ele>287.4</ele><time>2026-05-02T07:58:21.103Z</time></trkpt><trkpt lat="42.2848848" lon="13.9703472"><ele>287.6</ele><time>2026-05-02T07:58:22.105Z</time></trkpt><trkpt lat="42.2849858" lon="13.9703158"><ele>287.8</ele><time>2026-05-02T07:58:23.108Z</time></trkpt><trkpt lat="42.2850787" lon="13.9702862"><ele>288.0</ele><time>2026-05-02T07:58:24.105Z</time></trkpt><trkpt lat="42.2851654" lon="13.9702578"><ele>288.0</ele><time>2026-05-02T07:58:25.096Z</time></trkpt><trkpt lat="42.2852538" lon="13.9702356"><ele>288.0</ele><time>2026-05-02T07:58:26.095Z</time></trkpt><trkpt lat="42.2853309" lon="13.9701891"><ele>288.0</ele><time>2026-05-02T07:58:27.107Z</time></trkpt><trkpt lat="42.2853946" lon="13.970129"><ele>288.0</ele><time>2026-05-02T07:58:28.119Z</time></trkpt><trkpt lat="42.2854372" lon="13.9700527"><ele>288.0</ele><time>2026-05-02T07:58:29.111Z</time></trkpt><trkpt lat="42.2854791" lon="13.9699672"><ele>288.0</ele><time>2026-05-02T07:58:30.104Z</time></trkpt><trkpt lat="42.2855233" lon="13.9698493"><ele>288.0</ele><time>2026-05-02T07:58:31.11Z</time></trkpt><trkpt lat="42.2855676" lon="13.9697096"><ele>288.0</ele><time>2026-05-02T07:58:32.108Z</time></trkpt><trkpt lat="42.2856209" lon="13.96956"><ele>288.0</ele><time>2026-05-02T07:58:33.113Z</time></trkpt><trkpt lat="42.2856767" lon="13.9694101"><ele>288.0</ele><time>2026-05-02T07:58:34.109Z</time></trkpt><trkpt lat="42.2857268" lon="13.9692743"><ele>289.3333333333333</ele><time>2026-05-02T07:58:35.11Z</time></trkpt><trkpt lat="42.2857697" lon="13.9691541"><ele>290.6666666666667</ele><time>2026-05-02T07:58:36.111Z</time></trkpt><trkpt lat="42.2858049" lon="13.9690452"><ele>292.0</ele><time>2026-05-02T07:58:37.113Z</time></trkpt><trkpt lat="42.2858339" lon="13.9689386"><ele>293.33333333333337</ele><time>2026-05-02T07:58:38.111Z</time></trkpt><trkpt lat="42.2858597" lon="13.9688411"><ele>294.6666666666667</ele><time>2026-05-02T07:58:39.106Z</time></trkpt><trkpt lat="42.2858889" lon="13.968759"><ele>296.0</ele><time>2026-05-02T07:58:40.105Z</time></trkpt><trkpt lat="42.2859249" lon="13.9686865"><ele>296.0</ele><time>2026-05-02T07:58:41.112Z</time></trkpt><trkpt lat="42.2859754" lon="13.9686103"><ele>296.0</ele><time>2026-05-02T07:58:42.105Z</time></trkpt><trkpt lat="42.2860367" lon="13.9685323"><ele>296.0</ele><time>2026-05-02T07:58:43.104Z</time></trkpt><trkpt lat="42.2861161" lon="13.9684417"><ele>296.0</ele><time>2026-05-02T07:58:44.111Z</time></trkpt><trkpt lat="42.2862092" lon="13.9683397"><ele>296.0</ele><time>2026-05-02T07:58:45.11Z</time></trkpt><trkpt lat="42.2862904" lon="13.9682256"><ele>297.5</ele><time>2026-05-02T07:58:46.115Z</time></trkpt><trkpt lat="42.28636" lon="13.9681061"><ele>299.0</ele><time>2026-05-02T07:58:47.106Z</time></trkpt><trkpt lat="42.2864249" lon="13.9679843"><ele>300.5</ele><time>2026-05-02T07:58:48.114Z</time></trkpt><trkpt lat="42.2864974" lon="13.9678602"><ele>302.0</ele><time>2026-05-02T07:58:49.113Z</time></trkpt><trkpt lat="42.2865635" lon="13.9677423"><ele>300.8</ele><time>2026-05-02T07:58:50.113Z</time></trkpt><trkpt lat="42.286621" lon="13.9676279"><ele>299.6</ele><time>2026-05-02T07:58:51.11Z</time></trkpt><trkpt lat="42.2866823" lon="13.9675083"><ele>298.40000000000003</ele><time>2026-05-02T07:58:52.12Z</time></trkpt><trkpt lat="42.2867501" lon="13.9673874"><ele>297.2</ele><time>2026-05-02T07:58:53.112Z</time></trkpt><trkpt lat="42.2868194" lon="13.9672642"><ele>296.0</ele><time>2026-05-02T07:58:54.112Z</time></trkpt><trkpt lat="42.2868964" lon="13.9671504"><ele>296.0</ele><time>2026-05-02T07:58:55.105Z</time></trkpt><trkpt lat="42.2869697" lon="13.9670473"><ele>296.0</ele><time>2026-05-02T07:58:56.104Z</time></trkpt><trkpt lat="42.287022" lon="13.9669458"><ele>296.0</ele><time>2026-05-02T07:58:57.106Z</time></trkpt><trkpt lat="42.2870597" lon="13.966831"><ele>296.0</ele><time>2026-05-02T07:58:58.108Z</time></trkpt><trkpt lat="42.2870801" lon="13.9667091"><ele>296.0</ele><time>2026-05-02T07:58:59.106Z</time></trkpt><trkpt lat="42.2870669" lon="13.9665795"><ele>298.75</ele><time>2026-05-02T07:59:00.098Z</time></trkpt><trkpt lat="42.2870347" lon="13.9664534"><ele>301.5</ele><time>2026-05-02T07:59:01.106Z</time></trkpt><trkpt lat="42.2869875" lon="13.9663105"><ele>304.25</ele><time>2026-05-02T07:59:02.111Z</time></trkpt><trkpt lat="42.2869312" lon="13.9661442"><ele>307.0</ele><time>2026-05-02T07:59:03.104Z</time></trkpt><trkpt lat="42.2868711" lon="13.9659568"><ele>308.25</ele><time>2026-05-02T07:59:04.109Z</time></trkpt><trkpt lat="42.2867905" lon="13.9657284"><ele>309.5</ele><time>2026-05-02T07:59:05.115Z</time></trkpt><trkpt lat="42.2867254" lon="13.9655509"><ele>310.75</ele><time>2026-05-02T07:59:06.107Z</time></trkpt><trkpt lat="42.2866746" lon="13.9654144"><ele>312.0</ele><time>2026-05-02T07:59:07.105Z</time></trkpt><trkpt lat="42.2866385" lon="13.9652682"><ele>312.0</ele><time>2026-05-02T07:59:08.114Z</time></trkpt><trkpt lat="42.2866069" lon="13.965117"><ele>312.0</ele><time>2026-05-02T07:59:09.105Z</time></trkpt><trkpt lat="42.2865765" lon="13.9649688"><ele>312.0</ele><time>2026-05-02T07:59:10.108Z</time></trkpt><trkpt lat="42.2865659" lon="13.9648008"><ele>312.0</ele><time>2026-05-02T07:59:11.107Z</time></trkpt><trkpt lat="42.2865626" lon="13.9646338"><ele>312.2</ele><time>2026-05-02T07:59:12.114Z</time></trkpt><trkpt lat="42.2865669" lon="13.9644947"><ele>312.4</ele><time>2026-05-02T07:59:13.103Z</time></trkpt><trkpt lat="42.2865822" lon="13.9643718"><ele>312.6</ele><time>2026-05-02T07:59:14.114Z</time></trkpt><trkpt lat="42.2866101" lon="13.964258"><ele>312.8</ele><time>2026-05-02T07:59:15.1Z</time></trkpt><trkpt lat="42.2866558" lon="13.9641552"><ele>313.0</ele><time>2026-05-02T07:59:16.115Z</time></trkpt><trkpt lat="42.2867142" lon="13.9640567"><ele>313.3333333333333</ele><time>2026-05-02T07:59:17.107Z</time></trkpt><trkpt lat="42.2867827" lon="13.9639672"><ele>313.66666666666663</ele><time>2026-05-02T07:59:18.105Z</time></trkpt><trkpt lat="42.2868536" lon="13.9638843"><ele>314.0</ele><time>2026-05-02T07:59:19.118Z</time></trkpt><trkpt lat="42.2869129" lon="13.9637968"><ele>314.3333333333333</ele><time>2026-05-02T07:59:20.107Z</time></trkpt><trkpt lat="42.2869523" lon="13.9637084"><ele>314.6666666666667</ele><time>2026-05-02T07:59:21.115Z</time></trkpt><trkpt lat="42.286976" lon="13.96359"><ele>315.0</ele><time>2026-05-02T07:59:22.106Z</time></trkpt><trkpt lat="42.2869753" lon="13.9634615"><ele>314.0</ele><time>2026-05-02T07:59:23.105Z</time></trkpt><trkpt lat="42.2869493" lon="13.9633421"><ele>313.0</ele><time>2026-05-02T07:59:24.113Z</time></trkpt><trkpt lat="42.2868964" lon="13.9632206"><ele>312.0</ele><time>2026-05-02T07:59:25.099Z</time></trkpt><trkpt lat="42.2868321" lon="13.9630875"><ele>311.0</ele><time>2026-05-02T07:59:26.104Z</time></trkpt><trkpt lat="42.2867662" lon="13.9629368"><ele>310.0</ele><time>2026-05-02T07:59:27.103Z</time></trkpt><trkpt lat="42.286694" lon="13.9627544"><ele>310.0</ele><time>2026-05-02T07:59:28.107Z</time></trkpt><trkpt lat="42.286605" lon="13.9625587"><ele>310.0</ele><time>2026-05-02T07:59:29.105Z</time></trkpt><trkpt lat="42.2865251" lon="13.962381"><ele>310.0</ele><time>2026-05-02T07:59:30.111Z</time></trkpt><trkpt lat="42.28646" lon="13.9621928"><ele>310.0</ele><time>2026-05-02T07:59:31.116Z</time></trkpt><trkpt lat="42.2864253" lon="13.9620339"><ele>310.0</ele><time>2026-05-02T07:59:32.111Z</time></trkpt><trkpt lat="42.2863829" lon="13.9618787"><ele>310.0</ele><time>2026-05-02T07:59:33.126Z</time></trkpt><trkpt lat="42.2863221" lon="13.9617495"><ele>310.0</ele><time>2026-05-02T07:59:34.109Z</time></trkpt><trkpt lat="42.2862717" lon="13.961611"><ele>309.2</ele><time>2026-05-02T07:59:35.122Z</time></trkpt><trkpt lat="42.2862397" lon="13.9614699"><ele>308.4</ele><time>2026-05-02T07:59:36.112Z</time></trkpt><trkpt lat="42.2861947" lon="13.9613377"><ele>307.6</ele><time>2026-05-02T07:59:37.124Z</time></trkpt><trkpt lat="42.2861844" lon="13.961211"><ele>306.8</ele><time>2026-05-02T07:59:38.117Z</time></trkpt><trkpt lat="42.2861515" lon="13.9610575"><ele>306.0</ele><time>2026-05-02T07:59:39.116Z</time></trkpt><trkpt lat="42.2861321" lon="13.9609202"><ele>305.5</ele><time>2026-05-02T07:59:40.112Z</time></trkpt><trkpt lat="42.2861326" lon="13.9607661"><ele>305.0</ele><time>2026-05-02T07:59:41.119Z</time></trkpt><trkpt lat="42.2861477" lon="13.9606087"><ele>304.5</ele><time>2026-05-02T07:59:42.101Z</time></trkpt><trkpt lat="42.2861717" lon="13.9604548"><ele>304.0</ele><time>2026-05-02T07:59:43.115Z</time></trkpt><trkpt lat="42.2862006" lon="13.960298"><ele>304.0</ele><time>2026-05-02T07:59:44.109Z</time></trkpt><trkpt lat="42.2862295" lon="13.9601451"><ele>304.0</ele><time>2026-05-02T07:59:45.119Z</time></trkpt><trkpt lat="42.2862521" lon="13.9600044"><ele>304.0</ele><time>2026-05-02T07:59:46.104Z</time></trkpt><trkpt lat="42.2862671" lon="13.9598862"><ele>304.0</ele><time>2026-05-02T07:59:47.112Z</time></trkpt><trkpt lat="42.2862742" lon="13.9597884"><ele>304.0</ele><time>2026-05-02T07:59:48.11Z</time></trkpt><trkpt lat="42.2862787" lon="13.9597026"><ele>304.0</ele><time>2026-05-02T07:59:49.112Z</time></trkpt><trkpt lat="42.2862893" lon="13.9595411"><ele>304.0</ele><time>2026-05-02T07:59:51.113Z</time></trkpt><trkpt lat="42.2862916" lon="13.9594525"><ele>304.0</ele><time>2026-05-02T07:59:52.105Z</time></trkpt><trkpt lat="42.2862764" lon="13.9593284"><ele>304.0</ele><time>2026-05-02T07:59:53.103Z</time></trkpt><trkpt lat="42.2862462" lon="13.9592019"><ele>304.0</ele><time>2026-05-02T07:59:54.106Z</time></trkpt><trkpt lat="42.2861995" lon="13.9590916"><ele>304.0</ele><time>2026-05-02T07:59:55.104Z</time></trkpt><trkpt lat="42.2861309" lon="13.9589872"><ele>302.4</ele><time>2026-05-02T07:59:56.093Z</time></trkpt><trkpt lat="42.2860436" lon="13.9588805"><ele>300.79999999999995</ele><time>2026-05-02T07:59:57.097Z</time></trkpt><trkpt lat="42.2859551" lon="13.9587764"><ele>299.20000000000005</ele><time>2026-05-02T07:59:58.102Z</time></trkpt><trkpt lat="42.285873" lon="13.9586851"><ele>297.6</ele><time>2026-05-02T07:59:59.096Z</time></trkpt><trkpt lat="42.2857946" lon="13.9586001"><ele>296.0</ele><time>2026-05-02T08:00:00.096Z</time></trkpt><trkpt lat="42.2857283" lon="13.9585217"><ele>296.0</ele><time>2026-05-02T08:00:01.087Z</time></trkpt><trkpt lat="42.2856814" lon="13.9584565"><ele>296.0</ele><time>2026-05-02T08:00:02.094Z</time></trkpt><trkpt lat="42.2856296" lon="13.9583532"><ele>296.0</ele><time>2026-05-02T08:00:04.101Z</time></trkpt><trkpt lat="42.2856043" lon="13.9582462"><ele>296.0</ele><time>2026-05-02T08:00:32.097Z</time></trkpt><trkpt lat="42.2855432" lon="13.9581165"><ele>296.0</ele><time>2026-05-02T08:00:35.095Z</time></trkpt><trkpt lat="42.2854733" lon="13.9580717"><ele>296.0</ele><time>2026-05-02T08:00:36.097Z</time></trkpt><trkpt lat="42.2853877" lon="13.958042"><ele>295.5</ele><time>2026-05-02T08:00:37.106Z</time></trkpt><trkpt lat="42.2853142" lon="13.958028"><ele>295.0</ele><time>2026-05-02T08:00:38.09Z</time></trkpt><trkpt lat="42.2852111" lon="13.9579855"><ele>294.5</ele><time>2026-05-02T08:00:40.099Z</time></trkpt><trkpt lat="42.285151" lon="13.9579454"><ele>294.0</ele><time>2026-05-02T08:00:43.106Z</time></trkpt><trkpt lat="42.2850914" lon="13.9579122"><ele>293.5</ele><time>2026-05-02T08:00:46.103Z</time></trkpt><trkpt lat="42.2850047" lon="13.9578747"><ele>293.0</ele><time>2026-05-02T08:00:48.088Z</time></trkpt><trkpt lat="42.2849411" lon="13.9578286"><ele>293.0</ele><time>2026-05-02T08:00:49.088Z</time></trkpt><trkpt lat="42.2848711" lon="13.9577765"><ele>293.0</ele><time>2026-05-02T08:00:50.084Z</time></trkpt><trkpt lat="42.2847884" lon="13.9577181"><ele>293.0</ele><time>2026-05-02T08:00:51.087Z</time></trkpt><trkpt lat="42.2846909" lon="13.9576531"><ele>293.0</ele><time>2026-05-02T08:00:52.085Z</time></trkpt><trkpt lat="42.2845875" lon="13.9575827"><ele>293.0</ele><time>2026-05-02T08:00:53.089Z</time></trkpt><trkpt lat="42.2844892" lon="13.9575135"><ele>291.4</ele><time>2026-05-02T08:00:54.088Z</time></trkpt><trkpt lat="42.2843969" lon="13.9574506"><ele>289.8</ele><time>2026-05-02T08:00:55.087Z</time></trkpt><trkpt lat="42.2843127" lon="13.9573882"><ele>288.2</ele><time>2026-05-02T08:00:56.098Z</time></trkpt><trkpt lat="42.2842305" lon="13.9573175"><ele>286.6</ele><time>2026-05-02T08:00:57.088Z</time></trkpt><trkpt lat="42.2841404" lon="13.9572236"><ele>285.0</ele><time>2026-05-02T08:00:58.08Z</time></trkpt><trkpt lat="42.2840425" lon="13.9571058"><ele>285.0</ele><time>2026-05-02T08:00:59.097Z</time></trkpt><trkpt lat="42.2839418" lon="13.9569744"><ele>285.0</ele><time>2026-05-02T08:01:00.085Z</time></trkpt><trkpt lat="42.283832" lon="13.9568317"><ele>285.0</ele><time>2026-05-02T08:01:01.099Z</time></trkpt><trkpt lat="42.283708" lon="13.9566759"><ele>282.3333333333333</ele><time>2026-05-02T08:01:02.096Z</time></trkpt><trkpt lat="42.2836076" lon="13.9565162"><ele>279.66666666666663</ele><time>2026-05-02T08:01:03.104Z</time></trkpt><trkpt lat="42.2835054" lon="13.9563518"><ele>277.0</ele><time>2026-05-02T08:01:04.089Z</time></trkpt><trkpt lat="42.2833947" lon="13.9561772"><ele>277.0</ele><time>2026-05-02T08:01:05.104Z</time></trkpt><trkpt lat="42.28327" lon="13.9560112"><ele>277.0</ele><time>2026-05-02T08:01:06.1Z</time></trkpt><trkpt lat="42.2831451" lon="13.9558574"><ele>277.0</ele><time>2026-05-02T08:01:07.106Z</time></trkpt><trkpt lat="42.2830192" lon="13.9557091"><ele>274.3333333333333</ele><time>2026-05-02T08:01:08.095Z</time></trkpt><trkpt lat="42.2829044" lon="13.9555657"><ele>271.6666666666667</ele><time>2026-05-02T08:01:09.099Z</time></trkpt><trkpt lat="42.2827881" lon="13.9554365"><ele>269.0</ele><time>2026-05-02T08:01:10.088Z</time></trkpt><trkpt lat="42.2826845" lon="13.9553017"><ele>269.0</ele><time>2026-05-02T08:01:11.097Z</time></trkpt><trkpt lat="42.2825879" lon="13.9551826"><ele>269.0</ele><time>2026-05-02T08:01:12.094Z</time></trkpt><trkpt lat="42.2824893" lon="13.9550696"><ele>269.0</ele><time>2026-05-02T08:01:13.104Z</time></trkpt><trkpt lat="42.2823895" lon="13.9549767"><ele>269.0</ele><time>2026-05-02T08:01:14.093Z</time></trkpt><trkpt lat="42.282277" lon="13.954925"><ele>267.0</ele><time>2026-05-02T08:01:15.091Z</time></trkpt><trkpt lat="42.2821555" lon="13.9549017"><ele>265.0</ele><time>2026-05-02T08:01:16.095Z</time></trkpt><trkpt lat="42.2820249" lon="13.954893"><ele>263.0</ele><time>2026-05-02T08:01:17.095Z</time></trkpt><trkpt lat="42.281886" lon="13.9548974"><ele>261.0</ele><time>2026-05-02T08:01:18.095Z</time></trkpt><trkpt lat="42.2817518" lon="13.9549131"><ele>261.0</ele><time>2026-05-02T08:01:19.096Z</time></trkpt><trkpt lat="42.2816225" lon="13.9549076"><ele>261.0</ele><time>2026-05-02T08:01:20.094Z</time></trkpt><trkpt lat="42.2815004" lon="13.9548884"><ele>261.0</ele><time>2026-05-02T08:01:21.104Z</time></trkpt><trkpt lat="42.2813826" lon="13.9548464"><ele>261.0</ele><time>2026-05-02T08:01:22.088Z</time></trkpt><trkpt lat="42.2812664" lon="13.954759"><ele>260.25</ele><time>2026-05-02T08:01:23.086Z</time></trkpt><trkpt lat="42.2811618" lon="13.9546423"><ele>259.5</ele><time>2026-05-02T08:01:24.095Z</time></trkpt><trkpt lat="42.2810651" lon="13.9545211"><ele>258.75</ele><time>2026-05-02T08:01:25.087Z</time></trkpt><trkpt lat="42.2809559" lon="13.9544222"><ele>258.0</ele><time>2026-05-02T08:01:26.096Z</time></trkpt><trkpt lat="42.2808187" lon="13.9543467"><ele>258.0</ele><time>2026-05-02T08:01:27.1Z</time></trkpt><trkpt lat="42.2806796" lon="13.9542623"><ele>258.0</ele><time>2026-05-02T08:01:28.096Z</time></trkpt><trkpt lat="42.2805453" lon="13.9541625"><ele>258.0</ele><time>2026-05-02T08:01:29.09Z</time></trkpt><trkpt lat="42.2804264" lon="13.954057"><ele>258.0</ele><time>2026-05-02T08:01:30.094Z</time></trkpt><trkpt lat="42.28032" lon="13.9539809"><ele>255.2</ele><time>2026-05-02T08:01:31.098Z</time></trkpt><trkpt lat="42.2802189" lon="13.9539516"><ele>252.4</ele><time>2026-05-02T08:01:32.094Z</time></trkpt><trkpt lat="42.2801232" lon="13.9539236"><ele>249.59999999999997</ele><time>2026-05-02T08:01:33.093Z</time></trkpt><trkpt lat="42.2800511" lon="13.9538956"><ele>246.79999999999998</ele><time>2026-05-02T08:01:34.095Z</time></trkpt><trkpt lat="42.2799624" lon="13.9538983"><ele>244.0</ele><time>2026-05-02T08:01:35.099Z</time></trkpt><trkpt lat="42.2798737" lon="13.9539038"><ele>244.0</ele><time>2026-05-02T08:01:36.1Z</time></trkpt><trkpt lat="42.2797915" lon="13.9538999"><ele>243.99999999999997</ele><time>2026-05-02T08:01:37.097Z</time></trkpt><trkpt lat="42.2797106" lon="13.9538805"><ele>243.99999999999997</ele><time>2026-05-02T08:01:38.091Z</time></trkpt><trkpt lat="42.2796175" lon="13.9538331"><ele>244.0</ele><time>2026-05-02T08:01:39.092Z</time></trkpt><trkpt lat="42.2795132" lon="13.9537788"><ele>244.0</ele><time>2026-05-02T08:01:40.09Z</time></trkpt><trkpt lat="42.2793937" lon="13.95372"><ele>243.75</ele><time>2026-05-02T08:01:41.102Z</time></trkpt><trkpt lat="42.279266" lon="13.9536697"><ele>243.5</ele><time>2026-05-02T08:01:42.09Z</time></trkpt><trkpt lat="42.2791438" lon="13.9536201"><ele>243.25</ele><time>2026-05-02T08:01:43.098Z</time></trkpt><trkpt lat="42.2790235" lon="13.9535706"><ele>243.0</ele><time>2026-05-02T08:01:44.097Z</time></trkpt><trkpt lat="42.278894" lon="13.9535287"><ele>244.25</ele><time>2026-05-02T08:01:45.084Z</time></trkpt><trkpt lat="42.2787566" lon="13.9534806"><ele>245.5</ele><time>2026-05-02T08:01:46.093Z</time></trkpt><trkpt lat="42.2786163" lon="13.9534145"><ele>246.75</ele><time>2026-05-02T08:01:47.082Z</time></trkpt><trkpt lat="42.2784915" lon="13.9533687"><ele>248.0</ele><time>2026-05-02T08:01:48.087Z</time></trkpt><trkpt lat="42.2783674" lon="13.9533373"><ele>245.25</ele><time>2026-05-02T08:01:49.088Z</time></trkpt><trkpt lat="42.2782497" lon="13.953301"><ele>242.5</ele><time>2026-05-02T08:01:50.09Z</time></trkpt><trkpt lat="42.2781351" lon="13.9532524"><ele>239.75</ele><time>2026-05-02T08:01:51.084Z</time></trkpt><trkpt lat="42.278015" lon="13.9532169"><ele>237.0</ele><time>2026-05-02T08:01:52.094Z</time></trkpt><trkpt lat="42.2778985" lon="13.9531806"><ele>237.0</ele><time>2026-05-02T08:01:53.081Z</time></trkpt><trkpt lat="42.2777717" lon="13.9531649"><ele>237.0</ele><time>2026-05-02T08:01:54.092Z</time></trkpt><trkpt lat="42.2776544" lon="13.9531398"><ele>237.0</ele><time>2026-05-02T08:01:55.092Z</time></trkpt><trkpt lat="42.2775546" lon="13.9531237"><ele>237.0</ele><time>2026-05-02T08:01:56.093Z</time></trkpt><trkpt lat="42.277467" lon="13.9531053"><ele>237.0</ele><time>2026-05-02T08:01:57.092Z</time></trkpt><trkpt lat="42.2774011" lon="13.9530862"><ele>237.0</ele><time>2026-05-02T08:01:58.09Z</time></trkpt><trkpt lat="42.277296" lon="13.9530615"><ele>237.0</ele><time>2026-05-02T08:02:00.086Z</time></trkpt><trkpt lat="42.2772184" lon="13.9530345"><ele>237.0</ele><time>2026-05-02T08:02:02.091Z</time></trkpt><trkpt lat="42.2771715" lon="13.952977"><ele>237.0</ele><time>2026-05-02T08:02:05.085Z</time></trkpt><trkpt lat="42.2772456" lon="13.9529402"><ele>237.0</ele><time>2026-05-02T08:02:09.09Z</time></trkpt><trkpt lat="42.2773159" lon="13.9529687"><ele>237.0</ele><time>2026-05-02T08:02:11.087Z</time></trkpt><trkpt lat="42.2773747" lon="13.9529992"><ele>237.0</ele><time>2026-05-02T08:02:12.091Z</time></trkpt><trkpt lat="42.2774387" lon="13.9530244"><ele>237.0</ele><time>2026-05-02T08:02:13.091Z</time></trkpt><trkpt lat="42.2775031" lon="13.953041"><ele>237.0</ele><time>2026-05-02T08:02:14.088Z</time></trkpt><trkpt lat="42.2776099" lon="13.9530323"><ele>237.0</ele><time>2026-05-02T08:02:16.089Z</time></trkpt><trkpt lat="42.277721" lon="13.9529804"><ele>237.0</ele><time>2026-05-02T08:02:18.092Z</time></trkpt><trkpt lat="42.2778062" lon="13.9528812"><ele>237.0</ele><time>2026-05-02T08:02:20.088Z</time></trkpt><trkpt lat="42.2778356" lon="13.9527238"><ele>237.0</ele><time>2026-05-02T08:02:22.096Z</time></trkpt><trkpt lat="42.2778289" lon="13.9526356"><ele>237.0</ele><time>2026-05-02T08:02:23.085Z</time></trkpt><trkpt lat="42.2777779" lon="13.9524754"><ele>237.0</ele><time>2026-05-02T08:02:25.092Z</time></trkpt><trkpt lat="42.2777398" lon="13.9524059"><ele>237.0</ele><time>2026-05-02T08:02:26.083Z</time></trkpt><trkpt lat="42.2776558" lon="13.9523079"><ele>235.0</ele><time>2026-05-02T08:02:28.087Z</time></trkpt><trkpt lat="42.2775751" lon="13.9522356"><ele>233.0</ele><time>2026-05-02T08:02:30.089Z</time></trkpt><trkpt lat="42.2774947" lon="13.9521743"><ele>231.0</ele><time>2026-05-02T08:02:32.086Z</time></trkpt><trkpt lat="42.2774251" lon="13.9521107"><ele>229.0</ele><time>2026-05-02T08:02:34.091Z</time></trkpt><trkpt lat="42.2773678" lon="13.9520422"><ele>227.0</ele><time>2026-05-02T08:02:36.092Z</time></trkpt><trkpt lat="42.2773447" lon="13.9519302"><ele>225.0</ele><time>2026-05-02T08:02:38.085Z</time></trkpt><trkpt lat="42.277367" lon="13.9518103"><ele>222.6</ele><time>2026-05-02T08:02:40.094Z</time></trkpt><trkpt lat="42.2773899" lon="13.9517007"><ele>220.2</ele><time>2026-05-02T08:02:42.091Z</time></trkpt><trkpt lat="42.2774278" lon="13.9515885"><ele>217.8</ele><time>2026-05-02T08:02:45.09Z</time></trkpt><trkpt lat="42.2774746" lon="13.9514925"><ele>215.4</ele><time>2026-05-02T08:02:48.083Z</time></trkpt><trkpt lat="42.2775617" lon="13.9514915"><ele>213.0</ele><time>2026-05-02T08:02:51.092Z</time></trkpt><trkpt lat="42.2776636" lon="13.9515303"><ele>213.0</ele><time>2026-05-02T08:02:53.084Z</time></trkpt><trkpt lat="42.2777487" lon="13.9515324"><ele>213.0</ele><time>2026-05-02T08:02:55.084Z</time></trkpt><trkpt lat="42.2777895" lon="13.9514502"><ele>213.0</ele><time>2026-05-02T08:02:57.087Z</time></trkpt><trkpt lat="42.2777532" lon="13.9513183"><ele>213.0</ele><time>2026-05-02T08:02:59.081Z</time></trkpt><trkpt lat="42.2777164" lon="13.9512412"><ele>213.0</ele><time>2026-05-02T08:03:00.084Z</time></trkpt><trkpt lat="42.2776749" lon="13.9511547"><ele>213.0</ele><time>2026-05-02T08:03:01.088Z</time></trkpt><trkpt lat="42.2776284" lon="13.9510661"><ele>213.0</ele><time>2026-05-02T08:03:02.092Z</time></trkpt><trkpt lat="42.2775789" lon="13.9509835"><ele>213.0</ele><time>2026-05-02T08:03:03.08Z</time></trkpt><trkpt lat="42.2775358" lon="13.9509094"><ele>213.0</ele><time>2026-05-02T08:03:04.092Z</time></trkpt><trkpt lat="42.2774921" lon="13.9508313"><ele>213.0</ele><time>2026-05-02T08:03:05.084Z</time></trkpt><trkpt lat="42.2774477" lon="13.950742"><ele>213.0</ele><time>2026-05-02T08:03:06.089Z</time></trkpt><trkpt lat="42.2774022" lon="13.9506468"><ele>213.0</ele><time>2026-05-02T08:03:07.084Z</time></trkpt><trkpt lat="42.2773618" lon="13.9505525"><ele>211.0</ele><time>2026-05-02T08:03:08.074Z</time></trkpt><trkpt lat="42.2773217" lon="13.950461"><ele>209.0</ele><time>2026-05-02T08:03:09.08Z</time></trkpt><trkpt lat="42.2772806" lon="13.9503617"><ele>207.0</ele><time>2026-05-02T08:03:10.096Z</time></trkpt><trkpt lat="42.2772383" lon="13.950271"><ele>205.0</ele><time>2026-05-02T08:03:11.079Z</time></trkpt><trkpt lat="42.2771925" lon="13.9501974"><ele>203.0</ele><time>2026-05-02T08:03:12.093Z</time></trkpt><trkpt lat="42.2771031" lon="13.9500939"><ele>201.0</ele><time>2026-05-02T08:03:14.096Z</time></trkpt><trkpt lat="42.2770129" lon="13.9500149"><ele>199.4</ele><time>2026-05-02T08:03:16.084Z</time></trkpt><trkpt lat="42.2769327" lon="13.9499556"><ele>197.8</ele><time>2026-05-02T08:03:18.099Z</time></trkpt><trkpt lat="42.2769163" lon="13.9498644"><ele>196.20000000000002</ele><time>2026-05-02T08:03:21.089Z</time></trkpt><trkpt lat="42.2769725" lon="13.9498197"><ele>194.60000000000002</ele><time>2026-05-02T08:03:23.093Z</time></trkpt><trkpt lat="42.2771076" lon="13.9498232"><ele>193.0</ele><time>2026-05-02T08:03:25.084Z</time></trkpt><trkpt lat="42.2772295" lon="13.9498403"><ele>192.33333333333331</ele><time>2026-05-02T08:03:27.09Z</time></trkpt><trkpt lat="42.2772965" lon="13.9498208"><ele>191.66666666666666</ele><time>2026-05-02T08:03:28.092Z</time></trkpt><trkpt lat="42.2773594" lon="13.9497904"><ele>191.0</ele><time>2026-05-02T08:03:29.088Z</time></trkpt><trkpt lat="42.2774308" lon="13.9496776"><ele>190.33333333333331</ele><time>2026-05-02T08:03:31.082Z</time></trkpt><trkpt lat="42.2774382" lon="13.9495821"><ele>189.66666666666666</ele><time>2026-05-02T08:03:32.09Z</time></trkpt><trkpt lat="42.2774326" lon="13.9494931"><ele>189.0</ele><time>2026-05-02T08:03:33.08Z</time></trkpt><trkpt lat="42.2773634" lon="13.9493658"><ele>188.25</ele><time>2026-05-02T08:03:35.089Z</time></trkpt><trkpt lat="42.2772496" lon="13.9492904"><ele>187.5</ele><time>2026-05-02T08:03:37.094Z</time></trkpt><trkpt lat="42.2771804" lon="13.9492716"><ele>186.75</ele><time>2026-05-02T08:03:38.08Z</time></trkpt><trkpt lat="42.2770667" lon="13.9492387"><ele>186.0</ele><time>2026-05-02T08:03:40.08Z</time></trkpt><trkpt lat="42.2769493" lon="13.9491327"><ele>186.0</ele><time>2026-05-02T08:03:42.079Z</time></trkpt><trkpt lat="42.2768801" lon="13.9490462"><ele>186.0</ele><time>2026-05-02T08:03:43.089Z</time></trkpt><trkpt lat="42.2768093" lon="13.9489631"><ele>186.0</ele><time>2026-05-02T08:03:44.09Z</time></trkpt><trkpt lat="42.2767459" lon="13.9488881"><ele>186.0</ele><time>2026-05-02T08:03:45.092Z</time></trkpt><trkpt lat="42.2766889" lon="13.9487986"><ele>186.0</ele><time>2026-05-02T08:03:46.09Z</time></trkpt><trkpt lat="42.2766384" lon="13.948689"><ele>186.0</ele><time>2026-05-02T08:03:47.086Z</time></trkpt><trkpt lat="42.2766066" lon="13.9485583"><ele>186.0</ele><time>2026-05-02T08:03:48.091Z</time></trkpt><trkpt lat="42.2765786" lon="13.9484112"><ele>186.0</ele><time>2026-05-02T08:03:49.094Z</time></trkpt><trkpt lat="42.2765506" lon="13.9482659"><ele>186.0</ele><time>2026-05-02T08:03:50.097Z</time></trkpt><trkpt lat="42.2765347" lon="13.9481198"><ele>186.0</ele><time>2026-05-02T08:03:51.09Z</time></trkpt><trkpt lat="42.2765116" lon="13.9479641"><ele>187.0</ele><time>2026-05-02T08:03:52.104Z</time></trkpt><trkpt lat="42.2764846" lon="13.9478123"><ele>188.0</ele><time>2026-05-02T08:03:53.092Z</time></trkpt><trkpt lat="42.2764638" lon="13.9476718"><ele>189.0</ele><time>2026-05-02T08:03:54.1Z</time></trkpt><trkpt lat="42.2764466" lon="13.9475418"><ele>190.0</ele><time>2026-05-02T08:03:55.097Z</time></trkpt><trkpt lat="42.2764243" lon="13.9474017"><ele>191.0</ele><time>2026-05-02T08:03:56.095Z</time></trkpt><trkpt lat="42.2763994" lon="13.947251"><ele>191.60000000000002</ele><time>2026-05-02T08:03:57.091Z</time></trkpt><trkpt lat="42.2763818" lon="13.947097"><ele>192.2</ele><time>2026-05-02T08:03:58.098Z</time></trkpt><trkpt lat="42.2763683" lon="13.9469647"><ele>192.8</ele><time>2026-05-02T08:03:59.098Z</time></trkpt><trkpt lat="42.2763526" lon="13.9468342"><ele>193.39999999999998</ele><time>2026-05-02T08:04:00.096Z</time></trkpt><trkpt lat="42.2763268" lon="13.9467022"><ele>194.0</ele><time>2026-05-02T08:04:01.086Z</time></trkpt><trkpt lat="42.276304" lon="13.9465772"><ele>194.00000000000003</ele><time>2026-05-02T08:04:02.095Z</time></trkpt><trkpt lat="42.2762863" lon="13.9464576"><ele>194.0</ele><time>2026-05-02T08:04:03.089Z</time></trkpt><trkpt lat="42.2762646" lon="13.9463485"><ele>194.0</ele><time>2026-05-02T08:04:04.096Z</time></trkpt><trkpt lat="42.276229" lon="13.9462422"><ele>194.0</ele><time>2026-05-02T08:04:05.092Z</time></trkpt><trkpt lat="42.2761844" lon="13.9461577"><ele>194.00000000000003</ele><time>2026-05-02T08:04:06.096Z</time></trkpt><trkpt lat="42.2761325" lon="13.9461067"><ele>194.0</ele><time>2026-05-02T08:04:07.099Z</time></trkpt><trkpt lat="42.2760663" lon="13.9460684"><ele>194.00000000000003</ele><time>2026-05-02T08:04:08.098Z</time></trkpt><trkpt lat="42.2759878" lon="13.9460244"><ele>194.0</ele><time>2026-05-02T08:04:09.087Z</time></trkpt><trkpt lat="42.2759077" lon="13.9459697"><ele>194.0</ele><time>2026-05-02T08:04:10.092Z</time></trkpt><trkpt lat="42.2758333" lon="13.9459182"><ele>194.0</ele><time>2026-05-02T08:04:11.086Z</time></trkpt><trkpt lat="42.2757626" lon="13.9458687"><ele>194.00000000000003</ele><time>2026-05-02T08:04:12.091Z</time></trkpt><trkpt lat="42.2757057" lon="13.9458271"><ele>194.0</ele><time>2026-05-02T08:04:13.091Z</time></trkpt><trkpt lat="42.2756487" lon="13.9457866"><ele>193.83333333333334</ele><time>2026-05-02T08:04:14.094Z</time></trkpt><trkpt lat="42.2755924" lon="13.9457413"><ele>193.66666666666669</ele><time>2026-05-02T08:04:15.095Z</time></trkpt><trkpt lat="42.275536" lon="13.9456844"><ele>193.5</ele><time>2026-05-02T08:04:16.095Z</time></trkpt><trkpt lat="42.2754886" lon="13.9456199"><ele>193.33333333333331</ele><time>2026-05-02T08:04:17.087Z</time></trkpt><trkpt lat="42.2754571" lon="13.9454777"><ele>193.16666666666666</ele><time>2026-05-02T08:04:19.094Z</time></trkpt><trkpt lat="42.2755061" lon="13.9453485"><ele>193.0</ele><time>2026-05-02T08:04:21.102Z</time></trkpt><trkpt lat="42.275632" lon="13.945319"><ele>196.2</ele><time>2026-05-02T08:04:23.093Z</time></trkpt><trkpt lat="42.2757119" lon="13.9453174"><ele>199.4</ele><time>2026-05-02T08:04:24.094Z</time></trkpt><trkpt lat="42.2758045" lon="13.9453205"><ele>202.6</ele><time>2026-05-02T08:04:25.093Z</time></trkpt><trkpt lat="42.2759098" lon="13.9453155"><ele>205.79999999999998</ele><time>2026-05-02T08:04:26.096Z</time></trkpt><trkpt lat="42.2760131" lon="13.9452989"><ele>209.0</ele><time>2026-05-02T08:04:27.09Z</time></trkpt><trkpt lat="42.2761076" lon="13.9452843"><ele>209.00000000000003</ele><time>2026-05-02T08:04:28.093Z</time></trkpt><trkpt lat="42.2761995" lon="13.9452666"><ele>209.0</ele><time>2026-05-02T08:04:29.101Z</time></trkpt><trkpt lat="42.2762862" lon="13.9452636"><ele>209.0</ele><time>2026-05-02T08:04:30.095Z</time></trkpt><trkpt lat="42.2763722" lon="13.9452596"><ele>209.0</ele><time>2026-05-02T08:04:31.103Z</time></trkpt><trkpt lat="42.2764496" lon="13.945249"><ele>209.00000000000003</ele><time>2026-05-02T08:04:32.092Z</time></trkpt><trkpt lat="42.2765214" lon="13.9452343"><ele>209.0</ele><time>2026-05-02T08:04:33.102Z</time></trkpt><trkpt lat="42.2765896" lon="13.9452193"><ele>210.33333333333334</ele><time>2026-05-02T08:04:34.096Z</time></trkpt><trkpt lat="42.2766596" lon="13.9452038"><ele>211.66666666666669</ele><time>2026-05-02T08:04:35.1Z</time></trkpt><trkpt lat="42.276724" lon="13.9451891"><ele>213.0</ele><time>2026-05-02T08:04:36.097Z</time></trkpt><trkpt lat="42.2767883" lon="13.9451772"><ele>214.33333333333331</ele><time>2026-05-02T08:04:37.095Z</time></trkpt><trkpt lat="42.2769072" lon="13.9451226"><ele>215.66666666666666</ele><time>2026-05-02T08:04:39.1Z</time></trkpt><trkpt lat="42.2769631" lon="13.9450711"><ele>217.0</ele><time>2026-05-02T08:04:40.091Z</time></trkpt><trkpt lat="42.2770237" lon="13.9449466"><ele>217.83333333333331</ele><time>2026-05-02T08:04:42.092Z</time></trkpt><trkpt lat="42.2770444" lon="13.9448569"><ele>218.66666666666666</ele><time>2026-05-02T08:04:43.09Z</time></trkpt><trkpt lat="42.2770644" lon="13.9447505"><ele>219.5</ele><time>2026-05-02T08:04:44.082Z</time></trkpt><trkpt lat="42.2770827" lon="13.9446435"><ele>220.33333333333331</ele><time>2026-05-02T08:04:45.087Z</time></trkpt><trkpt lat="42.2771013" lon="13.9445494"><ele>221.16666666666666</ele><time>2026-05-02T08:04:46.084Z</time></trkpt><trkpt lat="42.2771176" lon="13.9444639"><ele>222.0</ele><time>2026-05-02T08:04:47.079Z</time></trkpt><trkpt lat="42.2771392" lon="13.944356"><ele>222.0</ele><time>2026-05-02T08:04:49.085Z</time></trkpt><trkpt lat="42.277164" lon="13.9442137"><ele>222.0</ele><time>2026-05-02T08:04:51.085Z</time></trkpt><trkpt lat="42.2771795" lon="13.9441054"><ele>222.0</ele><time>2026-05-02T08:04:52.083Z</time></trkpt><trkpt lat="42.2771956" lon="13.9439914"><ele>222.0</ele><time>2026-05-02T08:04:53.084Z</time></trkpt><trkpt lat="42.2772074" lon="13.943873"><ele>222.0</ele><time>2026-05-02T08:04:54.078Z</time></trkpt><trkpt lat="42.277214" lon="13.9437398"><ele>222.16666666666666</ele><time>2026-05-02T08:04:55.086Z</time></trkpt><trkpt lat="42.277205" lon="13.9436013"><ele>222.33333333333331</ele><time>2026-05-02T08:04:56.08Z</time></trkpt><trkpt lat="42.2771862" lon="13.9434673"><ele>222.5</ele><time>2026-05-02T08:04:57.081Z</time></trkpt><trkpt lat="42.2771627" lon="13.9433518"><ele>222.66666666666666</ele><time>2026-05-02T08:04:58.073Z</time></trkpt><trkpt lat="42.2771318" lon="13.9432519"><ele>222.83333333333331</ele><time>2026-05-02T08:04:59.077Z</time></trkpt><trkpt lat="42.2770933" lon="13.9431672"><ele>223.0</ele><time>2026-05-02T08:05:00.071Z</time></trkpt><trkpt lat="42.2770481" lon="13.943102"><ele>224.2</ele><time>2026-05-02T08:05:01.077Z</time></trkpt><trkpt lat="42.2769418" lon="13.9430052"><ele>225.4</ele><time>2026-05-02T08:05:03.079Z</time></trkpt><trkpt lat="42.2768341" lon="13.9429463"><ele>226.59999999999997</ele><time>2026-05-02T08:05:05.084Z</time></trkpt><trkpt lat="42.2767414" lon="13.942925"><ele>227.79999999999998</ele><time>2026-05-02T08:05:07.083Z</time></trkpt><trkpt lat="42.2766491" lon="13.9429119"><ele>229.0</ele><time>2026-05-02T08:05:09.083Z</time></trkpt><trkpt lat="42.2765423" lon="13.942889"><ele>228.99999999999997</ele><time>2026-05-02T08:05:11.087Z</time></trkpt><trkpt lat="42.2764767" lon="13.9428834"><ele>229.0</ele><time>2026-05-02T08:05:12.087Z</time></trkpt><trkpt lat="42.2763987" lon="13.9428698"><ele>229.0</ele><time>2026-05-02T08:05:13.091Z</time></trkpt><trkpt lat="42.2763156" lon="13.9428596"><ele>229.0</ele><time>2026-05-02T08:05:14.093Z</time></trkpt><trkpt lat="42.2762392" lon="13.9428397"><ele>228.99999999999997</ele><time>2026-05-02T08:05:15.088Z</time></trkpt><trkpt lat="42.2761777" lon="13.9428061"><ele>229.0</ele><time>2026-05-02T08:05:16.086Z</time></trkpt><trkpt lat="42.2760942" lon="13.9426823"><ele>229.6</ele><time>2026-05-02T08:05:18.087Z</time></trkpt><trkpt lat="42.2760705" lon="13.942596"><ele>230.2</ele><time>2026-05-02T08:05:19.092Z</time></trkpt><trkpt lat="42.2760491" lon="13.9424954"><ele>230.79999999999998</ele><time>2026-05-02T08:05:20.085Z</time></trkpt><trkpt lat="42.2760185" lon="13.9423687"><ele>231.39999999999998</ele><time>2026-05-02T08:05:21.086Z</time></trkpt><trkpt lat="42.2759697" lon="13.9422266"><ele>232.0</ele><time>2026-05-02T08:05:22.096Z</time></trkpt><trkpt lat="42.2759148" lon="13.942078"><ele>232.0</ele><time>2026-05-02T08:05:23.093Z</time></trkpt><trkpt lat="42.2758663" lon="13.9419331"><ele>232.0</ele><time>2026-05-02T08:05:24.088Z</time></trkpt><trkpt lat="42.2758275" lon="13.9418054"><ele>232.0</ele><time>2026-05-02T08:05:25.091Z</time></trkpt><trkpt lat="42.2757909" lon="13.9416994"><ele>232.0</ele><time>2026-05-02T08:05:26.09Z</time></trkpt><trkpt lat="42.2757542" lon="13.9415936"><ele>232.0</ele><time>2026-05-02T08:05:27.092Z</time></trkpt><trkpt lat="42.2757215" lon="13.9414961"><ele>234.6</ele><time>2026-05-02T08:05:28.086Z</time></trkpt><trkpt lat="42.275693" lon="13.9413347"><ele>237.2</ele><time>2026-05-02T08:05:30.086Z</time></trkpt><trkpt lat="42.2756788" lon="13.9412295"><ele>239.8</ele><time>2026-05-02T08:05:31.091Z</time></trkpt><trkpt lat="42.2756533" lon="13.9411112"><ele>242.4</ele><time>2026-05-02T08:05:32.087Z</time></trkpt><trkpt lat="42.2756301" lon="13.9409971"><ele>245.0</ele><time>2026-05-02T08:05:33.095Z</time></trkpt><trkpt lat="42.275613" lon="13.9408793"><ele>245.50000000000003</ele><time>2026-05-02T08:05:34.09Z</time></trkpt><trkpt lat="42.275599" lon="13.9407595"><ele>246.0</ele><time>2026-05-02T08:05:35.091Z</time></trkpt><trkpt lat="42.2755907" lon="13.9406376"><ele>246.5</ele><time>2026-05-02T08:05:36.091Z</time></trkpt><trkpt lat="42.2755933" lon="13.9405293"><ele>247.0</ele><time>2026-05-02T08:05:37.086Z</time></trkpt><trkpt lat="42.2756037" lon="13.9404251"><ele>247.50000000000003</ele><time>2026-05-02T08:05:38.087Z</time></trkpt><trkpt lat="42.2756148" lon="13.9403254"><ele>248.0</ele><time>2026-05-02T08:05:39.088Z</time></trkpt><trkpt lat="42.2756328" lon="13.9402261"><ele>248.00000000000003</ele><time>2026-05-02T08:05:40.087Z</time></trkpt><trkpt lat="42.2756505" lon="13.9401395"><ele>248.0</ele><time>2026-05-02T08:05:41.09Z</time></trkpt><trkpt lat="42.2756566" lon="13.9400326"><ele>248.0</ele><time>2026-05-02T08:05:43.082Z</time></trkpt><trkpt lat="42.2755827" lon="13.9400252"><ele>248.0</ele><time>2026-05-02T08:05:45.083Z</time></trkpt><trkpt lat="42.2755196" lon="13.9400493"><ele>248.00000000000003</ele><time>2026-05-02T08:05:46.084Z</time></trkpt><trkpt lat="42.2754385" lon="13.9400909"><ele>248.0</ele><time>2026-05-02T08:05:47.084Z</time></trkpt><trkpt lat="42.2753515" lon="13.9401434"><ele>244.8</ele><time>2026-05-02T08:05:48.093Z</time></trkpt><trkpt lat="42.2752559" lon="13.9401918"><ele>241.60000000000002</ele><time>2026-05-02T08:05:49.088Z</time></trkpt><trkpt lat="42.2751642" lon="13.9402476"><ele>238.39999999999998</ele><time>2026-05-02T08:05:50.087Z</time></trkpt><trkpt lat="42.2750734" lon="13.9403103"><ele>235.2</ele><time>2026-05-02T08:05:51.086Z</time></trkpt><trkpt lat="42.2749844" lon="13.9403722"><ele>232.0</ele><time>2026-05-02T08:05:52.09Z</time></trkpt><trkpt lat="42.2748931" lon="13.9404357"><ele>232.0</ele><time>2026-05-02T08:05:53.094Z</time></trkpt><trkpt lat="42.2748095" lon="13.9404968"><ele>232.0</ele><time>2026-05-02T08:05:54.09Z</time></trkpt><trkpt lat="42.274728" lon="13.94055"><ele>232.0</ele><time>2026-05-02T08:05:55.087Z</time></trkpt><trkpt lat="42.2746494" lon="13.9406038"><ele>232.0</ele><time>2026-05-02T08:05:56.091Z</time></trkpt><trkpt lat="42.2745658" lon="13.9406549"><ele>232.0</ele><time>2026-05-02T08:05:57.094Z</time></trkpt><trkpt lat="42.2744765" lon="13.9407032"><ele>230.33333333333331</ele><time>2026-05-02T08:05:58.09Z</time></trkpt><trkpt lat="42.2743853" lon="13.9407409"><ele>228.66666666666666</ele><time>2026-05-02T08:05:59.094Z</time></trkpt><trkpt lat="42.2742948" lon="13.9407788"><ele>227.0</ele><time>2026-05-02T08:06:00.089Z</time></trkpt><trkpt lat="42.2742051" lon="13.9408049"><ele>225.33333333333331</ele><time>2026-05-02T08:06:01.096Z</time></trkpt><trkpt lat="42.274121" lon="13.9408123"><ele>223.66666666666666</ele><time>2026-05-02T08:06:02.094Z</time></trkpt><trkpt lat="42.2740406" lon="13.9408083"><ele>222.0</ele><time>2026-05-02T08:06:03.093Z</time></trkpt><trkpt lat="42.2739676" lon="13.9407981"><ele>219.66666666666666</ele><time>2026-05-02T08:06:04.092Z</time></trkpt><trkpt lat="42.2738999" lon="13.940776"><ele>217.33333333333331</ele><time>2026-05-02T08:06:05.094Z</time></trkpt><trkpt lat="42.2738308" lon="13.9407508"><ele>215.0</ele><time>2026-05-02T08:06:06.092Z</time></trkpt><trkpt lat="42.2737581" lon="13.9407239"><ele>212.66666666666666</ele><time>2026-05-02T08:06:07.092Z</time></trkpt><trkpt lat="42.2736756" lon="13.940698"><ele>210.33333333333331</ele><time>2026-05-02T08:06:08.092Z</time></trkpt><trkpt lat="42.2735804" lon="13.9406691"><ele>208.0</ele><time>2026-05-02T08:06:09.093Z</time></trkpt><trkpt lat="42.2734826" lon="13.9406382"><ele>208.0</ele><time>2026-05-02T08:06:10.093Z</time></trkpt><trkpt lat="42.2733778" lon="13.9406099"><ele>208.0</ele><time>2026-05-02T08:06:11.095Z</time></trkpt><trkpt lat="42.273284" lon="13.9405906"><ele>208.0</ele><time>2026-05-02T08:06:12.096Z</time></trkpt><trkpt lat="42.273182" lon="13.9405717"><ele>208.0</ele><time>2026-05-02T08:06:13.095Z</time></trkpt><trkpt lat="42.2730734" lon="13.940547"><ele>208.0</ele><time>2026-05-02T08:06:14.097Z</time></trkpt><trkpt lat="42.2729659" lon="13.9405267"><ele>205.8</ele><time>2026-05-02T08:06:15.093Z</time></trkpt><trkpt lat="42.27287" lon="13.9405047"><ele>203.60000000000002</ele><time>2026-05-02T08:06:16.092Z</time></trkpt><trkpt lat="42.2727737" lon="13.9404917"><ele>201.39999999999998</ele><time>2026-05-02T08:06:17.092Z</time></trkpt><trkpt lat="42.2726804" lon="13.9404808"><ele>199.2</ele><time>2026-05-02T08:06:18.093Z</time></trkpt><trkpt lat="42.2725903" lon="13.9404738"><ele>197.0</ele><time>2026-05-02T08:06:19.098Z</time></trkpt><trkpt lat="42.272511" lon="13.9404654"><ele>197.0</ele><time>2026-05-02T08:06:20.088Z</time></trkpt><trkpt lat="42.272442" lon="13.9404568"><ele>197.0</ele><time>2026-05-02T08:06:21.09Z</time></trkpt><trkpt lat="42.2723441" lon="13.9404186"><ele>197.0</ele><time>2026-05-02T08:06:23.087Z</time></trkpt><trkpt lat="42.2723338" lon="13.9403288"><ele>197.0</ele><time>2026-05-02T08:06:25.094Z</time></trkpt><trkpt lat="42.2724207" lon="13.9401886"><ele>197.0</ele><time>2026-05-02T08:06:27.09Z</time></trkpt><trkpt lat="42.2724993" lon="13.9400946"><ele>196.8</ele><time>2026-05-02T08:06:28.089Z</time></trkpt><trkpt lat="42.2725879" lon="13.9399867"><ele>196.6</ele><time>2026-05-02T08:06:29.092Z</time></trkpt><trkpt lat="42.2726802" lon="13.9398868"><ele>196.4</ele><time>2026-05-02T08:06:30.085Z</time></trkpt><trkpt lat="42.2727663" lon="13.9398042"><ele>196.20000000000002</ele><time>2026-05-02T08:06:31.093Z</time></trkpt><trkpt lat="42.2728387" lon="13.9397283"><ele>196.0</ele><time>2026-05-02T08:06:32.085Z</time></trkpt><trkpt lat="42.2729006" lon="13.9396582"><ele>195.99999999999997</ele><time>2026-05-02T08:06:33.089Z</time></trkpt><trkpt lat="42.2729544" lon="13.9395813"><ele>196.0</ele><time>2026-05-02T08:06:34.084Z</time></trkpt><trkpt lat="42.2729867" lon="13.9394965"><ele>196.0</ele><time>2026-05-02T08:06:35.08Z</time></trkpt><trkpt lat="42.2729963" lon="13.9393993"><ele>196.0</ele><time>2026-05-02T08:06:36.077Z</time></trkpt><trkpt lat="42.2729791" lon="13.9392858"><ele>195.99999999999997</ele><time>2026-05-02T08:06:37.08Z</time></trkpt><trkpt lat="42.2729456" lon="13.9391776"><ele>196.0</ele><time>2026-05-02T08:06:38.079Z</time></trkpt><trkpt lat="42.2728973" lon="13.9390784"><ele>194.60000000000002</ele><time>2026-05-02T08:06:39.083Z</time></trkpt><trkpt lat="42.2728354" lon="13.9389825"><ele>193.2</ele><time>2026-05-02T08:06:40.084Z</time></trkpt><trkpt lat="42.2727653" lon="13.9388807"><ele>191.8</ele><time>2026-05-02T08:06:41.085Z</time></trkpt><trkpt lat="42.2727006" lon="13.9387877"><ele>190.39999999999998</ele><time>2026-05-02T08:06:42.082Z</time></trkpt><trkpt lat="42.2726382" lon="13.9387038"><ele>189.0</ele><time>2026-05-02T08:06:43.089Z</time></trkpt><trkpt lat="42.2725748" lon="13.9386242"><ele>189.0</ele><time>2026-05-02T08:06:44.086Z</time></trkpt><trkpt lat="42.2725083" lon="13.9385611"><ele>189.0</ele><time>2026-05-02T08:06:45.085Z</time></trkpt><trkpt lat="42.2724378" lon="13.9385139"><ele>189.0</ele><time>2026-05-02T08:06:46.087Z</time></trkpt><trkpt lat="42.2723596" lon="13.9384703"><ele>189.0</ele><time>2026-05-02T08:06:47.087Z</time></trkpt><trkpt lat="42.2722819" lon="13.9384351"><ele>189.0</ele><time>2026-05-02T08:06:48.086Z</time></trkpt><trkpt lat="42.2721999" lon="13.9384135"><ele>189.0</ele><time>2026-05-02T08:06:49.086Z</time></trkpt><trkpt lat="42.2721155" lon="13.9383874"><ele>186.0</ele><time>2026-05-02T08:06:50.087Z</time></trkpt><trkpt lat="42.2720316" lon="13.9383643"><ele>183.0</ele><time>2026-05-02T08:06:51.086Z</time></trkpt><trkpt lat="42.2719545" lon="13.9383474"><ele>180.0</ele><time>2026-05-02T08:06:52.089Z</time></trkpt><trkpt lat="42.2718858" lon="13.9383369"><ele>177.0</ele><time>2026-05-02T08:06:53.087Z</time></trkpt><trkpt lat="42.2717819" lon="13.9383088"><ele>174.0</ele><time>2026-05-02T08:06:55.086Z</time></trkpt><trkpt lat="42.2717109" lon="13.9381842"><ele>174.0</ele><time>2026-05-02T08:06:57.08Z</time></trkpt><trkpt lat="42.2716957" lon="13.9380716"><ele>174.0</ele><time>2026-05-02T08:06:58.085Z</time></trkpt><trkpt lat="42.2716716" lon="13.9379681"><ele>174.0</ele><time>2026-05-02T08:06:59.086Z</time></trkpt><trkpt lat="42.2716325" lon="13.9378829"><ele>174.0</ele><time>2026-05-02T08:07:00.079Z</time></trkpt><trkpt lat="42.2715779" lon="13.9378213"><ele>174.0</ele><time>2026-05-02T08:07:01.079Z</time></trkpt><trkpt lat="42.2715046" lon="13.9377952"><ele>174.0</ele><time>2026-05-02T08:07:02.083Z</time></trkpt><trkpt lat="42.2714145" lon="13.9377937"><ele>173.16666666666666</ele><time>2026-05-02T08:07:03.083Z</time></trkpt><trkpt lat="42.2713228" lon="13.9377934"><ele>172.33333333333334</ele><time>2026-05-02T08:07:04.088Z</time></trkpt><trkpt lat="42.2712401" lon="13.937808"><ele>171.5</ele><time>2026-05-02T08:07:05.083Z</time></trkpt><trkpt lat="42.2711589" lon="13.9378473"><ele>170.66666666666669</ele><time>2026-05-02T08:07:06.08Z</time></trkpt><trkpt lat="42.2710829" lon="13.9379004"><ele>169.83333333333334</ele><time>2026-05-02T08:07:07.079Z</time></trkpt><trkpt lat="42.271016" lon="13.9379869"><ele>169.0</ele><time>2026-05-02T08:07:08.082Z</time></trkpt><trkpt lat="42.270957" lon="13.938099"><ele>169.0</ele><time>2026-05-02T08:07:09.081Z</time></trkpt><trkpt lat="42.2709086" lon="13.9382269"><ele>169.0</ele><time>2026-05-02T08:07:10.08Z</time></trkpt><trkpt lat="42.2708709" lon="13.9383673"><ele>169.0</ele><time>2026-05-02T08:07:11.082Z</time></trkpt><trkpt lat="42.27083" lon="13.9385195"><ele>169.0</ele><time>2026-05-02T08:07:12.084Z</time></trkpt><trkpt lat="42.2707932" lon="13.9386829"><ele>169.5</ele><time>2026-05-02T08:07:13.082Z</time></trkpt><trkpt lat="42.2707639" lon="13.9388363"><ele>170.0</ele><time>2026-05-02T08:07:14.083Z</time></trkpt><trkpt lat="42.270728" lon="13.9389722"><ele>170.5</ele><time>2026-05-02T08:07:15.081Z</time></trkpt><trkpt lat="42.2706846" lon="13.9391072"><ele>171.0</ele><time>2026-05-02T08:07:16.072Z</time></trkpt><trkpt lat="42.2706547" lon="13.9392617"><ele>171.25</ele><time>2026-05-02T08:07:17.079Z</time></trkpt><trkpt lat="42.2706315" lon="13.9394399"><ele>171.5</ele><time>2026-05-02T08:07:18.078Z</time></trkpt><trkpt lat="42.2706011" lon="13.9396122"><ele>171.75</ele><time>2026-05-02T08:07:19.08Z</time></trkpt><trkpt lat="42.2705658" lon="13.9397633"><ele>172.0</ele><time>2026-05-02T08:07:20.079Z</time></trkpt><trkpt lat="42.2705207" lon="13.9399053"><ele>168.25</ele><time>2026-05-02T08:07:21.079Z</time></trkpt><trkpt lat="42.2704624" lon="13.9400517"><ele>164.5</ele><time>2026-05-02T08:07:22.08Z</time></trkpt><trkpt lat="42.2704043" lon="13.940205"><ele>160.75</ele><time>2026-05-02T08:07:23.08Z</time></trkpt><trkpt lat="42.2703519" lon="13.9403454"><ele>157.0</ele><time>2026-05-02T08:07:24.081Z</time></trkpt><trkpt lat="42.2703052" lon="13.9404814"><ele>157.0</ele><time>2026-05-02T08:07:25.081Z</time></trkpt><trkpt lat="42.2702651" lon="13.9406173"><ele>157.0</ele><time>2026-05-02T08:07:26.081Z</time></trkpt><trkpt lat="42.2702234" lon="13.9407474"><ele>157.0</ele><time>2026-05-02T08:07:27.079Z</time></trkpt><trkpt lat="42.2701872" lon="13.9408637"><ele>157.0</ele><time>2026-05-02T08:07:28.083Z</time></trkpt><trkpt lat="42.2701506" lon="13.940968"><ele>157.0</ele><time>2026-05-02T08:07:29.081Z</time></trkpt><trkpt lat="42.2701154" lon="13.941082"><ele>157.0</ele><time>2026-05-02T08:07:30.08Z</time></trkpt><trkpt lat="42.2700792" lon="13.9411832"><ele>157.0</ele><time>2026-05-02T08:07:31.078Z</time></trkpt><trkpt lat="42.2700388" lon="13.9412639"><ele>157.0</ele><time>2026-05-02T08:07:32.078Z</time></trkpt><trkpt lat="42.2699823" lon="13.9413397"><ele>157.0</ele><time>2026-05-02T08:07:33.079Z</time></trkpt><trkpt lat="42.2699184" lon="13.94141"><ele>157.0</ele><time>2026-05-02T08:07:34.08Z</time></trkpt><trkpt lat="42.2698782" lon="13.941483"><ele>157.0</ele><time>2026-05-02T08:07:35.08Z</time></trkpt><trkpt lat="42.2698589" lon="13.9415669"><ele>157.0</ele><time>2026-05-02T08:07:36.075Z</time></trkpt><trkpt lat="42.2698564" lon="13.9416787"><ele>157.0</ele><time>2026-05-02T08:07:37.072Z</time></trkpt><trkpt lat="42.2698856" lon="13.9418113"><ele>157.0</ele><time>2026-05-02T08:07:38.083Z</time></trkpt><trkpt lat="42.2699098" lon="13.9419432"><ele>157.0</ele><time>2026-05-02T08:07:39.079Z</time></trkpt><trkpt lat="42.269921" lon="13.9420616"><ele>157.0</ele><time>2026-05-02T08:07:40.079Z</time></trkpt><trkpt lat="42.2699184" lon="13.9421676"><ele>156.33333333333334</ele><time>2026-05-02T08:07:41.082Z</time></trkpt><trkpt lat="42.2698814" lon="13.9422554"><ele>155.66666666666669</ele><time>2026-05-02T08:07:42.082Z</time></trkpt><trkpt lat="42.2698103" lon="13.942332"><ele>155.0</ele><time>2026-05-02T08:07:43.078Z</time></trkpt><trkpt lat="42.26973" lon="13.9423904"><ele>154.33333333333334</ele><time>2026-05-02T08:07:44.091Z</time></trkpt><trkpt lat="42.269654" lon="13.9424026"><ele>153.66666666666666</ele><time>2026-05-02T08:07:45.08Z</time></trkpt><trkpt lat="42.2695602" lon="13.9424229"><ele>153.0</ele><time>2026-05-02T08:07:46.082Z</time></trkpt><trkpt lat="42.2694485" lon="13.9424427"><ele>152.0</ele><time>2026-05-02T08:07:47.086Z</time></trkpt><trkpt lat="42.2693228" lon="13.9424792"><ele>151.0</ele><time>2026-05-02T08:07:48.086Z</time></trkpt><trkpt lat="42.2691891" lon="13.942513"><ele>150.0</ele><time>2026-05-02T08:07:49.085Z</time></trkpt><trkpt lat="42.2690614" lon="13.9425382"><ele>149.0</ele><time>2026-05-02T08:07:50.085Z</time></trkpt><trkpt lat="42.2689478" lon="13.9425734"><ele>148.4</ele><time>2026-05-02T08:07:51.085Z</time></trkpt><trkpt lat="42.2688447" lon="13.9426075"><ele>147.8</ele><time>2026-05-02T08:07:52.093Z</time></trkpt><trkpt lat="42.2687568" lon="13.9426358"><ele>147.2</ele><time>2026-05-02T08:07:53.082Z</time></trkpt><trkpt lat="42.2686842" lon="13.9426548"><ele>146.6</ele><time>2026-05-02T08:07:54.08Z</time></trkpt><trkpt lat="42.2685606" lon="13.9426501"><ele>146.0</ele><time>2026-05-02T08:07:56.084Z</time></trkpt><trkpt lat="42.2684758" lon="13.9426395"><ele>146.0</ele><time>2026-05-02T08:07:57.088Z</time></trkpt><trkpt lat="42.2683865" lon="13.9426066"><ele>146.0</ele><time>2026-05-02T08:07:58.088Z</time></trkpt><trkpt lat="42.2682996" lon="13.9425561"><ele>146.0</ele><time>2026-05-02T08:07:59.084Z</time></trkpt><trkpt lat="42.268218" lon="13.9424953"><ele>146.0</ele><time>2026-05-02T08:08:00.083Z</time></trkpt><trkpt lat="42.2681458" lon="13.9424122"><ele>146.0</ele><time>2026-05-02T08:08:01.083Z</time></trkpt><trkpt lat="42.2680969" lon="13.9423371"><ele>146.0</ele><time>2026-05-02T08:08:02.084Z</time></trkpt><trkpt lat="42.2680439" lon="13.9422795"><ele>148.16666666666666</ele><time>2026-05-02T08:08:03.088Z</time></trkpt><trkpt lat="42.2679763" lon="13.9422651"><ele>150.33333333333331</ele><time>2026-05-02T08:08:04.084Z</time></trkpt><trkpt lat="42.2679107" lon="13.9422753"><ele>152.5</ele><time>2026-05-02T08:08:05.086Z</time></trkpt><trkpt lat="42.2678451" lon="13.9422904"><ele>154.66666666666666</ele><time>2026-05-02T08:08:06.086Z</time></trkpt><trkpt lat="42.2677477" lon="13.9422762"><ele>156.83333333333334</ele><time>2026-05-02T08:08:08.085Z</time></trkpt><trkpt lat="42.2676816" lon="13.9421922"><ele>159.0</ele><time>2026-05-02T08:08:10.083Z</time></trkpt><trkpt lat="42.2676802" lon="13.9420223"><ele>159.0</ele><time>2026-05-02T08:08:12.084Z</time></trkpt><trkpt lat="42.2676734" lon="13.9419204"><ele>159.0</ele><time>2026-05-02T08:08:13.086Z</time></trkpt><trkpt lat="42.2676604" lon="13.9418233"><ele>159.0</ele><time>2026-05-02T08:08:14.085Z</time></trkpt><trkpt lat="42.2676381" lon="13.9417175"><ele>159.0</ele><time>2026-05-02T08:08:15.087Z</time></trkpt><trkpt lat="42.267615" lon="13.9416133"><ele>159.0</ele><time>2026-05-02T08:08:16.086Z</time></trkpt><trkpt lat="42.2675863" lon="13.9415119"><ele>159.0</ele><time>2026-05-02T08:08:17.088Z</time></trkpt><trkpt lat="42.2675474" lon="13.9414192"><ele>158.8</ele><time>2026-05-02T08:08:18.088Z</time></trkpt><trkpt lat="42.2674958" lon="13.9413198"><ele>158.60000000000002</ele><time>2026-05-02T08:08:19.087Z</time></trkpt><trkpt lat="42.2674339" lon="13.941238"><ele>158.4</ele><time>2026-05-02T08:08:20.085Z</time></trkpt><trkpt lat="42.2673676" lon="13.9411589"><ele>158.20000000000002</ele><time>2026-05-02T08:08:21.088Z</time></trkpt><trkpt lat="42.267302" lon="13.9410555"><ele>158.0</ele><time>2026-05-02T08:08:22.093Z</time></trkpt><trkpt lat="42.2672384" lon="13.9409349"><ele>160.66666666666666</ele><time>2026-05-02T08:08:23.091Z</time></trkpt><trkpt lat="42.2671759" lon="13.9408119"><ele>163.33333333333331</ele><time>2026-05-02T08:08:24.086Z</time></trkpt><trkpt lat="42.267122" lon="13.9407101"><ele>166.0</ele><time>2026-05-02T08:08:25.083Z</time></trkpt><trkpt lat="42.2670763" lon="13.9406196"><ele>168.66666666666666</ele><time>2026-05-02T08:08:26.09Z</time></trkpt><trkpt lat="42.2670385" lon="13.9405273"><ele>171.33333333333334</ele><time>2026-05-02T08:08:27.088Z</time></trkpt><trkpt lat="42.2669966" lon="13.940442"><ele>174.0</ele><time>2026-05-02T08:08:28.092Z</time></trkpt><trkpt lat="42.2669602" lon="13.9403535"><ele>174.0</ele><time>2026-05-02T08:08:29.096Z</time></trkpt><trkpt lat="42.2669245" lon="13.9402627"><ele>174.0</ele><time>2026-05-02T08:08:30.085Z</time></trkpt><trkpt lat="42.2668675" lon="13.9401258"><ele>174.0</ele><time>2026-05-02T08:08:32.08Z</time></trkpt><trkpt lat="42.266781" lon="13.9400794"><ele>174.0</ele><time>2026-05-02T08:08:34.086Z</time></trkpt><trkpt lat="42.2667042" lon="13.9401881"><ele>174.0</ele><time>2026-05-02T08:08:36.082Z</time></trkpt><trkpt lat="42.2666707" lon="13.940276"><ele>174.0</ele><time>2026-05-02T08:08:37.088Z</time></trkpt><trkpt lat="42.2666474" lon="13.940379"><ele>174.0</ele><time>2026-05-02T08:08:38.079Z</time></trkpt><trkpt lat="42.2666204" lon="13.9404946"><ele>174.0</ele><time>2026-05-02T08:08:39.086Z</time></trkpt><trkpt lat="42.2665738" lon="13.9406284"><ele>174.0</ele><time>2026-05-02T08:08:40.086Z</time></trkpt><trkpt lat="42.2665174" lon="13.9407647"><ele>174.0</ele><time>2026-05-02T08:08:41.087Z</time></trkpt><trkpt lat="42.2664702" lon="13.9408811"><ele>177.79999999999998</ele><time>2026-05-02T08:08:42.086Z</time></trkpt><trkpt lat="42.2664312" lon="13.9409996"><ele>181.6</ele><time>2026-05-02T08:08:43.089Z</time></trkpt><trkpt lat="42.2663929" lon="13.9411208"><ele>185.4</ele><time>2026-05-02T08:08:44.091Z</time></trkpt><trkpt lat="42.2663561" lon="13.9412384"><ele>189.2</ele><time>2026-05-02T08:08:45.088Z</time></trkpt><trkpt lat="42.2663195" lon="13.9413553"><ele>193.0</ele><time>2026-05-02T08:08:46.087Z</time></trkpt><trkpt lat="42.2662875" lon="13.9414724"><ele>192.99999999999997</ele><time>2026-05-02T08:08:47.09Z</time></trkpt><trkpt lat="42.2662632" lon="13.9415831"><ele>193.0</ele><time>2026-05-02T08:08:48.084Z</time></trkpt><trkpt lat="42.2662649" lon="13.941694"><ele>193.0</ele><time>2026-05-02T08:08:49.085Z</time></trkpt><trkpt lat="42.2662812" lon="13.941797"><ele>193.0</ele><time>2026-05-02T08:08:50.086Z</time></trkpt><trkpt lat="42.2663026" lon="13.9419092"><ele>192.99999999999997</ele><time>2026-05-02T08:08:51.087Z</time></trkpt><trkpt lat="42.2663288" lon="13.9420291"><ele>193.0</ele><time>2026-05-02T08:08:52.09Z</time></trkpt><trkpt lat="42.2663487" lon="13.9421398"><ele>193.49999999999997</ele><time>2026-05-02T08:08:53.087Z</time></trkpt><trkpt lat="42.2663658" lon="13.9422533"><ele>194.0</ele><time>2026-05-02T08:08:54.092Z</time></trkpt><trkpt lat="42.2663843" lon="13.9423732"><ele>194.5</ele><time>2026-05-02T08:08:55.09Z</time></trkpt><trkpt lat="42.2664032" lon="13.9424922"><ele>195.0</ele><time>2026-05-02T08:08:56.089Z</time></trkpt><trkpt lat="42.2664204" lon="13.9426069"><ele>195.49999999999997</ele><time>2026-05-02T08:08:57.086Z</time></trkpt><trkpt lat="42.2664358" lon="13.9427152"><ele>196.0</ele><time>2026-05-02T08:08:58.089Z</time></trkpt><trkpt lat="42.2664519" lon="13.9428095"><ele>195.99999999999997</ele><time>2026-05-02T08:08:59.091Z</time></trkpt><trkpt lat="42.2664671" lon="13.942904"><ele>196.0</ele><time>2026-05-02T08:09:00.087Z</time></trkpt><trkpt lat="42.2664856" lon="13.9430649"><ele>196.0</ele><time>2026-05-02T08:09:02.085Z</time></trkpt><trkpt lat="42.2665031" lon="13.9431825"><ele>196.0</ele><time>2026-05-02T08:09:04.087Z</time></trkpt><trkpt lat="42.2664939" lon="13.9432768"><ele>195.99999999999997</ele><time>2026-05-02T08:09:06.084Z</time></trkpt><trkpt lat="42.2664158" lon="13.9433196"><ele>196.0</ele><time>2026-05-02T08:09:09.088Z</time></trkpt><trkpt lat="42.2663145" lon="13.9433134"><ele>196.0</ele><time>2026-05-02T08:09:11.087Z</time></trkpt><trkpt lat="42.2662414" lon="13.9433072"><ele>196.0</ele><time>2026-05-02T08:09:12.089Z</time></trkpt><trkpt lat="42.2661583" lon="13.9433093"><ele>196.0</ele><time>2026-05-02T08:09:13.09Z</time></trkpt><trkpt lat="42.2660701" lon="13.9433108"><ele>196.0</ele><time>2026-05-02T08:09:14.093Z</time></trkpt><trkpt lat="42.2659637" lon="13.9433204"><ele>196.0</ele><time>2026-05-02T08:09:15.09Z</time></trkpt><trkpt lat="42.2658571" lon="13.9433253"><ele>196.0</ele><time>2026-05-02T08:09:16.09Z</time></trkpt><trkpt lat="42.2657545" lon="13.9433199"><ele>196.0</ele><time>2026-05-02T08:09:17.093Z</time></trkpt><trkpt lat="42.2656692" lon="13.9432979"><ele>196.0</ele><time>2026-05-02T08:09:18.087Z</time></trkpt><trkpt lat="42.2656008" lon="13.9432513"><ele>196.0</ele><time>2026-05-02T08:09:19.084Z</time></trkpt><trkpt lat="42.2655318" lon="13.9431819"><ele>196.0</ele><time>2026-05-02T08:09:20.084Z</time></trkpt><trkpt lat="42.265457" lon="13.9430919"><ele>195.33333333333331</ele><time>2026-05-02T08:09:21.086Z</time></trkpt><trkpt lat="42.2653872" lon="13.9430136"><ele>194.66666666666666</ele><time>2026-05-02T08:09:22.09Z</time></trkpt><trkpt lat="42.2653247" lon="13.9429376"><ele>194.0</ele><time>2026-05-02T08:09:23.086Z</time></trkpt><trkpt lat="42.2652876" lon="13.9428653"><ele>193.33333333333331</ele><time>2026-05-02T08:09:24.084Z</time></trkpt><trkpt lat="42.2652572" lon="13.9427817"><ele>192.66666666666666</ele><time>2026-05-02T08:09:25.086Z</time></trkpt><trkpt lat="42.265234" lon="13.9426881"><ele>192.0</ele><time>2026-05-02T08:09:26.084Z</time></trkpt><trkpt lat="42.2652116" lon="13.9425967"><ele>194.14285714285714</ele><time>2026-05-02T08:09:27.084Z</time></trkpt><trkpt lat="42.2651789" lon="13.9425047"><ele>196.28571428571428</ele><time>2026-05-02T08:09:28.091Z</time></trkpt><trkpt lat="42.2651477" lon="13.9424137"><ele>198.42857142857144</ele><time>2026-05-02T08:09:29.1Z</time></trkpt><trkpt lat="42.2651205" lon="13.9423227"><ele>200.57142857142856</ele><time>2026-05-02T08:09:30.089Z</time></trkpt><trkpt lat="42.2650934" lon="13.942227"><ele>202.71428571428572</ele><time>2026-05-02T08:09:31.094Z</time></trkpt><trkpt lat="42.2650663" lon="13.9421373"><ele>204.85714285714286</ele><time>2026-05-02T08:09:32.09Z</time></trkpt><trkpt lat="42.2650385" lon="13.9420555"><ele>207.0</ele><time>2026-05-02T08:09:33.094Z</time></trkpt><trkpt lat="42.2650105" lon="13.9419706"><ele>207.0</ele><time>2026-05-02T08:09:34.091Z</time></trkpt><trkpt lat="42.2649795" lon="13.9418799"><ele>207.0</ele><time>2026-05-02T08:09:35.089Z</time></trkpt><trkpt lat="42.2649365" lon="13.9417813"><ele>207.0</ele><time>2026-05-02T08:09:36.089Z</time></trkpt><trkpt lat="42.2648824" lon="13.9416707"><ele>207.0</ele><time>2026-05-02T08:09:37.096Z</time></trkpt><trkpt lat="42.2648365" lon="13.9415785"><ele>207.0</ele><time>2026-05-02T08:09:38.086Z</time></trkpt><trkpt lat="42.2648043" lon="13.9414985"><ele>207.0</ele><time>2026-05-02T08:09:39.09Z</time></trkpt><trkpt lat="42.2647774" lon="13.9414109"><ele>207.42857142857144</ele><time>2026-05-02T08:09:40.087Z</time></trkpt><trkpt lat="42.2647586" lon="13.9413008"><ele>207.85714285714286</ele><time>2026-05-02T08:09:41.088Z</time></trkpt><trkpt lat="42.2647417" lon="13.9412035"><ele>208.28571428571428</ele><time>2026-05-02T08:09:42.091Z</time></trkpt><trkpt lat="42.2647345" lon="13.9411179"><ele>208.71428571428572</ele><time>2026-05-02T08:09:43.089Z</time></trkpt><trkpt lat="42.2647369" lon="13.9410291"><ele>209.14285714285714</ele><time>2026-05-02T08:09:44.094Z</time></trkpt><trkpt lat="42.2647396" lon="13.9409238"><ele>209.57142857142858</ele><time>2026-05-02T08:09:45.091Z</time></trkpt><trkpt lat="42.2647312" lon="13.9408146"><ele>210.0</ele><time>2026-05-02T08:09:46.092Z</time></trkpt><trkpt lat="42.2647165" lon="13.9407113"><ele>212.0</ele><time>2026-05-02T08:09:47.096Z</time></trkpt><trkpt lat="42.2646971" lon="13.9406009"><ele>214.0</ele><time>2026-05-02T08:09:48.095Z</time></trkpt><trkpt lat="42.2646742" lon="13.9404861"><ele>216.0</ele><time>2026-05-02T08:09:49.095Z</time></trkpt><trkpt lat="42.2646463" lon="13.9403712"><ele>218.0</ele><time>2026-05-02T08:09:50.09Z</time></trkpt><trkpt lat="42.2646212" lon="13.9402532"><ele>220.0</ele><time>2026-05-02T08:09:51.093Z</time></trkpt><trkpt lat="42.2645986" lon="13.9401266"><ele>222.0</ele><time>2026-05-02T08:09:52.09Z</time></trkpt><trkpt lat="42.2645824" lon="13.9399946"><ele>223.0</ele><time>2026-05-02T08:09:53.086Z</time></trkpt><trkpt lat="42.2645655" lon="13.9398624"><ele>224.0</ele><time>2026-05-02T08:09:54.084Z</time></trkpt><trkpt lat="42.2645469" lon="13.9397311"><ele>225.0</ele><time>2026-05-02T08:09:55.083Z</time></trkpt><trkpt lat="42.2645266" lon="13.9396083"><ele>226.0</ele><time>2026-05-02T08:09:56.086Z</time></trkpt><trkpt lat="42.2645013" lon="13.9394838"><ele>227.0</ele><time>2026-05-02T08:09:57.089Z</time></trkpt><trkpt lat="42.2644677" lon="13.9393499"><ele>227.00000000000003</ele><time>2026-05-02T08:09:58.085Z</time></trkpt><trkpt lat="42.2644276" lon="13.9392304"><ele>227.0</ele><time>2026-05-02T08:09:59.092Z</time></trkpt><trkpt lat="42.2643899" lon="13.9391222"><ele>227.0</ele><time>2026-05-02T08:10:00.086Z</time></trkpt><trkpt lat="42.2643512" lon="13.9390213"><ele>227.0</ele><time>2026-05-02T08:10:01.093Z</time></trkpt><trkpt lat="42.2643023" lon="13.9389248"><ele>227.00000000000003</ele><time>2026-05-02T08:10:02.088Z</time></trkpt><trkpt lat="42.2642475" lon="13.9388435"><ele>227.0</ele><time>2026-05-02T08:10:03.09Z</time></trkpt><trkpt lat="42.2641849" lon="13.9387595"><ele>225.39999999999998</ele><time>2026-05-02T08:10:04.089Z</time></trkpt><trkpt lat="42.2641166" lon="13.9386713"><ele>223.79999999999998</ele><time>2026-05-02T08:10:05.086Z</time></trkpt><trkpt lat="42.2640558" lon="13.9385828"><ele>222.2</ele><time>2026-05-02T08:10:06.09Z</time></trkpt><trkpt lat="42.2639928" lon="13.9385002"><ele>220.6</ele><time>2026-05-02T08:10:07.1Z</time></trkpt><trkpt lat="42.2639175" lon="13.9384117"><ele>219.0</ele><time>2026-05-02T08:10:08.087Z</time></trkpt><trkpt lat="42.263835" lon="13.9383185"><ele>223.0</ele><time>2026-05-02T08:10:09.098Z</time></trkpt><trkpt lat="42.2637631" lon="13.9382336"><ele>226.99999999999997</ele><time>2026-05-02T08:10:10.09Z</time></trkpt><trkpt lat="42.2636962" lon="13.9381404"><ele>230.99999999999997</ele><time>2026-05-02T08:10:11.092Z</time></trkpt><trkpt lat="42.263632" lon="13.9380378"><ele>235.0</ele><time>2026-05-02T08:10:12.091Z</time></trkpt><trkpt lat="42.2635727" lon="13.937922"><ele>239.0</ele><time>2026-05-02T08:10:13.097Z</time></trkpt><trkpt lat="42.263512" lon="13.9377967"><ele>239.0</ele><time>2026-05-02T08:10:14.091Z</time></trkpt><trkpt lat="42.2634571" lon="13.9376788"><ele>238.99999999999997</ele><time>2026-05-02T08:10:15.094Z</time></trkpt><trkpt lat="42.2634142" lon="13.9375584"><ele>238.99999999999997</ele><time>2026-05-02T08:10:16.086Z</time></trkpt><trkpt lat="42.2633721" lon="13.9374252"><ele>239.0</ele><time>2026-05-02T08:10:17.092Z</time></trkpt><trkpt lat="42.2633401" lon="13.9372876"><ele>239.0</ele><time>2026-05-02T08:10:18.094Z</time></trkpt><trkpt lat="42.263316" lon="13.9371432"><ele>242.79999999999998</ele><time>2026-05-02T08:10:19.098Z</time></trkpt><trkpt lat="42.263297" lon="13.9369894"><ele>246.59999999999997</ele><time>2026-05-02T08:10:20.093Z</time></trkpt><trkpt lat="42.263276" lon="13.9368432"><ele>250.4</ele><time>2026-05-02T08:10:21.095Z</time></trkpt><trkpt lat="42.2632571" lon="13.936723"><ele>254.2</ele><time>2026-05-02T08:10:22.095Z</time></trkpt><trkpt lat="42.2632328" lon="13.9366275"><ele>258.0</ele><time>2026-05-02T08:10:23.088Z</time></trkpt><trkpt lat="42.2631923" lon="13.9365452"><ele>259.1666666666667</ele><time>2026-05-02T08:10:24.091Z</time></trkpt><trkpt lat="42.2631416" lon="13.9364755"><ele>260.3333333333333</ele><time>2026-05-02T08:10:25.092Z</time></trkpt><trkpt lat="42.2630891" lon="13.9364272"><ele>261.5</ele><time>2026-05-02T08:10:26.093Z</time></trkpt><trkpt lat="42.2630246" lon="13.9363959"><ele>262.66666666666663</ele><time>2026-05-02T08:10:27.091Z</time></trkpt><trkpt lat="42.2629437" lon="13.9363886"><ele>263.8333333333333</ele><time>2026-05-02T08:10:28.097Z</time></trkpt><trkpt lat="42.2628495" lon="13.9363914"><ele>265.0</ele><time>2026-05-02T08:10:29.092Z</time></trkpt><trkpt lat="42.2627642" lon="13.9363829"><ele>265.0</ele><time>2026-05-02T08:10:30.089Z</time></trkpt><trkpt lat="42.2626927" lon="13.9363468"><ele>265.0</ele><time>2026-05-02T08:10:31.088Z</time></trkpt><trkpt lat="42.2626356" lon="13.9362991"><ele>265.0</ele><time>2026-05-02T08:10:32.094Z</time></trkpt><trkpt lat="42.2625769" lon="13.9362414"><ele>265.0</ele><time>2026-05-02T08:10:33.093Z</time></trkpt><trkpt lat="42.2625112" lon="13.936166"><ele>265.0</ele><time>2026-05-02T08:10:34.093Z</time></trkpt><trkpt lat="42.2624416" lon="13.936076"><ele>265.0</ele><time>2026-05-02T08:10:35.091Z</time></trkpt><trkpt lat="42.2623711" lon="13.9359825"><ele>265.0</ele><time>2026-05-02T08:10:36.092Z</time></trkpt><trkpt lat="42.2623039" lon="13.9358924"><ele>265.0</ele><time>2026-05-02T08:10:37.093Z</time></trkpt><trkpt lat="42.262227" lon="13.9357912"><ele>265.0</ele><time>2026-05-02T08:10:38.089Z</time></trkpt><trkpt lat="42.2621619" lon="13.9357026"><ele>265.0</ele><time>2026-05-02T08:10:39.097Z</time></trkpt><trkpt lat="42.2621108" lon="13.9356245"><ele>265.0</ele><time>2026-05-02T08:10:40.088Z</time></trkpt><trkpt lat="42.262075" lon="13.9355481"><ele>265.0</ele><time>2026-05-02T08:10:41.091Z</time></trkpt><trkpt lat="42.2620693" lon="13.9353959"><ele>267.0</ele><time>2026-05-02T08:10:43.088Z</time></trkpt><trkpt lat="42.2620882" lon="13.9352873"><ele>269.0</ele><time>2026-05-02T08:10:44.091Z</time></trkpt><trkpt lat="42.2621021" lon="13.9351573"><ele>271.0</ele><time>2026-05-02T08:10:45.099Z</time></trkpt><trkpt lat="42.262113" lon="13.9350305"><ele>273.0</ele><time>2026-05-02T08:10:46.084Z</time></trkpt><trkpt lat="42.262114" lon="13.9349011"><ele>275.0</ele><time>2026-05-02T08:10:47.099Z</time></trkpt><trkpt lat="42.2621156" lon="13.9347715"><ele>276.1666666666667</ele><time>2026-05-02T08:10:48.094Z</time></trkpt><trkpt lat="42.2621154" lon="13.9346432"><ele>277.33333333333337</ele><time>2026-05-02T08:10:49.098Z</time></trkpt><trkpt lat="42.2621158" lon="13.9345371"><ele>278.5</ele><time>2026-05-02T08:10:50.096Z</time></trkpt><trkpt lat="42.26212" lon="13.9344431"><ele>279.6666666666667</ele><time>2026-05-02T08:10:51.096Z</time></trkpt><trkpt lat="42.2621215" lon="13.9343495"><ele>280.8333333333333</ele><time>2026-05-02T08:10:52.1Z</time></trkpt><trkpt lat="42.2621178" lon="13.9342543"><ele>282.0</ele><time>2026-05-02T08:10:53.091Z</time></trkpt><trkpt lat="42.2621073" lon="13.9341637"><ele>283.4</ele><time>2026-05-02T08:10:54.092Z</time></trkpt><trkpt lat="42.2620562" lon="13.9340554"><ele>284.79999999999995</ele><time>2026-05-02T08:10:56.089Z</time></trkpt><trkpt lat="42.2619819" lon="13.9340364"><ele>286.2</ele><time>2026-05-02T08:10:58.099Z</time></trkpt><trkpt lat="42.2618897" lon="13.9340611"><ele>287.59999999999997</ele><time>2026-05-02T08:11:00.086Z</time></trkpt><trkpt lat="42.2617704" lon="13.9340672"><ele>289.0</ele><time>2026-05-02T08:11:02.084Z</time></trkpt><trkpt lat="42.261699" lon="13.9340469"><ele>289.0</ele><time>2026-05-02T08:11:03.074Z</time></trkpt><trkpt lat="42.2616094" lon="13.9340266"><ele>289.0</ele><time>2026-05-02T08:11:04.072Z</time></trkpt><trkpt lat="42.2615029" lon="13.9339906"><ele>289.0</ele><time>2026-05-02T08:11:05.077Z</time></trkpt><trkpt lat="42.2613851" lon="13.9339432"><ele>289.0</ele><time>2026-05-02T08:11:06.085Z</time></trkpt><trkpt lat="42.261266" lon="13.9338887"><ele>289.0</ele><time>2026-05-02T08:11:07.081Z</time></trkpt><trkpt lat="42.2611493" lon="13.9338312"><ele>287.59999999999997</ele><time>2026-05-02T08:11:08.085Z</time></trkpt><trkpt lat="42.2610393" lon="13.9337746"><ele>286.2</ele><time>2026-05-02T08:11:09.081Z</time></trkpt><trkpt lat="42.2609348" lon="13.9337239"><ele>284.79999999999995</ele><time>2026-05-02T08:11:10.085Z</time></trkpt><trkpt lat="42.2608357" lon="13.9336744"><ele>283.4</ele><time>2026-05-02T08:11:11.083Z</time></trkpt><trkpt lat="42.2607467" lon="13.9336293"><ele>282.0</ele><time>2026-05-02T08:11:12.083Z</time></trkpt><trkpt lat="42.2606684" lon="13.9335908"><ele>282.4</ele><time>2026-05-02T08:11:13.083Z</time></trkpt><trkpt lat="42.2605832" lon="13.9335406"><ele>282.79999999999995</ele><time>2026-05-02T08:11:14.085Z</time></trkpt><trkpt lat="42.2604833" lon="13.9334913"><ele>283.2</ele><time>2026-05-02T08:11:15.079Z</time></trkpt><trkpt lat="42.2603702" lon="13.9334679"><ele>283.59999999999997</ele><time>2026-05-02T08:11:16.081Z</time></trkpt><trkpt lat="42.2602605" lon="13.9334676"><ele>284.0</ele><time>2026-05-02T08:11:17.085Z</time></trkpt><trkpt lat="42.2601481" lon="13.9334772"><ele>284.0</ele><time>2026-05-02T08:11:18.086Z</time></trkpt><trkpt lat="42.2600385" lon="13.9334915"><ele>284.0</ele><time>2026-05-02T08:11:19.091Z</time></trkpt><trkpt lat="42.2599264" lon="13.9335098"><ele>284.0</ele><time>2026-05-02T08:11:20.091Z</time></trkpt><trkpt lat="42.2598181" lon="13.9335167"><ele>284.0</ele><time>2026-05-02T08:11:21.09Z</time></trkpt><trkpt lat="42.2597126" lon="13.9335135"><ele>284.0</ele><time>2026-05-02T08:11:22.092Z</time></trkpt><trkpt lat="42.2596099" lon="13.9335171"><ele>283.0</ele><time>2026-05-02T08:11:23.092Z</time></trkpt><trkpt lat="42.2595147" lon="13.9335077"><ele>282.0</ele><time>2026-05-02T08:11:24.093Z</time></trkpt><trkpt lat="42.2594236" lon="13.9334756"><ele>281.0</ele><time>2026-05-02T08:11:25.091Z</time></trkpt><trkpt lat="42.2593413" lon="13.9334232"><ele>280.0</ele><time>2026-05-02T08:11:26.096Z</time></trkpt><trkpt lat="42.2592636" lon="13.9333579"><ele>279.0</ele><time>2026-05-02T08:11:27.096Z</time></trkpt><trkpt lat="42.2591794" lon="13.9332926"><ele>282.0</ele><time>2026-05-02T08:11:28.096Z</time></trkpt><trkpt lat="42.2590905" lon="13.933225"><ele>285.0</ele><time>2026-05-02T08:11:29.09Z</time></trkpt><trkpt lat="42.2590023" lon="13.9331618"><ele>288.0</ele><time>2026-05-02T08:11:30.088Z</time></trkpt><trkpt lat="42.2589095" lon="13.9331087"><ele>291.0</ele><time>2026-05-02T08:11:31.087Z</time></trkpt><trkpt lat="42.2588094" lon="13.9330651"><ele>294.0</ele><time>2026-05-02T08:11:32.084Z</time></trkpt><trkpt lat="42.2587043" lon="13.9330334"><ele>294.0</ele><time>2026-05-02T08:11:33.087Z</time></trkpt><trkpt lat="42.258595" lon="13.9330192"><ele>294.0</ele><time>2026-05-02T08:11:34.084Z</time></trkpt><trkpt lat="42.258485" lon="13.9330193"><ele>294.0</ele><time>2026-05-02T08:11:35.084Z</time></trkpt><trkpt lat="42.2583804" lon="13.9330306"><ele>294.0</ele><time>2026-05-02T08:11:36.085Z</time></trkpt><trkpt lat="42.2582952" lon="13.9330494"><ele>294.0</ele><time>2026-05-02T08:11:37.097Z</time></trkpt><trkpt lat="42.2582098" lon="13.9330671"><ele>295.0</ele><time>2026-05-02T08:11:38.09Z</time></trkpt><trkpt lat="42.2581126" lon="13.9330827"><ele>296.0</ele><time>2026-05-02T08:11:39.097Z</time></trkpt><trkpt lat="42.2580076" lon="13.933096"><ele>297.0</ele><time>2026-05-02T08:11:40.093Z</time></trkpt><trkpt lat="42.2578937" lon="13.9330996"><ele>298.0</ele><time>2026-05-02T08:11:41.094Z</time></trkpt><trkpt lat="42.2577868" lon="13.9330903"><ele>299.0</ele><time>2026-05-02T08:11:42.093Z</time></trkpt><trkpt lat="42.2576826" lon="13.9330828"><ele>299.0</ele><time>2026-05-02T08:11:43.102Z</time></trkpt><trkpt lat="42.257575" lon="13.9330912"><ele>299.0</ele><time>2026-05-02T08:11:44.093Z</time></trkpt><trkpt lat="42.2574627" lon="13.9331203"><ele>299.0</ele><time>2026-05-02T08:11:45.094Z</time></trkpt><trkpt lat="42.2573456" lon="13.9331605"><ele>299.0</ele><time>2026-05-02T08:11:46.093Z</time></trkpt><trkpt lat="42.2572313" lon="13.9331895"><ele>300.25</ele><time>2026-05-02T08:11:47.099Z</time></trkpt><trkpt lat="42.2571133" lon="13.9332202"><ele>301.5</ele><time>2026-05-02T08:11:48.101Z</time></trkpt><trkpt lat="42.256993" lon="13.9332518"><ele>302.75</ele><time>2026-05-02T08:11:49.097Z</time></trkpt><trkpt lat="42.2568809" lon="13.9332951"><ele>304.0</ele><time>2026-05-02T08:11:50.098Z</time></trkpt><trkpt lat="42.2567733" lon="13.933339"><ele>304.0</ele><time>2026-05-02T08:11:51.098Z</time></trkpt><trkpt lat="42.2566626" lon="13.9333593"><ele>304.0</ele><time>2026-05-02T08:11:52.096Z</time></trkpt><trkpt lat="42.2565532" lon="13.9333544"><ele>304.0</ele><time>2026-05-02T08:11:53.096Z</time></trkpt><trkpt lat="42.2564411" lon="13.933328"><ele>304.0</ele><time>2026-05-02T08:11:54.098Z</time></trkpt><trkpt lat="42.2563346" lon="13.9332912"><ele>304.0</ele><time>2026-05-02T08:11:55.099Z</time></trkpt><trkpt lat="42.2562317" lon="13.933242"><ele>303.8</ele><time>2026-05-02T08:11:56.101Z</time></trkpt><trkpt lat="42.2561226" lon="13.9331903"><ele>303.59999999999997</ele><time>2026-05-02T08:11:57.098Z</time></trkpt><trkpt lat="42.2560264" lon="13.9331428"><ele>303.4</ele><time>2026-05-02T08:11:58.101Z</time></trkpt><trkpt lat="42.2559461" lon="13.9331093"><ele>303.2</ele><time>2026-05-02T08:11:59.104Z</time></trkpt><trkpt lat="42.2558717" lon="13.933081"><ele>303.0</ele><time>2026-05-02T08:12:00.097Z</time></trkpt><trkpt lat="42.2557928" lon="13.9330425"><ele>303.0</ele><time>2026-05-02T08:12:01.104Z</time></trkpt><trkpt lat="42.2557165" lon="13.9330024"><ele>303.0</ele><time>2026-05-02T08:12:02.092Z</time></trkpt><trkpt lat="42.2556521" lon="13.9329408"><ele>303.0</ele><time>2026-05-02T08:12:03.092Z</time></trkpt><trkpt lat="42.2556143" lon="13.9328493"><ele>303.0</ele><time>2026-05-02T08:12:04.089Z</time></trkpt><trkpt lat="42.2555956" lon="13.9327202"><ele>303.0</ele><time>2026-05-02T08:12:05.092Z</time></trkpt><trkpt lat="42.2555966" lon="13.9325636"><ele>300.0</ele><time>2026-05-02T08:12:06.088Z</time></trkpt><trkpt lat="42.2556025" lon="13.9324122"><ele>297.0</ele><time>2026-05-02T08:12:07.088Z</time></trkpt><trkpt lat="42.2555879" lon="13.9322564"><ele>294.0</ele><time>2026-05-02T08:12:08.079Z</time></trkpt><trkpt lat="42.2555464" lon="13.9321105"><ele>291.0</ele><time>2026-05-02T08:12:09.076Z</time></trkpt><trkpt lat="42.2554889" lon="13.9319942"><ele>288.0</ele><time>2026-05-02T08:12:10.077Z</time></trkpt><trkpt lat="42.2554198" lon="13.9318802"><ele>288.0</ele><time>2026-05-02T08:12:11.081Z</time></trkpt><trkpt lat="42.2553354" lon="13.9317881"><ele>288.0</ele><time>2026-05-02T08:12:12.077Z</time></trkpt><trkpt lat="42.2552379" lon="13.9317196"><ele>288.0</ele><time>2026-05-02T08:12:13.08Z</time></trkpt><trkpt lat="42.2551231" lon="13.9316702"><ele>288.0</ele><time>2026-05-02T08:12:14.073Z</time></trkpt><trkpt lat="42.2549987" lon="13.9316381"><ele>288.6</ele><time>2026-05-02T08:12:15.09Z</time></trkpt><trkpt lat="42.2548833" lon="13.9316082"><ele>289.20000000000005</ele><time>2026-05-02T08:12:16.073Z</time></trkpt><trkpt lat="42.2547875" lon="13.9315515"><ele>289.8</ele><time>2026-05-02T08:12:17.074Z</time></trkpt><trkpt lat="42.2547112" lon="13.9314683"><ele>290.40000000000003</ele><time>2026-05-02T08:12:18.076Z</time></trkpt><trkpt lat="42.2546429" lon="13.9314166"><ele>291.0</ele><time>2026-05-02T08:12:19.088Z</time></trkpt><trkpt lat="42.2545745" lon="13.9314075"><ele>291.0</ele><time>2026-05-02T08:12:20.08Z</time></trkpt><trkpt lat="42.2544995" lon="13.9314235"><ele>291.0</ele><time>2026-05-02T08:12:21.082Z</time></trkpt><trkpt lat="42.2544021" lon="13.9314603"><ele>291.0</ele><time>2026-05-02T08:12:22.084Z</time></trkpt><trkpt lat="42.2542822" lon="13.9315032"><ele>291.0</ele><time>2026-05-02T08:12:23.085Z</time></trkpt><trkpt lat="42.2541463" lon="13.9315479"><ele>291.0</ele><time>2026-05-02T08:12:24.081Z</time></trkpt><trkpt lat="42.2540146" lon="13.931582"><ele>290.25</ele><time>2026-05-02T08:12:25.085Z</time></trkpt><trkpt lat="42.2538918" lon="13.9316094"><ele>289.5</ele><time>2026-05-02T08:12:26.086Z</time></trkpt><trkpt lat="42.2537672" lon="13.9316112"><ele>288.75</ele><time>2026-05-02T08:12:27.079Z</time></trkpt><trkpt lat="42.2536445" lon="13.9315962"><ele>288.0</ele><time>2026-05-02T08:12:28.088Z</time></trkpt><trkpt lat="42.2535313" lon="13.9315574"><ele>288.0</ele><time>2026-05-02T08:12:29.077Z</time></trkpt><trkpt lat="42.2534293" lon="13.9314891"><ele>288.0</ele><time>2026-05-02T08:12:30.084Z</time></trkpt><trkpt lat="42.2533281" lon="13.9313967"><ele>288.0</ele><time>2026-05-02T08:12:31.082Z</time></trkpt><trkpt lat="42.2532123" lon="13.9313091"><ele>288.0</ele><time>2026-05-02T08:12:32.08Z</time></trkpt><trkpt lat="42.2530946" lon="13.9312377"><ele>286.8</ele><time>2026-05-02T08:12:33.079Z</time></trkpt><trkpt lat="42.2529866" lon="13.9311909"><ele>285.6</ele><time>2026-05-02T08:12:34.082Z</time></trkpt><trkpt lat="42.2528856" lon="13.9311529"><ele>284.4</ele><time>2026-05-02T08:12:35.079Z</time></trkpt><trkpt lat="42.2527908" lon="13.9311307"><ele>283.2</ele><time>2026-05-02T08:12:36.079Z</time></trkpt><trkpt lat="42.2527006" lon="13.9311092"><ele>282.0</ele><time>2026-05-02T08:12:37.089Z</time></trkpt><trkpt lat="42.25261" lon="13.931094"><ele>282.0</ele><time>2026-05-02T08:12:38.088Z</time></trkpt><trkpt lat="42.2525192" lon="13.9310784"><ele>282.0</ele><time>2026-05-02T08:12:39.092Z</time></trkpt><trkpt lat="42.2524331" lon="13.9310559"><ele>282.0</ele><time>2026-05-02T08:12:40.09Z</time></trkpt><trkpt lat="42.2523585" lon="13.9310118"><ele>282.0</ele><time>2026-05-02T08:12:41.083Z</time></trkpt><trkpt lat="42.2522951" lon="13.9309475"><ele>282.0</ele><time>2026-05-02T08:12:42.083Z</time></trkpt><trkpt lat="42.2522541" lon="13.9308511"><ele>282.0</ele><time>2026-05-02T08:12:43.087Z</time></trkpt><trkpt lat="42.2522368" lon="13.9307238"><ele>280.6</ele><time>2026-05-02T08:12:44.084Z</time></trkpt><trkpt lat="42.2522252" lon="13.9305859"><ele>279.2</ele><time>2026-05-02T08:12:45.09Z</time></trkpt><trkpt lat="42.2522139" lon="13.9304547"><ele>277.8</ele><time>2026-05-02T08:12:46.085Z</time></trkpt><trkpt lat="42.2521819" lon="13.9303326"><ele>276.4</ele><time>2026-05-02T08:12:47.087Z</time></trkpt><trkpt lat="42.252134" lon="13.9302248"><ele>275.0</ele><time>2026-05-02T08:12:48.088Z</time></trkpt><trkpt lat="42.2520748" lon="13.930127"><ele>275.0</ele><time>2026-05-02T08:12:49.085Z</time></trkpt><trkpt lat="42.252013" lon="13.9300304"><ele>275.0</ele><time>2026-05-02T08:12:50.079Z</time></trkpt><trkpt lat="42.2519429" lon="13.9299527"><ele>275.0</ele><time>2026-05-02T08:12:51.084Z</time></trkpt><trkpt lat="42.2518672" lon="13.9298927"><ele>275.0</ele><time>2026-05-02T08:12:52.081Z</time></trkpt><trkpt lat="42.2517786" lon="13.9298604"><ele>275.0</ele><time>2026-05-02T08:12:53.084Z</time></trkpt><trkpt lat="42.2516768" lon="13.9298448"><ele>275.0</ele><time>2026-05-02T08:12:54.078Z</time></trkpt><trkpt lat="42.2515761" lon="13.9298275"><ele>275.0</ele><time>2026-05-02T08:12:55.092Z</time></trkpt><trkpt lat="42.2514713" lon="13.9298034"><ele>275.0</ele><time>2026-05-02T08:12:56.078Z</time></trkpt><trkpt lat="42.2513828" lon="13.9297632"><ele>275.0</ele><time>2026-05-02T08:12:57.087Z</time></trkpt><trkpt lat="42.2513146" lon="13.9297086"><ele>275.0</ele><time>2026-05-02T08:12:58.079Z</time></trkpt><trkpt lat="42.2512579" lon="13.9296502"><ele>271.2</ele><time>2026-05-02T08:12:59.081Z</time></trkpt><trkpt lat="42.2511348" lon="13.9296372"><ele>267.4</ele><time>2026-05-02T08:13:01.093Z</time></trkpt><trkpt lat="42.2510753" lon="13.9296937"><ele>263.6</ele><time>2026-05-02T08:13:02.083Z</time></trkpt><trkpt lat="42.2510316" lon="13.9297691"><ele>259.8</ele><time>2026-05-02T08:13:03.089Z</time></trkpt><trkpt lat="42.2509556" lon="13.929872"><ele>256.0</ele><time>2026-05-02T08:13:05.085Z</time></trkpt><trkpt lat="42.2508723" lon="13.9298095"><ele>255.99999999999997</ele><time>2026-05-02T08:13:07.084Z</time></trkpt><trkpt lat="42.250877" lon="13.9296726"><ele>256.0</ele><time>2026-05-02T08:13:09.076Z</time></trkpt><trkpt lat="42.2509216" lon="13.9295978"><ele>256.0</ele><time>2026-05-02T08:13:10.078Z</time></trkpt><trkpt lat="42.2509749" lon="13.9295128"><ele>256.0</ele><time>2026-05-02T08:13:11.082Z</time></trkpt><trkpt lat="42.2510225" lon="13.9294147"><ele>255.99999999999997</ele><time>2026-05-02T08:13:12.072Z</time></trkpt><trkpt lat="42.2510636" lon="13.92931"><ele>256.0</ele><time>2026-05-02T08:13:13.086Z</time></trkpt><trkpt lat="42.2510973" lon="13.9292063"><ele>255.99999999999997</ele><time>2026-05-02T08:13:14.079Z</time></trkpt><trkpt lat="42.2511302" lon="13.9291068"><ele>256.0</ele><time>2026-05-02T08:13:15.084Z</time></trkpt><trkpt lat="42.2511575" lon="13.9290264"><ele>256.0</ele><time>2026-05-02T08:13:16.076Z</time></trkpt><trkpt lat="42.2511734" lon="13.9288909"><ele>256.0</ele><time>2026-05-02T08:13:18.075Z</time></trkpt><trkpt lat="42.2510938" lon="13.9288614"><ele>255.99999999999997</ele><time>2026-05-02T08:13:21.073Z</time></trkpt><trkpt lat="42.2510451" lon="13.9289573"><ele>256.0</ele><time>2026-05-02T08:13:25.081Z</time></trkpt><trkpt lat="42.2510072" lon="13.929028"><ele>256.0</ele><time>2026-05-02T08:13:28.085Z</time></trkpt><trkpt lat="42.2509672" lon="13.9291193"><ele>256.0</ele><time>2026-05-02T08:13:30.081Z</time></trkpt><trkpt lat="42.2509075" lon="13.9292113"><ele>256.0</ele><time>2026-05-02T08:13:32.079Z</time></trkpt><trkpt lat="42.2508096" lon="13.9293113"><ele>256.0</ele><time>2026-05-02T08:13:34.078Z</time></trkpt><trkpt lat="42.2507353" lon="13.9293739"><ele>256.0</ele><time>2026-05-02T08:13:35.073Z</time></trkpt><trkpt lat="42.2506749" lon="13.9294241"><ele>251.4</ele><time>2026-05-02T08:13:36.074Z</time></trkpt><trkpt lat="42.2505952" lon="13.9295238"><ele>246.8</ele><time>2026-05-02T08:13:38.083Z</time></trkpt><trkpt lat="42.2505302" lon="13.929654"><ele>242.20000000000002</ele><time>2026-05-02T08:13:40.079Z</time></trkpt><trkpt lat="42.2504964" lon="13.9297939"><ele>237.60000000000002</ele><time>2026-05-02T08:13:42.081Z</time></trkpt><trkpt lat="42.2504851" lon="13.9299409"><ele>233.0</ele><time>2026-05-02T08:13:44.083Z</time></trkpt><trkpt lat="42.2504938" lon="13.930091"><ele>232.50000000000003</ele><time>2026-05-02T08:13:46.082Z</time></trkpt><trkpt lat="42.2505133" lon="13.930174"><ele>232.0</ele><time>2026-05-02T08:13:47.09Z</time></trkpt><trkpt lat="42.2505416" lon="13.9302694"><ele>231.5</ele><time>2026-05-02T08:13:48.082Z</time></trkpt><trkpt lat="42.2505815" lon="13.930371"><ele>231.0</ele><time>2026-05-02T08:13:49.082Z</time></trkpt><trkpt lat="42.2506327" lon="13.9304652"><ele>230.50000000000003</ele><time>2026-05-02T08:13:50.082Z</time></trkpt><trkpt lat="42.250694" lon="13.9305563"><ele>230.0</ele><time>2026-05-02T08:13:51.081Z</time></trkpt><trkpt lat="42.2507502" lon="13.9306498"><ele>233.16666666666669</ele><time>2026-05-02T08:13:52.081Z</time></trkpt><trkpt lat="42.2507846" lon="13.9307483"><ele>236.33333333333334</ele><time>2026-05-02T08:13:53.076Z</time></trkpt><trkpt lat="42.2508003" lon="13.9308527"><ele>239.5</ele><time>2026-05-02T08:13:54.078Z</time></trkpt><trkpt lat="42.250798" lon="13.9309585"><ele>242.66666666666669</ele><time>2026-05-02T08:13:55.082Z</time></trkpt><trkpt lat="42.2507866" lon="13.9310732"><ele>245.83333333333334</ele><time>2026-05-02T08:13:56.083Z</time></trkpt><trkpt lat="42.2507675" lon="13.9311953"><ele>249.0</ele><time>2026-05-02T08:13:57.085Z</time></trkpt><trkpt lat="42.2507405" lon="13.9313297"><ele>249.2</ele><time>2026-05-02T08:13:58.083Z</time></trkpt><trkpt lat="42.2507091" lon="13.9314671"><ele>249.39999999999998</ele><time>2026-05-02T08:13:59.087Z</time></trkpt><trkpt lat="42.250663" lon="13.931602"><ele>249.6</ele><time>2026-05-02T08:14:00.077Z</time></trkpt><trkpt lat="42.2506096" lon="13.9317245"><ele>249.8</ele><time>2026-05-02T08:14:01.086Z</time></trkpt><trkpt lat="42.2505601" lon="13.9318376"><ele>250.0</ele><time>2026-05-02T08:14:02.081Z</time></trkpt><trkpt lat="42.2505171" lon="13.9319383"><ele>245.83333333333331</ele><time>2026-05-02T08:14:03.086Z</time></trkpt><trkpt lat="42.2504764" lon="13.9320381"><ele>241.66666666666666</ele><time>2026-05-02T08:14:04.078Z</time></trkpt><trkpt lat="42.2504335" lon="13.9321279"><ele>237.5</ele><time>2026-05-02T08:14:05.085Z</time></trkpt><trkpt lat="42.2503883" lon="13.9322158"><ele>233.33333333333331</ele><time>2026-05-02T08:14:06.078Z</time></trkpt><trkpt lat="42.2503465" lon="13.9323235"><ele>229.16666666666666</ele><time>2026-05-02T08:14:07.081Z</time></trkpt><trkpt lat="42.2503115" lon="13.9324322"><ele>225.0</ele><time>2026-05-02T08:14:08.081Z</time></trkpt><trkpt lat="42.2502911" lon="13.9325347"><ele>224.0</ele><time>2026-05-02T08:14:09.082Z</time></trkpt><trkpt lat="42.2502784" lon="13.9326254"><ele>223.0</ele><time>2026-05-02T08:14:10.075Z</time></trkpt><trkpt lat="42.2502598" lon="13.9327234"><ele>222.0</ele><time>2026-05-02T08:14:12.079Z</time></trkpt><trkpt lat="42.2502464" lon="13.9328528"><ele>221.0</ele><time>2026-05-02T08:14:15.086Z</time></trkpt><trkpt lat="42.2502799" lon="13.9329252"><ele>220.0</ele><time>2026-05-02T08:14:16.083Z</time></trkpt><trkpt lat="42.2503474" lon="13.9330087"><ele>219.0</ele><time>2026-05-02T08:14:17.087Z</time></trkpt><trkpt lat="42.2504402" lon="13.933098"><ele>219.0</ele><time>2026-05-02T08:14:18.083Z</time></trkpt><trkpt lat="42.2505363" lon="13.9331817"><ele>218.99999999999997</ele><time>2026-05-02T08:14:19.084Z</time></trkpt><trkpt lat="42.250634" lon="13.9332618"><ele>218.99999999999997</ele><time>2026-05-02T08:14:20.085Z</time></trkpt><trkpt lat="42.2507276" lon="13.933338"><ele>219.0</ele><time>2026-05-02T08:14:21.084Z</time></trkpt><trkpt lat="42.2508201" lon="13.9333996"><ele>219.0</ele><time>2026-05-02T08:14:22.089Z</time></trkpt><trkpt lat="42.2509261" lon="13.9334516"><ele>217.75</ele><time>2026-05-02T08:14:23.083Z</time></trkpt><trkpt lat="42.2510469" lon="13.9335032"><ele>216.5</ele><time>2026-05-02T08:14:24.085Z</time></trkpt><trkpt lat="42.2511809" lon="13.933564"><ele>215.25</ele><time>2026-05-02T08:14:25.087Z</time></trkpt><trkpt lat="42.2513196" lon="13.9336427"><ele>214.0</ele><time>2026-05-02T08:14:26.087Z</time></trkpt><trkpt lat="42.2514548" lon="13.9337437"><ele>217.5</ele><time>2026-05-02T08:14:27.079Z</time></trkpt><trkpt lat="42.2515829" lon="13.9338313"><ele>221.0</ele><time>2026-05-02T08:14:28.089Z</time></trkpt><trkpt lat="42.2517033" lon="13.9338963"><ele>224.5</ele><time>2026-05-02T08:14:29.086Z</time></trkpt><trkpt lat="42.2518366" lon="13.9339595"><ele>228.0</ele><time>2026-05-02T08:14:30.084Z</time></trkpt><trkpt lat="42.2519611" lon="13.9340233"><ele>228.0</ele><time>2026-05-02T08:14:31.085Z</time></trkpt><trkpt lat="42.252075" lon="13.934082"><ele>228.0</ele><time>2026-05-02T08:14:32.082Z</time></trkpt><trkpt lat="42.2521825" lon="13.9341388"><ele>228.0</ele><time>2026-05-02T08:14:33.083Z</time></trkpt><trkpt lat="42.2522826" lon="13.9341887"><ele>228.0</ele><time>2026-05-02T08:14:34.079Z</time></trkpt><trkpt lat="42.252367" lon="13.9342392"><ele>228.0</ele><time>2026-05-02T08:14:35.076Z</time></trkpt><trkpt lat="42.2524421" lon="13.9342956"><ele>230.42857142857142</ele><time>2026-05-02T08:14:36.073Z</time></trkpt><trkpt lat="42.2524973" lon="13.9343724"><ele>232.85714285714283</ele><time>2026-05-02T08:14:37.071Z</time></trkpt><trkpt lat="42.2525273" lon="13.934463"><ele>235.28571428571428</ele><time>2026-05-02T08:14:38.076Z</time></trkpt><trkpt lat="42.2525267" lon="13.9345599"><ele>237.71428571428572</ele><time>2026-05-02T08:14:39.075Z</time></trkpt><trkpt lat="42.2525052" lon="13.9346515"><ele>240.14285714285714</ele><time>2026-05-02T08:14:40.079Z</time></trkpt><trkpt lat="42.2524844" lon="13.9347452"><ele>242.57142857142856</ele><time>2026-05-02T08:14:50.082Z</time></trkpt><trkpt lat="42.2524721" lon="13.9348366"><ele>245.0</ele><time>2026-05-02T08:15:29.085Z</time></trkpt><trkpt lat="42.2524021" lon="13.9348173"><ele>245.0</ele><time>2026-05-02T08:17:36.09Z</time></trkpt><trkpt lat="42.2523363" lon="13.9347801"><ele>245.0</ele><time>2026-05-02T08:17:45.099Z</time></trkpt><trkpt lat="42.2522682" lon="13.93475"><ele>245.0</ele><time>2026-05-02T08:19:08.096Z</time></trkpt><trkpt lat="42.2521919" lon="13.9347371"><ele>245.0</ele><time>2026-05-02T08:19:13.099Z</time></trkpt><trkpt lat="42.2521223" lon="13.9347471"><ele>245.0</ele><time>2026-05-02T08:19:19.102Z</time></trkpt><trkpt lat="42.2520585" lon="13.9347502"><ele>245.0</ele><time>2026-05-02T08:19:23.104Z</time></trkpt><trkpt lat="42.2519851" lon="13.9347577"><ele>245.0</ele><time>2026-05-02T08:19:27.098Z</time></trkpt><trkpt lat="42.2519042" lon="13.9347616"><ele>241.83333333333334</ele><time>2026-05-02T08:19:31.098Z</time></trkpt><trkpt lat="42.2518383" lon="13.9347623"><ele>238.66666666666669</ele><time>2026-05-02T08:19:34.099Z</time></trkpt><trkpt lat="42.2517576" lon="13.9347586"><ele>235.5</ele><time>2026-05-02T08:19:39.102Z</time></trkpt><trkpt lat="42.2516753" lon="13.9347527"><ele>232.33333333333331</ele><time>2026-05-02T08:19:42.096Z</time></trkpt><trkpt lat="42.2516094" lon="13.9347533"><ele>229.16666666666666</ele><time>2026-05-02T08:19:45.103Z</time></trkpt><trkpt lat="42.251521" lon="13.9347711"><ele>226.0</ele><time>2026-05-02T08:19:48.114Z</time></trkpt><trkpt lat="42.2514536" lon="13.9347868"><ele>222.83333333333331</ele><time>2026-05-02T08:19:50.102Z</time></trkpt><trkpt lat="42.2513681" lon="13.9347818"><ele>219.66666666666666</ele><time>2026-05-02T08:19:53.103Z</time></trkpt><trkpt lat="42.2512829" lon="13.9347899"><ele>216.5</ele><time>2026-05-02T08:19:56.096Z</time></trkpt><trkpt lat="42.2512142" lon="13.9348057"><ele>213.33333333333331</ele><time>2026-05-02T08:19:58.097Z</time></trkpt><trkpt lat="42.251139" lon="13.9348347"><ele>210.16666666666666</ele><time>2026-05-02T08:20:00.09Z</time></trkpt><trkpt lat="42.2510664" lon="13.9348553"><ele>207.0</ele><time>2026-05-02T08:20:02.096Z</time></trkpt><trkpt lat="42.2509906" lon="13.9348826"><ele>207.0</ele><time>2026-05-02T08:20:04.09Z</time></trkpt><trkpt lat="42.2509208" lon="13.934901"><ele>207.0</ele><time>2026-05-02T08:20:06.092Z</time></trkpt><trkpt lat="42.2508486" lon="13.9349054"><ele>207.0</ele><time>2026-05-02T08:20:08.094Z</time></trkpt><trkpt lat="42.2507629" lon="13.9349039"><ele>207.0</ele><time>2026-05-02T08:20:10.097Z</time></trkpt><trkpt lat="42.2506688" lon="13.9348941"><ele>207.0</ele><time>2026-05-02T08:20:12.093Z</time></trkpt><trkpt lat="42.2505713" lon="13.9348822"><ele>207.0</ele><time>2026-05-02T08:20:14.096Z</time></trkpt><trkpt lat="42.2504746" lon="13.9348623"><ele>204.66666666666666</ele><time>2026-05-02T08:20:16.093Z</time></trkpt><trkpt lat="42.250398" lon="13.9348505"><ele>202.33333333333331</ele><time>2026-05-02T08:20:18.097Z</time></trkpt><trkpt lat="42.2503225" lon="13.9348545"><ele>200.0</ele><time>2026-05-02T08:20:20.086Z</time></trkpt><trkpt lat="42.2502313" lon="13.9348869"><ele>197.66666666666666</ele><time>2026-05-02T08:20:22.091Z</time></trkpt><trkpt lat="42.2501529" lon="13.9349178"><ele>195.33333333333331</ele><time>2026-05-02T08:20:24.09Z</time></trkpt><trkpt lat="42.2500654" lon="13.9349375"><ele>193.0</ele><time>2026-05-02T08:20:26.094Z</time></trkpt><trkpt lat="42.2499985" lon="13.9349333"><ele>192.99999999999997</ele><time>2026-05-02T08:20:28.093Z</time></trkpt><trkpt lat="42.2499284" lon="13.934913"><ele>193.0</ele><time>2026-05-02T08:20:30.09Z</time></trkpt><trkpt lat="42.2498578" lon="13.9348905"><ele>193.0</ele><time>2026-05-02T08:20:32.09Z</time></trkpt><trkpt lat="42.2497808" lon="13.9348477"><ele>193.0</ele><time>2026-05-02T08:20:35.099Z</time></trkpt><trkpt lat="42.2497077" lon="13.9348241"><ele>192.99999999999997</ele><time>2026-05-02T08:20:38.092Z</time></trkpt><trkpt lat="42.2496177" lon="13.9348345"><ele>193.0</ele><time>2026-05-02T08:20:41.097Z</time></trkpt><trkpt lat="42.2495303" lon="13.9348713"><ele>190.83333333333331</ele><time>2026-05-02T08:20:44.091Z</time></trkpt><trkpt lat="42.2494501" lon="13.9349057"><ele>188.66666666666666</ele><time>2026-05-02T08:20:47.093Z</time></trkpt><trkpt lat="42.2493688" lon="13.9349496"><ele>186.5</ele><time>2026-05-02T08:20:50.089Z</time></trkpt><trkpt lat="42.2493017" lon="13.9349633"><ele>184.33333333333331</ele><time>2026-05-02T08:20:52.094Z</time></trkpt><trkpt lat="42.2492324" lon="13.934977"><ele>182.16666666666666</ele><time>2026-05-02T08:20:54.091Z</time></trkpt><trkpt lat="42.2491551" lon="13.9349831"><ele>180.0</ele><time>2026-05-02T08:20:56.093Z</time></trkpt><trkpt lat="42.2490899" lon="13.9349963"><ele>180.0</ele><time>2026-05-02T08:20:58.093Z</time></trkpt><trkpt lat="42.2490235" lon="13.9349746"><ele>180.0</ele><time>2026-05-02T08:21:01.095Z</time></trkpt><trkpt lat="42.2489682" lon="13.9349169"><ele>180.0</ele><time>2026-05-02T08:21:04.089Z</time></trkpt><trkpt lat="42.2488994" lon="13.9349129"><ele>180.0</ele><time>2026-05-02T08:21:07.093Z</time></trkpt><trkpt lat="42.2488242" lon="13.9349411"><ele>180.0</ele><time>2026-05-02T08:21:09.097Z</time></trkpt><trkpt lat="42.2487481" lon="13.9349804"><ele>180.0</ele><time>2026-05-02T08:21:11.092Z</time></trkpt><trkpt lat="42.2486644" lon="13.9350263"><ele>176.66666666666666</ele><time>2026-05-02T08:21:13.083Z</time></trkpt><trkpt lat="42.2485884" lon="13.9351009"><ele>173.33333333333334</ele><time>2026-05-02T08:21:15.086Z</time></trkpt><trkpt lat="42.2485341" lon="13.9351849"><ele>170.0</ele><time>2026-05-02T08:21:17.085Z</time></trkpt><trkpt lat="42.2484981" lon="13.9352698"><ele>166.66666666666669</ele><time>2026-05-02T08:21:19.079Z</time></trkpt><trkpt lat="42.2484494" lon="13.9353424"><ele>163.33333333333334</ele><time>2026-05-02T08:21:21.082Z</time></trkpt><trkpt lat="42.2483786" lon="13.9354112"><ele>160.0</ele><time>2026-05-02T08:21:23.086Z</time></trkpt><trkpt lat="42.2483026" lon="13.9354374"><ele>160.0</ele><time>2026-05-02T08:21:25.086Z</time></trkpt><trkpt lat="42.2482236" lon="13.935478"><ele>160.0</ele><time>2026-05-02T08:21:27.081Z</time></trkpt><trkpt lat="42.2481669" lon="13.9355208"><ele>160.0</ele><time>2026-05-02T08:21:41.09Z</time></trkpt><trkpt lat="42.2481358" lon="13.9356222"><ele>160.0</ele><time>2026-05-02T08:21:44.091Z</time></trkpt><trkpt lat="42.2481546" lon="13.9357486"><ele>160.0</ele><time>2026-05-02T08:21:46.089Z</time></trkpt><trkpt lat="42.2481825" lon="13.9358771"><ele>160.0</ele><time>2026-05-02T08:21:48.089Z</time></trkpt><trkpt lat="42.2482066" lon="13.9360187"><ele>159.4</ele><time>2026-05-02T08:21:50.089Z</time></trkpt><trkpt lat="42.2482218" lon="13.9361421"><ele>158.8</ele><time>2026-05-02T08:21:52.091Z</time></trkpt><trkpt lat="42.2482274" lon="13.9362738"><ele>158.2</ele><time>2026-05-02T08:21:54.095Z</time></trkpt><trkpt lat="42.2482042" lon="13.9364047"><ele>157.6</ele><time>2026-05-02T08:21:56.091Z</time></trkpt><trkpt lat="42.2481774" lon="13.9364998"><ele>157.0</ele><time>2026-05-02T08:21:58.095Z</time></trkpt><trkpt lat="42.2481377" lon="13.9366246"><ele>153.0</ele><time>2026-05-02T08:22:00.089Z</time></trkpt><trkpt lat="42.2480773" lon="13.9367666"><ele>149.0</ele><time>2026-05-02T08:22:02.088Z</time></trkpt><trkpt lat="42.2480003" lon="13.9368881"><ele>145.0</ele><time>2026-05-02T08:22:04.088Z</time></trkpt><trkpt lat="42.2479073" lon="13.93698"><ele>141.0</ele><time>2026-05-02T08:22:06.091Z</time></trkpt><trkpt lat="42.2478032" lon="13.937051"><ele>141.0</ele><time>2026-05-02T08:22:08.087Z</time></trkpt><trkpt lat="42.247744" lon="13.9370915"><ele>141.0</ele><time>2026-05-02T08:22:09.093Z</time></trkpt><trkpt lat="42.2476812" lon="13.9371417"><ele>141.0</ele><time>2026-05-02T08:22:10.093Z</time></trkpt><trkpt lat="42.2476129" lon="13.9371926"><ele>141.0</ele><time>2026-05-02T08:22:11.094Z</time></trkpt><trkpt lat="42.2475457" lon="13.937239"><ele>141.0</ele><time>2026-05-02T08:22:12.093Z</time></trkpt><trkpt lat="42.2474388" lon="13.9373032"><ele>141.0</ele><time>2026-05-02T08:22:14.092Z</time></trkpt><trkpt lat="42.2473271" lon="13.9373048"><ele>141.33333333333334</ele><time>2026-05-02T08:22:16.097Z</time></trkpt><trkpt lat="42.2472645" lon="13.9372823"><ele>141.66666666666666</ele><time>2026-05-02T08:22:17.095Z</time></trkpt><trkpt lat="42.2471783" lon="13.93721"><ele>142.0</ele><time>2026-05-02T08:22:19.096Z</time></trkpt><trkpt lat="42.2471432" lon="13.9371381"><ele>142.33333333333331</ele><time>2026-05-02T08:22:48.102Z</time></trkpt><trkpt lat="42.247086" lon="13.9370808"><ele>142.66666666666666</ele><time>2026-05-02T08:22:50.091Z</time></trkpt><trkpt lat="42.2470102" lon="13.9370198"><ele>143.0</ele><time>2026-05-02T08:22:53.097Z</time></trkpt><trkpt lat="42.2469428" lon="13.9369813"><ele>142.99999999999997</ele><time>2026-05-02T08:23:08.094Z</time></trkpt><trkpt lat="42.2468772" lon="13.9369102"><ele>143.0</ele><time>2026-05-02T08:23:11.097Z</time></trkpt><trkpt lat="42.2468484" lon="13.936827"><ele>143.0</ele><time>2026-05-02T08:23:23.097Z</time></trkpt><trkpt lat="42.2468356" lon="13.9367321"><ele>143.0</ele><time>2026-05-02T08:23:25.09Z</time></trkpt><trkpt lat="42.2468362" lon="13.9366262"><ele>143.0</ele><time>2026-05-02T08:23:40.098Z</time></trkpt><trkpt lat="42.2468104" lon="13.9365474"><ele>142.99999999999997</ele><time>2026-05-02T08:24:06.096Z</time></trkpt><trkpt lat="42.2467821" lon="13.9364462"><ele>143.0</ele><time>2026-05-02T08:25:39.09Z</time></trkpt><trkpt lat="42.2467614" lon="13.9363501"><ele>142.75</ele><time>2026-05-02T08:25:42.093Z</time></trkpt><trkpt lat="42.2467033" lon="13.9362315"><ele>142.5</ele><time>2026-05-02T08:25:44.091Z</time></trkpt><trkpt lat="42.2466019" lon="13.9361718"><ele>142.25</ele><time>2026-05-02T08:25:46.091Z</time></trkpt><trkpt lat="42.246478" lon="13.9362232"><ele>142.0</ele><time>2026-05-02T08:25:48.097Z</time></trkpt><trkpt lat="42.2463894" lon="13.9363532"><ele>143.66666666666669</ele><time>2026-05-02T08:25:50.102Z</time></trkpt><trkpt lat="42.2463449" lon="13.9364538"><ele>145.33333333333334</ele><time>2026-05-02T08:25:51.101Z</time></trkpt><trkpt lat="42.2463029" lon="13.9365304"><ele>147.0</ele><time>2026-05-02T08:25:52.106Z</time></trkpt><trkpt lat="42.2462354" lon="13.9366107"><ele>148.66666666666666</ele><time>2026-05-02T08:25:54.1Z</time></trkpt><trkpt lat="42.2461767" lon="13.9366897"><ele>150.33333333333331</ele><time>2026-05-02T08:25:56.1Z</time></trkpt><trkpt lat="42.2461473" lon="13.9367746"><ele>152.0</ele><time>2026-05-02T08:25:57.097Z</time></trkpt><trkpt lat="42.246148" lon="13.9368895"><ele>152.33333333333331</ele><time>2026-05-02T08:25:58.103Z</time></trkpt><trkpt lat="42.2461784" lon="13.9370036"><ele>152.66666666666666</ele><time>2026-05-02T08:25:59.103Z</time></trkpt><trkpt lat="42.2462084" lon="13.9370974"><ele>153.0</ele><time>2026-05-02T08:26:00.096Z</time></trkpt><trkpt lat="42.2462197" lon="13.937182"><ele>153.33333333333334</ele><time>2026-05-02T08:26:01.1Z</time></trkpt><trkpt lat="42.2461994" lon="13.9372758"><ele>153.66666666666669</ele><time>2026-05-02T08:26:02.095Z</time></trkpt><trkpt lat="42.2461628" lon="13.9373738"><ele>154.0</ele><time>2026-05-02T08:26:03.096Z</time></trkpt><trkpt lat="42.2461139" lon="13.9374783"><ele>154.0</ele><time>2026-05-02T08:26:04.1Z</time></trkpt><trkpt lat="42.2460606" lon="13.93759"><ele>154.0</ele><time>2026-05-02T08:26:05.099Z</time></trkpt><trkpt lat="42.2460051" lon="13.9376718"><ele>154.0</ele><time>2026-05-02T08:26:06.095Z</time></trkpt><trkpt lat="42.2459317" lon="13.937764"><ele>154.0</ele><time>2026-05-02T08:26:08.088Z</time></trkpt><trkpt lat="42.2458638" lon="13.9377998"><ele>154.0</ele><time>2026-05-02T08:26:12.079Z</time></trkpt><trkpt lat="42.2458249" lon="13.9377158"><ele>154.0</ele><time>2026-05-02T08:26:14.093Z</time></trkpt><trkpt lat="42.2458027" lon="13.9376207"><ele>154.0</ele><time>2026-05-02T08:26:15.092Z</time></trkpt><trkpt lat="42.2457686" lon="13.9375153"><ele>154.0</ele><time>2026-05-02T08:26:16.095Z</time></trkpt><trkpt lat="42.2457238" lon="13.9373669"><ele>154.0</ele><time>2026-05-02T08:26:17.108Z</time></trkpt><trkpt lat="42.2456831" lon="13.9371859"><ele>154.0</ele><time>2026-05-02T08:26:18.097Z</time></trkpt><trkpt lat="42.2456237" lon="13.9369915"><ele>154.33333333333334</ele><time>2026-05-02T08:26:19.104Z</time></trkpt><trkpt lat="42.2455286" lon="13.9367648"><ele>154.66666666666666</ele><time>2026-05-02T08:26:20.099Z</time></trkpt><trkpt lat="42.2454563" lon="13.9365468"><ele>155.0</ele><time>2026-05-02T08:26:21.108Z</time></trkpt><trkpt lat="42.2453999" lon="13.9363488"><ele>155.5</ele><time>2026-05-02T08:26:22.098Z</time></trkpt><trkpt lat="42.245342" lon="13.9361542"><ele>156.0</ele><time>2026-05-02T08:26:23.101Z</time></trkpt><trkpt lat="42.2452702" lon="13.9360035"><ele>156.5</ele><time>2026-05-02T08:26:24.093Z</time></trkpt><trkpt lat="42.2451891" lon="13.935878"><ele>157.0</ele><time>2026-05-02T08:26:25.093Z</time></trkpt><trkpt lat="42.2451544" lon="13.9357292"><ele>157.5</ele><time>2026-05-02T08:26:26.097Z</time></trkpt><trkpt lat="42.2451179" lon="13.9356153"><ele>158.0</ele><time>2026-05-02T08:26:27.095Z</time></trkpt><trkpt lat="42.2450926" lon="13.9355152"><ele>158.5</ele><time>2026-05-02T08:26:28.094Z</time></trkpt><trkpt lat="42.2450435" lon="13.9354338"><ele>159.0</ele><time>2026-05-02T08:26:29.094Z</time></trkpt><trkpt lat="42.2450043" lon="13.9353441"><ele>159.5</ele><time>2026-05-02T08:26:30.093Z</time></trkpt><trkpt lat="42.2449868" lon="13.9352499"><ele>160.0</ele><time>2026-05-02T08:26:31.086Z</time></trkpt><trkpt lat="42.2449582" lon="13.9351597"><ele>160.0</ele><time>2026-05-02T08:26:32.088Z</time></trkpt><trkpt lat="42.2448987" lon="13.9351033"><ele>160.0</ele><time>2026-05-02T08:26:33.087Z</time></trkpt><trkpt lat="42.244825" lon="13.935078"><ele>160.0</ele><time>2026-05-02T08:26:34.09Z</time></trkpt><trkpt lat="42.2447507" lon="13.9350608"><ele>160.0</ele><time>2026-05-02T08:26:35.079Z</time></trkpt><trkpt lat="42.2446767" lon="13.9350481"><ele>160.0</ele><time>2026-05-02T08:26:36.07Z</time></trkpt><trkpt lat="42.2446068" lon="13.9350291"><ele>160.0</ele><time>2026-05-02T08:26:37.07Z</time></trkpt><trkpt lat="42.2445321" lon="13.9350095"><ele>160.0</ele><time>2026-05-02T08:26:38.073Z</time></trkpt><trkpt lat="42.2444467" lon="13.9350025"><ele>162.0</ele><time>2026-05-02T08:26:39.06Z</time></trkpt><trkpt lat="42.244492" lon="13.9351414"><ele>164.0</ele><time>2026-05-02T08:26:40.073Z</time></trkpt><trkpt lat="42.2444446" lon="13.9352918"><ele>166.0</ele><time>2026-05-02T08:26:41.068Z</time></trkpt><trkpt lat="42.24439" lon="13.9355895"><ele>166.0</ele><time>2026-05-02T08:26:42.097Z</time></trkpt><trkpt lat="42.2443548" lon="13.9357883"><ele>166.0</ele><time>2026-05-02T08:26:43.096Z</time></trkpt><trkpt lat="42.244315" lon="13.9360005"><ele>166.0</ele><time>2026-05-02T08:26:44.098Z</time></trkpt><trkpt lat="42.2442535" lon="13.9362273"><ele>165.0</ele><time>2026-05-02T08:26:45.103Z</time></trkpt><trkpt lat="42.244185" lon="13.9364112"><ele>164.0</ele><time>2026-05-02T08:26:46.102Z</time></trkpt><trkpt lat="42.2441483" lon="13.9365811"><ele>163.0</ele><time>2026-05-02T08:26:47.097Z</time></trkpt><trkpt lat="42.2441008" lon="13.9367194"><ele>162.0</ele><time>2026-05-02T08:26:48.088Z</time></trkpt><trkpt lat="42.2440556" lon="13.9368356"><ele>161.6</ele><time>2026-05-02T08:26:49.086Z</time></trkpt><trkpt lat="42.2440131" lon="13.9369137"><ele>161.2</ele><time>2026-05-02T08:26:50.084Z</time></trkpt><trkpt lat="42.2439332" lon="13.9369438"><ele>160.8</ele><time>2026-05-02T08:26:52.089Z</time></trkpt><trkpt lat="42.2438308" lon="13.9367823"><ele>160.4</ele><time>2026-05-02T08:26:54.08Z</time></trkpt><trkpt lat="42.2437804" lon="13.9366146"><ele>160.0</ele><time>2026-05-02T08:26:55.08Z</time></trkpt><trkpt lat="42.2437371" lon="13.9364048"><ele>161.66666666666669</ele><time>2026-05-02T08:26:56.071Z</time></trkpt><trkpt lat="42.2436769" lon="13.9361358"><ele>163.33333333333334</ele><time>2026-05-02T08:26:57.078Z</time></trkpt><trkpt lat="42.2436121" lon="13.9359016"><ele>165.0</ele><time>2026-05-02T08:26:58.083Z</time></trkpt><trkpt lat="42.2435802" lon="13.9356889"><ele>165.5</ele><time>2026-05-02T08:26:59.09Z</time></trkpt><trkpt lat="42.2435452" lon="13.935498"><ele>166.0</ele><time>2026-05-02T08:27:00.094Z</time></trkpt><trkpt lat="42.2435022" lon="13.9352977"><ele>166.5</ele><time>2026-05-02T08:27:01.095Z</time></trkpt><trkpt lat="42.2434688" lon="13.9351267"><ele>167.0</ele><time>2026-05-02T08:27:02.092Z</time></trkpt><trkpt lat="42.2434406" lon="13.9349638"><ele>167.5</ele><time>2026-05-02T08:27:03.096Z</time></trkpt><trkpt lat="42.2434051" lon="13.9348149"><ele>168.0</ele><time>2026-05-02T08:27:04.093Z</time></trkpt><trkpt lat="42.2433672" lon="13.9346561"><ele>168.5</ele><time>2026-05-02T08:27:05.105Z</time></trkpt><trkpt lat="42.2433144" lon="13.9345112"><ele>169.0</ele><time>2026-05-02T08:27:06.1Z</time></trkpt><trkpt lat="42.2433004" lon="13.9343666"><ele>169.25</ele><time>2026-05-02T08:27:07.11Z</time></trkpt><trkpt lat="42.2432674" lon="13.9342147"><ele>169.5</ele><time>2026-05-02T08:27:08.101Z</time></trkpt><trkpt lat="42.2432256" lon="13.9340526"><ele>169.75</ele><time>2026-05-02T08:27:09.105Z</time></trkpt><trkpt lat="42.2431805" lon="13.9339028"><ele>170.0</ele><time>2026-05-02T08:27:10.097Z</time></trkpt><trkpt lat="42.2431414" lon="13.9337493"><ele>171.25</ele><time>2026-05-02T08:27:11.107Z</time></trkpt><trkpt lat="42.2431051" lon="13.9335999"><ele>172.5</ele><time>2026-05-02T08:27:12.098Z</time></trkpt><trkpt lat="42.2430737" lon="13.9334556"><ele>173.75</ele><time>2026-05-02T08:27:13.107Z</time></trkpt><trkpt lat="42.2430375" lon="13.9333138"><ele>175.0</ele><time>2026-05-02T08:27:14.105Z</time></trkpt><trkpt lat="42.2430004" lon="13.9331695"><ele>175.4</ele><time>2026-05-02T08:27:15.107Z</time></trkpt><trkpt lat="42.2429633" lon="13.9330255"><ele>175.8</ele><time>2026-05-02T08:27:16.093Z</time></trkpt><trkpt lat="42.2429223" lon="13.9328811"><ele>176.2</ele><time>2026-05-02T08:27:17.101Z</time></trkpt><trkpt lat="42.2428836" lon="13.9327491"><ele>176.6</ele><time>2026-05-02T08:27:18.101Z</time></trkpt><trkpt lat="42.2428477" lon="13.9326212"><ele>177.0</ele><time>2026-05-02T08:27:19.104Z</time></trkpt><trkpt lat="42.2428085" lon="13.9324926"><ele>177.39999999999998</ele><time>2026-05-02T08:27:20.097Z</time></trkpt><trkpt lat="42.2427742" lon="13.932354"><ele>177.79999999999998</ele><time>2026-05-02T08:27:21.102Z</time></trkpt><trkpt lat="42.2427387" lon="13.9322182"><ele>178.2</ele><time>2026-05-02T08:27:22.098Z</time></trkpt><trkpt lat="42.2427005" lon="13.9320757"><ele>178.6</ele><time>2026-05-02T08:27:23.097Z</time></trkpt><trkpt lat="42.2426649" lon="13.9319349"><ele>179.0</ele><time>2026-05-02T08:27:24.092Z</time></trkpt><trkpt lat="42.2426272" lon="13.9318002"><ele>179.39999999999998</ele><time>2026-05-02T08:27:25.106Z</time></trkpt><trkpt lat="42.2425895" lon="13.9316677"><ele>179.8</ele><time>2026-05-02T08:27:26.099Z</time></trkpt><trkpt lat="42.2425508" lon="13.9315249"><ele>180.2</ele><time>2026-05-02T08:27:27.106Z</time></trkpt><trkpt lat="42.2425153" lon="13.9313807"><ele>180.60000000000002</ele><time>2026-05-02T08:27:28.094Z</time></trkpt><trkpt lat="42.2424763" lon="13.93124"><ele>181.0</ele><time>2026-05-02T08:27:29.109Z</time></trkpt><trkpt lat="42.2424348" lon="13.9310935"><ele>181.0</ele><time>2026-05-02T08:27:30.093Z</time></trkpt><trkpt lat="42.2423972" lon="13.9309349"><ele>181.0</ele><time>2026-05-02T08:27:31.109Z</time></trkpt><trkpt lat="42.2423537" lon="13.9307828"><ele>181.0</ele><time>2026-05-02T08:27:32.095Z</time></trkpt><trkpt lat="42.2423196" lon="13.9306233"><ele>181.0</ele><time>2026-05-02T08:27:33.106Z</time></trkpt><trkpt lat="42.2422847" lon="13.9304641"><ele>181.25</ele><time>2026-05-02T08:27:34.1Z</time></trkpt><trkpt lat="42.2422494" lon="13.9303041"><ele>181.5</ele><time>2026-05-02T08:27:35.105Z</time></trkpt><trkpt lat="42.2422011" lon="13.930148"><ele>181.75</ele><time>2026-05-02T08:27:36.096Z</time></trkpt><trkpt lat="42.2421549" lon="13.9299796"><ele>182.0</ele><time>2026-05-02T08:27:37.106Z</time></trkpt><trkpt lat="42.2421132" lon="13.929803"><ele>182.0</ele><time>2026-05-02T08:27:38.097Z</time></trkpt><trkpt lat="42.2420736" lon="13.9296231"><ele>182.0</ele><time>2026-05-02T08:27:39.102Z</time></trkpt><trkpt lat="42.2420363" lon="13.9294418"><ele>182.0</ele><time>2026-05-02T08:27:40.096Z</time></trkpt><trkpt lat="42.2419969" lon="13.9292627"><ele>182.0</ele><time>2026-05-02T08:27:41.102Z</time></trkpt><trkpt lat="42.2419376" lon="13.9290898"><ele>182.0</ele><time>2026-05-02T08:27:42.101Z</time></trkpt><trkpt lat="42.2418685" lon="13.9289194"><ele>182.0</ele><time>2026-05-02T08:27:43.099Z</time></trkpt><trkpt lat="42.2418506" lon="13.9287297"><ele>182.0</ele><time>2026-05-02T08:27:44.102Z</time></trkpt><trkpt lat="42.2417962" lon="13.9285466"><ele>182.0</ele><time>2026-05-02T08:27:45.102Z</time></trkpt><trkpt lat="42.2417484" lon="13.9283911"><ele>183.0</ele><time>2026-05-02T08:27:46.096Z</time></trkpt><trkpt lat="42.2417013" lon="13.9282136"><ele>184.0</ele><time>2026-05-02T08:27:47.109Z</time></trkpt><trkpt lat="42.24167" lon="13.9280304"><ele>185.0</ele><time>2026-05-02T08:27:48.1Z</time></trkpt><trkpt lat="42.2416193" lon="13.92785"><ele>186.0</ele><time>2026-05-02T08:27:49.11Z</time></trkpt><trkpt lat="42.2415864" lon="13.9276732"><ele>186.0</ele><time>2026-05-02T08:27:50.1Z</time></trkpt><trkpt lat="42.2415303" lon="13.9275018"><ele>186.0</ele><time>2026-05-02T08:27:51.107Z</time></trkpt><trkpt lat="42.2414808" lon="13.9273536"><ele>186.0</ele><time>2026-05-02T08:27:52.103Z</time></trkpt><trkpt lat="42.2414551" lon="13.9272054"><ele>186.0</ele><time>2026-05-02T08:27:53.102Z</time></trkpt><trkpt lat="42.2414307" lon="13.9270909"><ele>186.0</ele><time>2026-05-02T08:27:54.099Z</time></trkpt><trkpt lat="42.2413887" lon="13.9269769"><ele>186.0</ele><time>2026-05-02T08:27:55.103Z</time></trkpt><trkpt lat="42.241363" lon="13.9268857"><ele>186.0</ele><time>2026-05-02T08:27:56.101Z</time></trkpt><trkpt lat="42.2413429" lon="13.9267889"><ele>186.0</ele><time>2026-05-02T08:27:57.103Z</time></trkpt><trkpt lat="42.2413399" lon="13.9266991"><ele>186.0</ele><time>2026-05-02T08:27:58.105Z</time></trkpt><trkpt lat="42.2412982" lon="13.9265682"><ele>186.0</ele><time>2026-05-02T08:28:00.099Z</time></trkpt><trkpt lat="42.2412539" lon="13.9264866"><ele>186.16666666666666</ele><time>2026-05-02T08:28:42.101Z</time></trkpt><trkpt lat="42.2412337" lon="13.9263876"><ele>186.33333333333334</ele><time>2026-05-02T08:28:45.097Z</time></trkpt><trkpt lat="42.2412612" lon="13.926288"><ele>186.5</ele><time>2026-05-02T08:28:47.096Z</time></trkpt><trkpt lat="42.2413506" lon="13.9262679"><ele>186.66666666666669</ele><time>2026-05-02T08:28:49.107Z</time></trkpt><trkpt lat="42.2414225" lon="13.9262787"><ele>186.83333333333334</ele><time>2026-05-02T08:28:50.095Z</time></trkpt><trkpt lat="42.2415077" lon="13.9262935"><ele>187.0</ele><time>2026-05-02T08:28:51.103Z</time></trkpt><trkpt lat="42.2415948" lon="13.9263093"><ele>187.0</ele><time>2026-05-02T08:28:52.102Z</time></trkpt><trkpt lat="42.2416982" lon="13.9263304"><ele>187.0</ele><time>2026-05-02T08:28:53.096Z</time></trkpt><trkpt lat="42.2418067" lon="13.9263639"><ele>187.0</ele><time>2026-05-02T08:28:54.096Z</time></trkpt><trkpt lat="42.2419193" lon="13.926405"><ele>187.0</ele><time>2026-05-02T08:28:55.098Z</time></trkpt><trkpt lat="42.2420257" lon="13.926455"><ele>187.0</ele><time>2026-05-02T08:28:56.092Z</time></trkpt><trkpt lat="42.2421264" lon="13.9265062"><ele>187.0</ele><time>2026-05-02T08:28:57.089Z</time></trkpt><trkpt lat="42.2422323" lon="13.9265838"><ele>187.0</ele><time>2026-05-02T08:28:58.094Z</time></trkpt><trkpt lat="42.2423392" lon="13.9266876"><ele>187.0</ele><time>2026-05-02T08:28:59.099Z</time></trkpt><trkpt lat="42.2424408" lon="13.9267971"><ele>187.0</ele><time>2026-05-02T08:29:00.093Z</time></trkpt><trkpt lat="42.2425377" lon="13.9269142"><ele>186.5</ele><time>2026-05-02T08:29:01.091Z</time></trkpt><trkpt lat="42.242624" lon="13.9270356"><ele>186.0</ele><time>2026-05-02T08:29:02.092Z</time></trkpt><trkpt lat="42.242704" lon="13.9271585"><ele>185.5</ele><time>2026-05-02T08:29:03.088Z</time></trkpt><trkpt lat="42.2427889" lon="13.9272814"><ele>185.0</ele><time>2026-05-02T08:29:04.092Z</time></trkpt><trkpt lat="42.2428792" lon="13.9274084"><ele>185.0</ele><time>2026-05-02T08:29:05.091Z</time></trkpt><trkpt lat="42.2429623" lon="13.9275314"><ele>185.0</ele><time>2026-05-02T08:29:06.093Z</time></trkpt><trkpt lat="42.2430391" lon="13.9276462"><ele>185.0</ele><time>2026-05-02T08:29:07.093Z</time></trkpt><trkpt lat="42.2431104" lon="13.9277424"><ele>185.0</ele><time>2026-05-02T08:29:08.093Z</time></trkpt><trkpt lat="42.2431768" lon="13.9278363"><ele>185.0</ele><time>2026-05-02T08:29:09.089Z</time></trkpt><trkpt lat="42.2432442" lon="13.9279247"><ele>184.33333333333331</ele><time>2026-05-02T08:29:10.093Z</time></trkpt><trkpt lat="42.2433057" lon="13.9280043"><ele>183.66666666666666</ele><time>2026-05-02T08:29:11.092Z</time></trkpt><trkpt lat="42.2433628" lon="13.9280819"><ele>183.0</ele><time>2026-05-02T08:29:12.094Z</time></trkpt><trkpt lat="42.2434233" lon="13.9281577"><ele>182.33333333333334</ele><time>2026-05-02T08:29:13.091Z</time></trkpt><trkpt lat="42.2434826" lon="13.9282312"><ele>181.66666666666669</ele><time>2026-05-02T08:29:14.097Z</time></trkpt><trkpt lat="42.2435489" lon="13.9283087"><ele>181.0</ele><time>2026-05-02T08:29:15.095Z</time></trkpt><trkpt lat="42.2436101" lon="13.9283894"><ele>180.83333333333334</ele><time>2026-05-02T08:29:16.093Z</time></trkpt><trkpt lat="42.2436773" lon="13.9284648"><ele>180.66666666666669</ele><time>2026-05-02T08:29:17.089Z</time></trkpt><trkpt lat="42.2437575" lon="13.9285193"><ele>180.5</ele><time>2026-05-02T08:29:18.09Z</time></trkpt><trkpt lat="42.2438425" lon="13.9285307"><ele>180.33333333333334</ele><time>2026-05-02T08:29:19.092Z</time></trkpt><trkpt lat="42.2439358" lon="13.9285168"><ele>180.16666666666666</ele><time>2026-05-02T08:29:20.087Z</time></trkpt><trkpt lat="42.2440176" lon="13.9284816"><ele>180.0</ele><time>2026-05-02T08:29:21.084Z</time></trkpt><trkpt lat="42.2440917" lon="13.9284414"><ele>179.66666666666666</ele><time>2026-05-02T08:29:22.089Z</time></trkpt><trkpt lat="42.2441612" lon="13.9283975"><ele>179.33333333333334</ele><time>2026-05-02T08:29:23.084Z</time></trkpt><trkpt lat="42.2442258" lon="13.9283616"><ele>179.0</ele><time>2026-05-02T08:29:24.081Z</time></trkpt><trkpt lat="42.2442812" lon="13.9283151"><ele>178.66666666666669</ele><time>2026-05-02T08:29:25.09Z</time></trkpt><trkpt lat="42.2443553" lon="13.9281871"><ele>178.33333333333334</ele><time>2026-05-02T08:29:27.088Z</time></trkpt><trkpt lat="42.2443893" lon="13.9281129"><ele>178.0</ele><time>2026-05-02T08:29:28.093Z</time></trkpt><trkpt lat="42.244422" lon="13.9280389"><ele>178.0</ele><time>2026-05-02T08:29:29.095Z</time></trkpt><trkpt lat="42.2444508" lon="13.9279612"><ele>178.0</ele><time>2026-05-02T08:29:30.097Z</time></trkpt><trkpt lat="42.2444756" lon="13.9278683"><ele>178.0</ele><time>2026-05-02T08:29:31.091Z</time></trkpt><trkpt lat="42.2444916" lon="13.9277627"><ele>178.0</ele><time>2026-05-02T08:29:32.089Z</time></trkpt><trkpt lat="42.2445" lon="13.9276681"><ele>178.0</ele><time>2026-05-02T08:29:33.093Z</time></trkpt><trkpt lat="42.2445014" lon="13.9275744"><ele>178.0</ele><time>2026-05-02T08:29:34.094Z</time></trkpt><trkpt lat="42.2445257" lon="13.9274456"><ele>178.99999999999997</ele><time>2026-05-02T08:29:36.09Z</time></trkpt><trkpt lat="42.2445492" lon="13.9273534"><ele>180.0</ele><time>2026-05-02T08:29:40.089Z</time></trkpt><trkpt lat="42.2445652" lon="13.9272525"><ele>181.0</ele><time>2026-05-02T08:29:44.092Z</time></trkpt><trkpt lat="42.2445847" lon="13.9271544"><ele>182.0</ele><time>2026-05-02T08:29:47.094Z</time></trkpt><trkpt lat="42.2446059" lon="13.9270665"><ele>183.0</ele><time>2026-05-02T08:29:50.09Z</time></trkpt><trkpt lat="42.2446288" lon="13.9269851"><ele>183.99999999999997</ele><time>2026-05-02T08:29:54.094Z</time></trkpt><trkpt lat="42.2446655" lon="13.9269024"><ele>185.0</ele><time>2026-05-02T08:30:10.088Z</time></trkpt><trkpt lat="42.2446925" lon="13.9267962"><ele>186.6</ele><time>2026-05-02T08:30:13.097Z</time></trkpt><trkpt lat="42.2447407" lon="13.9267224"><ele>188.2</ele><time>2026-05-02T08:30:16.09Z</time></trkpt><trkpt lat="42.2447781" lon="13.9266057"><ele>189.8</ele><time>2026-05-02T08:30:19.089Z</time></trkpt><trkpt lat="42.2447935" lon="13.9264677"><ele>191.4</ele><time>2026-05-02T08:30:21.085Z</time></trkpt><trkpt lat="42.2448326" lon="13.9263611"><ele>193.0</ele><time>2026-05-02T08:30:23.086Z</time></trkpt><trkpt lat="42.2448492" lon="13.9262239"><ele>192.99999999999997</ele><time>2026-05-02T08:30:25.09Z</time></trkpt><trkpt lat="42.2448644" lon="13.9261279"><ele>193.0</ele><time>2026-05-02T08:30:31.083Z</time></trkpt><trkpt lat="42.2448018" lon="13.9261825"><ele>193.0</ele><time>2026-05-02T08:40:43.077Z</time></trkpt><trkpt lat="42.2447641" lon="13.9263053"><ele>193.0</ele><time>2026-05-02T08:40:45.084Z</time></trkpt><trkpt lat="42.244729" lon="13.9264269"><ele>192.99999999999997</ele><time>2026-05-02T08:40:47.079Z</time></trkpt><trkpt lat="42.2446882" lon="13.9265301"><ele>193.0</ele><time>2026-05-02T08:40:49.085Z</time></trkpt><trkpt lat="42.244652" lon="13.9266264"><ele>191.66666666666666</ele><time>2026-05-02T08:40:51.082Z</time></trkpt><trkpt lat="42.244606" lon="13.9267375"><ele>190.33333333333331</ele><time>2026-05-02T08:40:53.079Z</time></trkpt><trkpt lat="42.2445699" lon="13.9268595"><ele>189.0</ele><time>2026-05-02T08:40:55.086Z</time></trkpt><trkpt lat="42.2445947" lon="13.9269447"><ele>187.66666666666666</ele><time>2026-05-02T08:40:57.087Z</time></trkpt><trkpt lat="42.2447012" lon="13.9269654"><ele>186.33333333333331</ele><time>2026-05-02T08:40:59.085Z</time></trkpt><trkpt lat="42.244782" lon="13.9269504"><ele>185.0</ele><time>2026-05-02T08:41:00.083Z</time></trkpt><trkpt lat="42.2448778" lon="13.9269243"><ele>181.4</ele><time>2026-05-02T08:41:01.075Z</time></trkpt><trkpt lat="42.2449728" lon="13.9268929"><ele>177.8</ele><time>2026-05-02T08:41:02.083Z</time></trkpt><trkpt lat="42.245083" lon="13.926872"><ele>174.2</ele><time>2026-05-02T08:41:03.076Z</time></trkpt><trkpt lat="42.2451924" lon="13.9268455"><ele>170.6</ele><time>2026-05-02T08:41:04.076Z</time></trkpt><trkpt lat="42.2452948" lon="13.9268382"><ele>167.0</ele><time>2026-05-02T08:41:05.083Z</time></trkpt><trkpt lat="42.2453944" lon="13.9268371"><ele>167.0</ele><time>2026-05-02T08:41:06.08Z</time></trkpt><trkpt lat="42.2454937" lon="13.9268491"><ele>167.0</ele><time>2026-05-02T08:41:07.086Z</time></trkpt><trkpt lat="42.2455807" lon="13.9268592"><ele>167.0</ele><time>2026-05-02T08:41:08.084Z</time></trkpt><trkpt lat="42.2456547" lon="13.9268681"><ele>167.0</ele><time>2026-05-02T08:41:09.087Z</time></trkpt><trkpt lat="42.2457175" lon="13.9268754"><ele>167.0</ele><time>2026-05-02T08:41:10.093Z</time></trkpt><trkpt lat="42.2458282" lon="13.9268772"><ele>167.0</ele><time>2026-05-02T08:41:12.093Z</time></trkpt><trkpt lat="42.2459486" lon="13.9268934"><ele>165.8</ele><time>2026-05-02T08:41:14.093Z</time></trkpt><trkpt lat="42.2460704" lon="13.9269005"><ele>164.6</ele><time>2026-05-02T08:41:16.092Z</time></trkpt><trkpt lat="42.2461745" lon="13.926906"><ele>163.4</ele><time>2026-05-02T08:41:18.094Z</time></trkpt><trkpt lat="42.2462004" lon="13.9268264"><ele>162.20000000000002</ele><time>2026-05-02T08:41:20.09Z</time></trkpt><trkpt lat="42.2462034" lon="13.9267132"><ele>161.0</ele><time>2026-05-02T08:41:23.096Z</time></trkpt><trkpt lat="42.2461893" lon="13.9266127"><ele>160.8</ele><time>2026-05-02T08:41:25.097Z</time></trkpt><trkpt lat="42.2460908" lon="13.9265682"><ele>160.60000000000002</ele><time>2026-05-02T08:41:28.098Z</time></trkpt><trkpt lat="42.2459793" lon="13.92656"><ele>160.4</ele><time>2026-05-02T08:41:30.092Z</time></trkpt><trkpt lat="42.2458574" lon="13.9265545"><ele>160.2</ele><time>2026-05-02T08:41:32.087Z</time></trkpt><trkpt lat="42.2457585" lon="13.9265431"><ele>160.0</ele><time>2026-05-02T08:41:34.091Z</time></trkpt><trkpt lat="42.2457062" lon="13.9264715"><ele>160.0</ele><time>2026-05-02T08:41:36.088Z</time></trkpt><trkpt lat="42.2456872" lon="13.9263711"><ele>160.0</ele><time>2026-05-02T08:41:38.087Z</time></trkpt><trkpt lat="42.2456603" lon="13.926256"><ele>160.0</ele><time>2026-05-02T08:41:40.086Z</time></trkpt><trkpt lat="42.2456618" lon="13.9261125"><ele>160.0</ele><time>2026-05-02T08:41:42.087Z</time></trkpt><trkpt lat="42.2456596" lon="13.9259507"><ele>160.0</ele><time>2026-05-02T08:41:44.089Z</time></trkpt><trkpt lat="42.2456583" lon="13.9258605"><ele>160.42857142857142</ele><time>2026-05-02T08:41:45.094Z</time></trkpt><trkpt lat="42.2456528" lon="13.9256975"><ele>160.85714285714286</ele><time>2026-05-02T08:41:47.092Z</time></trkpt><trkpt lat="42.2456446" lon="13.9256105"><ele>161.28571428571428</ele><time>2026-05-02T08:41:48.09Z</time></trkpt><trkpt lat="42.245636" lon="13.9255256"><ele>161.71428571428572</ele><time>2026-05-02T08:41:49.095Z</time></trkpt><trkpt lat="42.2456308" lon="13.9254386"><ele>162.14285714285714</ele><time>2026-05-02T08:41:50.084Z</time></trkpt><trkpt lat="42.2456279" lon="13.9253523"><ele>162.57142857142858</ele><time>2026-05-02T08:41:51.101Z</time></trkpt><trkpt lat="42.2456307" lon="13.9252665"><ele>163.0</ele><time>2026-05-02T08:41:52.094Z</time></trkpt><trkpt lat="42.2456353" lon="13.92518"><ele>163.0</ele><time>2026-05-02T08:41:53.098Z</time></trkpt><trkpt lat="42.245649" lon="13.9250852"><ele>163.0</ele><time>2026-05-02T08:41:54.09Z</time></trkpt><trkpt lat="42.245667" lon="13.9249795"><ele>163.0</ele><time>2026-05-02T08:41:55.092Z</time></trkpt><trkpt lat="42.2456929" lon="13.9248508"><ele>163.0</ele><time>2026-05-02T08:41:56.09Z</time></trkpt><trkpt lat="42.2457195" lon="13.9247252"><ele>163.0</ele><time>2026-05-02T08:41:57.086Z</time></trkpt><trkpt lat="42.2457484" lon="13.9245972"><ele>163.0</ele><time>2026-05-02T08:41:58.087Z</time></trkpt><trkpt lat="42.2457828" lon="13.924462"><ele>163.16666666666669</ele><time>2026-05-02T08:41:59.089Z</time></trkpt><trkpt lat="42.2458209" lon="13.9243533"><ele>163.33333333333334</ele><time>2026-05-02T08:42:00.078Z</time></trkpt><trkpt lat="42.2458639" lon="13.9242646"><ele>163.5</ele><time>2026-05-02T08:42:01.079Z</time></trkpt><trkpt lat="42.2459218" lon="13.9241865"><ele>163.66666666666666</ele><time>2026-05-02T08:42:02.085Z</time></trkpt><trkpt lat="42.2459904" lon="13.9241082"><ele>163.83333333333331</ele><time>2026-05-02T08:42:03.09Z</time></trkpt><trkpt lat="42.2460574" lon="13.9240131"><ele>164.0</ele><time>2026-05-02T08:42:04.082Z</time></trkpt><trkpt lat="42.2461189" lon="13.9238968"><ele>164.0</ele><time>2026-05-02T08:42:05.084Z</time></trkpt><trkpt lat="42.2461624" lon="13.9237825"><ele>164.0</ele><time>2026-05-02T08:42:06.082Z</time></trkpt><trkpt lat="42.2461873" lon="13.9236671"><ele>164.0</ele><time>2026-05-02T08:42:07.09Z</time></trkpt><trkpt lat="42.2461988" lon="13.9235441"><ele>164.0</ele><time>2026-05-02T08:42:08.083Z</time></trkpt><trkpt lat="42.2462098" lon="13.9234202"><ele>164.0</ele><time>2026-05-02T08:42:09.085Z</time></trkpt><trkpt lat="42.2462075" lon="13.9232992"><ele>164.39999999999998</ele><time>2026-05-02T08:42:10.085Z</time></trkpt><trkpt lat="42.2462054" lon="13.9231721"><ele>164.8</ele><time>2026-05-02T08:42:11.09Z</time></trkpt><trkpt lat="42.2462026" lon="13.9230342"><ele>165.2</ele><time>2026-05-02T08:42:12.084Z</time></trkpt><trkpt lat="42.2461939" lon="13.9228936"><ele>165.60000000000002</ele><time>2026-05-02T08:42:13.095Z</time></trkpt><trkpt lat="42.2461827" lon="13.9227593"><ele>166.0</ele><time>2026-05-02T08:42:14.086Z</time></trkpt><trkpt lat="42.2461691" lon="13.9226196"><ele>166.20000000000002</ele><time>2026-05-02T08:42:15.093Z</time></trkpt><trkpt lat="42.2461552" lon="13.922483"><ele>166.4</ele><time>2026-05-02T08:42:16.084Z</time></trkpt><trkpt lat="42.2461482" lon="13.9223535"><ele>166.6</ele><time>2026-05-02T08:42:17.091Z</time></trkpt><trkpt lat="42.2461501" lon="13.9222335"><ele>166.8</ele><time>2026-05-02T08:42:18.086Z</time></trkpt><trkpt lat="42.2461513" lon="13.9221121"><ele>167.0</ele><time>2026-05-02T08:42:19.092Z</time></trkpt><trkpt lat="42.246143" lon="13.92199"><ele>167.0</ele><time>2026-05-02T08:42:20.085Z</time></trkpt><trkpt lat="42.2461324" lon="13.9218727"><ele>167.0</ele><time>2026-05-02T08:42:21.09Z</time></trkpt><trkpt lat="42.2461115" lon="13.9217648"><ele>167.0</ele><time>2026-05-02T08:42:22.086Z</time></trkpt><trkpt lat="42.2460785" lon="13.9216597"><ele>167.0</ele><time>2026-05-02T08:42:23.094Z</time></trkpt><trkpt lat="42.2460358" lon="13.9215511"><ele>167.0</ele><time>2026-05-02T08:42:24.086Z</time></trkpt><trkpt lat="42.2459942" lon="13.921429"><ele>167.0</ele><time>2026-05-02T08:42:25.089Z</time></trkpt><trkpt lat="42.2459578" lon="13.9213022"><ele>167.39999999999998</ele><time>2026-05-02T08:42:26.085Z</time></trkpt><trkpt lat="42.2459248" lon="13.9211829"><ele>167.79999999999998</ele><time>2026-05-02T08:42:27.09Z</time></trkpt><trkpt lat="42.245894" lon="13.9210718"><ele>168.2</ele><time>2026-05-02T08:42:28.086Z</time></trkpt><trkpt lat="42.2458608" lon="13.92095"><ele>168.6</ele><time>2026-05-02T08:42:29.09Z</time></trkpt><trkpt lat="42.2458207" lon="13.920828"><ele>169.0</ele><time>2026-05-02T08:42:30.086Z</time></trkpt><trkpt lat="42.2457708" lon="13.9207054"><ele>169.2</ele><time>2026-05-02T08:42:31.089Z</time></trkpt><trkpt lat="42.2457134" lon="13.9205898"><ele>169.39999999999998</ele><time>2026-05-02T08:42:32.088Z</time></trkpt><trkpt lat="42.2456505" lon="13.9204772"><ele>169.6</ele><time>2026-05-02T08:42:33.089Z</time></trkpt><trkpt lat="42.2455881" lon="13.9203701"><ele>169.8</ele><time>2026-05-02T08:42:34.089Z</time></trkpt><trkpt lat="42.2455392" lon="13.9202657"><ele>170.0</ele><time>2026-05-02T08:42:35.088Z</time></trkpt><trkpt lat="42.2455073" lon="13.9201625"><ele>171.16666666666666</ele><time>2026-05-02T08:42:36.084Z</time></trkpt><trkpt lat="42.2454932" lon="13.9200496"><ele>172.33333333333331</ele><time>2026-05-02T08:42:37.087Z</time></trkpt><trkpt lat="42.245486" lon="13.919922"><ele>173.5</ele><time>2026-05-02T08:42:38.088Z</time></trkpt><trkpt lat="42.2454743" lon="13.9198144"><ele>174.66666666666666</ele><time>2026-05-02T08:42:39.084Z</time></trkpt><trkpt lat="42.2454534" lon="13.9197302"><ele>175.83333333333334</ele><time>2026-05-02T08:42:40.087Z</time></trkpt><trkpt lat="42.2454133" lon="13.9196448"><ele>177.0</ele><time>2026-05-02T08:42:41.085Z</time></trkpt><trkpt lat="42.2453646" lon="13.9195573"><ele>177.0</ele><time>2026-05-02T08:42:42.087Z</time></trkpt><trkpt lat="42.2453208" lon="13.9194491"><ele>177.0</ele><time>2026-05-02T08:42:43.087Z</time></trkpt><trkpt lat="42.2452915" lon="13.9193268"><ele>177.0</ele><time>2026-05-02T08:42:44.089Z</time></trkpt><trkpt lat="42.2452647" lon="13.9192053"><ele>177.0</ele><time>2026-05-02T08:42:45.085Z</time></trkpt><trkpt lat="42.2452577" lon="13.9190887"><ele>177.0</ele><time>2026-05-02T08:42:46.085Z</time></trkpt><trkpt lat="42.2452677" lon="13.9189732"><ele>176.6</ele><time>2026-05-02T08:42:47.087Z</time></trkpt><trkpt lat="42.2452898" lon="13.9188412"><ele>176.2</ele><time>2026-05-02T08:42:48.092Z</time></trkpt><trkpt lat="42.2453157" lon="13.9186939"><ele>175.8</ele><time>2026-05-02T08:42:49.087Z</time></trkpt><trkpt lat="42.2453388" lon="13.9185381"><ele>175.4</ele><time>2026-05-02T08:42:50.09Z</time></trkpt><trkpt lat="42.2453716" lon="13.9183916"><ele>175.0</ele><time>2026-05-02T08:42:51.083Z</time></trkpt><trkpt lat="42.2454049" lon="13.9182581"><ele>174.83333333333334</ele><time>2026-05-02T08:42:52.088Z</time></trkpt><trkpt lat="42.2454359" lon="13.9181228"><ele>174.66666666666669</ele><time>2026-05-02T08:42:53.084Z</time></trkpt><trkpt lat="42.2454638" lon="13.9179994"><ele>174.5</ele><time>2026-05-02T08:42:54.087Z</time></trkpt><trkpt lat="42.2454845" lon="13.9178854"><ele>174.33333333333334</ele><time>2026-05-02T08:42:55.086Z</time></trkpt><trkpt lat="42.245493" lon="13.9177744"><ele>174.16666666666666</ele><time>2026-05-02T08:42:56.088Z</time></trkpt><trkpt lat="42.2454871" lon="13.91767"><ele>174.0</ele><time>2026-05-02T08:42:57.086Z</time></trkpt><trkpt lat="42.2454653" lon="13.9175603"><ele>174.0</ele><time>2026-05-02T08:42:58.085Z</time></trkpt><trkpt lat="42.2454368" lon="13.917465"><ele>174.0</ele><time>2026-05-02T08:42:59.087Z</time></trkpt><trkpt lat="42.2453957" lon="13.9173791"><ele>174.0</ele><time>2026-05-02T08:43:00.082Z</time></trkpt><trkpt lat="42.2453447" lon="13.9173012"><ele>174.0</ele><time>2026-05-02T08:43:01.091Z</time></trkpt><trkpt lat="42.2452756" lon="13.9172106"><ele>174.0</ele><time>2026-05-02T08:43:02.082Z</time></trkpt><trkpt lat="42.2452021" lon="13.9171151"><ele>174.0</ele><time>2026-05-02T08:43:03.091Z</time></trkpt><trkpt lat="42.245124" lon="13.9170189"><ele>174.0</ele><time>2026-05-02T08:43:04.083Z</time></trkpt><trkpt lat="42.2450541" lon="13.9169201"><ele>174.0</ele><time>2026-05-02T08:43:05.087Z</time></trkpt><trkpt lat="42.2449926" lon="13.9168229"><ele>174.0</ele><time>2026-05-02T08:43:06.087Z</time></trkpt><trkpt lat="42.2449352" lon="13.9167187"><ele>174.0</ele><time>2026-05-02T08:43:07.084Z</time></trkpt><trkpt lat="42.2448849" lon="13.916601"><ele>174.0</ele><time>2026-05-02T08:43:08.082Z</time></trkpt><trkpt lat="42.2448374" lon="13.916486"><ele>175.0</ele><time>2026-05-02T08:43:09.088Z</time></trkpt><trkpt lat="42.2447889" lon="13.9163887"><ele>176.0</ele><time>2026-05-02T08:43:10.089Z</time></trkpt><trkpt lat="42.244684" lon="13.9163218"><ele>177.0</ele><time>2026-05-02T08:43:12.087Z</time></trkpt><trkpt lat="42.2446023" lon="13.9163145"><ele>178.0</ele><time>2026-05-02T08:43:13.086Z</time></trkpt><trkpt lat="42.2445099" lon="13.9163052"><ele>179.0</ele><time>2026-05-02T08:43:14.093Z</time></trkpt><trkpt lat="42.2444286" lon="13.9162824"><ele>179.0</ele><time>2026-05-02T08:43:15.087Z</time></trkpt><trkpt lat="42.2443694" lon="13.9162484"><ele>179.0</ele><time>2026-05-02T08:43:16.088Z</time></trkpt><trkpt lat="42.2442825" lon="13.9161338"><ele>179.0</ele><time>2026-05-02T08:43:18.09Z</time></trkpt><trkpt lat="42.2442502" lon="13.9160397"><ele>179.0</ele><time>2026-05-02T08:43:19.089Z</time></trkpt><trkpt lat="42.2442286" lon="13.9159265"><ele>179.0</ele><time>2026-05-02T08:43:20.088Z</time></trkpt><trkpt lat="42.2442122" lon="13.9157962"><ele>179.0</ele><time>2026-05-02T08:43:21.089Z</time></trkpt><trkpt lat="42.2441855" lon="13.9156662"><ele>179.16666666666666</ele><time>2026-05-02T08:43:22.088Z</time></trkpt><trkpt lat="42.2441404" lon="13.9155323"><ele>179.33333333333331</ele><time>2026-05-02T08:43:23.088Z</time></trkpt><trkpt lat="42.2440902" lon="13.9154204"><ele>179.5</ele><time>2026-05-02T08:43:24.091Z</time></trkpt><trkpt lat="42.2440426" lon="13.9153199"><ele>179.66666666666666</ele><time>2026-05-02T08:43:25.086Z</time></trkpt><trkpt lat="42.2439992" lon="13.9152386"><ele>179.83333333333334</ele><time>2026-05-02T08:43:26.087Z</time></trkpt><trkpt lat="42.2439368" lon="13.9151688"><ele>180.0</ele><time>2026-05-02T08:43:27.09Z</time></trkpt><trkpt lat="42.2438529" lon="13.9151108"><ele>181.2</ele><time>2026-05-02T08:43:28.094Z</time></trkpt><trkpt lat="42.2437635" lon="13.9150559"><ele>182.4</ele><time>2026-05-02T08:43:29.091Z</time></trkpt><trkpt lat="42.2436837" lon="13.9149846"><ele>183.60000000000002</ele><time>2026-05-02T08:43:30.09Z</time></trkpt><trkpt lat="42.2436087" lon="13.9149032"><ele>184.8</ele><time>2026-05-02T08:43:31.087Z</time></trkpt><trkpt lat="42.2435347" lon="13.9148021"><ele>186.0</ele><time>2026-05-02T08:43:32.089Z</time></trkpt><trkpt lat="42.243466" lon="13.9146867"><ele>186.0</ele><time>2026-05-02T08:43:33.086Z</time></trkpt><trkpt lat="42.2434008" lon="13.9146006"><ele>186.0</ele><time>2026-05-02T08:43:34.093Z</time></trkpt><trkpt lat="42.2433442" lon="13.9145498"><ele>186.0</ele><time>2026-05-02T08:43:35.086Z</time></trkpt><trkpt lat="42.2432682" lon="13.9144408"><ele>186.0</ele><time>2026-05-02T08:43:37.086Z</time></trkpt><trkpt lat="42.243258" lon="13.9143539"><ele>186.0</ele><time>2026-05-02T08:43:38.088Z</time></trkpt><trkpt lat="42.2432604" lon="13.9142296"><ele>186.0</ele><time>2026-05-02T08:43:39.09Z</time></trkpt><trkpt lat="42.2432572" lon="13.914095"><ele>187.25</ele><time>2026-05-02T08:43:40.085Z</time></trkpt><trkpt lat="42.2432471" lon="13.9139436"><ele>188.5</ele><time>2026-05-02T08:43:41.089Z</time></trkpt><trkpt lat="42.243231" lon="13.9137713"><ele>189.75</ele><time>2026-05-02T08:43:42.094Z</time></trkpt><trkpt lat="42.2432215" lon="13.9136063"><ele>191.0</ele><time>2026-05-02T08:43:43.091Z</time></trkpt><trkpt lat="42.2432033" lon="13.9134663"><ele>191.0</ele><time>2026-05-02T08:43:44.098Z</time></trkpt><trkpt lat="42.2431789" lon="13.9133388"><ele>191.0</ele><time>2026-05-02T08:43:45.092Z</time></trkpt><trkpt lat="42.2431451" lon="13.913224"><ele>191.0</ele><time>2026-05-02T08:43:46.094Z</time></trkpt><trkpt lat="42.2431157" lon="13.9131076"><ele>191.0</ele><time>2026-05-02T08:43:47.093Z</time></trkpt><trkpt lat="42.2430731" lon="13.9129926"><ele>191.0</ele><time>2026-05-02T08:43:48.093Z</time></trkpt><trkpt lat="42.243" lon="13.9128692"><ele>191.0</ele><time>2026-05-02T08:43:49.095Z</time></trkpt><trkpt lat="42.2429245" lon="13.9127474"><ele>191.0</ele><time>2026-05-02T08:43:50.094Z</time></trkpt><trkpt lat="42.2428525" lon="13.9126332"><ele>191.0</ele><time>2026-05-02T08:43:51.091Z</time></trkpt><trkpt lat="42.242798" lon="13.9125181"><ele>191.0</ele><time>2026-05-02T08:43:52.094Z</time></trkpt><trkpt lat="42.2427585" lon="13.9124052"><ele>191.0</ele><time>2026-05-02T08:43:53.093Z</time></trkpt><trkpt lat="42.2427217" lon="13.9122922"><ele>191.20000000000002</ele><time>2026-05-02T08:43:54.091Z</time></trkpt><trkpt lat="42.2426846" lon="13.912197"><ele>191.4</ele><time>2026-05-02T08:43:55.094Z</time></trkpt><trkpt lat="42.2426123" lon="13.9120743"><ele>191.6</ele><time>2026-05-02T08:43:57.087Z</time></trkpt><trkpt lat="42.2425529" lon="13.9120228"><ele>191.8</ele><time>2026-05-02T08:43:59.088Z</time></trkpt><trkpt lat="42.2424614" lon="13.9120672"><ele>192.0</ele><time>2026-05-02T08:44:02.088Z</time></trkpt><trkpt lat="42.2423892" lon="13.9121596"><ele>192.0</ele><time>2026-05-02T08:44:04.091Z</time></trkpt><trkpt lat="42.2423233" lon="13.9122435"><ele>192.0</ele><time>2026-05-02T08:44:06.091Z</time></trkpt><trkpt lat="42.2422617" lon="13.9123178"><ele>192.0</ele><time>2026-05-02T08:44:08.088Z</time></trkpt><trkpt lat="42.2421754" lon="13.9124254"><ele>192.0</ele><time>2026-05-02T08:44:10.085Z</time></trkpt><trkpt lat="42.2421322" lon="13.9124941"><ele>192.0</ele><time>2026-05-02T08:44:11.092Z</time></trkpt><trkpt lat="42.2420837" lon="13.9125701"><ele>192.0</ele><time>2026-05-02T08:44:12.086Z</time></trkpt><trkpt lat="42.2420526" lon="13.9126689"><ele>194.0</ele><time>2026-05-02T08:44:13.089Z</time></trkpt><trkpt lat="42.2420322" lon="13.9127754"><ele>196.0</ele><time>2026-05-02T08:44:14.09Z</time></trkpt><trkpt lat="42.2420235" lon="13.9128853"><ele>198.0</ele><time>2026-05-02T08:44:15.087Z</time></trkpt><trkpt lat="42.2420168" lon="13.9129943"><ele>200.0</ele><time>2026-05-02T08:44:16.089Z</time></trkpt><trkpt lat="42.2419983" lon="13.9131203"><ele>202.0</ele><time>2026-05-02T08:44:17.088Z</time></trkpt><trkpt lat="42.2419764" lon="13.9132639"><ele>204.0</ele><time>2026-05-02T08:44:18.09Z</time></trkpt><trkpt lat="42.2419504" lon="13.9134169"><ele>204.0</ele><time>2026-05-02T08:44:19.089Z</time></trkpt><trkpt lat="42.2419227" lon="13.9135821"><ele>204.0</ele><time>2026-05-02T08:44:20.085Z</time></trkpt><trkpt lat="42.2418941" lon="13.9137665"><ele>204.0</ele><time>2026-05-02T08:44:21.09Z</time></trkpt><trkpt lat="42.241876" lon="13.9139363"><ele>204.0</ele><time>2026-05-02T08:44:22.084Z</time></trkpt><trkpt lat="42.2418725" lon="13.9140968"><ele>204.0</ele><time>2026-05-02T08:44:23.085Z</time></trkpt><trkpt lat="42.2418827" lon="13.9142242"><ele>204.0</ele><time>2026-05-02T08:44:24.085Z</time></trkpt><trkpt lat="42.2418936" lon="13.9143348"><ele>204.0</ele><time>2026-05-02T08:44:25.083Z</time></trkpt><trkpt lat="42.2419012" lon="13.9144403"><ele>204.0</ele><time>2026-05-02T08:44:26.081Z</time></trkpt><trkpt lat="42.241895" lon="13.9145485"><ele>204.0</ele><time>2026-05-02T08:44:27.085Z</time></trkpt><trkpt lat="42.2418759" lon="13.914633"><ele>204.0</ele><time>2026-05-02T08:44:28.086Z</time></trkpt><trkpt lat="42.2418012" lon="13.9147591"><ele>203.66666666666666</ele><time>2026-05-02T08:44:30.085Z</time></trkpt><trkpt lat="42.2417421" lon="13.9148266"><ele>203.33333333333331</ele><time>2026-05-02T08:44:31.089Z</time></trkpt><trkpt lat="42.24167" lon="13.9148895"><ele>203.0</ele><time>2026-05-02T08:44:32.089Z</time></trkpt><trkpt lat="42.2416049" lon="13.914922"><ele>202.66666666666666</ele><time>2026-05-02T08:44:33.092Z</time></trkpt><trkpt lat="42.2415424" lon="13.9149065"><ele>202.33333333333331</ele><time>2026-05-02T08:44:34.082Z</time></trkpt><trkpt lat="42.2414489" lon="13.9147453"><ele>202.0</ele><time>2026-05-02T08:44:36.088Z</time></trkpt><trkpt lat="42.2413959" lon="13.9146124"><ele>203.99999999999997</ele><time>2026-05-02T08:44:37.092Z</time></trkpt><trkpt lat="42.2413321" lon="13.9144843"><ele>206.0</ele><time>2026-05-02T08:44:38.09Z</time></trkpt><trkpt lat="42.2412645" lon="13.9143871"><ele>208.0</ele><time>2026-05-02T08:44:39.088Z</time></trkpt><trkpt lat="42.2412103" lon="13.9143157"><ele>210.0</ele><time>2026-05-02T08:44:40.087Z</time></trkpt><trkpt lat="42.2411651" lon="13.914246"><ele>211.99999999999997</ele><time>2026-05-02T08:44:41.085Z</time></trkpt><trkpt lat="42.2411214" lon="13.9141647"><ele>214.0</ele><time>2026-05-02T08:44:42.084Z</time></trkpt><trkpt lat="42.2410902" lon="13.9140559"><ele>214.79999999999998</ele><time>2026-05-02T08:44:43.08Z</time></trkpt><trkpt lat="42.2410692" lon="13.9139201"><ele>215.59999999999997</ele><time>2026-05-02T08:44:44.086Z</time></trkpt><trkpt lat="42.2410501" lon="13.9137761"><ele>216.4</ele><time>2026-05-02T08:44:45.089Z</time></trkpt><trkpt lat="42.2410237" lon="13.9136323"><ele>217.2</ele><time>2026-05-02T08:44:46.089Z</time></trkpt><trkpt lat="42.2409991" lon="13.9134983"><ele>218.0</ele><time>2026-05-02T08:44:47.084Z</time></trkpt><trkpt lat="42.2409655" lon="13.9133677"><ele>220.25</ele><time>2026-05-02T08:44:48.093Z</time></trkpt><trkpt lat="42.2409172" lon="13.9132397"><ele>222.5</ele><time>2026-05-02T08:44:49.088Z</time></trkpt><trkpt lat="42.2408489" lon="13.9131047"><ele>224.75</ele><time>2026-05-02T08:44:50.084Z</time></trkpt><trkpt lat="42.2407676" lon="13.9129725"><ele>227.0</ele><time>2026-05-02T08:44:51.085Z</time></trkpt><trkpt lat="42.240682" lon="13.9128332"><ele>226.75</ele><time>2026-05-02T08:44:52.089Z</time></trkpt><trkpt lat="42.2406067" lon="13.9127048"><ele>226.5</ele><time>2026-05-02T08:44:53.083Z</time></trkpt><trkpt lat="42.2405214" lon="13.9125882"><ele>226.25</ele><time>2026-05-02T08:44:54.085Z</time></trkpt><trkpt lat="42.2404227" lon="13.9124874"><ele>226.0</ele><time>2026-05-02T08:44:55.095Z</time></trkpt><trkpt lat="42.2403201" lon="13.9123745"><ele>229.0</ele><time>2026-05-02T08:44:56.095Z</time></trkpt><trkpt lat="42.2402252" lon="13.9122472"><ele>232.0</ele><time>2026-05-02T08:44:57.094Z</time></trkpt><trkpt lat="42.2401287" lon="13.9121177"><ele>235.0</ele><time>2026-05-02T08:44:58.096Z</time></trkpt><trkpt lat="42.2400478" lon="13.9120176"><ele>238.0</ele><time>2026-05-02T08:44:59.099Z</time></trkpt><trkpt lat="42.2399735" lon="13.9119208"><ele>237.99999999999997</ele><time>2026-05-02T08:45:00.097Z</time></trkpt><trkpt lat="42.2399189" lon="13.9118441"><ele>238.0</ele><time>2026-05-02T08:45:01.086Z</time></trkpt><trkpt lat="42.239838" lon="13.9117662"><ele>238.0</ele><time>2026-05-02T08:45:03.09Z</time></trkpt><trkpt lat="42.2397926" lon="13.9116442"><ele>238.0</ele><time>2026-05-02T08:45:05.088Z</time></trkpt><trkpt lat="42.2397773" lon="13.9115417"><ele>237.99999999999997</ele><time>2026-05-02T08:45:06.09Z</time></trkpt><trkpt lat="42.2397597" lon="13.9114466"><ele>238.0</ele><time>2026-05-02T08:45:07.094Z</time></trkpt><trkpt lat="42.2397408" lon="13.9113145"><ele>240.2</ele><time>2026-05-02T08:45:09.09Z</time></trkpt><trkpt lat="42.2397021" lon="13.9111543"><ele>242.4</ele><time>2026-05-02T08:45:11.086Z</time></trkpt><trkpt lat="42.2396691" lon="13.9110567"><ele>244.59999999999997</ele><time>2026-05-02T08:45:12.091Z</time></trkpt><trkpt lat="42.2396258" lon="13.9109517"><ele>246.79999999999998</ele><time>2026-05-02T08:45:13.092Z</time></trkpt><trkpt lat="42.2395868" lon="13.9108462"><ele>249.0</ele><time>2026-05-02T08:45:14.096Z</time></trkpt><trkpt lat="42.2395447" lon="13.9107476"><ele>249.16666666666666</ele><time>2026-05-02T08:45:15.094Z</time></trkpt><trkpt lat="42.2395033" lon="13.91066"><ele>249.33333333333331</ele><time>2026-05-02T08:45:16.092Z</time></trkpt><trkpt lat="42.2394498" lon="13.9105889"><ele>249.5</ele><time>2026-05-02T08:45:17.096Z</time></trkpt><trkpt lat="42.2393872" lon="13.9105303"><ele>249.66666666666666</ele><time>2026-05-02T08:45:18.099Z</time></trkpt><trkpt lat="42.2393172" lon="13.9104717"><ele>249.83333333333331</ele><time>2026-05-02T08:45:19.095Z</time></trkpt><trkpt lat="42.2392531" lon="13.9103966"><ele>250.0</ele><time>2026-05-02T08:45:20.091Z</time></trkpt><trkpt lat="42.2391824" lon="13.9103096"><ele>250.0</ele><time>2026-05-02T08:45:21.088Z</time></trkpt><trkpt lat="42.2391205" lon="13.9102029"><ele>250.0</ele><time>2026-05-02T08:45:22.098Z</time></trkpt><trkpt lat="42.2390554" lon="13.9101061"><ele>250.0</ele><time>2026-05-02T08:45:23.096Z</time></trkpt><trkpt lat="42.2389876" lon="13.9099964"><ele>250.0</ele><time>2026-05-02T08:45:24.085Z</time></trkpt><trkpt lat="42.2389194" lon="13.9099049"><ele>250.0</ele><time>2026-05-02T08:45:25.092Z</time></trkpt><trkpt lat="42.2388579" lon="13.90983"><ele>252.49999999999997</ele><time>2026-05-02T08:45:26.095Z</time></trkpt><trkpt lat="42.2388101" lon="13.9097653"><ele>255.0</ele><time>2026-05-02T08:45:27.095Z</time></trkpt><trkpt lat="42.2387532" lon="13.9097106"><ele>257.5</ele><time>2026-05-02T08:45:28.094Z</time></trkpt><trkpt lat="42.2386865" lon="13.909667"><ele>260.0</ele><time>2026-05-02T08:45:29.093Z</time></trkpt><trkpt lat="42.2386011" lon="13.909622"><ele>262.5</ele><time>2026-05-02T08:45:30.093Z</time></trkpt><trkpt lat="42.2385163" lon="13.909566"><ele>265.0</ele><time>2026-05-02T08:45:31.091Z</time></trkpt><trkpt lat="42.2384413" lon="13.9095045"><ele>265.0</ele><time>2026-05-02T08:45:32.092Z</time></trkpt><trkpt lat="42.2383669" lon="13.9094241"><ele>265.0</ele><time>2026-05-02T08:45:33.092Z</time></trkpt><trkpt lat="42.2383062" lon="13.9093389"><ele>265.0</ele><time>2026-05-02T08:45:34.09Z</time></trkpt><trkpt lat="42.2382428" lon="13.9092509"><ele>265.0</ele><time>2026-05-02T08:45:35.086Z</time></trkpt><trkpt lat="42.2381849" lon="13.9091738"><ele>265.0</ele><time>2026-05-02T08:45:36.095Z</time></trkpt><trkpt lat="42.2381183" lon="13.9091107"><ele>265.0</ele><time>2026-05-02T08:45:37.087Z</time></trkpt><trkpt lat="42.2380509" lon="13.909078"><ele>266.57142857142856</ele><time>2026-05-02T08:45:38.083Z</time></trkpt><trkpt lat="42.2379839" lon="13.9090607"><ele>268.1428571428571</ele><time>2026-05-02T08:45:39.086Z</time></trkpt><trkpt lat="42.2379177" lon="13.9090583"><ele>269.7142857142857</ele><time>2026-05-02T08:45:40.082Z</time></trkpt><trkpt lat="42.2378469" lon="13.9090596"><ele>271.2857142857143</ele><time>2026-05-02T08:45:41.084Z</time></trkpt><trkpt lat="42.2377398" lon="13.909101"><ele>272.8571428571429</ele><time>2026-05-02T08:45:43.082Z</time></trkpt><trkpt lat="42.2376771" lon="13.9091209"><ele>274.42857142857144</ele><time>2026-05-02T08:45:45.087Z</time></trkpt><trkpt lat="42.2376378" lon="13.9090511"><ele>276.0</ele><time>2026-05-02T08:45:47.098Z</time></trkpt><trkpt lat="42.2376016" lon="13.9088722"><ele>276.0</ele><time>2026-05-02T08:45:49.09Z</time></trkpt><trkpt lat="42.23757" lon="13.908765"><ele>276.0</ele><time>2026-05-02T08:45:50.088Z</time></trkpt><trkpt lat="42.2375272" lon="13.9086518"><ele>276.0</ele><time>2026-05-02T08:45:51.096Z</time></trkpt><trkpt lat="42.2374884" lon="13.9085286"><ele>276.0</ele><time>2026-05-02T08:45:52.091Z</time></trkpt><trkpt lat="42.237449" lon="13.9084031"><ele>276.0</ele><time>2026-05-02T08:45:53.093Z</time></trkpt><trkpt lat="42.2374154" lon="13.9083004"><ele>276.5</ele><time>2026-05-02T08:45:54.096Z</time></trkpt><trkpt lat="42.2373714" lon="13.9082054"><ele>277.0</ele><time>2026-05-02T08:45:55.091Z</time></trkpt><trkpt lat="42.2373253" lon="13.9081055"><ele>277.5</ele><time>2026-05-02T08:45:56.095Z</time></trkpt><trkpt lat="42.2372807" lon="13.9079951"><ele>278.0</ele><time>2026-05-02T08:45:57.094Z</time></trkpt><trkpt lat="42.2372288" lon="13.9078883"><ele>278.5</ele><time>2026-05-02T08:45:58.096Z</time></trkpt><trkpt lat="42.2371735" lon="13.9077915"><ele>279.0</ele><time>2026-05-02T08:45:59.096Z</time></trkpt><trkpt lat="42.237115" lon="13.9076898"><ele>279.0</ele><time>2026-05-02T08:46:00.094Z</time></trkpt><trkpt lat="42.2370647" lon="13.9075885"><ele>279.0</ele><time>2026-05-02T08:46:01.089Z</time></trkpt><trkpt lat="42.2370231" lon="13.9075002"><ele>279.0</ele><time>2026-05-02T08:46:02.095Z</time></trkpt><trkpt lat="42.2369754" lon="13.9074195"><ele>279.0</ele><time>2026-05-02T08:46:03.092Z</time></trkpt><trkpt lat="42.236921" lon="13.9073359"><ele>279.0</ele><time>2026-05-02T08:46:04.094Z</time></trkpt><trkpt lat="42.2368715" lon="13.90725"><ele>279.0</ele><time>2026-05-02T08:46:05.094Z</time></trkpt><trkpt lat="42.2368366" lon="13.9071655"><ele>279.0</ele><time>2026-05-02T08:46:06.088Z</time></trkpt><trkpt lat="42.2368099" lon="13.9070775"><ele>279.0</ele><time>2026-05-02T08:46:07.1Z</time></trkpt><trkpt lat="42.2367873" lon="13.9069889"><ele>279.0</ele><time>2026-05-02T08:46:08.089Z</time></trkpt><trkpt lat="42.2367647" lon="13.906907"><ele>279.0</ele><time>2026-05-02T08:46:09.099Z</time></trkpt><trkpt lat="42.2367228" lon="13.9067634"><ele>279.0</ele><time>2026-05-02T08:46:11.092Z</time></trkpt><trkpt lat="42.236667" lon="13.9066619"><ele>279.0</ele><time>2026-05-02T08:46:13.094Z</time></trkpt><trkpt lat="42.2365922" lon="13.9065956"><ele>278.5</ele><time>2026-05-02T08:46:15.093Z</time></trkpt><trkpt lat="42.2364968" lon="13.9065137"><ele>278.0</ele><time>2026-05-02T08:46:17.09Z</time></trkpt><trkpt lat="42.2364296" lon="13.9064331"><ele>277.5</ele><time>2026-05-02T08:46:19.084Z</time></trkpt><trkpt lat="42.2363835" lon="13.9063529"><ele>277.0</ele><time>2026-05-02T08:46:21.09Z</time></trkpt><trkpt lat="42.2363398" lon="13.9062742"><ele>276.5</ele><time>2026-05-02T08:46:23.085Z</time></trkpt><trkpt lat="42.2362916" lon="13.9061982"><ele>276.0</ele><time>2026-05-02T08:54:55.107Z</time></trkpt><trkpt lat="42.2362637" lon="13.9061079"><ele>276.0</ele><time>2026-05-02T08:54:57.115Z</time></trkpt><trkpt lat="42.2362409" lon="13.9060062"><ele>276.0</ele><time>2026-05-02T08:54:58.121Z</time></trkpt><trkpt lat="42.2362064" lon="13.9058716"><ele>276.0</ele><time>2026-05-02T08:54:59.124Z</time></trkpt><trkpt lat="42.2361732" lon="13.9057217"><ele>276.0</ele><time>2026-05-02T08:55:00.114Z</time></trkpt><trkpt lat="42.2361344" lon="13.9055555"><ele>276.0</ele><time>2026-05-02T08:55:01.123Z</time></trkpt><trkpt lat="42.2360908" lon="13.9053891"><ele>279.0</ele><time>2026-05-02T08:55:02.12Z</time></trkpt><trkpt lat="42.2360292" lon="13.9052309"><ele>282.0</ele><time>2026-05-02T08:55:03.126Z</time></trkpt><trkpt lat="42.2359732" lon="13.9050821"><ele>285.0</ele><time>2026-05-02T08:55:04.111Z</time></trkpt><trkpt lat="42.2359098" lon="13.9049397"><ele>288.0</ele><time>2026-05-02T08:55:05.125Z</time></trkpt><trkpt lat="42.2358412" lon="13.9048032"><ele>289.25</ele><time>2026-05-02T08:55:06.115Z</time></trkpt><trkpt lat="42.2357801" lon="13.9046594"><ele>290.5</ele><time>2026-05-02T08:55:07.12Z</time></trkpt><trkpt lat="42.2357162" lon="13.9045059"><ele>291.75</ele><time>2026-05-02T08:55:08.101Z</time></trkpt><trkpt lat="42.2356487" lon="13.9043479"><ele>293.0</ele><time>2026-05-02T08:55:09.119Z</time></trkpt><trkpt lat="42.2355773" lon="13.9042054"><ele>293.0</ele><time>2026-05-02T08:55:10.105Z</time></trkpt><trkpt lat="42.2355069" lon="13.9040784"><ele>293.0</ele><time>2026-05-02T08:55:11.119Z</time></trkpt><trkpt lat="42.2354506" lon="13.9039379"><ele>293.0</ele><time>2026-05-02T08:55:12.107Z</time></trkpt><trkpt lat="42.2354032" lon="13.9037865"><ele>293.0</ele><time>2026-05-02T08:55:13.103Z</time></trkpt><trkpt lat="42.2353686" lon="13.903625"><ele>293.0</ele><time>2026-05-02T08:55:14.108Z</time></trkpt><trkpt lat="42.2353444" lon="13.903462"><ele>293.0</ele><time>2026-05-02T08:55:15.103Z</time></trkpt><trkpt lat="42.235325" lon="13.9032956"><ele>293.0</ele><time>2026-05-02T08:55:16.114Z</time></trkpt><trkpt lat="42.2353044" lon="13.9031334"><ele>293.0</ele><time>2026-05-02T08:55:17.122Z</time></trkpt><trkpt lat="42.2352888" lon="13.9029801"><ele>293.33333333333337</ele><time>2026-05-02T08:55:18.119Z</time></trkpt><trkpt lat="42.235276" lon="13.9028506"><ele>293.6666666666667</ele><time>2026-05-02T08:55:19.107Z</time></trkpt><trkpt lat="42.2352688" lon="13.9027559"><ele>294.0</ele><time>2026-05-02T08:55:20.114Z</time></trkpt><trkpt lat="42.2352967" lon="13.9026597"><ele>294.3333333333333</ele><time>2026-05-02T08:55:22.105Z</time></trkpt><trkpt lat="42.2353697" lon="13.9027213"><ele>294.66666666666663</ele><time>2026-05-02T08:55:24.115Z</time></trkpt><trkpt lat="42.2353979" lon="13.9028082"><ele>295.0</ele><time>2026-05-02T08:55:25.108Z</time></trkpt><trkpt lat="42.2354132" lon="13.9029326"><ele>295.0</ele><time>2026-05-02T08:55:26.112Z</time></trkpt><trkpt lat="42.2354332" lon="13.903101"><ele>295.0</ele><time>2026-05-02T08:55:27.105Z</time></trkpt><trkpt lat="42.2354695" lon="13.9032717"><ele>295.0</ele><time>2026-05-02T08:55:28.11Z</time></trkpt><trkpt lat="42.2355185" lon="13.9034422"><ele>295.0</ele><time>2026-05-02T08:55:29.115Z</time></trkpt><trkpt lat="42.2355763" lon="13.9035911"><ele>294.66666666666663</ele><time>2026-05-02T08:55:30.108Z</time></trkpt><trkpt lat="42.2356329" lon="13.9037231"><ele>294.3333333333333</ele><time>2026-05-02T08:55:31.108Z</time></trkpt><trkpt lat="42.2356897" lon="13.9038327"><ele>294.0</ele><time>2026-05-02T08:55:32.107Z</time></trkpt><trkpt lat="42.2357517" lon="13.9039046"><ele>293.6666666666667</ele><time>2026-05-02T08:55:33.104Z</time></trkpt><trkpt lat="42.2358212" lon="13.9039364"><ele>293.33333333333337</ele><time>2026-05-02T08:55:34.11Z</time></trkpt><trkpt lat="42.2358811" lon="13.9038969"><ele>293.0</ele><time>2026-05-02T08:55:35.115Z</time></trkpt><trkpt lat="42.235928" lon="13.9038191"><ele>295.25</ele><time>2026-05-02T08:55:36.113Z</time></trkpt><trkpt lat="42.2359419" lon="13.9036972"><ele>297.5</ele><time>2026-05-02T08:55:37.109Z</time></trkpt><trkpt lat="42.2359372" lon="13.9035428"><ele>299.75</ele><time>2026-05-02T08:55:38.111Z</time></trkpt><trkpt lat="42.2359253" lon="13.9033653"><ele>302.0</ele><time>2026-05-02T08:55:39.115Z</time></trkpt><trkpt lat="42.2359093" lon="13.9031794"><ele>303.5</ele><time>2026-05-02T08:55:40.101Z</time></trkpt><trkpt lat="42.2358966" lon="13.9029877"><ele>305.0</ele><time>2026-05-02T08:55:41.12Z</time></trkpt><trkpt lat="42.2358823" lon="13.9027992"><ele>306.5</ele><time>2026-05-02T08:55:42.114Z</time></trkpt><trkpt lat="42.23587" lon="13.902603"><ele>308.0</ele><time>2026-05-02T08:55:43.121Z</time></trkpt><trkpt lat="42.2358602" lon="13.9024179"><ele>310.0</ele><time>2026-05-02T08:55:44.111Z</time></trkpt><trkpt lat="42.235845" lon="13.9022383"><ele>312.0</ele><time>2026-05-02T08:55:45.121Z</time></trkpt><trkpt lat="42.2358292" lon="13.9020625"><ele>314.0</ele><time>2026-05-02T08:55:46.117Z</time></trkpt><trkpt lat="42.2358142" lon="13.901891"><ele>316.0</ele><time>2026-05-02T08:55:47.12Z</time></trkpt><trkpt lat="42.2357991" lon="13.9017223"><ele>317.5</ele><time>2026-05-02T08:55:48.118Z</time></trkpt><trkpt lat="42.235786" lon="13.9015594"><ele>319.0</ele><time>2026-05-02T08:55:49.117Z</time></trkpt><trkpt lat="42.2357741" lon="13.9013871"><ele>320.5</ele><time>2026-05-02T08:55:50.114Z</time></trkpt><trkpt lat="42.2357556" lon="13.9012071"><ele>322.0</ele><time>2026-05-02T08:55:51.114Z</time></trkpt><trkpt lat="42.2357436" lon="13.9010316"><ele>323.75</ele><time>2026-05-02T08:55:52.114Z</time></trkpt><trkpt lat="42.2357287" lon="13.9008583"><ele>325.5</ele><time>2026-05-02T08:55:53.116Z</time></trkpt><trkpt lat="42.2357096" lon="13.9006849"><ele>327.25</ele><time>2026-05-02T08:55:54.115Z</time></trkpt><trkpt lat="42.2356976" lon="13.9005019"><ele>329.0</ele><time>2026-05-02T08:55:55.115Z</time></trkpt><trkpt lat="42.2356831" lon="13.9003258"><ele>329.0</ele><time>2026-05-02T08:55:56.112Z</time></trkpt><trkpt lat="42.2356761" lon="13.9001578"><ele>329.0</ele><time>2026-05-02T08:55:57.112Z</time></trkpt><trkpt lat="42.2356717" lon="13.9000035"><ele>329.0</ele><time>2026-05-02T08:55:58.107Z</time></trkpt><trkpt lat="42.2356706" lon="13.8998556"><ele>329.0</ele><time>2026-05-02T08:55:59.109Z</time></trkpt><trkpt lat="42.2356846" lon="13.8997134"><ele>329.6</ele><time>2026-05-02T08:56:00.104Z</time></trkpt><trkpt lat="42.2357007" lon="13.899566"><ele>330.2</ele><time>2026-05-02T08:56:01.103Z</time></trkpt><trkpt lat="42.2357284" lon="13.8994233"><ele>330.8</ele><time>2026-05-02T08:56:02.101Z</time></trkpt><trkpt lat="42.2357538" lon="13.8992836"><ele>331.40000000000003</ele><time>2026-05-02T08:56:03.097Z</time></trkpt><trkpt lat="42.2357663" lon="13.8991627"><ele>332.0</ele><time>2026-05-02T08:56:04.09Z</time></trkpt><trkpt lat="42.235761" lon="13.8990439"><ele>333.33333333333337</ele><time>2026-05-02T08:56:05.1Z</time></trkpt><trkpt lat="42.2357596" lon="13.8989277"><ele>334.6666666666667</ele><time>2026-05-02T08:56:06.104Z</time></trkpt><trkpt lat="42.2357642" lon="13.8988218"><ele>336.0</ele><time>2026-05-02T08:56:07.111Z</time></trkpt><trkpt lat="42.2357568" lon="13.898707"><ele>337.3333333333333</ele><time>2026-05-02T08:56:08.093Z</time></trkpt><trkpt lat="42.2357486" lon="13.8985818"><ele>338.66666666666663</ele><time>2026-05-02T08:56:09.108Z</time></trkpt><trkpt lat="42.2357453" lon="13.8984486"><ele>340.0</ele><time>2026-05-02T08:56:10.099Z</time></trkpt><trkpt lat="42.235754" lon="13.8983136"><ele>341.6</ele><time>2026-05-02T08:56:11.094Z</time></trkpt><trkpt lat="42.2357494" lon="13.8981736"><ele>343.2</ele><time>2026-05-02T08:56:12.094Z</time></trkpt><trkpt lat="42.2357387" lon="13.8980421"><ele>344.79999999999995</ele><time>2026-05-02T08:56:13.103Z</time></trkpt><trkpt lat="42.2357125" lon="13.8979182"><ele>346.4</ele><time>2026-05-02T08:56:14.106Z</time></trkpt><trkpt lat="42.2356752" lon="13.8977921"><ele>348.0</ele><time>2026-05-02T08:56:15.098Z</time></trkpt><trkpt lat="42.2356489" lon="13.8976543"><ele>349.25</ele><time>2026-05-02T08:56:16.091Z</time></trkpt><trkpt lat="42.2356392" lon="13.8975091"><ele>350.5</ele><time>2026-05-02T08:56:17.097Z</time></trkpt><trkpt lat="42.235661" lon="13.8973575"><ele>351.75</ele><time>2026-05-02T08:56:18.101Z</time></trkpt><trkpt lat="42.2356864" lon="13.8972023"><ele>353.0</ele><time>2026-05-02T08:56:19.099Z</time></trkpt><trkpt lat="42.2357131" lon="13.897052"><ele>353.0</ele><time>2026-05-02T08:56:20.096Z</time></trkpt><trkpt lat="42.235736" lon="13.8968993"><ele>353.0</ele><time>2026-05-02T08:56:21.095Z</time></trkpt><trkpt lat="42.235769" lon="13.8967568"><ele>353.0</ele><time>2026-05-02T08:56:22.093Z</time></trkpt><trkpt lat="42.2358016" lon="13.8966253"><ele>353.0</ele><time>2026-05-02T08:56:23.095Z</time></trkpt><trkpt lat="42.2358445" lon="13.8964934"><ele>353.0</ele><time>2026-05-02T08:56:24.098Z</time></trkpt><trkpt lat="42.2358816" lon="13.8963584"><ele>353.0</ele><time>2026-05-02T08:56:25.105Z</time></trkpt><trkpt lat="42.2359113" lon="13.896223"><ele>353.0</ele><time>2026-05-02T08:56:26.097Z</time></trkpt><trkpt lat="42.2359313" lon="13.8960644"><ele>353.0</ele><time>2026-05-02T08:56:27.103Z</time></trkpt><trkpt lat="42.2359516" lon="13.8959015"><ele>353.0</ele><time>2026-05-02T08:56:28.09Z</time></trkpt><trkpt lat="42.235966" lon="13.8957293"><ele>352.0</ele><time>2026-05-02T08:56:29.107Z</time></trkpt><trkpt lat="42.2359876" lon="13.8955622"><ele>351.0</ele><time>2026-05-02T08:56:30.1Z</time></trkpt><trkpt lat="42.2360203" lon="13.8954113"><ele>350.0</ele><time>2026-05-02T08:56:31.104Z</time></trkpt><trkpt lat="42.2360528" lon="13.8952648"><ele>349.0</ele><time>2026-05-02T08:56:32.094Z</time></trkpt><trkpt lat="42.2360733" lon="13.8951074"><ele>348.6</ele><time>2026-05-02T08:56:33.102Z</time></trkpt><trkpt lat="42.2360892" lon="13.8949688"><ele>348.2</ele><time>2026-05-02T08:56:34.101Z</time></trkpt><trkpt lat="42.2360947" lon="13.8948296"><ele>347.8</ele><time>2026-05-02T08:56:35.107Z</time></trkpt><trkpt lat="42.2360999" lon="13.8946894"><ele>347.40000000000003</ele><time>2026-05-02T08:56:36.099Z</time></trkpt><trkpt lat="42.2361023" lon="13.8945672"><ele>347.0</ele><time>2026-05-02T08:56:37.103Z</time></trkpt><trkpt lat="42.2361102" lon="13.8944495"><ele>347.0</ele><time>2026-05-02T08:56:38.104Z</time></trkpt><trkpt lat="42.2361319" lon="13.8943308"><ele>347.0</ele><time>2026-05-02T08:56:39.102Z</time></trkpt><trkpt lat="42.2361649" lon="13.8942106"><ele>347.0</ele><time>2026-05-02T08:56:40.1Z</time></trkpt><trkpt lat="42.2362152" lon="13.8940823"><ele>347.0</ele><time>2026-05-02T08:56:41.102Z</time></trkpt><trkpt lat="42.2362525" lon="13.8939248"><ele>347.0</ele><time>2026-05-02T08:56:42.106Z</time></trkpt><trkpt lat="42.2362622" lon="13.8937464"><ele>346.6666666666667</ele><time>2026-05-02T08:56:43.109Z</time></trkpt><trkpt lat="42.2362703" lon="13.8935564"><ele>346.3333333333333</ele><time>2026-05-02T08:56:44.121Z</time></trkpt><trkpt lat="42.2362868" lon="13.8933225"><ele>346.0</ele><time>2026-05-02T08:56:45.118Z</time></trkpt><trkpt lat="42.236266" lon="13.8930859"><ele>346.0</ele><time>2026-05-02T08:56:46.117Z</time></trkpt><trkpt lat="42.2362665" lon="13.8928824"><ele>346.0</ele><time>2026-05-02T08:56:47.118Z</time></trkpt><trkpt lat="42.2362642" lon="13.8926851"><ele>346.0</ele><time>2026-05-02T08:56:48.128Z</time></trkpt><trkpt lat="42.2362615" lon="13.892503"><ele>346.0</ele><time>2026-05-02T08:56:49.133Z</time></trkpt><trkpt lat="42.2362506" lon="13.8923022"><ele>347.5</ele><time>2026-05-02T08:56:50.124Z</time></trkpt><trkpt lat="42.2362335" lon="13.892106"><ele>349.0</ele><time>2026-05-02T08:56:51.119Z</time></trkpt><trkpt lat="42.2362021" lon="13.8919067"><ele>350.5</ele><time>2026-05-02T08:56:52.121Z</time></trkpt><trkpt lat="42.2361706" lon="13.8917578"><ele>352.0</ele><time>2026-05-02T08:56:53.122Z</time></trkpt><trkpt lat="42.2361028" lon="13.8915835"><ele>354.0</ele><time>2026-05-02T08:56:54.12Z</time></trkpt><trkpt lat="42.2359877" lon="13.8914189"><ele>356.0</ele><time>2026-05-02T08:56:55.116Z</time></trkpt><trkpt lat="42.2358993" lon="13.8912593"><ele>358.0</ele><time>2026-05-02T08:56:56.122Z</time></trkpt><trkpt lat="42.2358364" lon="13.8911022"><ele>360.0</ele><time>2026-05-02T08:56:57.121Z</time></trkpt><trkpt lat="42.2358255" lon="13.8909562"><ele>362.5</ele><time>2026-05-02T08:56:58.132Z</time></trkpt><trkpt lat="42.2357814" lon="13.8907516"><ele>365.0</ele><time>2026-05-02T08:56:59.119Z</time></trkpt><trkpt lat="42.2357477" lon="13.8905615"><ele>367.5</ele><time>2026-05-02T08:57:00.115Z</time></trkpt><trkpt lat="42.235726" lon="13.8903725"><ele>370.0</ele><time>2026-05-02T08:57:01.119Z</time></trkpt><trkpt lat="42.2357078" lon="13.890207"><ele>369.25</ele><time>2026-05-02T08:57:02.119Z</time></trkpt><trkpt lat="42.2356465" lon="13.8900136"><ele>368.5</ele><time>2026-05-02T08:57:03.121Z</time></trkpt><trkpt lat="42.2355852" lon="13.8898745"><ele>367.75</ele><time>2026-05-02T08:57:04.12Z</time></trkpt><trkpt lat="42.2355241" lon="13.8897237"><ele>367.0</ele><time>2026-05-02T08:57:05.117Z</time></trkpt><trkpt lat="42.2354591" lon="13.8895765"><ele>366.75</ele><time>2026-05-02T08:57:06.121Z</time></trkpt><trkpt lat="42.2353896" lon="13.8894176"><ele>366.5</ele><time>2026-05-02T08:57:07.114Z</time></trkpt><trkpt lat="42.2353111" lon="13.8892638"><ele>366.25</ele><time>2026-05-02T08:57:08.121Z</time></trkpt><trkpt lat="42.2352314" lon="13.8891066"><ele>366.0</ele><time>2026-05-02T08:57:09.114Z</time></trkpt><trkpt lat="42.2351602" lon="13.8889384"><ele>369.3333333333333</ele><time>2026-05-02T08:57:10.114Z</time></trkpt><trkpt lat="42.2350896" lon="13.888773"><ele>372.66666666666663</ele><time>2026-05-02T08:57:11.115Z</time></trkpt><trkpt lat="42.2349817" lon="13.8885978"><ele>376.0</ele><time>2026-05-02T08:57:12.113Z</time></trkpt><trkpt lat="42.2348791" lon="13.8884283"><ele>378.0</ele><time>2026-05-02T08:57:13.138Z</time></trkpt><trkpt lat="42.2347636" lon="13.8882535"><ele>380.0</ele><time>2026-05-02T08:57:14.129Z</time></trkpt><trkpt lat="42.2346632" lon="13.8880803"><ele>382.0</ele><time>2026-05-02T08:57:15.137Z</time></trkpt><trkpt lat="42.2345586" lon="13.8878899"><ele>382.0</ele><time>2026-05-02T08:57:16.14Z</time></trkpt><trkpt lat="42.2344315" lon="13.8876989"><ele>382.0</ele><time>2026-05-02T08:57:17.128Z</time></trkpt><trkpt lat="42.234322" lon="13.8875174"><ele>382.0</ele><time>2026-05-02T08:57:18.127Z</time></trkpt><trkpt lat="42.2342049" lon="13.8873476"><ele>382.3333333333333</ele><time>2026-05-02T08:57:19.126Z</time></trkpt><trkpt lat="42.2341101" lon="13.8871755"><ele>382.6666666666667</ele><time>2026-05-02T08:57:20.12Z</time></trkpt><trkpt lat="42.2340151" lon="13.8869967"><ele>383.0</ele><time>2026-05-02T08:57:21.129Z</time></trkpt><trkpt lat="42.2339037" lon="13.8868249"><ele>386.79999999999995</ele><time>2026-05-02T08:57:22.127Z</time></trkpt><trkpt lat="42.2338159" lon="13.8867206"><ele>390.6</ele><time>2026-05-02T08:57:23.117Z</time></trkpt><trkpt lat="42.2337141" lon="13.8866385"><ele>394.4</ele><time>2026-05-02T08:57:24.11Z</time></trkpt><trkpt lat="42.2336252" lon="13.8865955"><ele>398.20000000000005</ele><time>2026-05-02T08:57:25.12Z</time></trkpt><trkpt lat="42.2335414" lon="13.8865283"><ele>402.0</ele><time>2026-05-02T08:57:26.117Z</time></trkpt><trkpt lat="42.2334961" lon="13.8864379"><ele>402.0</ele><time>2026-05-02T08:57:27.119Z</time></trkpt><trkpt lat="42.2335152" lon="13.8863301"><ele>402.0</ele><time>2026-05-02T08:57:28.115Z</time></trkpt><trkpt lat="42.233569" lon="13.8862483"><ele>402.0</ele><time>2026-05-02T08:57:29.12Z</time></trkpt><trkpt lat="42.2336443" lon="13.886205"><ele>402.0</ele><time>2026-05-02T08:57:30.102Z</time></trkpt><trkpt lat="42.2337323" lon="13.8862231"><ele>402.0</ele><time>2026-05-02T08:57:31.106Z</time></trkpt><trkpt lat="42.2338372" lon="13.8862945"><ele>402.0</ele><time>2026-05-02T08:57:32.094Z</time></trkpt><trkpt lat="42.2339595" lon="13.8863925"><ele>402.0</ele><time>2026-05-02T08:57:33.12Z</time></trkpt><trkpt lat="42.2340961" lon="13.8865287"><ele>402.0</ele><time>2026-05-02T08:57:34.116Z</time></trkpt><trkpt lat="42.2342222" lon="13.8867411"><ele>401.75</ele><time>2026-05-02T08:57:35.11Z</time></trkpt><trkpt lat="42.2343211" lon="13.8868933"><ele>401.5</ele><time>2026-05-02T08:57:36.104Z</time></trkpt><trkpt lat="42.2344086" lon="13.8870179"><ele>401.25</ele><time>2026-05-02T08:57:37.119Z</time></trkpt><trkpt lat="42.2345121" lon="13.8870584"><ele>401.0</ele><time>2026-05-02T08:57:38.114Z</time></trkpt><trkpt lat="42.2346103" lon="13.8870465"><ele>401.0</ele><time>2026-05-02T08:57:39.114Z</time></trkpt><trkpt lat="42.2346806" lon="13.8869768"><ele>401.0</ele><time>2026-05-02T08:57:40.111Z</time></trkpt><trkpt lat="42.2347078" lon="13.8868608"><ele>401.0</ele><time>2026-05-02T08:57:41.117Z</time></trkpt><trkpt lat="42.2347075" lon="13.8867409"><ele>401.0</ele><time>2026-05-02T08:57:42.109Z</time></trkpt><trkpt lat="42.2346605" lon="13.8866191"><ele>401.0</ele><time>2026-05-02T08:57:43.113Z</time></trkpt><trkpt lat="42.2345685" lon="13.8864961"><ele>406.3333333333333</ele><time>2026-05-02T08:57:44.105Z</time></trkpt><trkpt lat="42.2344575" lon="13.8863769"><ele>411.66666666666663</ele><time>2026-05-02T08:57:45.113Z</time></trkpt><trkpt lat="42.2343471" lon="13.8862379"><ele>417.0</ele><time>2026-05-02T08:57:46.112Z</time></trkpt><trkpt lat="42.2342164" lon="13.8860483"><ele>421.33333333333337</ele><time>2026-05-02T08:57:47.113Z</time></trkpt><trkpt lat="42.2341337" lon="13.8858678"><ele>425.6666666666667</ele><time>2026-05-02T08:57:48.115Z</time></trkpt><trkpt lat="42.234077" lon="13.8856697"><ele>430.0</ele><time>2026-05-02T08:57:49.104Z</time></trkpt><trkpt lat="42.2340288" lon="13.8854611"><ele>430.0</ele><time>2026-05-02T08:57:50.114Z</time></trkpt><trkpt lat="42.2339911" lon="13.8852257"><ele>430.0</ele><time>2026-05-02T08:57:51.109Z</time></trkpt><trkpt lat="42.2339633" lon="13.8849684"><ele>430.0</ele><time>2026-05-02T08:57:52.122Z</time></trkpt><trkpt lat="42.2339244" lon="13.8846975"><ele>429.33333333333337</ele><time>2026-05-02T08:57:53.126Z</time></trkpt><trkpt lat="42.2338769" lon="13.8844571"><ele>428.66666666666663</ele><time>2026-05-02T08:57:54.121Z</time></trkpt><trkpt lat="42.2338347" lon="13.8842181"><ele>428.0</ele><time>2026-05-02T08:57:55.127Z</time></trkpt><trkpt lat="42.2337953" lon="13.8839641"><ele>433.66666666666663</ele><time>2026-05-02T08:57:56.128Z</time></trkpt><trkpt lat="42.2337395" lon="13.8837406"><ele>439.33333333333337</ele><time>2026-05-02T08:57:57.124Z</time></trkpt><trkpt lat="42.2336869" lon="13.8834884"><ele>445.0</ele><time>2026-05-02T08:57:58.129Z</time></trkpt><trkpt lat="42.2336294" lon="13.8832618"><ele>450.33333333333337</ele><time>2026-05-02T08:57:59.121Z</time></trkpt><trkpt lat="42.2335785" lon="13.8830367"><ele>455.66666666666663</ele><time>2026-05-02T08:58:00.119Z</time></trkpt><trkpt lat="42.2335544" lon="13.8827926"><ele>461.0</ele><time>2026-05-02T08:58:01.104Z</time></trkpt><trkpt lat="42.2335747" lon="13.8825417"><ele>465.66666666666663</ele><time>2026-05-02T08:58:02.105Z</time></trkpt><trkpt lat="42.2336276" lon="13.8823003"><ele>470.33333333333337</ele><time>2026-05-02T08:58:03.106Z</time></trkpt><trkpt lat="42.2336655" lon="13.8820423"><ele>475.0</ele><time>2026-05-02T08:58:04.112Z</time></trkpt><trkpt lat="42.2336872" lon="13.8817793"><ele>476.33333333333337</ele><time>2026-05-02T08:58:05.114Z</time></trkpt><trkpt lat="42.2337173" lon="13.8815291"><ele>477.66666666666663</ele><time>2026-05-02T08:58:06.111Z</time></trkpt><trkpt lat="42.2337736" lon="13.8813122"><ele>479.0</ele><time>2026-05-02T08:58:07.106Z</time></trkpt><trkpt lat="42.2338265" lon="13.881109"><ele>478.66666666666663</ele><time>2026-05-02T08:58:08.106Z</time></trkpt><trkpt lat="42.2338641" lon="13.8808905"><ele>478.33333333333337</ele><time>2026-05-02T08:58:09.111Z</time></trkpt><trkpt lat="42.2338768" lon="13.8806535"><ele>478.0</ele><time>2026-05-02T08:58:10.114Z</time></trkpt><trkpt lat="42.2338744" lon="13.8804056"><ele>478.0</ele><time>2026-05-02T08:58:11.111Z</time></trkpt><trkpt lat="42.2338343" lon="13.8801697"><ele>478.0</ele><time>2026-05-02T08:58:12.112Z</time></trkpt><trkpt lat="42.2338014" lon="13.8799606"><ele>478.0</ele><time>2026-05-02T08:58:13.106Z</time></trkpt><trkpt lat="42.233764" lon="13.8797905"><ele>477.33333333333337</ele><time>2026-05-02T08:58:14.107Z</time></trkpt><trkpt lat="42.2337284" lon="13.8795955"><ele>476.66666666666663</ele><time>2026-05-02T08:58:15.11Z</time></trkpt><trkpt lat="42.233744" lon="13.8793892"><ele>476.0</ele><time>2026-05-02T08:58:16.106Z</time></trkpt><trkpt lat="42.233767" lon="13.8791891"><ele>475.66666666666663</ele><time>2026-05-02T08:58:17.113Z</time></trkpt><trkpt lat="42.233817" lon="13.8789754"><ele>475.33333333333337</ele><time>2026-05-02T08:58:18.107Z</time></trkpt><trkpt lat="42.2338806" lon="13.8787369"><ele>475.0</ele><time>2026-05-02T08:58:19.107Z</time></trkpt><trkpt lat="42.2339351" lon="13.8785262"><ele>468.6666666666667</ele><time>2026-05-02T08:58:20.106Z</time></trkpt><trkpt lat="42.2339888" lon="13.8783032"><ele>462.33333333333337</ele><time>2026-05-02T08:58:21.115Z</time></trkpt><trkpt lat="42.2340211" lon="13.8780654"><ele>456.0</ele><time>2026-05-02T08:58:22.111Z</time></trkpt><trkpt lat="42.2340813" lon="13.8778503"><ele>456.0</ele><time>2026-05-02T08:58:23.119Z</time></trkpt><trkpt lat="42.234101" lon="13.8776083"><ele>456.0</ele><time>2026-05-02T08:58:24.109Z</time></trkpt><trkpt lat="42.234119" lon="13.8773695"><ele>456.0</ele><time>2026-05-02T08:58:25.119Z</time></trkpt><trkpt lat="42.2341455" lon="13.8771522"><ele>458.0</ele><time>2026-05-02T08:58:26.118Z</time></trkpt><trkpt lat="42.2341467" lon="13.8769418"><ele>460.0</ele><time>2026-05-02T08:58:27.12Z</time></trkpt><trkpt lat="42.2341601" lon="13.8767396"><ele>462.0</ele><time>2026-05-02T08:58:28.121Z</time></trkpt><trkpt lat="42.2341854" lon="13.8765642"><ele>464.0</ele><time>2026-05-02T08:58:29.119Z</time></trkpt><trkpt lat="42.234235" lon="13.876385"><ele>464.66666666666663</ele><time>2026-05-02T08:58:30.111Z</time></trkpt><trkpt lat="42.234321" lon="13.8762216"><ele>465.33333333333337</ele><time>2026-05-02T08:58:31.121Z</time></trkpt><trkpt lat="42.2344253" lon="13.8760539"><ele>466.0</ele><time>2026-05-02T08:58:32.105Z</time></trkpt><trkpt lat="42.2345222" lon="13.875857"><ele>463.33333333333337</ele><time>2026-05-02T08:58:33.111Z</time></trkpt><trkpt lat="42.2346509" lon="13.8756725"><ele>460.66666666666663</ele><time>2026-05-02T08:58:34.108Z</time></trkpt><trkpt lat="42.2347626" lon="13.8755008"><ele>458.0</ele><time>2026-05-02T08:58:35.108Z</time></trkpt><trkpt lat="42.2348954" lon="13.8753567"><ele>458.0</ele><time>2026-05-02T08:58:36.104Z</time></trkpt><trkpt lat="42.2350376" lon="13.8752165"><ele>458.0</ele><time>2026-05-02T08:58:37.11Z</time></trkpt><trkpt lat="42.2351809" lon="13.8750721"><ele>458.0</ele><time>2026-05-02T08:58:38.108Z</time></trkpt><trkpt lat="42.2353066" lon="13.87497"><ele>455.3333333333333</ele><time>2026-05-02T08:58:39.117Z</time></trkpt><trkpt lat="42.2354264" lon="13.8748549"><ele>452.66666666666663</ele><time>2026-05-02T08:58:40.099Z</time></trkpt><trkpt lat="42.2355432" lon="13.8747444"><ele>450.0</ele><time>2026-05-02T08:58:41.11Z</time></trkpt><trkpt lat="42.2356722" lon="13.874612"><ele>450.0</ele><time>2026-05-02T08:58:42.113Z</time></trkpt><trkpt lat="42.2357637" lon="13.8744769"><ele>450.0</ele><time>2026-05-02T08:58:43.113Z</time></trkpt><trkpt lat="42.2357856" lon="13.8743174"><ele>450.0</ele><time>2026-05-02T08:58:44.116Z</time></trkpt><trkpt lat="42.2357598" lon="13.8741719"><ele>450.0</ele><time>2026-05-02T08:58:45.116Z</time></trkpt><trkpt lat="42.2356785" lon="13.8740448"><ele>458.0</ele><time>2026-05-02T08:58:46.108Z</time></trkpt><trkpt lat="42.2355657" lon="13.8739291"><ele>466.0</ele><time>2026-05-02T08:58:47.111Z</time></trkpt><trkpt lat="42.2354554" lon="13.8738136"><ele>474.0</ele><time>2026-05-02T08:58:48.104Z</time></trkpt><trkpt lat="42.235411" lon="13.8737218"><ele>482.0</ele><time>2026-05-02T08:58:49.101Z</time></trkpt><trkpt lat="42.2354055" lon="13.8735977"><ele>482.0</ele><time>2026-05-02T08:58:50.1Z</time></trkpt><trkpt lat="42.2354236" lon="13.8734726"><ele>482.00000000000006</ele><time>2026-05-02T08:58:51.101Z</time></trkpt><trkpt lat="42.2354602" lon="13.873352"><ele>482.00000000000006</ele><time>2026-05-02T08:58:52.102Z</time></trkpt><trkpt lat="42.2355321" lon="13.8732207"><ele>482.0</ele><time>2026-05-02T08:58:53.093Z</time></trkpt><trkpt lat="42.2356154" lon="13.8731236"><ele>482.0</ele><time>2026-05-02T08:58:54.103Z</time></trkpt><trkpt lat="42.2357127" lon="13.8730692"><ele>475.0</ele><time>2026-05-02T08:58:55.107Z</time></trkpt><trkpt lat="42.2358556" lon="13.8730712"><ele>468.0</ele><time>2026-05-02T08:58:56.105Z</time></trkpt><trkpt lat="42.2360131" lon="13.8731266"><ele>461.0</ele><time>2026-05-02T08:58:57.104Z</time></trkpt><trkpt lat="42.2362638" lon="13.8732808"><ele>461.5</ele><time>2026-05-02T08:58:58.109Z</time></trkpt><trkpt lat="42.2365315" lon="13.8734264"><ele>462.0</ele><time>2026-05-02T08:58:59.103Z</time></trkpt><trkpt lat="42.2367236" lon="13.8734818"><ele>462.0</ele><time>2026-05-02T08:59:00.105Z</time></trkpt><trkpt lat="42.2369353" lon="13.873489"><ele>462.0</ele><time>2026-05-02T08:59:01.113Z</time></trkpt><trkpt lat="42.2371039" lon="13.873411"><ele>462.0</ele><time>2026-05-02T08:59:02.113Z</time></trkpt><trkpt lat="42.2372781" lon="13.8732982"><ele>460.33333333333337</ele><time>2026-05-02T08:59:03.12Z</time></trkpt><trkpt lat="42.2374084" lon="13.8731926"><ele>458.6666666666667</ele><time>2026-05-02T08:59:04.111Z</time></trkpt><trkpt lat="42.2375454" lon="13.8730657"><ele>457.0</ele><time>2026-05-02T08:59:05.126Z</time></trkpt><trkpt lat="42.2376721" lon="13.8729163"><ele>457.0</ele><time>2026-05-02T08:59:06.118Z</time></trkpt><trkpt lat="42.2377598" lon="13.8727412"><ele>457.0</ele><time>2026-05-02T08:59:07.116Z</time></trkpt><trkpt lat="42.2378274" lon="13.8725219"><ele>457.0</ele><time>2026-05-02T08:59:08.115Z</time></trkpt><trkpt lat="42.2378792" lon="13.8722839"><ele>462.33333333333337</ele><time>2026-05-02T08:59:09.119Z</time></trkpt><trkpt lat="42.2379437" lon="13.8720826"><ele>467.66666666666663</ele><time>2026-05-02T08:59:10.112Z</time></trkpt><trkpt lat="42.2380342" lon="13.8718835"><ele>473.0</ele><time>2026-05-02T08:59:11.112Z</time></trkpt><trkpt lat="42.2381267" lon="13.8716972"><ele>473.3333333333333</ele><time>2026-05-02T08:59:12.118Z</time></trkpt><trkpt lat="42.2382266" lon="13.8714919"><ele>473.66666666666663</ele><time>2026-05-02T08:59:13.121Z</time></trkpt><trkpt lat="42.2383333" lon="13.8713191"><ele>474.0</ele><time>2026-05-02T08:59:14.113Z</time></trkpt><trkpt lat="42.2384396" lon="13.871189"><ele>474.0</ele><time>2026-05-02T08:59:15.119Z</time></trkpt><trkpt lat="42.2385221" lon="13.8710754"><ele>474.0</ele><time>2026-05-02T08:59:16.115Z</time></trkpt><trkpt lat="42.2386097" lon="13.8709914"><ele>474.0</ele><time>2026-05-02T08:59:17.112Z</time></trkpt><trkpt lat="42.2386712" lon="13.8709159"><ele>474.0</ele><time>2026-05-02T08:59:18.12Z</time></trkpt><trkpt lat="42.2386946" lon="13.8708247"><ele>474.0</ele><time>2026-05-02T08:59:19.11Z</time></trkpt><trkpt lat="42.2387292" lon="13.8707516"><ele>474.0</ele><time>2026-05-02T08:59:20.115Z</time></trkpt><trkpt lat="42.2387143" lon="13.8706249"><ele>477.2</ele><time>2026-05-02T08:59:22.121Z</time></trkpt><trkpt lat="42.2386445" lon="13.870592"><ele>480.4</ele><time>2026-05-02T08:59:23.117Z</time></trkpt><trkpt lat="42.2385604" lon="13.8706032"><ele>483.6</ele><time>2026-05-02T08:59:24.111Z</time></trkpt><trkpt lat="42.238458" lon="13.8706342"><ele>486.8</ele><time>2026-05-02T08:59:25.114Z</time></trkpt><trkpt lat="42.2383426" lon="13.8706692"><ele>490.0</ele><time>2026-05-02T08:59:26.117Z</time></trkpt><trkpt lat="42.2382128" lon="13.8706919"><ele>492.5</ele><time>2026-05-02T08:59:27.115Z</time></trkpt><trkpt lat="42.2380779" lon="13.8707103"><ele>495.0</ele><time>2026-05-02T08:59:28.114Z</time></trkpt><trkpt lat="42.2379516" lon="13.8707442"><ele>497.5</ele><time>2026-05-02T08:59:29.118Z</time></trkpt><trkpt lat="42.2378421" lon="13.8708148"><ele>500.0</ele><time>2026-05-02T08:59:30.116Z</time></trkpt><trkpt lat="42.2377503" lon="13.8709044"><ele>499.99999999999994</ele><time>2026-05-02T08:59:31.112Z</time></trkpt><trkpt lat="42.2376624" lon="13.8709716"><ele>500.0</ele><time>2026-05-02T08:59:32.111Z</time></trkpt><trkpt lat="42.2375849" lon="13.8710109"><ele>500.0</ele><time>2026-05-02T08:59:33.114Z</time></trkpt><trkpt lat="42.2375164" lon="13.8710015"><ele>500.0</ele><time>2026-05-02T08:59:34.112Z</time></trkpt><trkpt lat="42.2374732" lon="13.8708888"><ele>499.99999999999994</ele><time>2026-05-02T08:59:36.107Z</time></trkpt><trkpt lat="42.2374942" lon="13.8708021"><ele>500.0</ele><time>2026-05-02T08:59:37.106Z</time></trkpt><trkpt lat="42.2375537" lon="13.870693"><ele>500.0</ele><time>2026-05-02T08:59:38.119Z</time></trkpt><trkpt lat="42.2376429" lon="13.8705719"><ele>500.0</ele><time>2026-05-02T08:59:39.116Z</time></trkpt><trkpt lat="42.2377409" lon="13.8704498"><ele>500.0</ele><time>2026-05-02T08:59:40.12Z</time></trkpt><trkpt lat="42.2378352" lon="13.8703251"><ele>500.0</ele><time>2026-05-02T08:59:41.11Z</time></trkpt><trkpt lat="42.2379179" lon="13.870197"><ele>502.49999999999994</ele><time>2026-05-02T08:59:42.112Z</time></trkpt><trkpt lat="42.2379887" lon="13.8700824"><ele>505.0</ele><time>2026-05-02T08:59:43.111Z</time></trkpt><trkpt lat="42.2380409" lon="13.8699669"><ele>507.5</ele><time>2026-05-02T08:59:44.117Z</time></trkpt><trkpt lat="42.2380491" lon="13.8698624"><ele>510.0</ele><time>2026-05-02T08:59:45.113Z</time></trkpt><trkpt lat="42.2380035" lon="13.8697798"><ele>512.5</ele><time>2026-05-02T08:59:46.105Z</time></trkpt><trkpt lat="42.2379329" lon="13.869721"><ele>515.0</ele><time>2026-05-02T08:59:47.117Z</time></trkpt><trkpt lat="42.2378367" lon="13.8696748"><ele>515.0</ele><time>2026-05-02T08:59:48.112Z</time></trkpt><trkpt lat="42.2377171" lon="13.8696306"><ele>515.0</ele><time>2026-05-02T08:59:49.114Z</time></trkpt><trkpt lat="42.2375918" lon="13.8695866"><ele>515.0</ele><time>2026-05-02T08:59:50.11Z</time></trkpt><trkpt lat="42.2374485" lon="13.8695213"><ele>515.0</ele><time>2026-05-02T08:59:51.101Z</time></trkpt><trkpt lat="42.237308" lon="13.8694316"><ele>514.6666666666666</ele><time>2026-05-02T08:59:52.116Z</time></trkpt><trkpt lat="42.2371459" lon="13.8693556"><ele>514.3333333333334</ele><time>2026-05-02T08:59:53.105Z</time></trkpt><trkpt lat="42.2369996" lon="13.8692669"><ele>514.0</ele><time>2026-05-02T08:59:54.109Z</time></trkpt><trkpt lat="42.23685" lon="13.8691889"><ele>517.5</ele><time>2026-05-02T08:59:55.109Z</time></trkpt><trkpt lat="42.2367131" lon="13.8690973"><ele>521.0</ele><time>2026-05-02T08:59:56.097Z</time></trkpt><trkpt lat="42.2365888" lon="13.8689999"><ele>524.5</ele><time>2026-05-02T08:59:57.099Z</time></trkpt><trkpt lat="42.2364913" lon="13.8688926"><ele>528.0</ele><time>2026-05-02T08:59:58.117Z</time></trkpt><trkpt lat="42.2363837" lon="13.8688273"><ele>528.0</ele><time>2026-05-02T08:59:59.103Z</time></trkpt><trkpt lat="42.236302" lon="13.8687507"><ele>528.0</ele><time>2026-05-02T09:00:00.098Z</time></trkpt><trkpt lat="42.2362492" lon="13.8686881"><ele>528.0</ele><time>2026-05-02T09:00:01.099Z</time></trkpt><trkpt lat="42.2362271" lon="13.8685375"><ele>528.0</ele><time>2026-05-02T09:00:03.098Z</time></trkpt><trkpt lat="42.236266" lon="13.8684669"><ele>528.0</ele><time>2026-05-02T09:00:04.113Z</time></trkpt><trkpt lat="42.236327" lon="13.868421"><ele>528.0</ele><time>2026-05-02T09:00:05.1Z</time></trkpt><trkpt lat="42.2364216" lon="13.8683906"><ele>533.5</ele><time>2026-05-02T09:00:06.099Z</time></trkpt><trkpt lat="42.2365184" lon="13.8683481"><ele>539.0</ele><time>2026-05-02T09:00:07.101Z</time></trkpt><trkpt lat="42.2366309" lon="13.8682983"><ele>544.5</ele><time>2026-05-02T09:00:08.102Z</time></trkpt><trkpt lat="42.2367442" lon="13.8682399"><ele>550.0</ele><time>2026-05-02T09:00:09.113Z</time></trkpt><trkpt lat="42.2368471" lon="13.8681945"><ele>550.0</ele><time>2026-05-02T09:00:10.098Z</time></trkpt><trkpt lat="42.2369295" lon="13.8681703"><ele>550.0</ele><time>2026-05-02T09:00:11.1Z</time></trkpt><trkpt lat="42.2369905" lon="13.8681455"><ele>550.0</ele><time>2026-05-02T09:00:12.103Z</time></trkpt><trkpt lat="42.2370732" lon="13.868077"><ele>550.0</ele><time>2026-05-02T09:00:14.104Z</time></trkpt><trkpt lat="42.2370787" lon="13.8679532"><ele>550.0</ele><time>2026-05-02T09:00:16.111Z</time></trkpt><trkpt lat="42.2370241" lon="13.8678888"><ele>550.0</ele><time>2026-05-02T09:00:17.112Z</time></trkpt><trkpt lat="42.2369388" lon="13.8678333"><ele>550.0</ele><time>2026-05-02T09:00:18.106Z</time></trkpt><trkpt lat="42.236833" lon="13.867781"><ele>550.0</ele><time>2026-05-02T09:00:19.116Z</time></trkpt><trkpt lat="42.2367271" lon="13.8677147"><ele>550.0</ele><time>2026-05-02T09:00:20.106Z</time></trkpt><trkpt lat="42.2366269" lon="13.8676391"><ele>550.0</ele><time>2026-05-02T09:00:21.106Z</time></trkpt><trkpt lat="42.2365405" lon="13.8675564"><ele>551.4</ele><time>2026-05-02T09:00:22.111Z</time></trkpt><trkpt lat="42.2364632" lon="13.8674595"><ele>552.8</ele><time>2026-05-02T09:00:23.113Z</time></trkpt><trkpt lat="42.2363947" lon="13.8673527"><ele>554.2</ele><time>2026-05-02T09:00:24.105Z</time></trkpt><trkpt lat="42.2363323" lon="13.8672529"><ele>555.6</ele><time>2026-05-02T09:00:25.112Z</time></trkpt><trkpt lat="42.2362883" lon="13.8671615"><ele>557.0</ele><time>2026-05-02T09:00:26.111Z</time></trkpt><trkpt lat="42.2362242" lon="13.8670207"><ele>557.0</ele><time>2026-05-02T09:00:28.11Z</time></trkpt><trkpt lat="42.2361537" lon="13.8668838"><ele>557.0</ele><time>2026-05-02T09:00:30.1Z</time></trkpt><trkpt lat="42.2361054" lon="13.866828"><ele>557.0</ele><time>2026-05-02T09:00:31.103Z</time></trkpt><trkpt lat="42.2360523" lon="13.8667746"><ele>557.0</ele><time>2026-05-02T09:00:32.103Z</time></trkpt><trkpt lat="42.2359835" lon="13.8667432"><ele>557.0</ele><time>2026-05-02T09:00:33.102Z</time></trkpt><trkpt lat="42.2358852" lon="13.8667459"><ele>557.0</ele><time>2026-05-02T09:00:35.102Z</time></trkpt><trkpt lat="42.2358003" lon="13.8667795"><ele>557.0</ele><time>2026-05-02T09:00:37.107Z</time></trkpt><trkpt lat="42.2357391" lon="13.8668006"><ele>557.0</ele><time>2026-05-02T09:00:38.103Z</time></trkpt><trkpt lat="42.2356603" lon="13.8668278"><ele>557.0</ele><time>2026-05-02T09:00:39.106Z</time></trkpt><trkpt lat="42.2355805" lon="13.8668523"><ele>557.0</ele><time>2026-05-02T09:00:40.101Z</time></trkpt><trkpt lat="42.2355086" lon="13.866867"><ele>557.0</ele><time>2026-05-02T09:00:41.108Z</time></trkpt><trkpt lat="42.2354141" lon="13.8668525"><ele>557.0</ele><time>2026-05-02T09:00:43.105Z</time></trkpt><trkpt lat="42.2353782" lon="13.866776"><ele>560.1666666666666</ele><time>2026-05-02T09:00:45.107Z</time></trkpt><trkpt lat="42.2354408" lon="13.8666923"><ele>563.3333333333333</ele><time>2026-05-02T09:00:47.103Z</time></trkpt><trkpt lat="42.2355008" lon="13.8666607"><ele>566.5</ele><time>2026-05-02T09:00:48.111Z</time></trkpt><trkpt lat="42.2355894" lon="13.8665789"><ele>569.6666666666666</ele><time>2026-05-02T09:00:50.1Z</time></trkpt><trkpt lat="42.2355734" lon="13.8664846"><ele>572.8333333333334</ele><time>2026-05-02T09:00:52.109Z</time></trkpt><trkpt lat="42.2354652" lon="13.8664411"><ele>576.0</ele><time>2026-05-02T09:00:54.105Z</time></trkpt><trkpt lat="42.2353976" lon="13.8664036"><ele>576.0</ele><time>2026-05-02T09:00:55.114Z</time></trkpt><trkpt lat="42.2353338" lon="13.8663587"><ele>576.0</ele><time>2026-05-02T09:00:56.104Z</time></trkpt><trkpt lat="42.2352795" lon="13.8662981"><ele>576.0</ele><time>2026-05-02T09:00:57.112Z</time></trkpt><trkpt lat="42.2352299" lon="13.8662256"><ele>576.0</ele><time>2026-05-02T09:00:58.105Z</time></trkpt><trkpt lat="42.2351802" lon="13.8661388"><ele>576.0</ele><time>2026-05-02T09:00:59.119Z</time></trkpt><trkpt lat="42.2351292" lon="13.8660421"><ele>576.0</ele><time>2026-05-02T09:01:00.111Z</time></trkpt><trkpt lat="42.2350763" lon="13.8659391"><ele>575.0</ele><time>2026-05-02T09:01:01.112Z</time></trkpt><trkpt lat="42.2350261" lon="13.865829"><ele>574.0</ele><time>2026-05-02T09:01:02.105Z</time></trkpt><trkpt lat="42.2349721" lon="13.8657099"><ele>573.0</ele><time>2026-05-02T09:01:03.113Z</time></trkpt><trkpt lat="42.2349111" lon="13.8655916"><ele>572.0</ele><time>2026-05-02T09:01:04.101Z</time></trkpt><trkpt lat="42.2348375" lon="13.865472"><ele>571.0</ele><time>2026-05-02T09:01:05.113Z</time></trkpt><trkpt lat="42.2347522" lon="13.8653688"><ele>571.0</ele><time>2026-05-02T09:01:06.109Z</time></trkpt><trkpt lat="42.2346598" lon="13.8652765"><ele>571.0</ele><time>2026-05-02T09:01:07.11Z</time></trkpt><trkpt lat="42.2345592" lon="13.8651938"><ele>571.0</ele><time>2026-05-02T09:01:08.106Z</time></trkpt><trkpt lat="42.2344754" lon="13.8650967"><ele>571.0</ele><time>2026-05-02T09:01:09.104Z</time></trkpt><trkpt lat="42.2343954" lon="13.8650001"><ele>575.5</ele><time>2026-05-02T09:01:10.095Z</time></trkpt><trkpt lat="42.2343246" lon="13.8648812"><ele>580.0</ele><time>2026-05-02T09:01:11.104Z</time></trkpt><trkpt lat="42.2342696" lon="13.864742"><ele>584.5</ele><time>2026-05-02T09:01:12.107Z</time></trkpt><trkpt lat="42.2342194" lon="13.8646035"><ele>589.0</ele><time>2026-05-02T09:01:13.111Z</time></trkpt><trkpt lat="42.234158" lon="13.864486"><ele>589.0</ele><time>2026-05-02T09:01:14.109Z</time></trkpt><trkpt lat="42.234092" lon="13.8643872"><ele>589.0</ele><time>2026-05-02T09:01:15.109Z</time></trkpt><trkpt lat="42.2340443" lon="13.8642712"><ele>589.0</ele><time>2026-05-02T09:01:16.097Z</time></trkpt><trkpt lat="42.233999" lon="13.8641486"><ele>589.0</ele><time>2026-05-02T09:01:17.106Z</time></trkpt><trkpt lat="42.233959" lon="13.8640033"><ele>589.0</ele><time>2026-05-02T09:01:18.106Z</time></trkpt><trkpt lat="42.2339082" lon="13.8638454"><ele>588.75</ele><time>2026-05-02T09:01:19.112Z</time></trkpt><trkpt lat="42.2338598" lon="13.8636837"><ele>588.5</ele><time>2026-05-02T09:01:20.107Z</time></trkpt><trkpt lat="42.2338118" lon="13.8635409"><ele>588.25</ele><time>2026-05-02T09:01:21.11Z</time></trkpt><trkpt lat="42.2337653" lon="13.86341"><ele>588.0</ele><time>2026-05-02T09:01:22.11Z</time></trkpt><trkpt lat="42.2337077" lon="13.8632907"><ele>590.8</ele><time>2026-05-02T09:01:23.118Z</time></trkpt><trkpt lat="42.2336448" lon="13.8631788"><ele>593.5999999999999</ele><time>2026-05-02T09:01:24.107Z</time></trkpt><trkpt lat="42.2335797" lon="13.8630791"><ele>596.4000000000001</ele><time>2026-05-02T09:01:25.124Z</time></trkpt><trkpt lat="42.2335142" lon="13.8629729"><ele>599.2</ele><time>2026-05-02T09:01:26.11Z</time></trkpt><trkpt lat="42.2334384" lon="13.8628644"><ele>602.0</ele><time>2026-05-02T09:01:27.102Z</time></trkpt><trkpt lat="42.2333503" lon="13.8627618"><ele>602.0</ele><time>2026-05-02T09:01:28.114Z</time></trkpt><trkpt lat="42.2332558" lon="13.8626662"><ele>602.0</ele><time>2026-05-02T09:01:29.105Z</time></trkpt><trkpt lat="42.2331648" lon="13.8625701"><ele>602.0</ele><time>2026-05-02T09:01:30.104Z</time></trkpt><trkpt lat="42.2330881" lon="13.8624871"><ele>602.0</ele><time>2026-05-02T09:01:31.099Z</time></trkpt><trkpt lat="42.2330148" lon="13.8624164"><ele>602.0</ele><time>2026-05-02T09:01:32.1Z</time></trkpt><trkpt lat="42.2329513" lon="13.8623557"><ele>602.0</ele><time>2026-05-02T09:01:33.096Z</time></trkpt><trkpt lat="42.2328923" lon="13.8622744"><ele>602.0</ele><time>2026-05-02T09:01:34.103Z</time></trkpt><trkpt lat="42.2328416" lon="13.8621798"><ele>602.0</ele><time>2026-05-02T09:01:35.098Z</time></trkpt><trkpt lat="42.2328029" lon="13.8620611"><ele>602.0</ele><time>2026-05-02T09:01:36.107Z</time></trkpt><trkpt lat="42.2327682" lon="13.8619351"><ele>602.0</ele><time>2026-05-02T09:01:37.107Z</time></trkpt><trkpt lat="42.2327343" lon="13.8618104"><ele>605.0</ele><time>2026-05-02T09:01:38.095Z</time></trkpt><trkpt lat="42.2326905" lon="13.8616902"><ele>608.0</ele><time>2026-05-02T09:01:39.103Z</time></trkpt><trkpt lat="42.2326536" lon="13.8615532"><ele>611.0</ele><time>2026-05-02T09:01:40.094Z</time></trkpt><trkpt lat="42.2326153" lon="13.8614098"><ele>614.0</ele><time>2026-05-02T09:01:41.11Z</time></trkpt><trkpt lat="42.2325723" lon="13.8612782"><ele>617.0</ele><time>2026-05-02T09:01:42.108Z</time></trkpt><trkpt lat="42.2325277" lon="13.8611559"><ele>617.0</ele><time>2026-05-02T09:01:43.105Z</time></trkpt><trkpt lat="42.2324838" lon="13.8610404"><ele>617.0</ele><time>2026-05-02T09:01:44.099Z</time></trkpt><trkpt lat="42.2324376" lon="13.8609338"><ele>617.0</ele><time>2026-05-02T09:01:45.106Z</time></trkpt><trkpt lat="42.2324014" lon="13.860801"><ele>617.0</ele><time>2026-05-02T09:01:46.095Z</time></trkpt><trkpt lat="42.2323779" lon="13.8606577"><ele>617.0</ele><time>2026-05-02T09:01:47.103Z</time></trkpt><trkpt lat="42.232368" lon="13.8605108"><ele>618.6</ele><time>2026-05-02T09:01:48.104Z</time></trkpt><trkpt lat="42.2323642" lon="13.8603822"><ele>620.2</ele><time>2026-05-02T09:01:49.11Z</time></trkpt><trkpt lat="42.2323645" lon="13.8602674"><ele>621.8</ele><time>2026-05-02T09:01:50.101Z</time></trkpt><trkpt lat="42.2323791" lon="13.8601563"><ele>623.4</ele><time>2026-05-02T09:01:51.109Z</time></trkpt><trkpt lat="42.2324001" lon="13.8600622"><ele>625.0</ele><time>2026-05-02T09:01:52.101Z</time></trkpt><trkpt lat="42.2323888" lon="13.8599012"><ele>626.0</ele><time>2026-05-02T09:01:54.105Z</time></trkpt><trkpt lat="42.2323282" lon="13.859843"><ele>627.0</ele><time>2026-05-02T09:01:55.112Z</time></trkpt><trkpt lat="42.2322603" lon="13.8598065"><ele>628.0</ele><time>2026-05-02T09:01:56.104Z</time></trkpt><trkpt lat="42.2321818" lon="13.8598003"><ele>629.0</ele><time>2026-05-02T09:01:57.113Z</time></trkpt><trkpt lat="42.2320966" lon="13.8598183"><ele>630.0</ele><time>2026-05-02T09:01:58.114Z</time></trkpt><trkpt lat="42.2319951" lon="13.8598231"><ele>631.0</ele><time>2026-05-02T09:01:59.112Z</time></trkpt><trkpt lat="42.2318943" lon="13.8597985"><ele>631.75</ele><time>2026-05-02T09:02:00.109Z</time></trkpt><trkpt lat="42.2317959" lon="13.8597452"><ele>632.5</ele><time>2026-05-02T09:02:01.101Z</time></trkpt><trkpt lat="42.2316883" lon="13.8597261"><ele>633.25</ele><time>2026-05-02T09:02:02.106Z</time></trkpt><trkpt lat="42.2315717" lon="13.8597421"><ele>634.0</ele><time>2026-05-02T09:02:03.109Z</time></trkpt><trkpt lat="42.2314544" lon="13.8597833"><ele>635.6666666666667</ele><time>2026-05-02T09:02:04.103Z</time></trkpt><trkpt lat="42.2313587" lon="13.8598377"><ele>637.3333333333334</ele><time>2026-05-02T09:02:05.109Z</time></trkpt><trkpt lat="42.2312778" lon="13.8598905"><ele>639.0</ele><time>2026-05-02T09:02:06.102Z</time></trkpt><trkpt lat="42.2312006" lon="13.8599324"><ele>640.6666666666666</ele><time>2026-05-02T09:02:07.114Z</time></trkpt><trkpt lat="42.231123" lon="13.8599645"><ele>642.3333333333333</ele><time>2026-05-02T09:02:08.111Z</time></trkpt><trkpt lat="42.2310522" lon="13.8599687"><ele>644.0</ele><time>2026-05-02T09:02:09.107Z</time></trkpt><trkpt lat="42.2309493" lon="13.859894"><ele>644.0</ele><time>2026-05-02T09:02:11.106Z</time></trkpt><trkpt lat="42.2308958" lon="13.8597847"><ele>644.0</ele><time>2026-05-02T09:02:15.106Z</time></trkpt><trkpt lat="42.2308608" lon="13.8597013"><ele>644.0</ele><time>2026-05-02T09:02:17.115Z</time></trkpt><trkpt lat="42.2307907" lon="13.8596154"><ele>644.0</ele><time>2026-05-02T09:02:19.106Z</time></trkpt><trkpt lat="42.2307336" lon="13.8595725"><ele>644.0</ele><time>2026-05-02T09:02:20.109Z</time></trkpt><trkpt lat="42.2306489" lon="13.8594881"><ele>644.0</ele><time>2026-05-02T09:02:22.116Z</time></trkpt><trkpt lat="42.2305547" lon="13.8594189"><ele>644.5</ele><time>2026-05-02T09:02:24.112Z</time></trkpt><trkpt lat="42.2304959" lon="13.8593768"><ele>645.0</ele><time>2026-05-02T09:02:26.115Z</time></trkpt><trkpt lat="42.2304258" lon="13.8593139"><ele>645.5</ele><time>2026-05-02T09:02:28.114Z</time></trkpt><trkpt lat="42.2303425" lon="13.8592365"><ele>646.0</ele><time>2026-05-02T09:02:30.111Z</time></trkpt><trkpt lat="42.2302825" lon="13.8591962"><ele>646.5</ele><time>2026-05-02T09:02:32.112Z</time></trkpt><trkpt lat="42.2302197" lon="13.8591379"><ele>647.0</ele><time>2026-05-02T09:02:36.112Z</time></trkpt><trkpt lat="42.2301561" lon="13.8590825"><ele>649.5</ele><time>2026-05-02T09:02:40.106Z</time></trkpt><trkpt lat="42.2300683" lon="13.8590205"><ele>652.0</ele><time>2026-05-02T09:02:43.112Z</time></trkpt><trkpt lat="42.2299718" lon="13.8589753"><ele>654.5</ele><time>2026-05-02T09:02:45.11Z</time></trkpt><trkpt lat="42.2298882" lon="13.8589091"><ele>657.0</ele><time>2026-05-02T09:02:47.107Z</time></trkpt><trkpt lat="42.2298223" lon="13.8588845"><ele>659.5</ele><time>2026-05-02T09:03:17.115Z</time></trkpt><trkpt lat="42.2297472" lon="13.8588696"><ele>662.0</ele><time>2026-05-02T09:03:20.103Z</time></trkpt><trkpt lat="42.2296594" lon="13.8588363"><ele>663.8333333333333</ele><time>2026-05-02T09:03:22.108Z</time></trkpt><trkpt lat="42.2295522" lon="13.8588089"><ele>665.6666666666666</ele><time>2026-05-02T09:03:24.094Z</time></trkpt><trkpt lat="42.2294773" lon="13.8588051"><ele>667.5</ele><time>2026-05-02T09:03:43.106Z</time></trkpt><trkpt lat="42.229394" lon="13.8587566"><ele>669.3333333333334</ele><time>2026-05-02T09:03:45.106Z</time></trkpt><trkpt lat="42.2293421" lon="13.8587065"><ele>671.1666666666667</ele><time>2026-05-02T09:03:46.099Z</time></trkpt><trkpt lat="42.2292942" lon="13.8586367"><ele>673.0</ele><time>2026-05-02T09:03:47.101Z</time></trkpt><trkpt lat="42.229247" lon="13.8585603"><ele>673.0</ele><time>2026-05-02T09:03:48.117Z</time></trkpt><trkpt lat="42.2292094" lon="13.8584885"><ele>673.0</ele><time>2026-05-02T09:03:49.104Z</time></trkpt><trkpt lat="42.2291784" lon="13.8583618"><ele>673.0</ele><time>2026-05-02T09:03:51.106Z</time></trkpt><trkpt lat="42.2291308" lon="13.8582915"><ele>673.0</ele><time>2026-05-02T09:03:53.108Z</time></trkpt><trkpt lat="42.2290975" lon="13.8582152"><ele>673.0</ele><time>2026-05-02T09:03:55.108Z</time></trkpt><trkpt lat="42.2290499" lon="13.8581361"><ele>673.0</ele><time>2026-05-02T09:04:13.108Z</time></trkpt><trkpt lat="42.2289865" lon="13.858028"><ele>676.5</ele><time>2026-05-02T09:04:15.103Z</time></trkpt><trkpt lat="42.2289374" lon="13.8579486"><ele>680.0</ele><time>2026-05-02T09:04:16.107Z</time></trkpt><trkpt lat="42.2288748" lon="13.8578853"><ele>683.5</ele><time>2026-05-02T09:04:17.113Z</time></trkpt><trkpt lat="42.2288125" lon="13.8578275"><ele>687.0</ele><time>2026-05-02T09:04:18.109Z</time></trkpt><trkpt lat="42.2287418" lon="13.8577681"><ele>690.5</ele><time>2026-05-02T09:04:19.109Z</time></trkpt><trkpt lat="42.2286681" lon="13.8577067"><ele>694.0</ele><time>2026-05-02T09:04:20.106Z</time></trkpt><trkpt lat="42.2285887" lon="13.8576551"><ele>694.0</ele><time>2026-05-02T09:04:21.104Z</time></trkpt><trkpt lat="42.2285085" lon="13.8576134"><ele>694.0</ele><time>2026-05-02T09:04:22.112Z</time></trkpt><trkpt lat="42.2284376" lon="13.8576014"><ele>694.0</ele><time>2026-05-02T09:04:23.102Z</time></trkpt><trkpt lat="42.2283706" lon="13.8576237"><ele>694.0</ele><time>2026-05-02T09:04:24.103Z</time></trkpt><trkpt lat="42.2283017" lon="13.8576709"><ele>694.0</ele><time>2026-05-02T09:04:25.109Z</time></trkpt><trkpt lat="42.2282362" lon="13.8577083"><ele>694.0</ele><time>2026-05-02T09:04:26.106Z</time></trkpt><trkpt lat="42.2281727" lon="13.8577157"><ele>694.0</ele><time>2026-05-02T09:04:27.106Z</time></trkpt><trkpt lat="42.2280577" lon="13.8576391"><ele>700.6</ele><time>2026-05-02T09:04:29.101Z</time></trkpt><trkpt lat="42.2279927" lon="13.8575781"><ele>707.2</ele><time>2026-05-02T09:04:30.113Z</time></trkpt><trkpt lat="42.227928" lon="13.8575194"><ele>713.8000000000001</ele><time>2026-05-02T09:04:31.107Z</time></trkpt><trkpt lat="42.2278368" lon="13.8574302"><ele>720.4000000000001</ele><time>2026-05-02T09:04:33.112Z</time></trkpt><trkpt lat="42.2277588" lon="13.8573053"><ele>727.0</ele><time>2026-05-02T09:04:35.107Z</time></trkpt><trkpt lat="42.2277211" lon="13.8572319"><ele>727.0</ele><time>2026-05-02T09:04:36.107Z</time></trkpt><trkpt lat="42.2276875" lon="13.8571425"><ele>727.0</ele><time>2026-05-02T09:04:37.104Z</time></trkpt><trkpt lat="42.2276508" lon="13.8570417"><ele>727.0</ele><time>2026-05-02T09:04:38.11Z</time></trkpt><trkpt lat="42.2276178" lon="13.8569241"><ele>727.0</ele><time>2026-05-02T09:04:39.105Z</time></trkpt><trkpt lat="42.2275829" lon="13.8568"><ele>727.0</ele><time>2026-05-02T09:04:40.105Z</time></trkpt><trkpt lat="42.227552" lon="13.8566917"><ele>727.0</ele><time>2026-05-02T09:04:41.111Z</time></trkpt><trkpt lat="42.2274944" lon="13.8566512"><ele>727.8333333333334</ele><time>2026-05-02T09:04:42.102Z</time></trkpt><trkpt lat="42.2274306" lon="13.8566327"><ele>728.6666666666667</ele><time>2026-05-02T09:04:43.103Z</time></trkpt><trkpt lat="42.2273492" lon="13.8566279"><ele>729.5</ele><time>2026-05-02T09:04:44.099Z</time></trkpt><trkpt lat="42.2272586" lon="13.8566361"><ele>730.3333333333334</ele><time>2026-05-02T09:04:45.098Z</time></trkpt><trkpt lat="42.2271687" lon="13.8566578"><ele>731.1666666666666</ele><time>2026-05-02T09:04:46.096Z</time></trkpt><trkpt lat="42.2270929" lon="13.8566621"><ele>732.0</ele><time>2026-05-02T09:04:47.099Z</time></trkpt><trkpt lat="42.227025" lon="13.8566423"><ele>735.5</ele><time>2026-05-02T09:04:48.094Z</time></trkpt><trkpt lat="42.226965" lon="13.8566071"><ele>739.0</ele><time>2026-05-02T09:04:49.101Z</time></trkpt><trkpt lat="42.2269058" lon="13.8565539"><ele>742.5</ele><time>2026-05-02T09:04:50.102Z</time></trkpt><trkpt lat="42.2268361" lon="13.8564931"><ele>746.0</ele><time>2026-05-02T09:04:51.1Z</time></trkpt><trkpt lat="42.2267596" lon="13.8564321"><ele>749.5</ele><time>2026-05-02T09:04:52.097Z</time></trkpt><trkpt lat="42.2266766" lon="13.8563586"><ele>753.0</ele><time>2026-05-02T09:04:53.098Z</time></trkpt><trkpt lat="42.226619" lon="13.85629"><ele>753.0</ele><time>2026-05-02T09:04:54.096Z</time></trkpt><trkpt lat="42.2265721" lon="13.8562062"><ele>753.0</ele><time>2026-05-02T09:04:55.098Z</time></trkpt><trkpt lat="42.2265351" lon="13.8561033"><ele>753.0</ele><time>2026-05-02T09:04:56.103Z</time></trkpt><trkpt lat="42.2264925" lon="13.8559917"><ele>753.0</ele><time>2026-05-02T09:04:57.099Z</time></trkpt><trkpt lat="42.2264278" lon="13.8558918"><ele>753.0</ele><time>2026-05-02T09:04:58.109Z</time></trkpt><trkpt lat="42.2263546" lon="13.8557998"><ele>756.2</ele><time>2026-05-02T09:04:59.104Z</time></trkpt><trkpt lat="42.2262873" lon="13.8557124"><ele>759.4</ele><time>2026-05-02T09:05:00.103Z</time></trkpt><trkpt lat="42.2262239" lon="13.8556158"><ele>762.6</ele><time>2026-05-02T09:05:01.104Z</time></trkpt><trkpt lat="42.2261582" lon="13.8555178"><ele>765.8000000000001</ele><time>2026-05-02T09:05:02.104Z</time></trkpt><trkpt lat="42.2260919" lon="13.855434"><ele>769.0</ele><time>2026-05-02T09:05:03.103Z</time></trkpt><trkpt lat="42.2260123" lon="13.8553552"><ele>768.9999999999999</ele><time>2026-05-02T09:05:04.103Z</time></trkpt><trkpt lat="42.2259243" lon="13.8552846"><ele>769.0</ele><time>2026-05-02T09:05:05.101Z</time></trkpt><trkpt lat="42.2258382" lon="13.8552336"><ele>769.0</ele><time>2026-05-02T09:05:06.103Z</time></trkpt><trkpt lat="42.2257571" lon="13.855206"><ele>769.0</ele><time>2026-05-02T09:05:07.101Z</time></trkpt><trkpt lat="42.2256765" lon="13.8551908"><ele>768.9999999999999</ele><time>2026-05-02T09:05:08.103Z</time></trkpt><trkpt lat="42.2255983" lon="13.8551749"><ele>769.0</ele><time>2026-05-02T09:05:09.103Z</time></trkpt><trkpt lat="42.2255316" lon="13.8551602"><ele>771.3333333333333</ele><time>2026-05-02T09:05:10.1Z</time></trkpt><trkpt lat="42.2254607" lon="13.8551633"><ele>773.6666666666666</ele><time>2026-05-02T09:05:12.098Z</time></trkpt><trkpt lat="42.2254426" lon="13.8550535"><ele>776.0</ele><time>2026-05-02T09:06:02.092Z</time></trkpt><trkpt lat="42.2254144" lon="13.8549323"><ele>778.3333333333333</ele><time>2026-05-02T09:06:05.099Z</time></trkpt><trkpt lat="42.2253894" lon="13.8548154"><ele>780.6666666666666</ele><time>2026-05-02T09:06:07.094Z</time></trkpt><trkpt lat="42.2253504" lon="13.8546801"><ele>783.0</ele><time>2026-05-02T09:06:09.095Z</time></trkpt><trkpt lat="42.2253133" lon="13.8545968"><ele>783.0</ele><time>2026-05-02T09:06:12.092Z</time></trkpt><trkpt lat="42.225276" lon="13.8544984"><ele>783.0</ele><time>2026-05-02T09:06:15.098Z</time></trkpt><trkpt lat="42.2252341" lon="13.854408"><ele>783.0</ele><time>2026-05-02T09:06:17.102Z</time></trkpt><trkpt lat="42.2252011" lon="13.8543283"><ele>783.0</ele><time>2026-05-02T09:06:20.1Z</time></trkpt><trkpt lat="42.2251643" lon="13.8542488"><ele>783.0</ele><time>2026-05-02T09:06:22.103Z</time></trkpt><trkpt lat="42.2251169" lon="13.8540978"><ele>783.0</ele><time>2026-05-02T09:06:24.099Z</time></trkpt><trkpt lat="42.225068" lon="13.8539829"><ele>784.2</ele><time>2026-05-02T09:06:26.105Z</time></trkpt><trkpt lat="42.2250566" lon="13.8538892"><ele>785.4</ele><time>2026-05-02T09:06:28.107Z</time></trkpt><trkpt lat="42.225048" lon="13.8537926"><ele>786.6</ele><time>2026-05-02T09:06:30.108Z</time></trkpt><trkpt lat="42.2250392" lon="13.8536626"><ele>787.8000000000001</ele><time>2026-05-02T09:06:32.104Z</time></trkpt><trkpt lat="42.225025" lon="13.8535419"><ele>789.0</ele><time>2026-05-02T09:06:34.107Z</time></trkpt><trkpt lat="42.22503" lon="13.8533713"><ele>789.1666666666666</ele><time>2026-05-02T09:06:36.107Z</time></trkpt><trkpt lat="42.2250455" lon="13.8532684"><ele>789.3333333333333</ele><time>2026-05-02T09:06:37.104Z</time></trkpt><trkpt lat="42.2250736" lon="13.8531568"><ele>789.5</ele><time>2026-05-02T09:06:38.11Z</time></trkpt><trkpt lat="42.2251123" lon="13.8530513"><ele>789.6666666666666</ele><time>2026-05-02T09:06:39.105Z</time></trkpt><trkpt lat="42.2251569" lon="13.8529472"><ele>789.8333333333333</ele><time>2026-05-02T09:06:40.105Z</time></trkpt><trkpt lat="42.2252001" lon="13.8528577"><ele>790.0</ele><time>2026-05-02T09:06:41.105Z</time></trkpt><trkpt lat="42.225237" lon="13.8527844"><ele>790.0</ele><time>2026-05-02T09:06:42.106Z</time></trkpt><trkpt lat="42.2253105" lon="13.8526598"><ele>790.0</ele><time>2026-05-02T09:06:44.112Z</time></trkpt><trkpt lat="42.225418" lon="13.8525375"><ele>790.0</ele><time>2026-05-02T09:06:46.108Z</time></trkpt><trkpt lat="42.2254811" lon="13.8524539"><ele>790.0</ele><time>2026-05-02T09:06:47.108Z</time></trkpt><trkpt lat="42.2255395" lon="13.8523674"><ele>790.0</ele><time>2026-05-02T09:06:48.101Z</time></trkpt><trkpt lat="42.225577" lon="13.8522625"><ele>790.4</ele><time>2026-05-02T09:06:49.113Z</time></trkpt><trkpt lat="42.2256052" lon="13.852154"><ele>790.8</ele><time>2026-05-02T09:06:50.104Z</time></trkpt><trkpt lat="42.2256298" lon="13.8520368"><ele>791.2</ele><time>2026-05-02T09:06:51.106Z</time></trkpt><trkpt lat="42.2256453" lon="13.8519129"><ele>791.6</ele><time>2026-05-02T09:06:52.099Z</time></trkpt><trkpt lat="42.225654" lon="13.8517675"><ele>792.0</ele><time>2026-05-02T09:06:53.107Z</time></trkpt><trkpt lat="42.2256606" lon="13.8516048"><ele>796.4000000000001</ele><time>2026-05-02T09:06:54.107Z</time></trkpt><trkpt lat="42.2256776" lon="13.8514523"><ele>800.8000000000001</ele><time>2026-05-02T09:06:55.11Z</time></trkpt><trkpt lat="42.2256905" lon="13.8513127"><ele>805.2</ele><time>2026-05-02T09:06:56.106Z</time></trkpt><trkpt lat="42.2256993" lon="13.851176"><ele>809.6</ele><time>2026-05-02T09:06:57.104Z</time></trkpt><trkpt lat="42.2257068" lon="13.851045"><ele>814.0</ele><time>2026-05-02T09:06:58.108Z</time></trkpt><trkpt lat="42.2257074" lon="13.8509077"><ele>815.4000000000001</ele><time>2026-05-02T09:06:59.105Z</time></trkpt><trkpt lat="42.2257028" lon="13.8507654"><ele>816.8</ele><time>2026-05-02T09:07:00.106Z</time></trkpt><trkpt lat="42.2256851" lon="13.850622"><ele>818.2</ele><time>2026-05-02T09:07:01.109Z</time></trkpt><trkpt lat="42.2256674" lon="13.8504829"><ele>819.5999999999999</ele><time>2026-05-02T09:07:02.107Z</time></trkpt><trkpt lat="42.2256546" lon="13.8503613"><ele>821.0</ele><time>2026-05-02T09:07:03.106Z</time></trkpt><trkpt lat="42.2256422" lon="13.8502293"><ele>824.4</ele><time>2026-05-02T09:07:04.107Z</time></trkpt><trkpt lat="42.225626" lon="13.8500859"><ele>827.8</ele><time>2026-05-02T09:07:05.109Z</time></trkpt><trkpt lat="42.2256148" lon="13.8499461"><ele>831.1999999999999</ele><time>2026-05-02T09:07:06.109Z</time></trkpt><trkpt lat="42.2255997" lon="13.8498253"><ele>834.5999999999999</ele><time>2026-05-02T09:07:07.105Z</time></trkpt><trkpt lat="42.2255729" lon="13.8497014"><ele>838.0</ele><time>2026-05-02T09:07:08.106Z</time></trkpt><trkpt lat="42.2255448" lon="13.8495854"><ele>837.9999999999999</ele><time>2026-05-02T09:07:09.101Z</time></trkpt><trkpt lat="42.2255251" lon="13.8494864"><ele>838.0</ele><time>2026-05-02T09:07:10.099Z</time></trkpt><trkpt lat="42.2255347" lon="13.8493663"><ele>838.0</ele><time>2026-05-02T09:07:12.105Z</time></trkpt><trkpt lat="42.2256444" lon="13.84931"><ele>838.0</ele><time>2026-05-02T09:07:14.103Z</time></trkpt><trkpt lat="42.2257197" lon="13.8492991"><ele>837.9999999999999</ele><time>2026-05-02T09:07:15.1Z</time></trkpt><trkpt lat="42.2258066" lon="13.8492825"><ele>838.0</ele><time>2026-05-02T09:07:16.1Z</time></trkpt><trkpt lat="42.225884" lon="13.8492637"><ele>844.1666666666666</ele><time>2026-05-02T09:07:17.101Z</time></trkpt><trkpt lat="42.2259499" lon="13.8492428"><ele>850.3333333333333</ele><time>2026-05-02T09:07:18.101Z</time></trkpt><trkpt lat="42.2260098" lon="13.849215"><ele>856.5</ele><time>2026-05-02T09:07:19.096Z</time></trkpt><trkpt lat="42.2261349" lon="13.8491592"><ele>862.6666666666667</ele><time>2026-05-02T09:07:21.106Z</time></trkpt><trkpt lat="42.2262059" lon="13.8491378"><ele>868.8333333333334</ele><time>2026-05-02T09:07:22.096Z</time></trkpt><trkpt lat="42.2262698" lon="13.8491256"><ele>875.0</ele><time>2026-05-02T09:07:23.11Z</time></trkpt><trkpt lat="42.2263892" lon="13.8491207"><ele>874.0</ele><time>2026-05-02T09:07:25.115Z</time></trkpt><trkpt lat="42.2265057" lon="13.8491154"><ele>873.0</ele><time>2026-05-02T09:07:27.108Z</time></trkpt><trkpt lat="42.2265853" lon="13.8491035"><ele>872.0</ele><time>2026-05-02T09:07:28.111Z</time></trkpt><trkpt lat="42.226678" lon="13.8490856"><ele>871.0</ele><time>2026-05-02T09:07:29.107Z</time></trkpt><trkpt lat="42.2267636" lon="13.8490759"><ele>870.0</ele><time>2026-05-02T09:07:30.108Z</time></trkpt><trkpt lat="42.2268525" lon="13.8490538"><ele>870.0</ele><time>2026-05-02T09:07:31.108Z</time></trkpt><trkpt lat="42.2269468" lon="13.849037"><ele>870.0</ele><time>2026-05-02T09:07:32.104Z</time></trkpt><trkpt lat="42.2270419" lon="13.8490151"><ele>870.0</ele><time>2026-05-02T09:07:33.106Z</time></trkpt><trkpt lat="42.2271279" lon="13.8490029"><ele>870.0</ele><time>2026-05-02T09:07:34.101Z</time></trkpt><trkpt lat="42.2272079" lon="13.8489798"><ele>870.0</ele><time>2026-05-02T09:07:35.103Z</time></trkpt><trkpt lat="42.2272887" lon="13.84896"><ele>870.0</ele><time>2026-05-02T09:07:36.105Z</time></trkpt><trkpt lat="42.2273819" lon="13.848935"><ele>868.5</ele><time>2026-05-02T09:07:37.125Z</time></trkpt><trkpt lat="42.2274695" lon="13.8489155"><ele>867.0</ele><time>2026-05-02T09:07:38.122Z</time></trkpt><trkpt lat="42.2275472" lon="13.8489029"><ele>865.5</ele><time>2026-05-02T09:07:39.122Z</time></trkpt><trkpt lat="42.2276164" lon="13.8489072"><ele>864.0</ele><time>2026-05-02T09:07:40.128Z</time></trkpt><trkpt lat="42.2276992" lon="13.8489322"><ele>862.5</ele><time>2026-05-02T09:07:41.128Z</time></trkpt><trkpt lat="42.2277891" lon="13.8489693"><ele>861.0</ele><time>2026-05-02T09:07:42.105Z</time></trkpt><trkpt lat="42.2278918" lon="13.8490223"><ele>861.0</ele><time>2026-05-02T09:07:43.125Z</time></trkpt><trkpt lat="42.2279942" lon="13.8490632"><ele>860.9999999999999</ele><time>2026-05-02T09:07:44.127Z</time></trkpt><trkpt lat="42.228093" lon="13.8490987"><ele>860.9999999999999</ele><time>2026-05-02T09:07:45.125Z</time></trkpt><trkpt lat="42.2281903" lon="13.8491112"><ele>861.0</ele><time>2026-05-02T09:07:46.113Z</time></trkpt><trkpt lat="42.228279" lon="13.8491291"><ele>861.0</ele><time>2026-05-02T09:07:47.103Z</time></trkpt><trkpt lat="42.228353" lon="13.8491557"><ele>862.6666666666666</ele><time>2026-05-02T09:07:48.107Z</time></trkpt><trkpt lat="42.2284208" lon="13.849173"><ele>864.3333333333333</ele><time>2026-05-02T09:07:49.111Z</time></trkpt><trkpt lat="42.2284905" lon="13.8491582"><ele>866.0</ele><time>2026-05-02T09:07:50.11Z</time></trkpt><trkpt lat="42.2285661" lon="13.8491448"><ele>867.6666666666666</ele><time>2026-05-02T09:07:51.107Z</time></trkpt><trkpt lat="42.2286458" lon="13.8491117"><ele>869.3333333333333</ele><time>2026-05-02T09:07:52.11Z</time></trkpt><trkpt lat="42.2287224" lon="13.8491029"><ele>871.0</ele><time>2026-05-02T09:07:53.102Z</time></trkpt><trkpt lat="42.2288001" lon="13.8490985"><ele>871.0</ele><time>2026-05-02T09:07:54.105Z</time></trkpt><trkpt lat="42.2288704" lon="13.8491321"><ele>870.9999999999999</ele><time>2026-05-02T09:07:55.107Z</time></trkpt><trkpt lat="42.2289429" lon="13.8492046"><ele>870.9999999999999</ele><time>2026-05-02T09:07:56.103Z</time></trkpt><trkpt lat="42.2290291" lon="13.8492474"><ele>871.0</ele><time>2026-05-02T09:07:57.1Z</time></trkpt><trkpt lat="42.2291254" lon="13.8492981"><ele>871.0</ele><time>2026-05-02T09:07:58.103Z</time></trkpt><trkpt lat="42.2292207" lon="13.8493608"><ele>868.4</ele><time>2026-05-02T09:07:59.106Z</time></trkpt><trkpt lat="42.2292986" lon="13.8494189"><ele>865.8</ele><time>2026-05-02T09:08:00.109Z</time></trkpt><trkpt lat="42.2293652" lon="13.8494607"><ele>863.1999999999999</ele><time>2026-05-02T09:08:01.111Z</time></trkpt><trkpt lat="42.2294212" lon="13.8495025"><ele>860.5999999999999</ele><time>2026-05-02T09:08:02.107Z</time></trkpt><trkpt lat="42.2295365" lon="13.8494947"><ele>858.0</ele><time>2026-05-02T09:08:04.109Z</time></trkpt><trkpt lat="42.2296394" lon="13.8494299"><ele>858.0</ele><time>2026-05-02T09:08:06.109Z</time></trkpt><trkpt lat="42.2297235" lon="13.8493661"><ele>858.0</ele><time>2026-05-02T09:08:08.106Z</time></trkpt><trkpt lat="42.2297825" lon="13.84933"><ele>858.0</ele><time>2026-05-02T09:08:09.107Z</time></trkpt><trkpt lat="42.22985" lon="13.8492846"><ele>858.0</ele><time>2026-05-02T09:08:10.107Z</time></trkpt><trkpt lat="42.2299221" lon="13.8492339"><ele>858.0</ele><time>2026-05-02T09:08:11.106Z</time></trkpt><trkpt lat="42.2299833" lon="13.8491955"><ele>858.0</ele><time>2026-05-02T09:08:12.106Z</time></trkpt><trkpt lat="42.2300477" lon="13.8491635"><ele>863.5999999999999</ele><time>2026-05-02T09:08:13.108Z</time></trkpt><trkpt lat="42.2301222" lon="13.8491367"><ele>869.1999999999999</ele><time>2026-05-02T09:08:14.11Z</time></trkpt><trkpt lat="42.230214" lon="13.8491094"><ele>874.8</ele><time>2026-05-02T09:08:15.107Z</time></trkpt><trkpt lat="42.2303136" lon="13.8490568"><ele>880.4</ele><time>2026-05-02T09:08:16.103Z</time></trkpt><trkpt lat="42.2304204" lon="13.8489873"><ele>886.0</ele><time>2026-05-02T09:08:17.104Z</time></trkpt><trkpt lat="42.2305249" lon="13.8489242"><ele>886.0</ele><time>2026-05-02T09:08:18.105Z</time></trkpt><trkpt lat="42.2306322" lon="13.8488952"><ele>885.9999999999999</ele><time>2026-05-02T09:08:19.106Z</time></trkpt><trkpt lat="42.2307373" lon="13.8488574"><ele>885.9999999999999</ele><time>2026-05-02T09:08:20.108Z</time></trkpt><trkpt lat="42.2308407" lon="13.8488159"><ele>886.0</ele><time>2026-05-02T09:08:21.102Z</time></trkpt><trkpt lat="42.2309459" lon="13.8487838"><ele>886.0</ele><time>2026-05-02T09:08:22.115Z</time></trkpt><trkpt lat="42.2310475" lon="13.8487482"><ele>886.0</ele><time>2026-05-02T09:08:23.113Z</time></trkpt><trkpt lat="42.2311478" lon="13.8487002"><ele>885.9999999999999</ele><time>2026-05-02T09:08:24.11Z</time></trkpt><trkpt lat="42.2312484" lon="13.8486409"><ele>885.9999999999999</ele><time>2026-05-02T09:08:25.112Z</time></trkpt><trkpt lat="42.2313498" lon="13.8485814"><ele>886.0</ele><time>2026-05-02T09:08:26.114Z</time></trkpt><trkpt lat="42.2314504" lon="13.8485254"><ele>886.0</ele><time>2026-05-02T09:08:27.113Z</time></trkpt><trkpt lat="42.2315449" lon="13.8484978"><ele>886.8</ele><time>2026-05-02T09:08:28.117Z</time></trkpt><trkpt lat="42.2316416" lon="13.8484928"><ele>887.5999999999999</ele><time>2026-05-02T09:08:29.118Z</time></trkpt><trkpt lat="42.2317281" lon="13.8484742"><ele>888.4</ele><time>2026-05-02T09:08:30.114Z</time></trkpt><trkpt lat="42.2318208" lon="13.8484527"><ele>889.2</ele><time>2026-05-02T09:08:31.115Z</time></trkpt><trkpt lat="42.2319071" lon="13.8484303"><ele>890.0</ele><time>2026-05-02T09:08:32.114Z</time></trkpt><trkpt lat="42.2319881" lon="13.8484001"><ele>892.5000000000001</ele><time>2026-05-02T09:08:33.113Z</time></trkpt><trkpt lat="42.2320592" lon="13.8483579"><ele>895.0</ele><time>2026-05-02T09:08:34.113Z</time></trkpt><trkpt lat="42.2321149" lon="13.8482944"><ele>897.5</ele><time>2026-05-02T09:08:35.116Z</time></trkpt><trkpt lat="42.2321605" lon="13.8482206"><ele>900.0</ele><time>2026-05-02T09:08:36.116Z</time></trkpt><trkpt lat="42.2322105" lon="13.8481617"><ele>902.5000000000001</ele><time>2026-05-02T09:08:37.119Z</time></trkpt><trkpt lat="42.2322718" lon="13.8481171"><ele>905.0</ele><time>2026-05-02T09:08:38.112Z</time></trkpt><trkpt lat="42.2323971" lon="13.8480819"><ele>905.0</ele><time>2026-05-02T09:08:40.115Z</time></trkpt><trkpt lat="42.2324755" lon="13.8480827"><ele>905.0</ele><time>2026-05-02T09:08:41.12Z</time></trkpt><trkpt lat="42.232576" lon="13.848101"><ele>905.0</ele><time>2026-05-02T09:08:43.115Z</time></trkpt><trkpt lat="42.2325473" lon="13.8479961"><ele>905.0</ele><time>2026-05-02T09:09:00.12Z</time></trkpt><trkpt lat="42.2324758" lon="13.8479143"><ele>905.0</ele><time>2026-05-02T09:09:02.118Z</time></trkpt><trkpt lat="42.2323672" lon="13.8478168"><ele>905.0000000000001</ele><time>2026-05-02T09:09:04.118Z</time></trkpt><trkpt lat="42.2323127" lon="13.8477544"><ele>905.0</ele><time>2026-05-02T09:09:05.118Z</time></trkpt><trkpt lat="42.2322631" lon="13.847695"><ele>905.0</ele><time>2026-05-02T09:09:07.117Z</time></trkpt><trkpt lat="42.2322086" lon="13.8476433"><ele>905.0</ele><time>2026-05-02T09:09:20.115Z</time></trkpt><trkpt lat="42.232107" lon="13.8475621"><ele>905.0000000000001</ele><time>2026-05-02T09:09:23.107Z</time></trkpt><trkpt lat="42.2320464" lon="13.8474919"><ele>905.0</ele><time>2026-05-02T09:09:24.111Z</time></trkpt><trkpt lat="42.2319704" lon="13.847414"><ele>910.2</ele><time>2026-05-02T09:09:25.107Z</time></trkpt><trkpt lat="42.2318876" lon="13.8473443"><ele>915.4</ele><time>2026-05-02T09:09:26.114Z</time></trkpt><trkpt lat="42.231802" lon="13.847284"><ele>920.5999999999999</ele><time>2026-05-02T09:09:27.109Z</time></trkpt><trkpt lat="42.2317141" lon="13.8472469"><ele>925.8</ele><time>2026-05-02T09:09:28.111Z</time></trkpt><trkpt lat="42.2316221" lon="13.8472286"><ele>931.0</ele><time>2026-05-02T09:09:29.105Z</time></trkpt><trkpt lat="42.2315222" lon="13.8472305"><ele>931.0</ele><time>2026-05-02T09:09:30.109Z</time></trkpt><trkpt lat="42.2314213" lon="13.8472165"><ele>930.9999999999999</ele><time>2026-05-02T09:09:31.103Z</time></trkpt><trkpt lat="42.2313141" lon="13.8471801"><ele>930.9999999999999</ele><time>2026-05-02T09:09:32.105Z</time></trkpt><trkpt lat="42.231211" lon="13.8471101"><ele>931.0</ele><time>2026-05-02T09:09:33.104Z</time></trkpt><trkpt lat="42.231115" lon="13.847031"><ele>931.0</ele><time>2026-05-02T09:09:34.107Z</time></trkpt><trkpt lat="42.2310289" lon="13.8469454"><ele>931.0</ele><time>2026-05-02T09:09:35.105Z</time></trkpt><trkpt lat="42.2309428" lon="13.8469036"><ele>930.9999999999999</ele><time>2026-05-02T09:09:36.108Z</time></trkpt><trkpt lat="42.230859" lon="13.8468817"><ele>930.9999999999999</ele><time>2026-05-02T09:09:37.101Z</time></trkpt><trkpt lat="42.230772" lon="13.8468887"><ele>931.0</ele><time>2026-05-02T09:09:38.111Z</time></trkpt><trkpt lat="42.2306616" lon="13.8469342"><ele>931.0</ele><time>2026-05-02T09:09:39.104Z</time></trkpt><trkpt lat="42.2305418" lon="13.8469839"><ele>931.75</ele><time>2026-05-02T09:09:40.106Z</time></trkpt><trkpt lat="42.230424" lon="13.8470301"><ele>932.5</ele><time>2026-05-02T09:09:41.11Z</time></trkpt><trkpt lat="42.2303003" lon="13.8470861"><ele>933.25</ele><time>2026-05-02T09:09:42.108Z</time></trkpt><trkpt lat="42.2301711" lon="13.8471326"><ele>934.0</ele><time>2026-05-02T09:09:43.107Z</time></trkpt><trkpt lat="42.2300484" lon="13.8471812"><ele>934.0</ele><time>2026-05-02T09:09:44.11Z</time></trkpt><trkpt lat="42.229925" lon="13.8472462"><ele>934.0</ele><time>2026-05-02T09:09:45.111Z</time></trkpt><trkpt lat="42.2298019" lon="13.8473081"><ele>934.0</ele><time>2026-05-02T09:09:46.115Z</time></trkpt><trkpt lat="42.2296797" lon="13.847368"><ele>934.0</ele><time>2026-05-02T09:09:47.109Z</time></trkpt><trkpt lat="42.2295632" lon="13.8474224"><ele>935.5</ele><time>2026-05-02T09:09:48.11Z</time></trkpt><trkpt lat="42.2294559" lon="13.847479"><ele>937.0</ele><time>2026-05-02T09:09:49.114Z</time></trkpt><trkpt lat="42.2293478" lon="13.8475264"><ele>938.5</ele><time>2026-05-02T09:09:50.11Z</time></trkpt><trkpt lat="42.2292355" lon="13.8475649"><ele>940.0</ele><time>2026-05-02T09:09:51.111Z</time></trkpt><trkpt lat="42.2291119" lon="13.8475954"><ele>940.0</ele><time>2026-05-02T09:09:52.114Z</time></trkpt><trkpt lat="42.2289873" lon="13.8476144"><ele>940.0</ele><time>2026-05-02T09:09:53.119Z</time></trkpt><trkpt lat="42.2288637" lon="13.8476368"><ele>940.0</ele><time>2026-05-02T09:09:54.11Z</time></trkpt><trkpt lat="42.2287402" lon="13.8476648"><ele>940.0</ele><time>2026-05-02T09:09:55.112Z</time></trkpt><trkpt lat="42.2286228" lon="13.8476908"><ele>933.2</ele><time>2026-05-02T09:09:56.115Z</time></trkpt><trkpt lat="42.2285127" lon="13.847736"><ele>926.4</ele><time>2026-05-02T09:09:57.113Z</time></trkpt><trkpt lat="42.2284031" lon="13.8477754"><ele>919.5999999999999</ele><time>2026-05-02T09:09:58.113Z</time></trkpt><trkpt lat="42.2282954" lon="13.8477966"><ele>912.8</ele><time>2026-05-02T09:09:59.107Z</time></trkpt><trkpt lat="42.2281948" lon="13.8478039"><ele>906.0</ele><time>2026-05-02T09:10:00.112Z</time></trkpt><trkpt lat="42.228101" lon="13.8478061"><ele>905.0</ele><time>2026-05-02T09:10:01.105Z</time></trkpt><trkpt lat="42.2280189" lon="13.847807"><ele>904.0</ele><time>2026-05-02T09:10:02.101Z</time></trkpt><trkpt lat="42.2279527" lon="13.847805"><ele>903.0</ele><time>2026-05-02T09:10:03.102Z</time></trkpt><trkpt lat="42.2278861" lon="13.8478117"><ele>902.0</ele><time>2026-05-02T09:10:05.109Z</time></trkpt><trkpt lat="42.2277751" lon="13.8478156"><ele>901.0</ele><time>2026-05-02T09:10:08.105Z</time></trkpt><trkpt lat="42.2277031" lon="13.8478017"><ele>900.0</ele><time>2026-05-02T09:10:09.105Z</time></trkpt><trkpt lat="42.2276019" lon="13.8477791"><ele>900.0</ele><time>2026-05-02T09:10:10.102Z</time></trkpt><trkpt lat="42.2274856" lon="13.8477629"><ele>900.0</ele><time>2026-05-02T09:10:11.1Z</time></trkpt><trkpt lat="42.2273634" lon="13.8477522"><ele>900.0</ele><time>2026-05-02T09:10:12.101Z</time></trkpt><trkpt lat="42.2272542" lon="13.8477372"><ele>900.0</ele><time>2026-05-02T09:10:13.103Z</time></trkpt><trkpt lat="42.2271483" lon="13.847734"><ele>900.6</ele><time>2026-05-02T09:10:14.106Z</time></trkpt><trkpt lat="42.2270399" lon="13.8477406"><ele>901.2</ele><time>2026-05-02T09:10:15.107Z</time></trkpt><trkpt lat="42.22693" lon="13.8477579"><ele>901.8</ele><time>2026-05-02T09:10:16.109Z</time></trkpt><trkpt lat="42.2268205" lon="13.8477744"><ele>902.4</ele><time>2026-05-02T09:10:17.107Z</time></trkpt><trkpt lat="42.2267195" lon="13.847784"><ele>903.0</ele><time>2026-05-02T09:10:18.111Z</time></trkpt><trkpt lat="42.2266201" lon="13.8477875"><ele>903.0</ele><time>2026-05-02T09:10:19.114Z</time></trkpt><trkpt lat="42.2265182" lon="13.8477854"><ele>903.0</ele><time>2026-05-02T09:10:20.111Z</time></trkpt><trkpt lat="42.226407" lon="13.8477837"><ele>903.0</ele><time>2026-05-02T09:10:21.11Z</time></trkpt><trkpt lat="42.2262984" lon="13.8477865"><ele>903.0</ele><time>2026-05-02T09:10:22.109Z</time></trkpt><trkpt lat="42.2261836" lon="13.8477906"><ele>903.0</ele><time>2026-05-02T09:10:23.104Z</time></trkpt><trkpt lat="42.2260682" lon="13.8477909"><ele>903.4</ele><time>2026-05-02T09:10:24.116Z</time></trkpt><trkpt lat="42.2259585" lon="13.8477902"><ele>903.8</ele><time>2026-05-02T09:10:25.115Z</time></trkpt><trkpt lat="42.2258555" lon="13.8477946"><ele>904.2</ele><time>2026-05-02T09:10:26.114Z</time></trkpt><trkpt lat="42.2257579" lon="13.8477974"><ele>904.6</ele><time>2026-05-02T09:10:27.113Z</time></trkpt><trkpt lat="42.2256622" lon="13.8477947"><ele>905.0</ele><time>2026-05-02T09:10:28.107Z</time></trkpt><trkpt lat="42.22557" lon="13.8477758"><ele>902.4</ele><time>2026-05-02T09:10:29.121Z</time></trkpt><trkpt lat="42.2254819" lon="13.84774"><ele>899.8</ele><time>2026-05-02T09:10:30.116Z</time></trkpt><trkpt lat="42.2253935" lon="13.8476906"><ele>897.2</ele><time>2026-05-02T09:10:31.115Z</time></trkpt><trkpt lat="42.2253134" lon="13.8476326"><ele>894.6</ele><time>2026-05-02T09:10:32.114Z</time></trkpt><trkpt lat="42.225227" lon="13.8475745"><ele>892.0</ele><time>2026-05-02T09:10:33.114Z</time></trkpt><trkpt lat="42.2251409" lon="13.847517"><ele>893.8</ele><time>2026-05-02T09:10:34.113Z</time></trkpt><trkpt lat="42.2250424" lon="13.8474694"><ele>895.6</ele><time>2026-05-02T09:10:35.108Z</time></trkpt><trkpt lat="42.2249428" lon="13.8474254"><ele>897.3999999999999</ele><time>2026-05-02T09:10:36.115Z</time></trkpt><trkpt lat="42.2248402" lon="13.8473823"><ele>899.1999999999999</ele><time>2026-05-02T09:10:37.111Z</time></trkpt><trkpt lat="42.2247457" lon="13.8473376"><ele>901.0</ele><time>2026-05-02T09:10:38.11Z</time></trkpt><trkpt lat="42.2246682" lon="13.84729"><ele>901.0</ele><time>2026-05-02T09:10:39.108Z</time></trkpt><trkpt lat="42.2246179" lon="13.847238"><ele>900.9999999999999</ele><time>2026-05-02T09:10:40.108Z</time></trkpt><trkpt lat="42.2245826" lon="13.8470827"><ele>900.9999999999999</ele><time>2026-05-02T09:10:42.109Z</time></trkpt><trkpt lat="42.2245658" lon="13.8469804"><ele>901.0</ele><time>2026-05-02T09:10:43.11Z</time></trkpt><trkpt lat="42.2245763" lon="13.8468428"><ele>901.0</ele><time>2026-05-02T09:10:44.113Z</time></trkpt><trkpt lat="42.224597" lon="13.8467268"><ele>904.8</ele><time>2026-05-02T09:10:45.121Z</time></trkpt><trkpt lat="42.224658" lon="13.8466375"><ele>908.5999999999999</ele><time>2026-05-02T09:10:46.117Z</time></trkpt><trkpt lat="42.2247423" lon="13.8465522"><ele>912.4</ele><time>2026-05-02T09:10:47.124Z</time></trkpt><trkpt lat="42.2248241" lon="13.8464613"><ele>916.2</ele><time>2026-05-02T09:10:48.113Z</time></trkpt><trkpt lat="42.2249033" lon="13.8463677"><ele>920.0</ele><time>2026-05-02T09:10:49.11Z</time></trkpt><trkpt lat="42.2249796" lon="13.8462787"><ele>923.4</ele><time>2026-05-02T09:10:50.098Z</time></trkpt><trkpt lat="42.2250569" lon="13.8462018"><ele>926.8</ele><time>2026-05-02T09:10:51.098Z</time></trkpt><trkpt lat="42.2251345" lon="13.8461264"><ele>930.2</ele><time>2026-05-02T09:10:52.099Z</time></trkpt><trkpt lat="42.2252263" lon="13.8460628"><ele>933.6</ele><time>2026-05-02T09:10:53.099Z</time></trkpt><trkpt lat="42.2253199" lon="13.8460008"><ele>937.0</ele><time>2026-05-02T09:10:54.107Z</time></trkpt><trkpt lat="42.2254179" lon="13.8459426"><ele>939.75</ele><time>2026-05-02T09:10:55.105Z</time></trkpt><trkpt lat="42.2255173" lon="13.8458834"><ele>942.5</ele><time>2026-05-02T09:10:56.107Z</time></trkpt><trkpt lat="42.2256127" lon="13.8458206"><ele>945.25</ele><time>2026-05-02T09:10:57.106Z</time></trkpt><trkpt lat="42.2257127" lon="13.8457556"><ele>948.0</ele><time>2026-05-02T09:10:58.105Z</time></trkpt><trkpt lat="42.225824" lon="13.8456758"><ele>948.5</ele><time>2026-05-02T09:10:59.096Z</time></trkpt><trkpt lat="42.2259344" lon="13.8456045"><ele>949.0</ele><time>2026-05-02T09:11:00.101Z</time></trkpt><trkpt lat="42.2260419" lon="13.8455243"><ele>949.5</ele><time>2026-05-02T09:11:01.099Z</time></trkpt><trkpt lat="42.2261431" lon="13.8454296"><ele>950.0</ele><time>2026-05-02T09:11:02.102Z</time></trkpt><trkpt lat="42.2262415" lon="13.8453349"><ele>950.0</ele><time>2026-05-02T09:11:03.094Z</time></trkpt><trkpt lat="42.2263432" lon="13.8452395"><ele>950.0</ele><time>2026-05-02T09:11:04.097Z</time></trkpt><trkpt lat="42.2264352" lon="13.8451419"><ele>950.0</ele><time>2026-05-02T09:11:05.095Z</time></trkpt><trkpt lat="42.2265268" lon="13.8450351"><ele>950.0</ele><time>2026-05-02T09:11:06.1Z</time></trkpt><trkpt lat="42.2266193" lon="13.8449283"><ele>953.5</ele><time>2026-05-02T09:11:07.094Z</time></trkpt><trkpt lat="42.2267191" lon="13.8448247"><ele>957.0</ele><time>2026-05-02T09:11:08.095Z</time></trkpt><trkpt lat="42.2268347" lon="13.8447364"><ele>960.5</ele><time>2026-05-02T09:11:09.096Z</time></trkpt><trkpt lat="42.2269437" lon="13.8446457"><ele>964.0</ele><time>2026-05-02T09:11:10.098Z</time></trkpt><trkpt lat="42.2270432" lon="13.8445542"><ele>964.0</ele><time>2026-05-02T09:11:11.103Z</time></trkpt><trkpt lat="42.2271399" lon="13.8444753"><ele>964.0000000000001</ele><time>2026-05-02T09:11:12.102Z</time></trkpt><trkpt lat="42.2272338" lon="13.8444005"><ele>964.0000000000001</ele><time>2026-05-02T09:11:13.115Z</time></trkpt><trkpt lat="42.2273273" lon="13.8443293"><ele>964.0</ele><time>2026-05-02T09:11:14.105Z</time></trkpt><trkpt lat="42.2274184" lon="13.8442618"><ele>964.0</ele><time>2026-05-02T09:11:15.108Z</time></trkpt><trkpt lat="42.227498" lon="13.8442019"><ele>966.4999999999999</ele><time>2026-05-02T09:11:16.099Z</time></trkpt><trkpt lat="42.2275727" lon="13.8441541"><ele>969.0</ele><time>2026-05-02T09:11:17.109Z</time></trkpt><trkpt lat="42.2276307" lon="13.8440988"><ele>971.5</ele><time>2026-05-02T09:11:18.107Z</time></trkpt><trkpt lat="42.2276713" lon="13.8440322"><ele>974.0</ele><time>2026-05-02T09:11:19.115Z</time></trkpt><trkpt lat="42.227692" lon="13.8438786"><ele>976.4999999999999</ele><time>2026-05-02T09:11:21.1Z</time></trkpt><trkpt lat="42.2276323" lon="13.8437578"><ele>979.0</ele><time>2026-05-02T09:11:23.103Z</time></trkpt><trkpt lat="42.2275422" lon="13.8437192"><ele>979.0</ele><time>2026-05-02T09:11:25.108Z</time></trkpt><trkpt lat="42.2274278" lon="13.8437611"><ele>979.0000000000001</ele><time>2026-05-02T09:11:27.098Z</time></trkpt><trkpt lat="42.2273501" lon="13.8437882"><ele>979.0000000000001</ele><time>2026-05-02T09:11:28.103Z</time></trkpt><trkpt lat="42.2272692" lon="13.8438101"><ele>979.0</ele><time>2026-05-02T09:11:29.102Z</time></trkpt><trkpt lat="42.2271774" lon="13.8438278"><ele>979.0</ele><time>2026-05-02T09:11:30.102Z</time></trkpt><trkpt lat="42.2270591" lon="13.8438302"><ele>980.2</ele><time>2026-05-02T09:11:31.101Z</time></trkpt><trkpt lat="42.2269358" lon="13.8438291"><ele>981.4000000000001</ele><time>2026-05-02T09:11:32.1Z</time></trkpt><trkpt lat="42.2268186" lon="13.8438196"><ele>982.6</ele><time>2026-05-02T09:11:33.105Z</time></trkpt><trkpt lat="42.2267242" lon="13.8438136"><ele>983.8</ele><time>2026-05-02T09:11:34.102Z</time></trkpt><trkpt lat="42.2266236" lon="13.8437976"><ele>985.0</ele><time>2026-05-02T09:11:36.11Z</time></trkpt><trkpt lat="42.2265537" lon="13.8438416"><ele>986.0</ele><time>2026-05-02T09:11:38.112Z</time></trkpt><trkpt lat="42.2264751" lon="13.8439021"><ele>987.0</ele><time>2026-05-02T09:11:40.109Z</time></trkpt><trkpt lat="42.2263813" lon="13.8439096"><ele>988.0</ele><time>2026-05-02T09:11:42.111Z</time></trkpt><trkpt lat="42.2262727" lon="13.8439588"><ele>989.0</ele><time>2026-05-02T09:11:44.11Z</time></trkpt><trkpt lat="42.2261948" lon="13.8439912"><ele>990.0</ele><time>2026-05-02T09:11:45.1Z</time></trkpt><trkpt lat="42.2261006" lon="13.844031"><ele>990.0</ele><time>2026-05-02T09:11:46.098Z</time></trkpt><trkpt lat="42.2259853" lon="13.8440892"><ele>990.0</ele><time>2026-05-02T09:11:47.105Z</time></trkpt><trkpt lat="42.2258654" lon="13.8441484"><ele>990.0</ele><time>2026-05-02T09:11:48.112Z</time></trkpt><trkpt lat="42.22574" lon="13.8441953"><ele>990.0</ele><time>2026-05-02T09:11:49.113Z</time></trkpt><trkpt lat="42.2256223" lon="13.8442373"><ele>988.6</ele><time>2026-05-02T09:11:50.112Z</time></trkpt><trkpt lat="42.2255196" lon="13.8442877"><ele>987.2</ele><time>2026-05-02T09:11:51.112Z</time></trkpt><trkpt lat="42.2254324" lon="13.8443326"><ele>985.8</ele><time>2026-05-02T09:11:52.113Z</time></trkpt><trkpt lat="42.2253559" lon="13.844393"><ele>984.4</ele><time>2026-05-02T09:11:53.113Z</time></trkpt><trkpt lat="42.2252905" lon="13.8444555"><ele>983.0</ele><time>2026-05-02T09:11:54.116Z</time></trkpt><trkpt lat="42.2252177" lon="13.844508"><ele>980.8</ele><time>2026-05-02T09:11:55.116Z</time></trkpt><trkpt lat="42.2251329" lon="13.8445501"><ele>978.5999999999999</ele><time>2026-05-02T09:11:56.117Z</time></trkpt><trkpt lat="42.225036" lon="13.8445787"><ele>976.4000000000001</ele><time>2026-05-02T09:11:57.113Z</time></trkpt><trkpt lat="42.2249331" lon="13.8445932"><ele>974.2</ele><time>2026-05-02T09:11:58.118Z</time></trkpt><trkpt lat="42.2248366" lon="13.844597"><ele>972.0</ele><time>2026-05-02T09:11:59.112Z</time></trkpt><trkpt lat="42.2247511" lon="13.8445951"><ele>970.1666666666666</ele><time>2026-05-02T09:12:00.118Z</time></trkpt><trkpt lat="42.2246788" lon="13.8445892"><ele>968.3333333333333</ele><time>2026-05-02T09:12:01.111Z</time></trkpt><trkpt lat="42.2246094" lon="13.8445707"><ele>966.5</ele><time>2026-05-02T09:12:02.111Z</time></trkpt><trkpt lat="42.224533" lon="13.8444765"><ele>964.6666666666666</ele><time>2026-05-02T09:12:04.117Z</time></trkpt><trkpt lat="42.2245323" lon="13.8443872"><ele>962.8333333333333</ele><time>2026-05-02T09:12:05.113Z</time></trkpt><trkpt lat="42.2245533" lon="13.8442832"><ele>961.0</ele><time>2026-05-02T09:12:06.112Z</time></trkpt><trkpt lat="42.2245964" lon="13.8441654"><ele>959.75</ele><time>2026-05-02T09:12:07.116Z</time></trkpt><trkpt lat="42.2246592" lon="13.844029"><ele>958.5</ele><time>2026-05-02T09:12:08.103Z</time></trkpt><trkpt lat="42.2247292" lon="13.8438749"><ele>957.25</ele><time>2026-05-02T09:12:09.104Z</time></trkpt><trkpt lat="42.2247904" lon="13.8437178"><ele>956.0</ele><time>2026-05-02T09:12:10.102Z</time></trkpt><trkpt lat="42.2248429" lon="13.8435743"><ele>959.0</ele><time>2026-05-02T09:12:11.105Z</time></trkpt><trkpt lat="42.2248943" lon="13.8434406"><ele>961.9999999999999</ele><time>2026-05-02T09:12:12.097Z</time></trkpt><trkpt lat="42.2249507" lon="13.8433149"><ele>964.9999999999999</ele><time>2026-05-02T09:12:13.101Z</time></trkpt><trkpt lat="42.2250162" lon="13.8431953"><ele>968.0</ele><time>2026-05-02T09:12:14.091Z</time></trkpt><trkpt lat="42.2250948" lon="13.843096"><ele>971.0</ele><time>2026-05-02T09:12:15.1Z</time></trkpt><trkpt lat="42.2251805" lon="13.8430118"><ele>971.0</ele><time>2026-05-02T09:12:16.096Z</time></trkpt><trkpt lat="42.2252681" lon="13.8429211"><ele>971.0</ele><time>2026-05-02T09:12:17.101Z</time></trkpt><trkpt lat="42.2253461" lon="13.8428208"><ele>971.0</ele><time>2026-05-02T09:12:18.087Z</time></trkpt><trkpt lat="42.2254215" lon="13.8427047"><ele>971.0</ele><time>2026-05-02T09:12:19.097Z</time></trkpt><trkpt lat="42.225501" lon="13.8425856"><ele>970.25</ele><time>2026-05-02T09:12:20.091Z</time></trkpt><trkpt lat="42.2255805" lon="13.8424626"><ele>969.5</ele><time>2026-05-02T09:12:21.098Z</time></trkpt><trkpt lat="42.2256641" lon="13.8423538"><ele>968.75</ele><time>2026-05-02T09:12:22.089Z</time></trkpt><trkpt lat="42.2257466" lon="13.8422555"><ele>968.0</ele><time>2026-05-02T09:12:23.095Z</time></trkpt><trkpt lat="42.2258366" lon="13.8421758"><ele>968.0</ele><time>2026-05-02T09:12:24.085Z</time></trkpt><trkpt lat="42.2259369" lon="13.8421267"><ele>968.0</ele><time>2026-05-02T09:12:25.097Z</time></trkpt><trkpt lat="42.226033" lon="13.8420808"><ele>968.0</ele><time>2026-05-02T09:12:26.093Z</time></trkpt><trkpt lat="42.2261289" lon="13.8420489"><ele>968.0</ele><time>2026-05-02T09:12:27.094Z</time></trkpt><trkpt lat="42.2262226" lon="13.842031"><ele>968.0</ele><time>2026-05-02T09:12:28.096Z</time></trkpt><trkpt lat="42.2263149" lon="13.8420366"><ele>968.0</ele><time>2026-05-02T09:12:29.101Z</time></trkpt><trkpt lat="42.2264225" lon="13.8420595"><ele>968.0</ele><time>2026-05-02T09:12:30.098Z</time></trkpt><trkpt lat="42.2265401" lon="13.8420833"><ele>968.0</ele><time>2026-05-02T09:12:31.093Z</time></trkpt><trkpt lat="42.2266585" lon="13.8420967"><ele>968.0</ele><time>2026-05-02T09:12:32.09Z</time></trkpt><trkpt lat="42.2267786" lon="13.8420885"><ele>969.0</ele><time>2026-05-02T09:12:33.098Z</time></trkpt><trkpt lat="42.2269055" lon="13.8420747"><ele>970.0</ele><time>2026-05-02T09:12:34.095Z</time></trkpt><trkpt lat="42.2270365" lon="13.8420739"><ele>971.0</ele><time>2026-05-02T09:12:35.096Z</time></trkpt><trkpt lat="42.2271631" lon="13.8420656"><ele>972.0</ele><time>2026-05-02T09:12:36.102Z</time></trkpt><trkpt lat="42.227287" lon="13.8420594"><ele>970.0</ele><time>2026-05-02T09:12:37.096Z</time></trkpt><trkpt lat="42.2274136" lon="13.8420442"><ele>968.0</ele><time>2026-05-02T09:12:38.095Z</time></trkpt><trkpt lat="42.2275328" lon="13.8420319"><ele>966.0</ele><time>2026-05-02T09:12:39.099Z</time></trkpt><trkpt lat="42.2276539" lon="13.8420119"><ele>964.0</ele><time>2026-05-02T09:12:40.098Z</time></trkpt><trkpt lat="42.2277787" lon="13.841993"><ele>964.0</ele><time>2026-05-02T09:12:41.097Z</time></trkpt><trkpt lat="42.2279052" lon="13.8419719"><ele>964.0</ele><time>2026-05-02T09:12:42.101Z</time></trkpt><trkpt lat="42.2280389" lon="13.8419306"><ele>964.0</ele><time>2026-05-02T09:12:43.096Z</time></trkpt><trkpt lat="42.2281678" lon="13.8418862"><ele>964.0</ele><time>2026-05-02T09:12:44.097Z</time></trkpt><trkpt lat="42.2282963" lon="13.8418336"><ele>957.6</ele><time>2026-05-02T09:12:45.1Z</time></trkpt><trkpt lat="42.2284161" lon="13.8417723"><ele>951.2</ele><time>2026-05-02T09:12:46.093Z</time></trkpt><trkpt lat="42.2285266" lon="13.8417157"><ele>944.8000000000001</ele><time>2026-05-02T09:12:47.098Z</time></trkpt><trkpt lat="42.2286105" lon="13.8416548"><ele>938.4000000000001</ele><time>2026-05-02T09:12:48.091Z</time></trkpt><trkpt lat="42.2286717" lon="13.8415701"><ele>932.0</ele><time>2026-05-02T09:12:49.091Z</time></trkpt><trkpt lat="42.2287261" lon="13.8414674"><ele>932.0</ele><time>2026-05-02T09:12:50.095Z</time></trkpt><trkpt lat="42.2287778" lon="13.8413425"><ele>932.0</ele><time>2026-05-02T09:12:51.093Z</time></trkpt><trkpt lat="42.2288342" lon="13.8412092"><ele>932.0</ele><time>2026-05-02T09:12:52.09Z</time></trkpt><trkpt lat="42.2288922" lon="13.8410479"><ele>932.0</ele><time>2026-05-02T09:12:53.1Z</time></trkpt><trkpt lat="42.2289507" lon="13.8408771"><ele>933.25</ele><time>2026-05-02T09:12:54.093Z</time></trkpt><trkpt lat="42.2290034" lon="13.8406996"><ele>934.5</ele><time>2026-05-02T09:12:55.104Z</time></trkpt><trkpt lat="42.2290528" lon="13.8405265"><ele>935.75</ele><time>2026-05-02T09:12:56.096Z</time></trkpt><trkpt lat="42.2290978" lon="13.840358"><ele>937.0</ele><time>2026-05-02T09:12:57.099Z</time></trkpt><trkpt lat="42.2291428" lon="13.8401955"><ele>931.25</ele><time>2026-05-02T09:12:58.095Z</time></trkpt><trkpt lat="42.2291955" lon="13.8400514"><ele>925.5</ele><time>2026-05-02T09:12:59.111Z</time></trkpt><trkpt lat="42.2292485" lon="13.839907"><ele>919.75</ele><time>2026-05-02T09:13:00.099Z</time></trkpt><trkpt lat="42.2293051" lon="13.8397576"><ele>914.0</ele><time>2026-05-02T09:13:01.106Z</time></trkpt><trkpt lat="42.2293657" lon="13.8396075"><ele>914.0</ele><time>2026-05-02T09:13:02.094Z</time></trkpt><trkpt lat="42.2294268" lon="13.8394562"><ele>914.0</ele><time>2026-05-02T09:13:03.109Z</time></trkpt><trkpt lat="42.2294951" lon="13.8393088"><ele>914.0</ele><time>2026-05-02T09:13:04.098Z</time></trkpt><trkpt lat="42.229571" lon="13.8391831"><ele>914.0</ele><time>2026-05-02T09:13:05.101Z</time></trkpt><trkpt lat="42.2296582" lon="13.8390646"><ele>918.0</ele><time>2026-05-02T09:13:06.1Z</time></trkpt><trkpt lat="42.2297512" lon="13.8389493"><ele>922.0</ele><time>2026-05-02T09:13:07.095Z</time></trkpt><trkpt lat="42.2298359" lon="13.8388345"><ele>926.0</ele><time>2026-05-02T09:13:08.097Z</time></trkpt><trkpt lat="42.2299168" lon="13.8387122"><ele>930.0</ele><time>2026-05-02T09:13:09.099Z</time></trkpt><trkpt lat="42.2299935" lon="13.8385852"><ele>921.5</ele><time>2026-05-02T09:13:10.091Z</time></trkpt><trkpt lat="42.2300682" lon="13.8384528"><ele>913.0</ele><time>2026-05-02T09:13:11.1Z</time></trkpt><trkpt lat="42.230135" lon="13.8383138"><ele>904.5</ele><time>2026-05-02T09:13:12.094Z</time></trkpt><trkpt lat="42.230196" lon="13.8381776"><ele>896.0</ele><time>2026-05-02T09:13:13.101Z</time></trkpt><trkpt lat="42.2302541" lon="13.8380452"><ele>896.0</ele><time>2026-05-02T09:13:14.099Z</time></trkpt><trkpt lat="42.2303059" lon="13.8379291"><ele>895.9999999999999</ele><time>2026-05-02T09:13:15.094Z</time></trkpt><trkpt lat="42.2303595" lon="13.8378323"><ele>895.9999999999999</ele><time>2026-05-02T09:13:16.091Z</time></trkpt><trkpt lat="42.2304235" lon="13.8377525"><ele>896.0</ele><time>2026-05-02T09:13:17.092Z</time></trkpt><trkpt lat="42.2305058" lon="13.8376829"><ele>896.0</ele><time>2026-05-02T09:13:18.094Z</time></trkpt><trkpt lat="42.2305975" lon="13.8376111"><ele>894.8</ele><time>2026-05-02T09:13:19.102Z</time></trkpt><trkpt lat="42.2306869" lon="13.8375488"><ele>893.5999999999999</ele><time>2026-05-02T09:13:20.098Z</time></trkpt><trkpt lat="42.230777" lon="13.8374979"><ele>892.4</ele><time>2026-05-02T09:13:21.102Z</time></trkpt><trkpt lat="42.2308603" lon="13.8374425"><ele>891.2</ele><time>2026-05-02T09:13:22.101Z</time></trkpt><trkpt lat="42.2309361" lon="13.837393"><ele>890.0</ele><time>2026-05-02T09:13:23.103Z</time></trkpt><trkpt lat="42.2310236" lon="13.8373513"><ele>890.0</ele><time>2026-05-02T09:13:24.097Z</time></trkpt><trkpt lat="42.2311267" lon="13.8373188"><ele>890.0</ele><time>2026-05-02T09:13:25.101Z</time></trkpt><trkpt lat="42.2312475" lon="13.8372796"><ele>890.0</ele><time>2026-05-02T09:13:26.102Z</time></trkpt><trkpt lat="42.2313816" lon="13.8372533"><ele>890.0</ele><time>2026-05-02T09:13:27.103Z</time></trkpt><trkpt lat="42.2315144" lon="13.8372267"><ele>892.5</ele><time>2026-05-02T09:13:28.103Z</time></trkpt><trkpt lat="42.2316458" lon="13.8371949"><ele>895.0</ele><time>2026-05-02T09:13:29.109Z</time></trkpt><trkpt lat="42.2317743" lon="13.8371618"><ele>897.5</ele><time>2026-05-02T09:13:30.105Z</time></trkpt><trkpt lat="42.2318973" lon="13.8371354"><ele>900.0</ele><time>2026-05-02T09:13:31.103Z</time></trkpt><trkpt lat="42.2320179" lon="13.8371124"><ele>900.0</ele><time>2026-05-02T09:13:32.095Z</time></trkpt><trkpt lat="42.232121" lon="13.837095"><ele>900.0</ele><time>2026-05-02T09:13:33.094Z</time></trkpt><trkpt lat="42.2322221" lon="13.8370911"><ele>900.0</ele><time>2026-05-02T09:13:34.095Z</time></trkpt><trkpt lat="42.2323156" lon="13.8371017"><ele>900.0</ele><time>2026-05-02T09:13:35.105Z</time></trkpt><trkpt lat="42.2323986" lon="13.8371284"><ele>900.0</ele><time>2026-05-02T09:13:36.093Z</time></trkpt><trkpt lat="42.2324746" lon="13.8371558"><ele>900.0</ele><time>2026-05-02T09:13:37.093Z</time></trkpt><trkpt lat="42.2325468" lon="13.8371821"><ele>900.0</ele><time>2026-05-02T09:13:38.093Z</time></trkpt><trkpt lat="42.2326032" lon="13.8371135"><ele>900.0</ele><time>2026-05-02T09:13:40.099Z</time></trkpt><trkpt lat="42.2325036" lon="13.8370179"><ele>900.0</ele><time>2026-05-02T09:13:42.093Z</time></trkpt><trkpt lat="42.2324159" lon="13.8369863"><ele>900.0</ele><time>2026-05-02T09:13:43.099Z</time></trkpt><trkpt lat="42.2323057" lon="13.8369474"><ele>900.0</ele><time>2026-05-02T09:13:44.096Z</time></trkpt><trkpt lat="42.2321776" lon="13.8368958"><ele>900.0</ele><time>2026-05-02T09:13:45.096Z</time></trkpt><trkpt lat="42.2320412" lon="13.8368482"><ele>900.0</ele><time>2026-05-02T09:13:46.097Z</time></trkpt><trkpt lat="42.2318966" lon="13.8368014"><ele>900.0</ele><time>2026-05-02T09:13:47.097Z</time></trkpt><trkpt lat="42.2317534" lon="13.8367562"><ele>887.3333333333333</ele><time>2026-05-02T09:13:48.095Z</time></trkpt><trkpt lat="42.231607" lon="13.8367052"><ele>874.6666666666666</ele><time>2026-05-02T09:13:49.093Z</time></trkpt><trkpt lat="42.2314144" lon="13.8366573"><ele>862.0</ele><time>2026-05-02T09:13:50.098Z</time></trkpt><trkpt lat="42.2312885" lon="13.8366253"><ele>859.75</ele><time>2026-05-02T09:13:51.096Z</time></trkpt><trkpt lat="42.2311551" lon="13.8365907"><ele>857.5</ele><time>2026-05-02T09:13:52.1Z</time></trkpt><trkpt lat="42.2310334" lon="13.8365803"><ele>855.25</ele><time>2026-05-02T09:13:53.097Z</time></trkpt><trkpt lat="42.2309327" lon="13.8366034"><ele>853.0</ele><time>2026-05-02T09:13:54.095Z</time></trkpt><trkpt lat="42.2308269" lon="13.8366233"><ele>853.0</ele><time>2026-05-02T09:13:55.097Z</time></trkpt><trkpt lat="42.2307141" lon="13.8366745"><ele>853.0</ele><time>2026-05-02T09:13:56.094Z</time></trkpt><trkpt lat="42.2305975" lon="13.8367184"><ele>853.0</ele><time>2026-05-02T09:13:57.097Z</time></trkpt><trkpt lat="42.2304789" lon="13.836788"><ele>853.0</ele><time>2026-05-02T09:13:58.095Z</time></trkpt><trkpt lat="42.2303439" lon="13.8368628"><ele>856.3333333333333</ele><time>2026-05-02T09:13:59.095Z</time></trkpt><trkpt lat="42.2301766" lon="13.8369391"><ele>859.6666666666667</ele><time>2026-05-02T09:14:00.097Z</time></trkpt><trkpt lat="42.2300237" lon="13.8370551"><ele>863.0</ele><time>2026-05-02T09:14:01.096Z</time></trkpt><trkpt lat="42.2298743" lon="13.8371323"><ele>854.6666666666667</ele><time>2026-05-02T09:14:02.093Z</time></trkpt><trkpt lat="42.2297342" lon="13.8372036"><ele>846.3333333333333</ele><time>2026-05-02T09:14:03.097Z</time></trkpt><trkpt lat="42.2295856" lon="13.837252"><ele>838.0</ele><time>2026-05-02T09:14:04.093Z</time></trkpt><trkpt lat="42.2294471" lon="13.8373218"><ele>838.0</ele><time>2026-05-02T09:14:05.097Z</time></trkpt><trkpt lat="42.2293302" lon="13.8373813"><ele>838.0</ele><time>2026-05-02T09:14:06.1Z</time></trkpt><trkpt lat="42.2292056" lon="13.837449"><ele>838.0</ele><time>2026-05-02T09:14:07.1Z</time></trkpt><trkpt lat="42.2290775" lon="13.837507"><ele>838.0</ele><time>2026-05-02T09:14:08.098Z</time></trkpt><trkpt lat="42.2289618" lon="13.8375783"><ele>836.8333333333333</ele><time>2026-05-02T09:14:09.098Z</time></trkpt><trkpt lat="42.2288573" lon="13.8376168"><ele>835.6666666666666</ele><time>2026-05-02T09:14:10.097Z</time></trkpt><trkpt lat="42.2287632" lon="13.8376633"><ele>834.5</ele><time>2026-05-02T09:14:11.097Z</time></trkpt><trkpt lat="42.2286797" lon="13.8377084"><ele>833.3333333333333</ele><time>2026-05-02T09:14:12.097Z</time></trkpt><trkpt lat="42.2286173" lon="13.8377585"><ele>832.1666666666666</ele><time>2026-05-02T09:14:13.097Z</time></trkpt><trkpt lat="42.2285572" lon="13.8378076"><ele>831.0</ele><time>2026-05-02T09:14:14.098Z</time></trkpt><trkpt lat="42.2284623" lon="13.8378324"><ele>831.0</ele><time>2026-05-02T09:14:16.095Z</time></trkpt><trkpt lat="42.228456" lon="13.8377441"><ele>831.0</ele><time>2026-05-02T09:14:18.1Z</time></trkpt><trkpt lat="42.2285777" lon="13.8376539"><ele>831.0</ele><time>2026-05-02T09:14:20.099Z</time></trkpt><trkpt lat="42.228669" lon="13.8376025"><ele>831.0</ele><time>2026-05-02T09:14:21.1Z</time></trkpt><trkpt lat="42.2287871" lon="13.8375415"><ele>831.0</ele><time>2026-05-02T09:14:22.099Z</time></trkpt><trkpt lat="42.2289127" lon="13.8374347"><ele>833.3333333333333</ele><time>2026-05-02T09:14:23.098Z</time></trkpt><trkpt lat="42.2290418" lon="13.8373159"><ele>835.6666666666666</ele><time>2026-05-02T09:14:24.096Z</time></trkpt><trkpt lat="42.2291665" lon="13.837197"><ele>838.0</ele><time>2026-05-02T09:14:25.093Z</time></trkpt><trkpt lat="42.2292816" lon="13.8370874"><ele>838.0</ele><time>2026-05-02T09:14:26.096Z</time></trkpt><trkpt lat="42.2293954" lon="13.8369897"><ele>838.0</ele><time>2026-05-02T09:14:27.094Z</time></trkpt><trkpt lat="42.2295089" lon="13.836883"><ele>838.0</ele><time>2026-05-02T09:14:28.093Z</time></trkpt><trkpt lat="42.2296164" lon="13.8367821"><ele>838.0</ele><time>2026-05-02T09:14:29.096Z</time></trkpt><trkpt lat="42.2297195" lon="13.8366628"><ele>835.3333333333333</ele><time>2026-05-02T09:14:30.093Z</time></trkpt><trkpt lat="42.2298292" lon="13.8365259"><ele>832.6666666666667</ele><time>2026-05-02T09:14:31.107Z</time></trkpt><trkpt lat="42.2299331" lon="13.8363465"><ele>830.0</ele><time>2026-05-02T09:14:32.1Z</time></trkpt><trkpt lat="42.2300105" lon="13.8361889"><ele>830.0</ele><time>2026-05-02T09:14:33.11Z</time></trkpt><trkpt lat="42.2301056" lon="13.8360748"><ele>830.0</ele><time>2026-05-02T09:14:34.101Z</time></trkpt><trkpt lat="42.230224" lon="13.8359598"><ele>830.0</ele><time>2026-05-02T09:14:35.105Z</time></trkpt><trkpt lat="42.2303417" lon="13.8358367"><ele>830.0</ele><time>2026-05-02T09:14:36.101Z</time></trkpt><trkpt lat="42.2304592" lon="13.835747"><ele>827.75</ele><time>2026-05-02T09:14:37.106Z</time></trkpt><trkpt lat="42.2305653" lon="13.8356505"><ele>825.5</ele><time>2026-05-02T09:14:38.102Z</time></trkpt><trkpt lat="42.2306643" lon="13.835581"><ele>823.25</ele><time>2026-05-02T09:14:39.109Z</time></trkpt><trkpt lat="42.2307703" lon="13.8354788"><ele>821.0</ele><time>2026-05-02T09:14:40.1Z</time></trkpt><trkpt lat="42.2308863" lon="13.8354209"><ele>821.0</ele><time>2026-05-02T09:14:41.109Z</time></trkpt><trkpt lat="42.2309952" lon="13.8353508"><ele>821.0</ele><time>2026-05-02T09:14:42.1Z</time></trkpt><trkpt lat="42.2311158" lon="13.835325"><ele>821.0</ele><time>2026-05-02T09:14:43.107Z</time></trkpt><trkpt lat="42.2312416" lon="13.8352895"><ele>821.0</ele><time>2026-05-02T09:14:44.104Z</time></trkpt><trkpt lat="42.2313786" lon="13.8352669"><ele>823.0</ele><time>2026-05-02T09:14:45.096Z</time></trkpt><trkpt lat="42.2315068" lon="13.8352382"><ele>825.0</ele><time>2026-05-02T09:14:46.103Z</time></trkpt><trkpt lat="42.2316025" lon="13.835216"><ele>827.0</ele><time>2026-05-02T09:14:47.099Z</time></trkpt><trkpt lat="42.2316991" lon="13.8352008"><ele>829.0</ele><time>2026-05-02T09:14:48.1Z</time></trkpt><trkpt lat="42.2317838" lon="13.8351693"><ele>831.0</ele><time>2026-05-02T09:14:49.101Z</time></trkpt><trkpt lat="42.2318607" lon="13.8351438"><ele>824.0</ele><time>2026-05-02T09:14:50.098Z</time></trkpt><trkpt lat="42.2319312" lon="13.8350792"><ele>817.0</ele><time>2026-05-02T09:14:52.094Z</time></trkpt><trkpt lat="42.23187" lon="13.834966"><ele>810.0</ele><time>2026-05-02T09:14:54.097Z</time></trkpt><trkpt lat="42.2317039" lon="13.8349563"><ele>803.0</ele><time>2026-05-02T09:14:56.096Z</time></trkpt><trkpt lat="42.2315805" lon="13.8349637"><ele>800.25</ele><time>2026-05-02T09:14:57.097Z</time></trkpt><trkpt lat="42.2314606" lon="13.8349645"><ele>797.5</ele><time>2026-05-02T09:14:58.103Z</time></trkpt><trkpt lat="42.2313444" lon="13.8349411"><ele>794.75</ele><time>2026-05-02T09:14:59.103Z</time></trkpt><trkpt lat="42.2312237" lon="13.8349071"><ele>792.0</ele><time>2026-05-02T09:15:00.099Z</time></trkpt><trkpt lat="42.2311044" lon="13.8348729"><ele>792.0</ele><time>2026-05-02T09:15:01.099Z</time></trkpt><trkpt lat="42.2309864" lon="13.8348484"><ele>792.0</ele><time>2026-05-02T09:15:02.107Z</time></trkpt><trkpt lat="42.2308606" lon="13.8348567"><ele>792.0</ele><time>2026-05-02T09:15:03.093Z</time></trkpt><trkpt lat="42.2307241" lon="13.8348819"><ele>792.0</ele><time>2026-05-02T09:15:04.094Z</time></trkpt><trkpt lat="42.2305778" lon="13.834915"><ele>787.6666666666667</ele><time>2026-05-02T09:15:05.096Z</time></trkpt><trkpt lat="42.2304156" lon="13.834955"><ele>783.3333333333334</ele><time>2026-05-02T09:15:06.091Z</time></trkpt><trkpt lat="42.2302592" lon="13.8350151"><ele>779.0</ele><time>2026-05-02T09:15:07.093Z</time></trkpt><trkpt lat="42.2301171" lon="13.8350713"><ele>779.0</ele><time>2026-05-02T09:15:08.095Z</time></trkpt><trkpt lat="42.2299746" lon="13.8351233"><ele>779.0</ele><time>2026-05-02T09:15:09.104Z</time></trkpt><trkpt lat="42.2298298" lon="13.8351688"><ele>779.0</ele><time>2026-05-02T09:15:10.102Z</time></trkpt><trkpt lat="42.229704" lon="13.8352177"><ele>779.0</ele><time>2026-05-02T09:15:11.111Z</time></trkpt><trkpt lat="42.2295621" lon="13.8352785"><ele>779.25</ele><time>2026-05-02T09:15:12.1Z</time></trkpt><trkpt lat="42.2294294" lon="13.8353692"><ele>779.5</ele><time>2026-05-02T09:15:13.107Z</time></trkpt><trkpt lat="42.2292974" lon="13.8354234"><ele>779.75</ele><time>2026-05-02T09:15:14.103Z</time></trkpt><trkpt lat="42.2291747" lon="13.835477"><ele>780.0</ele><time>2026-05-02T09:15:15.105Z</time></trkpt><trkpt lat="42.2290475" lon="13.8355656"><ele>777.25</ele><time>2026-05-02T09:15:16.106Z</time></trkpt><trkpt lat="42.2289296" lon="13.8356838"><ele>774.5</ele><time>2026-05-02T09:15:17.105Z</time></trkpt><trkpt lat="42.2288185" lon="13.8357676"><ele>771.75</ele><time>2026-05-02T09:15:18.101Z</time></trkpt><trkpt lat="42.2287068" lon="13.8358469"><ele>769.0</ele><time>2026-05-02T09:15:19.105Z</time></trkpt><trkpt lat="42.2286071" lon="13.8358975"><ele>768.9999999999999</ele><time>2026-05-02T09:15:20.109Z</time></trkpt><trkpt lat="42.2285065" lon="13.8359459"><ele>769.0</ele><time>2026-05-02T09:15:21.107Z</time></trkpt><trkpt lat="42.2284194" lon="13.835999"><ele>769.0</ele><time>2026-05-02T09:15:22.106Z</time></trkpt><trkpt lat="42.2283426" lon="13.8360415"><ele>769.0</ele><time>2026-05-02T09:15:23.105Z</time></trkpt><trkpt lat="42.228269" lon="13.8360668"><ele>768.9999999999999</ele><time>2026-05-02T09:15:24.099Z</time></trkpt><trkpt lat="42.2281984" lon="13.8360642"><ele>769.0</ele><time>2026-05-02T09:15:25.099Z</time></trkpt><trkpt lat="42.2281122" lon="13.8360186"><ele>770.3333333333333</ele><time>2026-05-02T09:15:26.102Z</time></trkpt><trkpt lat="42.2280001" lon="13.835936"><ele>771.6666666666667</ele><time>2026-05-02T09:15:27.095Z</time></trkpt><trkpt lat="42.2278681" lon="13.8358379"><ele>773.0</ele><time>2026-05-02T09:15:28.101Z</time></trkpt><trkpt lat="42.2277182" lon="13.8356761"><ele>773.0</ele><time>2026-05-02T09:15:29.101Z</time></trkpt><trkpt lat="42.2275747" lon="13.8355698"><ele>773.0</ele><time>2026-05-02T09:15:30.1Z</time></trkpt><trkpt lat="42.2274591" lon="13.8354907"><ele>773.0</ele><time>2026-05-02T09:15:31.094Z</time></trkpt><trkpt lat="42.2273376" lon="13.8354209"><ele>773.0</ele><time>2026-05-02T09:15:32.101Z</time></trkpt><trkpt lat="42.2272476" lon="13.8353447"><ele>772.0</ele><time>2026-05-02T09:15:33.098Z</time></trkpt><trkpt lat="42.2271522" lon="13.835312"><ele>771.0</ele><time>2026-05-02T09:15:34.096Z</time></trkpt><trkpt lat="42.2270652" lon="13.8352988"><ele>770.0</ele><time>2026-05-02T09:15:35.098Z</time></trkpt><trkpt lat="42.2269768" lon="13.8352776"><ele>769.0</ele><time>2026-05-02T09:15:36.1Z</time></trkpt><trkpt lat="42.22689" lon="13.8352827"><ele>768.0</ele><time>2026-05-02T09:15:37.1Z</time></trkpt><trkpt lat="42.2268019" lon="13.8352991"><ele>768.0</ele><time>2026-05-02T09:15:38.098Z</time></trkpt><trkpt lat="42.2266942" lon="13.83533"><ele>768.0</ele><time>2026-05-02T09:15:39.096Z</time></trkpt><trkpt lat="42.2265717" lon="13.8353595"><ele>768.0</ele><time>2026-05-02T09:15:40.1Z</time></trkpt><trkpt lat="42.2264507" lon="13.8353978"><ele>768.0</ele><time>2026-05-02T09:15:41.101Z</time></trkpt><trkpt lat="42.2263306" lon="13.8354394"><ele>763.5</ele><time>2026-05-02T09:15:42.106Z</time></trkpt><trkpt lat="42.226213" lon="13.8354828"><ele>759.0</ele><time>2026-05-02T09:15:43.104Z</time></trkpt><trkpt lat="42.2261024" lon="13.835526"><ele>754.5</ele><time>2026-05-02T09:15:44.103Z</time></trkpt><trkpt lat="42.2259942" lon="13.8355643"><ele>750.0</ele><time>2026-05-02T09:15:45.102Z</time></trkpt><trkpt lat="42.2258942" lon="13.8356063"><ele>750.0</ele><time>2026-05-02T09:15:46.109Z</time></trkpt><trkpt lat="42.2257929" lon="13.8356538"><ele>750.0</ele><time>2026-05-02T09:15:47.102Z</time></trkpt><trkpt lat="42.2256975" lon="13.8357099"><ele>750.0</ele><time>2026-05-02T09:15:48.103Z</time></trkpt><trkpt lat="42.2256015" lon="13.8357711"><ele>750.0</ele><time>2026-05-02T09:15:49.106Z</time></trkpt><trkpt lat="42.2255007" lon="13.8358385"><ele>750.0</ele><time>2026-05-02T09:15:50.106Z</time></trkpt><trkpt lat="42.2253983" lon="13.8358991"><ele>748.0</ele><time>2026-05-02T09:15:51.109Z</time></trkpt><trkpt lat="42.2253019" lon="13.8359745"><ele>746.0</ele><time>2026-05-02T09:15:52.104Z</time></trkpt><trkpt lat="42.2252042" lon="13.8360729"><ele>744.0</ele><time>2026-05-02T09:15:53.113Z</time></trkpt><trkpt lat="42.2250958" lon="13.8361831"><ele>742.0</ele><time>2026-05-02T09:15:54.107Z</time></trkpt><trkpt lat="42.224986" lon="13.8362913"><ele>742.0</ele><time>2026-05-02T09:15:55.115Z</time></trkpt><trkpt lat="42.2248762" lon="13.8363897"><ele>742.0</ele><time>2026-05-02T09:15:56.107Z</time></trkpt><trkpt lat="42.2247659" lon="13.8364843"><ele>742.0</ele><time>2026-05-02T09:15:57.105Z</time></trkpt><trkpt lat="42.2246585" lon="13.8365797"><ele>742.0</ele><time>2026-05-02T09:15:58.107Z</time></trkpt><trkpt lat="42.2245661" lon="13.8366843"><ele>737.5</ele><time>2026-05-02T09:15:59.104Z</time></trkpt><trkpt lat="42.2244885" lon="13.8368004"><ele>733.0</ele><time>2026-05-02T09:16:00.104Z</time></trkpt><trkpt lat="42.2244192" lon="13.8369355"><ele>728.5</ele><time>2026-05-02T09:16:01.111Z</time></trkpt><trkpt lat="42.2243574" lon="13.8370759"><ele>724.0</ele><time>2026-05-02T09:16:02.105Z</time></trkpt><trkpt lat="42.2242922" lon="13.837205"><ele>724.0</ele><time>2026-05-02T09:16:03.11Z</time></trkpt><trkpt lat="42.2242183" lon="13.8373329"><ele>724.0</ele><time>2026-05-02T09:16:04.105Z</time></trkpt><trkpt lat="42.2241361" lon="13.8374703"><ele>724.0</ele><time>2026-05-02T09:16:05.105Z</time></trkpt><trkpt lat="42.2240575" lon="13.8376114"><ele>724.0</ele><time>2026-05-02T09:16:06.104Z</time></trkpt><trkpt lat="42.2239904" lon="13.8377589"><ele>720.6</ele><time>2026-05-02T09:16:07.102Z</time></trkpt><trkpt lat="42.2239278" lon="13.8378983"><ele>717.2</ele><time>2026-05-02T09:16:08.103Z</time></trkpt><trkpt lat="42.2238628" lon="13.8380238"><ele>713.8000000000001</ele><time>2026-05-02T09:16:09.101Z</time></trkpt><trkpt lat="42.2238015" lon="13.8381269"><ele>710.4000000000001</ele><time>2026-05-02T09:16:10.101Z</time></trkpt><trkpt lat="42.2237371" lon="13.8382068"><ele>707.0</ele><time>2026-05-02T09:16:11.103Z</time></trkpt><trkpt lat="42.2236602" lon="13.8382801"><ele>707.0</ele><time>2026-05-02T09:16:12.106Z</time></trkpt><trkpt lat="42.22357" lon="13.8383501"><ele>707.0</ele><time>2026-05-02T09:16:13.102Z</time></trkpt><trkpt lat="42.2234762" lon="13.8384109"><ele>707.0</ele><time>2026-05-02T09:16:14.105Z</time></trkpt><trkpt lat="42.2233719" lon="13.8384738"><ele>707.0</ele><time>2026-05-02T09:16:15.106Z</time></trkpt><trkpt lat="42.2232564" lon="13.8385391"><ele>707.0</ele><time>2026-05-02T09:16:16.106Z</time></trkpt><trkpt lat="42.2231295" lon="13.8385995"><ele>707.75</ele><time>2026-05-02T09:16:17.105Z</time></trkpt><trkpt lat="42.2229978" lon="13.8386549"><ele>708.5</ele><time>2026-05-02T09:16:18.104Z</time></trkpt><trkpt lat="42.2228581" lon="13.8386956"><ele>709.25</ele><time>2026-05-02T09:16:19.102Z</time></trkpt><trkpt lat="42.2227462" lon="13.8387576"><ele>710.0</ele><time>2026-05-02T09:16:20.102Z</time></trkpt><trkpt lat="42.2226313" lon="13.8388047"><ele>710.0</ele><time>2026-05-02T09:16:21.112Z</time></trkpt><trkpt lat="42.2225144" lon="13.8388453"><ele>710.0</ele><time>2026-05-02T09:16:22.1Z</time></trkpt><trkpt lat="42.2224016" lon="13.838914"><ele>710.0</ele><time>2026-05-02T09:16:23.105Z</time></trkpt><trkpt lat="42.2223043" lon="13.838964"><ele>710.0</ele><time>2026-05-02T09:16:24.1Z</time></trkpt><trkpt lat="42.2222055" lon="13.8390296"><ele>708.6666666666666</ele><time>2026-05-02T09:16:25.103Z</time></trkpt><trkpt lat="42.2221399" lon="13.8391275"><ele>707.3333333333333</ele><time>2026-05-02T09:16:26.103Z</time></trkpt><trkpt lat="42.222087" lon="13.8392056"><ele>706.0</ele><time>2026-05-02T09:16:27.103Z</time></trkpt><trkpt lat="42.2220463" lon="13.8392707"><ele>704.6666666666666</ele><time>2026-05-02T09:16:28.107Z</time></trkpt><trkpt lat="42.2219542" lon="13.8393099"><ele>703.3333333333334</ele><time>2026-05-02T09:16:30.1Z</time></trkpt><trkpt lat="42.2219212" lon="13.8391674"><ele>702.0</ele><time>2026-05-02T09:16:32.105Z</time></trkpt><trkpt lat="42.2219483" lon="13.8390474"><ele>697.75</ele><time>2026-05-02T09:16:33.11Z</time></trkpt><trkpt lat="42.2220054" lon="13.8389076"><ele>693.5</ele><time>2026-05-02T09:16:34.107Z</time></trkpt><trkpt lat="42.2220741" lon="13.8387561"><ele>689.25</ele><time>2026-05-02T09:16:35.106Z</time></trkpt><trkpt lat="42.2221354" lon="13.8386115"><ele>685.0</ele><time>2026-05-02T09:16:36.105Z</time></trkpt><trkpt lat="42.2221979" lon="13.838478"><ele>687.25</ele><time>2026-05-02T09:16:37.106Z</time></trkpt><trkpt lat="42.2222629" lon="13.8383534"><ele>689.5</ele><time>2026-05-02T09:16:38.104Z</time></trkpt><trkpt lat="42.2223332" lon="13.8382373"><ele>691.75</ele><time>2026-05-02T09:16:39.104Z</time></trkpt><trkpt lat="42.2224167" lon="13.8381265"><ele>694.0</ele><time>2026-05-02T09:16:40.105Z</time></trkpt><trkpt lat="42.2225082" lon="13.8380163"><ele>694.0</ele><time>2026-05-02T09:16:41.101Z</time></trkpt><trkpt lat="42.2225997" lon="13.8379102"><ele>694.0</ele><time>2026-05-02T09:16:42.107Z</time></trkpt><trkpt lat="42.22269" lon="13.8378057"><ele>694.0</ele><time>2026-05-02T09:16:43.102Z</time></trkpt><trkpt lat="42.2227735" lon="13.8376983"><ele>694.0</ele><time>2026-05-02T09:16:44.105Z</time></trkpt><trkpt lat="42.2228415" lon="13.8375892"><ele>689.2</ele><time>2026-05-02T09:16:45.106Z</time></trkpt><trkpt lat="42.2228935" lon="13.8374893"><ele>684.4000000000001</ele><time>2026-05-02T09:16:46.107Z</time></trkpt><trkpt lat="42.2229401" lon="13.8373938"><ele>679.6</ele><time>2026-05-02T09:16:47.107Z</time></trkpt><trkpt lat="42.2229816" lon="13.8372787"><ele>674.8</ele><time>2026-05-02T09:16:48.102Z</time></trkpt><trkpt lat="42.2230142" lon="13.8371333"><ele>670.0</ele><time>2026-05-02T09:16:49.118Z</time></trkpt><trkpt lat="42.2230432" lon="13.8369806"><ele>670.0</ele><time>2026-05-02T09:16:50.106Z</time></trkpt><trkpt lat="42.2230661" lon="13.8368168"><ele>670.0</ele><time>2026-05-02T09:16:51.115Z</time></trkpt><trkpt lat="42.2230802" lon="13.8366609"><ele>670.0</ele><time>2026-05-02T09:16:52.108Z</time></trkpt><trkpt lat="42.2230891" lon="13.8365128"><ele>670.0</ele><time>2026-05-02T09:16:53.109Z</time></trkpt><trkpt lat="42.223095" lon="13.8363687"><ele>668.0</ele><time>2026-05-02T09:16:54.1Z</time></trkpt><trkpt lat="42.2230938" lon="13.8362403"><ele>666.0</ele><time>2026-05-02T09:16:55.108Z</time></trkpt><trkpt lat="42.2230915" lon="13.8361244"><ele>664.0</ele><time>2026-05-02T09:16:56.104Z</time></trkpt><trkpt lat="42.2230965" lon="13.8360352"><ele>662.0</ele><time>2026-05-02T09:16:57.111Z</time></trkpt><trkpt lat="42.2230315" lon="13.835916"><ele>660.0</ele><time>2026-05-02T09:16:59.114Z</time></trkpt><trkpt lat="42.2229635" lon="13.8359486"><ele>658.0</ele><time>2026-05-02T09:17:00.114Z</time></trkpt><trkpt lat="42.2228969" lon="13.8360299"><ele>658.0</ele><time>2026-05-02T09:17:01.113Z</time></trkpt><trkpt lat="42.2228241" lon="13.8361615"><ele>658.0</ele><time>2026-05-02T09:17:02.108Z</time></trkpt><trkpt lat="42.2227528" lon="13.8363125"><ele>658.0</ele><time>2026-05-02T09:17:03.106Z</time></trkpt><trkpt lat="42.2226854" lon="13.8364546"><ele>658.0</ele><time>2026-05-02T09:17:04.108Z</time></trkpt><trkpt lat="42.2226154" lon="13.8365798"><ele>658.0</ele><time>2026-05-02T09:17:05.112Z</time></trkpt><trkpt lat="42.2225448" lon="13.8366845"><ele>658.0</ele><time>2026-05-02T09:17:06.102Z</time></trkpt><trkpt lat="42.2224619" lon="13.8367662"><ele>658.0</ele><time>2026-05-02T09:17:07.105Z</time></trkpt><trkpt lat="42.2223624" lon="13.8368426"><ele>658.0</ele><time>2026-05-02T09:17:08.105Z</time></trkpt><trkpt lat="42.2222419" lon="13.836926"><ele>657.6666666666667</ele><time>2026-05-02T09:17:09.101Z</time></trkpt><trkpt lat="42.2221009" lon="13.8370072"><ele>657.3333333333334</ele><time>2026-05-02T09:17:10.1Z</time></trkpt><trkpt lat="42.2219168" lon="13.8371134"><ele>657.0</ele><time>2026-05-02T09:17:11.102Z</time></trkpt><trkpt lat="42.2217582" lon="13.8371822"><ele>657.0</ele><time>2026-05-02T09:17:12.104Z</time></trkpt><trkpt lat="42.2216364" lon="13.8372765"><ele>657.0</ele><time>2026-05-02T09:17:13.099Z</time></trkpt><trkpt lat="42.2215209" lon="13.8373375"><ele>657.0</ele><time>2026-05-02T09:17:14.1Z</time></trkpt><trkpt lat="42.2214207" lon="13.8373988"><ele>657.0</ele><time>2026-05-02T09:17:15.097Z</time></trkpt><trkpt lat="42.2213198" lon="13.8374434"><ele>652.3333333333334</ele><time>2026-05-02T09:17:16.097Z</time></trkpt><trkpt lat="42.2212485" lon="13.8374794"><ele>647.6666666666666</ele><time>2026-05-02T09:17:17.096Z</time></trkpt><trkpt lat="42.2211533" lon="13.8374883"><ele>643.0</ele><time>2026-05-02T09:17:19.115Z</time></trkpt><trkpt lat="42.2211882" lon="13.8373609"><ele>638.3333333333333</ele><time>2026-05-02T09:17:21.1Z</time></trkpt><trkpt lat="42.2212276" lon="13.8372934"><ele>633.6666666666666</ele><time>2026-05-02T09:17:22.111Z</time></trkpt><trkpt lat="42.2212982" lon="13.8372197"><ele>629.0</ele><time>2026-05-02T09:17:23.109Z</time></trkpt><trkpt lat="42.2213913" lon="13.8371324"><ele>632.0</ele><time>2026-05-02T09:17:24.1Z</time></trkpt><trkpt lat="42.2214977" lon="13.8370243"><ele>635.0</ele><time>2026-05-02T09:17:25.109Z</time></trkpt><trkpt lat="42.2215992" lon="13.8368892"><ele>638.0</ele><time>2026-05-02T09:17:26.112Z</time></trkpt><trkpt lat="42.2216994" lon="13.8367557"><ele>641.0</ele><time>2026-05-02T09:17:27.111Z</time></trkpt><trkpt lat="42.2217945" lon="13.8366254"><ele>641.0</ele><time>2026-05-02T09:17:28.113Z</time></trkpt><trkpt lat="42.2218723" lon="13.8364932"><ele>641.0</ele><time>2026-05-02T09:17:29.116Z</time></trkpt><trkpt lat="42.2219362" lon="13.8363635"><ele>641.0</ele><time>2026-05-02T09:17:30.109Z</time></trkpt><trkpt lat="42.2219898" lon="13.8362462"><ele>641.0</ele><time>2026-05-02T09:17:31.121Z</time></trkpt><trkpt lat="42.2220383" lon="13.836134"><ele>641.0</ele><time>2026-05-02T09:17:32.111Z</time></trkpt><trkpt lat="42.2220834" lon="13.8360456"><ele>641.0</ele><time>2026-05-02T09:17:33.109Z</time></trkpt><trkpt lat="42.2221179" lon="13.8359243"><ele>641.0</ele><time>2026-05-02T09:17:35.118Z</time></trkpt><trkpt lat="42.2220006" lon="13.835889"><ele>641.0</ele><time>2026-05-02T09:17:37.118Z</time></trkpt><trkpt lat="42.2219199" lon="13.8359573"><ele>641.0</ele><time>2026-05-02T09:17:38.115Z</time></trkpt><trkpt lat="42.2218273" lon="13.8360586"><ele>641.0</ele><time>2026-05-02T09:17:39.112Z</time></trkpt><trkpt lat="42.2217247" lon="13.8361754"><ele>641.0</ele><time>2026-05-02T09:17:40.106Z</time></trkpt><trkpt lat="42.2216068" lon="13.8363025"><ele>641.0</ele><time>2026-05-02T09:17:41.109Z</time></trkpt><trkpt lat="42.2214846" lon="13.8364211"><ele>641.0</ele><time>2026-05-02T09:17:42.11Z</time></trkpt><trkpt lat="42.2213204" lon="13.8365502"><ele>638.0</ele><time>2026-05-02T09:17:43.109Z</time></trkpt><trkpt lat="42.2211805" lon="13.8366446"><ele>635.0</ele><time>2026-05-02T09:17:44.106Z</time></trkpt><trkpt lat="42.2210758" lon="13.8367182"><ele>632.0</ele><time>2026-05-02T09:17:45.107Z</time></trkpt><trkpt lat="42.2209687" lon="13.8367954"><ele>629.0</ele><time>2026-05-02T09:17:46.112Z</time></trkpt><trkpt lat="42.220875" lon="13.8368978"><ele>629.0</ele><time>2026-05-02T09:17:47.106Z</time></trkpt><trkpt lat="42.2207817" lon="13.836992"><ele>629.0</ele><time>2026-05-02T09:17:48.106Z</time></trkpt><trkpt lat="42.2206959" lon="13.8371312"><ele>629.0</ele><time>2026-05-02T09:17:49.106Z</time></trkpt><trkpt lat="42.220611" lon="13.8372586"><ele>629.0</ele><time>2026-05-02T09:17:50.107Z</time></trkpt><trkpt lat="42.2205438" lon="13.8373781"><ele>618.25</ele><time>2026-05-02T09:17:51.106Z</time></trkpt><trkpt lat="42.220482" lon="13.8375054"><ele>607.5</ele><time>2026-05-02T09:17:52.101Z</time></trkpt><trkpt lat="42.2204266" lon="13.8376434"><ele>596.75</ele><time>2026-05-02T09:17:53.101Z</time></trkpt><trkpt lat="42.2203724" lon="13.8377933"><ele>586.0</ele><time>2026-05-02T09:17:54.102Z</time></trkpt><trkpt lat="42.2203232" lon="13.8379626"><ele>586.0</ele><time>2026-05-02T09:17:55.116Z</time></trkpt><trkpt lat="42.2202814" lon="13.8381195"><ele>586.0</ele><time>2026-05-02T09:17:56.104Z</time></trkpt><trkpt lat="42.220245" lon="13.8382613"><ele>586.0</ele><time>2026-05-02T09:17:57.109Z</time></trkpt><trkpt lat="42.2202187" lon="13.8383914"><ele>586.0</ele><time>2026-05-02T09:17:58.108Z</time></trkpt><trkpt lat="42.2202081" lon="13.8385149"><ele>586.0</ele><time>2026-05-02T09:17:59.11Z</time></trkpt><trkpt lat="42.2202227" lon="13.8386485"><ele>588.6</ele><time>2026-05-02T09:18:00.109Z</time></trkpt><trkpt lat="42.2202402" lon="13.8387781"><ele>591.2</ele><time>2026-05-02T09:18:01.1Z</time></trkpt><trkpt lat="42.2202458" lon="13.8388976"><ele>593.8</ele><time>2026-05-02T09:18:02.104Z</time></trkpt><trkpt lat="42.2202189" lon="13.8389959"><ele>596.4</ele><time>2026-05-02T09:18:03.099Z</time></trkpt><trkpt lat="42.2201662" lon="13.8390872"><ele>599.0</ele><time>2026-05-02T09:18:04.108Z</time></trkpt><trkpt lat="42.2200951" lon="13.8392025"><ele>604.75</ele><time>2026-05-02T09:18:05.107Z</time></trkpt><trkpt lat="42.2200231" lon="13.8393308"><ele>610.5</ele><time>2026-05-02T09:18:06.104Z</time></trkpt><trkpt lat="42.2199457" lon="13.8394581"><ele>616.25</ele><time>2026-05-02T09:18:07.106Z</time></trkpt><trkpt lat="42.2198579" lon="13.8395821"><ele>622.0</ele><time>2026-05-02T09:18:08.105Z</time></trkpt><trkpt lat="42.2197659" lon="13.8397072"><ele>609.75</ele><time>2026-05-02T09:18:09.103Z</time></trkpt><trkpt lat="42.2196793" lon="13.839821"><ele>597.5</ele><time>2026-05-02T09:18:10.106Z</time></trkpt><trkpt lat="42.2195985" lon="13.8399293"><ele>585.25</ele><time>2026-05-02T09:18:11.103Z</time></trkpt><trkpt lat="42.2195138" lon="13.8400349"><ele>573.0</ele><time>2026-05-02T09:18:12.102Z</time></trkpt><trkpt lat="42.2194285" lon="13.8401328"><ele>578.8</ele><time>2026-05-02T09:18:13.101Z</time></trkpt><trkpt lat="42.2193468" lon="13.8402338"><ele>584.5999999999999</ele><time>2026-05-02T09:18:14.103Z</time></trkpt><trkpt lat="42.2192776" lon="13.840335"><ele>590.4000000000001</ele><time>2026-05-02T09:18:15.101Z</time></trkpt><trkpt lat="42.2192165" lon="13.8404416"><ele>596.2</ele><time>2026-05-02T09:18:16.103Z</time></trkpt><trkpt lat="42.2191634" lon="13.8405426"><ele>602.0</ele><time>2026-05-02T09:18:17.098Z</time></trkpt><trkpt lat="42.2191174" lon="13.8406285"><ele>602.0</ele><time>2026-05-02T09:18:18.102Z</time></trkpt><trkpt lat="42.2190388" lon="13.8407011"><ele>602.0</ele><time>2026-05-02T09:18:20.108Z</time></trkpt><trkpt lat="42.2190211" lon="13.8405898"><ele>602.0</ele><time>2026-05-02T09:18:22.109Z</time></trkpt><trkpt lat="42.219051" lon="13.8404792"><ele>602.0</ele><time>2026-05-02T09:18:23.106Z</time></trkpt><trkpt lat="42.2191216" lon="13.8403721"><ele>602.0</ele><time>2026-05-02T09:18:24.099Z</time></trkpt><trkpt lat="42.2191985" lon="13.8402475"><ele>594.75</ele><time>2026-05-02T09:18:25.102Z</time></trkpt><trkpt lat="42.219266" lon="13.84011"><ele>587.5</ele><time>2026-05-02T09:18:26.105Z</time></trkpt><trkpt lat="42.2193245" lon="13.8399488"><ele>580.25</ele><time>2026-05-02T09:18:27.112Z</time></trkpt><trkpt lat="42.2193828" lon="13.8397844"><ele>573.0</ele><time>2026-05-02T09:18:28.106Z</time></trkpt><trkpt lat="42.2194433" lon="13.8396228"><ele>573.0</ele><time>2026-05-02T09:18:29.112Z</time></trkpt><trkpt lat="42.2195048" lon="13.8394592"><ele>573.0</ele><time>2026-05-02T09:18:30.093Z</time></trkpt><trkpt lat="42.2195642" lon="13.8393063"><ele>573.0</ele><time>2026-05-02T09:18:31.117Z</time></trkpt><trkpt lat="42.219619" lon="13.8391572"><ele>573.0</ele><time>2026-05-02T09:18:32.099Z</time></trkpt><trkpt lat="42.219675" lon="13.8390173"><ele>569.0</ele><time>2026-05-02T09:18:33.103Z</time></trkpt><trkpt lat="42.2197266" lon="13.8388834"><ele>565.0</ele><time>2026-05-02T09:18:34.101Z</time></trkpt><trkpt lat="42.2197663" lon="13.8387645"><ele>561.0</ele><time>2026-05-02T09:18:35.106Z</time></trkpt><trkpt lat="42.2197802" lon="13.8386445"><ele>557.0</ele><time>2026-05-02T09:18:36.099Z</time></trkpt><trkpt lat="42.2197666" lon="13.8385194"><ele>553.0</ele><time>2026-05-02T09:18:37.107Z</time></trkpt><trkpt lat="42.2197269" lon="13.8383789"><ele>548.25</ele><time>2026-05-02T09:18:38.112Z</time></trkpt><trkpt lat="42.2196825" lon="13.8382195"><ele>543.5</ele><time>2026-05-02T09:18:39.102Z</time></trkpt><trkpt lat="42.219663" lon="13.8380459"><ele>538.75</ele><time>2026-05-02T09:18:40.11Z</time></trkpt><trkpt lat="42.2196655" lon="13.837873"><ele>534.0</ele><time>2026-05-02T09:18:41.115Z</time></trkpt><trkpt lat="42.2196659" lon="13.8376964"><ele>531.75</ele><time>2026-05-02T09:18:42.115Z</time></trkpt><trkpt lat="42.2196639" lon="13.8375141"><ele>529.5</ele><time>2026-05-02T09:18:43.112Z</time></trkpt><trkpt lat="42.2196712" lon="13.8373378"><ele>527.25</ele><time>2026-05-02T09:18:44.117Z</time></trkpt><trkpt lat="42.2196905" lon="13.8371709"><ele>525.0</ele><time>2026-05-02T09:18:45.118Z</time></trkpt><trkpt lat="42.219715" lon="13.8370042"><ele>525.0</ele><time>2026-05-02T09:18:46.11Z</time></trkpt><trkpt lat="42.2197464" lon="13.8368451"><ele>525.0</ele><time>2026-05-02T09:18:47.122Z</time></trkpt><trkpt lat="42.2197749" lon="13.8366851"><ele>525.0</ele><time>2026-05-02T09:18:48.11Z</time></trkpt><trkpt lat="42.2198105" lon="13.8365212"><ele>525.0</ele><time>2026-05-02T09:18:49.113Z</time></trkpt><trkpt lat="42.2198579" lon="13.8363635"><ele>527.2</ele><time>2026-05-02T09:18:50.107Z</time></trkpt><trkpt lat="42.2199092" lon="13.836212"><ele>529.4</ele><time>2026-05-02T09:18:51.111Z</time></trkpt><trkpt lat="42.219959" lon="13.8360769"><ele>531.6</ele><time>2026-05-02T09:18:52.108Z</time></trkpt><trkpt lat="42.2200103" lon="13.8359633"><ele>533.8</ele><time>2026-05-02T09:18:53.101Z</time></trkpt><trkpt lat="42.2200688" lon="13.835875"><ele>536.0</ele><time>2026-05-02T09:18:54.098Z</time></trkpt><trkpt lat="42.2201268" lon="13.8357897"><ele>536.0</ele><time>2026-05-02T09:18:55.097Z</time></trkpt><trkpt lat="42.2200882" lon="13.8357205"><ele>536.0</ele><time>2026-05-02T09:18:58.105Z</time></trkpt><trkpt lat="42.2200222" lon="13.8357515"><ele>536.0</ele><time>2026-05-02T09:18:59.104Z</time></trkpt><trkpt lat="42.219954" lon="13.8358267"><ele>536.0</ele><time>2026-05-02T09:19:00.105Z</time></trkpt><trkpt lat="42.2198764" lon="13.8359312"><ele>536.0</ele><time>2026-05-02T09:19:01.1Z</time></trkpt><trkpt lat="42.2197903" lon="13.8360533"><ele>529.75</ele><time>2026-05-02T09:19:02.11Z</time></trkpt><trkpt lat="42.2197017" lon="13.8361922"><ele>523.5</ele><time>2026-05-02T09:19:03.106Z</time></trkpt><trkpt lat="42.2196111" lon="13.8363398"><ele>517.25</ele><time>2026-05-02T09:19:04.106Z</time></trkpt><trkpt lat="42.2195229" lon="13.8365026"><ele>511.0</ele><time>2026-05-02T09:19:05.108Z</time></trkpt><trkpt lat="42.219416" lon="13.8367002"><ele>515.6666666666667</ele><time>2026-05-02T09:19:06.11Z</time></trkpt><trkpt lat="42.2193345" lon="13.8368993"><ele>520.3333333333334</ele><time>2026-05-02T09:19:07.115Z</time></trkpt><trkpt lat="42.2192534" lon="13.8370635"><ele>525.0</ele><time>2026-05-02T09:19:08.11Z</time></trkpt><trkpt lat="42.2191802" lon="13.8372207"><ele>525.0</ele><time>2026-05-02T09:19:09.112Z</time></trkpt><trkpt lat="42.2191182" lon="13.8373847"><ele>525.0</ele><time>2026-05-02T09:19:10.111Z</time></trkpt><trkpt lat="42.2190636" lon="13.8375482"><ele>525.0</ele><time>2026-05-02T09:19:11.113Z</time></trkpt><trkpt lat="42.2190235" lon="13.8377167"><ele>525.0</ele><time>2026-05-02T09:19:12.108Z</time></trkpt><trkpt lat="42.2189914" lon="13.8378591"><ele>521.0</ele><time>2026-05-02T09:19:13.117Z</time></trkpt><trkpt lat="42.2189819" lon="13.8380208"><ele>517.0</ele><time>2026-05-02T09:19:14.109Z</time></trkpt><trkpt lat="42.2189706" lon="13.8381663"><ele>513.0</ele><time>2026-05-02T09:19:15.109Z</time></trkpt><trkpt lat="42.2189524" lon="13.8382855"><ele>509.0</ele><time>2026-05-02T09:19:16.113Z</time></trkpt><trkpt lat="42.218924" lon="13.838412"><ele>505.0</ele><time>2026-05-02T09:19:17.106Z</time></trkpt><trkpt lat="42.2188678" lon="13.8385115"><ele>505.0</ele><time>2026-05-02T09:19:18.098Z</time></trkpt><trkpt lat="42.218782" lon="13.8385935"><ele>505.0</ele><time>2026-05-02T09:19:19.107Z</time></trkpt><trkpt lat="42.2186794" lon="13.838684"><ele>505.0</ele><time>2026-05-02T09:19:20.105Z</time></trkpt><trkpt lat="42.2185689" lon="13.8387972"><ele>505.0</ele><time>2026-05-02T09:19:21.117Z</time></trkpt><trkpt lat="42.2184567" lon="13.8389308"><ele>505.0</ele><time>2026-05-02T09:19:22.118Z</time></trkpt><trkpt lat="42.2183292" lon="13.8390862"><ele>505.0</ele><time>2026-05-02T09:19:23.117Z</time></trkpt><trkpt lat="42.2182228" lon="13.839233"><ele>505.0</ele><time>2026-05-02T09:19:24.127Z</time></trkpt><trkpt lat="42.2181232" lon="13.8393929"><ele>501.5</ele><time>2026-05-02T09:19:25.117Z</time></trkpt><trkpt lat="42.2180114" lon="13.8395295"><ele>498.0</ele><time>2026-05-02T09:19:26.121Z</time></trkpt><trkpt lat="42.2179031" lon="13.8396539"><ele>494.5</ele><time>2026-05-02T09:19:27.113Z</time></trkpt><trkpt lat="42.2178093" lon="13.8397854"><ele>491.0</ele><time>2026-05-02T09:19:28.118Z</time></trkpt><trkpt lat="42.2176906" lon="13.8398973"><ele>491.0</ele><time>2026-05-02T09:19:29.114Z</time></trkpt><trkpt lat="42.2175566" lon="13.8400008"><ele>491.0</ele><time>2026-05-02T09:19:30.113Z</time></trkpt><trkpt lat="42.2174374" lon="13.8401358"><ele>491.0</ele><time>2026-05-02T09:19:31.113Z</time></trkpt><trkpt lat="42.2173086" lon="13.840248"><ele>488.25</ele><time>2026-05-02T09:19:32.119Z</time></trkpt><trkpt lat="42.2171891" lon="13.8403461"><ele>485.5</ele><time>2026-05-02T09:19:33.114Z</time></trkpt><trkpt lat="42.2170845" lon="13.84043"><ele>482.75</ele><time>2026-05-02T09:19:34.116Z</time></trkpt><trkpt lat="42.2169746" lon="13.8405074"><ele>480.0</ele><time>2026-05-02T09:19:35.117Z</time></trkpt><trkpt lat="42.2168702" lon="13.8405913"><ele>480.0</ele><time>2026-05-02T09:19:36.121Z</time></trkpt><trkpt lat="42.2167587" lon="13.840688"><ele>480.0</ele><time>2026-05-02T09:19:37.117Z</time></trkpt><trkpt lat="42.2166592" lon="13.8407674"><ele>480.0</ele><time>2026-05-02T09:19:38.117Z</time></trkpt><trkpt lat="42.2165699" lon="13.8408308"><ele>480.0</ele><time>2026-05-02T09:19:39.114Z</time></trkpt><trkpt lat="42.2164853" lon="13.8408721"><ele>480.0</ele><time>2026-05-02T09:19:40.124Z</time></trkpt><trkpt lat="42.2163971" lon="13.8409165"><ele>478.0</ele><time>2026-05-02T09:19:41.117Z</time></trkpt><trkpt lat="42.216308" lon="13.8409685"><ele>476.0</ele><time>2026-05-02T09:19:42.114Z</time></trkpt><trkpt lat="42.2162223" lon="13.8410253"><ele>474.0</ele><time>2026-05-02T09:19:43.114Z</time></trkpt><trkpt lat="42.216135" lon="13.8410762"><ele>472.0</ele><time>2026-05-02T09:19:44.115Z</time></trkpt><trkpt lat="42.2160559" lon="13.8411194"><ele>470.0</ele><time>2026-05-02T09:19:45.114Z</time></trkpt><trkpt lat="42.2159779" lon="13.8411669"><ele>470.0</ele><time>2026-05-02T09:19:46.114Z</time></trkpt><trkpt lat="42.2158851" lon="13.8412018"><ele>470.0</ele><time>2026-05-02T09:19:47.112Z</time></trkpt><trkpt lat="42.2157928" lon="13.8412367"><ele>470.0</ele><time>2026-05-02T09:19:48.112Z</time></trkpt><trkpt lat="42.2156996" lon="13.8412554"><ele>470.0</ele><time>2026-05-02T09:19:49.115Z</time></trkpt><trkpt lat="42.2156119" lon="13.8412703"><ele>470.0</ele><time>2026-05-02T09:19:50.111Z</time></trkpt><trkpt lat="42.2155361" lon="13.8412718"><ele>466.3333333333333</ele><time>2026-05-02T09:19:51.114Z</time></trkpt><trkpt lat="42.2154672" lon="13.8412556"><ele>462.66666666666663</ele><time>2026-05-02T09:19:52.113Z</time></trkpt><trkpt lat="42.2154024" lon="13.8412042"><ele>459.0</ele><time>2026-05-02T09:19:53.119Z</time></trkpt><trkpt lat="42.2153484" lon="13.8411283"><ele>455.33333333333337</ele><time>2026-05-02T09:19:54.129Z</time></trkpt><trkpt lat="42.2153025" lon="13.8410148"><ele>451.6666666666667</ele><time>2026-05-02T09:19:55.125Z</time></trkpt><trkpt lat="42.2152567" lon="13.8408774"><ele>448.0</ele><time>2026-05-02T09:19:56.126Z</time></trkpt><trkpt lat="42.2152147" lon="13.8407329"><ele>446.83333333333337</ele><time>2026-05-02T09:19:57.128Z</time></trkpt><trkpt lat="42.2151756" lon="13.8406089"><ele>445.6666666666667</ele><time>2026-05-02T09:19:58.133Z</time></trkpt><trkpt lat="42.2151443" lon="13.8405073"><ele>444.5</ele><time>2026-05-02T09:19:59.121Z</time></trkpt><trkpt lat="42.2151325" lon="13.8404149"><ele>443.33333333333337</ele><time>2026-05-02T09:20:00.122Z</time></trkpt><trkpt lat="42.2151587" lon="13.8402578"><ele>442.1666666666667</ele><time>2026-05-02T09:20:02.119Z</time></trkpt><trkpt lat="42.2152002" lon="13.8401825"><ele>441.0</ele><time>2026-05-02T09:20:03.115Z</time></trkpt><trkpt lat="42.2152862" lon="13.840108"><ele>440.6</ele><time>2026-05-02T09:20:04.117Z</time></trkpt><trkpt lat="42.2153791" lon="13.8400299"><ele>440.20000000000005</ele><time>2026-05-02T09:20:05.114Z</time></trkpt><trkpt lat="42.2154711" lon="13.839958"><ele>439.79999999999995</ele><time>2026-05-02T09:20:06.114Z</time></trkpt><trkpt lat="42.215558" lon="13.8398954"><ele>439.4</ele><time>2026-05-02T09:20:07.111Z</time></trkpt><trkpt lat="42.2156362" lon="13.8398353"><ele>439.0</ele><time>2026-05-02T09:20:08.118Z</time></trkpt><trkpt lat="42.2157094" lon="13.8397627"><ele>438.0</ele><time>2026-05-02T09:20:09.113Z</time></trkpt><trkpt lat="42.215776" lon="13.8396722"><ele>437.0</ele><time>2026-05-02T09:20:10.111Z</time></trkpt><trkpt lat="42.2158448" lon="13.8395706"><ele>436.0</ele><time>2026-05-02T09:20:11.112Z</time></trkpt><trkpt lat="42.21592" lon="13.8394555"><ele>435.0</ele><time>2026-05-02T09:20:12.115Z</time></trkpt><trkpt lat="42.2159893" lon="13.8393171"><ele>434.0</ele><time>2026-05-02T09:20:13.121Z</time></trkpt><trkpt lat="42.2160532" lon="13.8391569"><ele>434.0</ele><time>2026-05-02T09:20:14.114Z</time></trkpt><trkpt lat="42.2161203" lon="13.8389917"><ele>434.0</ele><time>2026-05-02T09:20:15.116Z</time></trkpt><trkpt lat="42.2161748" lon="13.8388111"><ele>434.0</ele><time>2026-05-02T09:20:16.113Z</time></trkpt><trkpt lat="42.2162192" lon="13.8385764"><ele>430.3333333333333</ele><time>2026-05-02T09:20:17.128Z</time></trkpt><trkpt lat="42.2163028" lon="13.8384052"><ele>426.66666666666663</ele><time>2026-05-02T09:20:18.113Z</time></trkpt><trkpt lat="42.2163593" lon="13.8382307"><ele>423.0</ele><time>2026-05-02T09:20:19.118Z</time></trkpt><trkpt lat="42.216406" lon="13.8380256"><ele>423.0</ele><time>2026-05-02T09:20:20.119Z</time></trkpt><trkpt lat="42.2164501" lon="13.8378157"><ele>423.0</ele><time>2026-05-02T09:20:21.125Z</time></trkpt><trkpt lat="42.2164889" lon="13.8376208"><ele>423.0</ele><time>2026-05-02T09:20:22.121Z</time></trkpt><trkpt lat="42.2165438" lon="13.8374335"><ele>423.0</ele><time>2026-05-02T09:20:23.121Z</time></trkpt><trkpt lat="42.2165998" lon="13.8372627"><ele>423.0</ele><time>2026-05-02T09:20:24.116Z</time></trkpt><trkpt lat="42.216641" lon="13.8370939"><ele>423.0</ele><time>2026-05-02T09:20:25.12Z</time></trkpt><trkpt lat="42.2166947" lon="13.8369105"><ele>423.0</ele><time>2026-05-02T09:20:26.113Z</time></trkpt><trkpt lat="42.2167304" lon="13.83673"><ele>419.0</ele><time>2026-05-02T09:20:27.123Z</time></trkpt><trkpt lat="42.2167631" lon="13.8365381"><ele>415.0</ele><time>2026-05-02T09:20:28.116Z</time></trkpt><trkpt lat="42.2168201" lon="13.8363471"><ele>411.0</ele><time>2026-05-02T09:20:29.118Z</time></trkpt><trkpt lat="42.2168948" lon="13.8361516"><ele>411.0</ele><time>2026-05-02T09:20:30.123Z</time></trkpt><trkpt lat="42.2169761" lon="13.8359907"><ele>411.0</ele><time>2026-05-02T09:20:31.11Z</time></trkpt><trkpt lat="42.217064" lon="13.8358596"><ele>411.0</ele><time>2026-05-02T09:20:32.112Z</time></trkpt><trkpt lat="42.2171517" lon="13.8357059"><ele>411.0</ele><time>2026-05-02T09:20:33.112Z</time></trkpt><trkpt lat="42.2172568" lon="13.8355575"><ele>411.0</ele><time>2026-05-02T09:20:34.117Z</time></trkpt><trkpt lat="42.2173458" lon="13.8353995"><ele>411.0</ele><time>2026-05-02T09:20:35.115Z</time></trkpt><trkpt lat="42.2174228" lon="13.8352352"><ele>411.0</ele><time>2026-05-02T09:20:36.11Z</time></trkpt><trkpt lat="42.217496" lon="13.835117"><ele>411.0</ele><time>2026-05-02T09:20:37.111Z</time></trkpt><trkpt lat="42.2175318" lon="13.83499"><ele>408.0</ele><time>2026-05-02T09:20:38.112Z</time></trkpt><trkpt lat="42.217564" lon="13.8348815"><ele>405.0</ele><time>2026-05-02T09:20:39.114Z</time></trkpt><trkpt lat="42.2175648" lon="13.8347149"><ele>402.0</ele><time>2026-05-02T09:20:40.109Z</time></trkpt><trkpt lat="42.21757" lon="13.8345261"><ele>399.0</ele><time>2026-05-02T09:20:41.11Z</time></trkpt><trkpt lat="42.2175466" lon="13.8343247"><ele>396.33333333333337</ele><time>2026-05-02T09:20:42.114Z</time></trkpt><trkpt lat="42.2175207" lon="13.8340991"><ele>393.6666666666667</ele><time>2026-05-02T09:20:43.117Z</time></trkpt><trkpt lat="42.2174948" lon="13.8338775"><ele>391.0</ele><time>2026-05-02T09:20:44.118Z</time></trkpt><trkpt lat="42.2174689" lon="13.8336735"><ele>389.0</ele><time>2026-05-02T09:20:45.114Z</time></trkpt><trkpt lat="42.2174556" lon="13.8334566"><ele>387.0</ele><time>2026-05-02T09:20:46.114Z</time></trkpt><trkpt lat="42.2174299" lon="13.833256"><ele>385.0</ele><time>2026-05-02T09:20:47.115Z</time></trkpt><trkpt lat="42.2174323" lon="13.8331148"><ele>383.0</ele><time>2026-05-02T09:20:48.116Z</time></trkpt><trkpt lat="42.2174358" lon="13.8329318"><ele>383.0</ele><time>2026-05-02T09:20:49.117Z</time></trkpt><trkpt lat="42.2174281" lon="13.8327187"><ele>383.0</ele><time>2026-05-02T09:20:50.116Z</time></trkpt><trkpt lat="42.217435" lon="13.8324931"><ele>383.0</ele><time>2026-05-02T09:20:51.115Z</time></trkpt><trkpt lat="42.2174657" lon="13.8322877"><ele>380.6666666666667</ele><time>2026-05-02T09:20:52.119Z</time></trkpt><trkpt lat="42.2174904" lon="13.8320785"><ele>378.3333333333333</ele><time>2026-05-02T09:20:53.116Z</time></trkpt><trkpt lat="42.2175106" lon="13.8318726"><ele>376.0</ele><time>2026-05-02T09:20:54.116Z</time></trkpt><trkpt lat="42.2175151" lon="13.831655"><ele>374.66666666666663</ele><time>2026-05-02T09:20:55.116Z</time></trkpt><trkpt lat="42.2175487" lon="13.8314471"><ele>373.3333333333333</ele><time>2026-05-02T09:20:56.113Z</time></trkpt><trkpt lat="42.2175809" lon="13.8312535"><ele>372.0</ele><time>2026-05-02T09:20:57.107Z</time></trkpt><trkpt lat="42.2176243" lon="13.8310612"><ele>371.25</ele><time>2026-05-02T09:20:58.106Z</time></trkpt><trkpt lat="42.217654" lon="13.8308511"><ele>370.5</ele><time>2026-05-02T09:20:59.112Z</time></trkpt><trkpt lat="42.2177156" lon="13.8306686"><ele>369.75</ele><time>2026-05-02T09:21:00.112Z</time></trkpt><trkpt lat="42.2177718" lon="13.8305259"><ele>369.0</ele><time>2026-05-02T09:21:01.117Z</time></trkpt><trkpt lat="42.2178302" lon="13.8303756"><ele>369.0</ele><time>2026-05-02T09:21:02.108Z</time></trkpt><trkpt lat="42.2178794" lon="13.8302442"><ele>369.0</ele><time>2026-05-02T09:21:03.116Z</time></trkpt><trkpt lat="42.2179386" lon="13.8301166"><ele>369.0</ele><time>2026-05-02T09:21:04.108Z</time></trkpt><trkpt lat="42.2180071" lon="13.8299896"><ele>369.0</ele><time>2026-05-02T09:21:05.112Z</time></trkpt><trkpt lat="42.2180309" lon="13.82985"><ele>369.0</ele><time>2026-05-02T09:21:06.116Z</time></trkpt><trkpt lat="42.218043" lon="13.829683"><ele>367.75</ele><time>2026-05-02T09:21:07.112Z</time></trkpt><trkpt lat="42.2180522" lon="13.829511"><ele>366.5</ele><time>2026-05-02T09:21:08.113Z</time></trkpt><trkpt lat="42.2180527" lon="13.8293184"><ele>365.25</ele><time>2026-05-02T09:21:09.117Z</time></trkpt><trkpt lat="42.2180384" lon="13.8291217"><ele>364.0</ele><time>2026-05-02T09:21:10.117Z</time></trkpt><trkpt lat="42.2179872" lon="13.8289038"><ele>363.25</ele><time>2026-05-02T09:21:11.125Z</time></trkpt><trkpt lat="42.2179851" lon="13.8287074"><ele>362.5</ele><time>2026-05-02T09:21:12.116Z</time></trkpt><trkpt lat="42.2179786" lon="13.82853"><ele>361.75</ele><time>2026-05-02T09:21:13.122Z</time></trkpt><trkpt lat="42.217963" lon="13.8283473"><ele>361.0</ele><time>2026-05-02T09:21:14.12Z</time></trkpt><trkpt lat="42.2179431" lon="13.8281473"><ele>359.75</ele><time>2026-05-02T09:21:15.115Z</time></trkpt><trkpt lat="42.2179313" lon="13.8279737"><ele>358.5</ele><time>2026-05-02T09:21:16.119Z</time></trkpt><trkpt lat="42.2179148" lon="13.8277961"><ele>357.25</ele><time>2026-05-02T09:21:17.118Z</time></trkpt><trkpt lat="42.2179087" lon="13.827625"><ele>356.0</ele><time>2026-05-02T09:21:18.12Z</time></trkpt><trkpt lat="42.2179253" lon="13.8274597"><ele>354.6</ele><time>2026-05-02T09:21:19.117Z</time></trkpt><trkpt lat="42.2179225" lon="13.8272868"><ele>353.20000000000005</ele><time>2026-05-02T09:21:20.12Z</time></trkpt><trkpt lat="42.2179168" lon="13.8271447"><ele>351.79999999999995</ele><time>2026-05-02T09:21:21.115Z</time></trkpt><trkpt lat="42.217924" lon="13.8270089"><ele>350.4</ele><time>2026-05-02T09:21:22.121Z</time></trkpt><trkpt lat="42.2179309" lon="13.8268867"><ele>349.0</ele><time>2026-05-02T09:21:23.116Z</time></trkpt><trkpt lat="42.2179017" lon="13.8267725"><ele>347.25</ele><time>2026-05-02T09:21:24.122Z</time></trkpt><trkpt lat="42.2178257" lon="13.8266808"><ele>345.5</ele><time>2026-05-02T09:21:25.114Z</time></trkpt><trkpt lat="42.2177148" lon="13.8266064"><ele>343.75</ele><time>2026-05-02T09:21:26.115Z</time></trkpt><trkpt lat="42.2176032" lon="13.8265461"><ele>342.0</ele><time>2026-05-02T09:21:27.109Z</time></trkpt><trkpt lat="42.2175001" lon="13.8264917"><ele>342.0</ele><time>2026-05-02T09:21:28.114Z</time></trkpt><trkpt lat="42.2174194" lon="13.8264352"><ele>342.0</ele><time>2026-05-02T09:21:29.113Z</time></trkpt><trkpt lat="42.2173643" lon="13.8263763"><ele>342.0</ele><time>2026-05-02T09:21:30.107Z</time></trkpt><trkpt lat="42.2173367" lon="13.8262838"><ele>342.0</ele><time>2026-05-02T09:21:32.111Z</time></trkpt><trkpt lat="42.217408" lon="13.8261387"><ele>342.0</ele><time>2026-05-02T09:21:34.106Z</time></trkpt><trkpt lat="42.2174776" lon="13.8260513"><ele>339.8</ele><time>2026-05-02T09:21:35.111Z</time></trkpt><trkpt lat="42.217556" lon="13.8259498"><ele>337.6</ele><time>2026-05-02T09:21:36.11Z</time></trkpt><trkpt lat="42.2176398" lon="13.8258396"><ele>335.40000000000003</ele><time>2026-05-02T09:21:37.124Z</time></trkpt><trkpt lat="42.2177125" lon="13.8257286"><ele>333.20000000000005</ele><time>2026-05-02T09:21:38.109Z</time></trkpt><trkpt lat="42.2177689" lon="13.8256122"><ele>331.0</ele><time>2026-05-02T09:21:39.109Z</time></trkpt><trkpt lat="42.2177945" lon="13.8254877"><ele>331.0</ele><time>2026-05-02T09:21:40.111Z</time></trkpt><trkpt lat="42.2177811" lon="13.8253666"><ele>331.0</ele><time>2026-05-02T09:21:41.123Z</time></trkpt><trkpt lat="42.2177383" lon="13.8252696"><ele>331.0</ele><time>2026-05-02T09:21:42.107Z</time></trkpt><trkpt lat="42.2176842" lon="13.8251955"><ele>331.0</ele><time>2026-05-02T09:21:43.112Z</time></trkpt><trkpt lat="42.217606" lon="13.8251434"><ele>331.0</ele><time>2026-05-02T09:21:44.112Z</time></trkpt><trkpt lat="42.2175107" lon="13.8251143"><ele>331.0</ele><time>2026-05-02T09:21:45.105Z</time></trkpt><trkpt lat="42.2174006" lon="13.8251037"><ele>329.20000000000005</ele><time>2026-05-02T09:21:46.108Z</time></trkpt><trkpt lat="42.2172899" lon="13.8250883"><ele>327.40000000000003</ele><time>2026-05-02T09:21:47.115Z</time></trkpt><trkpt lat="42.2171903" lon="13.8250562"><ele>325.6</ele><time>2026-05-02T09:21:48.114Z</time></trkpt><trkpt lat="42.2171228" lon="13.8250215"><ele>323.8</ele><time>2026-05-02T09:21:49.105Z</time></trkpt><trkpt lat="42.2170691" lon="13.82494"><ele>322.0</ele><time>2026-05-02T09:21:51.112Z</time></trkpt><trkpt lat="42.2170056" lon="13.8248304"><ele>322.0</ele><time>2026-05-02T09:21:53.116Z</time></trkpt><trkpt lat="42.2169559" lon="13.8247386"><ele>322.0</ele><time>2026-05-02T09:21:54.118Z</time></trkpt><trkpt lat="42.2168949" lon="13.8246073"><ele>322.0</ele><time>2026-05-02T09:21:55.114Z</time></trkpt><trkpt lat="42.2168236" lon="13.8244248"><ele>322.0</ele><time>2026-05-02T09:21:56.113Z</time></trkpt><trkpt lat="42.216721" lon="13.8241588"><ele>321.0</ele><time>2026-05-02T09:21:57.119Z</time></trkpt><trkpt lat="42.2166185" lon="13.823917"><ele>320.0</ele><time>2026-05-02T09:21:58.118Z</time></trkpt><trkpt lat="42.2165383" lon="13.8237165"><ele>319.0</ele><time>2026-05-02T09:21:59.127Z</time></trkpt><trkpt lat="42.2164538" lon="13.8234988"><ele>317.5</ele><time>2026-05-02T09:22:00.116Z</time></trkpt><trkpt lat="42.2163757" lon="13.8232921"><ele>316.0</ele><time>2026-05-02T09:22:01.118Z</time></trkpt><trkpt lat="42.2163151" lon="13.8231354"><ele>314.5</ele><time>2026-05-02T09:22:02.111Z</time></trkpt><trkpt lat="42.2162517" lon="13.8229896"><ele>313.0</ele><time>2026-05-02T09:22:03.116Z</time></trkpt><trkpt lat="42.2161888" lon="13.8228612"><ele>313.0</ele><time>2026-05-02T09:22:04.115Z</time></trkpt><trkpt lat="42.2161471" lon="13.8227332"><ele>313.0</ele><time>2026-05-02T09:22:05.117Z</time></trkpt><trkpt lat="42.2160973" lon="13.8226073"><ele>313.0</ele><time>2026-05-02T09:22:06.112Z</time></trkpt><trkpt lat="42.2160248" lon="13.8224781"><ele>313.0</ele><time>2026-05-02T09:22:07.117Z</time></trkpt><trkpt lat="42.2159436" lon="13.8223618"><ele>313.0</ele><time>2026-05-02T09:22:08.113Z</time></trkpt><trkpt lat="42.2158445" lon="13.8222664"><ele>313.66666666666663</ele><time>2026-05-02T09:22:09.122Z</time></trkpt><trkpt lat="42.2157109" lon="13.8222233"><ele>314.3333333333333</ele><time>2026-05-02T09:22:10.113Z</time></trkpt><trkpt lat="42.2155619" lon="13.8222119"><ele>315.0</ele><time>2026-05-02T09:22:11.111Z</time></trkpt><trkpt lat="42.2153948" lon="13.8222855"><ele>315.6666666666667</ele><time>2026-05-02T09:22:12.109Z</time></trkpt><trkpt lat="42.2152335" lon="13.8223427"><ele>316.33333333333337</ele><time>2026-05-02T09:22:13.105Z</time></trkpt><trkpt lat="42.2150642" lon="13.8224637"><ele>317.0</ele><time>2026-05-02T09:22:14.106Z</time></trkpt><trkpt lat="42.2148943" lon="13.8225821"><ele>317.0</ele><time>2026-05-02T09:22:15.114Z</time></trkpt><trkpt lat="42.2147434" lon="13.8226976"><ele>317.0</ele><time>2026-05-02T09:22:16.102Z</time></trkpt><trkpt lat="42.2146273" lon="13.8227559"><ele>317.0</ele><time>2026-05-02T09:22:17.105Z</time></trkpt><trkpt lat="42.2145318" lon="13.8227893"><ele>317.0</ele><time>2026-05-02T09:22:18.1Z</time></trkpt><trkpt lat="42.2144461" lon="13.8228117"><ele>317.0</ele><time>2026-05-02T09:22:19.109Z</time></trkpt><trkpt lat="42.2143475" lon="13.8227124"><ele>317.0</ele><time>2026-05-02T09:22:20.099Z</time></trkpt><trkpt lat="42.2142842" lon="13.8226052"><ele>317.0</ele><time>2026-05-02T09:22:21.11Z</time></trkpt><trkpt lat="42.2141992" lon="13.8225101"><ele>317.0</ele><time>2026-05-02T09:22:22.106Z</time></trkpt><trkpt lat="42.2141462" lon="13.8224258"><ele>317.0</ele><time>2026-05-02T09:22:23.101Z</time></trkpt><trkpt lat="42.214109" lon="13.8223366"><ele>317.0</ele><time>2026-05-02T09:22:24.109Z</time></trkpt><trkpt lat="42.2140681" lon="13.8222594"><ele>317.0</ele><time>2026-05-02T09:22:25.109Z</time></trkpt><trkpt lat="42.214024" lon="13.8221439"><ele>317.0</ele><time>2026-05-02T09:22:27.117Z</time></trkpt><trkpt lat="42.2140372" lon="13.8220391"><ele>317.0</ele><time>2026-05-02T09:22:30.11Z</time></trkpt><trkpt lat="42.2140884" lon="13.8219569"><ele>317.0</ele><time>2026-05-02T09:22:33.111Z</time></trkpt><trkpt lat="42.2142185" lon="13.8218595"><ele>317.4</ele><time>2026-05-02T09:22:35.116Z</time></trkpt><trkpt lat="42.2142953" lon="13.8217813"><ele>317.79999999999995</ele><time>2026-05-02T09:22:36.102Z</time></trkpt><trkpt lat="42.2143675" lon="13.8216965"><ele>318.2</ele><time>2026-05-02T09:22:37.111Z</time></trkpt><trkpt lat="42.2144424" lon="13.821611"><ele>318.59999999999997</ele><time>2026-05-02T09:22:38.108Z</time></trkpt><trkpt lat="42.2145223" lon="13.8215101"><ele>319.0</ele><time>2026-05-02T09:22:39.114Z</time></trkpt><trkpt lat="42.2145932" lon="13.8214046"><ele>319.0</ele><time>2026-05-02T09:22:40.102Z</time></trkpt><trkpt lat="42.2146606" lon="13.8213039"><ele>319.0</ele><time>2026-05-02T09:22:41.113Z</time></trkpt><trkpt lat="42.2147323" lon="13.8211976"><ele>319.0</ele><time>2026-05-02T09:22:42.111Z</time></trkpt><trkpt lat="42.2148075" lon="13.8210903"><ele>319.0</ele><time>2026-05-02T09:22:43.114Z</time></trkpt><trkpt lat="42.2148734" lon="13.8209884"><ele>319.0</ele><time>2026-05-02T09:22:44.105Z</time></trkpt><trkpt lat="42.2149318" lon="13.8209017"><ele>319.0</ele><time>2026-05-02T09:22:45.107Z</time></trkpt><trkpt lat="42.2149775" lon="13.8208295"><ele>319.0</ele><time>2026-05-02T09:22:46.11Z</time></trkpt><trkpt lat="42.2150177" lon="13.8206948"><ele>319.0</ele><time>2026-05-02T09:22:48.107Z</time></trkpt><trkpt lat="42.2149945" lon="13.8205952"><ele>319.0</ele><time>2026-05-02T09:22:50.111Z</time></trkpt><trkpt lat="42.2149905" lon="13.820499"><ele>319.0</ele><time>2026-05-02T09:22:53.117Z</time></trkpt><trkpt lat="42.2150592" lon="13.8204599"><ele>319.0</ele><time>2026-05-02T09:24:54.119Z</time></trkpt><trkpt lat="42.2151329" lon="13.8204571"><ele>319.0</ele><time>2026-05-02T09:24:58.128Z</time></trkpt><trkpt lat="42.2152096" lon="13.8204231"><ele>319.0</ele><time>2026-05-02T09:25:10.118Z</time></trkpt><trkpt lat="42.2152821" lon="13.8203824"><ele>319.0</ele><time>2026-05-02T09:25:14.124Z</time></trkpt><trkpt lat="42.2153377" lon="13.8203412"><ele>319.0</ele><time>2026-05-02T09:25:16.116Z</time></trkpt><trkpt lat="42.2154497" lon="13.8202012"><ele>319.0</ele><time>2026-05-02T09:25:18.124Z</time></trkpt><trkpt lat="42.2155201" lon="13.8200878"><ele>319.0</ele><time>2026-05-02T09:25:19.114Z</time></trkpt><trkpt lat="42.2156017" lon="13.8199645"><ele>319.0</ele><time>2026-05-02T09:25:20.118Z</time></trkpt><trkpt lat="42.2156898" lon="13.8198208"><ele>319.0</ele><time>2026-05-02T09:25:21.12Z</time></trkpt><trkpt lat="42.2157755" lon="13.819683"><ele>319.0</ele><time>2026-05-02T09:25:22.123Z</time></trkpt><trkpt lat="42.2158655" lon="13.8195416"><ele>319.0</ele><time>2026-05-02T09:25:23.122Z</time></trkpt><trkpt lat="42.215961" lon="13.819393"><ele>319.0</ele><time>2026-05-02T09:25:24.122Z</time></trkpt><trkpt lat="42.2160633" lon="13.819248"><ele>319.0</ele><time>2026-05-02T09:25:25.112Z</time></trkpt><trkpt lat="42.2161371" lon="13.8191077"><ele>319.0</ele><time>2026-05-02T09:25:26.123Z</time></trkpt><trkpt lat="42.2161792" lon="13.8190053"><ele>319.16666666666663</ele><time>2026-05-02T09:25:27.12Z</time></trkpt><trkpt lat="42.2162318" lon="13.8189364"><ele>319.3333333333333</ele><time>2026-05-02T09:25:28.126Z</time></trkpt><trkpt lat="42.2162504" lon="13.8188358"><ele>319.5</ele><time>2026-05-02T09:25:29.119Z</time></trkpt><trkpt lat="42.2162562" lon="13.8187258"><ele>319.6666666666667</ele><time>2026-05-02T09:25:30.12Z</time></trkpt><trkpt lat="42.2162307" lon="13.8186213"><ele>319.83333333333337</ele><time>2026-05-02T09:25:31.12Z</time></trkpt><trkpt lat="42.2162165" lon="13.8185155"><ele>320.0</ele><time>2026-05-02T09:25:32.117Z</time></trkpt><trkpt lat="42.21621" lon="13.8184178"><ele>319.6</ele><time>2026-05-02T09:25:33.127Z</time></trkpt><trkpt lat="42.2162198" lon="13.8183157"><ele>319.2</ele><time>2026-05-02T09:25:34.114Z</time></trkpt><trkpt lat="42.216251" lon="13.8182328"><ele>318.8</ele><time>2026-05-02T09:25:35.117Z</time></trkpt><trkpt lat="42.2162995" lon="13.818148"><ele>318.4</ele><time>2026-05-02T09:25:36.116Z</time></trkpt><trkpt lat="42.2163887" lon="13.8180639"><ele>318.0</ele><time>2026-05-02T09:25:37.115Z</time></trkpt><trkpt lat="42.2164957" lon="13.8179709"><ele>318.0</ele><time>2026-05-02T09:25:38.117Z</time></trkpt><trkpt lat="42.2166282" lon="13.817868"><ele>318.0</ele><time>2026-05-02T09:25:39.119Z</time></trkpt><trkpt lat="42.2168021" lon="13.8177753"><ele>318.0</ele><time>2026-05-02T09:25:40.118Z</time></trkpt><trkpt lat="42.2169586" lon="13.8176716"><ele>318.3333333333333</ele><time>2026-05-02T09:25:41.124Z</time></trkpt><trkpt lat="42.2171128" lon="13.8175854"><ele>318.66666666666663</ele><time>2026-05-02T09:25:42.119Z</time></trkpt><trkpt lat="42.217261" lon="13.8175206"><ele>319.0</ele><time>2026-05-02T09:25:43.116Z</time></trkpt><trkpt lat="42.2174071" lon="13.817469"><ele>319.0</ele><time>2026-05-02T09:25:44.122Z</time></trkpt><trkpt lat="42.2175738" lon="13.8174293"><ele>319.0</ele><time>2026-05-02T09:25:45.117Z</time></trkpt><trkpt lat="42.2177449" lon="13.8173989"><ele>319.0</ele><time>2026-05-02T09:25:46.117Z</time></trkpt><trkpt lat="42.2179233" lon="13.8173615"><ele>319.0</ele><time>2026-05-02T09:25:47.122Z</time></trkpt><trkpt lat="42.2181073" lon="13.8173359"><ele>319.0</ele><time>2026-05-02T09:25:48.12Z</time></trkpt><trkpt lat="42.2182769" lon="13.8173147"><ele>319.0</ele><time>2026-05-02T09:25:49.118Z</time></trkpt><trkpt lat="42.2184468" lon="13.8172891"><ele>318.66666666666663</ele><time>2026-05-02T09:25:50.118Z</time></trkpt><trkpt lat="42.2186085" lon="13.8172673"><ele>318.3333333333333</ele><time>2026-05-02T09:25:51.126Z</time></trkpt><trkpt lat="42.2187656" lon="13.8172247"><ele>318.0</ele><time>2026-05-02T09:25:52.118Z</time></trkpt><trkpt lat="42.218924" lon="13.81718"><ele>318.3333333333333</ele><time>2026-05-02T09:25:53.127Z</time></trkpt><trkpt lat="42.2190916" lon="13.8171499"><ele>318.66666666666663</ele><time>2026-05-02T09:25:54.121Z</time></trkpt><trkpt lat="42.2192524" lon="13.8171231"><ele>319.0</ele><time>2026-05-02T09:25:55.121Z</time></trkpt><trkpt lat="42.2194206" lon="13.8171218"><ele>319.0</ele><time>2026-05-02T09:25:56.123Z</time></trkpt><trkpt lat="42.2195919" lon="13.8171091"><ele>319.0</ele><time>2026-05-02T09:25:57.119Z</time></trkpt><trkpt lat="42.2197591" lon="13.8171109"><ele>319.0</ele><time>2026-05-02T09:25:58.12Z</time></trkpt><trkpt lat="42.2199325" lon="13.8171139"><ele>318.66666666666663</ele><time>2026-05-02T09:25:59.117Z</time></trkpt><trkpt lat="42.220116" lon="13.8171327"><ele>318.3333333333333</ele><time>2026-05-02T09:26:00.12Z</time></trkpt><trkpt lat="42.2202991" lon="13.8171682"><ele>318.0</ele><time>2026-05-02T09:26:01.116Z</time></trkpt><trkpt lat="42.220506" lon="13.8172192"><ele>317.6666666666667</ele><time>2026-05-02T09:26:02.116Z</time></trkpt><trkpt lat="42.2206856" lon="13.8172942"><ele>317.33333333333337</ele><time>2026-05-02T09:26:03.114Z</time></trkpt><trkpt lat="42.2208699" lon="13.8173261"><ele>317.0</ele><time>2026-05-02T09:26:04.12Z</time></trkpt><trkpt lat="42.2210423" lon="13.8173932"><ele>317.0</ele><time>2026-05-02T09:26:05.117Z</time></trkpt><trkpt lat="42.2211974" lon="13.8174354"><ele>317.0</ele><time>2026-05-02T09:26:06.114Z</time></trkpt><trkpt lat="42.221348" lon="13.8175008"><ele>317.0</ele><time>2026-05-02T09:26:07.115Z</time></trkpt><trkpt lat="42.2215013" lon="13.8175155"><ele>317.0</ele><time>2026-05-02T09:26:08.121Z</time></trkpt><trkpt lat="42.221668" lon="13.8175366"><ele>317.0</ele><time>2026-05-02T09:26:09.126Z</time></trkpt><trkpt lat="42.2218391" lon="13.8175264"><ele>317.0</ele><time>2026-05-02T09:26:10.121Z</time></trkpt><trkpt lat="42.2220182" lon="13.817526"><ele>317.0</ele><time>2026-05-02T09:26:11.119Z</time></trkpt><trkpt lat="42.2221851" lon="13.8175017"><ele>317.0</ele><time>2026-05-02T09:26:12.118Z</time></trkpt><trkpt lat="42.2223491" lon="13.8174647"><ele>317.0</ele><time>2026-05-02T09:26:13.117Z</time></trkpt><trkpt lat="42.2225313" lon="13.8174074"><ele>318.0</ele><time>2026-05-02T09:26:14.12Z</time></trkpt><trkpt lat="42.2227017" lon="13.8173358"><ele>319.0</ele><time>2026-05-02T09:26:15.127Z</time></trkpt><trkpt lat="42.2228709" lon="13.8172276"><ele>320.0</ele><time>2026-05-02T09:26:16.113Z</time></trkpt><trkpt lat="42.2230463" lon="13.8171216"><ele>320.33333333333337</ele><time>2026-05-02T09:26:17.122Z</time></trkpt><trkpt lat="42.223224" lon="13.8169996"><ele>320.6666666666667</ele><time>2026-05-02T09:26:18.123Z</time></trkpt><trkpt lat="42.2233884" lon="13.816896"><ele>321.0</ele><time>2026-05-02T09:26:19.122Z</time></trkpt><trkpt lat="42.2235632" lon="13.8167724"><ele>321.0</ele><time>2026-05-02T09:26:20.122Z</time></trkpt><trkpt lat="42.2237188" lon="13.8166382"><ele>321.0</ele><time>2026-05-02T09:26:21.128Z</time></trkpt><trkpt lat="42.2238694" lon="13.8165051"><ele>321.0</ele><time>2026-05-02T09:26:22.12Z</time></trkpt><trkpt lat="42.2240116" lon="13.8163747"><ele>319.3333333333333</ele><time>2026-05-02T09:26:23.131Z</time></trkpt><trkpt lat="42.2241555" lon="13.8162552"><ele>317.66666666666663</ele><time>2026-05-02T09:26:24.121Z</time></trkpt><trkpt lat="42.2243035" lon="13.8161326"><ele>316.0</ele><time>2026-05-02T09:26:25.13Z</time></trkpt><trkpt lat="42.2244463" lon="13.8160032"><ele>316.3333333333333</ele><time>2026-05-02T09:26:26.121Z</time></trkpt><trkpt lat="42.2246031" lon="13.8158785"><ele>316.6666666666667</ele><time>2026-05-02T09:26:27.129Z</time></trkpt><trkpt lat="42.2247579" lon="13.8157763"><ele>317.0</ele><time>2026-05-02T09:26:28.124Z</time></trkpt><trkpt lat="42.2249055" lon="13.8156921"><ele>317.0</ele><time>2026-05-02T09:26:29.133Z</time></trkpt><trkpt lat="42.2250604" lon="13.8156048"><ele>317.0</ele><time>2026-05-02T09:26:30.125Z</time></trkpt><trkpt lat="42.2252225" lon="13.8155295"><ele>317.0</ele><time>2026-05-02T09:26:31.129Z</time></trkpt><trkpt lat="42.2253948" lon="13.8154684"><ele>317.0</ele><time>2026-05-02T09:26:32.125Z</time></trkpt><trkpt lat="42.2255637" lon="13.8154082"><ele>317.0</ele><time>2026-05-02T09:26:33.128Z</time></trkpt><trkpt lat="42.2257394" lon="13.81536"><ele>317.0</ele><time>2026-05-02T09:26:34.118Z</time></trkpt><trkpt lat="42.2259119" lon="13.8153288"><ele>317.0</ele><time>2026-05-02T09:26:35.123Z</time></trkpt><trkpt lat="42.2260895" lon="13.8152873"><ele>317.0</ele><time>2026-05-02T09:26:36.119Z</time></trkpt><trkpt lat="42.2262696" lon="13.815237"><ele>317.0</ele><time>2026-05-02T09:26:37.127Z</time></trkpt><trkpt lat="42.2264404" lon="13.8151838"><ele>319.0</ele><time>2026-05-02T09:26:38.115Z</time></trkpt><trkpt lat="42.2266252" lon="13.815127"><ele>321.0</ele><time>2026-05-02T09:26:39.124Z</time></trkpt><trkpt lat="42.2268239" lon="13.8150703"><ele>323.0</ele><time>2026-05-02T09:26:40.122Z</time></trkpt><trkpt lat="42.2270184" lon="13.8150292"><ele>323.0</ele><time>2026-05-02T09:26:41.126Z</time></trkpt><trkpt lat="42.2272115" lon="13.8149813"><ele>323.0</ele><time>2026-05-02T09:26:42.117Z</time></trkpt><trkpt lat="42.2274044" lon="13.8149504"><ele>323.0</ele><time>2026-05-02T09:26:43.119Z</time></trkpt><trkpt lat="42.2276103" lon="13.8149338"><ele>321.6666666666667</ele><time>2026-05-02T09:26:44.121Z</time></trkpt><trkpt lat="42.2277963" lon="13.8149107"><ele>320.3333333333333</ele><time>2026-05-02T09:26:45.11Z</time></trkpt><trkpt lat="42.2279877" lon="13.8148834"><ele>319.0</ele><time>2026-05-02T09:26:46.116Z</time></trkpt><trkpt lat="42.2281895" lon="13.8148528"><ele>319.0</ele><time>2026-05-02T09:26:47.125Z</time></trkpt><trkpt lat="42.2283995" lon="13.8148412"><ele>319.0</ele><time>2026-05-02T09:26:48.116Z</time></trkpt><trkpt lat="42.2285583" lon="13.8148365"><ele>319.0</ele><time>2026-05-02T09:26:49.118Z</time></trkpt><trkpt lat="42.2286586" lon="13.8148253"><ele>319.0</ele><time>2026-05-02T09:26:50.111Z</time></trkpt><trkpt lat="42.2287568" lon="13.8148652"><ele>319.0</ele><time>2026-05-02T09:26:51.119Z</time></trkpt><trkpt lat="42.2288553" lon="13.8149394"><ele>319.0</ele><time>2026-05-02T09:26:52.116Z</time></trkpt><trkpt lat="42.2289811" lon="13.8150142"><ele>319.0</ele><time>2026-05-02T09:26:53.117Z</time></trkpt><trkpt lat="42.2291055" lon="13.8150794"><ele>318.8333333333333</ele><time>2026-05-02T09:26:54.114Z</time></trkpt><trkpt lat="42.2292091" lon="13.815135"><ele>318.66666666666663</ele><time>2026-05-02T09:26:55.114Z</time></trkpt><trkpt lat="42.2293019" lon="13.8151864"><ele>318.5</ele><time>2026-05-02T09:26:56.115Z</time></trkpt><trkpt lat="42.2293843" lon="13.8152319"><ele>318.3333333333333</ele><time>2026-05-02T09:26:57.11Z</time></trkpt><trkpt lat="42.2294495" lon="13.8152718"><ele>318.1666666666667</ele><time>2026-05-02T09:26:58.115Z</time></trkpt><trkpt lat="42.2295142" lon="13.8152913"><ele>318.0</ele><time>2026-05-02T09:27:32.112Z</time></trkpt><trkpt lat="42.2295698" lon="13.8153552"><ele>318.0</ele><time>2026-05-02T09:27:34.114Z</time></trkpt><trkpt lat="42.229657" lon="13.8154625"><ele>318.0</ele><time>2026-05-02T09:27:36.111Z</time></trkpt><trkpt lat="42.2297005" lon="13.8155533"><ele>318.0</ele><time>2026-05-02T09:27:37.12Z</time></trkpt><trkpt lat="42.2297456" lon="13.8156481"><ele>318.0</ele><time>2026-05-02T09:27:38.118Z</time></trkpt><trkpt lat="42.2297968" lon="13.8157437"><ele>318.0</ele><time>2026-05-02T09:27:39.116Z</time></trkpt><trkpt lat="42.2298424" lon="13.815829"><ele>318.0</ele><time>2026-05-02T09:27:40.114Z</time></trkpt><trkpt lat="42.2298796" lon="13.8159094"><ele>317.6</ele><time>2026-05-02T09:27:41.109Z</time></trkpt><trkpt lat="42.229927" lon="13.816041"><ele>317.20000000000005</ele><time>2026-05-02T09:27:43.109Z</time></trkpt><trkpt lat="42.2299179" lon="13.8161995"><ele>316.8</ele><time>2026-05-02T09:27:45.117Z</time></trkpt><trkpt lat="42.2298955" lon="13.8162973"><ele>316.40000000000003</ele><time>2026-05-02T09:27:46.12Z</time></trkpt><trkpt lat="42.2298631" lon="13.8164031"><ele>316.0</ele><time>2026-05-02T09:27:47.123Z</time></trkpt><trkpt lat="42.2298405" lon="13.8165044"><ele>316.00000000000006</ele><time>2026-05-02T09:27:48.118Z</time></trkpt><trkpt lat="42.2298373" lon="13.8165928"><ele>316.0</ele><time>2026-05-02T09:27:49.12Z</time></trkpt><trkpt lat="42.2298497" lon="13.8166803"><ele>316.0</ele><time>2026-05-02T09:27:50.115Z</time></trkpt><trkpt lat="42.2298647" lon="13.8167688"><ele>316.0</ele><time>2026-05-02T09:27:51.125Z</time></trkpt><trkpt lat="42.2298763" lon="13.8168711"><ele>316.0</ele><time>2026-05-02T09:27:52.116Z</time></trkpt><trkpt lat="42.2298927" lon="13.816974"><ele>316.00000000000006</ele><time>2026-05-02T09:27:53.122Z</time></trkpt><trkpt lat="42.2299193" lon="13.8170922"><ele>316.0</ele><time>2026-05-02T09:27:54.119Z</time></trkpt><trkpt lat="42.2299443" lon="13.8172473"><ele>315.75</ele><time>2026-05-02T09:27:55.12Z</time></trkpt><trkpt lat="42.2299636" lon="13.8174148"><ele>315.5</ele><time>2026-05-02T09:27:56.122Z</time></trkpt><trkpt lat="42.2299782" lon="13.8175897"><ele>315.25</ele><time>2026-05-02T09:27:57.113Z</time></trkpt><trkpt lat="42.2299946" lon="13.8177758"><ele>315.0</ele><time>2026-05-02T09:27:58.12Z</time></trkpt><trkpt lat="42.2300113" lon="13.8179685"><ele>315.0</ele><time>2026-05-02T09:27:59.119Z</time></trkpt><trkpt lat="42.23004" lon="13.8181827"><ele>315.0</ele><time>2026-05-02T09:28:00.115Z</time></trkpt><trkpt lat="42.2300571" lon="13.8183884"><ele>315.0</ele><time>2026-05-02T09:28:01.117Z</time></trkpt><trkpt lat="42.230062" lon="13.8185789"><ele>315.0</ele><time>2026-05-02T09:28:02.116Z</time></trkpt><trkpt lat="42.2300488" lon="13.818737"><ele>315.0</ele><time>2026-05-02T09:28:03.114Z</time></trkpt><trkpt lat="42.2300365" lon="13.8188942"><ele>315.0</ele><time>2026-05-02T09:28:04.116Z</time></trkpt><trkpt lat="42.230042" lon="13.8190376"><ele>315.0</ele><time>2026-05-02T09:28:05.117Z</time></trkpt><trkpt lat="42.2300604" lon="13.819195"><ele>315.0</ele><time>2026-05-02T09:28:06.117Z</time></trkpt><trkpt lat="42.230074" lon="13.8193102"><ele>315.0</ele><time>2026-05-02T09:28:07.119Z</time></trkpt><trkpt lat="42.2300704" lon="13.8194231"><ele>315.0</ele><time>2026-05-02T09:28:08.115Z</time></trkpt><trkpt lat="42.2300732" lon="13.8195161"><ele>315.0</ele><time>2026-05-02T09:28:09.118Z</time></trkpt><trkpt lat="42.2300914" lon="13.8196441"><ele>315.0</ele><time>2026-05-02T09:28:11.115Z</time></trkpt><trkpt lat="42.2301567" lon="13.8196688"><ele>315.0</ele><time>2026-05-02T09:28:14.115Z</time></trkpt><trkpt lat="42.2303086" lon="13.8196668"><ele>315.75</ele><time>2026-05-02T09:28:16.116Z</time></trkpt><trkpt lat="42.2304304" lon="13.8196467"><ele>316.5</ele><time>2026-05-02T09:28:17.11Z</time></trkpt><trkpt lat="42.2305667" lon="13.8196247"><ele>317.25</ele><time>2026-05-02T09:28:18.116Z</time></trkpt><trkpt lat="42.2307124" lon="13.8196213"><ele>318.0</ele><time>2026-05-02T09:28:19.116Z</time></trkpt><trkpt lat="42.230864" lon="13.8196114"><ele>320.3333333333333</ele><time>2026-05-02T09:28:20.118Z</time></trkpt><trkpt lat="42.2310528" lon="13.8195686"><ele>322.66666666666663</ele><time>2026-05-02T09:28:21.114Z</time></trkpt><trkpt lat="42.2312048" lon="13.8195061"><ele>325.0</ele><time>2026-05-02T09:28:22.111Z</time></trkpt><trkpt lat="42.2313204" lon="13.8194208"><ele>323.75</ele><time>2026-05-02T09:28:23.116Z</time></trkpt><trkpt lat="42.2314353" lon="13.819306"><ele>322.5</ele><time>2026-05-02T09:28:24.114Z</time></trkpt><trkpt lat="42.2315407" lon="13.8192286"><ele>321.25</ele><time>2026-05-02T09:28:25.121Z</time></trkpt><trkpt lat="42.231646" lon="13.8191938"><ele>320.0</ele><time>2026-05-02T09:28:26.119Z</time></trkpt><trkpt lat="42.2317885" lon="13.8191468"><ele>320.0</ele><time>2026-05-02T09:28:27.116Z</time></trkpt><trkpt lat="42.2319408" lon="13.8191069"><ele>320.0</ele><time>2026-05-02T09:28:28.119Z</time></trkpt><trkpt lat="42.2321072" lon="13.8191011"><ele>320.0</ele><time>2026-05-02T09:28:29.118Z</time></trkpt><trkpt lat="42.232259" lon="13.8191121"><ele>320.25</ele><time>2026-05-02T09:28:30.118Z</time></trkpt><trkpt lat="42.2323962" lon="13.8191171"><ele>320.5</ele><time>2026-05-02T09:28:31.117Z</time></trkpt><trkpt lat="42.2325335" lon="13.8191259"><ele>320.75</ele><time>2026-05-02T09:28:32.115Z</time></trkpt><trkpt lat="42.2326751" lon="13.8191079"><ele>321.0</ele><time>2026-05-02T09:28:33.117Z</time></trkpt><trkpt lat="42.2328299" lon="13.819084"><ele>321.0</ele><time>2026-05-02T09:28:34.108Z</time></trkpt><trkpt lat="42.232981" lon="13.8190231"><ele>321.0</ele><time>2026-05-02T09:28:35.117Z</time></trkpt><trkpt lat="42.2331444" lon="13.8189583"><ele>321.0</ele><time>2026-05-02T09:28:36.11Z</time></trkpt><trkpt lat="42.2332843" lon="13.8188947"><ele>324.3333333333333</ele><time>2026-05-02T09:28:37.111Z</time></trkpt><trkpt lat="42.2334221" lon="13.8188346"><ele>327.66666666666663</ele><time>2026-05-02T09:28:38.111Z</time></trkpt><trkpt lat="42.2335628" lon="13.8187724"><ele>331.0</ele><time>2026-05-02T09:28:39.106Z</time></trkpt><trkpt lat="42.2337147" lon="13.8186995"><ele>331.0</ele><time>2026-05-02T09:28:40.112Z</time></trkpt><trkpt lat="42.2338562" lon="13.8185813"><ele>331.0</ele><time>2026-05-02T09:28:41.11Z</time></trkpt><trkpt lat="42.2339868" lon="13.8184833"><ele>331.0</ele><time>2026-05-02T09:28:42.113Z</time></trkpt><trkpt lat="42.2341438" lon="13.8183598"><ele>329.3333333333333</ele><time>2026-05-02T09:28:43.108Z</time></trkpt><trkpt lat="42.2342852" lon="13.8182438"><ele>327.6666666666667</ele><time>2026-05-02T09:28:44.116Z</time></trkpt><trkpt lat="42.2344149" lon="13.8181111"><ele>326.0</ele><time>2026-05-02T09:28:45.108Z</time></trkpt><trkpt lat="42.2345417" lon="13.8179556"><ele>326.0</ele><time>2026-05-02T09:28:46.113Z</time></trkpt><trkpt lat="42.2346565" lon="13.817802"><ele>326.0</ele><time>2026-05-02T09:28:47.111Z</time></trkpt><trkpt lat="42.2347588" lon="13.8176789"><ele>326.0</ele><time>2026-05-02T09:28:48.111Z</time></trkpt><trkpt lat="42.2348452" lon="13.8175729"><ele>326.0</ele><time>2026-05-02T09:28:49.115Z</time></trkpt><trkpt lat="42.2349217" lon="13.8174742"><ele>325.0</ele><time>2026-05-02T09:28:50.116Z</time></trkpt><trkpt lat="42.2349971" lon="13.8173655"><ele>324.0</ele><time>2026-05-02T09:28:51.119Z</time></trkpt><trkpt lat="42.2350466" lon="13.817255"><ele>323.0</ele><time>2026-05-02T09:28:52.122Z</time></trkpt><trkpt lat="42.2351036" lon="13.8171465"><ele>322.0</ele><time>2026-05-02T09:28:53.12Z</time></trkpt><trkpt lat="42.235147" lon="13.817054"><ele>321.0</ele><time>2026-05-02T09:28:54.119Z</time></trkpt><trkpt lat="42.2352031" lon="13.8169002"><ele>321.0</ele><time>2026-05-02T09:28:56.115Z</time></trkpt><trkpt lat="42.2352382" lon="13.8168286"><ele>321.0</ele><time>2026-05-02T09:28:57.129Z</time></trkpt><trkpt lat="42.2352717" lon="13.8167403"><ele>321.0</ele><time>2026-05-02T09:28:58.114Z</time></trkpt><trkpt lat="42.2353072" lon="13.8166526"><ele>321.0</ele><time>2026-05-02T09:28:59.127Z</time></trkpt><trkpt lat="42.2353547" lon="13.8165687"><ele>321.0</ele><time>2026-05-02T09:29:00.115Z</time></trkpt><trkpt lat="42.2354115" lon="13.8164833"><ele>321.0</ele><time>2026-05-02T09:29:01.109Z</time></trkpt><trkpt lat="42.2354782" lon="13.8164009"><ele>321.20000000000005</ele><time>2026-05-02T09:29:02.112Z</time></trkpt><trkpt lat="42.2355603" lon="13.816327"><ele>321.40000000000003</ele><time>2026-05-02T09:29:03.116Z</time></trkpt><trkpt lat="42.2356472" lon="13.8162709"><ele>321.6</ele><time>2026-05-02T09:29:04.109Z</time></trkpt><trkpt lat="42.2357442" lon="13.8162341"><ele>321.8</ele><time>2026-05-02T09:29:05.115Z</time></trkpt><trkpt lat="42.2358502" lon="13.8162229"><ele>322.0</ele><time>2026-05-02T09:29:06.106Z</time></trkpt><trkpt lat="42.2359633" lon="13.8162364"><ele>322.0</ele><time>2026-05-02T09:29:07.115Z</time></trkpt><trkpt lat="42.2360732" lon="13.8162853"><ele>322.0</ele><time>2026-05-02T09:29:08.107Z</time></trkpt><trkpt lat="42.2361772" lon="13.81637"><ele>322.0</ele><time>2026-05-02T09:29:09.111Z</time></trkpt><trkpt lat="42.2362919" lon="13.8164714"><ele>322.0</ele><time>2026-05-02T09:29:10.107Z</time></trkpt><trkpt lat="42.2364053" lon="13.8165823"><ele>321.5</ele><time>2026-05-02T09:29:11.111Z</time></trkpt><trkpt lat="42.2365237" lon="13.8166893"><ele>321.0</ele><time>2026-05-02T09:29:12.115Z</time></trkpt><trkpt lat="42.2366487" lon="13.8167868"><ele>320.5</ele><time>2026-05-02T09:29:13.115Z</time></trkpt><trkpt lat="42.2367926" lon="13.8168523"><ele>320.0</ele><time>2026-05-02T09:29:14.117Z</time></trkpt><trkpt lat="42.2369516" lon="13.8168645"><ele>320.0</ele><time>2026-05-02T09:29:15.119Z</time></trkpt><trkpt lat="42.2370991" lon="13.8168419"><ele>320.0</ele><time>2026-05-02T09:29:16.111Z</time></trkpt><trkpt lat="42.2372465" lon="13.8167975"><ele>320.0</ele><time>2026-05-02T09:29:17.116Z</time></trkpt><trkpt lat="42.2373773" lon="13.8167494"><ele>320.0</ele><time>2026-05-02T09:29:18.116Z</time></trkpt><trkpt lat="42.2375213" lon="13.8166869"><ele>319.75</ele><time>2026-05-02T09:29:19.121Z</time></trkpt><trkpt lat="42.2376562" lon="13.8166062"><ele>319.5</ele><time>2026-05-02T09:29:20.122Z</time></trkpt><trkpt lat="42.2377811" lon="13.8164931"><ele>319.25</ele><time>2026-05-02T09:29:21.118Z</time></trkpt><trkpt lat="42.2379068" lon="13.8164241"><ele>319.0</ele><time>2026-05-02T09:29:22.113Z</time></trkpt><trkpt lat="42.2380301" lon="13.816371"><ele>319.0</ele><time>2026-05-02T09:29:23.121Z</time></trkpt><trkpt lat="42.2381514" lon="13.816307"><ele>319.0</ele><time>2026-05-02T09:29:24.117Z</time></trkpt><trkpt lat="42.2382777" lon="13.8162374"><ele>319.0</ele><time>2026-05-02T09:29:25.118Z</time></trkpt><trkpt lat="42.2383947" lon="13.8161647"><ele>319.0</ele><time>2026-05-02T09:29:26.12Z</time></trkpt><trkpt lat="42.238511" lon="13.8161078"><ele>319.0</ele><time>2026-05-02T09:29:27.12Z</time></trkpt><trkpt lat="42.2386126" lon="13.8161011"><ele>319.0</ele><time>2026-05-02T09:29:28.109Z</time></trkpt><trkpt lat="42.2387378" lon="13.816129"><ele>319.0</ele><time>2026-05-02T09:29:29.115Z</time></trkpt><trkpt lat="42.2388568" lon="13.8161591"><ele>319.0</ele><time>2026-05-02T09:29:30.115Z</time></trkpt><trkpt lat="42.2389395" lon="13.8162062"><ele>319.0</ele><time>2026-05-02T09:29:31.11Z</time></trkpt><trkpt lat="42.2390564" lon="13.8162122"><ele>319.66666666666663</ele><time>2026-05-02T09:29:33.118Z</time></trkpt><trkpt lat="42.2391546" lon="13.816227"><ele>320.3333333333333</ele><time>2026-05-02T09:29:35.118Z</time></trkpt><trkpt lat="42.2392278" lon="13.8162302"><ele>321.0</ele><time>2026-05-02T09:29:37.115Z</time></trkpt><trkpt lat="42.2393087" lon="13.8162387"><ele>321.6666666666667</ele><time>2026-05-02T09:29:40.114Z</time></trkpt><trkpt lat="42.2393727" lon="13.8162844"><ele>322.33333333333337</ele><time>2026-05-02T09:29:42.114Z</time></trkpt><trkpt lat="42.2394239" lon="13.8164017"><ele>323.0</ele><time>2026-05-02T09:29:44.118Z</time></trkpt><trkpt lat="42.2394927" lon="13.8165108"><ele>323.0</ele><time>2026-05-02T09:29:46.111Z</time></trkpt><trkpt lat="42.2396164" lon="13.8165308"><ele>323.0</ele><time>2026-05-02T09:29:48.11Z</time></trkpt><trkpt lat="42.2397027" lon="13.8165208"><ele>323.0</ele><time>2026-05-02T09:29:49.116Z</time></trkpt><trkpt lat="42.2397925" lon="13.8164989"><ele>323.0</ele><time>2026-05-02T09:29:50.117Z</time></trkpt><trkpt lat="42.2398801" lon="13.8164546"><ele>323.0</ele><time>2026-05-02T09:29:51.114Z</time></trkpt><trkpt lat="42.2399666" lon="13.8164065"><ele>323.79999999999995</ele><time>2026-05-02T09:29:52.117Z</time></trkpt><trkpt lat="42.2400515" lon="13.8163669"><ele>324.6</ele><time>2026-05-02T09:29:53.108Z</time></trkpt><trkpt lat="42.2401512" lon="13.816346"><ele>325.4</ele><time>2026-05-02T09:29:54.116Z</time></trkpt><trkpt lat="42.2402537" lon="13.8163396"><ele>326.20000000000005</ele><time>2026-05-02T09:29:55.109Z</time></trkpt><trkpt lat="42.2403541" lon="13.816339"><ele>327.0</ele><time>2026-05-02T09:29:56.106Z</time></trkpt><trkpt lat="42.2404404" lon="13.8163381"><ele>327.0</ele><time>2026-05-02T09:29:57.113Z</time></trkpt><trkpt lat="42.2405145" lon="13.816337"><ele>327.0</ele><time>2026-05-02T09:29:58.119Z</time></trkpt><trkpt lat="42.2405871" lon="13.8163399"><ele>327.0</ele><time>2026-05-02T09:29:59.126Z</time></trkpt><trkpt lat="42.2406534" lon="13.8163362"><ele>327.0</ele><time>2026-05-02T09:30:00.122Z</time></trkpt><trkpt lat="42.2407168" lon="13.8163353"><ele>327.0</ele><time>2026-05-02T09:30:01.117Z</time></trkpt><trkpt lat="42.2407917" lon="13.8163343"><ele>327.0</ele><time>2026-05-02T09:30:02.118Z</time></trkpt><trkpt lat="42.2408749" lon="13.8163317"><ele>327.0</ele><time>2026-05-02T09:30:03.12Z</time></trkpt><trkpt lat="42.2409612" lon="13.8163358"><ele>327.3333333333333</ele><time>2026-05-02T09:30:04.114Z</time></trkpt><trkpt lat="42.2410481" lon="13.8163332"><ele>327.6666666666667</ele><time>2026-05-02T09:30:05.114Z</time></trkpt><trkpt lat="42.2411295" lon="13.8163085"><ele>328.0</ele><time>2026-05-02T09:30:06.117Z</time></trkpt><trkpt lat="42.2412013" lon="13.816282"><ele>328.33333333333337</ele><time>2026-05-02T09:30:07.114Z</time></trkpt><trkpt lat="42.2412692" lon="13.8162494"><ele>328.6666666666667</ele><time>2026-05-02T09:30:08.121Z</time></trkpt><trkpt lat="42.2413403" lon="13.8162123"><ele>329.0</ele><time>2026-05-02T09:30:09.118Z</time></trkpt><trkpt lat="42.2414085" lon="13.816177"><ele>330.33333333333337</ele><time>2026-05-02T09:30:10.112Z</time></trkpt><trkpt lat="42.2414816" lon="13.8161129"><ele>331.6666666666667</ele><time>2026-05-02T09:30:11.115Z</time></trkpt><trkpt lat="42.2415595" lon="13.8160233"><ele>333.0</ele><time>2026-05-02T09:30:12.114Z</time></trkpt><trkpt lat="42.2416268" lon="13.8159296"><ele>334.3333333333333</ele><time>2026-05-02T09:30:13.116Z</time></trkpt><trkpt lat="42.2416813" lon="13.8158485"><ele>335.66666666666663</ele><time>2026-05-02T09:30:14.12Z</time></trkpt><trkpt lat="42.2417178" lon="13.8157567"><ele>337.0</ele><time>2026-05-02T09:30:15.116Z</time></trkpt><trkpt lat="42.2417224" lon="13.8156542"><ele>334.3333333333333</ele><time>2026-05-02T09:30:16.118Z</time></trkpt><trkpt lat="42.2417156" lon="13.8155426"><ele>331.66666666666663</ele><time>2026-05-02T09:30:17.121Z</time></trkpt><trkpt lat="42.241712" lon="13.8154289"><ele>329.0</ele><time>2026-05-02T09:30:18.119Z</time></trkpt><trkpt lat="42.2417307" lon="13.8153167"><ele>326.3333333333333</ele><time>2026-05-02T09:30:19.125Z</time></trkpt><trkpt lat="42.2417645" lon="13.8152174"><ele>323.6666666666667</ele><time>2026-05-02T09:30:20.121Z</time></trkpt><trkpt lat="42.2418046" lon="13.8151219"><ele>321.0</ele><time>2026-05-02T09:30:21.122Z</time></trkpt><trkpt lat="42.2418368" lon="13.8150343"><ele>320.6666666666667</ele><time>2026-05-02T09:30:22.125Z</time></trkpt><trkpt lat="42.2418683" lon="13.8149592"><ele>320.3333333333333</ele><time>2026-05-02T09:30:23.122Z</time></trkpt><trkpt lat="42.2419032" lon="13.8148349"><ele>320.0</ele><time>2026-05-02T09:30:25.124Z</time></trkpt><trkpt lat="42.2419295" lon="13.8147114"><ele>319.66666666666663</ele><time>2026-05-02T09:30:27.118Z</time></trkpt><trkpt lat="42.2419539" lon="13.8145934"><ele>319.3333333333333</ele><time>2026-05-02T09:30:29.118Z</time></trkpt><trkpt lat="42.241994" lon="13.8144857"><ele>319.0</ele><time>2026-05-02T09:30:31.114Z</time></trkpt><trkpt lat="42.2420751" lon="13.814433"><ele>319.0</ele><time>2026-05-02T09:30:33.114Z</time></trkpt><trkpt lat="42.2421483" lon="13.814445"><ele>319.0</ele><time>2026-05-02T09:30:34.109Z</time></trkpt><trkpt lat="42.2422169" lon="13.8144545"><ele>319.0</ele><time>2026-05-02T09:30:35.113Z</time></trkpt><trkpt lat="42.2422849" lon="13.8144479"><ele>319.0</ele><time>2026-05-02T09:30:36.115Z</time></trkpt><trkpt lat="42.2423528" lon="13.8144242"><ele>319.0</ele><time>2026-05-02T09:30:37.118Z</time></trkpt><trkpt lat="42.2424317" lon="13.8143623"><ele>319.0</ele><time>2026-05-02T09:30:38.12Z</time></trkpt><trkpt lat="42.2425162" lon="13.8142798"><ele>319.2</ele><time>2026-05-02T09:30:39.119Z</time></trkpt><trkpt lat="42.2426035" lon="13.8141969"><ele>319.4</ele><time>2026-05-02T09:30:40.119Z</time></trkpt><trkpt lat="42.2426841" lon="13.8141135"><ele>319.6</ele><time>2026-05-02T09:30:41.114Z</time></trkpt><trkpt lat="42.2427629" lon="13.8140234"><ele>319.8</ele><time>2026-05-02T09:30:42.119Z</time></trkpt><trkpt lat="42.2428437" lon="13.8139342"><ele>320.0</ele><time>2026-05-02T09:30:43.118Z</time></trkpt><trkpt lat="42.242929" lon="13.8138493"><ele>320.0</ele><time>2026-05-02T09:30:44.118Z</time></trkpt><trkpt lat="42.2430043" lon="13.8137625"><ele>320.0</ele><time>2026-05-02T09:30:45.117Z</time></trkpt><trkpt lat="42.2430633" lon="13.8136769"><ele>320.0</ele><time>2026-05-02T09:30:46.114Z</time></trkpt><trkpt lat="42.2431109" lon="13.813605"><ele>320.0</ele><time>2026-05-02T09:30:47.118Z</time></trkpt><trkpt lat="42.2431832" lon="13.813477"><ele>320.0</ele><time>2026-05-02T09:30:49.123Z</time></trkpt><trkpt lat="42.2432708" lon="13.8133522"><ele>320.83333333333337</ele><time>2026-05-02T09:30:51.123Z</time></trkpt><trkpt lat="42.2433276" lon="13.8132852"><ele>321.6666666666667</ele><time>2026-05-02T09:30:52.12Z</time></trkpt><trkpt lat="42.2433963" lon="13.8132091"><ele>322.5</ele><time>2026-05-02T09:30:53.123Z</time></trkpt><trkpt lat="42.2434747" lon="13.8131255"><ele>323.3333333333333</ele><time>2026-05-02T09:30:54.118Z</time></trkpt><trkpt lat="42.2435497" lon="13.8130517"><ele>324.16666666666663</ele><time>2026-05-02T09:30:55.122Z</time></trkpt><trkpt lat="42.2436225" lon="13.8129926"><ele>325.0</ele><time>2026-05-02T09:30:56.12Z</time></trkpt><trkpt lat="42.2437029" lon="13.8129393"><ele>325.0</ele><time>2026-05-02T09:30:57.121Z</time></trkpt><trkpt lat="42.2437976" lon="13.8129022"><ele>325.0</ele><time>2026-05-02T09:30:58.124Z</time></trkpt><trkpt lat="42.2438998" lon="13.8128781"><ele>325.0</ele><time>2026-05-02T09:30:59.118Z</time></trkpt><trkpt lat="42.2440006" lon="13.8128565"><ele>325.0</ele><time>2026-05-02T09:31:00.123Z</time></trkpt><trkpt lat="42.2440955" lon="13.8128183"><ele>325.0</ele><time>2026-05-02T09:31:01.121Z</time></trkpt><trkpt lat="42.2441797" lon="13.8127706"><ele>324.2</ele><time>2026-05-02T09:31:02.121Z</time></trkpt><trkpt lat="42.2442552" lon="13.812723"><ele>323.4</ele><time>2026-05-02T09:31:03.12Z</time></trkpt><trkpt lat="42.2443432" lon="13.8126774"><ele>322.6</ele><time>2026-05-02T09:31:04.12Z</time></trkpt><trkpt lat="42.2444483" lon="13.8126508"><ele>321.8</ele><time>2026-05-02T09:31:05.12Z</time></trkpt><trkpt lat="42.2445549" lon="13.8126415"><ele>321.0</ele><time>2026-05-02T09:31:06.121Z</time></trkpt><trkpt lat="42.2446618" lon="13.8126174"><ele>321.0</ele><time>2026-05-02T09:31:07.118Z</time></trkpt><trkpt lat="42.2447623" lon="13.8125739"><ele>321.0</ele><time>2026-05-02T09:31:08.118Z</time></trkpt><trkpt lat="42.2448503" lon="13.8125142"><ele>321.0</ele><time>2026-05-02T09:31:09.117Z</time></trkpt><trkpt lat="42.2449363" lon="13.8124453"><ele>321.0</ele><time>2026-05-02T09:31:10.117Z</time></trkpt><trkpt lat="42.2450129" lon="13.8123481"><ele>321.0</ele><time>2026-05-02T09:31:11.12Z</time></trkpt><trkpt lat="42.245068" lon="13.8122381"><ele>321.6</ele><time>2026-05-02T09:31:12.114Z</time></trkpt><trkpt lat="42.2451104" lon="13.8121174"><ele>322.20000000000005</ele><time>2026-05-02T09:31:13.114Z</time></trkpt><trkpt lat="42.2451314" lon="13.8119882"><ele>322.79999999999995</ele><time>2026-05-02T09:31:14.117Z</time></trkpt><trkpt lat="42.2451493" lon="13.8118483"><ele>323.4</ele><time>2026-05-02T09:31:15.122Z</time></trkpt><trkpt lat="42.2451713" lon="13.8117085"><ele>324.0</ele><time>2026-05-02T09:31:16.12Z</time></trkpt><trkpt lat="42.2452049" lon="13.8115836"><ele>324.0</ele><time>2026-05-02T09:31:17.118Z</time></trkpt><trkpt lat="42.2452503" lon="13.8114702"><ele>324.0</ele><time>2026-05-02T09:31:18.12Z</time></trkpt><trkpt lat="42.24532" lon="13.8113784"><ele>324.0</ele><time>2026-05-02T09:31:19.117Z</time></trkpt><trkpt lat="42.2454064" lon="13.8112862"><ele>324.0</ele><time>2026-05-02T09:31:20.119Z</time></trkpt><trkpt lat="42.2455089" lon="13.8111858"><ele>324.0</ele><time>2026-05-02T09:31:21.119Z</time></trkpt><trkpt lat="42.2456149" lon="13.8110777"><ele>324.25</ele><time>2026-05-02T09:31:22.118Z</time></trkpt><trkpt lat="42.2457093" lon="13.8109641"><ele>324.5</ele><time>2026-05-02T09:31:23.12Z</time></trkpt><trkpt lat="42.2457931" lon="13.810855"><ele>324.75</ele><time>2026-05-02T09:31:24.126Z</time></trkpt><trkpt lat="42.2458681" lon="13.8107409"><ele>325.0</ele><time>2026-05-02T09:31:25.121Z</time></trkpt><trkpt lat="42.2459462" lon="13.8106323"><ele>325.0</ele><time>2026-05-02T09:31:26.125Z</time></trkpt><trkpt lat="42.2460277" lon="13.8105329"><ele>325.0</ele><time>2026-05-02T09:31:27.119Z</time></trkpt><trkpt lat="42.2461077" lon="13.8104482"><ele>325.0</ele><time>2026-05-02T09:31:28.123Z</time></trkpt><trkpt lat="42.2461865" lon="13.8103701"><ele>325.0</ele><time>2026-05-02T09:31:29.128Z</time></trkpt><trkpt lat="42.2462639" lon="13.8102811"><ele>325.0</ele><time>2026-05-02T09:31:30.122Z</time></trkpt><trkpt lat="42.2463357" lon="13.8101787"><ele>325.0</ele><time>2026-05-02T09:31:31.122Z</time></trkpt><trkpt lat="42.2463994" lon="13.8100789"><ele>325.0</ele><time>2026-05-02T09:31:32.124Z</time></trkpt><trkpt lat="42.2464529" lon="13.8099708"><ele>325.0</ele><time>2026-05-02T09:31:33.121Z</time></trkpt><trkpt lat="42.2464969" lon="13.8098477"><ele>325.0</ele><time>2026-05-02T09:31:34.122Z</time></trkpt><trkpt lat="42.2465387" lon="13.809709"><ele>325.0</ele><time>2026-05-02T09:31:35.125Z</time></trkpt><trkpt lat="42.2465803" lon="13.8095343"><ele>325.0</ele><time>2026-05-02T09:31:36.12Z</time></trkpt><trkpt lat="42.2466196" lon="13.8093463"><ele>325.0</ele><time>2026-05-02T09:31:37.12Z</time></trkpt><trkpt lat="42.2466604" lon="13.8091701"><ele>325.0</ele><time>2026-05-02T09:31:38.124Z</time></trkpt><trkpt lat="42.2467078" lon="13.8090078"><ele>325.0</ele><time>2026-05-02T09:31:39.12Z</time></trkpt><trkpt lat="42.246752" lon="13.8088565"><ele>325.0</ele><time>2026-05-02T09:31:40.116Z</time></trkpt><trkpt lat="42.246789" lon="13.8087011"><ele>325.0</ele><time>2026-05-02T09:31:41.119Z</time></trkpt><trkpt lat="42.2468182" lon="13.8085479"><ele>325.0</ele><time>2026-05-02T09:31:42.122Z</time></trkpt><trkpt lat="42.2468433" lon="13.8083962"><ele>325.0</ele><time>2026-05-02T09:31:43.117Z</time></trkpt><trkpt lat="42.2468589" lon="13.8082458"><ele>325.0</ele><time>2026-05-02T09:31:44.123Z</time></trkpt><trkpt lat="42.2468805" lon="13.808105"><ele>325.0</ele><time>2026-05-02T09:31:45.114Z</time></trkpt><trkpt lat="42.2469119" lon="13.8079831"><ele>325.0</ele><time>2026-05-02T09:31:46.114Z</time></trkpt><trkpt lat="42.2469483" lon="13.8078713"><ele>325.0</ele><time>2026-05-02T09:31:47.114Z</time></trkpt><trkpt lat="42.2470022" lon="13.8077732"><ele>325.0</ele><time>2026-05-02T09:31:49.119Z</time></trkpt><trkpt lat="42.2471083" lon="13.8076787"><ele>324.6</ele><time>2026-05-02T09:31:51.114Z</time></trkpt><trkpt lat="42.2471764" lon="13.8076186"><ele>324.2</ele><time>2026-05-02T09:31:52.112Z</time></trkpt><trkpt lat="42.2472536" lon="13.8075494"><ele>323.79999999999995</ele><time>2026-05-02T09:31:53.118Z</time></trkpt><trkpt lat="42.2473444" lon="13.8074779"><ele>323.4</ele><time>2026-05-02T09:31:54.117Z</time></trkpt><trkpt lat="42.2474453" lon="13.8074159"><ele>323.0</ele><time>2026-05-02T09:31:55.121Z</time></trkpt><trkpt lat="42.2475418" lon="13.8073621"><ele>323.83333333333337</ele><time>2026-05-02T09:31:56.115Z</time></trkpt><trkpt lat="42.2476298" lon="13.8073106"><ele>324.6666666666667</ele><time>2026-05-02T09:31:57.111Z</time></trkpt><trkpt lat="42.247704" lon="13.8072487"><ele>325.5</ele><time>2026-05-02T09:31:58.117Z</time></trkpt><trkpt lat="42.2477574" lon="13.8071767"><ele>326.3333333333333</ele><time>2026-05-02T09:31:59.113Z</time></trkpt><trkpt lat="42.2477895" lon="13.8070918"><ele>327.16666666666663</ele><time>2026-05-02T09:32:00.118Z</time></trkpt><trkpt lat="42.2478101" lon="13.806982"><ele>328.0</ele><time>2026-05-02T09:32:01.113Z</time></trkpt><trkpt lat="42.2478199" lon="13.8068543"><ele>327.59999999999997</ele><time>2026-05-02T09:32:02.12Z</time></trkpt><trkpt lat="42.2478347" lon="13.8067144"><ele>327.2</ele><time>2026-05-02T09:32:03.113Z</time></trkpt><trkpt lat="42.2478539" lon="13.8065875"><ele>326.8</ele><time>2026-05-02T09:32:04.113Z</time></trkpt><trkpt lat="42.2478794" lon="13.8064597"><ele>326.4</ele><time>2026-05-02T09:32:05.11Z</time></trkpt><trkpt lat="42.2479192" lon="13.8063333"><ele>326.0</ele><time>2026-05-02T09:32:06.115Z</time></trkpt><trkpt lat="42.2479692" lon="13.8062125"><ele>326.0</ele><time>2026-05-02T09:32:07.115Z</time></trkpt><trkpt lat="42.2480308" lon="13.8060883"><ele>326.0</ele><time>2026-05-02T09:32:08.118Z</time></trkpt><trkpt lat="42.2480951" lon="13.8059697"><ele>326.0</ele><time>2026-05-02T09:32:09.12Z</time></trkpt><trkpt lat="42.2481514" lon="13.8058601"><ele>326.0</ele><time>2026-05-02T09:32:10.111Z</time></trkpt><trkpt lat="42.2482047" lon="13.8057659"><ele>326.0</ele><time>2026-05-02T09:32:11.121Z</time></trkpt><trkpt lat="42.2482644" lon="13.8056642"><ele>327.5</ele><time>2026-05-02T09:32:12.116Z</time></trkpt><trkpt lat="42.2483285" lon="13.8055543"><ele>329.0</ele><time>2026-05-02T09:32:13.123Z</time></trkpt><trkpt lat="42.2483926" lon="13.8054433"><ele>330.5</ele><time>2026-05-02T09:32:14.117Z</time></trkpt><trkpt lat="42.2484531" lon="13.8053567"><ele>332.0</ele><time>2026-05-02T09:32:15.12Z</time></trkpt><trkpt lat="42.2485177" lon="13.8052921"><ele>333.5</ele><time>2026-05-02T09:32:16.118Z</time></trkpt><trkpt lat="42.2485847" lon="13.8052523"><ele>335.0</ele><time>2026-05-02T09:32:17.123Z</time></trkpt><trkpt lat="42.2486465" lon="13.805229"><ele>335.0</ele><time>2026-05-02T09:32:18.117Z</time></trkpt><trkpt lat="42.2487104" lon="13.8052131"><ele>335.0</ele><time>2026-05-02T09:32:19.117Z</time></trkpt><trkpt lat="42.2487766" lon="13.8052076"><ele>335.0</ele><time>2026-05-02T09:32:20.125Z</time></trkpt><trkpt lat="42.2488829" lon="13.8052072"><ele>335.0</ele><time>2026-05-02T09:32:22.121Z</time></trkpt><trkpt lat="42.2489994" lon="13.8051919"><ele>335.0</ele><time>2026-05-02T09:32:24.122Z</time></trkpt><trkpt lat="42.2491148" lon="13.8051124"><ele>335.33333333333337</ele><time>2026-05-02T09:32:26.121Z</time></trkpt><trkpt lat="42.2491828" lon="13.8050385"><ele>335.6666666666667</ele><time>2026-05-02T09:32:27.117Z</time></trkpt><trkpt lat="42.2492468" lon="13.8049506"><ele>336.0</ele><time>2026-05-02T09:32:28.12Z</time></trkpt><trkpt lat="42.2493078" lon="13.8048627"><ele>336.3333333333333</ele><time>2026-05-02T09:32:29.11Z</time></trkpt><trkpt lat="42.2493478" lon="13.8047861"><ele>336.66666666666663</ele><time>2026-05-02T09:32:30.122Z</time></trkpt><trkpt lat="42.2494267" lon="13.8047254"><ele>337.0</ele><time>2026-05-02T09:32:32.117Z</time></trkpt><trkpt lat="42.2495209" lon="13.8047757"><ele>337.0</ele><time>2026-05-02T09:32:34.12Z</time></trkpt><trkpt lat="42.2495755" lon="13.8048403"><ele>337.0</ele><time>2026-05-02T09:32:35.117Z</time></trkpt><trkpt lat="42.2496454" lon="13.8049176"><ele>337.0</ele><time>2026-05-02T09:32:36.123Z</time></trkpt><trkpt lat="42.2497475" lon="13.8049875"><ele>337.0</ele><time>2026-05-02T09:32:37.115Z</time></trkpt><trkpt lat="42.2498631" lon="13.8050246"><ele>337.0</ele><time>2026-05-02T09:32:38.116Z</time></trkpt><trkpt lat="42.2499946" lon="13.8050316"><ele>337.5</ele><time>2026-05-02T09:32:39.122Z</time></trkpt><trkpt lat="42.2501353" lon="13.8050216"><ele>338.0</ele><time>2026-05-02T09:32:40.118Z</time></trkpt><trkpt lat="42.2502745" lon="13.805011"><ele>338.5</ele><time>2026-05-02T09:32:41.119Z</time></trkpt><trkpt lat="42.2504167" lon="13.8049923"><ele>339.0</ele><time>2026-05-02T09:32:42.117Z</time></trkpt><trkpt lat="42.250562" lon="13.8049836"><ele>341.0</ele><time>2026-05-02T09:32:43.117Z</time></trkpt><trkpt lat="42.2506925" lon="13.8049913"><ele>343.0</ele><time>2026-05-02T09:32:44.117Z</time></trkpt><trkpt lat="42.2507931" lon="13.8049977"><ele>345.0</ele><time>2026-05-02T09:32:45.115Z</time></trkpt><trkpt lat="42.2508918" lon="13.8049843"><ele>347.0</ele><time>2026-05-02T09:32:46.121Z</time></trkpt><trkpt lat="42.2509967" lon="13.8050018"><ele>349.0</ele><time>2026-05-02T09:32:47.124Z</time></trkpt><trkpt lat="42.2510746" lon="13.8050608"><ele>349.25</ele><time>2026-05-02T09:32:48.124Z</time></trkpt><trkpt lat="42.2511311" lon="13.805169"><ele>349.5</ele><time>2026-05-02T09:32:49.117Z</time></trkpt><trkpt lat="42.2511729" lon="13.8052887"><ele>349.75</ele><time>2026-05-02T09:32:50.125Z</time></trkpt><trkpt lat="42.2512034" lon="13.8054351"><ele>350.0</ele><time>2026-05-02T09:32:51.126Z</time></trkpt><trkpt lat="42.251206" lon="13.8056261"><ele>350.0</ele><time>2026-05-02T09:32:52.113Z</time></trkpt><trkpt lat="42.2512185" lon="13.8058198"><ele>350.0</ele><time>2026-05-02T09:32:53.12Z</time></trkpt><trkpt lat="42.2512549" lon="13.8060163"><ele>350.0</ele><time>2026-05-02T09:32:54.112Z</time></trkpt><trkpt lat="42.2513189" lon="13.8061954"><ele>350.0</ele><time>2026-05-02T09:32:55.122Z</time></trkpt><trkpt lat="42.251376" lon="13.8063715"><ele>351.75</ele><time>2026-05-02T09:32:56.125Z</time></trkpt><trkpt lat="42.2514602" lon="13.8065351"><ele>353.5</ele><time>2026-05-02T09:32:57.118Z</time></trkpt><trkpt lat="42.2515271" lon="13.8066985"><ele>355.25</ele><time>2026-05-02T09:32:58.124Z</time></trkpt><trkpt lat="42.2516144" lon="13.8068662"><ele>357.0</ele><time>2026-05-02T09:32:59.118Z</time></trkpt><trkpt lat="42.2516835" lon="13.8070306"><ele>357.0</ele><time>2026-05-02T09:33:00.123Z</time></trkpt><trkpt lat="42.2517408" lon="13.807164"><ele>357.0</ele><time>2026-05-02T09:33:01.124Z</time></trkpt><trkpt lat="42.251796" lon="13.8072908"><ele>357.0</ele><time>2026-05-02T09:33:02.123Z</time></trkpt><trkpt lat="42.2518494" lon="13.8074353"><ele>357.0</ele><time>2026-05-02T09:33:03.119Z</time></trkpt><trkpt lat="42.2519117" lon="13.8075855"><ele>357.0</ele><time>2026-05-02T09:33:04.123Z</time></trkpt><trkpt lat="42.2519756" lon="13.807735"><ele>357.0</ele><time>2026-05-02T09:33:05.119Z</time></trkpt><trkpt lat="42.252045" lon="13.8078834"><ele>357.0</ele><time>2026-05-02T09:33:06.116Z</time></trkpt><trkpt lat="42.2521169" lon="13.80803"><ele>357.0</ele><time>2026-05-02T09:33:07.12Z</time></trkpt><trkpt lat="42.2521879" lon="13.8081806"><ele>357.0</ele><time>2026-05-02T09:33:08.119Z</time></trkpt><trkpt lat="42.2522598" lon="13.8083204"><ele>357.0</ele><time>2026-05-02T09:33:09.122Z</time></trkpt><trkpt lat="42.2523413" lon="13.8084534"><ele>357.0</ele><time>2026-05-02T09:33:10.12Z</time></trkpt><trkpt lat="42.2524267" lon="13.808589"><ele>357.0</ele><time>2026-05-02T09:33:11.12Z</time></trkpt><trkpt lat="42.2525099" lon="13.8087145"><ele>358.8</ele><time>2026-05-02T09:33:12.112Z</time></trkpt><trkpt lat="42.2525853" lon="13.8088255"><ele>360.6</ele><time>2026-05-02T09:33:13.113Z</time></trkpt><trkpt lat="42.2526496" lon="13.8089321"><ele>362.40000000000003</ele><time>2026-05-02T09:33:14.119Z</time></trkpt><trkpt lat="42.2527018" lon="13.8090357"><ele>364.20000000000005</ele><time>2026-05-02T09:33:15.114Z</time></trkpt><trkpt lat="42.2527332" lon="13.8091427"><ele>366.0</ele><time>2026-05-02T09:33:16.11Z</time></trkpt><trkpt lat="42.2527658" lon="13.809233"><ele>366.3333333333333</ele><time>2026-05-02T09:33:17.109Z</time></trkpt><trkpt lat="42.2528404" lon="13.8093425"><ele>366.6666666666667</ele><time>2026-05-02T09:33:19.11Z</time></trkpt><trkpt lat="42.2528725" lon="13.8094245"><ele>367.0</ele><time>2026-05-02T09:33:46.124Z</time></trkpt><trkpt lat="42.2529307" lon="13.8094983"><ele>367.33333333333337</ele><time>2026-05-02T09:33:48.117Z</time></trkpt><trkpt lat="42.2529828" lon="13.8095517"><ele>367.6666666666667</ele><time>2026-05-02T09:33:49.118Z</time></trkpt><trkpt lat="42.2530614" lon="13.8096224"><ele>368.0</ele><time>2026-05-02T09:33:50.118Z</time></trkpt><trkpt lat="42.2531498" lon="13.809705"><ele>369.75</ele><time>2026-05-02T09:33:51.122Z</time></trkpt><trkpt lat="42.2532374" lon="13.8098045"><ele>371.5</ele><time>2026-05-02T09:33:52.118Z</time></trkpt><trkpt lat="42.25333" lon="13.809925"><ele>373.25</ele><time>2026-05-02T09:33:53.122Z</time></trkpt><trkpt lat="42.2534224" lon="13.8100397"><ele>375.0</ele><time>2026-05-02T09:33:54.121Z</time></trkpt><trkpt lat="42.2535287" lon="13.8101458"><ele>374.75</ele><time>2026-05-02T09:33:55.122Z</time></trkpt><trkpt lat="42.2536419" lon="13.8102402"><ele>374.5</ele><time>2026-05-02T09:33:56.125Z</time></trkpt><trkpt lat="42.253751" lon="13.8103434"><ele>374.25</ele><time>2026-05-02T09:33:57.116Z</time></trkpt><trkpt lat="42.2538509" lon="13.810463"><ele>374.0</ele><time>2026-05-02T09:33:58.123Z</time></trkpt><trkpt lat="42.2539432" lon="13.8105873"><ele>375.5</ele><time>2026-05-02T09:33:59.122Z</time></trkpt><trkpt lat="42.2540324" lon="13.8107129"><ele>377.0</ele><time>2026-05-02T09:34:00.121Z</time></trkpt><trkpt lat="42.2541275" lon="13.81083"><ele>378.5</ele><time>2026-05-02T09:34:01.12Z</time></trkpt><trkpt lat="42.2542278" lon="13.8109397"><ele>380.0</ele><time>2026-05-02T09:34:02.12Z</time></trkpt><trkpt lat="42.2543233" lon="13.8110382"><ele>380.2</ele><time>2026-05-02T09:34:03.117Z</time></trkpt><trkpt lat="42.25441" lon="13.811135"><ele>380.4</ele><time>2026-05-02T09:34:04.119Z</time></trkpt><trkpt lat="42.25449" lon="13.8112449"><ele>380.6</ele><time>2026-05-02T09:34:05.123Z</time></trkpt><trkpt lat="42.254553" lon="13.8113624"><ele>380.8</ele><time>2026-05-02T09:34:06.114Z</time></trkpt><trkpt lat="42.2545988" lon="13.8114641"><ele>381.0</ele><time>2026-05-02T09:34:07.118Z</time></trkpt><trkpt lat="42.2546308" lon="13.8115503"><ele>381.0</ele><time>2026-05-02T09:34:08.117Z</time></trkpt><trkpt lat="42.2546564" lon="13.8116386"><ele>381.0</ele><time>2026-05-02T09:34:09.123Z</time></trkpt><trkpt lat="42.2546785" lon="13.8117906"><ele>381.0</ele><time>2026-05-02T09:34:11.117Z</time></trkpt><trkpt lat="42.2547448" lon="13.8118415"><ele>381.0</ele><time>2026-05-02T09:34:14.121Z</time></trkpt><trkpt lat="42.254818" lon="13.8117695"><ele>381.0</ele><time>2026-05-02T09:34:16.113Z</time></trkpt><trkpt lat="42.2548601" lon="13.8116943"><ele>381.0</ele><time>2026-05-02T09:34:17.118Z</time></trkpt><trkpt lat="42.2549155" lon="13.8116122"><ele>383.0</ele><time>2026-05-02T09:34:18.115Z</time></trkpt><trkpt lat="42.254981" lon="13.8115191"><ele>385.0</ele><time>2026-05-02T09:34:19.121Z</time></trkpt><trkpt lat="42.2550454" lon="13.8113959"><ele>387.0</ele><time>2026-05-02T09:34:20.12Z</time></trkpt><trkpt lat="42.2551135" lon="13.8112541"><ele>389.0</ele><time>2026-05-02T09:34:21.127Z</time></trkpt><trkpt lat="42.2551831" lon="13.8111147"><ele>388.6</ele><time>2026-05-02T09:34:22.119Z</time></trkpt><trkpt lat="42.2552444" lon="13.8109886"><ele>388.2</ele><time>2026-05-02T09:34:23.133Z</time></trkpt><trkpt lat="42.2552886" lon="13.8108756"><ele>387.8</ele><time>2026-05-02T09:34:24.116Z</time></trkpt><trkpt lat="42.2553232" lon="13.8107815"><ele>387.40000000000003</ele><time>2026-05-02T09:34:25.121Z</time></trkpt><trkpt lat="42.2553471" lon="13.8106986"><ele>387.0</ele><time>2026-05-02T09:34:26.125Z</time></trkpt><trkpt lat="42.2553855" lon="13.8105453"><ele>387.0</ele><time>2026-05-02T09:34:28.122Z</time></trkpt><trkpt lat="42.2554302" lon="13.8104529"><ele>387.0</ele><time>2026-05-02T09:34:29.131Z</time></trkpt><trkpt lat="42.2554904" lon="13.8103474"><ele>387.0</ele><time>2026-05-02T09:34:30.119Z</time></trkpt><trkpt lat="42.2555639" lon="13.8102378"><ele>387.0</ele><time>2026-05-02T09:34:31.133Z</time></trkpt><trkpt lat="42.2556421" lon="13.8101264"><ele>387.0</ele><time>2026-05-02T09:34:32.122Z</time></trkpt><trkpt lat="42.2557179" lon="13.8100218"><ele>387.25</ele><time>2026-05-02T09:34:33.129Z</time></trkpt><trkpt lat="42.2557939" lon="13.8099071"><ele>387.5</ele><time>2026-05-02T09:34:34.128Z</time></trkpt><trkpt lat="42.2558708" lon="13.8097768"><ele>387.75</ele><time>2026-05-02T09:34:35.134Z</time></trkpt><trkpt lat="42.2559455" lon="13.8096396"><ele>388.0</ele><time>2026-05-02T09:34:36.131Z</time></trkpt><trkpt lat="42.2560146" lon="13.8095092"><ele>388.0</ele><time>2026-05-02T09:34:37.125Z</time></trkpt><trkpt lat="42.2560856" lon="13.8093851"><ele>388.0</ele><time>2026-05-02T09:34:38.125Z</time></trkpt><trkpt lat="42.2561512" lon="13.809267"><ele>388.0</ele><time>2026-05-02T09:34:39.123Z</time></trkpt><trkpt lat="42.256215" lon="13.8091541"><ele>388.0</ele><time>2026-05-02T09:34:40.12Z</time></trkpt><trkpt lat="42.2562851" lon="13.8090474"><ele>388.0</ele><time>2026-05-02T09:34:41.121Z</time></trkpt><trkpt lat="42.256359" lon="13.8089511"><ele>387.79999999999995</ele><time>2026-05-02T09:34:42.121Z</time></trkpt><trkpt lat="42.2564437" lon="13.8088656"><ele>387.6</ele><time>2026-05-02T09:34:43.124Z</time></trkpt><trkpt lat="42.2565281" lon="13.8087865"><ele>387.4</ele><time>2026-05-02T09:34:44.116Z</time></trkpt><trkpt lat="42.2565967" lon="13.8087027"><ele>387.20000000000005</ele><time>2026-05-02T09:34:45.126Z</time></trkpt><trkpt lat="42.2566634" lon="13.8086327"><ele>387.0</ele><time>2026-05-02T09:34:46.124Z</time></trkpt><trkpt lat="42.2567373" lon="13.8085745"><ele>387.0</ele><time>2026-05-02T09:34:47.123Z</time></trkpt><trkpt lat="42.2568194" lon="13.808538"><ele>387.0</ele><time>2026-05-02T09:34:48.124Z</time></trkpt><trkpt lat="42.2569054" lon="13.8085241"><ele>387.0</ele><time>2026-05-02T09:34:49.123Z</time></trkpt><trkpt lat="42.257001" lon="13.8084927"><ele>387.0</ele><time>2026-05-02T09:34:50.116Z</time></trkpt><trkpt lat="42.2570988" lon="13.8084298"><ele>387.0</ele><time>2026-05-02T09:34:51.12Z</time></trkpt><trkpt lat="42.2571989" lon="13.8083432"><ele>386.25</ele><time>2026-05-02T09:34:52.117Z</time></trkpt><trkpt lat="42.2573092" lon="13.8082376"><ele>385.5</ele><time>2026-05-02T09:34:53.132Z</time></trkpt><trkpt lat="42.2574112" lon="13.808147"><ele>384.75</ele><time>2026-05-02T09:34:54.121Z</time></trkpt><trkpt lat="42.257514" lon="13.8080657"><ele>384.0</ele><time>2026-05-02T09:34:55.126Z</time></trkpt><trkpt lat="42.2576294" lon="13.8079821"><ele>384.0</ele><time>2026-05-02T09:34:56.123Z</time></trkpt><trkpt lat="42.2577525" lon="13.8078895"><ele>384.0</ele><time>2026-05-02T09:34:57.12Z</time></trkpt><trkpt lat="42.2578737" lon="13.8077668"><ele>384.0</ele><time>2026-05-02T09:34:58.127Z</time></trkpt><trkpt lat="42.2579784" lon="13.8076771"><ele>384.0</ele><time>2026-05-02T09:34:59.128Z</time></trkpt><trkpt lat="42.258069" lon="13.8075762"><ele>382.5</ele><time>2026-05-02T09:35:00.127Z</time></trkpt><trkpt lat="42.2581517" lon="13.8075016"><ele>381.0</ele><time>2026-05-02T09:35:01.121Z</time></trkpt><trkpt lat="42.2582596" lon="13.8074364"><ele>379.5</ele><time>2026-05-02T09:35:02.122Z</time></trkpt><trkpt lat="42.258381" lon="13.807387"><ele>378.0</ele><time>2026-05-02T09:35:03.113Z</time></trkpt><trkpt lat="42.2584896" lon="13.807362"><ele>378.0</ele><time>2026-05-02T09:35:04.126Z</time></trkpt><trkpt lat="42.2586019" lon="13.8073263"><ele>378.0</ele><time>2026-05-02T09:35:05.119Z</time></trkpt><trkpt lat="42.2587188" lon="13.8073019"><ele>378.0</ele><time>2026-05-02T09:35:06.117Z</time></trkpt><trkpt lat="42.2588389" lon="13.8072732"><ele>378.0</ele><time>2026-05-02T09:35:07.123Z</time></trkpt><trkpt lat="42.2589592" lon="13.8072314"><ele>379.0</ele><time>2026-05-02T09:35:08.12Z</time></trkpt><trkpt lat="42.2590751" lon="13.8071743"><ele>380.0</ele><time>2026-05-02T09:35:09.124Z</time></trkpt><trkpt lat="42.259199" lon="13.8071064"><ele>381.0</ele><time>2026-05-02T09:35:10.122Z</time></trkpt><trkpt lat="42.2593258" lon="13.8070183"><ele>382.0</ele><time>2026-05-02T09:35:11.121Z</time></trkpt><trkpt lat="42.2594285" lon="13.8069014"><ele>380.75</ele><time>2026-05-02T09:35:12.121Z</time></trkpt><trkpt lat="42.259544" lon="13.8068085"><ele>379.5</ele><time>2026-05-02T09:35:13.12Z</time></trkpt><trkpt lat="42.2596616" lon="13.8067432"><ele>378.25</ele><time>2026-05-02T09:35:14.119Z</time></trkpt><trkpt lat="42.259779" lon="13.8066866"><ele>377.0</ele><time>2026-05-02T09:35:15.123Z</time></trkpt><trkpt lat="42.2598862" lon="13.8066658"><ele>377.0</ele><time>2026-05-02T09:35:16.122Z</time></trkpt><trkpt lat="42.259995" lon="13.8066035"><ele>377.0</ele><time>2026-05-02T09:35:17.122Z</time></trkpt><trkpt lat="42.260111" lon="13.8065255"><ele>377.0</ele><time>2026-05-02T09:35:18.128Z</time></trkpt><trkpt lat="42.2602226" lon="13.8064506"><ele>377.0</ele><time>2026-05-02T09:35:19.118Z</time></trkpt><trkpt lat="42.2603292" lon="13.806362"><ele>377.0</ele><time>2026-05-02T09:35:20.127Z</time></trkpt><trkpt lat="42.260438" lon="13.8062672"><ele>377.0</ele><time>2026-05-02T09:35:21.121Z</time></trkpt><trkpt lat="42.2605449" lon="13.8061766"><ele>377.0</ele><time>2026-05-02T09:35:22.125Z</time></trkpt><trkpt lat="42.2606506" lon="13.8060894"><ele>377.0</ele><time>2026-05-02T09:35:23.119Z</time></trkpt><trkpt lat="42.2607546" lon="13.806013"><ele>376.40000000000003</ele><time>2026-05-02T09:35:24.122Z</time></trkpt><trkpt lat="42.2608566" lon="13.8059437"><ele>375.8</ele><time>2026-05-02T09:35:25.12Z</time></trkpt><trkpt lat="42.2609446" lon="13.8058839"><ele>375.2</ele><time>2026-05-02T09:35:26.122Z</time></trkpt><trkpt lat="42.2610098" lon="13.8058346"><ele>374.6</ele><time>2026-05-02T09:35:27.121Z</time></trkpt><trkpt lat="42.2610817" lon="13.8057313"><ele>374.0</ele><time>2026-05-02T09:35:29.135Z</time></trkpt><trkpt lat="42.2611935" lon="13.8056289"><ele>374.0</ele><time>2026-05-02T09:35:31.131Z</time></trkpt><trkpt lat="42.2612848" lon="13.8055983"><ele>374.0</ele><time>2026-05-02T09:35:32.116Z</time></trkpt><trkpt lat="42.2613987" lon="13.8055683"><ele>374.0</ele><time>2026-05-02T09:35:33.12Z</time></trkpt><trkpt lat="42.2615318" lon="13.8055266"><ele>374.0</ele><time>2026-05-02T09:35:34.124Z</time></trkpt><trkpt lat="42.2616668" lon="13.8054766"><ele>373.4</ele><time>2026-05-02T09:35:35.121Z</time></trkpt><trkpt lat="42.2617862" lon="13.8054376"><ele>372.79999999999995</ele><time>2026-05-02T09:35:36.124Z</time></trkpt><trkpt lat="42.2619038" lon="13.8053803"><ele>372.20000000000005</ele><time>2026-05-02T09:35:37.119Z</time></trkpt><trkpt lat="42.2620038" lon="13.8053267"><ele>371.6</ele><time>2026-05-02T09:35:38.124Z</time></trkpt><trkpt lat="42.2620686" lon="13.8053136"><ele>371.0</ele><time>2026-05-02T09:35:39.122Z</time></trkpt><trkpt lat="42.2621342" lon="13.8052952"><ele>371.0</ele><time>2026-05-02T09:35:40.125Z</time></trkpt><trkpt lat="42.2622464" lon="13.8053123"><ele>371.0</ele><time>2026-05-02T09:35:42.119Z</time></trkpt><trkpt lat="42.2623096" lon="13.8053323"><ele>371.0</ele><time>2026-05-02T09:35:44.126Z</time></trkpt><trkpt lat="42.2624189" lon="13.8053488"><ele>371.0</ele><time>2026-05-02T09:35:46.125Z</time></trkpt><trkpt lat="42.2625032" lon="13.805366"><ele>371.0</ele><time>2026-05-02T09:35:47.124Z</time></trkpt><trkpt lat="42.2625863" lon="13.805359"><ele>370.75</ele><time>2026-05-02T09:35:48.126Z</time></trkpt><trkpt lat="42.2626773" lon="13.8053349"><ele>370.5</ele><time>2026-05-02T09:35:49.117Z</time></trkpt><trkpt lat="42.2627838" lon="13.8052968"><ele>370.25</ele><time>2026-05-02T09:35:50.119Z</time></trkpt><trkpt lat="42.2629087" lon="13.805258"><ele>370.0</ele><time>2026-05-02T09:35:51.12Z</time></trkpt><trkpt lat="42.2630485" lon="13.8052213"><ele>369.0</ele><time>2026-05-02T09:35:52.122Z</time></trkpt><trkpt lat="42.2631911" lon="13.8051818"><ele>368.0</ele><time>2026-05-02T09:35:53.122Z</time></trkpt><trkpt lat="42.2633464" lon="13.8051662"><ele>367.0</ele><time>2026-05-02T09:35:54.123Z</time></trkpt><trkpt lat="42.2634837" lon="13.8051261"><ele>366.0</ele><time>2026-05-02T09:35:55.126Z</time></trkpt><trkpt lat="42.2636109" lon="13.8051055"><ele>365.75</ele><time>2026-05-02T09:35:56.127Z</time></trkpt><trkpt lat="42.2637573" lon="13.8050836"><ele>365.5</ele><time>2026-05-02T09:35:57.133Z</time></trkpt><trkpt lat="42.2638798" lon="13.8050682"><ele>365.25</ele><time>2026-05-02T09:35:58.122Z</time></trkpt><trkpt lat="42.2640093" lon="13.8050602"><ele>365.0</ele><time>2026-05-02T09:35:59.128Z</time></trkpt><trkpt lat="42.2641276" lon="13.8050641"><ele>364.25</ele><time>2026-05-02T09:36:00.117Z</time></trkpt><trkpt lat="42.2642528" lon="13.8050581"><ele>363.5</ele><time>2026-05-02T09:36:01.125Z</time></trkpt><trkpt lat="42.2643767" lon="13.8050445"><ele>362.75</ele><time>2026-05-02T09:36:02.123Z</time></trkpt><trkpt lat="42.264498" lon="13.8050343"><ele>362.0</ele><time>2026-05-02T09:36:03.115Z</time></trkpt><trkpt lat="42.2646225" lon="13.8050209"><ele>362.0</ele><time>2026-05-02T09:36:04.115Z</time></trkpt><trkpt lat="42.26477" lon="13.8049977"><ele>362.0</ele><time>2026-05-02T09:36:05.123Z</time></trkpt><trkpt lat="42.2649323" lon="13.8049556"><ele>362.0</ele><time>2026-05-02T09:36:06.119Z</time></trkpt><trkpt lat="42.2650856" lon="13.8048983"><ele>361.0</ele><time>2026-05-02T09:36:07.118Z</time></trkpt><trkpt lat="42.2652405" lon="13.8048229"><ele>360.0</ele><time>2026-05-02T09:36:08.122Z</time></trkpt><trkpt lat="42.265375" lon="13.8047618"><ele>359.0</ele><time>2026-05-02T09:36:09.12Z</time></trkpt><trkpt lat="42.2655087" lon="13.8047277"><ele>358.0</ele><time>2026-05-02T09:36:10.107Z</time></trkpt><trkpt lat="42.2656396" lon="13.804688"><ele>357.5</ele><time>2026-05-02T09:36:11.119Z</time></trkpt><trkpt lat="42.2657649" lon="13.8046462"><ele>357.0</ele><time>2026-05-02T09:36:12.112Z</time></trkpt><trkpt lat="42.2658807" lon="13.8045995"><ele>356.5</ele><time>2026-05-02T09:36:13.112Z</time></trkpt><trkpt lat="42.265994" lon="13.8045635"><ele>356.0</ele><time>2026-05-02T09:36:14.11Z</time></trkpt><trkpt lat="42.2660964" lon="13.8045265"><ele>356.0</ele><time>2026-05-02T09:36:15.128Z</time></trkpt><trkpt lat="42.2662008" lon="13.8044833"><ele>356.0</ele><time>2026-05-02T09:36:16.119Z</time></trkpt><trkpt lat="42.2663068" lon="13.8044335"><ele>356.0</ele><time>2026-05-02T09:36:17.123Z</time></trkpt><trkpt lat="42.2664182" lon="13.8043566"><ele>356.0</ele><time>2026-05-02T09:36:18.119Z</time></trkpt><trkpt lat="42.2665333" lon="13.8042588"><ele>355.75</ele><time>2026-05-02T09:36:19.128Z</time></trkpt><trkpt lat="42.2666392" lon="13.8041566"><ele>355.5</ele><time>2026-05-02T09:36:20.117Z</time></trkpt><trkpt lat="42.2667322" lon="13.8040705"><ele>355.25</ele><time>2026-05-02T09:36:21.127Z</time></trkpt><trkpt lat="42.2668153" lon="13.8039732"><ele>355.0</ele><time>2026-05-02T09:36:22.122Z</time></trkpt><trkpt lat="42.2668984" lon="13.8038663"><ele>355.0</ele><time>2026-05-02T09:36:23.132Z</time></trkpt><trkpt lat="42.266974" lon="13.8037484"><ele>355.0</ele><time>2026-05-02T09:36:24.123Z</time></trkpt><trkpt lat="42.267022" lon="13.8036169"><ele>355.0</ele><time>2026-05-02T09:36:25.122Z</time></trkpt><trkpt lat="42.2670595" lon="13.8034846"><ele>355.0</ele><time>2026-05-02T09:36:26.129Z</time></trkpt><trkpt lat="42.2670855" lon="13.8033495"><ele>355.0</ele><time>2026-05-02T09:36:27.129Z</time></trkpt><trkpt lat="42.2671134" lon="13.8032209"><ele>355.4</ele><time>2026-05-02T09:36:28.127Z</time></trkpt><trkpt lat="42.2671581" lon="13.8031033"><ele>355.8</ele><time>2026-05-02T09:36:29.125Z</time></trkpt><trkpt lat="42.2672289" lon="13.8030001"><ele>356.20000000000005</ele><time>2026-05-02T09:36:30.122Z</time></trkpt><trkpt lat="42.2673029" lon="13.8028972"><ele>356.6</ele><time>2026-05-02T09:36:31.123Z</time></trkpt><trkpt lat="42.26737" lon="13.8028119"><ele>357.0</ele><time>2026-05-02T09:36:32.127Z</time></trkpt><trkpt lat="42.2674264" lon="13.8027312"><ele>356.40000000000003</ele><time>2026-05-02T09:36:33.12Z</time></trkpt><trkpt lat="42.2674975" lon="13.8026434"><ele>355.8</ele><time>2026-05-02T09:36:35.118Z</time></trkpt><trkpt lat="42.2675154" lon="13.8024913"><ele>355.2</ele><time>2026-05-02T09:36:38.13Z</time></trkpt><trkpt lat="42.2675758" lon="13.8023958"><ele>354.6</ele><time>2026-05-02T09:36:39.121Z</time></trkpt><trkpt lat="42.2676488" lon="13.8022878"><ele>354.0</ele><time>2026-05-02T09:36:40.125Z</time></trkpt><trkpt lat="42.2677361" lon="13.802163"><ele>354.0</ele><time>2026-05-02T09:36:41.124Z</time></trkpt><trkpt lat="42.2678419" lon="13.8020396"><ele>354.0</ele><time>2026-05-02T09:36:42.12Z</time></trkpt><trkpt lat="42.2679593" lon="13.8019089"><ele>354.0</ele><time>2026-05-02T09:36:43.12Z</time></trkpt><trkpt lat="42.2680929" lon="13.8017583"><ele>353.75</ele><time>2026-05-02T09:36:44.13Z</time></trkpt><trkpt lat="42.268208" lon="13.8016305"><ele>353.5</ele><time>2026-05-02T09:36:45.129Z</time></trkpt><trkpt lat="42.2683209" lon="13.8015394"><ele>353.25</ele><time>2026-05-02T09:36:46.127Z</time></trkpt><trkpt lat="42.2684331" lon="13.8014392"><ele>353.0</ele><time>2026-05-02T09:36:47.125Z</time></trkpt><trkpt lat="42.2685461" lon="13.8013261"><ele>353.0</ele><time>2026-05-02T09:36:48.125Z</time></trkpt><trkpt lat="42.2686496" lon="13.8011801"><ele>353.0</ele><time>2026-05-02T09:36:49.123Z</time></trkpt><trkpt lat="42.2687497" lon="13.8010445"><ele>353.0</ele><time>2026-05-02T09:36:50.128Z</time></trkpt><trkpt lat="42.2688432" lon="13.8009529"><ele>353.0</ele><time>2026-05-02T09:36:51.124Z</time></trkpt><trkpt lat="42.2689296" lon="13.8008637"><ele>352.79999999999995</ele><time>2026-05-02T09:36:52.128Z</time></trkpt><trkpt lat="42.2690125" lon="13.800782"><ele>352.6</ele><time>2026-05-02T09:36:53.123Z</time></trkpt><trkpt lat="42.2691161" lon="13.8007128"><ele>352.4</ele><time>2026-05-02T09:36:54.123Z</time></trkpt><trkpt lat="42.2692097" lon="13.8006725"><ele>352.20000000000005</ele><time>2026-05-02T09:36:55.126Z</time></trkpt><trkpt lat="42.2693264" lon="13.8006509"><ele>352.0</ele><time>2026-05-02T09:36:56.128Z</time></trkpt><trkpt lat="42.2694261" lon="13.8006198"><ele>352.0</ele><time>2026-05-02T09:36:57.115Z</time></trkpt><trkpt lat="42.2695307" lon="13.8005875"><ele>352.0</ele><time>2026-05-02T09:36:58.117Z</time></trkpt><trkpt lat="42.2696289" lon="13.8005429"><ele>352.0</ele><time>2026-05-02T09:36:59.119Z</time></trkpt><trkpt lat="42.2697143" lon="13.8004723"><ele>352.0</ele><time>2026-05-02T09:37:00.124Z</time></trkpt><trkpt lat="42.2697942" lon="13.8003779"><ele>352.0</ele><time>2026-05-02T09:37:01.124Z</time></trkpt><trkpt lat="42.2698856" lon="13.8002697"><ele>350.75</ele><time>2026-05-02T09:37:02.121Z</time></trkpt><trkpt lat="42.2699849" lon="13.8001365"><ele>349.5</ele><time>2026-05-02T09:37:03.12Z</time></trkpt><trkpt lat="42.2700858" lon="13.80001"><ele>348.25</ele><time>2026-05-02T09:37:04.124Z</time></trkpt><trkpt lat="42.2701739" lon="13.7999012"><ele>347.0</ele><time>2026-05-02T09:37:05.12Z</time></trkpt><trkpt lat="42.2702815" lon="13.7997996"><ele>347.0</ele><time>2026-05-02T09:37:06.121Z</time></trkpt><trkpt lat="42.2703823" lon="13.7997109"><ele>347.0</ele><time>2026-05-02T09:37:07.125Z</time></trkpt><trkpt lat="42.2704899" lon="13.7996375"><ele>347.0</ele><time>2026-05-02T09:37:08.122Z</time></trkpt><trkpt lat="42.2705777" lon="13.7995659"><ele>347.0</ele><time>2026-05-02T09:37:09.125Z</time></trkpt><trkpt lat="42.2706947" lon="13.799498"><ele>348.0</ele><time>2026-05-02T09:37:10.125Z</time></trkpt><trkpt lat="42.2708458" lon="13.7994746"><ele>349.0</ele><time>2026-05-02T09:37:11.124Z</time></trkpt><trkpt lat="42.2709922" lon="13.7994365"><ele>350.0</ele><time>2026-05-02T09:37:12.126Z</time></trkpt><trkpt lat="42.2711481" lon="13.7993731"><ele>349.5</ele><time>2026-05-02T09:37:13.12Z</time></trkpt><trkpt lat="42.271273" lon="13.7993179"><ele>349.0</ele><time>2026-05-02T09:37:14.122Z</time></trkpt><trkpt lat="42.2713996" lon="13.7992651"><ele>348.5</ele><time>2026-05-02T09:37:15.123Z</time></trkpt><trkpt lat="42.2715251" lon="13.7991955"><ele>348.0</ele><time>2026-05-02T09:37:16.127Z</time></trkpt><trkpt lat="42.2716685" lon="13.7991216"><ele>348.0</ele><time>2026-05-02T09:37:17.116Z</time></trkpt><trkpt lat="42.2718062" lon="13.7990364"><ele>348.0</ele><time>2026-05-02T09:37:18.125Z</time></trkpt><trkpt lat="42.2719197" lon="13.798975"><ele>348.0</ele><time>2026-05-02T09:37:19.124Z</time></trkpt><trkpt lat="42.2720381" lon="13.7988779"><ele>348.0</ele><time>2026-05-02T09:37:20.125Z</time></trkpt><trkpt lat="42.2721563" lon="13.7988308"><ele>348.0</ele><time>2026-05-02T09:37:21.129Z</time></trkpt><trkpt lat="42.2722603" lon="13.7987815"><ele>348.0</ele><time>2026-05-02T09:37:22.123Z</time></trkpt><trkpt lat="42.2723612" lon="13.7987248"><ele>348.0</ele><time>2026-05-02T09:37:23.116Z</time></trkpt><trkpt lat="42.2724628" lon="13.7986276"><ele>348.0</ele><time>2026-05-02T09:37:24.12Z</time></trkpt><trkpt lat="42.272556" lon="13.7985395"><ele>347.75</ele><time>2026-05-02T09:37:25.123Z</time></trkpt><trkpt lat="42.2726554" lon="13.7984652"><ele>347.5</ele><time>2026-05-02T09:37:26.128Z</time></trkpt><trkpt lat="42.2727592" lon="13.7983807"><ele>347.25</ele><time>2026-05-02T09:37:27.118Z</time></trkpt><trkpt lat="42.2728737" lon="13.7982818"><ele>347.0</ele><time>2026-05-02T09:37:28.124Z</time></trkpt><trkpt lat="42.2729748" lon="13.798184"><ele>347.0</ele><time>2026-05-02T09:37:29.126Z</time></trkpt><trkpt lat="42.2730674" lon="13.7980931"><ele>347.0</ele><time>2026-05-02T09:37:30.123Z</time></trkpt><trkpt lat="42.27316" lon="13.7980121"><ele>347.0</ele><time>2026-05-02T09:37:31.124Z</time></trkpt><trkpt lat="42.2732671" lon="13.7979585"><ele>347.0</ele><time>2026-05-02T09:37:32.116Z</time></trkpt><trkpt lat="42.2733863" lon="13.7979015"><ele>346.5</ele><time>2026-05-02T09:37:33.12Z</time></trkpt><trkpt lat="42.2735126" lon="13.7978213"><ele>346.0</ele><time>2026-05-02T09:37:34.126Z</time></trkpt><trkpt lat="42.2736517" lon="13.7977369"><ele>345.5</ele><time>2026-05-02T09:37:35.117Z</time></trkpt><trkpt lat="42.273783" lon="13.7976609"><ele>345.0</ele><time>2026-05-02T09:37:36.116Z</time></trkpt><trkpt lat="42.2738935" lon="13.7975874"><ele>345.5</ele><time>2026-05-02T09:37:37.122Z</time></trkpt><trkpt lat="42.2740042" lon="13.7975111"><ele>346.0</ele><time>2026-05-02T09:37:38.127Z</time></trkpt><trkpt lat="42.2741128" lon="13.7974457"><ele>346.5</ele><time>2026-05-02T09:37:39.121Z</time></trkpt><trkpt lat="42.2742284" lon="13.7973767"><ele>347.0</ele><time>2026-05-02T09:37:40.127Z</time></trkpt><trkpt lat="42.2743146" lon="13.797267"><ele>347.0</ele><time>2026-05-02T09:37:41.123Z</time></trkpt><trkpt lat="42.2743964" lon="13.7971614"><ele>347.0</ele><time>2026-05-02T09:37:42.127Z</time></trkpt><trkpt lat="42.2744877" lon="13.7970513"><ele>347.0</ele><time>2026-05-02T09:37:43.121Z</time></trkpt><trkpt lat="42.2745981" lon="13.7969605"><ele>347.0</ele><time>2026-05-02T09:37:44.128Z</time></trkpt><trkpt lat="42.2747165" lon="13.7968835"><ele>347.0</ele><time>2026-05-02T09:37:45.117Z</time></trkpt><trkpt lat="42.2748319" lon="13.796808"><ele>347.0</ele><time>2026-05-02T09:37:46.128Z</time></trkpt><trkpt lat="42.2749372" lon="13.7967351"><ele>347.0</ele><time>2026-05-02T09:37:47.124Z</time></trkpt><trkpt lat="42.2750294" lon="13.7966778"><ele>347.0</ele><time>2026-05-02T09:37:48.122Z</time></trkpt><trkpt lat="42.2751103" lon="13.7966225"><ele>347.0</ele><time>2026-05-02T09:37:49.118Z</time></trkpt><trkpt lat="42.2751827" lon="13.7965526"><ele>347.0</ele><time>2026-05-02T09:37:50.124Z</time></trkpt><trkpt lat="42.2752522" lon="13.7964588"><ele>347.0</ele><time>2026-05-02T09:37:51.128Z</time></trkpt><trkpt lat="42.2753245" lon="13.7963618"><ele>347.0</ele><time>2026-05-02T09:37:52.121Z</time></trkpt><trkpt lat="42.2754117" lon="13.7962935"><ele>347.0</ele><time>2026-05-02T09:37:53.121Z</time></trkpt><trkpt lat="42.2755129" lon="13.796257"><ele>347.0</ele><time>2026-05-02T09:37:54.116Z</time></trkpt><trkpt lat="42.2756014" lon="13.7962385"><ele>347.0</ele><time>2026-05-02T09:37:55.121Z</time></trkpt><trkpt lat="42.2756786" lon="13.796223"><ele>347.0</ele><time>2026-05-02T09:37:56.124Z</time></trkpt><trkpt lat="42.2757503" lon="13.7962002"><ele>347.0</ele><time>2026-05-02T09:37:57.112Z</time></trkpt><trkpt lat="42.275824" lon="13.7961492"><ele>347.0</ele><time>2026-05-02T09:37:58.12Z</time></trkpt><trkpt lat="42.2759044" lon="13.796068"><ele>347.0</ele><time>2026-05-02T09:37:59.12Z</time></trkpt><trkpt lat="42.2759989" lon="13.7959639"><ele>347.0</ele><time>2026-05-02T09:38:00.126Z</time></trkpt><trkpt lat="42.2761017" lon="13.7958448"><ele>347.0</ele><time>2026-05-02T09:38:01.123Z</time></trkpt><trkpt lat="42.2762047" lon="13.7957207"><ele>347.0</ele><time>2026-05-02T09:38:02.12Z</time></trkpt><trkpt lat="42.2762973" lon="13.7955995"><ele>347.0</ele><time>2026-05-02T09:38:03.118Z</time></trkpt><trkpt lat="42.2763879" lon="13.7954978"><ele>348.8</ele><time>2026-05-02T09:38:04.123Z</time></trkpt><trkpt lat="42.2764765" lon="13.7954106"><ele>350.6</ele><time>2026-05-02T09:38:05.123Z</time></trkpt><trkpt lat="42.2765734" lon="13.7953435"><ele>352.40000000000003</ele><time>2026-05-02T09:38:06.124Z</time></trkpt><trkpt lat="42.276671" lon="13.7952993"><ele>354.20000000000005</ele><time>2026-05-02T09:38:07.116Z</time></trkpt><trkpt lat="42.2767764" lon="13.7952698"><ele>356.0</ele><time>2026-05-02T09:38:08.124Z</time></trkpt><trkpt lat="42.2768898" lon="13.7952374"><ele>356.0</ele><time>2026-05-02T09:38:09.124Z</time></trkpt><trkpt lat="42.2770111" lon="13.7952006"><ele>356.0</ele><time>2026-05-02T09:38:10.125Z</time></trkpt><trkpt lat="42.2771291" lon="13.7951792"><ele>356.0</ele><time>2026-05-02T09:38:11.126Z</time></trkpt><trkpt lat="42.2772428" lon="13.795172"><ele>356.0</ele><time>2026-05-02T09:38:12.128Z</time></trkpt><trkpt lat="42.277359" lon="13.7951678"><ele>354.6</ele><time>2026-05-02T09:38:13.139Z</time></trkpt><trkpt lat="42.2774665" lon="13.7951571"><ele>353.20000000000005</ele><time>2026-05-02T09:38:14.126Z</time></trkpt><trkpt lat="42.2775632" lon="13.7951414"><ele>351.79999999999995</ele><time>2026-05-02T09:38:15.123Z</time></trkpt><trkpt lat="42.2776539" lon="13.7951256"><ele>350.4</ele><time>2026-05-02T09:38:16.123Z</time></trkpt><trkpt lat="42.277757" lon="13.7951207"><ele>349.0</ele><time>2026-05-02T09:38:17.125Z</time></trkpt><trkpt lat="42.277858" lon="13.7951292"><ele>349.0</ele><time>2026-05-02T09:38:18.133Z</time></trkpt><trkpt lat="42.2779482" lon="13.7951509"><ele>349.0</ele><time>2026-05-02T09:38:19.127Z</time></trkpt><trkpt lat="42.2780469" lon="13.7951872"><ele>349.0</ele><time>2026-05-02T09:38:20.134Z</time></trkpt><trkpt lat="42.2781549" lon="13.7952252"><ele>349.0</ele><time>2026-05-02T09:38:21.131Z</time></trkpt><trkpt lat="42.2782765" lon="13.7952654"><ele>349.0</ele><time>2026-05-02T09:38:22.132Z</time></trkpt><trkpt lat="42.2784003" lon="13.7952956"><ele>350.2</ele><time>2026-05-02T09:38:23.14Z</time></trkpt><trkpt lat="42.2785137" lon="13.7953248"><ele>351.4</ele><time>2026-05-02T09:38:24.125Z</time></trkpt><trkpt lat="42.2786219" lon="13.7953516"><ele>352.6</ele><time>2026-05-02T09:38:25.129Z</time></trkpt><trkpt lat="42.2787192" lon="13.79537"><ele>353.8</ele><time>2026-05-02T09:38:26.129Z</time></trkpt><trkpt lat="42.2788015" lon="13.7953633"><ele>355.0</ele><time>2026-05-02T09:38:27.125Z</time></trkpt><trkpt lat="42.2788786" lon="13.7953505"><ele>354.5</ele><time>2026-05-02T09:38:28.129Z</time></trkpt><trkpt lat="42.2789589" lon="13.7953147"><ele>354.0</ele><time>2026-05-02T09:38:29.131Z</time></trkpt><trkpt lat="42.2790442" lon="13.7952714"><ele>353.5</ele><time>2026-05-02T09:38:30.129Z</time></trkpt><trkpt lat="42.2791331" lon="13.7952476"><ele>353.0</ele><time>2026-05-02T09:38:31.132Z</time></trkpt><trkpt lat="42.2792185" lon="13.7952298"><ele>352.5</ele><time>2026-05-02T09:38:32.122Z</time></trkpt><trkpt lat="42.2793006" lon="13.7952107"><ele>352.0</ele><time>2026-05-02T09:38:33.127Z</time></trkpt><trkpt lat="42.2793819" lon="13.7951731"><ele>350.0</ele><time>2026-05-02T09:38:34.123Z</time></trkpt><trkpt lat="42.2794726" lon="13.7951134"><ele>348.0</ele><time>2026-05-02T09:38:35.133Z</time></trkpt><trkpt lat="42.2795671" lon="13.7950371"><ele>346.0</ele><time>2026-05-02T09:38:36.129Z</time></trkpt><trkpt lat="42.279645" lon="13.7949655"><ele>344.0</ele><time>2026-05-02T09:38:37.131Z</time></trkpt><trkpt lat="42.2797134" lon="13.7948954"><ele>342.0</ele><time>2026-05-02T09:38:38.122Z</time></trkpt><trkpt lat="42.2797982" lon="13.7948205"><ele>342.0</ele><time>2026-05-02T09:38:39.131Z</time></trkpt><trkpt lat="42.2799252" lon="13.7947086"><ele>342.0</ele><time>2026-05-02T09:38:40.119Z</time></trkpt><trkpt lat="42.2800784" lon="13.7945722"><ele>342.0</ele><time>2026-05-02T09:38:41.126Z</time></trkpt><trkpt lat="42.2802553" lon="13.7943876"><ele>342.0</ele><time>2026-05-02T09:38:42.119Z</time></trkpt><trkpt lat="42.2804544" lon="13.7942272"><ele>342.0</ele><time>2026-05-02T09:38:43.13Z</time></trkpt><trkpt lat="42.2806255" lon="13.794061"><ele>342.0</ele><time>2026-05-02T09:38:44.12Z</time></trkpt><trkpt lat="42.2808074" lon="13.7939061"><ele>342.0</ele><time>2026-05-02T09:38:45.128Z</time></trkpt><trkpt lat="42.2809902" lon="13.793811"><ele>342.0</ele><time>2026-05-02T09:38:46.121Z</time></trkpt><trkpt lat="42.2811475" lon="13.7937094"><ele>342.0</ele><time>2026-05-02T09:38:47.127Z</time></trkpt><trkpt lat="42.2812858" lon="13.7936549"><ele>342.0</ele><time>2026-05-02T09:38:48.122Z</time></trkpt><trkpt lat="42.2814127" lon="13.7935954"><ele>342.0</ele><time>2026-05-02T09:38:49.13Z</time></trkpt><trkpt lat="42.2815105" lon="13.793524"><ele>342.0</ele><time>2026-05-02T09:38:50.127Z</time></trkpt><trkpt lat="42.2816325" lon="13.7934395"><ele>342.0</ele><time>2026-05-02T09:38:51.13Z</time></trkpt><trkpt lat="42.2817359" lon="13.7933692"><ele>342.0</ele><time>2026-05-02T09:38:52.13Z</time></trkpt><trkpt lat="42.2818535" lon="13.7932884"><ele>342.0</ele><time>2026-05-02T09:38:53.137Z</time></trkpt><trkpt lat="42.281958" lon="13.7932037"><ele>342.0</ele><time>2026-05-02T09:38:54.126Z</time></trkpt><trkpt lat="42.2820742" lon="13.7931249"><ele>342.0</ele><time>2026-05-02T09:38:55.133Z</time></trkpt><trkpt lat="42.2822162" lon="13.7930122"><ele>342.3333333333333</ele><time>2026-05-02T09:38:56.124Z</time></trkpt><trkpt lat="42.2823368" lon="13.7928939"><ele>342.66666666666663</ele><time>2026-05-02T09:38:57.131Z</time></trkpt><trkpt lat="42.2824591" lon="13.7927462"><ele>343.0</ele><time>2026-05-02T09:38:58.128Z</time></trkpt><trkpt lat="42.2825625" lon="13.7926135"><ele>343.0</ele><time>2026-05-02T09:38:59.132Z</time></trkpt><trkpt lat="42.2826203" lon="13.7924719"><ele>343.0</ele><time>2026-05-02T09:39:00.118Z</time></trkpt><trkpt lat="42.2826534" lon="13.7923416"><ele>343.0</ele><time>2026-05-02T09:39:01.125Z</time></trkpt><trkpt lat="42.2826612" lon="13.7922433"><ele>343.0</ele><time>2026-05-02T09:39:02.119Z</time></trkpt><trkpt lat="42.2826522" lon="13.792145"><ele>343.0</ele><time>2026-05-02T09:39:04.121Z</time></trkpt><trkpt lat="42.282675" lon="13.7922254"><ele>343.0</ele><time>2026-05-02T09:42:05.127Z</time></trkpt><trkpt lat="42.2826515" lon="13.7921294"><ele>343.0</ele><time>2026-05-02T09:42:07.123Z</time></trkpt><trkpt lat="42.2826398" lon="13.7920328"><ele>343.0</ele><time>2026-05-02T09:42:08.134Z</time></trkpt><trkpt lat="42.2826078" lon="13.7918855"><ele>343.0</ele><time>2026-05-02T09:42:09.129Z</time></trkpt><trkpt lat="42.2825458" lon="13.7916936"><ele>343.0</ele><time>2026-05-02T09:42:10.121Z</time></trkpt><trkpt lat="42.2824745" lon="13.7914742"><ele>341.5</ele><time>2026-05-02T09:42:11.125Z</time></trkpt><trkpt lat="42.282362" lon="13.7911427"><ele>340.0</ele><time>2026-05-02T09:42:12.125Z</time></trkpt><trkpt lat="42.2822424" lon="13.790909"><ele>338.0</ele><time>2026-05-02T09:42:13.128Z</time></trkpt><trkpt lat="42.2821162" lon="13.7907022"><ele>336.0</ele><time>2026-05-02T09:42:14.13Z</time></trkpt><trkpt lat="42.2820094" lon="13.7905285"><ele>334.0</ele><time>2026-05-02T09:42:15.128Z</time></trkpt><trkpt lat="42.2819222" lon="13.7903685"><ele>334.0</ele><time>2026-05-02T09:42:16.125Z</time></trkpt><trkpt lat="42.2818475" lon="13.7902361"><ele>334.0</ele><time>2026-05-02T09:42:17.13Z</time></trkpt><trkpt lat="42.2817759" lon="13.7901221"><ele>334.0</ele><time>2026-05-02T09:42:18.128Z</time></trkpt><trkpt lat="42.2817459" lon="13.7900286"><ele>334.0</ele><time>2026-05-02T09:42:19.121Z</time></trkpt><trkpt lat="42.2817477" lon="13.7899211"><ele>334.0</ele><time>2026-05-02T09:42:20.125Z</time></trkpt><trkpt lat="42.2817429" lon="13.78979"><ele>335.0</ele><time>2026-05-02T09:42:21.115Z</time></trkpt><trkpt lat="42.2817873" lon="13.7896755"><ele>336.0</ele><time>2026-05-02T09:42:22.122Z</time></trkpt><trkpt lat="42.2818325" lon="13.7895328"><ele>337.0</ele><time>2026-05-02T09:42:23.123Z</time></trkpt><trkpt lat="42.2818935" lon="13.789399"><ele>338.0</ele><time>2026-05-02T09:42:24.123Z</time></trkpt><trkpt lat="42.2819522" lon="13.7892687"><ele>339.0</ele><time>2026-05-02T09:42:25.127Z</time></trkpt><trkpt lat="42.282002" lon="13.7891481"><ele>339.0</ele><time>2026-05-02T09:42:26.128Z</time></trkpt><trkpt lat="42.2820417" lon="13.7890556"><ele>339.0</ele><time>2026-05-02T09:42:27.129Z</time></trkpt><trkpt lat="42.2820979" lon="13.788968"><ele>339.0</ele><time>2026-05-02T09:42:29.135Z</time></trkpt><trkpt lat="42.2821769" lon="13.7890406"><ele>339.0</ele><time>2026-05-02T09:42:31.132Z</time></trkpt><trkpt lat="42.2822232" lon="13.7890984"><ele>339.0</ele><time>2026-05-02T09:42:32.121Z</time></trkpt><trkpt lat="42.2822771" lon="13.7891565"><ele>339.0</ele><time>2026-05-02T09:42:39.13Z</time></trkpt><trkpt lat="42.2823535" lon="13.7892468"><ele>339.4</ele><time>2026-05-02T09:42:41.131Z</time></trkpt><trkpt lat="42.2824149" lon="13.7893159"><ele>339.79999999999995</ele><time>2026-05-02T09:42:42.129Z</time></trkpt><trkpt lat="42.2825005" lon="13.7893961"><ele>340.20000000000005</ele><time>2026-05-02T09:42:43.136Z</time></trkpt><trkpt lat="42.2825916" lon="13.7894855"><ele>340.6</ele><time>2026-05-02T09:42:44.135Z</time></trkpt><trkpt lat="42.2826932" lon="13.7895878"><ele>341.0</ele><time>2026-05-02T09:42:45.131Z</time></trkpt><trkpt lat="42.2828003" lon="13.7896991"><ele>341.20000000000005</ele><time>2026-05-02T09:42:46.132Z</time></trkpt><trkpt lat="42.2828944" lon="13.7897882"><ele>341.40000000000003</ele><time>2026-05-02T09:42:47.125Z</time></trkpt><trkpt lat="42.2829667" lon="13.7898578"><ele>341.6</ele><time>2026-05-02T09:42:48.129Z</time></trkpt><trkpt lat="42.2830218" lon="13.789904"><ele>341.8</ele><time>2026-05-02T09:43:18.137Z</time></trkpt><trkpt lat="42.2830834" lon="13.7898304"><ele>342.0</ele><time>2026-05-02T09:43:21.138Z</time></trkpt><trkpt lat="42.2831194" lon="13.7897059"><ele>342.6</ele><time>2026-05-02T09:43:23.13Z</time></trkpt><trkpt lat="42.283167" lon="13.7895631"><ele>343.20000000000005</ele><time>2026-05-02T09:43:25.135Z</time></trkpt><trkpt lat="42.2832114" lon="13.7894224"><ele>343.8</ele><time>2026-05-02T09:43:27.135Z</time></trkpt><trkpt lat="42.2832449" lon="13.7892953"><ele>344.4</ele><time>2026-05-02T09:43:29.137Z</time></trkpt><trkpt lat="42.2832781" lon="13.7891567"><ele>345.0</ele><time>2026-05-02T09:43:31.134Z</time></trkpt><trkpt lat="42.2833204" lon="13.7890151"><ele>345.0</ele><time>2026-05-02T09:43:33.134Z</time></trkpt><trkpt lat="42.2833584" lon="13.788883"><ele>345.0</ele><time>2026-05-02T09:43:35.131Z</time></trkpt><trkpt lat="42.2833813" lon="13.7887762"><ele>345.0</ele><time>2026-05-02T09:43:36.13Z</time></trkpt><trkpt lat="42.2834043" lon="13.7886679"><ele>345.0</ele><time>2026-05-02T09:43:37.135Z</time></trkpt><trkpt lat="42.2834246" lon="13.7885671"><ele>345.0</ele><time>2026-05-02T09:43:38.133Z</time></trkpt><trkpt lat="42.2834399" lon="13.7884514"><ele>345.0</ele><time>2026-05-02T09:43:39.134Z</time></trkpt><trkpt lat="42.2834555" lon="13.7883321"><ele>344.2</ele><time>2026-05-02T09:43:40.136Z</time></trkpt><trkpt lat="42.2834603" lon="13.788202"><ele>343.4</ele><time>2026-05-02T09:43:41.129Z</time></trkpt><trkpt lat="42.2834574" lon="13.7880714"><ele>342.6</ele><time>2026-05-02T09:43:42.126Z</time></trkpt><trkpt lat="42.2834392" lon="13.7879476"><ele>341.8</ele><time>2026-05-02T09:43:43.128Z</time></trkpt><trkpt lat="42.2834015" lon="13.7878159"><ele>341.0</ele><time>2026-05-02T09:43:44.135Z</time></trkpt><trkpt lat="42.2833562" lon="13.7876908"><ele>341.0</ele><time>2026-05-02T09:43:45.135Z</time></trkpt><trkpt lat="42.2832991" lon="13.7875766"><ele>341.0</ele><time>2026-05-02T09:43:46.138Z</time></trkpt><trkpt lat="42.2832337" lon="13.7874851"><ele>341.0</ele><time>2026-05-02T09:43:47.142Z</time></trkpt><trkpt lat="42.28317" lon="13.7874027"><ele>341.0</ele><time>2026-05-02T09:43:48.138Z</time></trkpt><trkpt lat="42.2831123" lon="13.7873276"><ele>341.0</ele><time>2026-05-02T09:43:49.14Z</time></trkpt><trkpt lat="42.2830706" lon="13.7872525"><ele>341.0</ele><time>2026-05-02T09:43:50.14Z</time></trkpt><trkpt lat="42.2830305" lon="13.787181"><ele>341.0</ele><time>2026-05-02T09:43:51.137Z</time></trkpt><trkpt lat="42.2829657" lon="13.7870645"><ele>341.0</ele><time>2026-05-02T09:43:53.138Z</time></trkpt><trkpt lat="42.2829282" lon="13.786973"><ele>341.0</ele><time>2026-05-02T09:43:54.134Z</time></trkpt><trkpt lat="42.2828814" lon="13.7868616"><ele>341.0</ele><time>2026-05-02T09:43:55.132Z</time></trkpt><trkpt lat="42.2828215" lon="13.7867364"><ele>341.0</ele><time>2026-05-02T09:43:56.144Z</time></trkpt><trkpt lat="42.2827673" lon="13.7866221"><ele>341.0</ele><time>2026-05-02T09:43:57.139Z</time></trkpt><trkpt lat="42.2827151" lon="13.7865034"><ele>341.0</ele><time>2026-05-02T09:43:58.136Z</time></trkpt><trkpt lat="42.2826674" lon="13.7863662"><ele>341.0</ele><time>2026-05-02T09:43:59.134Z</time></trkpt><trkpt lat="42.2826164" lon="13.7862164"><ele>341.0</ele><time>2026-05-02T09:44:00.136Z</time></trkpt><trkpt lat="42.2825689" lon="13.7860716"><ele>340.8</ele><time>2026-05-02T09:44:01.139Z</time></trkpt><trkpt lat="42.282521" lon="13.7859355"><ele>340.6</ele><time>2026-05-02T09:44:02.139Z</time></trkpt><trkpt lat="42.2824717" lon="13.7858088"><ele>340.4</ele><time>2026-05-02T09:44:03.139Z</time></trkpt><trkpt lat="42.2824213" lon="13.7856783"><ele>340.2</ele><time>2026-05-02T09:44:04.139Z</time></trkpt><trkpt lat="42.2823703" lon="13.7855331"><ele>340.0</ele><time>2026-05-02T09:44:05.133Z</time></trkpt><trkpt lat="42.2823252" lon="13.7853798"><ele>340.0</ele><time>2026-05-02T09:44:06.134Z</time></trkpt><trkpt lat="42.2822843" lon="13.7852145"><ele>340.0</ele><time>2026-05-02T09:44:07.136Z</time></trkpt><trkpt lat="42.2822395" lon="13.7850501"><ele>340.0</ele><time>2026-05-02T09:44:08.136Z</time></trkpt><trkpt lat="42.2821947" lon="13.7848884"><ele>340.0</ele><time>2026-05-02T09:44:09.137Z</time></trkpt><trkpt lat="42.2821545" lon="13.7847306"><ele>340.0</ele><time>2026-05-02T09:44:10.138Z</time></trkpt><trkpt lat="42.2821157" lon="13.7845603"><ele>340.0</ele><time>2026-05-02T09:44:11.133Z</time></trkpt><trkpt lat="42.2820753" lon="13.7843859"><ele>340.0</ele><time>2026-05-02T09:44:12.137Z</time></trkpt><trkpt lat="42.282036" lon="13.784206"><ele>340.0</ele><time>2026-05-02T09:44:13.14Z</time></trkpt><trkpt lat="42.282001" lon="13.784011"><ele>340.0</ele><time>2026-05-02T09:44:14.14Z</time></trkpt><trkpt lat="42.2819469" lon="13.7838295"><ele>340.0</ele><time>2026-05-02T09:44:15.139Z</time></trkpt><trkpt lat="42.2818959" lon="13.7836412"><ele>340.0</ele><time>2026-05-02T09:44:16.143Z</time></trkpt><trkpt lat="42.2818367" lon="13.7834448"><ele>339.75</ele><time>2026-05-02T09:44:17.144Z</time></trkpt><trkpt lat="42.2817821" lon="13.7832695"><ele>339.5</ele><time>2026-05-02T09:44:18.134Z</time></trkpt><trkpt lat="42.2817288" lon="13.7830812"><ele>339.25</ele><time>2026-05-02T09:44:19.141Z</time></trkpt><trkpt lat="42.2816714" lon="13.7828842"><ele>339.0</ele><time>2026-05-02T09:44:20.144Z</time></trkpt><trkpt lat="42.2816048" lon="13.7826918"><ele>339.75</ele><time>2026-05-02T09:44:21.141Z</time></trkpt><trkpt lat="42.2815339" lon="13.7825205"><ele>340.5</ele><time>2026-05-02T09:44:22.146Z</time></trkpt><trkpt lat="42.2814841" lon="13.7823651"><ele>341.25</ele><time>2026-05-02T09:44:23.15Z</time></trkpt><trkpt lat="42.2814119" lon="13.7821914"><ele>342.0</ele><time>2026-05-02T09:44:24.145Z</time></trkpt><trkpt lat="42.2813443" lon="13.7819982"><ele>342.0</ele><time>2026-05-02T09:44:25.145Z</time></trkpt><trkpt lat="42.2812778" lon="13.7817962"><ele>342.0</ele><time>2026-05-02T09:44:26.147Z</time></trkpt><trkpt lat="42.2812259" lon="13.7816234"><ele>342.0</ele><time>2026-05-02T09:44:27.143Z</time></trkpt><trkpt lat="42.2811784" lon="13.7814565"><ele>342.0</ele><time>2026-05-02T09:44:28.143Z</time></trkpt><trkpt lat="42.2811202" lon="13.7812787"><ele>342.0</ele><time>2026-05-02T09:44:29.15Z</time></trkpt><trkpt lat="42.2810638" lon="13.7811061"><ele>342.0</ele><time>2026-05-02T09:44:30.147Z</time></trkpt><trkpt lat="42.2810043" lon="13.7809276"><ele>342.0</ele><time>2026-05-02T09:44:31.147Z</time></trkpt><trkpt lat="42.2809587" lon="13.7807623"><ele>342.0</ele><time>2026-05-02T09:44:32.147Z</time></trkpt><trkpt lat="42.2809241" lon="13.7805939"><ele>341.75</ele><time>2026-05-02T09:44:33.142Z</time></trkpt><trkpt lat="42.2808923" lon="13.7804404"><ele>341.5</ele><time>2026-05-02T09:44:34.141Z</time></trkpt><trkpt lat="42.2808631" lon="13.7802781"><ele>341.25</ele><time>2026-05-02T09:44:35.141Z</time></trkpt><trkpt lat="42.2808382" lon="13.7801398"><ele>341.0</ele><time>2026-05-02T09:44:36.134Z</time></trkpt><trkpt lat="42.2808064" lon="13.7799922"><ele>341.75</ele><time>2026-05-02T09:44:37.142Z</time></trkpt><trkpt lat="42.2807558" lon="13.7798452"><ele>342.5</ele><time>2026-05-02T09:44:38.141Z</time></trkpt><trkpt lat="42.2807098" lon="13.7797127"><ele>343.25</ele><time>2026-05-02T09:44:39.141Z</time></trkpt><trkpt lat="42.2806379" lon="13.7795591"><ele>344.0</ele><time>2026-05-02T09:44:40.144Z</time></trkpt><trkpt lat="42.2805816" lon="13.7794131"><ele>344.5</ele><time>2026-05-02T09:44:41.144Z</time></trkpt><trkpt lat="42.2805271" lon="13.7792696"><ele>345.0</ele><time>2026-05-02T09:44:42.145Z</time></trkpt><trkpt lat="42.2804877" lon="13.7791322"><ele>345.5</ele><time>2026-05-02T09:44:43.142Z</time></trkpt><trkpt lat="42.2804459" lon="13.7789842"><ele>346.0</ele><time>2026-05-02T09:44:44.143Z</time></trkpt><trkpt lat="42.2804124" lon="13.7788299"><ele>346.0</ele><time>2026-05-02T09:44:45.142Z</time></trkpt><trkpt lat="42.2803833" lon="13.7786652"><ele>346.0</ele><time>2026-05-02T09:44:46.148Z</time></trkpt><trkpt lat="42.2803639" lon="13.7785047"><ele>346.0</ele><time>2026-05-02T09:44:47.15Z</time></trkpt><trkpt lat="42.2803459" lon="13.7783356"><ele>346.0</ele><time>2026-05-02T09:44:48.149Z</time></trkpt><trkpt lat="42.2803279" lon="13.7781456"><ele>346.0</ele><time>2026-05-02T09:44:49.135Z</time></trkpt><trkpt lat="42.2803066" lon="13.7779519"><ele>346.0</ele><time>2026-05-02T09:44:50.148Z</time></trkpt><trkpt lat="42.280267" lon="13.7777482"><ele>346.0</ele><time>2026-05-02T09:44:51.142Z</time></trkpt><trkpt lat="42.280239" lon="13.7775737"><ele>346.0</ele><time>2026-05-02T09:44:52.144Z</time></trkpt><trkpt lat="42.2802004" lon="13.7773917"><ele>346.0</ele><time>2026-05-02T09:44:53.148Z</time></trkpt><trkpt lat="42.2801928" lon="13.777239"><ele>346.0</ele><time>2026-05-02T09:44:54.144Z</time></trkpt><trkpt lat="42.280186" lon="13.7770915"><ele>346.0</ele><time>2026-05-02T09:44:55.143Z</time></trkpt><trkpt lat="42.2801435" lon="13.7769321"><ele>346.0</ele><time>2026-05-02T09:44:56.15Z</time></trkpt><trkpt lat="42.2801021" lon="13.7767701"><ele>346.0</ele><time>2026-05-02T09:44:57.143Z</time></trkpt><trkpt lat="42.2800682" lon="13.7765959"><ele>346.0</ele><time>2026-05-02T09:44:58.146Z</time></trkpt><trkpt lat="42.280033" lon="13.7764239"><ele>346.0</ele><time>2026-05-02T09:44:59.153Z</time></trkpt><trkpt lat="42.2800074" lon="13.7762521"><ele>346.0</ele><time>2026-05-02T09:45:00.144Z</time></trkpt><trkpt lat="42.2799904" lon="13.7760859"><ele>346.20000000000005</ele><time>2026-05-02T09:45:01.14Z</time></trkpt><trkpt lat="42.2799757" lon="13.7759339"><ele>346.40000000000003</ele><time>2026-05-02T09:45:02.133Z</time></trkpt><trkpt lat="42.2799705" lon="13.7757967"><ele>346.6</ele><time>2026-05-02T09:45:03.134Z</time></trkpt><trkpt lat="42.2799672" lon="13.7756717"><ele>346.8</ele><time>2026-05-02T09:45:04.13Z</time></trkpt><trkpt lat="42.2799742" lon="13.775559"><ele>347.0</ele><time>2026-05-02T09:45:05.141Z</time></trkpt><trkpt lat="42.2799868" lon="13.775472"><ele>347.0</ele><time>2026-05-02T09:45:06.129Z</time></trkpt><trkpt lat="42.2800124" lon="13.7753891"><ele>347.0</ele><time>2026-05-02T09:45:08.128Z</time></trkpt><trkpt lat="42.280102" lon="13.7753126"><ele>347.0</ele><time>2026-05-02T09:45:10.126Z</time></trkpt><trkpt lat="42.2801936" lon="13.775256"><ele>347.0</ele><time>2026-05-02T09:45:11.135Z</time></trkpt><trkpt lat="42.2803074" lon="13.7751895"><ele>347.0</ele><time>2026-05-02T09:45:12.129Z</time></trkpt><trkpt lat="42.2804358" lon="13.7751138"><ele>347.0</ele><time>2026-05-02T09:45:13.137Z</time></trkpt><trkpt lat="42.2805622" lon="13.7750384"><ele>347.0</ele><time>2026-05-02T09:45:14.131Z</time></trkpt><trkpt lat="42.2806826" lon="13.7749834"><ele>347.0</ele><time>2026-05-02T09:45:15.138Z</time></trkpt><trkpt lat="42.2807597" lon="13.7749311"><ele>347.0</ele><time>2026-05-02T09:45:16.123Z</time></trkpt><trkpt lat="42.2808388" lon="13.7748816"><ele>347.0</ele><time>2026-05-02T09:45:17.14Z</time></trkpt><trkpt lat="42.2809139" lon="13.7748252"><ele>347.0</ele><time>2026-05-02T09:45:18.137Z</time></trkpt><trkpt lat="42.2809959" lon="13.7747675"><ele>347.0</ele><time>2026-05-02T09:45:19.14Z</time></trkpt><trkpt lat="42.2810762" lon="13.7747274"><ele>347.0</ele><time>2026-05-02T09:45:20.135Z</time></trkpt><trkpt lat="42.2811597" lon="13.7746625"><ele>347.0</ele><time>2026-05-02T09:45:21.14Z</time></trkpt><trkpt lat="42.2812465" lon="13.7746061"><ele>347.0</ele><time>2026-05-02T09:45:22.128Z</time></trkpt><trkpt lat="42.2813204" lon="13.7745587"><ele>347.0</ele><time>2026-05-02T09:45:23.136Z</time></trkpt><trkpt lat="42.2813805" lon="13.7745203"><ele>347.0</ele><time>2026-05-02T09:45:24.127Z</time></trkpt><trkpt lat="42.2814671" lon="13.7744803"><ele>347.0</ele><time>2026-05-02T09:45:26.126Z</time></trkpt><trkpt lat="42.2815412" lon="13.7744358"><ele>347.0</ele><time>2026-05-02T09:45:41.142Z</time></trkpt><trkpt lat="42.2815535" lon="13.7743358"><ele>347.0</ele><time>2026-05-02T09:45:43.137Z</time></trkpt><trkpt lat="42.2814663" lon="13.7741768"><ele>347.8</ele><time>2026-05-02T09:45:45.136Z</time></trkpt><trkpt lat="42.2813924" lon="13.7740735"><ele>348.6</ele><time>2026-05-02T09:45:46.133Z</time></trkpt><trkpt lat="42.2813162" lon="13.7739683"><ele>349.40000000000003</ele><time>2026-05-02T09:45:47.134Z</time></trkpt><trkpt lat="42.2812478" lon="13.7738842"><ele>350.20000000000005</ele><time>2026-05-02T09:45:48.13Z</time></trkpt><trkpt lat="42.2811872" lon="13.7738241"><ele>351.0</ele><time>2026-05-02T09:45:49.131Z</time></trkpt><trkpt lat="42.2811336" lon="13.7737622"><ele>351.0</ele><time>2026-05-02T09:45:50.13Z</time></trkpt><trkpt lat="42.2810767" lon="13.7736804"><ele>351.0</ele><time>2026-05-02T09:45:51.129Z</time></trkpt><trkpt lat="42.2810121" lon="13.773582"><ele>351.0</ele><time>2026-05-02T09:45:52.131Z</time></trkpt><trkpt lat="42.2809369" lon="13.7734677"><ele>351.0</ele><time>2026-05-02T09:45:53.133Z</time></trkpt><trkpt lat="42.2808594" lon="13.7733563"><ele>351.0</ele><time>2026-05-02T09:45:54.133Z</time></trkpt><trkpt lat="42.2807983" lon="13.7732332"><ele>352.0</ele><time>2026-05-02T09:45:55.127Z</time></trkpt><trkpt lat="42.2807367" lon="13.7730995"><ele>353.0</ele><time>2026-05-02T09:45:56.137Z</time></trkpt><trkpt lat="42.2806723" lon="13.7729584"><ele>354.0</ele><time>2026-05-02T09:45:57.13Z</time></trkpt><trkpt lat="42.2806022" lon="13.7728181"><ele>355.0</ele><time>2026-05-02T09:45:58.136Z</time></trkpt><trkpt lat="42.2805247" lon="13.772679"><ele>355.0</ele><time>2026-05-02T09:45:59.134Z</time></trkpt><trkpt lat="42.2804589" lon="13.7725405"><ele>355.0</ele><time>2026-05-02T09:46:00.129Z</time></trkpt><trkpt lat="42.2804005" lon="13.7724124"><ele>355.0</ele><time>2026-05-02T09:46:01.133Z</time></trkpt><trkpt lat="42.2803426" lon="13.7722967"><ele>355.0</ele><time>2026-05-02T09:46:02.134Z</time></trkpt><trkpt lat="42.2802732" lon="13.7721906"><ele>355.0</ele><time>2026-05-02T09:46:03.129Z</time></trkpt><trkpt lat="42.280177" lon="13.7720978"><ele>355.0</ele><time>2026-05-02T09:46:04.128Z</time></trkpt><trkpt lat="42.2800545" lon="13.7720239"><ele>355.0</ele><time>2026-05-02T09:46:05.133Z</time></trkpt><trkpt lat="42.2799305" lon="13.7719428"><ele>355.0</ele><time>2026-05-02T09:46:06.13Z</time></trkpt><trkpt lat="42.2798191" lon="13.7718382"><ele>355.0</ele><time>2026-05-02T09:46:07.122Z</time></trkpt><trkpt lat="42.2797237" lon="13.7717197"><ele>355.5</ele><time>2026-05-02T09:46:08.128Z</time></trkpt><trkpt lat="42.279657" lon="13.7716077"><ele>356.0</ele><time>2026-05-02T09:46:09.132Z</time></trkpt><trkpt lat="42.2796244" lon="13.7714734"><ele>356.5</ele><time>2026-05-02T09:46:10.125Z</time></trkpt><trkpt lat="42.2795862" lon="13.7713181"><ele>357.0</ele><time>2026-05-02T09:46:11.134Z</time></trkpt><trkpt lat="42.2795317" lon="13.7711635"><ele>357.5</ele><time>2026-05-02T09:46:12.131Z</time></trkpt><trkpt lat="42.2794632" lon="13.7710106"><ele>358.0</ele><time>2026-05-02T09:46:13.131Z</time></trkpt><trkpt lat="42.2793967" lon="13.770838"><ele>358.5</ele><time>2026-05-02T09:46:14.132Z</time></trkpt><trkpt lat="42.2793345" lon="13.7706649"><ele>359.0</ele><time>2026-05-02T09:46:15.132Z</time></trkpt><trkpt lat="42.2792739" lon="13.770498"><ele>359.0</ele><time>2026-05-02T09:46:16.134Z</time></trkpt><trkpt lat="42.2792092" lon="13.7703476"><ele>359.0</ele><time>2026-05-02T09:46:17.138Z</time></trkpt><trkpt lat="42.2791592" lon="13.7701972"><ele>359.0</ele><time>2026-05-02T09:46:18.137Z</time></trkpt><trkpt lat="42.2791006" lon="13.7700477"><ele>359.0</ele><time>2026-05-02T09:46:19.141Z</time></trkpt><trkpt lat="42.2790611" lon="13.7699122"><ele>359.1666666666667</ele><time>2026-05-02T09:46:20.135Z</time></trkpt><trkpt lat="42.2790263" lon="13.7697828"><ele>359.33333333333337</ele><time>2026-05-02T09:46:21.131Z</time></trkpt><trkpt lat="42.27899" lon="13.7696709"><ele>359.5</ele><time>2026-05-02T09:46:22.134Z</time></trkpt><trkpt lat="42.2789441" lon="13.7695554"><ele>359.6666666666667</ele><time>2026-05-02T09:46:23.138Z</time></trkpt><trkpt lat="42.2789035" lon="13.7694553"><ele>359.8333333333333</ele><time>2026-05-02T09:46:24.136Z</time></trkpt><trkpt lat="42.2788772" lon="13.7693745"><ele>360.0</ele><time>2026-05-02T09:46:25.131Z</time></trkpt><trkpt lat="42.2789077" lon="13.7692351"><ele>360.75</ele><time>2026-05-02T09:46:27.139Z</time></trkpt><trkpt lat="42.278973" lon="13.7691626"><ele>361.5</ele><time>2026-05-02T09:46:28.133Z</time></trkpt><trkpt lat="42.279078" lon="13.769085"><ele>362.25</ele><time>2026-05-02T09:46:29.136Z</time></trkpt><trkpt lat="42.2792131" lon="13.7690008"><ele>363.0</ele><time>2026-05-02T09:46:30.13Z</time></trkpt><trkpt lat="42.2793624" lon="13.7689082"><ele>363.0</ele><time>2026-05-02T09:46:31.128Z</time></trkpt><trkpt lat="42.2795167" lon="13.7688574"><ele>363.0</ele><time>2026-05-02T09:46:32.136Z</time></trkpt><trkpt lat="42.2796512" lon="13.7687596"><ele>363.0</ele><time>2026-05-02T09:46:33.137Z</time></trkpt><trkpt lat="42.2797744" lon="13.7686503"><ele>363.25</ele><time>2026-05-02T09:46:34.134Z</time></trkpt><trkpt lat="42.2798914" lon="13.7685564"><ele>363.5</ele><time>2026-05-02T09:46:35.135Z</time></trkpt><trkpt lat="42.279994" lon="13.7684774"><ele>363.75</ele><time>2026-05-02T09:46:36.132Z</time></trkpt><trkpt lat="42.280112" lon="13.7683699"><ele>364.0</ele><time>2026-05-02T09:46:37.125Z</time></trkpt><trkpt lat="42.2802134" lon="13.7682202"><ele>365.0</ele><time>2026-05-02T09:46:38.134Z</time></trkpt><trkpt lat="42.2803233" lon="13.7680642"><ele>366.0</ele><time>2026-05-02T09:46:39.136Z</time></trkpt><trkpt lat="42.2804158" lon="13.7679285"><ele>367.0</ele><time>2026-05-02T09:46:40.138Z</time></trkpt><trkpt lat="42.2805362" lon="13.7677788"><ele>368.3333333333333</ele><time>2026-05-02T09:46:41.133Z</time></trkpt><trkpt lat="42.2806688" lon="13.7676335"><ele>369.6666666666667</ele><time>2026-05-02T09:46:42.13Z</time></trkpt><trkpt lat="42.2808008" lon="13.7675003"><ele>371.0</ele><time>2026-05-02T09:46:43.138Z</time></trkpt><trkpt lat="42.2809399" lon="13.7673682"><ele>371.0</ele><time>2026-05-02T09:46:44.134Z</time></trkpt><trkpt lat="42.281078" lon="13.7672293"><ele>371.0</ele><time>2026-05-02T09:46:45.133Z</time></trkpt><trkpt lat="42.2812033" lon="13.7671271"><ele>371.0</ele><time>2026-05-02T09:46:46.134Z</time></trkpt><trkpt lat="42.2813222" lon="13.7670131"><ele>372.33333333333337</ele><time>2026-05-02T09:46:47.139Z</time></trkpt><trkpt lat="42.2814389" lon="13.7669107"><ele>373.6666666666667</ele><time>2026-05-02T09:46:48.135Z</time></trkpt><trkpt lat="42.2815692" lon="13.7667938"><ele>375.0</ele><time>2026-05-02T09:46:49.139Z</time></trkpt><trkpt lat="42.2816974" lon="13.7666763"><ele>375.3333333333333</ele><time>2026-05-02T09:46:50.14Z</time></trkpt><trkpt lat="42.2818141" lon="13.7665363"><ele>375.66666666666663</ele><time>2026-05-02T09:46:51.132Z</time></trkpt><trkpt lat="42.2819268" lon="13.7663751"><ele>376.0</ele><time>2026-05-02T09:46:52.138Z</time></trkpt><trkpt lat="42.2820414" lon="13.7661997"><ele>377.3333333333333</ele><time>2026-05-02T09:46:53.141Z</time></trkpt><trkpt lat="42.2821519" lon="13.7660281"><ele>378.6666666666667</ele><time>2026-05-02T09:46:54.134Z</time></trkpt><trkpt lat="42.2822738" lon="13.7658544"><ele>380.0</ele><time>2026-05-02T09:46:55.13Z</time></trkpt><trkpt lat="42.2823922" lon="13.7656852"><ele>380.0</ele><time>2026-05-02T09:46:56.145Z</time></trkpt><trkpt lat="42.28251" lon="13.7654937"><ele>380.0</ele><time>2026-05-02T09:46:57.132Z</time></trkpt><trkpt lat="42.2826241" lon="13.7653134"><ele>380.0</ele><time>2026-05-02T09:46:58.148Z</time></trkpt><trkpt lat="42.2827333" lon="13.7651445"><ele>381.33333333333337</ele><time>2026-05-02T09:46:59.128Z</time></trkpt><trkpt lat="42.2828369" lon="13.7649886"><ele>382.6666666666667</ele><time>2026-05-02T09:47:00.129Z</time></trkpt><trkpt lat="42.2829448" lon="13.7648277"><ele>384.0</ele><time>2026-05-02T09:47:01.128Z</time></trkpt><trkpt lat="42.2830465" lon="13.7646664"><ele>384.25</ele><time>2026-05-02T09:47:02.129Z</time></trkpt><trkpt lat="42.2831351" lon="13.7645113"><ele>384.5</ele><time>2026-05-02T09:47:03.133Z</time></trkpt><trkpt lat="42.2832386" lon="13.7643806"><ele>384.75</ele><time>2026-05-02T09:47:04.13Z</time></trkpt><trkpt lat="42.2833229" lon="13.7642395"><ele>385.0</ele><time>2026-05-02T09:47:05.13Z</time></trkpt><trkpt lat="42.2833954" lon="13.7641343"><ele>385.4</ele><time>2026-05-02T09:47:06.136Z</time></trkpt><trkpt lat="42.2834601" lon="13.7640257"><ele>385.8</ele><time>2026-05-02T09:47:07.136Z</time></trkpt><trkpt lat="42.2835186" lon="13.7639434"><ele>386.20000000000005</ele><time>2026-05-02T09:47:08.131Z</time></trkpt><trkpt lat="42.283573" lon="13.7638495"><ele>386.6</ele><time>2026-05-02T09:47:10.123Z</time></trkpt><trkpt lat="42.2835889" lon="13.7637366"><ele>387.0</ele><time>2026-05-02T09:47:14.141Z</time></trkpt><trkpt lat="42.2834954" lon="13.7637074"><ele>387.0</ele><time>2026-05-02T09:47:16.139Z</time></trkpt><trkpt lat="42.2834131" lon="13.7637068"><ele>387.0</ele><time>2026-05-02T09:47:17.14Z</time></trkpt><trkpt lat="42.2833087" lon="13.7636964"><ele>387.0</ele><time>2026-05-02T09:47:18.137Z</time></trkpt><trkpt lat="42.2831952" lon="13.763677"><ele>387.0</ele><time>2026-05-02T09:47:19.14Z</time></trkpt><trkpt lat="42.2830775" lon="13.7636697"><ele>387.0</ele><time>2026-05-02T09:47:20.139Z</time></trkpt><trkpt lat="42.2829691" lon="13.7636651"><ele>387.6666666666667</ele><time>2026-05-02T09:47:21.135Z</time></trkpt><trkpt lat="42.2828774" lon="13.7636797"><ele>388.33333333333337</ele><time>2026-05-02T09:47:22.128Z</time></trkpt><trkpt lat="42.2828048" lon="13.7637021"><ele>389.0</ele><time>2026-05-02T09:47:23.132Z</time></trkpt><trkpt lat="42.2827116" lon="13.7637323"><ele>389.6666666666667</ele><time>2026-05-02T09:47:25.13Z</time></trkpt><trkpt lat="42.2826207" lon="13.7636944"><ele>390.33333333333337</ele><time>2026-05-02T09:47:27.136Z</time></trkpt><trkpt lat="42.2825515" lon="13.7636472"><ele>391.0</ele><time>2026-05-02T09:52:44.14Z</time></trkpt><trkpt lat="42.2824831" lon="13.7636156"><ele>391.00000000000006</ele><time>2026-05-02T09:52:58.138Z</time></trkpt><trkpt lat="42.2824083" lon="13.7635793"><ele>391.0</ele><time>2026-05-02T09:53:01.139Z</time></trkpt><trkpt lat="42.2823466" lon="13.763546"><ele>391.0</ele><time>2026-05-02T09:53:03.134Z</time></trkpt><trkpt lat="42.2822594" lon="13.7634891"><ele>391.0</ele><time>2026-05-02T09:53:06.139Z</time></trkpt><trkpt lat="42.2821941" lon="13.7634812"><ele>391.00000000000006</ele><time>2026-05-02T09:53:08.139Z</time></trkpt><trkpt lat="42.2821194" lon="13.7635257"><ele>391.0</ele><time>2026-05-02T09:53:15.137Z</time></trkpt><trkpt lat="42.2820095" lon="13.7635224"><ele>393.33333333333337</ele><time>2026-05-02T09:53:18.133Z</time></trkpt><trkpt lat="42.2819241" lon="13.7635102"><ele>395.6666666666667</ele><time>2026-05-02T09:53:20.137Z</time></trkpt><trkpt lat="42.2818405" lon="13.763507"><ele>398.0</ele><time>2026-05-02T09:53:22.14Z</time></trkpt><trkpt lat="42.2817644" lon="13.7635028"><ele>400.33333333333337</ele><time>2026-05-02T09:53:24.159Z</time></trkpt><trkpt lat="42.2816562" lon="13.7635125"><ele>402.6666666666667</ele><time>2026-05-02T09:53:26.14Z</time></trkpt><trkpt lat="42.2815913" lon="13.7635231"><ele>405.0</ele><time>2026-05-02T09:53:27.137Z</time></trkpt><trkpt lat="42.2815168" lon="13.7635418"><ele>404.99999999999994</ele><time>2026-05-02T09:53:28.142Z</time></trkpt><trkpt lat="42.281445" lon="13.7635651"><ele>405.0</ele><time>2026-05-02T09:53:29.144Z</time></trkpt><trkpt lat="42.2813767" lon="13.7635818"><ele>405.0</ele><time>2026-05-02T09:53:30.142Z</time></trkpt><trkpt lat="42.2813021" lon="13.7635993"><ele>405.0</ele><time>2026-05-02T09:53:31.137Z</time></trkpt><trkpt lat="42.2812325" lon="13.7636088"><ele>405.0</ele><time>2026-05-02T09:53:32.141Z</time></trkpt><trkpt lat="42.2811606" lon="13.7636176"><ele>404.99999999999994</ele><time>2026-05-02T09:53:33.136Z</time></trkpt><trkpt lat="42.2810897" lon="13.7636185"><ele>405.0</ele><time>2026-05-02T09:53:34.136Z</time></trkpt><trkpt lat="42.2809997" lon="13.7635847"><ele>407.4</ele><time>2026-05-02T09:53:36.153Z</time></trkpt><trkpt lat="42.2809217" lon="13.7635437"><ele>409.8</ele><time>2026-05-02T09:57:36.158Z</time></trkpt><trkpt lat="42.2808505" lon="13.7635223"><ele>412.20000000000005</ele><time>2026-05-02T09:57:38.156Z</time></trkpt><trkpt lat="42.2807665" lon="13.7634856"><ele>414.6</ele><time>2026-05-02T09:57:40.155Z</time></trkpt><trkpt lat="42.2806468" lon="13.7634428"><ele>417.0</ele><time>2026-05-02T09:57:42.154Z</time></trkpt><trkpt lat="42.2805413" lon="13.7633983"><ele>422.40000000000003</ele><time>2026-05-02T09:57:44.158Z</time></trkpt><trkpt lat="42.2804523" lon="13.7633809"><ele>427.8</ele><time>2026-05-02T09:57:46.157Z</time></trkpt><trkpt lat="42.2803306" lon="13.7633624"><ele>433.2</ele><time>2026-05-02T09:57:48.157Z</time></trkpt><trkpt lat="42.2802662" lon="13.7633482"><ele>438.6</ele><time>2026-05-02T09:57:49.155Z</time></trkpt><trkpt lat="42.2801697" lon="13.7632766"><ele>444.0</ele><time>2026-05-02T09:57:51.149Z</time></trkpt><trkpt lat="42.2801232" lon="13.7632106"><ele>444.0</ele><time>2026-05-02T09:57:52.152Z</time></trkpt><trkpt lat="42.2800643" lon="13.7631361"><ele>444.0</ele><time>2026-05-02T09:57:53.149Z</time></trkpt><trkpt lat="42.2799998" lon="13.7630723"><ele>444.0</ele><time>2026-05-02T09:57:54.151Z</time></trkpt><trkpt lat="42.2799331" lon="13.7629973"><ele>444.0</ele><time>2026-05-02T09:57:55.154Z</time></trkpt><trkpt lat="42.2798625" lon="13.7629048"><ele>444.0</ele><time>2026-05-02T09:57:56.156Z</time></trkpt><trkpt lat="42.2797846" lon="13.7628076"><ele>445.5</ele><time>2026-05-02T09:57:57.153Z</time></trkpt><trkpt lat="42.279713" lon="13.7627218"><ele>447.0</ele><time>2026-05-02T09:57:58.156Z</time></trkpt><trkpt lat="42.2796516" lon="13.7626603"><ele>448.5</ele><time>2026-05-02T09:57:59.155Z</time></trkpt><trkpt lat="42.2795924" lon="13.7626088"><ele>450.0</ele><time>2026-05-02T09:58:00.158Z</time></trkpt><trkpt lat="42.2795279" lon="13.7625697"><ele>451.5</ele><time>2026-05-02T09:58:01.154Z</time></trkpt><trkpt lat="42.279452" lon="13.7625322"><ele>453.0</ele><time>2026-05-02T09:58:02.152Z</time></trkpt><trkpt lat="42.2793763" lon="13.7625074"><ele>456.5</ele><time>2026-05-02T09:58:03.145Z</time></trkpt><trkpt lat="42.2793132" lon="13.7624919"><ele>460.0</ele><time>2026-05-02T09:58:04.152Z</time></trkpt><trkpt lat="42.2809217" lon="13.7635437"><ele>456.8</ele><time>2026-05-02T09:57:36.158Z</time></trkpt><trkpt lat="42.2808505" lon="13.7635223"><ele>453.6</ele><time>2026-05-02T09:57:38.156Z</time></trkpt><trkpt lat="42.2807665" lon="13.7634856"><ele>450.4</ele><time>2026-05-02T09:57:40.155Z</time></trkpt><trkpt lat="42.2806468" lon="13.7634428"><ele>447.2</ele><time>2026-05-02T09:57:42.154Z</time></trkpt><trkpt lat="42.2805413" lon="13.7633983"><ele>444.0</ele><time>2026-05-02T09:57:44.158Z</time></trkpt><trkpt lat="42.2804523" lon="13.7633809"><ele>444.0</ele><time>2026-05-02T09:57:46.157Z</time></trkpt><trkpt lat="42.2803306" lon="13.7633624"><ele>444.0</ele><time>2026-05-02T09:57:48.157Z</time></trkpt><trkpt lat="42.2802662" lon="13.7633482"><ele>444.0</ele><time>2026-05-02T09:57:49.155Z</time></trkpt><trkpt lat="42.2801697" lon="13.7632766"><ele>444.0</ele><time>2026-05-02T09:57:51.149Z</time></trkpt><trkpt lat="42.2801232" lon="13.7632106"><ele>444.0</ele><time>2026-05-02T09:57:52.152Z</time></trkpt><trkpt lat="42.2800643" lon="13.7631361"><ele>444.0</ele><time>2026-05-02T09:57:53.149Z</time></trkpt><trkpt lat="42.2799998" lon="13.7630723"><ele>444.0</ele><time>2026-05-02T09:57:54.151Z</time></trkpt><trkpt lat="42.2799331" lon="13.7629973"><ele>444.0</ele><time>2026-05-02T09:57:55.154Z</time></trkpt><trkpt lat="42.2798625" lon="13.7629048"><ele>444.0</ele><time>2026-05-02T09:57:56.156Z</time></trkpt><trkpt lat="42.2797846" lon="13.7628076"><ele>444.0</ele><time>2026-05-02T09:57:57.153Z</time></trkpt><trkpt lat="42.279713" lon="13.7627218"><ele>444.0</ele><time>2026-05-02T09:57:58.156Z</time></trkpt><trkpt lat="42.2796516" lon="13.7626603"><ele>446.6666666666667</ele><time>2026-05-02T09:57:59.155Z</time></trkpt><trkpt lat="42.2795924" lon="13.7626088"><ele>449.33333333333337</ele><time>2026-05-02T09:58:00.158Z</time></trkpt><trkpt lat="42.2795279" lon="13.7625697"><ele>452.0</ele><time>2026-05-02T09:58:01.154Z</time></trkpt><trkpt lat="42.279452" lon="13.7625322"><ele>454.6666666666667</ele><time>2026-05-02T09:58:02.152Z</time></trkpt><trkpt lat="42.2793763" lon="13.7625074"><ele>457.33333333333337</ele><time>2026-05-02T09:58:03.145Z</time></trkpt><trkpt lat="42.2793132" lon="13.7624919"><ele>460.0</ele><time>2026-05-02T09:58:04.152Z</time></trkpt><trkpt lat="42.2792049" lon="13.762461"><ele>460.00000000000006</ele><time>2026-05-02T09:58:06.152Z</time></trkpt><trkpt lat="42.2791342" lon="13.7624476"><ele>460.0</ele><time>2026-05-02T09:58:08.15Z</time></trkpt><trkpt lat="42.2790512" lon="13.7624135"><ele>460.0</ele><time>2026-05-02T09:59:21.169Z</time></trkpt><trkpt lat="42.2789482" lon="13.7623412"><ele>460.0</ele><time>2026-05-02T09:59:23.169Z</time></trkpt><trkpt lat="42.2788878" lon="13.7623063"><ele>460.00000000000006</ele><time>2026-05-02T09:59:24.167Z</time></trkpt><trkpt lat="42.2788195" lon="13.7622816"><ele>460.0</ele><time>2026-05-02T09:59:25.165Z</time></trkpt><trkpt lat="42.2787456" lon="13.7622572"><ele>461.8</ele><time>2026-05-02T09:59:26.167Z</time></trkpt><trkpt lat="42.278665" lon="13.7622249"><ele>463.6</ele><time>2026-05-02T09:59:27.162Z</time></trkpt><trkpt lat="42.2785803" lon="13.7621868"><ele>465.4</ele><time>2026-05-02T09:59:28.172Z</time></trkpt><trkpt lat="42.2784832" lon="13.7621367"><ele>467.2</ele><time>2026-05-02T09:59:29.168Z</time></trkpt><trkpt lat="42.2783913" lon="13.7620779"><ele>469.0</ele><time>2026-05-02T09:59:30.157Z</time></trkpt><trkpt lat="42.2783167" lon="13.7620072"><ele>469.00000000000006</ele><time>2026-05-02T09:59:31.167Z</time></trkpt><trkpt lat="42.27826" lon="13.7619212"><ele>469.0</ele><time>2026-05-02T09:59:32.163Z</time></trkpt><trkpt lat="42.2782001" lon="13.7618416"><ele>469.0</ele><time>2026-05-02T09:59:33.164Z</time></trkpt><trkpt lat="42.2781341" lon="13.7617781"><ele>469.0</ele><time>2026-05-02T09:59:34.161Z</time></trkpt><trkpt lat="42.2780555" lon="13.7617362"><ele>469.00000000000006</ele><time>2026-05-02T09:59:35.162Z</time></trkpt><trkpt lat="42.2779543" lon="13.761702"><ele>469.0</ele><time>2026-05-02T09:59:36.166Z</time></trkpt><trkpt lat="42.2778365" lon="13.7616787"><ele>470.6</ele><time>2026-05-02T09:59:37.166Z</time></trkpt><trkpt lat="42.2777209" lon="13.7616607"><ele>472.2</ele><time>2026-05-02T09:59:38.158Z</time></trkpt><trkpt lat="42.2776266" lon="13.7616598"><ele>473.80000000000007</ele><time>2026-05-02T09:59:39.167Z</time></trkpt><trkpt lat="42.2775303" lon="13.7616859"><ele>475.40000000000003</ele><time>2026-05-02T09:59:40.18Z</time></trkpt><trkpt lat="42.2774289" lon="13.7617231"><ele>477.0</ele><time>2026-05-02T09:59:41.179Z</time></trkpt><trkpt lat="42.2773147" lon="13.761756"><ele>479.25</ele><time>2026-05-02T09:59:42.168Z</time></trkpt><trkpt lat="42.2772019" lon="13.7617685"><ele>481.5</ele><time>2026-05-02T09:59:43.166Z</time></trkpt><trkpt lat="42.2770889" lon="13.7617571"><ele>483.75</ele><time>2026-05-02T09:59:44.169Z</time></trkpt><trkpt lat="42.2769712" lon="13.7617364"><ele>486.0</ele><time>2026-05-02T09:59:45.168Z</time></trkpt><trkpt lat="42.2768537" lon="13.7617353"><ele>486.0</ele><time>2026-05-02T09:59:46.167Z</time></trkpt><trkpt lat="42.2767474" lon="13.7617408"><ele>486.0</ele><time>2026-05-02T09:59:47.168Z</time></trkpt><trkpt lat="42.2766635" lon="13.7617459"><ele>486.0</ele><time>2026-05-02T09:59:48.167Z</time></trkpt><trkpt lat="42.2765931" lon="13.7617346"><ele>486.0</ele><time>2026-05-02T09:59:49.163Z</time></trkpt><trkpt lat="42.2765293" lon="13.7617039"><ele>486.0</ele><time>2026-05-02T09:59:50.169Z</time></trkpt><trkpt lat="42.2764711" lon="13.7616576"><ele>486.0</ele><time>2026-05-02T09:59:51.172Z</time></trkpt><trkpt lat="42.2764068" lon="13.7616047"><ele>488.6</ele><time>2026-05-02T09:59:52.164Z</time></trkpt><trkpt lat="42.2763418" lon="13.7615592"><ele>491.20000000000005</ele><time>2026-05-02T09:59:53.172Z</time></trkpt><trkpt lat="42.2762593" lon="13.7615117"><ele>493.79999999999995</ele><time>2026-05-02T09:59:54.17Z</time></trkpt><trkpt lat="42.276158" lon="13.761469"><ele>496.4</ele><time>2026-05-02T09:59:55.166Z</time></trkpt><trkpt lat="42.2760468" lon="13.7614094"><ele>499.0</ele><time>2026-05-02T09:59:56.168Z</time></trkpt><trkpt lat="42.2759363" lon="13.7613326"><ele>499.0</ele><time>2026-05-02T09:59:57.152Z</time></trkpt><trkpt lat="42.2758327" lon="13.7612514"><ele>499.0</ele><time>2026-05-02T09:59:58.169Z</time></trkpt><trkpt lat="42.2757373" lon="13.7611714"><ele>499.0</ele><time>2026-05-02T09:59:59.16Z</time></trkpt><trkpt lat="42.2756416" lon="13.7610939"><ele>499.0</ele><time>2026-05-02T10:00:00.165Z</time></trkpt><trkpt lat="42.2755363" lon="13.7610212"><ele>500.0</ele><time>2026-05-02T10:00:01.174Z</time></trkpt><trkpt lat="42.2754292" lon="13.7609489"><ele>501.0</ele><time>2026-05-02T10:00:02.164Z</time></trkpt><trkpt lat="42.275317" lon="13.7608739"><ele>502.0</ele><time>2026-05-02T10:00:03.166Z</time></trkpt><trkpt lat="42.2751973" lon="13.760795"><ele>503.0</ele><time>2026-05-02T10:00:04.164Z</time></trkpt><trkpt lat="42.2750722" lon="13.7607125"><ele>503.0</ele><time>2026-05-02T10:00:05.162Z</time></trkpt><trkpt lat="42.2749602" lon="13.7606438"><ele>502.99999999999994</ele><time>2026-05-02T10:00:06.156Z</time></trkpt><trkpt lat="42.2748755" lon="13.760586"><ele>502.99999999999994</ele><time>2026-05-02T10:00:07.151Z</time></trkpt><trkpt lat="42.274803" lon="13.7605427"><ele>503.0</ele><time>2026-05-02T10:00:08.157Z</time></trkpt><trkpt lat="42.2747431" lon="13.7604685"><ele>503.0</ele><time>2026-05-02T10:00:10.153Z</time></trkpt><trkpt lat="42.2748009" lon="13.7603894"><ele>503.0</ele><time>2026-05-02T10:00:13.158Z</time></trkpt><trkpt lat="42.2748788" lon="13.7602589"><ele>503.0</ele><time>2026-05-02T10:00:15.154Z</time></trkpt><trkpt lat="42.2749586" lon="13.7601656"><ele>503.0</ele><time>2026-05-02T10:00:16.155Z</time></trkpt><trkpt lat="42.2750515" lon="13.7600348"><ele>503.0</ele><time>2026-05-02T10:00:17.17Z</time></trkpt><trkpt lat="42.275147" lon="13.7598895"><ele>503.0</ele><time>2026-05-02T10:00:18.162Z</time></trkpt><trkpt lat="42.2752459" lon="13.759741"><ele>503.0</ele><time>2026-05-02T10:00:19.176Z</time></trkpt><trkpt lat="42.2753277" lon="13.7595905"><ele>503.0</ele><time>2026-05-02T10:00:20.16Z</time></trkpt><trkpt lat="42.2754087" lon="13.759459"><ele>503.0</ele><time>2026-05-02T10:00:21.161Z</time></trkpt><trkpt lat="42.2754907" lon="13.7593273"><ele>503.75</ele><time>2026-05-02T10:00:22.17Z</time></trkpt><trkpt lat="42.2755741" lon="13.7591938"><ele>504.5</ele><time>2026-05-02T10:00:23.173Z</time></trkpt><trkpt lat="42.2756551" lon="13.7590828"><ele>505.25</ele><time>2026-05-02T10:00:24.167Z</time></trkpt><trkpt lat="42.2757311" lon="13.758971"><ele>506.0</ele><time>2026-05-02T10:00:25.17Z</time></trkpt><trkpt lat="42.275808" lon="13.7588596"><ele>503.49999999999994</ele><time>2026-05-02T10:00:26.16Z</time></trkpt><trkpt lat="42.275878" lon="13.7587804"><ele>501.0</ele><time>2026-05-02T10:00:27.153Z</time></trkpt><trkpt lat="42.2759373" lon="13.7587219"><ele>498.5</ele><time>2026-05-02T10:00:28.15Z</time></trkpt><trkpt lat="42.2759644" lon="13.7586361"><ele>496.0</ele><time>2026-05-02T10:00:31.164Z</time></trkpt><trkpt lat="42.2759032" lon="13.7585992"><ele>493.49999999999994</ele><time>2026-05-02T10:00:33.172Z</time></trkpt><trkpt lat="42.2758093" lon="13.7586024"><ele>491.0</ele><time>2026-05-02T10:00:35.167Z</time></trkpt><trkpt lat="42.2757357" lon="13.7586135"><ele>491.0</ele><time>2026-05-02T10:00:36.171Z</time></trkpt><trkpt lat="42.2756661" lon="13.7586264"><ele>491.0</ele><time>2026-05-02T10:00:37.17Z</time></trkpt><trkpt lat="42.2755677" lon="13.7586433"><ele>491.0</ele><time>2026-05-02T10:00:39.167Z</time></trkpt><trkpt lat="42.2754785" lon="13.7586642"><ele>491.0</ele><time>2026-05-02T10:00:41.167Z</time></trkpt><trkpt lat="42.2753865" lon="13.7587023"><ele>491.0</ele><time>2026-05-02T10:00:43.171Z</time></trkpt><trkpt lat="42.2752627" lon="13.7587291"><ele>494.0</ele><time>2026-05-02T10:00:45.172Z</time></trkpt><trkpt lat="42.2751872" lon="13.7587485"><ele>497.0</ele><time>2026-05-02T10:00:46.171Z</time></trkpt><trkpt lat="42.275098" lon="13.758771"><ele>500.0</ele><time>2026-05-02T10:00:47.174Z</time></trkpt><trkpt lat="42.2749952" lon="13.7587876"><ele>503.0</ele><time>2026-05-02T10:00:48.172Z</time></trkpt><trkpt lat="42.2748885" lon="13.7588103"><ele>506.0</ele><time>2026-05-02T10:00:49.174Z</time></trkpt><trkpt lat="42.2747833" lon="13.758826"><ele>507.49999999999994</ele><time>2026-05-02T10:00:50.173Z</time></trkpt><trkpt lat="42.2746863" lon="13.758838"><ele>509.0</ele><time>2026-05-02T10:00:51.166Z</time></trkpt><trkpt lat="42.2746026" lon="13.7588563"><ele>510.5</ele><time>2026-05-02T10:00:52.17Z</time></trkpt><trkpt lat="42.274514" lon="13.7588785"><ele>512.0</ele><time>2026-05-02T10:00:53.172Z</time></trkpt><trkpt lat="42.2744325" lon="13.7589004"><ele>513.5</ele><time>2026-05-02T10:00:54.166Z</time></trkpt><trkpt lat="42.274368" lon="13.7589206"><ele>515.0</ele><time>2026-05-02T10:00:55.17Z</time></trkpt><trkpt lat="42.2742648" lon="13.7589276"><ele>515.0</ele><time>2026-05-02T10:00:57.175Z</time></trkpt><trkpt lat="42.2741511" lon="13.7589561"><ele>515.0</ele><time>2026-05-02T10:00:59.167Z</time></trkpt><trkpt lat="42.2740816" lon="13.7589974"><ele>515.0</ele><time>2026-05-02T10:01:00.171Z</time></trkpt><trkpt lat="42.2740132" lon="13.7590471"><ele>515.0</ele><time>2026-05-02T10:01:01.169Z</time></trkpt><trkpt lat="42.2739314" lon="13.7591387"><ele>515.0</ele><time>2026-05-02T10:01:03.162Z</time></trkpt><trkpt lat="42.2739001" lon="13.7592246"><ele>515.0</ele><time>2026-05-02T10:01:19.16Z</time></trkpt><trkpt lat="42.2738874" lon="13.7593275"><ele>516.8</ele><time>2026-05-02T10:01:21.166Z</time></trkpt><trkpt lat="42.2738576" lon="13.75944"><ele>518.6</ele><time>2026-05-02T10:01:23.173Z</time></trkpt><trkpt lat="42.2738171" lon="13.7595818"><ele>520.4</ele><time>2026-05-02T10:01:25.175Z</time></trkpt><trkpt lat="42.2737639" lon="13.7596962"><ele>522.2</ele><time>2026-05-02T10:01:27.169Z</time></trkpt><trkpt lat="42.2736824" lon="13.7597407"><ele>524.0</ele><time>2026-05-02T10:01:29.165Z</time></trkpt><trkpt lat="42.2735891" lon="13.7597378"><ele>524.0</ele><time>2026-05-02T10:01:31.177Z</time></trkpt><trkpt lat="42.2735209" lon="13.7597226"><ele>524.0</ele><time>2026-05-02T10:01:32.166Z</time></trkpt><trkpt lat="42.2734296" lon="13.7596967"><ele>524.0</ele><time>2026-05-02T10:01:33.169Z</time></trkpt><trkpt lat="42.2733208" lon="13.759689"><ele>524.0</ele><time>2026-05-02T10:01:34.168Z</time></trkpt><trkpt lat="42.2732022" lon="13.7596958"><ele>524.0</ele><time>2026-05-02T10:01:35.163Z</time></trkpt><trkpt lat="42.273081" lon="13.7597196"><ele>524.75</ele><time>2026-05-02T10:01:36.172Z</time></trkpt><trkpt lat="42.2729722" lon="13.7597497"><ele>525.5</ele><time>2026-05-02T10:01:37.173Z</time></trkpt><trkpt lat="42.2728589" lon="13.7597506"><ele>526.25</ele><time>2026-05-02T10:01:38.171Z</time></trkpt><trkpt lat="42.2727441" lon="13.7597135"><ele>527.0</ele><time>2026-05-02T10:01:39.166Z</time></trkpt><trkpt lat="42.2726294" lon="13.7596706"><ele>527.0</ele><time>2026-05-02T10:01:40.173Z</time></trkpt><trkpt lat="42.272512" lon="13.759619"><ele>527.0</ele><time>2026-05-02T10:01:41.178Z</time></trkpt><trkpt lat="42.2723914" lon="13.7595637"><ele>527.0</ele><time>2026-05-02T10:01:42.175Z</time></trkpt><trkpt lat="42.2722641" lon="13.7595012"><ele>527.0</ele><time>2026-05-02T10:01:43.18Z</time></trkpt><trkpt lat="42.2721362" lon="13.7594323"><ele>528.2</ele><time>2026-05-02T10:01:44.178Z</time></trkpt><trkpt lat="42.2720249" lon="13.7593573"><ele>529.4000000000001</ele><time>2026-05-02T10:01:45.171Z</time></trkpt><trkpt lat="42.2719409" lon="13.7592642"><ele>530.5999999999999</ele><time>2026-05-02T10:01:46.17Z</time></trkpt><trkpt lat="42.2718996" lon="13.7591516"><ele>531.8</ele><time>2026-05-02T10:01:47.158Z</time></trkpt><trkpt lat="42.2718685" lon="13.7590324"><ele>533.0</ele><time>2026-05-02T10:01:48.17Z</time></trkpt><trkpt lat="42.2718223" lon="13.7589146"><ele>533.0</ele><time>2026-05-02T10:01:49.162Z</time></trkpt><trkpt lat="42.2717451" lon="13.7588221"><ele>533.0</ele><time>2026-05-02T10:01:50.166Z</time></trkpt><trkpt lat="42.2716467" lon="13.7587562"><ele>533.0</ele><time>2026-05-02T10:01:51.161Z</time></trkpt><trkpt lat="42.2715315" lon="13.7587089"><ele>533.0</ele><time>2026-05-02T10:01:52.169Z</time></trkpt><trkpt lat="42.2714063" lon="13.7586741"><ele>532.5</ele><time>2026-05-02T10:01:53.168Z</time></trkpt><trkpt lat="42.2712753" lon="13.7586596"><ele>532.0</ele><time>2026-05-02T10:01:54.164Z</time></trkpt><trkpt lat="42.2711466" lon="13.7586577"><ele>531.5</ele><time>2026-05-02T10:01:55.172Z</time></trkpt><trkpt lat="42.2710122" lon="13.7586625"><ele>531.0</ele><time>2026-05-02T10:01:56.178Z</time></trkpt><trkpt lat="42.2708711" lon="13.7586603"><ele>531.0</ele><time>2026-05-02T10:01:57.167Z</time></trkpt><trkpt lat="42.2707188" lon="13.7586738"><ele>531.0</ele><time>2026-05-02T10:01:58.17Z</time></trkpt><trkpt lat="42.2705746" lon="13.7586888"><ele>531.0</ele><time>2026-05-02T10:01:59.171Z</time></trkpt><trkpt lat="42.270412" lon="13.7586989"><ele>531.25</ele><time>2026-05-02T10:02:00.17Z</time></trkpt><trkpt lat="42.2702544" lon="13.7587238"><ele>531.5</ele><time>2026-05-02T10:02:01.163Z</time></trkpt><trkpt lat="42.2701103" lon="13.7587561"><ele>531.75</ele><time>2026-05-02T10:02:02.16Z</time></trkpt><trkpt lat="42.2700041" lon="13.7587978"><ele>532.0</ele><time>2026-05-02T10:02:03.156Z</time></trkpt><trkpt lat="42.2699102" lon="13.7588134"><ele>532.0</ele><time>2026-05-02T10:02:04.162Z</time></trkpt><trkpt lat="42.269817" lon="13.7588379"><ele>532.0</ele><time>2026-05-02T10:02:05.161Z</time></trkpt><trkpt lat="42.2696966" lon="13.7589"><ele>532.0</ele><time>2026-05-02T10:02:06.162Z</time></trkpt><trkpt lat="42.2695695" lon="13.7589642"><ele>532.0</ele><time>2026-05-02T10:02:07.164Z</time></trkpt><trkpt lat="42.2694476" lon="13.7590367"><ele>532.25</ele><time>2026-05-02T10:02:08.166Z</time></trkpt><trkpt lat="42.269326" lon="13.7590935"><ele>532.5</ele><time>2026-05-02T10:02:09.15Z</time></trkpt><trkpt lat="42.2692135" lon="13.7591431"><ele>532.75</ele><time>2026-05-02T10:02:10.15Z</time></trkpt><trkpt lat="42.2691001" lon="13.7591918"><ele>533.0</ele><time>2026-05-02T10:02:11.158Z</time></trkpt><trkpt lat="42.2689843" lon="13.7592369"><ele>532.6666666666666</ele><time>2026-05-02T10:02:12.159Z</time></trkpt><trkpt lat="42.2688809" lon="13.7592752"><ele>532.3333333333333</ele><time>2026-05-02T10:02:13.154Z</time></trkpt><trkpt lat="42.2688011" lon="13.7593029"><ele>532.0</ele><time>2026-05-02T10:02:14.15Z</time></trkpt><trkpt lat="42.2687315" lon="13.7593467"><ele>531.6666666666666</ele><time>2026-05-02T10:02:16.148Z</time></trkpt><trkpt lat="42.2687825" lon="13.7594454"><ele>531.3333333333334</ele><time>2026-05-02T10:02:18.15Z</time></trkpt><trkpt lat="42.2688263" lon="13.7595134"><ele>531.0</ele><time>2026-05-02T10:02:19.152Z</time></trkpt><trkpt lat="42.2688631" lon="13.7596211"><ele>532.0</ele><time>2026-05-02T10:02:21.151Z</time></trkpt><trkpt lat="42.2688548" lon="13.7597185"><ele>533.0</ele><time>2026-05-02T10:02:24.158Z</time></trkpt><trkpt lat="42.2688324" lon="13.75981"><ele>534.0</ele><time>2026-05-02T10:02:26.168Z</time></trkpt><trkpt lat="42.2688096" lon="13.7599356"><ele>535.0</ele><time>2026-05-02T10:02:28.16Z</time></trkpt><trkpt lat="42.2687876" lon="13.760024"><ele>536.0</ele><time>2026-05-02T10:02:30.16Z</time></trkpt><trkpt lat="42.268757" lon="13.760142"><ele>537.0</ele><time>2026-05-02T10:02:32.159Z</time></trkpt><trkpt lat="42.2687314" lon="13.7602751"><ele>537.0</ele><time>2026-05-02T10:02:34.162Z</time></trkpt><trkpt lat="42.2686974" lon="13.7603948"><ele>537.0</ele><time>2026-05-02T10:02:36.162Z</time></trkpt><trkpt lat="42.2686614" lon="13.7605003"><ele>537.0</ele><time>2026-05-02T10:02:38.159Z</time></trkpt><trkpt lat="42.2686329" lon="13.7605927"><ele>537.0</ele><time>2026-05-02T10:02:41.157Z</time></trkpt><trkpt lat="42.2687056" lon="13.7605602"><ele>537.0</ele><time>2026-05-02T10:02:45.15Z</time></trkpt><trkpt lat="42.2687381" lon="13.760418"><ele>537.0</ele><time>2026-05-02T10:02:47.153Z</time></trkpt><trkpt lat="42.268764" lon="13.7603061"><ele>537.2</ele><time>2026-05-02T10:02:48.149Z</time></trkpt><trkpt lat="42.2688021" lon="13.7601776"><ele>537.4000000000001</ele><time>2026-05-02T10:02:49.164Z</time></trkpt><trkpt lat="42.2688411" lon="13.7600456"><ele>537.5999999999999</ele><time>2026-05-02T10:02:50.159Z</time></trkpt><trkpt lat="42.2688773" lon="13.7599126"><ele>537.8</ele><time>2026-05-02T10:02:51.161Z</time></trkpt><trkpt lat="42.268908" lon="13.7597962"><ele>538.0</ele><time>2026-05-02T10:02:52.155Z</time></trkpt><trkpt lat="42.2689357" lon="13.7596874"><ele>538.0</ele><time>2026-05-02T10:02:53.163Z</time></trkpt><trkpt lat="42.2689435" lon="13.7595801"><ele>538.0</ele><time>2026-05-02T10:02:54.157Z</time></trkpt><trkpt lat="42.2689315" lon="13.7594882"><ele>538.0</ele><time>2026-05-02T10:02:55.159Z</time></trkpt><trkpt lat="42.2688562" lon="13.7593609"><ele>538.0</ele><time>2026-05-02T10:02:57.161Z</time></trkpt><trkpt lat="42.2687536" lon="13.7593065"><ele>538.0</ele><time>2026-05-02T10:02:59.162Z</time></trkpt><trkpt lat="42.2686897" lon="13.7592864"><ele>538.0</ele><time>2026-05-02T10:03:13.156Z</time></trkpt><trkpt lat="42.2686303" lon="13.7593734"><ele>538.0</ele><time>2026-05-02T10:03:16.158Z</time></trkpt><trkpt lat="42.2685485" lon="13.7595365"><ele>538.0</ele><time>2026-05-02T10:03:18.166Z</time></trkpt><trkpt lat="42.2685002" lon="13.7596479"><ele>538.0</ele><time>2026-05-02T10:03:19.168Z</time></trkpt><trkpt lat="42.26846" lon="13.7597668"><ele>538.0</ele><time>2026-05-02T10:03:20.177Z</time></trkpt><trkpt lat="42.2684142" lon="13.7598718"><ele>538.0</ele><time>2026-05-02T10:03:21.17Z</time></trkpt><trkpt lat="42.2683674" lon="13.7599727"><ele>538.0</ele><time>2026-05-02T10:03:22.173Z</time></trkpt><trkpt lat="42.2683148" lon="13.7600752"><ele>538.0</ele><time>2026-05-02T10:03:23.169Z</time></trkpt><trkpt lat="42.2682613" lon="13.7601748"><ele>538.0</ele><time>2026-05-02T10:03:24.172Z</time></trkpt><trkpt lat="42.2681991" lon="13.7602703"><ele>538.0</ele><time>2026-05-02T10:03:25.173Z</time></trkpt><trkpt lat="42.2681302" lon="13.7603716"><ele>538.0</ele><time>2026-05-02T10:03:26.177Z</time></trkpt><trkpt lat="42.2680512" lon="13.7604722"><ele>538.8</ele><time>2026-05-02T10:03:27.175Z</time></trkpt><trkpt lat="42.2679713" lon="13.7605735"><ele>539.5999999999999</ele><time>2026-05-02T10:03:28.161Z</time></trkpt><trkpt lat="42.2679004" lon="13.7606688"><ele>540.4000000000001</ele><time>2026-05-02T10:03:29.166Z</time></trkpt><trkpt lat="42.2678294" lon="13.7607607"><ele>541.2</ele><time>2026-05-02T10:03:30.157Z</time></trkpt><trkpt lat="42.2677522" lon="13.7608553"><ele>542.0</ele><time>2026-05-02T10:03:31.162Z</time></trkpt><trkpt lat="42.2676837" lon="13.7609435"><ele>541.8000000000001</ele><time>2026-05-02T10:03:32.164Z</time></trkpt><trkpt lat="42.2676197" lon="13.7610397"><ele>541.6</ele><time>2026-05-02T10:03:33.171Z</time></trkpt><trkpt lat="42.2675567" lon="13.7611382"><ele>541.4000000000001</ele><time>2026-05-02T10:03:34.164Z</time></trkpt><trkpt lat="42.2675008" lon="13.7612301"><ele>541.2</ele><time>2026-05-02T10:03:35.162Z</time></trkpt><trkpt lat="42.2674467" lon="13.7613273"><ele>541.0</ele><time>2026-05-02T10:03:36.156Z</time></trkpt><trkpt lat="42.2673949" lon="13.7614283"><ele>541.0000000000001</ele><time>2026-05-02T10:03:37.155Z</time></trkpt><trkpt lat="42.2673472" lon="13.7615154"><ele>541.0</ele><time>2026-05-02T10:03:38.151Z</time></trkpt><trkpt lat="42.2673008" lon="13.7615768"><ele>541.0</ele><time>2026-05-02T10:03:39.156Z</time></trkpt><trkpt lat="42.2672418" lon="13.7616261"><ele>541.0</ele><time>2026-05-02T10:03:40.156Z</time></trkpt><trkpt lat="42.2671674" lon="13.7616745"><ele>541.0</ele><time>2026-05-02T10:03:41.16Z</time></trkpt><trkpt lat="42.2670992" lon="13.7617145"><ele>541.0000000000001</ele><time>2026-05-02T10:03:42.164Z</time></trkpt><trkpt lat="42.2670378" lon="13.7617591"><ele>541.0</ele><time>2026-05-02T10:03:43.158Z</time></trkpt><trkpt lat="42.2669407" lon="13.7618333"><ele>542.4</ele><time>2026-05-02T10:03:45.161Z</time></trkpt><trkpt lat="42.2668686" lon="13.7619372"><ele>543.8</ele><time>2026-05-02T10:03:47.155Z</time></trkpt><trkpt lat="42.2668269" lon="13.7620437"><ele>545.1999999999999</ele><time>2026-05-02T10:03:48.157Z</time></trkpt><trkpt lat="42.266773" lon="13.7621753"><ele>546.6</ele><time>2026-05-02T10:03:49.163Z</time></trkpt><trkpt lat="42.266714" lon="13.7623116"><ele>548.0</ele><time>2026-05-02T10:03:50.162Z</time></trkpt><trkpt lat="42.2666674" lon="13.7624326"><ele>548.0</ele><time>2026-05-02T10:03:51.161Z</time></trkpt><trkpt lat="42.2666232" lon="13.7625219"><ele>548.0</ele><time>2026-05-02T10:03:52.161Z</time></trkpt><trkpt lat="42.2665795" lon="13.7625933"><ele>548.0</ele><time>2026-05-02T10:03:53.165Z</time></trkpt><trkpt lat="42.2665185" lon="13.7626548"><ele>548.0</ele><time>2026-05-02T10:03:54.159Z</time></trkpt><trkpt lat="42.2664368" lon="13.7627122"><ele>548.0</ele><time>2026-05-02T10:03:55.168Z</time></trkpt><trkpt lat="42.2663547" lon="13.7627884"><ele>548.0</ele><time>2026-05-02T10:03:56.165Z</time></trkpt><trkpt lat="42.2662818" lon="13.7628941"><ele>549.75</ele><time>2026-05-02T10:03:57.165Z</time></trkpt><trkpt lat="42.2661929" lon="13.7629922"><ele>551.5</ele><time>2026-05-02T10:03:58.156Z</time></trkpt><trkpt lat="42.2660863" lon="13.7630682"><ele>553.25</ele><time>2026-05-02T10:03:59.164Z</time></trkpt><trkpt lat="42.2659663" lon="13.7631118"><ele>555.0</ele><time>2026-05-02T10:04:00.168Z</time></trkpt><trkpt lat="42.2658412" lon="13.7631376"><ele>555.0</ele><time>2026-05-02T10:04:01.172Z</time></trkpt><trkpt lat="42.2657254" lon="13.7631568"><ele>555.0</ele><time>2026-05-02T10:04:02.169Z</time></trkpt><trkpt lat="42.265615" lon="13.7631902"><ele>555.0</ele><time>2026-05-02T10:04:03.168Z</time></trkpt><trkpt lat="42.2655115" lon="13.7632444"><ele>555.0</ele><time>2026-05-02T10:04:04.165Z</time></trkpt><trkpt lat="42.2654163" lon="13.7633099"><ele>555.0</ele><time>2026-05-02T10:04:05.168Z</time></trkpt><trkpt lat="42.265321" lon="13.7633614"><ele>557.0</ele><time>2026-05-02T10:04:06.169Z</time></trkpt><trkpt lat="42.2652156" lon="13.7633823"><ele>559.0</ele><time>2026-05-02T10:04:07.165Z</time></trkpt><trkpt lat="42.2651084" lon="13.7633809"><ele>561.0</ele><time>2026-05-02T10:04:08.167Z</time></trkpt><trkpt lat="42.2649913" lon="13.763361"><ele>563.0</ele><time>2026-05-02T10:04:09.172Z</time></trkpt><trkpt lat="42.2648685" lon="13.7633388"><ele>563.25</ele><time>2026-05-02T10:04:10.167Z</time></trkpt><trkpt lat="42.2647448" lon="13.7633271"><ele>563.5</ele><time>2026-05-02T10:04:11.173Z</time></trkpt><trkpt lat="42.2646177" lon="13.7633326"><ele>563.75</ele><time>2026-05-02T10:04:12.162Z</time></trkpt><trkpt lat="42.2644889" lon="13.7633712"><ele>564.0</ele><time>2026-05-02T10:04:13.17Z</time></trkpt><trkpt lat="42.264346" lon="13.7634264"><ele>564.0</ele><time>2026-05-02T10:04:14.171Z</time></trkpt><trkpt lat="42.2641983" lon="13.763511"><ele>564.0</ele><time>2026-05-02T10:04:15.167Z</time></trkpt><trkpt lat="42.26405" lon="13.7636124"><ele>564.0</ele><time>2026-05-02T10:04:16.167Z</time></trkpt><trkpt lat="42.2639063" lon="13.7637009"><ele>568.3333333333334</ele><time>2026-05-02T10:04:17.162Z</time></trkpt><trkpt lat="42.2637614" lon="13.7638065"><ele>572.6666666666667</ele><time>2026-05-02T10:04:18.17Z</time></trkpt><trkpt lat="42.2636164" lon="13.763933"><ele>577.0</ele><time>2026-05-02T10:04:19.166Z</time></trkpt><trkpt lat="42.2634645" lon="13.7640532"><ele>577.0</ele><time>2026-05-02T10:04:20.167Z</time></trkpt><trkpt lat="42.2632996" lon="13.7641537"><ele>577.0</ele><time>2026-05-02T10:04:21.161Z</time></trkpt><trkpt lat="42.2631391" lon="13.764248"><ele>577.0</ele><time>2026-05-02T10:04:22.164Z</time></trkpt><trkpt lat="42.2629905" lon="13.7643611"><ele>580.75</ele><time>2026-05-02T10:04:23.158Z</time></trkpt><trkpt lat="42.2628526" lon="13.7644347"><ele>584.5</ele><time>2026-05-02T10:04:24.155Z</time></trkpt><trkpt lat="42.2627357" lon="13.7645144"><ele>588.25</ele><time>2026-05-02T10:04:25.154Z</time></trkpt><trkpt lat="42.2626066" lon="13.7645726"><ele>592.0</ele><time>2026-05-02T10:04:26.163Z</time></trkpt><trkpt lat="42.2624684" lon="13.7645919"><ele>592.0</ele><time>2026-05-02T10:04:27.156Z</time></trkpt><trkpt lat="42.2623142" lon="13.7646275"><ele>592.0</ele><time>2026-05-02T10:04:28.159Z</time></trkpt><trkpt lat="42.2621567" lon="13.7646748"><ele>592.0</ele><time>2026-05-02T10:04:29.167Z</time></trkpt><trkpt lat="42.2620011" lon="13.7647319"><ele>592.3333333333334</ele><time>2026-05-02T10:04:30.158Z</time></trkpt><trkpt lat="42.2618358" lon="13.7648199"><ele>592.6666666666666</ele><time>2026-05-02T10:04:31.157Z</time></trkpt><trkpt lat="42.2616758" lon="13.7648615"><ele>593.0</ele><time>2026-05-02T10:04:32.154Z</time></trkpt><trkpt lat="42.2615129" lon="13.7648972"><ele>591.0</ele><time>2026-05-02T10:04:33.155Z</time></trkpt><trkpt lat="42.2613405" lon="13.7649076"><ele>589.0</ele><time>2026-05-02T10:04:34.151Z</time></trkpt><trkpt lat="42.2611795" lon="13.7649443"><ele>587.0</ele><time>2026-05-02T10:04:35.158Z</time></trkpt><trkpt lat="42.2610427" lon="13.765007"><ele>587.0</ele><time>2026-05-02T10:04:36.158Z</time></trkpt><trkpt lat="42.2609086" lon="13.7650527"><ele>587.0</ele><time>2026-05-02T10:04:37.155Z</time></trkpt><trkpt lat="42.260768" lon="13.7650891"><ele>587.0</ele><time>2026-05-02T10:04:38.163Z</time></trkpt><trkpt lat="42.2606421" lon="13.7651531"><ele>587.0</ele><time>2026-05-02T10:04:39.166Z</time></trkpt><trkpt lat="42.2605208" lon="13.7652042"><ele>593.0</ele><time>2026-05-02T10:04:40.163Z</time></trkpt><trkpt lat="42.2604105" lon="13.7652568"><ele>599.0</ele><time>2026-05-02T10:04:41.162Z</time></trkpt><trkpt lat="42.2602929" lon="13.7652973"><ele>605.0</ele><time>2026-05-02T10:04:42.166Z</time></trkpt><trkpt lat="42.2601781" lon="13.7653341"><ele>611.0</ele><time>2026-05-02T10:04:43.149Z</time></trkpt><trkpt lat="42.2600608" lon="13.7653802"><ele>611.0</ele><time>2026-05-02T10:04:44.153Z</time></trkpt><trkpt lat="42.2599515" lon="13.7654234"><ele>611.0</ele><time>2026-05-02T10:04:45.145Z</time></trkpt><trkpt lat="42.2598485" lon="13.7654756"><ele>611.0</ele><time>2026-05-02T10:04:46.146Z</time></trkpt><trkpt lat="42.2597378" lon="13.765532"><ele>611.0</ele><time>2026-05-02T10:04:47.149Z</time></trkpt><trkpt lat="42.2596161" lon="13.7655821"><ele>610.5</ele><time>2026-05-02T10:04:48.148Z</time></trkpt><trkpt lat="42.2594926" lon="13.7656109"><ele>610.0</ele><time>2026-05-02T10:04:49.148Z</time></trkpt><trkpt lat="42.2593752" lon="13.7656071"><ele>609.5</ele><time>2026-05-02T10:04:50.151Z</time></trkpt><trkpt lat="42.2592569" lon="13.7655663"><ele>609.0</ele><time>2026-05-02T10:04:51.152Z</time></trkpt><trkpt lat="42.2591278" lon="13.7655055"><ele>609.0</ele><time>2026-05-02T10:04:52.155Z</time></trkpt><trkpt lat="42.258986" lon="13.7654538"><ele>609.0</ele><time>2026-05-02T10:04:53.16Z</time></trkpt><trkpt lat="42.2588334" lon="13.7654092"><ele>609.0</ele><time>2026-05-02T10:04:54.158Z</time></trkpt><trkpt lat="42.2586944" lon="13.7653885"><ele>609.0</ele><time>2026-05-02T10:04:55.16Z</time></trkpt><trkpt lat="42.2585652" lon="13.7653635"><ele>608.8</ele><time>2026-05-02T10:04:56.16Z</time></trkpt><trkpt lat="42.2584613" lon="13.7653659"><ele>608.5999999999999</ele><time>2026-05-02T10:04:57.161Z</time></trkpt><trkpt lat="42.2583675" lon="13.7653484"><ele>608.4</ele><time>2026-05-02T10:04:58.16Z</time></trkpt><trkpt lat="42.2582907" lon="13.7653423"><ele>608.1999999999999</ele><time>2026-05-02T10:04:59.159Z</time></trkpt><trkpt lat="42.2581989" lon="13.7653044"><ele>608.0</ele><time>2026-05-02T10:05:00.16Z</time></trkpt><trkpt lat="42.2581105" lon="13.7652591"><ele>608.0</ele><time>2026-05-02T10:05:01.157Z</time></trkpt><trkpt lat="42.2580196" lon="13.7652027"><ele>608.0</ele><time>2026-05-02T10:05:02.156Z</time></trkpt><trkpt lat="42.2579211" lon="13.7651415"><ele>608.0</ele><time>2026-05-02T10:05:03.157Z</time></trkpt><trkpt lat="42.2578148" lon="13.7650651"><ele>608.0</ele><time>2026-05-02T10:05:04.159Z</time></trkpt><trkpt lat="42.2577133" lon="13.7650014"><ele>608.0</ele><time>2026-05-02T10:05:05.164Z</time></trkpt><trkpt lat="42.2576023" lon="13.7649433"><ele>610.0</ele><time>2026-05-02T10:05:06.158Z</time></trkpt><trkpt lat="42.2574817" lon="13.7648927"><ele>612.0</ele><time>2026-05-02T10:05:07.165Z</time></trkpt><trkpt lat="42.2573706" lon="13.7648456"><ele>614.0</ele><time>2026-05-02T10:05:08.157Z</time></trkpt><trkpt lat="42.2572691" lon="13.7647997"><ele>616.0</ele><time>2026-05-02T10:05:09.157Z</time></trkpt><trkpt lat="42.2571753" lon="13.7647464"><ele>616.6666666666667</ele><time>2026-05-02T10:05:10.154Z</time></trkpt><trkpt lat="42.2570907" lon="13.7646939"><ele>617.3333333333334</ele><time>2026-05-02T10:05:11.157Z</time></trkpt><trkpt lat="42.2570188" lon="13.7646472"><ele>618.0</ele><time>2026-05-02T10:05:12.156Z</time></trkpt><trkpt lat="42.2569508" lon="13.7646078"><ele>618.6666666666666</ele><time>2026-05-02T10:05:13.153Z</time></trkpt><trkpt lat="42.2568819" lon="13.7645987"><ele>619.3333333333333</ele><time>2026-05-02T10:05:14.16Z</time></trkpt><trkpt lat="42.256807" lon="13.7646231"><ele>620.0</ele><time>2026-05-02T10:05:15.148Z</time></trkpt><trkpt lat="42.2567281" lon="13.7646563"><ele>620.0</ele><time>2026-05-02T10:05:16.156Z</time></trkpt><trkpt lat="42.2566439" lon="13.7646913"><ele>620.0</ele><time>2026-05-02T10:05:17.158Z</time></trkpt><trkpt lat="42.2565579" lon="13.7647222"><ele>620.0</ele><time>2026-05-02T10:05:18.158Z</time></trkpt><trkpt lat="42.2564783" lon="13.7647427"><ele>620.0</ele><time>2026-05-02T10:05:19.154Z</time></trkpt><trkpt lat="42.2564042" lon="13.7647474"><ele>620.0</ele><time>2026-05-02T10:05:20.159Z</time></trkpt><trkpt lat="42.2563354" lon="13.7647502"><ele>620.0</ele><time>2026-05-02T10:05:21.156Z</time></trkpt><trkpt lat="42.2562619" lon="13.7647554"><ele>621.3333333333333</ele><time>2026-05-02T10:05:22.158Z</time></trkpt><trkpt lat="42.2561841" lon="13.7647565"><ele>622.6666666666666</ele><time>2026-05-02T10:05:23.158Z</time></trkpt><trkpt lat="42.2561042" lon="13.7647539"><ele>624.0</ele><time>2026-05-02T10:05:24.157Z</time></trkpt><trkpt lat="42.2560157" lon="13.764744"><ele>625.3333333333334</ele><time>2026-05-02T10:05:25.155Z</time></trkpt><trkpt lat="42.2559193" lon="13.7647338"><ele>626.6666666666667</ele><time>2026-05-02T10:05:26.159Z</time></trkpt><trkpt lat="42.2558252" lon="13.7647207"><ele>628.0</ele><time>2026-05-02T10:05:27.158Z</time></trkpt><trkpt lat="42.2557434" lon="13.7647099"><ele>628.0</ele><time>2026-05-02T10:05:28.157Z</time></trkpt><trkpt lat="42.2556564" lon="13.7646974"><ele>628.0</ele><time>2026-05-02T10:05:29.158Z</time></trkpt><trkpt lat="42.2555716" lon="13.7646826"><ele>628.0</ele><time>2026-05-02T10:05:30.157Z</time></trkpt><trkpt lat="42.2554842" lon="13.7646685"><ele>628.0</ele><time>2026-05-02T10:05:31.162Z</time></trkpt><trkpt lat="42.2554022" lon="13.7646491"><ele>628.0</ele><time>2026-05-02T10:05:32.158Z</time></trkpt><trkpt lat="42.255313" lon="13.7646177"><ele>628.0</ele><time>2026-05-02T10:05:33.16Z</time></trkpt><trkpt lat="42.2552282" lon="13.7645724"><ele>628.8333333333334</ele><time>2026-05-02T10:05:34.158Z</time></trkpt><trkpt lat="42.2551387" lon="13.764525"><ele>629.6666666666667</ele><time>2026-05-02T10:05:35.152Z</time></trkpt><trkpt lat="42.2550523" lon="13.7644952"><ele>630.5</ele><time>2026-05-02T10:05:36.149Z</time></trkpt><trkpt lat="42.254963" lon="13.7644953"><ele>631.3333333333334</ele><time>2026-05-02T10:05:37.154Z</time></trkpt><trkpt lat="42.25488" lon="13.7645216"><ele>632.1666666666666</ele><time>2026-05-02T10:05:38.155Z</time></trkpt><trkpt lat="42.2547932" lon="13.7645438"><ele>633.0</ele><time>2026-05-02T10:05:39.158Z</time></trkpt><trkpt lat="42.2547042" lon="13.7645468"><ele>635.2</ele><time>2026-05-02T10:05:40.15Z</time></trkpt><trkpt lat="42.2546149" lon="13.7645286"><ele>637.4</ele><time>2026-05-02T10:05:41.16Z</time></trkpt><trkpt lat="42.2545287" lon="13.7644966"><ele>639.6</ele><time>2026-05-02T10:05:42.155Z</time></trkpt><trkpt lat="42.2544283" lon="13.7644659"><ele>641.8000000000001</ele><time>2026-05-02T10:05:43.156Z</time></trkpt><trkpt lat="42.254322" lon="13.7644466"><ele>644.0</ele><time>2026-05-02T10:05:44.161Z</time></trkpt><trkpt lat="42.2542144" lon="13.7644412"><ele>644.0</ele><time>2026-05-02T10:05:45.149Z</time></trkpt><trkpt lat="42.2541255" lon="13.7644331"><ele>644.0</ele><time>2026-05-02T10:05:46.153Z</time></trkpt><trkpt lat="42.2540459" lon="13.7644176"><ele>644.0</ele><time>2026-05-02T10:05:47.158Z</time></trkpt><trkpt lat="42.2539716" lon="13.7643969"><ele>644.0</ele><time>2026-05-02T10:05:48.156Z</time></trkpt><trkpt lat="42.2539072" lon="13.7643712"><ele>644.0</ele><time>2026-05-02T10:05:49.156Z</time></trkpt><trkpt lat="42.2538445" lon="13.7643329"><ele>644.0</ele><time>2026-05-02T10:05:50.158Z</time></trkpt><trkpt lat="42.2537745" lon="13.7642994"><ele>645.1666666666666</ele><time>2026-05-02T10:05:51.16Z</time></trkpt><trkpt lat="42.2537073" lon="13.7642678"><ele>646.3333333333333</ele><time>2026-05-02T10:05:52.161Z</time></trkpt><trkpt lat="42.253646" lon="13.7642307"><ele>647.5</ele><time>2026-05-02T10:05:53.157Z</time></trkpt><trkpt lat="42.2535878" lon="13.7641806"><ele>648.6666666666666</ele><time>2026-05-02T10:05:54.155Z</time></trkpt><trkpt lat="42.2535326" lon="13.7641086"><ele>649.8333333333334</ele><time>2026-05-02T10:05:55.151Z</time></trkpt><trkpt lat="42.253485" lon="13.7640171"><ele>651.0</ele><time>2026-05-02T10:05:56.159Z</time></trkpt><trkpt lat="42.2534401" lon="13.7639102"><ele>651.0</ele><time>2026-05-02T10:05:57.157Z</time></trkpt><trkpt lat="42.253393" lon="13.7638136"><ele>651.0</ele><time>2026-05-02T10:05:58.155Z</time></trkpt><trkpt lat="42.2533434" lon="13.7637347"><ele>651.0</ele><time>2026-05-02T10:05:59.157Z</time></trkpt><trkpt lat="42.2532884" lon="13.7636698"><ele>651.0</ele><time>2026-05-02T10:06:00.157Z</time></trkpt><trkpt lat="42.2532251" lon="13.7636116"><ele>651.0</ele><time>2026-05-02T10:06:01.154Z</time></trkpt><trkpt lat="42.2531535" lon="13.7635663"><ele>651.0</ele><time>2026-05-02T10:06:02.156Z</time></trkpt><trkpt lat="42.2530836" lon="13.7635409"><ele>652.4</ele><time>2026-05-02T10:06:03.155Z</time></trkpt><trkpt lat="42.2530046" lon="13.7635174"><ele>653.8</ele><time>2026-05-02T10:06:04.155Z</time></trkpt><trkpt lat="42.2529096" lon="13.763486"><ele>655.1999999999999</ele><time>2026-05-02T10:06:05.151Z</time></trkpt><trkpt lat="42.2528017" lon="13.7634497"><ele>656.5999999999999</ele><time>2026-05-02T10:06:06.149Z</time></trkpt><trkpt lat="42.2526895" lon="13.7634255"><ele>658.0</ele><time>2026-05-02T10:06:07.158Z</time></trkpt><trkpt lat="42.2525807" lon="13.7634142"><ele>658.0</ele><time>2026-05-02T10:06:08.152Z</time></trkpt><trkpt lat="42.2524874" lon="13.7634092"><ele>658.0</ele><time>2026-05-02T10:06:09.153Z</time></trkpt><trkpt lat="42.2524027" lon="13.763399"><ele>658.0</ele><time>2026-05-02T10:06:10.152Z</time></trkpt><trkpt lat="42.2523244" lon="13.7633813"><ele>658.0</ele><time>2026-05-02T10:06:11.145Z</time></trkpt><trkpt lat="42.2522438" lon="13.7633558"><ele>658.0</ele><time>2026-05-02T10:06:12.15Z</time></trkpt><trkpt lat="42.2521692" lon="13.7633301"><ele>658.0</ele><time>2026-05-02T10:06:13.152Z</time></trkpt><trkpt lat="42.2520984" lon="13.7632885"><ele>657.5</ele><time>2026-05-02T10:06:14.157Z</time></trkpt><trkpt lat="42.2520208" lon="13.7632389"><ele>657.0</ele><time>2026-05-02T10:06:15.153Z</time></trkpt><trkpt lat="42.2519421" lon="13.7631869"><ele>656.5</ele><time>2026-05-02T10:06:16.153Z</time></trkpt><trkpt lat="42.251864" lon="13.7631297"><ele>656.0</ele><time>2026-05-02T10:06:17.153Z</time></trkpt><trkpt lat="42.2517983" lon="13.7630539"><ele>655.5</ele><time>2026-05-02T10:06:18.154Z</time></trkpt><trkpt lat="42.2517355" lon="13.7629687"><ele>655.0</ele><time>2026-05-02T10:06:19.152Z</time></trkpt><trkpt lat="42.2516837" lon="13.7628681"><ele>655.0</ele><time>2026-05-02T10:06:20.152Z</time></trkpt><trkpt lat="42.2516347" lon="13.7627717"><ele>655.0</ele><time>2026-05-02T10:06:21.152Z</time></trkpt><trkpt lat="42.2515755" lon="13.762687"><ele>655.0</ele><time>2026-05-02T10:06:22.158Z</time></trkpt><trkpt lat="42.2514971" lon="13.7626101"><ele>655.0</ele><time>2026-05-02T10:06:23.148Z</time></trkpt><trkpt lat="42.2514103" lon="13.7625407"><ele>655.0</ele><time>2026-05-02T10:06:24.144Z</time></trkpt><trkpt lat="42.2513248" lon="13.7624553"><ele>658.6</ele><time>2026-05-02T10:06:25.145Z</time></trkpt><trkpt lat="42.2512437" lon="13.7623725"><ele>662.2</ele><time>2026-05-02T10:06:26.147Z</time></trkpt><trkpt lat="42.2511649" lon="13.7623083"><ele>665.8</ele><time>2026-05-02T10:06:27.142Z</time></trkpt><trkpt lat="42.2510855" lon="13.7622532"><ele>669.4</ele><time>2026-05-02T10:06:28.142Z</time></trkpt><trkpt lat="42.2509993" lon="13.7622114"><ele>673.0</ele><time>2026-05-02T10:06:29.143Z</time></trkpt><trkpt lat="42.2509129" lon="13.7621865"><ele>673.0</ele><time>2026-05-02T10:06:30.146Z</time></trkpt><trkpt lat="42.2508305" lon="13.7621619"><ele>673.0</ele><time>2026-05-02T10:06:31.142Z</time></trkpt><trkpt lat="42.2507634" lon="13.7621545"><ele>673.0</ele><time>2026-05-02T10:06:32.139Z</time></trkpt><trkpt lat="42.250693" lon="13.7621737"><ele>673.0</ele><time>2026-05-02T10:06:33.139Z</time></trkpt><trkpt lat="42.2506196" lon="13.762287"><ele>673.0</ele><time>2026-05-02T10:06:35.139Z</time></trkpt><trkpt lat="42.2505981" lon="13.7623719"><ele>673.0</ele><time>2026-05-02T10:06:36.139Z</time></trkpt><trkpt lat="42.2505687" lon="13.7624648"><ele>672.2</ele><time>2026-05-02T10:06:37.143Z</time></trkpt><trkpt lat="42.2505245" lon="13.7625439"><ele>671.4</ele><time>2026-05-02T10:06:38.145Z</time></trkpt><trkpt lat="42.2504592" lon="13.762614"><ele>670.6</ele><time>2026-05-02T10:06:39.137Z</time></trkpt><trkpt lat="42.2503823" lon="13.7626664"><ele>669.8000000000001</ele><time>2026-05-02T10:06:40.15Z</time></trkpt><trkpt lat="42.2502888" lon="13.7627045"><ele>669.0</ele><time>2026-05-02T10:06:41.147Z</time></trkpt><trkpt lat="42.2501769" lon="13.7627228"><ele>669.0</ele><time>2026-05-02T10:06:42.152Z</time></trkpt><trkpt lat="42.2500636" lon="13.7627364"><ele>669.0</ele><time>2026-05-02T10:06:43.153Z</time></trkpt><trkpt lat="42.24997" lon="13.7627511"><ele>669.0</ele><time>2026-05-02T10:06:44.157Z</time></trkpt><trkpt lat="42.2498783" lon="13.762777"><ele>669.0</ele><time>2026-05-02T10:06:45.153Z</time></trkpt><trkpt lat="42.2497963" lon="13.7628111"><ele>669.0</ele><time>2026-05-02T10:06:46.151Z</time></trkpt><trkpt lat="42.2497229" lon="13.7628479"><ele>671.5</ele><time>2026-05-02T10:06:47.15Z</time></trkpt><trkpt lat="42.2496553" lon="13.7628948"><ele>674.0</ele><time>2026-05-02T10:06:48.153Z</time></trkpt><trkpt lat="42.2495867" lon="13.7629553"><ele>676.5</ele><time>2026-05-02T10:06:49.147Z</time></trkpt><trkpt lat="42.2495123" lon="13.7630284"><ele>679.0</ele><time>2026-05-02T10:06:50.154Z</time></trkpt><trkpt lat="42.2494457" lon="13.7630992"><ele>681.5</ele><time>2026-05-02T10:06:51.15Z</time></trkpt><trkpt lat="42.2493877" lon="13.7631744"><ele>684.0</ele><time>2026-05-02T10:06:52.155Z</time></trkpt><trkpt lat="42.2493257" lon="13.7632384"><ele>684.0</ele><time>2026-05-02T10:06:53.151Z</time></trkpt><trkpt lat="42.2492594" lon="13.7632981"><ele>684.0</ele><time>2026-05-02T10:06:54.143Z</time></trkpt><trkpt lat="42.2491789" lon="13.7633473"><ele>684.0</ele><time>2026-05-02T10:06:55.15Z</time></trkpt><trkpt lat="42.2490804" lon="13.763393"><ele>684.0</ele><time>2026-05-02T10:06:56.152Z</time></trkpt><trkpt lat="42.2489779" lon="13.7634452"><ele>684.0</ele><time>2026-05-02T10:06:57.151Z</time></trkpt><trkpt lat="42.2488929" lon="13.7634995"><ele>684.6666666666666</ele><time>2026-05-02T10:06:58.15Z</time></trkpt><trkpt lat="42.2488097" lon="13.7635572"><ele>685.3333333333334</ele><time>2026-05-02T10:06:59.148Z</time></trkpt><trkpt lat="42.2487315" lon="13.7636179"><ele>686.0</ele><time>2026-05-02T10:07:00.151Z</time></trkpt><trkpt lat="42.2486628" lon="13.7636788"><ele>686.6666666666667</ele><time>2026-05-02T10:07:01.154Z</time></trkpt><trkpt lat="42.2486032" lon="13.7637387"><ele>687.3333333333334</ele><time>2026-05-02T10:07:02.147Z</time></trkpt><trkpt lat="42.2485527" lon="13.7637909"><ele>688.0</ele><time>2026-05-02T10:07:03.153Z</time></trkpt><trkpt lat="42.2484968" lon="13.7638535"><ele>688.0</ele><time>2026-05-02T10:07:04.148Z</time></trkpt><trkpt lat="42.2484313" lon="13.7639334"><ele>688.0</ele><time>2026-05-02T10:07:05.148Z</time></trkpt><trkpt lat="42.2483559" lon="13.7640234"><ele>688.0</ele><time>2026-05-02T10:07:06.154Z</time></trkpt><trkpt lat="42.2482776" lon="13.7641149"><ele>688.0</ele><time>2026-05-02T10:07:07.151Z</time></trkpt><trkpt lat="42.2482092" lon="13.7641973"><ele>688.0</ele><time>2026-05-02T10:07:08.152Z</time></trkpt><trkpt lat="42.2481445" lon="13.7642697"><ele>689.3333333333334</ele><time>2026-05-02T10:07:09.151Z</time></trkpt><trkpt lat="42.2480822" lon="13.7643395"><ele>690.6666666666667</ele><time>2026-05-02T10:07:10.151Z</time></trkpt><trkpt lat="42.2480162" lon="13.7644134"><ele>692.0</ele><time>2026-05-02T10:07:11.153Z</time></trkpt><trkpt lat="42.247955" lon="13.7644901"><ele>693.3333333333334</ele><time>2026-05-02T10:07:12.149Z</time></trkpt><trkpt lat="42.247899" lon="13.7645586"><ele>694.6666666666666</ele><time>2026-05-02T10:07:13.153Z</time></trkpt><trkpt lat="42.2478425" lon="13.7646294"><ele>696.0</ele><time>2026-05-02T10:07:14.153Z</time></trkpt><trkpt lat="42.2477856" lon="13.7647099"><ele>696.0</ele><time>2026-05-02T10:07:15.154Z</time></trkpt><trkpt lat="42.2477397" lon="13.7647894"><ele>696.0</ele><time>2026-05-02T10:07:16.153Z</time></trkpt><trkpt lat="42.2477059" lon="13.7648731"><ele>696.0</ele><time>2026-05-02T10:07:17.15Z</time></trkpt><trkpt lat="42.247681" lon="13.7649513"><ele>696.0</ele><time>2026-05-02T10:07:18.147Z</time></trkpt><trkpt lat="42.2476236" lon="13.7650692"><ele>696.0</ele><time>2026-05-02T10:07:20.151Z</time></trkpt><trkpt lat="42.2475816" lon="13.7651331"><ele>696.0</ele><time>2026-05-02T10:07:21.149Z</time></trkpt><trkpt lat="42.2475272" lon="13.7651984"><ele>696.0</ele><time>2026-05-02T10:07:22.149Z</time></trkpt><trkpt lat="42.2474699" lon="13.7652487"><ele>696.3333333333334</ele><time>2026-05-02T10:07:23.148Z</time></trkpt><trkpt lat="42.2474036" lon="13.765284"><ele>696.6666666666666</ele><time>2026-05-02T10:07:24.151Z</time></trkpt><trkpt lat="42.2473256" lon="13.7653226"><ele>697.0</ele><time>2026-05-02T10:07:25.151Z</time></trkpt><trkpt lat="42.2472537" lon="13.7653689"><ele>697.3333333333333</ele><time>2026-05-02T10:07:26.154Z</time></trkpt><trkpt lat="42.2471939" lon="13.7654016"><ele>697.6666666666666</ele><time>2026-05-02T10:07:27.151Z</time></trkpt><trkpt lat="42.2470884" lon="13.7654454"><ele>698.0</ele><time>2026-05-02T10:07:29.148Z</time></trkpt><trkpt lat="42.247023" lon="13.7654686"><ele>700.3333333333333</ele><time>2026-05-02T10:07:30.151Z</time></trkpt><trkpt lat="42.2469552" lon="13.7655009"><ele>702.6666666666666</ele><time>2026-05-02T10:07:31.157Z</time></trkpt><trkpt lat="42.2468455" lon="13.7655746"><ele>705.0</ele><time>2026-05-02T10:07:33.159Z</time></trkpt><trkpt lat="42.2467817" lon="13.7656127"><ele>707.3333333333334</ele><time>2026-05-02T10:07:34.16Z</time></trkpt><trkpt lat="42.2467157" lon="13.7656582"><ele>709.6666666666667</ele><time>2026-05-02T10:07:35.155Z</time></trkpt><trkpt lat="42.246661" lon="13.7657083"><ele>712.0</ele><time>2026-05-02T10:07:36.155Z</time></trkpt><trkpt lat="42.2466067" lon="13.7657651"><ele>712.0</ele><time>2026-05-02T10:07:37.155Z</time></trkpt><trkpt lat="42.2465542" lon="13.765815"><ele>712.0</ele><time>2026-05-02T10:07:38.155Z</time></trkpt><trkpt lat="42.2464618" lon="13.7658938"><ele>712.0</ele><time>2026-05-02T10:07:40.145Z</time></trkpt><trkpt lat="42.2464135" lon="13.7659609"><ele>712.0</ele><time>2026-05-02T10:07:41.152Z</time></trkpt><trkpt lat="42.2463661" lon="13.7660395"><ele>712.0</ele><time>2026-05-02T10:07:42.148Z</time></trkpt><trkpt lat="42.2463115" lon="13.766127"><ele>712.0</ele><time>2026-05-02T10:07:43.152Z</time></trkpt><trkpt lat="42.2462548" lon="13.7662168"><ele>713.3333333333334</ele><time>2026-05-02T10:07:44.148Z</time></trkpt><trkpt lat="42.2462072" lon="13.7662908"><ele>714.6666666666667</ele><time>2026-05-02T10:07:45.149Z</time></trkpt><trkpt lat="42.2461542" lon="13.7663553"><ele>716.0</ele><time>2026-05-02T10:07:46.149Z</time></trkpt><trkpt lat="42.2460959" lon="13.7664163"><ele>717.3333333333334</ele><time>2026-05-02T10:07:47.157Z</time></trkpt><trkpt lat="42.2460421" lon="13.7664751"><ele>718.6666666666666</ele><time>2026-05-02T10:07:48.149Z</time></trkpt><trkpt lat="42.2459421" lon="13.7665321"><ele>720.0</ele><time>2026-05-02T10:07:50.152Z</time></trkpt><trkpt lat="42.245836" lon="13.7665295"><ele>720.0</ele><time>2026-05-02T10:07:52.158Z</time></trkpt><trkpt lat="42.245771" lon="13.7665413"><ele>720.0</ele><time>2026-05-02T10:07:53.148Z</time></trkpt><trkpt lat="42.2456938" lon="13.7665676"><ele>720.0</ele><time>2026-05-02T10:07:54.15Z</time></trkpt><trkpt lat="42.2456088" lon="13.7666048"><ele>720.0</ele><time>2026-05-02T10:07:55.154Z</time></trkpt><trkpt lat="42.2455276" lon="13.766639"><ele>720.0</ele><time>2026-05-02T10:07:56.152Z</time></trkpt><trkpt lat="42.2454486" lon="13.7666865"><ele>720.0</ele><time>2026-05-02T10:07:57.15Z</time></trkpt><trkpt lat="42.2453844" lon="13.7667343"><ele>719.8</ele><time>2026-05-02T10:07:58.152Z</time></trkpt><trkpt lat="42.2452893" lon="13.7668054"><ele>719.6</ele><time>2026-05-02T10:08:00.153Z</time></trkpt><trkpt lat="42.2451539" lon="13.7668438"><ele>719.4000000000001</ele><time>2026-05-02T10:08:02.151Z</time></trkpt><trkpt lat="42.2450643" lon="13.7668632"><ele>719.2</ele><time>2026-05-02T10:08:03.152Z</time></trkpt><trkpt lat="42.2449717" lon="13.7668895"><ele>719.0</ele><time>2026-05-02T10:08:04.151Z</time></trkpt><trkpt lat="42.2448836" lon="13.766915"><ele>721.0</ele><time>2026-05-02T10:08:05.157Z</time></trkpt><trkpt lat="42.2447931" lon="13.7669467"><ele>723.0</ele><time>2026-05-02T10:08:06.153Z</time></trkpt><trkpt lat="42.2446958" lon="13.7669776"><ele>725.0</ele><time>2026-05-02T10:08:07.154Z</time></trkpt><trkpt lat="42.2445906" lon="13.7670051"><ele>727.0</ele><time>2026-05-02T10:08:08.152Z</time></trkpt><trkpt lat="42.2444876" lon="13.767029"><ele>729.0</ele><time>2026-05-02T10:08:09.148Z</time></trkpt><trkpt lat="42.244395" lon="13.76704"><ele>729.0</ele><time>2026-05-02T10:08:10.153Z</time></trkpt><trkpt lat="42.2443069" lon="13.7670462"><ele>729.0</ele><time>2026-05-02T10:08:11.153Z</time></trkpt><trkpt lat="42.2442228" lon="13.7670511"><ele>729.0</ele><time>2026-05-02T10:08:12.152Z</time></trkpt><trkpt lat="42.2441316" lon="13.7670562"><ele>729.0</ele><time>2026-05-02T10:08:13.151Z</time></trkpt><trkpt lat="42.2440534" lon="13.7670769"><ele>729.0</ele><time>2026-05-02T10:08:14.154Z</time></trkpt><trkpt lat="42.2439696" lon="13.767098"><ele>729.0</ele><time>2026-05-02T10:08:15.155Z</time></trkpt><trkpt lat="42.243885" lon="13.7671195"><ele>731.5</ele><time>2026-05-02T10:08:16.151Z</time></trkpt><trkpt lat="42.243813" lon="13.7671506"><ele>734.0</ele><time>2026-05-02T10:08:17.154Z</time></trkpt><trkpt lat="42.2437453" lon="13.767185"><ele>736.5</ele><time>2026-05-02T10:08:18.153Z</time></trkpt><trkpt lat="42.2436816" lon="13.76721"><ele>739.0</ele><time>2026-05-02T10:08:19.151Z</time></trkpt><trkpt lat="42.2436125" lon="13.7672296"><ele>741.5</ele><time>2026-05-02T10:08:20.152Z</time></trkpt><trkpt lat="42.2435317" lon="13.7672498"><ele>744.0</ele><time>2026-05-02T10:08:21.15Z</time></trkpt><trkpt lat="42.2434449" lon="13.7672597"><ele>744.0</ele><time>2026-05-02T10:08:22.152Z</time></trkpt><trkpt lat="42.2433476" lon="13.7672596"><ele>744.0</ele><time>2026-05-02T10:08:23.15Z</time></trkpt><trkpt lat="42.2432607" lon="13.767271"><ele>744.0</ele><time>2026-05-02T10:08:24.146Z</time></trkpt><trkpt lat="42.2431955" lon="13.7672923"><ele>744.0</ele><time>2026-05-02T10:08:25.152Z</time></trkpt><trkpt lat="42.2431212" lon="13.7673079"><ele>744.0</ele><time>2026-05-02T10:08:26.152Z</time></trkpt><trkpt lat="42.243041" lon="13.7673133"><ele>744.0</ele><time>2026-05-02T10:08:27.153Z</time></trkpt><trkpt lat="42.2429625" lon="13.7673124"><ele>746.6</ele><time>2026-05-02T10:08:28.157Z</time></trkpt><trkpt lat="42.2428811" lon="13.7673103"><ele>749.2</ele><time>2026-05-02T10:08:29.15Z</time></trkpt><trkpt lat="42.2427927" lon="13.7673117"><ele>751.8000000000001</ele><time>2026-05-02T10:08:30.155Z</time></trkpt><trkpt lat="42.2426968" lon="13.7673236"><ele>754.4000000000001</ele><time>2026-05-02T10:08:31.151Z</time></trkpt><trkpt lat="42.2425976" lon="13.7673436"><ele>757.0</ele><time>2026-05-02T10:08:32.15Z</time></trkpt><trkpt lat="42.2424974" lon="13.7673742"><ele>757.0</ele><time>2026-05-02T10:08:33.151Z</time></trkpt><trkpt lat="42.2423937" lon="13.7674074"><ele>757.0</ele><time>2026-05-02T10:08:34.145Z</time></trkpt><trkpt lat="42.2422936" lon="13.7674509"><ele>757.0</ele><time>2026-05-02T10:08:35.146Z</time></trkpt><trkpt lat="42.2421981" lon="13.7674957"><ele>757.0</ele><time>2026-05-02T10:08:36.147Z</time></trkpt><trkpt lat="42.2421045" lon="13.7675257"><ele>757.0</ele><time>2026-05-02T10:08:37.145Z</time></trkpt><trkpt lat="42.2420119" lon="13.7675681"><ele>757.0</ele><time>2026-05-02T10:08:38.147Z</time></trkpt><trkpt lat="42.2419191" lon="13.7676304"><ele>757.0</ele><time>2026-05-02T10:08:39.146Z</time></trkpt><trkpt lat="42.2418331" lon="13.7676997"><ele>757.0</ele><time>2026-05-02T10:08:40.148Z</time></trkpt><trkpt lat="42.2417508" lon="13.7677694"><ele>757.0</ele><time>2026-05-02T10:08:41.145Z</time></trkpt><trkpt lat="42.2416765" lon="13.7678415"><ele>757.0</ele><time>2026-05-02T10:08:42.142Z</time></trkpt><trkpt lat="42.2415985" lon="13.7679197"><ele>757.0</ele><time>2026-05-02T10:08:43.146Z</time></trkpt><trkpt lat="42.2415239" lon="13.7680075"><ele>757.0</ele><time>2026-05-02T10:08:44.151Z</time></trkpt><trkpt lat="42.2414551" lon="13.7680991"><ele>757.0</ele><time>2026-05-02T10:08:45.153Z</time></trkpt><trkpt lat="42.2413825" lon="13.7682094"><ele>757.0</ele><time>2026-05-02T10:08:46.15Z</time></trkpt><trkpt lat="42.2413155" lon="13.7683289"><ele>757.0</ele><time>2026-05-02T10:08:47.15Z</time></trkpt><trkpt lat="42.2412572" lon="13.7684452"><ele>760.0</ele><time>2026-05-02T10:08:48.154Z</time></trkpt><trkpt lat="42.2412013" lon="13.768551"><ele>763.0</ele><time>2026-05-02T10:08:49.155Z</time></trkpt><trkpt lat="42.2411401" lon="13.7686478"><ele>766.0</ele><time>2026-05-02T10:08:50.152Z</time></trkpt><trkpt lat="42.2410761" lon="13.7687366"><ele>769.0</ele><time>2026-05-02T10:08:51.151Z</time></trkpt><trkpt lat="42.2410199" lon="13.7688181"><ele>771.9999999999999</ele><time>2026-05-02T10:08:52.153Z</time></trkpt><trkpt lat="42.24097" lon="13.7688954"><ele>775.0</ele><time>2026-05-02T10:08:53.156Z</time></trkpt><trkpt lat="42.2409231" lon="13.76897"><ele>774.9999999999999</ele><time>2026-05-02T10:08:54.147Z</time></trkpt><trkpt lat="42.2408822" lon="13.7690469"><ele>775.0</ele><time>2026-05-02T10:08:55.153Z</time></trkpt><trkpt lat="42.2408508" lon="13.7691324"><ele>775.0</ele><time>2026-05-02T10:08:56.156Z</time></trkpt><trkpt lat="42.2408243" lon="13.7692161"><ele>775.0</ele><time>2026-05-02T10:08:57.151Z</time></trkpt><trkpt lat="42.2407943" lon="13.7693175"><ele>774.9999999999999</ele><time>2026-05-02T10:08:59.15Z</time></trkpt><trkpt lat="42.2407182" lon="13.7693684"><ele>775.0</ele><time>2026-05-02T10:09:12.151Z</time></trkpt><trkpt lat="42.2406341" lon="13.7693886"><ele>773.9999999999999</ele><time>2026-05-02T10:09:15.149Z</time></trkpt><trkpt lat="42.2405537" lon="13.7693694"><ele>773.0</ele><time>2026-05-02T10:09:17.157Z</time></trkpt><trkpt lat="42.2404434" lon="13.7693087"><ele>772.0</ele><time>2026-05-02T10:09:19.158Z</time></trkpt><trkpt lat="42.2403808" lon="13.7692605"><ele>771.0</ele><time>2026-05-02T10:09:20.155Z</time></trkpt><trkpt lat="42.2402998" lon="13.7692247"><ele>769.9999999999999</ele><time>2026-05-02T10:09:21.152Z</time></trkpt><trkpt lat="42.2402105" lon="13.7692126"><ele>769.0</ele><time>2026-05-02T10:09:22.155Z</time></trkpt><trkpt lat="42.2401135" lon="13.7692101"><ele>772.3333333333333</ele><time>2026-05-02T10:09:23.157Z</time></trkpt><trkpt lat="42.2400158" lon="13.769203"><ele>775.6666666666666</ele><time>2026-05-02T10:09:24.158Z</time></trkpt><trkpt lat="42.23993" lon="13.7691951"><ele>779.0</ele><time>2026-05-02T10:09:25.156Z</time></trkpt><trkpt lat="42.2398526" lon="13.7691922"><ele>782.3333333333333</ele><time>2026-05-02T10:09:26.155Z</time></trkpt><trkpt lat="42.2397855" lon="13.7691884"><ele>785.6666666666666</ele><time>2026-05-02T10:09:27.156Z</time></trkpt><trkpt lat="42.2397136" lon="13.7691656"><ele>789.0</ele><time>2026-05-02T10:09:28.153Z</time></trkpt><trkpt lat="42.2396388" lon="13.7691318"><ele>791.2857142857142</ele><time>2026-05-02T10:09:29.157Z</time></trkpt><trkpt lat="42.2395594" lon="13.7690961"><ele>793.5714285714286</ele><time>2026-05-02T10:09:30.154Z</time></trkpt><trkpt lat="42.239483" lon="13.7690676"><ele>795.8571428571429</ele><time>2026-05-02T10:09:31.158Z</time></trkpt><trkpt lat="42.2394086" lon="13.7690564"><ele>798.1428571428571</ele><time>2026-05-02T10:09:32.152Z</time></trkpt><trkpt lat="42.2393357" lon="13.7690571"><ele>800.4285714285714</ele><time>2026-05-02T10:09:33.15Z</time></trkpt><trkpt lat="42.239274" lon="13.7690856"><ele>802.7142857142857</ele><time>2026-05-02T10:09:34.149Z</time></trkpt><trkpt lat="42.239229" lon="13.7691479"><ele>805.0</ele><time>2026-05-02T10:09:35.152Z</time></trkpt><trkpt lat="42.2391844" lon="13.7692086"><ele>805.0</ele><time>2026-05-02T10:09:36.15Z</time></trkpt><trkpt lat="42.2391327" lon="13.7692658"><ele>805.0</ele><time>2026-05-02T10:09:37.149Z</time></trkpt><trkpt lat="42.2390661" lon="13.7693153"><ele>805.0</ele><time>2026-05-02T10:09:38.159Z</time></trkpt><trkpt lat="42.2389997" lon="13.769357"><ele>805.0</ele><time>2026-05-02T10:09:39.155Z</time></trkpt><trkpt lat="42.2389294" lon="13.7693786"><ele>805.0</ele><time>2026-05-02T10:09:40.152Z</time></trkpt><trkpt lat="42.2388622" lon="13.7693984"><ele>805.0</ele><time>2026-05-02T10:09:41.15Z</time></trkpt><trkpt lat="42.2387932" lon="13.7694016"><ele>805.0</ele><time>2026-05-02T10:09:42.154Z</time></trkpt><trkpt lat="42.2386526" lon="13.7693918"><ele>804.8</ele><time>2026-05-02T10:09:44.154Z</time></trkpt><trkpt lat="42.2385626" lon="13.7694023"><ele>804.6</ele><time>2026-05-02T10:09:45.156Z</time></trkpt><trkpt lat="42.2384711" lon="13.7694093"><ele>804.4000000000001</ele><time>2026-05-02T10:09:46.152Z</time></trkpt><trkpt lat="42.2383764" lon="13.7694318"><ele>804.2</ele><time>2026-05-02T10:09:47.154Z</time></trkpt><trkpt lat="42.2382719" lon="13.7694772"><ele>804.0</ele><time>2026-05-02T10:09:48.154Z</time></trkpt><trkpt lat="42.2381783" lon="13.7695342"><ele>807.4000000000001</ele><time>2026-05-02T10:09:49.155Z</time></trkpt><trkpt lat="42.2380824" lon="13.7695807"><ele>810.8</ele><time>2026-05-02T10:09:50.155Z</time></trkpt><trkpt lat="42.2379758" lon="13.7696367"><ele>814.2</ele><time>2026-05-02T10:09:51.156Z</time></trkpt><trkpt lat="42.2378726" lon="13.7697065"><ele>817.5999999999999</ele><time>2026-05-02T10:09:52.157Z</time></trkpt><trkpt lat="42.2377774" lon="13.7697749"><ele>821.0</ele><time>2026-05-02T10:09:53.155Z</time></trkpt><trkpt lat="42.2376903" lon="13.7698348"><ele>821.0000000000001</ele><time>2026-05-02T10:09:54.151Z</time></trkpt><trkpt lat="42.2376129" lon="13.7698807"><ele>821.0</ele><time>2026-05-02T10:09:55.152Z</time></trkpt><trkpt lat="42.2375238" lon="13.7699112"><ele>821.0</ele><time>2026-05-02T10:09:56.151Z</time></trkpt><trkpt lat="42.237438" lon="13.7699261"><ele>821.0</ele><time>2026-05-02T10:09:57.152Z</time></trkpt><trkpt lat="42.2373614" lon="13.769928"><ele>821.0000000000001</ele><time>2026-05-02T10:09:58.151Z</time></trkpt><trkpt lat="42.2372928" lon="13.7699299"><ele>821.0</ele><time>2026-05-02T10:09:59.15Z</time></trkpt><trkpt lat="42.2372293" lon="13.7699452"><ele>822.4</ele><time>2026-05-02T10:10:00.155Z</time></trkpt><trkpt lat="42.2371643" lon="13.7699606"><ele>823.8</ele><time>2026-05-02T10:10:01.156Z</time></trkpt><trkpt lat="42.2370631" lon="13.7700013"><ele>825.1999999999999</ele><time>2026-05-02T10:10:03.149Z</time></trkpt><trkpt lat="42.236952" lon="13.7700999"><ele>826.5999999999999</ele><time>2026-05-02T10:10:05.149Z</time></trkpt><trkpt lat="42.2368961" lon="13.7701696"><ele>828.0</ele><time>2026-05-02T10:10:06.151Z</time></trkpt><trkpt lat="42.2368402" lon="13.7702559"><ele>828.0</ele><time>2026-05-02T10:10:07.155Z</time></trkpt><trkpt lat="42.2367769" lon="13.7703345"><ele>828.0</ele><time>2026-05-02T10:10:08.149Z</time></trkpt><trkpt lat="42.2367102" lon="13.7703954"><ele>828.0</ele><time>2026-05-02T10:10:09.154Z</time></trkpt><trkpt lat="42.2366345" lon="13.7704428"><ele>828.0</ele><time>2026-05-02T10:10:10.151Z</time></trkpt><trkpt lat="42.2365545" lon="13.7704844"><ele>828.0</ele><time>2026-05-02T10:10:11.156Z</time></trkpt><trkpt lat="42.2364666" lon="13.7705223"><ele>828.0</ele><time>2026-05-02T10:10:12.146Z</time></trkpt><trkpt lat="42.2363764" lon="13.7705526"><ele>829.4</ele><time>2026-05-02T10:10:13.156Z</time></trkpt><trkpt lat="42.2362815" lon="13.7705674"><ele>830.8</ele><time>2026-05-02T10:10:14.158Z</time></trkpt><trkpt lat="42.236179" lon="13.7705814"><ele>832.2</ele><time>2026-05-02T10:10:15.157Z</time></trkpt><trkpt lat="42.2360823" lon="13.7705936"><ele>833.6</ele><time>2026-05-02T10:10:16.155Z</time></trkpt><trkpt lat="42.2360031" lon="13.7706036"><ele>835.0</ele><time>2026-05-02T10:10:17.158Z</time></trkpt><trkpt lat="42.2359044" lon="13.7706101"><ele>834.9999999999999</ele><time>2026-05-02T10:10:19.154Z</time></trkpt><trkpt lat="42.2358224" lon="13.7706256"><ele>835.0</ele><time>2026-05-02T10:16:10.163Z</time></trkpt><trkpt lat="42.2357939" lon="13.7707082"><ele>835.0</ele><time>2026-05-02T10:16:12.165Z</time></trkpt><trkpt lat="42.2357505" lon="13.7707781"><ele>835.0</ele><time>2026-05-02T10:16:32.167Z</time></trkpt><trkpt lat="42.2357622" lon="13.770906"><ele>834.9999999999999</ele><time>2026-05-02T10:16:34.164Z</time></trkpt><trkpt lat="42.2358047" lon="13.7710677"><ele>835.0</ele><time>2026-05-02T10:16:36.163Z</time></trkpt><trkpt lat="42.2358221" lon="13.7711676"><ele>834.8333333333333</ele><time>2026-05-02T10:16:37.161Z</time></trkpt><trkpt lat="42.2358352" lon="13.7712621"><ele>834.6666666666666</ele><time>2026-05-02T10:16:38.159Z</time></trkpt><trkpt lat="42.2358506" lon="13.7713461"><ele>834.5</ele><time>2026-05-02T10:16:39.16Z</time></trkpt><trkpt lat="42.2358681" lon="13.7714299"><ele>834.3333333333333</ele><time>2026-05-02T10:16:40.163Z</time></trkpt><trkpt lat="42.2358929" lon="13.7716037"><ele>834.1666666666666</ele><time>2026-05-02T10:16:42.154Z</time></trkpt><trkpt lat="42.2359003" lon="13.7717608"><ele>834.0</ele><time>2026-05-02T10:16:44.151Z</time></trkpt><trkpt lat="42.2358843" lon="13.771931"><ele>834.0</ele><time>2026-05-02T10:16:46.16Z</time></trkpt><trkpt lat="42.2358576" lon="13.7720168"><ele>834.0</ele><time>2026-05-02T10:16:47.167Z</time></trkpt><trkpt lat="42.2358257" lon="13.7720967"><ele>834.0</ele><time>2026-05-02T10:16:48.161Z</time></trkpt><trkpt lat="42.2357525" lon="13.7722122"><ele>834.0</ele><time>2026-05-02T10:16:50.164Z</time></trkpt><trkpt lat="42.2356921" lon="13.7722781"><ele>834.0</ele><time>2026-05-02T10:16:51.162Z</time></trkpt><trkpt lat="42.2356267" lon="13.772359"><ele>834.0</ele><time>2026-05-02T10:16:52.168Z</time></trkpt><trkpt lat="42.2355745" lon="13.772452"><ele>835.0</ele><time>2026-05-02T10:16:53.158Z</time></trkpt><trkpt lat="42.235528" lon="13.772559"><ele>836.0</ele><time>2026-05-02T10:16:54.161Z</time></trkpt><trkpt lat="42.2354857" lon="13.7726516"><ele>837.0</ele><time>2026-05-02T10:16:55.158Z</time></trkpt><trkpt lat="42.2354321" lon="13.7727371"><ele>838.0</ele><time>2026-05-02T10:16:56.162Z</time></trkpt><trkpt lat="42.2353639" lon="13.7728187"><ele>839.0</ele><time>2026-05-02T10:16:57.158Z</time></trkpt><trkpt lat="42.2352844" lon="13.7728979"><ele>840.0</ele><time>2026-05-02T10:16:58.161Z</time></trkpt><trkpt lat="42.2352066" lon="13.7729777"><ele>840.0</ele><time>2026-05-02T10:16:59.162Z</time></trkpt><trkpt lat="42.2351414" lon="13.7730549"><ele>840.0</ele><time>2026-05-02T10:17:00.149Z</time></trkpt><trkpt lat="42.2350823" lon="13.773147"><ele>840.0</ele><time>2026-05-02T10:17:01.157Z</time></trkpt><trkpt lat="42.2350367" lon="13.7732472"><ele>840.0</ele><time>2026-05-02T10:17:02.151Z</time></trkpt><trkpt lat="42.2349987" lon="13.7733409"><ele>840.0</ele><time>2026-05-02T10:17:03.148Z</time></trkpt><trkpt lat="42.2349697" lon="13.7734265"><ele>840.0</ele><time>2026-05-02T10:17:04.153Z</time></trkpt><trkpt lat="42.2349741" lon="13.7735115"><ele>840.6666666666666</ele><time>2026-05-02T10:17:05.155Z</time></trkpt><trkpt lat="42.2349957" lon="13.7736179"><ele>841.3333333333333</ele><time>2026-05-02T10:17:06.155Z</time></trkpt><trkpt lat="42.2350216" lon="13.7737331"><ele>842.0</ele><time>2026-05-02T10:17:07.156Z</time></trkpt><trkpt lat="42.2350562" lon="13.7738377"><ele>842.6666666666666</ele><time>2026-05-02T10:17:08.162Z</time></trkpt><trkpt lat="42.2350932" lon="13.7739295"><ele>843.3333333333333</ele><time>2026-05-02T10:17:09.159Z</time></trkpt><trkpt lat="42.235137" lon="13.7740058"><ele>844.0</ele><time>2026-05-02T10:17:10.157Z</time></trkpt><trkpt lat="42.235194" lon="13.774077"><ele>843.9999999999999</ele><time>2026-05-02T10:17:11.156Z</time></trkpt><trkpt lat="42.2352657" lon="13.7741433"><ele>844.0</ele><time>2026-05-02T10:17:12.158Z</time></trkpt><trkpt lat="42.2353299" lon="13.7742085"><ele>844.0</ele><time>2026-05-02T10:17:13.156Z</time></trkpt><trkpt lat="42.2353895" lon="13.7742765"><ele>844.0</ele><time>2026-05-02T10:17:14.163Z</time></trkpt><trkpt lat="42.235432" lon="13.7743409"><ele>843.9999999999999</ele><time>2026-05-02T10:17:15.159Z</time></trkpt><trkpt lat="42.2354769" lon="13.7745096"><ele>844.0</ele><time>2026-05-02T10:17:17.159Z</time></trkpt><trkpt lat="42.2354993" lon="13.7746012"><ele>843.6</ele><time>2026-05-02T10:17:18.158Z</time></trkpt><trkpt lat="42.235522" lon="13.7747042"><ele>843.2</ele><time>2026-05-02T10:17:19.16Z</time></trkpt><trkpt lat="42.2355425" lon="13.7748238"><ele>842.8000000000001</ele><time>2026-05-02T10:17:20.161Z</time></trkpt><trkpt lat="42.2355614" lon="13.77496"><ele>842.4000000000001</ele><time>2026-05-02T10:17:21.163Z</time></trkpt><trkpt lat="42.2355535" lon="13.7751068"><ele>842.0</ele><time>2026-05-02T10:17:22.161Z</time></trkpt><trkpt lat="42.2355354" lon="13.775263"><ele>842.0</ele><time>2026-05-02T10:17:23.155Z</time></trkpt><trkpt lat="42.235511" lon="13.7754056"><ele>842.0</ele><time>2026-05-02T10:17:24.162Z</time></trkpt><trkpt lat="42.2354914" lon="13.7755347"><ele>842.0</ele><time>2026-05-02T10:17:25.157Z</time></trkpt><trkpt lat="42.2354603" lon="13.7756474"><ele>842.0</ele><time>2026-05-02T10:17:26.158Z</time></trkpt><trkpt lat="42.2354159" lon="13.7757558"><ele>842.0</ele><time>2026-05-02T10:17:27.156Z</time></trkpt><trkpt lat="42.2353557" lon="13.7758569"><ele>842.0</ele><time>2026-05-02T10:17:28.152Z</time></trkpt><trkpt lat="42.2352883" lon="13.7759443"><ele>842.0</ele><time>2026-05-02T10:17:29.166Z</time></trkpt><trkpt lat="42.2352115" lon="13.776022"><ele>842.0</ele><time>2026-05-02T10:17:30.154Z</time></trkpt><trkpt lat="42.2351236" lon="13.7760793"><ele>842.0</ele><time>2026-05-02T10:17:31.159Z</time></trkpt><trkpt lat="42.2350254" lon="13.7761167"><ele>842.0</ele><time>2026-05-02T10:17:32.156Z</time></trkpt><trkpt lat="42.2349266" lon="13.7761363"><ele>843.6666666666667</ele><time>2026-05-02T10:17:33.165Z</time></trkpt><trkpt lat="42.2348299" lon="13.7761498"><ele>845.3333333333334</ele><time>2026-05-02T10:17:34.157Z</time></trkpt><trkpt lat="42.2347411" lon="13.7761649"><ele>847.0</ele><time>2026-05-02T10:17:35.159Z</time></trkpt><trkpt lat="42.2346504" lon="13.7761838"><ele>848.6666666666667</ele><time>2026-05-02T10:17:36.144Z</time></trkpt><trkpt lat="42.2345699" lon="13.7761997"><ele>850.3333333333334</ele><time>2026-05-02T10:17:37.156Z</time></trkpt><trkpt lat="42.2344987" lon="13.7762143"><ele>852.0</ele><time>2026-05-02T10:17:38.146Z</time></trkpt><trkpt lat="42.2344313" lon="13.7762332"><ele>852.0</ele><time>2026-05-02T10:17:39.153Z</time></trkpt><trkpt lat="42.2343442" lon="13.7763167"><ele>852.0</ele><time>2026-05-02T10:17:41.15Z</time></trkpt><trkpt lat="42.234329" lon="13.7764602"><ele>852.0</ele><time>2026-05-02T10:17:43.138Z</time></trkpt><trkpt lat="42.234352" lon="13.776549"><ele>852.0</ele><time>2026-05-02T10:17:44.142Z</time></trkpt><trkpt lat="42.2344016" lon="13.7766486"><ele>852.0</ele><time>2026-05-02T10:17:45.147Z</time></trkpt><trkpt lat="42.2344625" lon="13.7767642"><ele>853.5</ele><time>2026-05-02T10:17:46.146Z</time></trkpt><trkpt lat="42.2345307" lon="13.7768864"><ele>855.0</ele><time>2026-05-02T10:17:47.151Z</time></trkpt><trkpt lat="42.2345987" lon="13.7770132"><ele>856.5</ele><time>2026-05-02T10:17:48.147Z</time></trkpt><trkpt lat="42.2346612" lon="13.7771506"><ele>858.0</ele><time>2026-05-02T10:17:49.138Z</time></trkpt><trkpt lat="42.2347288" lon="13.7772534"><ele>856.4</ele><time>2026-05-02T10:17:50.147Z</time></trkpt><trkpt lat="42.2348125" lon="13.7773427"><ele>854.8</ele><time>2026-05-02T10:17:51.147Z</time></trkpt><trkpt lat="42.2349038" lon="13.7774388"><ele>853.2</ele><time>2026-05-02T10:17:52.15Z</time></trkpt><trkpt lat="42.2349883" lon="13.7775401"><ele>851.6</ele><time>2026-05-02T10:17:53.155Z</time></trkpt><trkpt lat="42.2350678" lon="13.7776455"><ele>850.0</ele><time>2026-05-02T10:17:54.154Z</time></trkpt><trkpt lat="42.2351428" lon="13.7777402"><ele>849.9999999999999</ele><time>2026-05-02T10:17:55.154Z</time></trkpt><trkpt lat="42.2352053" lon="13.777831"><ele>850.0</ele><time>2026-05-02T10:17:56.164Z</time></trkpt><trkpt lat="42.2352568" lon="13.7779166"><ele>850.0</ele><time>2026-05-02T10:17:57.157Z</time></trkpt><trkpt lat="42.2352997" lon="13.7780024"><ele>850.0</ele><time>2026-05-02T10:17:58.162Z</time></trkpt><trkpt lat="42.2353334" lon="13.7780934"><ele>849.9999999999999</ele><time>2026-05-02T10:17:59.152Z</time></trkpt><trkpt lat="42.2353477" lon="13.7781849"><ele>850.0</ele><time>2026-05-02T10:18:00.161Z</time></trkpt><trkpt lat="42.2353492" lon="13.7782802"><ele>849.9999999999999</ele><time>2026-05-02T10:18:01.159Z</time></trkpt><trkpt lat="42.2353399" lon="13.7783914"><ele>850.0</ele><time>2026-05-02T10:18:02.162Z</time></trkpt><trkpt lat="42.2353284" lon="13.7785202"><ele>850.0</ele><time>2026-05-02T10:18:03.159Z</time></trkpt><trkpt lat="42.2353063" lon="13.7786418"><ele>850.0</ele><time>2026-05-02T10:18:04.16Z</time></trkpt><trkpt lat="42.2352749" lon="13.7787556"><ele>849.9999999999999</ele><time>2026-05-02T10:18:05.161Z</time></trkpt><trkpt lat="42.2352336" lon="13.778846"><ele>850.0</ele><time>2026-05-02T10:18:06.158Z</time></trkpt><trkpt lat="42.23518" lon="13.7789304"><ele>849.8</ele><time>2026-05-02T10:18:07.155Z</time></trkpt><trkpt lat="42.2351175" lon="13.7790103"><ele>849.6</ele><time>2026-05-02T10:18:08.162Z</time></trkpt><trkpt lat="42.2350463" lon="13.7790913"><ele>849.4000000000001</ele><time>2026-05-02T10:18:09.158Z</time></trkpt><trkpt lat="42.23497" lon="13.7791762"><ele>849.2</ele><time>2026-05-02T10:18:10.161Z</time></trkpt><trkpt lat="42.2348874" lon="13.7792602"><ele>849.0</ele><time>2026-05-02T10:18:11.163Z</time></trkpt><trkpt lat="42.2347982" lon="13.7793457"><ele>848.8000000000001</ele><time>2026-05-02T10:18:12.167Z</time></trkpt><trkpt lat="42.2347033" lon="13.7794265"><ele>848.6</ele><time>2026-05-02T10:18:13.16Z</time></trkpt><trkpt lat="42.2346105" lon="13.7795042"><ele>848.4</ele><time>2026-05-02T10:18:14.163Z</time></trkpt><trkpt lat="42.2345201" lon="13.7795724"><ele>848.2</ele><time>2026-05-02T10:18:15.16Z</time></trkpt><trkpt lat="42.2344308" lon="13.7796432"><ele>848.0</ele><time>2026-05-02T10:18:16.164Z</time></trkpt><trkpt lat="42.2343489" lon="13.7797123"><ele>848.0000000000001</ele><time>2026-05-02T10:18:17.165Z</time></trkpt><trkpt lat="42.2342705" lon="13.7797766"><ele>848.0</ele><time>2026-05-02T10:18:18.164Z</time></trkpt><trkpt lat="42.234202" lon="13.7798271"><ele>848.0</ele><time>2026-05-02T10:18:19.163Z</time></trkpt><trkpt lat="42.2340855" lon="13.7798876"><ele>848.0</ele><time>2026-05-02T10:18:21.163Z</time></trkpt><trkpt lat="42.2340187" lon="13.7799159"><ele>848.0000000000001</ele><time>2026-05-02T10:18:22.167Z</time></trkpt><trkpt lat="42.2339517" lon="13.779948"><ele>848.0</ele><time>2026-05-02T10:18:23.158Z</time></trkpt><trkpt lat="42.2338923" lon="13.7799866"><ele>847.1666666666667</ele><time>2026-05-02T10:18:24.158Z</time></trkpt><trkpt lat="42.2338262" lon="13.7800999"><ele>846.3333333333334</ele><time>2026-05-02T10:18:26.161Z</time></trkpt><trkpt lat="42.2338445" lon="13.7802318"><ele>845.5</ele><time>2026-05-02T10:18:28.153Z</time></trkpt><trkpt lat="42.2338861" lon="13.780305"><ele>844.6666666666667</ele><time>2026-05-02T10:18:29.16Z</time></trkpt><trkpt lat="42.2339351" lon="13.7803946"><ele>843.8333333333334</ele><time>2026-05-02T10:18:30.158Z</time></trkpt><trkpt lat="42.2339785" lon="13.7804991"><ele>843.0</ele><time>2026-05-02T10:18:31.159Z</time></trkpt><trkpt lat="42.2340061" lon="13.7806044"><ele>843.0</ele><time>2026-05-02T10:18:32.162Z</time></trkpt><trkpt lat="42.2340225" lon="13.7807223"><ele>843.0</ele><time>2026-05-02T10:18:33.157Z</time></trkpt><trkpt lat="42.2340244" lon="13.7808545"><ele>843.0</ele><time>2026-05-02T10:18:34.163Z</time></trkpt><trkpt lat="42.234015" lon="13.7809891"><ele>843.0</ele><time>2026-05-02T10:18:35.16Z</time></trkpt><trkpt lat="42.234009" lon="13.781128"><ele>843.0</ele><time>2026-05-02T10:18:36.162Z</time></trkpt><trkpt lat="42.2340086" lon="13.7812628"><ele>843.1666666666666</ele><time>2026-05-02T10:18:37.16Z</time></trkpt><trkpt lat="42.2340086" lon="13.7813809"><ele>843.3333333333333</ele><time>2026-05-02T10:18:38.157Z</time></trkpt><trkpt lat="42.2340193" lon="13.7814729"><ele>843.5</ele><time>2026-05-02T10:18:39.156Z</time></trkpt><trkpt lat="42.2340381" lon="13.7815947"><ele>843.6666666666666</ele><time>2026-05-02T10:18:41.159Z</time></trkpt><trkpt lat="42.2340281" lon="13.7816959"><ele>843.8333333333333</ele><time>2026-05-02T10:18:44.163Z</time></trkpt><trkpt lat="42.2339625" lon="13.7816715"><ele>844.0</ele><time>2026-05-02T10:18:48.159Z</time></trkpt><trkpt lat="42.2339377" lon="13.7815664"><ele>843.9999999999999</ele><time>2026-05-02T10:18:50.159Z</time></trkpt><trkpt lat="42.2339326" lon="13.7814728"><ele>844.0</ele><time>2026-05-02T10:18:51.162Z</time></trkpt><trkpt lat="42.2339103" lon="13.7813761"><ele>844.0</ele><time>2026-05-02T10:18:52.164Z</time></trkpt><trkpt lat="42.2338736" lon="13.7812764"><ele>844.0</ele><time>2026-05-02T10:18:53.164Z</time></trkpt><trkpt lat="42.233829" lon="13.7811781"><ele>843.9999999999999</ele><time>2026-05-02T10:18:54.164Z</time></trkpt><trkpt lat="42.2337797" lon="13.7810826"><ele>844.0</ele><time>2026-05-02T10:18:55.161Z</time></trkpt><trkpt lat="42.2337284" lon="13.7809922"><ele>846.2</ele><time>2026-05-02T10:18:56.165Z</time></trkpt><trkpt lat="42.2336694" lon="13.7808981"><ele>848.4000000000001</ele><time>2026-05-02T10:18:57.16Z</time></trkpt><trkpt lat="42.2336091" lon="13.7807919"><ele>850.6</ele><time>2026-05-02T10:18:58.162Z</time></trkpt><trkpt lat="42.233539" lon="13.7806745"><ele>852.8</ele><time>2026-05-02T10:18:59.16Z</time></trkpt><trkpt lat="42.233464" lon="13.7805624"><ele>855.0</ele><time>2026-05-02T10:19:00.161Z</time></trkpt><trkpt lat="42.233392" lon="13.7804755"><ele>855.0</ele><time>2026-05-02T10:19:01.16Z</time></trkpt><trkpt lat="42.2333115" lon="13.7803908"><ele>855.0</ele><time>2026-05-02T10:19:02.158Z</time></trkpt><trkpt lat="42.2332327" lon="13.7803128"><ele>855.0</ele><time>2026-05-02T10:19:03.158Z</time></trkpt><trkpt lat="42.2331637" lon="13.7802328"><ele>855.0</ele><time>2026-05-02T10:19:04.152Z</time></trkpt><trkpt lat="42.2331078" lon="13.7801489"><ele>855.0</ele><time>2026-05-02T10:19:05.154Z</time></trkpt><trkpt lat="42.2330501" lon="13.7800466"><ele>857.8333333333334</ele><time>2026-05-02T10:19:06.156Z</time></trkpt><trkpt lat="42.2329928" lon="13.7799447"><ele>860.6666666666667</ele><time>2026-05-02T10:19:07.157Z</time></trkpt><trkpt lat="42.2329382" lon="13.7798552"><ele>863.5</ele><time>2026-05-02T10:19:08.151Z</time></trkpt><trkpt lat="42.2328873" lon="13.7797825"><ele>866.3333333333334</ele><time>2026-05-02T10:19:09.158Z</time></trkpt><trkpt lat="42.2328308" lon="13.7797178"><ele>869.1666666666667</ele><time>2026-05-02T10:19:10.161Z</time></trkpt><trkpt lat="42.2327724" lon="13.7796502"><ele>872.0</ele><time>2026-05-02T10:19:11.161Z</time></trkpt><trkpt lat="42.2327165" lon="13.7795886"><ele>872.0000000000001</ele><time>2026-05-02T10:19:12.159Z</time></trkpt><trkpt lat="42.232651" lon="13.7795331"><ele>872.0</ele><time>2026-05-02T10:19:13.159Z</time></trkpt><trkpt lat="42.2325862" lon="13.7794877"><ele>872.0</ele><time>2026-05-02T10:19:14.164Z</time></trkpt><trkpt lat="42.2325239" lon="13.7794538"><ele>872.0</ele><time>2026-05-02T10:19:15.154Z</time></trkpt><trkpt lat="42.2324232" lon="13.7794149"><ele>872.0000000000001</ele><time>2026-05-02T10:19:17.161Z</time></trkpt><trkpt lat="42.2323073" lon="13.7793769"><ele>872.0</ele><time>2026-05-02T10:19:19.161Z</time></trkpt><trkpt lat="42.2322381" lon="13.7793493"><ele>875.0</ele><time>2026-05-02T10:19:20.163Z</time></trkpt><trkpt lat="42.2321595" lon="13.7793194"><ele>878.0</ele><time>2026-05-02T10:19:21.163Z</time></trkpt><trkpt lat="42.2320707" lon="13.779291"><ele>881.0</ele><time>2026-05-02T10:19:22.166Z</time></trkpt><trkpt lat="42.2319814" lon="13.7792631"><ele>884.0</ele><time>2026-05-02T10:19:23.163Z</time></trkpt><trkpt lat="42.2318872" lon="13.7792297"><ele>887.0</ele><time>2026-05-02T10:19:24.163Z</time></trkpt><trkpt lat="42.2317931" lon="13.7791854"><ele>887.0000000000001</ele><time>2026-05-02T10:19:25.166Z</time></trkpt><trkpt lat="42.2317082" lon="13.7791393"><ele>887.0</ele><time>2026-05-02T10:19:26.166Z</time></trkpt><trkpt lat="42.2316376" lon="13.7790857"><ele>887.0</ele><time>2026-05-02T10:19:27.162Z</time></trkpt><trkpt lat="42.2315699" lon="13.7790198"><ele>887.0</ele><time>2026-05-02T10:19:28.165Z</time></trkpt><trkpt lat="42.2314926" lon="13.7789407"><ele>887.0000000000001</ele><time>2026-05-02T10:19:29.162Z</time></trkpt><trkpt lat="42.2314227" lon="13.7788774"><ele>887.0</ele><time>2026-05-02T10:19:30.162Z</time></trkpt><trkpt lat="42.2313226" lon="13.7787798"><ele>888.4000000000001</ele><time>2026-05-02T10:19:32.163Z</time></trkpt><trkpt lat="42.2312436" lon="13.7786426"><ele>889.8000000000001</ele><time>2026-05-02T10:19:34.158Z</time></trkpt><trkpt lat="42.2311533" lon="13.7785157"><ele>891.2</ele><time>2026-05-02T10:19:36.155Z</time></trkpt><trkpt lat="42.2310972" lon="13.7784646"><ele>892.6</ele><time>2026-05-02T10:19:37.15Z</time></trkpt><trkpt lat="42.2309818" lon="13.7784468"><ele>894.0</ele><time>2026-05-02T10:19:39.154Z</time></trkpt><trkpt lat="42.2309146" lon="13.7784794"><ele>896.4000000000001</ele><time>2026-05-02T10:19:40.163Z</time></trkpt><trkpt lat="42.2308476" lon="13.7785097"><ele>898.8000000000001</ele><time>2026-05-02T10:19:41.155Z</time></trkpt><trkpt lat="42.2307331" lon="13.7785037"><ele>901.1999999999999</ele><time>2026-05-02T10:19:43.156Z</time></trkpt><trkpt lat="42.2306104" lon="13.7784218"><ele>903.5999999999999</ele><time>2026-05-02T10:19:45.159Z</time></trkpt><trkpt lat="42.2305311" lon="13.7783767"><ele>906.0</ele><time>2026-05-02T10:19:46.155Z</time></trkpt><trkpt lat="42.230443" lon="13.7783314"><ele>907.3333333333334</ele><time>2026-05-02T10:19:47.158Z</time></trkpt><trkpt lat="42.2303552" lon="13.7782836"><ele>908.6666666666667</ele><time>2026-05-02T10:19:48.16Z</time></trkpt><trkpt lat="42.2302764" lon="13.7782515"><ele>910.0</ele><time>2026-05-02T10:19:49.155Z</time></trkpt><trkpt lat="42.2301963" lon="13.7782385"><ele>911.3333333333334</ele><time>2026-05-02T10:19:50.157Z</time></trkpt><trkpt lat="42.2301086" lon="13.7782438"><ele>912.6666666666667</ele><time>2026-05-02T10:19:51.157Z</time></trkpt><trkpt lat="42.2300288" lon="13.7782628"><ele>914.0</ele><time>2026-05-02T10:19:52.155Z</time></trkpt><trkpt lat="42.2299556" lon="13.7782654"><ele>914.0000000000001</ele><time>2026-05-02T10:19:53.157Z</time></trkpt><trkpt lat="42.2298915" lon="13.7782359"><ele>914.0</ele><time>2026-05-02T10:19:54.153Z</time></trkpt><trkpt lat="42.2298288" lon="13.7781855"><ele>914.0</ele><time>2026-05-02T10:19:55.162Z</time></trkpt><trkpt lat="42.2297542" lon="13.7781203"><ele>914.0</ele><time>2026-05-02T10:19:56.164Z</time></trkpt><trkpt lat="42.2296711" lon="13.7780481"><ele>914.0000000000001</ele><time>2026-05-02T10:19:57.159Z</time></trkpt><trkpt lat="42.2295933" lon="13.7779847"><ele>914.0</ele><time>2026-05-02T10:19:58.161Z</time></trkpt><trkpt lat="42.2295116" lon="13.7779261"><ele>914.5000000000001</ele><time>2026-05-02T10:19:59.159Z</time></trkpt><trkpt lat="42.2294376" lon="13.77788"><ele>915.0</ele><time>2026-05-02T10:20:00.156Z</time></trkpt><trkpt lat="42.2293673" lon="13.7778489"><ele>915.5</ele><time>2026-05-02T10:20:01.154Z</time></trkpt><trkpt lat="42.2292586" lon="13.777849"><ele>916.0</ele><time>2026-05-02T10:20:03.154Z</time></trkpt><trkpt lat="42.2291933" lon="13.7778925"><ele>916.5000000000001</ele><time>2026-05-02T10:20:04.154Z</time></trkpt><trkpt lat="42.2291125" lon="13.7779324"><ele>917.0</ele><time>2026-05-02T10:20:05.153Z</time></trkpt><trkpt lat="42.2290264" lon="13.7779573"><ele>917.1666666666667</ele><time>2026-05-02T10:20:06.155Z</time></trkpt><trkpt lat="42.2289413" lon="13.7779464"><ele>917.3333333333334</ele><time>2026-05-02T10:20:07.155Z</time></trkpt><trkpt lat="42.2288717" lon="13.7779136"><ele>917.5</ele><time>2026-05-02T10:20:08.152Z</time></trkpt><trkpt lat="42.2288106" lon="13.7778579"><ele>917.6666666666667</ele><time>2026-05-02T10:20:09.161Z</time></trkpt><trkpt lat="42.2287563" lon="13.7777758"><ele>917.8333333333334</ele><time>2026-05-02T10:20:10.159Z</time></trkpt><trkpt lat="42.2287094" lon="13.7776797"><ele>918.0</ele><time>2026-05-02T10:20:11.161Z</time></trkpt><trkpt lat="42.2286616" lon="13.7775878"><ele>918.2</ele><time>2026-05-02T10:20:12.157Z</time></trkpt><trkpt lat="42.2286217" lon="13.7775181"><ele>918.4</ele><time>2026-05-02T10:20:13.154Z</time></trkpt><trkpt lat="42.2285095" lon="13.7774498"><ele>918.6000000000001</ele><time>2026-05-02T10:20:15.151Z</time></trkpt><trkpt lat="42.2284217" lon="13.7774482"><ele>918.8000000000001</ele><time>2026-05-02T10:20:16.155Z</time></trkpt><trkpt lat="42.2283142" lon="13.7774577"><ele>919.0</ele><time>2026-05-02T10:20:17.153Z</time></trkpt><trkpt lat="42.2282006" lon="13.7774734"><ele>919.0</ele><time>2026-05-02T10:20:18.16Z</time></trkpt><trkpt lat="42.2280872" lon="13.7775015"><ele>919.0000000000001</ele><time>2026-05-02T10:20:19.158Z</time></trkpt><trkpt lat="42.2279831" lon="13.7775358"><ele>919.0000000000001</ele><time>2026-05-02T10:20:20.159Z</time></trkpt><trkpt lat="42.2278914" lon="13.7775865"><ele>919.0</ele><time>2026-05-02T10:20:21.16Z</time></trkpt><trkpt lat="42.2278053" lon="13.7776503"><ele>919.0</ele><time>2026-05-02T10:20:22.166Z</time></trkpt><trkpt lat="42.2277142" lon="13.7777245"><ele>919.0</ele><time>2026-05-02T10:20:23.164Z</time></trkpt><trkpt lat="42.2276145" lon="13.7777953"><ele>919.0000000000001</ele><time>2026-05-02T10:20:24.164Z</time></trkpt><trkpt lat="42.2275205" lon="13.7778744"><ele>919.0000000000001</ele><time>2026-05-02T10:20:25.164Z</time></trkpt><trkpt lat="42.2274318" lon="13.7779524"><ele>919.0</ele><time>2026-05-02T10:20:26.17Z</time></trkpt><trkpt lat="42.2273518" lon="13.7780252"><ele>919.0</ele><time>2026-05-02T10:20:27.16Z</time></trkpt><trkpt lat="42.2272809" lon="13.7780861"><ele>919.0</ele><time>2026-05-02T10:20:28.162Z</time></trkpt><trkpt lat="42.2272089" lon="13.7781584"><ele>919.0000000000001</ele><time>2026-05-02T10:20:29.163Z</time></trkpt><trkpt lat="42.2271256" lon="13.7782475"><ele>919.0000000000001</ele><time>2026-05-02T10:20:30.161Z</time></trkpt><trkpt lat="42.2270306" lon="13.7783346"><ele>919.0</ele><time>2026-05-02T10:20:31.168Z</time></trkpt><trkpt lat="42.2269352" lon="13.7784253"><ele>919.0</ele><time>2026-05-02T10:20:32.166Z</time></trkpt><trkpt lat="42.2268355" lon="13.7785134"><ele>919.5</ele><time>2026-05-02T10:20:33.169Z</time></trkpt><trkpt lat="42.2267343" lon="13.7785975"><ele>920.0</ele><time>2026-05-02T10:20:34.163Z</time></trkpt><trkpt lat="42.2266339" lon="13.7786838"><ele>920.5</ele><time>2026-05-02T10:20:35.168Z</time></trkpt><trkpt lat="42.2265381" lon="13.7787704"><ele>921.0</ele><time>2026-05-02T10:20:36.168Z</time></trkpt><trkpt lat="42.2264373" lon="13.7788587"><ele>918.5</ele><time>2026-05-02T10:20:37.167Z</time></trkpt><trkpt lat="42.2263387" lon="13.7789538"><ele>916.0</ele><time>2026-05-02T10:20:38.164Z</time></trkpt><trkpt lat="42.2262428" lon="13.7790582"><ele>913.5</ele><time>2026-05-02T10:20:39.159Z</time></trkpt><trkpt lat="42.2261458" lon="13.7791677"><ele>911.0</ele><time>2026-05-02T10:20:40.163Z</time></trkpt><trkpt lat="42.2260562" lon="13.7792707"><ele>912.5</ele><time>2026-05-02T10:20:41.164Z</time></trkpt><trkpt lat="42.2259768" lon="13.7793759"><ele>914.0</ele><time>2026-05-02T10:20:42.163Z</time></trkpt><trkpt lat="42.2259003" lon="13.7794887"><ele>915.5</ele><time>2026-05-02T10:20:43.169Z</time></trkpt><trkpt lat="42.2258278" lon="13.7796065"><ele>917.0</ele><time>2026-05-02T10:20:44.167Z</time></trkpt><trkpt lat="42.2257537" lon="13.7797339"><ele>917.0</ele><time>2026-05-02T10:20:45.166Z</time></trkpt><trkpt lat="42.2256742" lon="13.7798542"><ele>917.0</ele><time>2026-05-02T10:20:46.166Z</time></trkpt><trkpt lat="42.2255916" lon="13.7799729"><ele>917.0</ele><time>2026-05-02T10:20:47.171Z</time></trkpt><trkpt lat="42.2255149" lon="13.7800896"><ele>917.0</ele><time>2026-05-02T10:20:48.166Z</time></trkpt><trkpt lat="42.2254453" lon="13.7802025"><ele>915.0</ele><time>2026-05-02T10:20:49.165Z</time></trkpt><trkpt lat="42.2253825" lon="13.7803098"><ele>913.0</ele><time>2026-05-02T10:20:50.167Z</time></trkpt><trkpt lat="42.2253253" lon="13.7804194"><ele>911.0</ele><time>2026-05-02T10:20:51.168Z</time></trkpt><trkpt lat="42.2252659" lon="13.7805296"><ele>909.0</ele><time>2026-05-02T10:20:52.171Z</time></trkpt><trkpt lat="42.2252083" lon="13.7806479"><ele>907.0</ele><time>2026-05-02T10:20:53.165Z</time></trkpt><trkpt lat="42.2251514" lon="13.780761"><ele>906.9999999999999</ele><time>2026-05-02T10:20:54.16Z</time></trkpt><trkpt lat="42.2250966" lon="13.7808667"><ele>907.0</ele><time>2026-05-02T10:20:55.166Z</time></trkpt><trkpt lat="42.225038" lon="13.7809601"><ele>907.0</ele><time>2026-05-02T10:20:56.169Z</time></trkpt><trkpt lat="42.2249802" lon="13.7810395"><ele>907.0</ele><time>2026-05-02T10:20:57.164Z</time></trkpt><trkpt lat="42.2249228" lon="13.7811112"><ele>906.9999999999999</ele><time>2026-05-02T10:20:58.168Z</time></trkpt><trkpt lat="42.2248707" lon="13.7811777"><ele>907.0</ele><time>2026-05-02T10:20:59.162Z</time></trkpt><trkpt lat="42.224819" lon="13.7812413"><ele>903.8333333333333</ele><time>2026-05-02T10:21:00.168Z</time></trkpt><trkpt lat="42.2247706" lon="13.7813068"><ele>900.6666666666666</ele><time>2026-05-02T10:21:01.167Z</time></trkpt><trkpt lat="42.2247255" lon="13.7813757"><ele>897.5</ele><time>2026-05-02T10:21:02.159Z</time></trkpt><trkpt lat="42.2246798" lon="13.781464"><ele>894.3333333333333</ele><time>2026-05-02T10:21:03.156Z</time></trkpt><trkpt lat="42.2246392" lon="13.7815685"><ele>891.1666666666666</ele><time>2026-05-02T10:21:04.162Z</time></trkpt><trkpt lat="42.2246099" lon="13.7816959"><ele>888.0</ele><time>2026-05-02T10:21:05.157Z</time></trkpt><trkpt lat="42.2245838" lon="13.7818235"><ele>887.5999999999999</ele><time>2026-05-02T10:21:06.159Z</time></trkpt><trkpt lat="42.2245488" lon="13.7819421"><ele>887.1999999999999</ele><time>2026-05-02T10:21:07.163Z</time></trkpt><trkpt lat="42.2245017" lon="13.7820585"><ele>886.8</ele><time>2026-05-02T10:21:08.162Z</time></trkpt><trkpt lat="42.2244437" lon="13.7821696"><ele>886.4</ele><time>2026-05-02T10:21:09.162Z</time></trkpt><trkpt lat="42.2243923" lon="13.7822804"><ele>886.0</ele><time>2026-05-02T10:21:10.161Z</time></trkpt><trkpt lat="42.2243523" lon="13.7823944"><ele>886.0</ele><time>2026-05-02T10:21:11.158Z</time></trkpt><trkpt lat="42.2243179" lon="13.7825155"><ele>885.9999999999999</ele><time>2026-05-02T10:21:12.16Z</time></trkpt><trkpt lat="42.2242939" lon="13.782628"><ele>885.9999999999999</ele><time>2026-05-02T10:21:13.158Z</time></trkpt><trkpt lat="42.2242853" lon="13.782743"><ele>886.0</ele><time>2026-05-02T10:21:14.158Z</time></trkpt><trkpt lat="42.2242848" lon="13.7828487"><ele>886.0</ele><time>2026-05-02T10:21:15.157Z</time></trkpt><trkpt lat="42.2242741" lon="13.7829874"><ele>886.0</ele><time>2026-05-02T10:21:17.165Z</time></trkpt><trkpt lat="42.224206" lon="13.7829879"><ele>885.9999999999999</ele><time>2026-05-02T10:21:19.159Z</time></trkpt><trkpt lat="42.2241342" lon="13.7828437"><ele>885.9999999999999</ele><time>2026-05-02T10:21:21.154Z</time></trkpt><trkpt lat="42.2240895" lon="13.7827248"><ele>886.0</ele><time>2026-05-02T10:21:22.156Z</time></trkpt><trkpt lat="42.2240315" lon="13.7825794"><ele>886.0</ele><time>2026-05-02T10:21:23.16Z</time></trkpt><trkpt lat="42.2239735" lon="13.7824303"><ele>880.4</ele><time>2026-05-02T10:21:24.158Z</time></trkpt><trkpt lat="42.2239252" lon="13.7822871"><ele>874.8</ele><time>2026-05-02T10:21:25.159Z</time></trkpt><trkpt lat="42.2238804" lon="13.7821517"><ele>869.1999999999999</ele><time>2026-05-02T10:21:26.163Z</time></trkpt><trkpt lat="42.2238414" lon="13.7820369"><ele>863.5999999999999</ele><time>2026-05-02T10:21:27.157Z</time></trkpt><trkpt lat="42.2238043" lon="13.781942"><ele>858.0</ele><time>2026-05-02T10:21:28.154Z</time></trkpt><trkpt lat="42.2237656" lon="13.7818731"><ele>858.0</ele><time>2026-05-02T10:21:29.163Z</time></trkpt><trkpt lat="42.2236728" lon="13.7818704"><ele>858.0</ele><time>2026-05-02T10:21:31.163Z</time></trkpt><trkpt lat="42.2236306" lon="13.7820229"><ele>858.0</ele><time>2026-05-02T10:21:33.151Z</time></trkpt><trkpt lat="42.2236195" lon="13.7821659"><ele>858.0</ele><time>2026-05-02T10:21:34.154Z</time></trkpt><trkpt lat="42.2236032" lon="13.7823009"><ele>858.0</ele><time>2026-05-02T10:21:35.152Z</time></trkpt><trkpt lat="42.2235834" lon="13.7824217"><ele>858.0</ele><time>2026-05-02T10:21:36.155Z</time></trkpt><trkpt lat="42.2235681" lon="13.7825307"><ele>858.0</ele><time>2026-05-02T10:21:37.142Z</time></trkpt><trkpt lat="42.2235242" lon="13.7826432"><ele>858.0</ele><time>2026-05-02T10:21:39.162Z</time></trkpt><trkpt lat="42.2234686" lon="13.7825464"><ele>858.0</ele><time>2026-05-02T10:21:41.159Z</time></trkpt><trkpt lat="42.2234304" lon="13.7824358"><ele>858.0</ele><time>2026-05-02T10:21:42.155Z</time></trkpt><trkpt lat="42.2233949" lon="13.7823167"><ele>858.0</ele><time>2026-05-02T10:21:43.156Z</time></trkpt><trkpt lat="42.2233615" lon="13.7821981"><ele>858.0</ele><time>2026-05-02T10:21:44.159Z</time></trkpt><trkpt lat="42.2233357" lon="13.7820882"><ele>858.0</ele><time>2026-05-02T10:21:45.152Z</time></trkpt><trkpt lat="42.2233206" lon="13.7819974"><ele>858.0</ele><time>2026-05-02T10:21:46.144Z</time></trkpt><trkpt lat="42.2232507" lon="13.7819507"><ele>858.0</ele><time>2026-05-02T10:21:48.158Z</time></trkpt><trkpt lat="42.2231903" lon="13.7819983"><ele>858.0</ele><time>2026-05-02T10:21:49.169Z</time></trkpt><trkpt lat="42.22313" lon="13.7820877"><ele>856.8</ele><time>2026-05-02T10:21:50.155Z</time></trkpt><trkpt lat="42.2230618" lon="13.7822148"><ele>855.5999999999999</ele><time>2026-05-02T10:21:51.154Z</time></trkpt><trkpt lat="42.2229887" lon="13.7823255"><ele>854.4000000000001</ele><time>2026-05-02T10:21:52.155Z</time></trkpt><trkpt lat="42.2229169" lon="13.7824169"><ele>853.2</ele><time>2026-05-02T10:21:53.157Z</time></trkpt><trkpt lat="42.2228465" lon="13.7824798"><ele>852.0</ele><time>2026-05-02T10:21:54.152Z</time></trkpt><trkpt lat="42.2227703" lon="13.7825075"><ele>852.0</ele><time>2026-05-02T10:21:55.149Z</time></trkpt><trkpt lat="42.222696" lon="13.7824924"><ele>852.0</ele><time>2026-05-02T10:21:56.165Z</time></trkpt><trkpt lat="42.2226293" lon="13.7824458"><ele>852.0</ele><time>2026-05-02T10:21:57.156Z</time></trkpt><trkpt lat="42.2225767" lon="13.7823615"><ele>852.0</ele><time>2026-05-02T10:21:58.147Z</time></trkpt><trkpt lat="42.222523" lon="13.7822825"><ele>852.0</ele><time>2026-05-02T10:21:59.158Z</time></trkpt><trkpt lat="42.2224613" lon="13.7822053"><ele>852.0</ele><time>2026-05-02T10:22:00.162Z</time></trkpt><trkpt lat="42.222397" lon="13.7821405"><ele>852.0</ele><time>2026-05-02T10:22:01.159Z</time></trkpt><trkpt lat="42.2223403" lon="13.7820866"><ele>852.0</ele><time>2026-05-02T10:22:02.159Z</time></trkpt><trkpt lat="42.222287" lon="13.7820349"><ele>852.0</ele><time>2026-05-02T10:22:03.158Z</time></trkpt><trkpt lat="42.2221834" lon="13.7819356"><ele>852.0</ele><time>2026-05-02T10:22:05.159Z</time></trkpt><trkpt lat="42.2220869" lon="13.7818331"><ele>852.0</ele><time>2026-05-02T10:22:07.158Z</time></trkpt><trkpt lat="42.2220114" lon="13.7817164"><ele>853.0</ele><time>2026-05-02T10:22:09.154Z</time></trkpt><trkpt lat="42.2219685" lon="13.7816089"><ele>854.0</ele><time>2026-05-02T10:22:11.151Z</time></trkpt><trkpt lat="42.2219414" lon="13.7814799"><ele>855.0</ele><time>2026-05-02T10:22:13.154Z</time></trkpt><trkpt lat="42.221912" lon="13.7813529"><ele>856.0</ele><time>2026-05-02T10:22:15.166Z</time></trkpt><trkpt lat="42.2218885" lon="13.7812273"><ele>857.0</ele><time>2026-05-02T10:22:17.161Z</time></trkpt><trkpt lat="42.2218631" lon="13.7811015"><ele>856.2</ele><time>2026-05-02T10:22:19.166Z</time></trkpt><trkpt lat="42.2218237" lon="13.7809935"><ele>855.4000000000001</ele><time>2026-05-02T10:22:21.152Z</time></trkpt><trkpt lat="42.2217849" lon="13.7808883"><ele>854.5999999999999</ele><time>2026-05-02T10:22:23.155Z</time></trkpt><trkpt lat="42.2217625" lon="13.7807532"><ele>853.8</ele><time>2026-05-02T10:22:25.156Z</time></trkpt><trkpt lat="42.221726" lon="13.7806154"><ele>853.0</ele><time>2026-05-02T10:22:27.154Z</time></trkpt><trkpt lat="42.2216832" lon="13.7804638"><ele>853.0</ele><time>2026-05-02T10:22:29.161Z</time></trkpt><trkpt lat="42.2216541" lon="13.7803841"><ele>853.0</ele><time>2026-05-02T10:22:30.154Z</time></trkpt><trkpt lat="42.2216219" lon="13.7803063"><ele>853.0</ele><time>2026-05-02T10:22:31.166Z</time></trkpt><trkpt lat="42.2215853" lon="13.7802344"><ele>853.0</ele><time>2026-05-02T10:22:32.158Z</time></trkpt><trkpt lat="42.2215491" lon="13.7801588"><ele>853.0</ele><time>2026-05-02T10:22:33.16Z</time></trkpt><trkpt lat="42.2215105" lon="13.7800816"><ele>853.0</ele><time>2026-05-02T10:22:34.15Z</time></trkpt><trkpt lat="42.2214704" lon="13.7800116"><ele>853.0</ele><time>2026-05-02T10:22:35.162Z</time></trkpt><trkpt lat="42.221431" lon="13.7799436"><ele>850.0</ele><time>2026-05-02T10:22:36.156Z</time></trkpt><trkpt lat="42.221378" lon="13.7798012"><ele>847.0</ele><time>2026-05-02T10:22:38.155Z</time></trkpt><trkpt lat="42.2213417" lon="13.7797234"><ele>844.0</ele><time>2026-05-02T10:22:40.155Z</time></trkpt><trkpt lat="42.2212797" lon="13.7797597"><ele>841.0</ele><time>2026-05-02T10:22:42.149Z</time></trkpt><trkpt lat="42.2211625" lon="13.7798201"><ele>838.0</ele><time>2026-05-02T10:22:44.156Z</time></trkpt><trkpt lat="42.2210974" lon="13.77986"><ele>838.0</ele><time>2026-05-02T10:22:45.149Z</time></trkpt><trkpt lat="42.2210223" lon="13.7799209"><ele>838.0</ele><time>2026-05-02T10:22:46.152Z</time></trkpt><trkpt lat="42.2209419" lon="13.7799878"><ele>838.0</ele><time>2026-05-02T10:22:47.15Z</time></trkpt><trkpt lat="42.220851" lon="13.7800645"><ele>838.0</ele><time>2026-05-02T10:22:48.149Z</time></trkpt><trkpt lat="42.2207621" lon="13.7801423"><ele>838.0</ele><time>2026-05-02T10:22:49.15Z</time></trkpt><trkpt lat="42.2206699" lon="13.7802198"><ele>837.75</ele><time>2026-05-02T10:22:50.147Z</time></trkpt><trkpt lat="42.2205711" lon="13.7802941"><ele>837.5</ele><time>2026-05-02T10:22:51.139Z</time></trkpt><trkpt lat="42.2204625" lon="13.7803687"><ele>837.25</ele><time>2026-05-02T10:22:52.145Z</time></trkpt><trkpt lat="42.2203546" lon="13.7804291"><ele>837.0</ele><time>2026-05-02T10:22:53.142Z</time></trkpt><trkpt lat="42.2202541" lon="13.7804719"><ele>837.0</ele><time>2026-05-02T10:22:54.145Z</time></trkpt><trkpt lat="42.2201651" lon="13.7804988"><ele>837.0</ele><time>2026-05-02T10:22:55.15Z</time></trkpt><trkpt lat="42.2200953" lon="13.7805029"><ele>837.0</ele><time>2026-05-02T10:22:56.141Z</time></trkpt><trkpt lat="42.2199946" lon="13.7804948"><ele>837.0</ele><time>2026-05-02T10:22:59.148Z</time></trkpt><trkpt lat="42.2199212" lon="13.7804752"><ele>837.0</ele><time>2026-05-02T10:23:01.15Z</time></trkpt><trkpt lat="42.2198592" lon="13.7804487"><ele>837.0</ele><time>2026-05-02T10:23:02.146Z</time></trkpt><trkpt lat="42.2197704" lon="13.7804141"><ele>835.5</ele><time>2026-05-02T10:23:03.142Z</time></trkpt><trkpt lat="42.2196891" lon="13.7803799"><ele>834.0</ele><time>2026-05-02T10:23:04.143Z</time></trkpt><trkpt lat="42.2196105" lon="13.7803355"><ele>832.5</ele><time>2026-05-02T10:23:05.144Z</time></trkpt><trkpt lat="42.2195419" lon="13.7802883"><ele>831.0</ele><time>2026-05-02T10:23:06.142Z</time></trkpt><trkpt lat="42.219489" lon="13.78022"><ele>829.5</ele><time>2026-05-02T10:23:08.148Z</time></trkpt><trkpt lat="42.2194259" lon="13.7801293"><ele>828.0</ele><time>2026-05-02T10:23:10.143Z</time></trkpt><trkpt lat="42.2193722" lon="13.7800568"><ele>823.5999999999999</ele><time>2026-05-02T10:23:11.143Z</time></trkpt><trkpt lat="42.2193057" lon="13.7799628"><ele>819.1999999999999</ele><time>2026-05-02T10:23:12.152Z</time></trkpt><trkpt lat="42.2192391" lon="13.7798661"><ele>814.8</ele><time>2026-05-02T10:23:13.15Z</time></trkpt><trkpt lat="42.2191709" lon="13.7797742"><ele>810.4</ele><time>2026-05-02T10:23:14.155Z</time></trkpt><trkpt lat="42.2191011" lon="13.7797008"><ele>806.0</ele><time>2026-05-02T10:23:15.155Z</time></trkpt><trkpt lat="42.2190192" lon="13.7796346"><ele>803.1999999999999</ele><time>2026-05-02T10:23:16.155Z</time></trkpt><trkpt lat="42.2189222" lon="13.77958"><ele>800.4</ele><time>2026-05-02T10:23:17.151Z</time></trkpt><trkpt lat="42.2188157" lon="13.7795462"><ele>797.6</ele><time>2026-05-02T10:23:18.158Z</time></trkpt><trkpt lat="42.2187027" lon="13.7795395"><ele>794.8</ele><time>2026-05-02T10:23:19.153Z</time></trkpt><trkpt lat="42.2185894" lon="13.7795517"><ele>792.0</ele><time>2026-05-02T10:23:20.156Z</time></trkpt><trkpt lat="42.2184808" lon="13.7795925"><ele>792.0</ele><time>2026-05-02T10:23:21.155Z</time></trkpt><trkpt lat="42.2183706" lon="13.7796519"><ele>792.0</ele><time>2026-05-02T10:23:22.158Z</time></trkpt><trkpt lat="42.2182555" lon="13.7797147"><ele>792.0</ele><time>2026-05-02T10:23:23.156Z</time></trkpt><trkpt lat="42.2181397" lon="13.7797691"><ele>792.0</ele><time>2026-05-02T10:23:24.155Z</time></trkpt><trkpt lat="42.2180261" lon="13.7798178"><ele>790.8</ele><time>2026-05-02T10:23:25.154Z</time></trkpt><trkpt lat="42.2179203" lon="13.7798625"><ele>789.6</ele><time>2026-05-02T10:23:26.156Z</time></trkpt><trkpt lat="42.2178288" lon="13.779895"><ele>788.4</ele><time>2026-05-02T10:23:27.152Z</time></trkpt><trkpt lat="42.2177444" lon="13.7799117"><ele>787.1999999999999</ele><time>2026-05-02T10:23:28.146Z</time></trkpt><trkpt lat="42.2176505" lon="13.7798914"><ele>786.0</ele><time>2026-05-02T10:23:29.147Z</time></trkpt><trkpt lat="42.2175692" lon="13.7798427"><ele>786.0</ele><time>2026-05-02T10:23:30.152Z</time></trkpt><trkpt lat="42.2174979" lon="13.7797352"><ele>786.0</ele><time>2026-05-02T10:23:31.157Z</time></trkpt><trkpt lat="42.2174626" lon="13.7796141"><ele>786.0</ele><time>2026-05-02T10:23:32.147Z</time></trkpt><trkpt lat="42.2174416" lon="13.779474"><ele>786.0</ele><time>2026-05-02T10:23:33.157Z</time></trkpt><trkpt lat="42.2174357" lon="13.7793079"><ele>786.0</ele><time>2026-05-02T10:23:34.155Z</time></trkpt><trkpt lat="42.2174316" lon="13.7791397"><ele>781.0</ele><time>2026-05-02T10:23:35.164Z</time></trkpt><trkpt lat="42.2174226" lon="13.7789772"><ele>776.0</ele><time>2026-05-02T10:23:36.155Z</time></trkpt><trkpt lat="42.2174056" lon="13.7788329"><ele>771.0</ele><time>2026-05-02T10:23:37.16Z</time></trkpt><trkpt lat="42.2173736" lon="13.7786894"><ele>766.0</ele><time>2026-05-02T10:23:38.162Z</time></trkpt><trkpt lat="42.2173207" lon="13.7785393"><ele>763.5</ele><time>2026-05-02T10:23:39.154Z</time></trkpt><trkpt lat="42.2172521" lon="13.7783862"><ele>761.0</ele><time>2026-05-02T10:23:40.154Z</time></trkpt><trkpt lat="42.2171831" lon="13.7782183"><ele>758.5</ele><time>2026-05-02T10:23:41.169Z</time></trkpt><trkpt lat="42.2171026" lon="13.7780424"><ele>756.0</ele><time>2026-05-02T10:23:42.166Z</time></trkpt><trkpt lat="42.2170433" lon="13.7778902"><ele>756.0</ele><time>2026-05-02T10:23:43.161Z</time></trkpt><trkpt lat="42.2169827" lon="13.7777721"><ele>756.0</ele><time>2026-05-02T10:23:44.166Z</time></trkpt><trkpt lat="42.2169378" lon="13.7776698"><ele>756.0</ele><time>2026-05-02T10:23:45.17Z</time></trkpt><trkpt lat="42.2168471" lon="13.777597"><ele>756.0</ele><time>2026-05-02T10:23:46.168Z</time></trkpt><trkpt lat="42.2167672" lon="13.7775161"><ele>756.0</ele><time>2026-05-02T10:23:47.17Z</time></trkpt><trkpt lat="42.2166437" lon="13.7774472"><ele>750.0</ele><time>2026-05-02T10:23:48.161Z</time></trkpt><trkpt lat="42.2164956" lon="13.7773758"><ele>744.0</ele><time>2026-05-02T10:23:49.168Z</time></trkpt><trkpt lat="42.21634" lon="13.7773111"><ele>738.0</ele><time>2026-05-02T10:23:50.168Z</time></trkpt><trkpt lat="42.2162015" lon="13.777228"><ele>735.0</ele><time>2026-05-02T10:23:51.17Z</time></trkpt><trkpt lat="42.2160603" lon="13.7771413"><ele>732.0</ele><time>2026-05-02T10:23:52.168Z</time></trkpt><trkpt lat="42.2159234" lon="13.7770433"><ele>729.0</ele><time>2026-05-02T10:23:53.168Z</time></trkpt><trkpt lat="42.215796" lon="13.7769521"><ele>729.0</ele><time>2026-05-02T10:23:54.158Z</time></trkpt><trkpt lat="42.2156893" lon="13.7768986"><ele>729.0</ele><time>2026-05-02T10:23:55.16Z</time></trkpt><trkpt lat="42.2155873" lon="13.776837"><ele>729.0</ele><time>2026-05-02T10:23:56.165Z</time></trkpt><trkpt lat="42.2154924" lon="13.776808"><ele>729.0</ele><time>2026-05-02T10:23:57.158Z</time></trkpt><trkpt lat="42.2154069" lon="13.7767726"><ele>729.0</ele><time>2026-05-02T10:23:58.164Z</time></trkpt><trkpt lat="42.2153018" lon="13.7767309"><ele>726.6</ele><time>2026-05-02T10:24:00.164Z</time></trkpt><trkpt lat="42.2152343" lon="13.776714"><ele>724.2</ele><time>2026-05-02T10:24:01.167Z</time></trkpt><trkpt lat="42.2151156" lon="13.7766785"><ele>721.8000000000001</ele><time>2026-05-02T10:24:03.167Z</time></trkpt><trkpt lat="42.2149966" lon="13.7767008"><ele>719.4000000000001</ele><time>2026-05-02T10:24:05.166Z</time></trkpt><trkpt lat="42.2149234" lon="13.7767779"><ele>717.0</ele><time>2026-05-02T10:24:07.157Z</time></trkpt><trkpt lat="42.214861" lon="13.7769477"><ele>717.0</ele><time>2026-05-02T10:24:09.162Z</time></trkpt><trkpt lat="42.2148241" lon="13.7770389"><ele>717.0</ele><time>2026-05-02T10:24:10.153Z</time></trkpt><trkpt lat="42.214756" lon="13.7771023"><ele>717.0</ele><time>2026-05-02T10:24:12.161Z</time></trkpt><trkpt lat="42.2147836" lon="13.7769487"><ele>717.0</ele><time>2026-05-02T10:24:15.16Z</time></trkpt><trkpt lat="42.2148415" lon="13.7768403"><ele>717.0</ele><time>2026-05-02T10:24:16.161Z</time></trkpt><trkpt lat="42.2148956" lon="13.7767057"><ele>715.6666666666666</ele><time>2026-05-02T10:24:17.165Z</time></trkpt><trkpt lat="42.2149391" lon="13.7765807"><ele>714.3333333333334</ele><time>2026-05-02T10:24:18.158Z</time></trkpt><trkpt lat="42.2149603" lon="13.7764707"><ele>713.0</ele><time>2026-05-02T10:24:19.158Z</time></trkpt><trkpt lat="42.2149271" lon="13.7763883"><ele>711.6666666666667</ele><time>2026-05-02T10:24:20.16Z</time></trkpt><trkpt lat="42.2148616" lon="13.7763602"><ele>710.3333333333334</ele><time>2026-05-02T10:24:21.157Z</time></trkpt><trkpt lat="42.2147833" lon="13.7763843"><ele>709.0</ele><time>2026-05-02T10:24:22.158Z</time></trkpt><trkpt lat="42.2147039" lon="13.7764604"><ele>707.0</ele><time>2026-05-02T10:24:23.159Z</time></trkpt><trkpt lat="42.2146325" lon="13.7765918"><ele>705.0</ele><time>2026-05-02T10:24:24.16Z</time></trkpt><trkpt lat="42.214562" lon="13.7767633"><ele>703.0</ele><time>2026-05-02T10:24:25.161Z</time></trkpt><trkpt lat="42.2144926" lon="13.776959"><ele>701.0</ele><time>2026-05-02T10:24:26.169Z</time></trkpt><trkpt lat="42.214415" lon="13.7771779"><ele>701.0</ele><time>2026-05-02T10:24:27.159Z</time></trkpt><trkpt lat="42.2143361" lon="13.7773309"><ele>701.0</ele><time>2026-05-02T10:24:28.154Z</time></trkpt><trkpt lat="42.2142752" lon="13.7774185"><ele>701.0</ele><time>2026-05-02T10:24:29.158Z</time></trkpt><trkpt lat="42.214232" lon="13.7775024"><ele>701.0</ele><time>2026-05-02T10:24:30.159Z</time></trkpt><trkpt lat="42.214143" lon="13.777428"><ele>701.0</ele><time>2026-05-02T10:24:32.161Z</time></trkpt><trkpt lat="42.2141601" lon="13.7773222"><ele>701.0</ele><time>2026-05-02T10:24:33.157Z</time></trkpt><trkpt lat="42.2141922" lon="13.7772035"><ele>701.0</ele><time>2026-05-02T10:24:34.161Z</time></trkpt><trkpt lat="42.2142515" lon="13.7770607"><ele>701.0</ele><time>2026-05-02T10:24:35.16Z</time></trkpt><trkpt lat="42.2143013" lon="13.7769015"><ele>701.0</ele><time>2026-05-02T10:24:36.157Z</time></trkpt><trkpt lat="42.2143398" lon="13.7767494"><ele>700.1666666666666</ele><time>2026-05-02T10:24:37.15Z</time></trkpt><trkpt lat="42.2143689" lon="13.7766255"><ele>699.3333333333333</ele><time>2026-05-02T10:24:38.157Z</time></trkpt><trkpt lat="42.2144096" lon="13.7764972"><ele>698.5</ele><time>2026-05-02T10:24:40.158Z</time></trkpt><trkpt lat="42.2143394" lon="13.776476"><ele>697.6666666666666</ele><time>2026-05-02T10:24:42.154Z</time></trkpt><trkpt lat="42.2142568" lon="13.7765451"><ele>696.8333333333334</ele><time>2026-05-02T10:24:44.16Z</time></trkpt><trkpt lat="42.2141952" lon="13.7766123"><ele>696.0</ele><time>2026-05-02T10:24:45.158Z</time></trkpt><trkpt lat="42.2141287" lon="13.7766651"><ele>696.0</ele><time>2026-05-02T10:24:46.156Z</time></trkpt><trkpt lat="42.2140538" lon="13.7767029"><ele>696.0</ele><time>2026-05-02T10:24:47.148Z</time></trkpt><trkpt lat="42.2139617" lon="13.776719"><ele>696.0</ele><time>2026-05-02T10:24:48.151Z</time></trkpt><trkpt lat="42.2138563" lon="13.7767258"><ele>696.0</ele><time>2026-05-02T10:24:49.155Z</time></trkpt><trkpt lat="42.213757" lon="13.7767212"><ele>696.0</ele><time>2026-05-02T10:24:50.162Z</time></trkpt><trkpt lat="42.2136734" lon="13.7767167"><ele>694.8</ele><time>2026-05-02T10:24:51.161Z</time></trkpt><trkpt lat="42.2135941" lon="13.7767079"><ele>693.5999999999999</ele><time>2026-05-02T10:24:52.152Z</time></trkpt><trkpt lat="42.2135096" lon="13.7766796"><ele>692.4</ele><time>2026-05-02T10:24:53.15Z</time></trkpt><trkpt lat="42.2134135" lon="13.7766332"><ele>691.2</ele><time>2026-05-02T10:24:54.167Z</time></trkpt><trkpt lat="42.2133112" lon="13.7765628"><ele>690.0</ele><time>2026-05-02T10:24:55.165Z</time></trkpt><trkpt lat="42.2132183" lon="13.7764835"><ele>690.0</ele><time>2026-05-02T10:24:56.164Z</time></trkpt><trkpt lat="42.213134" lon="13.7764063"><ele>690.0</ele><time>2026-05-02T10:24:57.159Z</time></trkpt><trkpt lat="42.2130579" lon="13.7763421"><ele>690.0</ele><time>2026-05-02T10:24:58.156Z</time></trkpt><trkpt lat="42.21299" lon="13.7763043"><ele>690.0</ele><time>2026-05-02T10:24:59.158Z</time></trkpt><trkpt lat="42.2128681" lon="13.7763071"><ele>690.0</ele><time>2026-05-02T10:25:01.163Z</time></trkpt><trkpt lat="42.2127924" lon="13.7763514"><ele>690.0</ele><time>2026-05-02T10:25:02.16Z</time></trkpt><trkpt lat="42.2127078" lon="13.776422"><ele>690.0</ele><time>2026-05-02T10:25:03.159Z</time></trkpt><trkpt lat="42.2126122" lon="13.7765238"><ele>690.0</ele><time>2026-05-02T10:25:04.165Z</time></trkpt><trkpt lat="42.2125191" lon="13.7766372"><ele>690.0</ele><time>2026-05-02T10:25:05.156Z</time></trkpt><trkpt lat="42.2124383" lon="13.7767466"><ele>690.0</ele><time>2026-05-02T10:25:06.167Z</time></trkpt><trkpt lat="42.2123504" lon="13.7768491"><ele>690.0</ele><time>2026-05-02T10:25:07.167Z</time></trkpt><trkpt lat="42.2122524" lon="13.7769377"><ele>690.0</ele><time>2026-05-02T10:25:08.164Z</time></trkpt><trkpt lat="42.2121511" lon="13.7770223"><ele>690.0</ele><time>2026-05-02T10:25:09.166Z</time></trkpt><trkpt lat="42.2120552" lon="13.777096"><ele>688.4</ele><time>2026-05-02T10:25:10.16Z</time></trkpt><trkpt lat="42.2119702" lon="13.7771616"><ele>686.8</ele><time>2026-05-02T10:25:11.156Z</time></trkpt><trkpt lat="42.2118921" lon="13.7772092"><ele>685.2</ele><time>2026-05-02T10:25:12.149Z</time></trkpt><trkpt lat="42.211809" lon="13.7772253"><ele>683.6</ele><time>2026-05-02T10:25:13.152Z</time></trkpt><trkpt lat="42.2117151" lon="13.777216"><ele>682.0</ele><time>2026-05-02T10:25:14.158Z</time></trkpt><trkpt lat="42.2116106" lon="13.7771845"><ele>682.0</ele><time>2026-05-02T10:25:15.157Z</time></trkpt><trkpt lat="42.2115068" lon="13.7771328"><ele>682.0</ele><time>2026-05-02T10:25:16.156Z</time></trkpt><trkpt lat="42.211409" lon="13.7770548"><ele>682.0</ele><time>2026-05-02T10:25:17.158Z</time></trkpt><trkpt lat="42.2113173" lon="13.7769552"><ele>682.0</ele><time>2026-05-02T10:25:18.165Z</time></trkpt><trkpt lat="42.2112275" lon="13.7768395"><ele>681.75</ele><time>2026-05-02T10:25:19.162Z</time></trkpt><trkpt lat="42.2111356" lon="13.7767236"><ele>681.5</ele><time>2026-05-02T10:25:20.161Z</time></trkpt><trkpt lat="42.2110423" lon="13.7766172"><ele>681.25</ele><time>2026-05-02T10:25:21.163Z</time></trkpt><trkpt lat="42.2109579" lon="13.7765125"><ele>681.0</ele><time>2026-05-02T10:25:22.17Z</time></trkpt><trkpt lat="42.2108791" lon="13.7764175"><ele>681.0</ele><time>2026-05-02T10:25:23.166Z</time></trkpt><trkpt lat="42.210807" lon="13.7763287"><ele>681.0</ele><time>2026-05-02T10:25:24.167Z</time></trkpt><trkpt lat="42.2107437" lon="13.7762466"><ele>681.0</ele><time>2026-05-02T10:25:25.169Z</time></trkpt><trkpt lat="42.2106678" lon="13.7761622"><ele>681.0</ele><time>2026-05-02T10:25:26.165Z</time></trkpt><trkpt lat="42.2105755" lon="13.7760898"><ele>681.0</ele><time>2026-05-02T10:25:27.159Z</time></trkpt><trkpt lat="42.2104642" lon="13.7760331"><ele>680.5</ele><time>2026-05-02T10:25:28.164Z</time></trkpt><trkpt lat="42.2103385" lon="13.775983"><ele>680.0</ele><time>2026-05-02T10:25:29.17Z</time></trkpt><trkpt lat="42.2102044" lon="13.7759268"><ele>679.5</ele><time>2026-05-02T10:25:30.169Z</time></trkpt><trkpt lat="42.2100696" lon="13.7758634"><ele>679.0</ele><time>2026-05-02T10:25:31.174Z</time></trkpt><trkpt lat="42.2099441" lon="13.7758188"><ele>679.0</ele><time>2026-05-02T10:25:32.167Z</time></trkpt><trkpt lat="42.2098334" lon="13.7757714"><ele>679.0</ele><time>2026-05-02T10:25:33.164Z</time></trkpt><trkpt lat="42.2097194" lon="13.7757301"><ele>679.0</ele><time>2026-05-02T10:25:34.164Z</time></trkpt><trkpt lat="42.2096013" lon="13.7756711"><ele>679.0</ele><time>2026-05-02T10:25:35.168Z</time></trkpt><trkpt lat="42.2094819" lon="13.7756396"><ele>679.0</ele><time>2026-05-02T10:25:36.167Z</time></trkpt><trkpt lat="42.2093584" lon="13.7755819"><ele>679.0</ele><time>2026-05-02T10:25:37.165Z</time></trkpt><trkpt lat="42.209243" lon="13.7755425"><ele>679.0</ele><time>2026-05-02T10:25:38.168Z</time></trkpt><trkpt lat="42.2091327" lon="13.7755145"><ele>679.0</ele><time>2026-05-02T10:25:39.163Z</time></trkpt><trkpt lat="42.2090336" lon="13.7754902"><ele>678.8000000000001</ele><time>2026-05-02T10:25:40.167Z</time></trkpt><trkpt lat="42.2089367" lon="13.7754773"><ele>678.6</ele><time>2026-05-02T10:25:41.167Z</time></trkpt><trkpt lat="42.2088387" lon="13.7754955"><ele>678.4</ele><time>2026-05-02T10:25:42.165Z</time></trkpt><trkpt lat="42.2087437" lon="13.7755222"><ele>678.2</ele><time>2026-05-02T10:25:43.166Z</time></trkpt><trkpt lat="42.2086558" lon="13.7755578"><ele>678.0</ele><time>2026-05-02T10:25:44.167Z</time></trkpt><trkpt lat="42.2085762" lon="13.7755873"><ele>678.0</ele><time>2026-05-02T10:25:45.165Z</time></trkpt><trkpt lat="42.2085064" lon="13.7756088"><ele>678.0</ele><time>2026-05-02T10:25:46.161Z</time></trkpt><trkpt lat="42.2083914" lon="13.7755887"><ele>678.0</ele><time>2026-05-02T10:25:48.164Z</time></trkpt><trkpt lat="42.2083337" lon="13.7755393"><ele>678.0</ele><time>2026-05-02T10:25:49.166Z</time></trkpt><trkpt lat="42.2082567" lon="13.7754602"><ele>678.0</ele><time>2026-05-02T10:25:50.166Z</time></trkpt><trkpt lat="42.2081637" lon="13.775369"><ele>678.0</ele><time>2026-05-02T10:25:51.167Z</time></trkpt><trkpt lat="42.2080622" lon="13.775275"><ele>678.0</ele><time>2026-05-02T10:25:52.172Z</time></trkpt><trkpt lat="42.2079532" lon="13.775175"><ele>678.0</ele><time>2026-05-02T10:25:53.167Z</time></trkpt><trkpt lat="42.2078402" lon="13.775068"><ele>678.0</ele><time>2026-05-02T10:25:54.167Z</time></trkpt><trkpt lat="42.2077303" lon="13.7749707"><ele>678.0</ele><time>2026-05-02T10:25:55.17Z</time></trkpt><trkpt lat="42.2076283" lon="13.7748796"><ele>678.0</ele><time>2026-05-02T10:25:56.176Z</time></trkpt><trkpt lat="42.207534" lon="13.7747934"><ele>678.0</ele><time>2026-05-02T10:25:57.17Z</time></trkpt><trkpt lat="42.2074444" lon="13.7747181"><ele>678.0</ele><time>2026-05-02T10:25:58.169Z</time></trkpt><trkpt lat="42.2073669" lon="13.7746514"><ele>678.0</ele><time>2026-05-02T10:25:59.166Z</time></trkpt><trkpt lat="42.2073062" lon="13.7745873"><ele>678.5999999999999</ele><time>2026-05-02T10:26:00.164Z</time></trkpt><trkpt lat="42.2072328" lon="13.7745102"><ele>679.1999999999999</ele><time>2026-05-02T10:26:02.164Z</time></trkpt><trkpt lat="42.207147" lon="13.7744662"><ele>679.8</ele><time>2026-05-02T10:26:06.161Z</time></trkpt><trkpt lat="42.2070294" lon="13.7745061"><ele>680.4</ele><time>2026-05-02T10:26:08.163Z</time></trkpt><trkpt lat="42.2069548" lon="13.7745576"><ele>681.0</ele><time>2026-05-02T10:26:09.164Z</time></trkpt><trkpt lat="42.2068564" lon="13.7746161"><ele>681.0</ele><time>2026-05-02T10:26:10.16Z</time></trkpt><trkpt lat="42.2067444" lon="13.7746884"><ele>681.0</ele><time>2026-05-02T10:26:11.159Z</time></trkpt><trkpt lat="42.2066188" lon="13.7747672"><ele>681.0</ele><time>2026-05-02T10:26:12.164Z</time></trkpt><trkpt lat="42.2064815" lon="13.7748521"><ele>681.0</ele><time>2026-05-02T10:26:13.16Z</time></trkpt><trkpt lat="42.206302" lon="13.7749484"><ele>681.0</ele><time>2026-05-02T10:26:14.164Z</time></trkpt><trkpt lat="42.2061426" lon="13.7750666"><ele>681.0</ele><time>2026-05-02T10:26:15.171Z</time></trkpt><trkpt lat="42.2059722" lon="13.7751681"><ele>681.0</ele><time>2026-05-02T10:26:16.164Z</time></trkpt><trkpt lat="42.2057985" lon="13.7752627"><ele>682.0</ele><time>2026-05-02T10:26:17.169Z</time></trkpt><trkpt lat="42.2056241" lon="13.7753653"><ele>683.0</ele><time>2026-05-02T10:26:18.168Z</time></trkpt><trkpt lat="42.2054392" lon="13.7754706"><ele>684.0</ele><time>2026-05-02T10:26:19.181Z</time></trkpt><trkpt lat="42.2052646" lon="13.775574"><ele>684.0</ele><time>2026-05-02T10:26:20.17Z</time></trkpt><trkpt lat="42.2050843" lon="13.7756693"><ele>684.0</ele><time>2026-05-02T10:26:21.171Z</time></trkpt><trkpt lat="42.204901" lon="13.7757682"><ele>684.0</ele><time>2026-05-02T10:26:22.17Z</time></trkpt><trkpt lat="42.2047049" lon="13.7758495"><ele>684.3333333333334</ele><time>2026-05-02T10:26:23.165Z</time></trkpt><trkpt lat="42.2045292" lon="13.7759586"><ele>684.6666666666667</ele><time>2026-05-02T10:26:24.166Z</time></trkpt><trkpt lat="42.2043538" lon="13.7760742"><ele>685.0</ele><time>2026-05-02T10:26:25.169Z</time></trkpt><trkpt lat="42.204161" lon="13.776178"><ele>686.6666666666667</ele><time>2026-05-02T10:26:26.169Z</time></trkpt><trkpt lat="42.2039752" lon="13.7762931"><ele>688.3333333333334</ele><time>2026-05-02T10:26:27.173Z</time></trkpt><trkpt lat="42.203777" lon="13.7763911"><ele>690.0</ele><time>2026-05-02T10:26:28.168Z</time></trkpt><trkpt lat="42.2035861" lon="13.7764951"><ele>690.0</ele><time>2026-05-02T10:26:29.167Z</time></trkpt><trkpt lat="42.2033986" lon="13.7766071"><ele>690.0</ele><time>2026-05-02T10:26:30.168Z</time></trkpt><trkpt lat="42.2032208" lon="13.776714"><ele>690.0</ele><time>2026-05-02T10:26:31.181Z</time></trkpt><trkpt lat="42.2030339" lon="13.7768088"><ele>694.6666666666666</ele><time>2026-05-02T10:26:32.163Z</time></trkpt><trkpt lat="42.2028748" lon="13.7768959"><ele>699.3333333333333</ele><time>2026-05-02T10:26:33.17Z</time></trkpt><trkpt lat="42.2027442" lon="13.7769576"><ele>704.0</ele><time>2026-05-02T10:26:34.166Z</time></trkpt><trkpt lat="42.202595" lon="13.7770349"><ele>704.0</ele><time>2026-05-02T10:26:35.163Z</time></trkpt><trkpt lat="42.2024921" lon="13.7771037"><ele>704.0</ele><time>2026-05-02T10:26:36.154Z</time></trkpt><trkpt lat="42.202375" lon="13.7771825"><ele>704.0</ele><time>2026-05-02T10:26:37.16Z</time></trkpt><trkpt lat="42.2022923" lon="13.7772893"><ele>704.0</ele><time>2026-05-02T10:26:38.158Z</time></trkpt><trkpt lat="42.2022179" lon="13.7774419"><ele>703.0</ele><time>2026-05-02T10:26:39.165Z</time></trkpt><trkpt lat="42.2021641" lon="13.777643"><ele>702.0</ele><time>2026-05-02T10:26:40.157Z</time></trkpt><trkpt lat="42.2021232" lon="13.7778425"><ele>701.0</ele><time>2026-05-02T10:26:41.147Z</time></trkpt><trkpt lat="42.2020725" lon="13.7780668"><ele>701.0</ele><time>2026-05-02T10:26:42.15Z</time></trkpt><trkpt lat="42.2020407" lon="13.7783201"><ele>701.0</ele><time>2026-05-02T10:26:43.152Z</time></trkpt><trkpt lat="42.202014" lon="13.7785853"><ele>701.0</ele><time>2026-05-02T10:26:44.162Z</time></trkpt><trkpt lat="42.2019659" lon="13.7788392"><ele>703.0</ele><time>2026-05-02T10:26:45.159Z</time></trkpt><trkpt lat="42.2019167" lon="13.7790856"><ele>705.0</ele><time>2026-05-02T10:26:46.165Z</time></trkpt><trkpt lat="42.2018664" lon="13.7793419"><ele>707.0</ele><time>2026-05-02T10:26:47.161Z</time></trkpt><trkpt lat="42.2018108" lon="13.7795963"><ele>710.0</ele><time>2026-05-02T10:26:48.164Z</time></trkpt><trkpt lat="42.2017487" lon="13.7798479"><ele>713.0</ele><time>2026-05-02T10:26:49.155Z</time></trkpt><trkpt lat="42.2017115" lon="13.7800912"><ele>716.0</ele><time>2026-05-02T10:26:50.157Z</time></trkpt><trkpt lat="42.2016779" lon="13.7803309"><ele>718.0</ele><time>2026-05-02T10:26:51.158Z</time></trkpt><trkpt lat="42.2016561" lon="13.7805819"><ele>720.0</ele><time>2026-05-02T10:26:52.16Z</time></trkpt><trkpt lat="42.2016354" lon="13.7808281"><ele>722.0</ele><time>2026-05-02T10:26:53.154Z</time></trkpt><trkpt lat="42.2016303" lon="13.7810899"><ele>723.3333333333333</ele><time>2026-05-02T10:26:54.153Z</time></trkpt><trkpt lat="42.2016551" lon="13.7813516"><ele>724.6666666666666</ele><time>2026-05-02T10:26:55.153Z</time></trkpt><trkpt lat="42.2016862" lon="13.7815967"><ele>726.0</ele><time>2026-05-02T10:26:56.158Z</time></trkpt><trkpt lat="42.2017042" lon="13.7818478"><ele>728.6666666666666</ele><time>2026-05-02T10:26:57.149Z</time></trkpt><trkpt lat="42.2017004" lon="13.7820677"><ele>731.3333333333333</ele><time>2026-05-02T10:26:58.152Z</time></trkpt><trkpt lat="42.2016569" lon="13.7822736"><ele>734.0</ele><time>2026-05-02T10:26:59.15Z</time></trkpt><trkpt lat="42.2015944" lon="13.7824692"><ele>734.0</ele><time>2026-05-02T10:27:00.148Z</time></trkpt><trkpt lat="42.2015138" lon="13.782677"><ele>734.0</ele><time>2026-05-02T10:27:01.149Z</time></trkpt><trkpt lat="42.2014215" lon="13.7828684"><ele>734.0</ele><time>2026-05-02T10:27:02.158Z</time></trkpt><trkpt lat="42.2013461" lon="13.7830866"><ele>733.3333333333333</ele><time>2026-05-02T10:27:03.155Z</time></trkpt><trkpt lat="42.2012788" lon="13.7832887"><ele>732.6666666666666</ele><time>2026-05-02T10:27:04.151Z</time></trkpt><trkpt lat="42.2011905" lon="13.7834998"><ele>732.0</ele><time>2026-05-02T10:27:05.153Z</time></trkpt><trkpt lat="42.2010977" lon="13.7836923"><ele>704.0</ele><time>2026-05-02T10:27:06.149Z</time></trkpt><trkpt lat="42.2024921" lon="13.7771037"><ele>704.0</ele><time>2026-05-02T10:26:36.154Z</time></trkpt><trkpt lat="42.202375" lon="13.7771825"><ele>704.0</ele><time>2026-05-02T10:26:37.16Z</time></trkpt><trkpt lat="42.2022923" lon="13.7772893"><ele>704.0</ele><time>2026-05-02T10:26:38.158Z</time></trkpt><trkpt lat="42.2022179" lon="13.7774419"><ele>704.0</ele><time>2026-05-02T10:26:39.165Z</time></trkpt><trkpt lat="42.2021641" lon="13.777643"><ele>703.0</ele><time>2026-05-02T10:26:40.157Z</time></trkpt><trkpt lat="42.2021232" lon="13.7778425"><ele>702.0</ele><time>2026-05-02T10:26:41.147Z</time></trkpt><trkpt lat="42.2020725" lon="13.7780668"><ele>701.0</ele><time>2026-05-02T10:26:42.15Z</time></trkpt><trkpt lat="42.2020407" lon="13.7783201"><ele>703.0</ele><time>2026-05-02T10:26:43.152Z</time></trkpt><trkpt lat="42.202014" lon="13.7785853"><ele>705.0</ele><time>2026-05-02T10:26:44.162Z</time></trkpt><trkpt lat="42.2019659" lon="13.7788392"><ele>707.0</ele><time>2026-05-02T10:26:45.159Z</time></trkpt><trkpt lat="42.2019167" lon="13.7790856"><ele>707.0</ele><time>2026-05-02T10:26:46.165Z</time></trkpt><trkpt lat="42.2018664" lon="13.7793419"><ele>707.0</ele><time>2026-05-02T10:26:47.161Z</time></trkpt><trkpt lat="42.2018108" lon="13.7795963"><ele>707.0</ele><time>2026-05-02T10:26:48.164Z</time></trkpt><trkpt lat="42.2017487" lon="13.7798479"><ele>710.0</ele><time>2026-05-02T10:26:49.155Z</time></trkpt><trkpt lat="42.2017115" lon="13.7800912"><ele>713.0</ele><time>2026-05-02T10:26:50.157Z</time></trkpt><trkpt lat="42.2016779" lon="13.7803309"><ele>716.0</ele><time>2026-05-02T10:26:51.158Z</time></trkpt><trkpt lat="42.2016561" lon="13.7805819"><ele>718.0</ele><time>2026-05-02T10:26:52.16Z</time></trkpt><trkpt lat="42.2016354" lon="13.7808281"><ele>720.0</ele><time>2026-05-02T10:26:53.154Z</time></trkpt><trkpt lat="42.2016303" lon="13.7810899"><ele>722.0</ele><time>2026-05-02T10:26:54.153Z</time></trkpt><trkpt lat="42.2016551" lon="13.7813516"><ele>723.3333333333333</ele><time>2026-05-02T10:26:55.153Z</time></trkpt><trkpt lat="42.2016862" lon="13.7815967"><ele>724.6666666666666</ele><time>2026-05-02T10:26:56.158Z</time></trkpt><trkpt lat="42.2017042" lon="13.7818478"><ele>726.0</ele><time>2026-05-02T10:26:57.149Z</time></trkpt><trkpt lat="42.2017004" lon="13.7820677"><ele>728.6666666666666</ele><time>2026-05-02T10:26:58.152Z</time></trkpt><trkpt lat="42.2016569" lon="13.7822736"><ele>731.3333333333333</ele><time>2026-05-02T10:26:59.15Z</time></trkpt><trkpt lat="42.2015944" lon="13.7824692"><ele>734.0</ele><time>2026-05-02T10:27:00.148Z</time></trkpt><trkpt lat="42.2015138" lon="13.782677"><ele>733.3333333333333</ele><time>2026-05-02T10:27:01.149Z</time></trkpt><trkpt lat="42.2014215" lon="13.7828684"><ele>732.6666666666666</ele><time>2026-05-02T10:27:02.158Z</time></trkpt><trkpt lat="42.2013461" lon="13.7830866"><ele>732.0</ele><time>2026-05-02T10:27:03.155Z</time></trkpt><trkpt lat="42.2012788" lon="13.7832887"><ele>732.0</ele><time>2026-05-02T10:27:04.151Z</time></trkpt><trkpt lat="42.2011905" lon="13.7834998"><ele>732.0</ele><time>2026-05-02T10:27:05.153Z</time></trkpt><trkpt lat="42.2010977" lon="13.7836923"><ele>732.0</ele><time>2026-05-02T10:27:06.149Z</time></trkpt><trkpt lat="42.2010079" lon="13.7838889"><ele>735.75</ele><time>2026-05-02T10:27:07.156Z</time></trkpt><trkpt lat="42.2009237" lon="13.7840781"><ele>739.5</ele><time>2026-05-02T10:27:08.151Z</time></trkpt><trkpt lat="42.2008448" lon="13.7842459"><ele>743.25</ele><time>2026-05-02T10:27:09.154Z</time></trkpt><trkpt lat="42.2007644" lon="13.784396"><ele>747.0</ele><time>2026-05-02T10:27:10.15Z</time></trkpt><trkpt lat="42.2006937" lon="13.7845574"><ele>749.25</ele><time>2026-05-02T10:27:11.154Z</time></trkpt><trkpt lat="42.2006062" lon="13.7846921"><ele>751.5</ele><time>2026-05-02T10:27:12.152Z</time></trkpt><trkpt lat="42.2005126" lon="13.7848316"><ele>753.75</ele><time>2026-05-02T10:27:13.152Z</time></trkpt><trkpt lat="42.2004296" lon="13.7849614"><ele>756.0</ele><time>2026-05-02T10:27:14.153Z</time></trkpt><trkpt lat="42.200357" lon="13.785065"><ele>756.0</ele><time>2026-05-02T10:27:15.155Z</time></trkpt><trkpt lat="42.2002829" lon="13.7851617"><ele>756.0</ele><time>2026-05-02T10:27:16.157Z</time></trkpt><trkpt lat="42.2002135" lon="13.7852142"><ele>756.0</ele><time>2026-05-02T10:27:17.163Z</time></trkpt><trkpt lat="42.200165" lon="13.7851343"><ele>756.0</ele><time>2026-05-02T10:27:19.165Z</time></trkpt><trkpt lat="42.2001522" lon="13.7849887"><ele>756.0</ele><time>2026-05-02T10:27:21.162Z</time></trkpt><trkpt lat="42.2001522" lon="13.7848694"><ele>756.0</ele><time>2026-05-02T10:27:22.169Z</time></trkpt><trkpt lat="42.2001478" lon="13.7847204"><ele>756.0</ele><time>2026-05-02T10:27:23.162Z</time></trkpt><trkpt lat="42.2001242" lon="13.7845464"><ele>756.0</ele><time>2026-05-02T10:27:24.159Z</time></trkpt><trkpt lat="42.2000709" lon="13.7843607"><ele>756.0</ele><time>2026-05-02T10:27:25.159Z</time></trkpt><trkpt lat="42.1999869" lon="13.7841442"><ele>755.75</ele><time>2026-05-02T10:27:26.165Z</time></trkpt><trkpt lat="42.1998996" lon="13.7839438"><ele>755.5</ele><time>2026-05-02T10:27:27.158Z</time></trkpt><trkpt lat="42.1998357" lon="13.7837752"><ele>755.25</ele><time>2026-05-02T10:27:28.164Z</time></trkpt><trkpt lat="42.1998085" lon="13.7836106"><ele>755.0</ele><time>2026-05-02T10:27:29.166Z</time></trkpt><trkpt lat="42.1998009" lon="13.7834345"><ele>758.25</ele><time>2026-05-02T10:27:30.157Z</time></trkpt><trkpt lat="42.1997931" lon="13.7832869"><ele>761.5</ele><time>2026-05-02T10:27:31.158Z</time></trkpt><trkpt lat="42.1997521" lon="13.7831479"><ele>764.75</ele><time>2026-05-02T10:27:32.156Z</time></trkpt><trkpt lat="42.1996713" lon="13.7830298"><ele>768.0</ele><time>2026-05-02T10:27:33.16Z</time></trkpt><trkpt lat="42.1995516" lon="13.7829319"><ele>768.0</ele><time>2026-05-02T10:27:34.155Z</time></trkpt><trkpt lat="42.1994156" lon="13.7828707"><ele>768.0</ele><time>2026-05-02T10:27:35.159Z</time></trkpt><trkpt lat="42.1993092" lon="13.7828095"><ele>768.0</ele><time>2026-05-02T10:27:36.161Z</time></trkpt><trkpt lat="42.1991607" lon="13.7827979"><ele>768.0</ele><time>2026-05-02T10:27:37.161Z</time></trkpt><trkpt lat="42.1989941" lon="13.7828145"><ele>769.6666666666667</ele><time>2026-05-02T10:27:38.164Z</time></trkpt><trkpt lat="42.1988188" lon="13.7827986"><ele>771.3333333333334</ele><time>2026-05-02T10:27:39.159Z</time></trkpt><trkpt lat="42.1986558" lon="13.7827482"><ele>773.0</ele><time>2026-05-02T10:27:40.157Z</time></trkpt><trkpt lat="42.198508" lon="13.7826854"><ele>769.6666666666667</ele><time>2026-05-02T10:27:41.154Z</time></trkpt><trkpt lat="42.19833" lon="13.7826432"><ele>766.3333333333334</ele><time>2026-05-02T10:27:42.161Z</time></trkpt><trkpt lat="42.1981431" lon="13.7826487"><ele>763.0</ele><time>2026-05-02T10:27:43.157Z</time></trkpt><trkpt lat="42.1979763" lon="13.782667"><ele>766.5</ele><time>2026-05-02T10:27:44.162Z</time></trkpt><trkpt lat="42.1978284" lon="13.7826841"><ele>770.0</ele><time>2026-05-02T10:27:45.163Z</time></trkpt><trkpt lat="42.1976906" lon="13.7827263"><ele>773.5</ele><time>2026-05-02T10:27:46.16Z</time></trkpt><trkpt lat="42.1975512" lon="13.7827472"><ele>777.0</ele><time>2026-05-02T10:27:47.164Z</time></trkpt><trkpt lat="42.1973964" lon="13.7827326"><ele>776.25</ele><time>2026-05-02T10:27:48.158Z</time></trkpt><trkpt lat="42.1972604" lon="13.7826906"><ele>775.5</ele><time>2026-05-02T10:27:49.157Z</time></trkpt><trkpt lat="42.1971305" lon="13.7826442"><ele>774.75</ele><time>2026-05-02T10:27:50.153Z</time></trkpt><trkpt lat="42.1969884" lon="13.7825631"><ele>774.0</ele><time>2026-05-02T10:27:51.162Z</time></trkpt><trkpt lat="42.196887" lon="13.7824353"><ele>774.0</ele><time>2026-05-02T10:27:52.166Z</time></trkpt><trkpt lat="42.1968162" lon="13.7822594"><ele>774.0</ele><time>2026-05-02T10:27:53.163Z</time></trkpt><trkpt lat="42.1967422" lon="13.7821343"><ele>774.0</ele><time>2026-05-02T10:27:54.163Z</time></trkpt><trkpt lat="42.1966412" lon="13.7820416"><ele>774.0</ele><time>2026-05-02T10:27:55.159Z</time></trkpt><trkpt lat="42.1965121" lon="13.7819835"><ele>778.0</ele><time>2026-05-02T10:27:56.165Z</time></trkpt><trkpt lat="42.1963709" lon="13.7819388"><ele>782.0</ele><time>2026-05-02T10:27:57.159Z</time></trkpt><trkpt lat="42.1962162" lon="13.7819004"><ele>786.0</ele><time>2026-05-02T10:27:58.16Z</time></trkpt><trkpt lat="42.1960401" lon="13.7818749"><ele>784.3333333333333</ele><time>2026-05-02T10:27:59.163Z</time></trkpt><trkpt lat="42.1958468" lon="13.781836"><ele>782.6666666666666</ele><time>2026-05-02T10:28:00.166Z</time></trkpt><trkpt lat="42.1956744" lon="13.7818042"><ele>781.0</ele><time>2026-05-02T10:28:01.167Z</time></trkpt><trkpt lat="42.1955168" lon="13.7817732"><ele>781.0</ele><time>2026-05-02T10:28:02.164Z</time></trkpt><trkpt lat="42.1953659" lon="13.7817308"><ele>781.0</ele><time>2026-05-02T10:28:03.164Z</time></trkpt><trkpt lat="42.1952133" lon="13.781698"><ele>781.0</ele><time>2026-05-02T10:28:04.163Z</time></trkpt><trkpt lat="42.1950531" lon="13.7816705"><ele>781.0</ele><time>2026-05-02T10:28:05.16Z</time></trkpt><trkpt lat="42.1948987" lon="13.7816891"><ele>781.0</ele><time>2026-05-02T10:28:06.16Z</time></trkpt><trkpt lat="42.1947586" lon="13.781721"><ele>781.0</ele><time>2026-05-02T10:28:07.159Z</time></trkpt><trkpt lat="42.1946155" lon="13.7817338"><ele>781.0</ele><time>2026-05-02T10:28:08.157Z</time></trkpt><trkpt lat="42.1944623" lon="13.7817031"><ele>782.5</ele><time>2026-05-02T10:28:09.155Z</time></trkpt><trkpt lat="42.1943209" lon="13.7816511"><ele>784.0</ele><time>2026-05-02T10:28:10.162Z</time></trkpt><trkpt lat="42.1941968" lon="13.7815774"><ele>785.5</ele><time>2026-05-02T10:28:11.162Z</time></trkpt><trkpt lat="42.1941077" lon="13.781473"><ele>787.0</ele><time>2026-05-02T10:28:12.157Z</time></trkpt><trkpt lat="42.1940429" lon="13.7813216"><ele>787.0</ele><time>2026-05-02T10:28:13.162Z</time></trkpt><trkpt lat="42.1940132" lon="13.7811305"><ele>787.0</ele><time>2026-05-02T10:28:14.149Z</time></trkpt><trkpt lat="42.1940108" lon="13.7809088"><ele>787.0</ele><time>2026-05-02T10:28:15.158Z</time></trkpt><trkpt lat="42.1940194" lon="13.7806664"><ele>786.3333333333333</ele><time>2026-05-02T10:28:16.155Z</time></trkpt><trkpt lat="42.1940171" lon="13.7804396"><ele>785.6666666666667</ele><time>2026-05-02T10:28:17.156Z</time></trkpt><trkpt lat="42.1940364" lon="13.7801943"><ele>785.0</ele><time>2026-05-02T10:28:18.16Z</time></trkpt><trkpt lat="42.1940955" lon="13.7799882"><ele>786.5</ele><time>2026-05-02T10:28:19.155Z</time></trkpt><trkpt lat="42.1941346" lon="13.7797892"><ele>788.0</ele><time>2026-05-02T10:28:20.156Z</time></trkpt><trkpt lat="42.1941832" lon="13.7796304"><ele>789.5</ele><time>2026-05-02T10:28:21.158Z</time></trkpt><trkpt lat="42.1942163" lon="13.7794442"><ele>791.0</ele><time>2026-05-02T10:28:22.162Z</time></trkpt><trkpt lat="42.1942388" lon="13.7792501"><ele>792.6666666666667</ele><time>2026-05-02T10:28:23.158Z</time></trkpt><trkpt lat="42.1942491" lon="13.7790474"><ele>794.3333333333333</ele><time>2026-05-02T10:28:24.151Z</time></trkpt><trkpt lat="42.1942212" lon="13.7788177"><ele>796.0</ele><time>2026-05-02T10:28:25.153Z</time></trkpt><trkpt lat="42.1941854" lon="13.7785975"><ele>799.0</ele><time>2026-05-02T10:28:26.158Z</time></trkpt><trkpt lat="42.1941705" lon="13.7783786"><ele>802.0</ele><time>2026-05-02T10:28:27.152Z</time></trkpt><trkpt lat="42.194179" lon="13.778164"><ele>805.0</ele><time>2026-05-02T10:28:28.154Z</time></trkpt><trkpt lat="42.1942017" lon="13.7779427"><ele>805.0</ele><time>2026-05-02T10:28:29.155Z</time></trkpt><trkpt lat="42.1942064" lon="13.7777356"><ele>805.0</ele><time>2026-05-02T10:28:30.155Z</time></trkpt><trkpt lat="42.1942202" lon="13.7775095"><ele>805.0</ele><time>2026-05-02T10:28:31.158Z</time></trkpt><trkpt lat="42.1942548" lon="13.7772977"><ele>808.3333333333333</ele><time>2026-05-02T10:28:32.155Z</time></trkpt><trkpt lat="42.1943136" lon="13.7771021"><ele>811.6666666666667</ele><time>2026-05-02T10:28:33.155Z</time></trkpt><trkpt lat="42.1943811" lon="13.7768952"><ele>815.0</ele><time>2026-05-02T10:28:34.158Z</time></trkpt><trkpt lat="42.1944643" lon="13.7767002"><ele>817.0</ele><time>2026-05-02T10:28:35.156Z</time></trkpt><trkpt lat="42.1945413" lon="13.7765131"><ele>819.0</ele><time>2026-05-02T10:28:36.161Z</time></trkpt><trkpt lat="42.1946168" lon="13.7763429"><ele>821.0</ele><time>2026-05-02T10:28:37.166Z</time></trkpt><trkpt lat="42.1947034" lon="13.7761999"><ele>823.0</ele><time>2026-05-02T10:28:38.159Z</time></trkpt><trkpt lat="42.1947519" lon="13.7760215"><ele>821.0</ele><time>2026-05-02T10:28:39.164Z</time></trkpt><trkpt lat="42.1948018" lon="13.7758321"><ele>819.0</ele><time>2026-05-02T10:28:40.159Z</time></trkpt><trkpt lat="42.1948759" lon="13.7756528"><ele>817.0</ele><time>2026-05-02T10:28:41.165Z</time></trkpt><trkpt lat="42.194973" lon="13.7755083"><ele>815.0</ele><time>2026-05-02T10:28:42.157Z</time></trkpt><trkpt lat="42.1950728" lon="13.7753593"><ele>815.0</ele><time>2026-05-02T10:28:43.16Z</time></trkpt><trkpt lat="42.1951817" lon="13.7752006"><ele>815.0</ele><time>2026-05-02T10:28:44.16Z</time></trkpt><trkpt lat="42.1953134" lon="13.7750404"><ele>815.0</ele><time>2026-05-02T10:28:45.168Z</time></trkpt><trkpt lat="42.1954109" lon="13.7748558"><ele>818.6666666666667</ele><time>2026-05-02T10:28:46.158Z</time></trkpt><trkpt lat="42.1955091" lon="13.7746697"><ele>822.3333333333333</ele><time>2026-05-02T10:28:47.161Z</time></trkpt><trkpt lat="42.1956017" lon="13.7744874"><ele>826.0</ele><time>2026-05-02T10:28:48.163Z</time></trkpt><trkpt lat="42.1956897" lon="13.7743405"><ele>826.75</ele><time>2026-05-02T10:28:49.164Z</time></trkpt><trkpt lat="42.1957716" lon="13.7741805"><ele>827.5</ele><time>2026-05-02T10:28:50.161Z</time></trkpt><trkpt lat="42.1958602" lon="13.7740444"><ele>828.25</ele><time>2026-05-02T10:28:51.164Z</time></trkpt><trkpt lat="42.1959396" lon="13.7739229"><ele>829.0</ele><time>2026-05-02T10:28:52.162Z</time></trkpt><trkpt lat="42.1960139" lon="13.7737871"><ele>829.0</ele><time>2026-05-02T10:28:53.171Z</time></trkpt><trkpt lat="42.1960719" lon="13.7736492"><ele>829.0</ele><time>2026-05-02T10:28:54.162Z</time></trkpt><trkpt lat="42.196111" lon="13.7734875"><ele>829.0</ele><time>2026-05-02T10:28:55.175Z</time></trkpt><trkpt lat="42.1961093" lon="13.7733099"><ele>829.0</ele><time>2026-05-02T10:28:56.162Z</time></trkpt><trkpt lat="42.1961019" lon="13.7731216"><ele>832.6666666666666</ele><time>2026-05-02T10:28:57.168Z</time></trkpt><trkpt lat="42.196094" lon="13.7729192"><ele>836.3333333333333</ele><time>2026-05-02T10:28:58.164Z</time></trkpt><trkpt lat="42.1960924" lon="13.772698"><ele>840.0</ele><time>2026-05-02T10:28:59.16Z</time></trkpt><trkpt lat="42.1961169" lon="13.7725136"><ele>840.75</ele><time>2026-05-02T10:29:00.158Z</time></trkpt><trkpt lat="42.1961414" lon="13.7723422"><ele>841.5</ele><time>2026-05-02T10:29:01.159Z</time></trkpt><trkpt lat="42.1961713" lon="13.7721679"><ele>842.25</ele><time>2026-05-02T10:29:02.165Z</time></trkpt><trkpt lat="42.1961857" lon="13.7719961"><ele>843.0</ele><time>2026-05-02T10:29:03.161Z</time></trkpt><trkpt lat="42.1961829" lon="13.771827"><ele>843.0</ele><time>2026-05-02T10:29:04.157Z</time></trkpt><trkpt lat="42.1961571" lon="13.771678"><ele>843.0</ele><time>2026-05-02T10:29:05.159Z</time></trkpt><trkpt lat="42.1961266" lon="13.7715427"><ele>843.0</ele><time>2026-05-02T10:29:06.158Z</time></trkpt><trkpt lat="42.1960718" lon="13.7714265"><ele>843.0</ele><time>2026-05-02T10:29:07.173Z</time></trkpt><trkpt lat="42.1959741" lon="13.7713511"><ele>843.0</ele><time>2026-05-02T10:29:08.16Z</time></trkpt><trkpt lat="42.1958489" lon="13.7713037"><ele>843.0</ele><time>2026-05-02T10:29:09.167Z</time></trkpt><trkpt lat="42.1957061" lon="13.7712756"><ele>843.0</ele><time>2026-05-02T10:29:10.158Z</time></trkpt><trkpt lat="42.195552" lon="13.7712676"><ele>843.0</ele><time>2026-05-02T10:29:11.165Z</time></trkpt><trkpt lat="42.1953918" lon="13.7713234"><ele>845.75</ele><time>2026-05-02T10:29:12.162Z</time></trkpt><trkpt lat="42.1952545" lon="13.7713518"><ele>848.5</ele><time>2026-05-02T10:29:13.165Z</time></trkpt><trkpt lat="42.1951404" lon="13.7713424"><ele>851.25</ele><time>2026-05-02T10:29:14.156Z</time></trkpt><trkpt lat="42.1950332" lon="13.7713152"><ele>854.0</ele><time>2026-05-02T10:29:15.169Z</time></trkpt><trkpt lat="42.1949728" lon="13.7712074"><ele>854.0</ele><time>2026-05-02T10:29:16.165Z</time></trkpt><trkpt lat="42.1949424" lon="13.7710639"><ele>854.0</ele><time>2026-05-02T10:29:17.149Z</time></trkpt><trkpt lat="42.194959" lon="13.7709275"><ele>854.0</ele><time>2026-05-02T10:29:18.158Z</time></trkpt><trkpt lat="42.1949571" lon="13.7707614"><ele>854.0</ele><time>2026-05-02T10:29:19.162Z</time></trkpt><trkpt lat="42.1949324" lon="13.7705836"><ele>853.0</ele><time>2026-05-02T10:29:20.154Z</time></trkpt><trkpt lat="42.1948867" lon="13.7704078"><ele>852.0</ele><time>2026-05-02T10:29:21.158Z</time></trkpt><trkpt lat="42.194822" lon="13.7702342"><ele>851.0</ele><time>2026-05-02T10:29:22.158Z</time></trkpt><trkpt lat="42.1947219" lon="13.7700644"><ele>850.0</ele><time>2026-05-02T10:29:23.162Z</time></trkpt><trkpt lat="42.194642" lon="13.7699127"><ele>852.75</ele><time>2026-05-02T10:29:24.163Z</time></trkpt><trkpt lat="42.1945793" lon="13.7697577"><ele>855.5</ele><time>2026-05-02T10:29:25.166Z</time></trkpt><trkpt lat="42.1945184" lon="13.769633"><ele>858.25</ele><time>2026-05-02T10:29:26.169Z</time></trkpt><trkpt lat="42.1944304" lon="13.769556"><ele>861.0</ele><time>2026-05-02T10:29:27.163Z</time></trkpt><trkpt lat="42.1943123" lon="13.7695284"><ele>861.0</ele><time>2026-05-02T10:29:28.17Z</time></trkpt><trkpt lat="42.1941811" lon="13.7695317"><ele>861.0</ele><time>2026-05-02T10:29:29.169Z</time></trkpt><trkpt lat="42.1940431" lon="13.7695452"><ele>861.0</ele><time>2026-05-02T10:29:30.162Z</time></trkpt><trkpt lat="42.1938978" lon="13.7695857"><ele>861.0</ele><time>2026-05-02T10:29:31.163Z</time></trkpt><trkpt lat="42.1937373" lon="13.7696298"><ele>864.3333333333333</ele><time>2026-05-02T10:29:32.154Z</time></trkpt><trkpt lat="42.1935813" lon="13.7696118"><ele>867.6666666666666</ele><time>2026-05-02T10:29:33.163Z</time></trkpt><trkpt lat="42.1934019" lon="13.769568"><ele>871.0</ele><time>2026-05-02T10:29:34.159Z</time></trkpt><trkpt lat="42.1932533" lon="13.7695626"><ele>871.75</ele><time>2026-05-02T10:29:35.167Z</time></trkpt><trkpt lat="42.193109" lon="13.7695714"><ele>872.5</ele><time>2026-05-02T10:29:36.165Z</time></trkpt><trkpt lat="42.1929692" lon="13.7695776"><ele>873.25</ele><time>2026-05-02T10:29:37.169Z</time></trkpt><trkpt lat="42.1928221" lon="13.7695693"><ele>874.0</ele><time>2026-05-02T10:29:38.165Z</time></trkpt><trkpt lat="42.1926718" lon="13.7695512"><ele>874.0</ele><time>2026-05-02T10:29:39.165Z</time></trkpt><trkpt lat="42.1925335" lon="13.7695409"><ele>874.0</ele><time>2026-05-02T10:29:40.163Z</time></trkpt><trkpt lat="42.1924144" lon="13.7695179"><ele>874.0</ele><time>2026-05-02T10:29:41.166Z</time></trkpt><trkpt lat="42.1923073" lon="13.7694782"><ele>874.0</ele><time>2026-05-02T10:29:42.163Z</time></trkpt><trkpt lat="42.1921959" lon="13.7694196"><ele>873.75</ele><time>2026-05-02T10:29:43.163Z</time></trkpt><trkpt lat="42.1920827" lon="13.7693818"><ele>873.5</ele><time>2026-05-02T10:29:44.171Z</time></trkpt><trkpt lat="42.1919377" lon="13.7693629"><ele>873.25</ele><time>2026-05-02T10:29:45.162Z</time></trkpt><trkpt lat="42.1917934" lon="13.7693629"><ele>873.0</ele><time>2026-05-02T10:29:46.159Z</time></trkpt><trkpt lat="42.1916565" lon="13.7693626"><ele>872.8</ele><time>2026-05-02T10:29:47.161Z</time></trkpt><trkpt lat="42.1915369" lon="13.7693533"><ele>872.5999999999999</ele><time>2026-05-02T10:29:48.165Z</time></trkpt><trkpt lat="42.1914381" lon="13.7693517"><ele>872.4000000000001</ele><time>2026-05-02T10:29:49.161Z</time></trkpt><trkpt lat="42.1913517" lon="13.7693231"><ele>872.2</ele><time>2026-05-02T10:29:50.155Z</time></trkpt><trkpt lat="42.1912997" lon="13.7692381"><ele>872.0</ele><time>2026-05-02T10:29:51.159Z</time></trkpt><trkpt lat="42.1912189" lon="13.7691675"><ele>872.0000000000001</ele><time>2026-05-02T10:29:52.155Z</time></trkpt><trkpt lat="42.1911567" lon="13.7690711"><ele>872.0</ele><time>2026-05-02T10:29:53.161Z</time></trkpt><trkpt lat="42.1911104" lon="13.7689899"><ele>872.0</ele><time>2026-05-02T10:29:54.161Z</time></trkpt><trkpt lat="42.1910648" lon="13.7689042"><ele>872.0</ele><time>2026-05-02T10:29:55.159Z</time></trkpt><trkpt lat="42.1910197" lon="13.7688328"><ele>872.0000000000001</ele><time>2026-05-02T10:29:56.166Z</time></trkpt><trkpt lat="42.1909477" lon="13.7687524"><ele>872.0</ele><time>2026-05-02T10:29:58.159Z</time></trkpt><trkpt lat="42.1908791" lon="13.7686961"><ele>872.0000000000001</ele><time>2026-05-02T10:30:00.162Z</time></trkpt><trkpt lat="42.1908642" lon="13.7685988"><ele>872.0</ele><time>2026-05-02T10:30:03.162Z</time></trkpt><trkpt lat="42.1909534" lon="13.7685467"><ele>872.0</ele><time>2026-05-02T10:30:05.167Z</time></trkpt><trkpt lat="42.191024" lon="13.768515"><ele>872.0</ele><time>2026-05-02T10:30:06.155Z</time></trkpt><trkpt lat="42.1910989" lon="13.7684624"><ele>872.0000000000001</ele><time>2026-05-02T10:30:07.162Z</time></trkpt><trkpt lat="42.1911686" lon="13.7683913"><ele>872.0</ele><time>2026-05-02T10:30:08.161Z</time></trkpt><trkpt lat="42.1912278" lon="13.7683074"><ele>872.1666666666667</ele><time>2026-05-02T10:30:09.162Z</time></trkpt><trkpt lat="42.1912826" lon="13.7682176"><ele>872.3333333333334</ele><time>2026-05-02T10:30:10.16Z</time></trkpt><trkpt lat="42.1913336" lon="13.7681262"><ele>872.5</ele><time>2026-05-02T10:30:11.163Z</time></trkpt><trkpt lat="42.1913907" lon="13.7680369"><ele>872.6666666666667</ele><time>2026-05-02T10:30:12.165Z</time></trkpt><trkpt lat="42.1914513" lon="13.7679432"><ele>872.8333333333334</ele><time>2026-05-02T10:30:13.163Z</time></trkpt><trkpt lat="42.1915135" lon="13.7678562"><ele>873.0</ele><time>2026-05-02T10:30:14.169Z</time></trkpt><trkpt lat="42.1915834" lon="13.7677768"><ele>873.0</ele><time>2026-05-02T10:30:15.157Z</time></trkpt><trkpt lat="42.1916525" lon="13.7677143"><ele>873.0</ele><time>2026-05-02T10:30:16.158Z</time></trkpt><trkpt lat="42.191713" lon="13.7676649"><ele>873.0</ele><time>2026-05-02T10:30:17.17Z</time></trkpt><trkpt lat="42.1917737" lon="13.7676025"><ele>873.0</ele><time>2026-05-02T10:30:18.167Z</time></trkpt><trkpt lat="42.1918328" lon="13.7675248"><ele>873.0</ele><time>2026-05-02T10:30:19.167Z</time></trkpt><trkpt lat="42.191887" lon="13.7674296"><ele>873.0</ele><time>2026-05-02T10:30:20.17Z</time></trkpt><trkpt lat="42.1919305" lon="13.7673258"><ele>875.5</ele><time>2026-05-02T10:30:21.164Z</time></trkpt><trkpt lat="42.1919688" lon="13.767231"><ele>878.0</ele><time>2026-05-02T10:30:22.171Z</time></trkpt><trkpt lat="42.1919982" lon="13.7671432"><ele>880.5</ele><time>2026-05-02T10:30:23.164Z</time></trkpt><trkpt lat="42.1920283" lon="13.767034"><ele>883.0</ele><time>2026-05-02T10:30:24.162Z</time></trkpt><trkpt lat="42.1920535" lon="13.7669153"><ele>885.5</ele><time>2026-05-02T10:30:25.16Z</time></trkpt><trkpt lat="42.1920803" lon="13.7668068"><ele>888.0</ele><time>2026-05-02T10:30:26.16Z</time></trkpt><trkpt lat="42.1921137" lon="13.7667155"><ele>889.0</ele><time>2026-05-02T10:30:27.162Z</time></trkpt><trkpt lat="42.1921507" lon="13.7666262"><ele>890.0</ele><time>2026-05-02T10:30:28.159Z</time></trkpt><trkpt lat="42.1921983" lon="13.7665265"><ele>891.0</ele><time>2026-05-02T10:30:29.171Z</time></trkpt><trkpt lat="42.1922513" lon="13.7664323"><ele>892.0</ele><time>2026-05-02T10:30:30.162Z</time></trkpt><trkpt lat="42.1923086" lon="13.7663353"><ele>893.0</ele><time>2026-05-02T10:30:31.171Z</time></trkpt><trkpt lat="42.1923704" lon="13.7662419"><ele>894.0</ele><time>2026-05-02T10:30:32.159Z</time></trkpt><trkpt lat="42.1924353" lon="13.7661443"><ele>894.0</ele><time>2026-05-02T10:30:33.166Z</time></trkpt><trkpt lat="42.1925027" lon="13.7660314"><ele>894.0000000000001</ele><time>2026-05-02T10:30:34.161Z</time></trkpt><trkpt lat="42.1925704" lon="13.7659145"><ele>894.0000000000001</ele><time>2026-05-02T10:30:35.164Z</time></trkpt><trkpt lat="42.1926414" lon="13.7657932"><ele>894.0</ele><time>2026-05-02T10:30:36.156Z</time></trkpt><trkpt lat="42.1927214" lon="13.7656808"><ele>894.0</ele><time>2026-05-02T10:30:37.163Z</time></trkpt><trkpt lat="42.1928067" lon="13.765575"><ele>897.0</ele><time>2026-05-02T10:30:38.156Z</time></trkpt><trkpt lat="42.1928908" lon="13.7654696"><ele>900.0</ele><time>2026-05-02T10:30:39.172Z</time></trkpt><trkpt lat="42.192974" lon="13.7653573"><ele>903.0</ele><time>2026-05-02T10:30:40.158Z</time></trkpt><trkpt lat="42.1930554" lon="13.76525"><ele>906.0</ele><time>2026-05-02T10:30:41.166Z</time></trkpt><trkpt lat="42.1931408" lon="13.765154"><ele>906.75</ele><time>2026-05-02T10:30:42.158Z</time></trkpt><trkpt lat="42.1932243" lon="13.76504"><ele>907.5</ele><time>2026-05-02T10:30:43.167Z</time></trkpt><trkpt lat="42.1933023" lon="13.7649129"><ele>908.25</ele><time>2026-05-02T10:30:44.162Z</time></trkpt><trkpt lat="42.193375" lon="13.7647938"><ele>909.0</ele><time>2026-05-02T10:30:45.168Z</time></trkpt><trkpt lat="42.1934487" lon="13.7646887"><ele>909.0</ele><time>2026-05-02T10:30:46.163Z</time></trkpt><trkpt lat="42.1935223" lon="13.7645966"><ele>909.0000000000001</ele><time>2026-05-02T10:30:47.169Z</time></trkpt><trkpt lat="42.1936064" lon="13.7645089"><ele>909.0000000000001</ele><time>2026-05-02T10:30:48.166Z</time></trkpt><trkpt lat="42.1936856" lon="13.7644433"><ele>909.0</ele><time>2026-05-02T10:30:49.159Z</time></trkpt><trkpt lat="42.1937633" lon="13.7644065"><ele>909.0</ele><time>2026-05-02T10:30:50.162Z</time></trkpt><trkpt lat="42.1938517" lon="13.7643865"><ele>909.8000000000001</ele><time>2026-05-02T10:30:51.172Z</time></trkpt><trkpt lat="42.1939412" lon="13.7643593"><ele>910.6000000000001</ele><time>2026-05-02T10:30:52.168Z</time></trkpt><trkpt lat="42.1940168" lon="13.7643075"><ele>911.4</ele><time>2026-05-02T10:30:53.164Z</time></trkpt><trkpt lat="42.1940815" lon="13.7642269"><ele>912.2</ele><time>2026-05-02T10:30:54.165Z</time></trkpt><trkpt lat="42.1941304" lon="13.7641042"><ele>913.0</ele><time>2026-05-02T10:30:55.164Z</time></trkpt><trkpt lat="42.1941827" lon="13.7639549"><ele>913.0</ele><time>2026-05-02T10:30:56.172Z</time></trkpt><trkpt lat="42.1942381" lon="13.763806"><ele>913.0</ele><time>2026-05-02T10:30:57.168Z</time></trkpt><trkpt lat="42.1942887" lon="13.7636732"><ele>913.0</ele><time>2026-05-02T10:30:58.17Z</time></trkpt><trkpt lat="42.1943362" lon="13.7635594"><ele>913.0</ele><time>2026-05-02T10:30:59.167Z</time></trkpt><trkpt lat="42.1943889" lon="13.7634609"><ele>913.0</ele><time>2026-05-02T10:31:00.168Z</time></trkpt><trkpt lat="42.194454" lon="13.7633661"><ele>915.4</ele><time>2026-05-02T10:31:01.163Z</time></trkpt><trkpt lat="42.1945344" lon="13.7632621"><ele>917.8</ele><time>2026-05-02T10:31:02.16Z</time></trkpt><trkpt lat="42.1946081" lon="13.7631545"><ele>920.2</ele><time>2026-05-02T10:31:03.169Z</time></trkpt><trkpt lat="42.1946768" lon="13.7630472"><ele>922.6</ele><time>2026-05-02T10:31:04.165Z</time></trkpt><trkpt lat="42.1947396" lon="13.7629562"><ele>925.0</ele><time>2026-05-02T10:31:05.167Z</time></trkpt><trkpt lat="42.1948061" lon="13.762879"><ele>924.4</ele><time>2026-05-02T10:31:06.17Z</time></trkpt><trkpt lat="42.1948843" lon="13.7628147"><ele>923.8</ele><time>2026-05-02T10:31:07.158Z</time></trkpt><trkpt lat="42.1949702" lon="13.7627596"><ele>923.2</ele><time>2026-05-02T10:31:08.169Z</time></trkpt><trkpt lat="42.19506" lon="13.7627145"><ele>922.6</ele><time>2026-05-02T10:31:09.159Z</time></trkpt><trkpt lat="42.1951539" lon="13.7626763"><ele>922.0</ele><time>2026-05-02T10:31:10.159Z</time></trkpt><trkpt lat="42.1952588" lon="13.7626435"><ele>922.0</ele><time>2026-05-02T10:31:11.167Z</time></trkpt><trkpt lat="42.195356" lon="13.762608"><ele>922.0</ele><time>2026-05-02T10:31:12.169Z</time></trkpt><trkpt lat="42.1954415" lon="13.7625583"><ele>922.0</ele><time>2026-05-02T10:31:13.163Z</time></trkpt><trkpt lat="42.1955194" lon="13.7624717"><ele>922.0</ele><time>2026-05-02T10:31:14.165Z</time></trkpt><trkpt lat="42.1955972" lon="13.7623579"><ele>922.0</ele><time>2026-05-02T10:31:15.163Z</time></trkpt><trkpt lat="42.1956727" lon="13.7622371"><ele>921.9999999999999</ele><time>2026-05-02T10:31:16.159Z</time></trkpt><trkpt lat="42.1957348" lon="13.7621312"><ele>922.0</ele><time>2026-05-02T10:31:17.164Z</time></trkpt><trkpt lat="42.1957831" lon="13.762036"><ele>922.0</ele><time>2026-05-02T10:31:18.17Z</time></trkpt><trkpt lat="42.1958213" lon="13.7619527"><ele>922.0</ele><time>2026-05-02T10:31:19.168Z</time></trkpt><trkpt lat="42.1958521" lon="13.7618753"><ele>921.9999999999999</ele><time>2026-05-02T10:31:20.165Z</time></trkpt><trkpt lat="42.1958974" lon="13.7617841"><ele>922.0</ele><time>2026-05-02T10:31:21.169Z</time></trkpt><trkpt lat="42.1959393" lon="13.7616849"><ele>921.9999999999999</ele><time>2026-05-02T10:31:22.175Z</time></trkpt><trkpt lat="42.195989" lon="13.7615837"><ele>922.0</ele><time>2026-05-02T10:31:23.169Z</time></trkpt><trkpt lat="42.1960398" lon="13.7614836"><ele>922.0</ele><time>2026-05-02T10:31:24.169Z</time></trkpt><trkpt lat="42.1960921" lon="13.7613942"><ele>922.0</ele><time>2026-05-02T10:31:25.163Z</time></trkpt><trkpt lat="42.1961359" lon="13.7613273"><ele>921.9999999999999</ele><time>2026-05-02T10:31:26.163Z</time></trkpt><trkpt lat="42.1962054" lon="13.7612258"><ele>922.0</ele><time>2026-05-02T10:31:28.159Z</time></trkpt><trkpt lat="42.1962569" lon="13.7611551"><ele>922.0</ele><time>2026-05-02T10:31:29.161Z</time></trkpt><trkpt lat="42.1963129" lon="13.7610655"><ele>922.0</ele><time>2026-05-02T10:31:30.158Z</time></trkpt><trkpt lat="42.1963771" lon="13.7609631"><ele>922.0</ele><time>2026-05-02T10:31:31.158Z</time></trkpt><trkpt lat="42.1964419" lon="13.7608484"><ele>922.0</ele><time>2026-05-02T10:31:32.163Z</time></trkpt><trkpt lat="42.1964953" lon="13.7607326"><ele>922.0</ele><time>2026-05-02T10:31:33.158Z</time></trkpt><trkpt lat="42.1965442" lon="13.7606116"><ele>922.0</ele><time>2026-05-02T10:31:34.158Z</time></trkpt><trkpt lat="42.196596" lon="13.7604956"><ele>922.0</ele><time>2026-05-02T10:31:35.15Z</time></trkpt><trkpt lat="42.1966548" lon="13.7603894"><ele>922.0</ele><time>2026-05-02T10:31:36.162Z</time></trkpt><trkpt lat="42.1967105" lon="13.7602799"><ele>922.0</ele><time>2026-05-02T10:31:37.158Z</time></trkpt><trkpt lat="42.1967645" lon="13.7601693"><ele>922.0</ele><time>2026-05-02T10:31:38.162Z</time></trkpt><trkpt lat="42.1968135" lon="13.7600695"><ele>923.4999999999999</ele><time>2026-05-02T10:31:39.164Z</time></trkpt><trkpt lat="42.1968496" lon="13.7599818"><ele>925.0</ele><time>2026-05-02T10:31:40.165Z</time></trkpt><trkpt lat="42.1968811" lon="13.7598983"><ele>926.5</ele><time>2026-05-02T10:31:41.161Z</time></trkpt><trkpt lat="42.1969193" lon="13.7598173"><ele>928.0</ele><time>2026-05-02T10:31:42.163Z</time></trkpt><trkpt lat="42.1969579" lon="13.7597209"><ele>929.4999999999999</ele><time>2026-05-02T10:31:43.161Z</time></trkpt><trkpt lat="42.1969854" lon="13.7596189"><ele>931.0</ele><time>2026-05-02T10:31:44.16Z</time></trkpt><trkpt lat="42.1969991" lon="13.7594938"><ele>932.0</ele><time>2026-05-02T10:31:45.153Z</time></trkpt><trkpt lat="42.1969937" lon="13.7593396"><ele>932.9999999999999</ele><time>2026-05-02T10:31:46.159Z</time></trkpt><trkpt lat="42.1969823" lon="13.7591877"><ele>933.9999999999999</ele><time>2026-05-02T10:31:47.161Z</time></trkpt><trkpt lat="42.1969665" lon="13.7590513"><ele>935.0</ele><time>2026-05-02T10:31:48.163Z</time></trkpt><trkpt lat="42.1969467" lon="13.7589262"><ele>936.0</ele><time>2026-05-02T10:31:49.154Z</time></trkpt><trkpt lat="42.1969228" lon="13.7587989"><ele>936.0</ele><time>2026-05-02T10:31:50.156Z</time></trkpt><trkpt lat="42.1969008" lon="13.7586794"><ele>936.0</ele><time>2026-05-02T10:31:51.156Z</time></trkpt><trkpt lat="42.1968854" lon="13.7585675"><ele>936.0</ele><time>2026-05-02T10:31:52.155Z</time></trkpt><trkpt lat="42.1968778" lon="13.7584701"><ele>936.0</ele><time>2026-05-02T10:31:53.148Z</time></trkpt><trkpt lat="42.1968789" lon="13.7583743"><ele>936.0</ele><time>2026-05-02T10:31:54.148Z</time></trkpt><trkpt lat="42.1968977" lon="13.7582699"><ele>936.0</ele><time>2026-05-02T10:31:55.153Z</time></trkpt><trkpt lat="42.196932" lon="13.7581538"><ele>936.4</ele><time>2026-05-02T10:31:56.15Z</time></trkpt><trkpt lat="42.1969783" lon="13.7580338"><ele>936.8</ele><time>2026-05-02T10:31:57.15Z</time></trkpt><trkpt lat="42.1970298" lon="13.7579151"><ele>937.1999999999999</ele><time>2026-05-02T10:31:58.157Z</time></trkpt><trkpt lat="42.1970846" lon="13.7578057"><ele>937.5999999999999</ele><time>2026-05-02T10:31:59.154Z</time></trkpt><trkpt lat="42.1971509" lon="13.7577017"><ele>938.0</ele><time>2026-05-02T10:32:00.158Z</time></trkpt><trkpt lat="42.1972168" lon="13.757592"><ele>939.3333333333334</ele><time>2026-05-02T10:32:01.153Z</time></trkpt><trkpt lat="42.1972731" lon="13.7574865"><ele>940.6666666666667</ele><time>2026-05-02T10:32:02.154Z</time></trkpt><trkpt lat="42.1973067" lon="13.757383"><ele>942.0</ele><time>2026-05-02T10:32:03.15Z</time></trkpt><trkpt lat="42.1973217" lon="13.7572824"><ele>943.3333333333333</ele><time>2026-05-02T10:32:04.152Z</time></trkpt><trkpt lat="42.1973108" lon="13.7571637"><ele>944.6666666666666</ele><time>2026-05-02T10:32:05.146Z</time></trkpt><trkpt lat="42.1972858" lon="13.7570278"><ele>946.0</ele><time>2026-05-02T10:32:06.151Z</time></trkpt><trkpt lat="42.1972552" lon="13.7569011"><ele>946.9999999999999</ele><time>2026-05-02T10:32:07.153Z</time></trkpt><trkpt lat="42.1972203" lon="13.7567818"><ele>948.0</ele><time>2026-05-02T10:32:08.148Z</time></trkpt><trkpt lat="42.1971992" lon="13.7566727"><ele>949.0</ele><time>2026-05-02T10:32:09.154Z</time></trkpt><trkpt lat="42.197183" lon="13.7565585"><ele>950.0</ele><time>2026-05-02T10:32:10.149Z</time></trkpt><trkpt lat="42.1971855" lon="13.7564346"><ele>950.9999999999999</ele><time>2026-05-02T10:32:11.155Z</time></trkpt><trkpt lat="42.1971934" lon="13.7563276"><ele>952.0</ele><time>2026-05-02T10:32:12.155Z</time></trkpt><trkpt lat="42.1971924" lon="13.7562326"><ele>951.9999999999999</ele><time>2026-05-02T10:32:13.154Z</time></trkpt><trkpt lat="42.1971914" lon="13.7561392"><ele>952.0</ele><time>2026-05-02T10:32:14.155Z</time></trkpt><trkpt lat="42.197193" lon="13.756052"><ele>952.0</ele><time>2026-05-02T10:32:15.156Z</time></trkpt><trkpt lat="42.1972061" lon="13.7559467"><ele>952.0</ele><time>2026-05-02T10:32:17.159Z</time></trkpt><trkpt lat="42.1971989" lon="13.7558151"><ele>951.9999999999999</ele><time>2026-05-02T10:32:20.162Z</time></trkpt><trkpt lat="42.1971778" lon="13.7556546"><ele>952.0</ele><time>2026-05-02T10:32:22.158Z</time></trkpt><trkpt lat="42.1971652" lon="13.7555566"><ele>953.2857142857142</ele><time>2026-05-02T10:32:23.162Z</time></trkpt><trkpt lat="42.1971544" lon="13.7554604"><ele>954.5714285714286</ele><time>2026-05-02T10:32:24.157Z</time></trkpt><trkpt lat="42.1971396" lon="13.755362"><ele>955.8571428571429</ele><time>2026-05-02T10:32:25.16Z</time></trkpt><trkpt lat="42.1971262" lon="13.7552727"><ele>957.1428571428571</ele><time>2026-05-02T10:32:26.16Z</time></trkpt><trkpt lat="42.197114" lon="13.7551875"><ele>958.4285714285713</ele><time>2026-05-02T10:32:27.158Z</time></trkpt><trkpt lat="42.197096" lon="13.7551039"><ele>959.7142857142857</ele><time>2026-05-02T10:32:28.161Z</time></trkpt><trkpt lat="42.1970694" lon="13.7550228"><ele>961.0</ele><time>2026-05-02T10:32:29.162Z</time></trkpt><trkpt lat="42.1970421" lon="13.7549453"><ele>962.4285714285713</ele><time>2026-05-02T10:32:30.16Z</time></trkpt><trkpt lat="42.1970152" lon="13.7548552"><ele>963.8571428571428</ele><time>2026-05-02T10:32:31.161Z</time></trkpt><trkpt lat="42.1969871" lon="13.7547649"><ele>965.2857142857142</ele><time>2026-05-02T10:32:32.155Z</time></trkpt><trkpt lat="42.1969637" lon="13.7546758"><ele>966.7142857142858</ele><time>2026-05-02T10:32:33.155Z</time></trkpt><trkpt lat="42.1969462" lon="13.7545873"><ele>968.1428571428572</ele><time>2026-05-02T10:32:34.155Z</time></trkpt><trkpt lat="42.1969317" lon="13.7544985"><ele>969.5714285714287</ele><time>2026-05-02T10:32:35.156Z</time></trkpt><trkpt lat="42.1969276" lon="13.7544134"><ele>971.0</ele><time>2026-05-02T10:32:36.156Z</time></trkpt><trkpt lat="42.1969342" lon="13.7543255"><ele>972.8333333333334</ele><time>2026-05-02T10:32:37.15Z</time></trkpt><trkpt lat="42.1968948" lon="13.7541631"><ele>974.6666666666667</ele><time>2026-05-02T10:32:39.149Z</time></trkpt><trkpt lat="42.1968664" lon="13.7540721"><ele>976.5</ele><time>2026-05-02T10:32:40.155Z</time></trkpt><trkpt lat="42.1968319" lon="13.7539915"><ele>978.3333333333333</ele><time>2026-05-02T10:32:41.154Z</time></trkpt><trkpt lat="42.1967831" lon="13.7539151"><ele>980.1666666666666</ele><time>2026-05-02T10:32:42.148Z</time></trkpt><trkpt lat="42.196692" lon="13.7538529"><ele>982.0</ele><time>2026-05-02T10:32:44.157Z</time></trkpt><trkpt lat="42.1966142" lon="13.7537902"><ele>981.9999999999999</ele><time>2026-05-02T10:32:46.155Z</time></trkpt><trkpt lat="42.1965588" lon="13.7536902"><ele>982.0</ele><time>2026-05-02T10:32:48.161Z</time></trkpt><trkpt lat="42.1965387" lon="13.7535877"><ele>982.0</ele><time>2026-05-02T10:32:50.151Z</time></trkpt><trkpt lat="42.1965563" lon="13.7534538"><ele>982.0</ele><time>2026-05-02T10:32:52.155Z</time></trkpt><trkpt lat="42.1965868" lon="13.7533751"><ele>981.9999999999999</ele><time>2026-05-02T10:32:53.156Z</time></trkpt><trkpt lat="42.1966222" lon="13.7532789"><ele>982.0</ele><time>2026-05-02T10:32:54.15Z</time></trkpt><trkpt lat="42.1966567" lon="13.7531736"><ele>983.8333333333333</ele><time>2026-05-02T10:32:55.146Z</time></trkpt><trkpt lat="42.1966961" lon="13.7530977"><ele>985.6666666666666</ele><time>2026-05-02T10:32:56.151Z</time></trkpt><trkpt lat="42.1968065" lon="13.7530131"><ele>987.5</ele><time>2026-05-02T10:32:58.151Z</time></trkpt><trkpt lat="42.1968699" lon="13.7530054"><ele>989.3333333333333</ele><time>2026-05-02T10:32:59.154Z</time></trkpt><trkpt lat="42.1969332" lon="13.7529962"><ele>991.1666666666666</ele><time>2026-05-02T10:33:00.151Z</time></trkpt><trkpt lat="42.1969982" lon="13.7529731"><ele>993.0</ele><time>2026-05-02T10:33:01.149Z</time></trkpt><trkpt lat="42.1970722" lon="13.7529214"><ele>993.0</ele><time>2026-05-02T10:33:02.148Z</time></trkpt><trkpt lat="42.1971517" lon="13.7528407"><ele>993.0</ele><time>2026-05-02T10:33:03.148Z</time></trkpt><trkpt lat="42.1972295" lon="13.752738"><ele>993.0</ele><time>2026-05-02T10:33:04.155Z</time></trkpt><trkpt lat="42.1973031" lon="13.7526176"><ele>993.0</ele><time>2026-05-02T10:33:05.154Z</time></trkpt><trkpt lat="42.1973653" lon="13.7524803"><ele>993.0</ele><time>2026-05-02T10:33:06.162Z</time></trkpt><trkpt lat="42.1974254" lon="13.7523372"><ele>994.2</ele><time>2026-05-02T10:33:07.159Z</time></trkpt><trkpt lat="42.1974757" lon="13.7522014"><ele>995.4</ele><time>2026-05-02T10:33:08.154Z</time></trkpt><trkpt lat="42.1975153" lon="13.7520803"><ele>996.6000000000001</ele><time>2026-05-02T10:33:09.162Z</time></trkpt><trkpt lat="42.1975517" lon="13.751963"><ele>997.8000000000001</ele><time>2026-05-02T10:33:10.155Z</time></trkpt><trkpt lat="42.1975962" lon="13.7518583"><ele>999.0</ele><time>2026-05-02T10:33:11.151Z</time></trkpt><trkpt lat="42.197662" lon="13.7517685"><ele>1001.4000000000001</ele><time>2026-05-02T10:33:12.152Z</time></trkpt><trkpt lat="42.1977355" lon="13.7516726"><ele>1003.8000000000001</ele><time>2026-05-02T10:33:13.152Z</time></trkpt><trkpt lat="42.1978094" lon="13.7515711"><ele>1006.1999999999999</ele><time>2026-05-02T10:33:14.154Z</time></trkpt><trkpt lat="42.1978906" lon="13.7514695"><ele>1008.5999999999999</ele><time>2026-05-02T10:33:15.155Z</time></trkpt><trkpt lat="42.1979832" lon="13.751376"><ele>1011.0</ele><time>2026-05-02T10:33:16.147Z</time></trkpt><trkpt lat="42.1980768" lon="13.7512631"><ele>1011.0</ele><time>2026-05-02T10:33:17.155Z</time></trkpt><trkpt lat="42.1981677" lon="13.7511405"><ele>1010.9999999999999</ele><time>2026-05-02T10:33:18.157Z</time></trkpt><trkpt lat="42.1982478" lon="13.7510242"><ele>1010.9999999999999</ele><time>2026-05-02T10:33:19.149Z</time></trkpt><trkpt lat="42.1983159" lon="13.750926"><ele>1011.0</ele><time>2026-05-02T10:33:20.152Z</time></trkpt><trkpt lat="42.1983746" lon="13.750838"><ele>1011.0</ele><time>2026-05-02T10:33:21.154Z</time></trkpt><trkpt lat="42.1984291" lon="13.7507464"><ele>1012.6666666666666</ele><time>2026-05-02T10:33:22.156Z</time></trkpt><trkpt lat="42.1984937" lon="13.7506611"><ele>1014.3333333333333</ele><time>2026-05-02T10:33:23.151Z</time></trkpt><trkpt lat="42.1985503" lon="13.7505729"><ele>1016.0</ele><time>2026-05-02T10:33:24.153Z</time></trkpt><trkpt lat="42.1986091" lon="13.7504869"><ele>1017.6666666666666</ele><time>2026-05-02T10:33:25.151Z</time></trkpt><trkpt lat="42.198675" lon="13.7503954"><ele>1019.3333333333333</ele><time>2026-05-02T10:33:26.156Z</time></trkpt><trkpt lat="42.1987334" lon="13.750313"><ele>1021.0</ele><time>2026-05-02T10:33:27.152Z</time></trkpt><trkpt lat="42.1987776" lon="13.750239"><ele>1022.8333333333333</ele><time>2026-05-02T10:33:28.151Z</time></trkpt><trkpt lat="42.1988081" lon="13.750164"><ele>1024.6666666666665</ele><time>2026-05-02T10:33:29.154Z</time></trkpt><trkpt lat="42.1988264" lon="13.7500798"><ele>1026.5</ele><time>2026-05-02T10:33:30.147Z</time></trkpt><trkpt lat="42.1988302" lon="13.7499798"><ele>1028.3333333333333</ele><time>2026-05-02T10:33:31.159Z</time></trkpt><trkpt lat="42.1988429" lon="13.749859"><ele>1030.1666666666667</ele><time>2026-05-02T10:33:32.149Z</time></trkpt><trkpt lat="42.1988471" lon="13.7497366"><ele>1032.0</ele><time>2026-05-02T10:33:33.157Z</time></trkpt><trkpt lat="42.1988429" lon="13.7496159"><ele>1032.0</ele><time>2026-05-02T10:33:34.149Z</time></trkpt><trkpt lat="42.1988316" lon="13.7495251"><ele>1032.0</ele><time>2026-05-02T10:33:35.148Z</time></trkpt><trkpt lat="42.1988046" lon="13.7494054"><ele>1032.0</ele><time>2026-05-02T10:33:37.146Z</time></trkpt><trkpt lat="42.1987857" lon="13.7492349"><ele>1032.0</ele><time>2026-05-02T10:33:39.155Z</time></trkpt><trkpt lat="42.1987835" lon="13.7491424"><ele>1032.0</ele><time>2026-05-02T10:33:40.147Z</time></trkpt><trkpt lat="42.1987838" lon="13.7490409"><ele>1032.0</ele><time>2026-05-02T10:33:41.152Z</time></trkpt><trkpt lat="42.1987823" lon="13.7489348"><ele>1032.8333333333333</ele><time>2026-05-02T10:33:42.15Z</time></trkpt><trkpt lat="42.1987711" lon="13.7488247"><ele>1033.6666666666667</ele><time>2026-05-02T10:33:43.148Z</time></trkpt><trkpt lat="42.1987495" lon="13.7487146"><ele>1034.5</ele><time>2026-05-02T10:33:44.15Z</time></trkpt><trkpt lat="42.198728" lon="13.7486051"><ele>1035.3333333333335</ele><time>2026-05-02T10:33:45.15Z</time></trkpt><trkpt lat="42.1987184" lon="13.7484881"><ele>1036.1666666666667</ele><time>2026-05-02T10:33:46.146Z</time></trkpt><trkpt lat="42.198722" lon="13.7483602"><ele>1037.0</ele><time>2026-05-02T10:33:47.152Z</time></trkpt><trkpt lat="42.1987288" lon="13.7482194"><ele>1037.4</ele><time>2026-05-02T10:33:48.155Z</time></trkpt><trkpt lat="42.1987383" lon="13.7480693"><ele>1037.8000000000002</ele><time>2026-05-02T10:33:49.153Z</time></trkpt><trkpt lat="42.1987419" lon="13.7479271"><ele>1038.2</ele><time>2026-05-02T10:33:50.161Z</time></trkpt><trkpt lat="42.1987432" lon="13.7477872"><ele>1038.6000000000001</ele><time>2026-05-02T10:33:51.157Z</time></trkpt><trkpt lat="42.1987443" lon="13.7476445"><ele>1039.0</ele><time>2026-05-02T10:33:52.152Z</time></trkpt><trkpt lat="42.1987395" lon="13.7475013"><ele>1040.4</ele><time>2026-05-02T10:33:53.166Z</time></trkpt><trkpt lat="42.1987402" lon="13.7473641"><ele>1041.8000000000002</ele><time>2026-05-02T10:33:54.156Z</time></trkpt><trkpt lat="42.1987468" lon="13.7472337"><ele>1043.1999999999998</ele><time>2026-05-02T10:33:55.158Z</time></trkpt><trkpt lat="42.1987651" lon="13.7471131"><ele>1044.6</ele><time>2026-05-02T10:33:56.161Z</time></trkpt><trkpt lat="42.1987881" lon="13.7469993"><ele>1046.0</ele><time>2026-05-02T10:33:57.161Z</time></trkpt><trkpt lat="42.1988303" lon="13.7468785"><ele>1047.3999999999999</ele><time>2026-05-02T10:33:58.158Z</time></trkpt><trkpt lat="42.1988688" lon="13.7467455"><ele>1048.8</ele><time>2026-05-02T10:33:59.163Z</time></trkpt><trkpt lat="42.1988842" lon="13.7466064"><ele>1050.1999999999998</ele><time>2026-05-02T10:34:00.164Z</time></trkpt><trkpt lat="42.1988898" lon="13.7464567"><ele>1051.6</ele><time>2026-05-02T10:34:01.164Z</time></trkpt><trkpt lat="42.198894" lon="13.746307"><ele>1053.0</ele><time>2026-05-02T10:34:02.16Z</time></trkpt><trkpt lat="42.1988974" lon="13.7461684"><ele>1053.8</ele><time>2026-05-02T10:34:03.166Z</time></trkpt><trkpt lat="42.1989106" lon="13.7460386"><ele>1054.6</ele><time>2026-05-02T10:34:04.149Z</time></trkpt><trkpt lat="42.1989402" lon="13.7459021"><ele>1055.4</ele><time>2026-05-02T10:34:05.16Z</time></trkpt><trkpt lat="42.1989838" lon="13.7457687"><ele>1056.2</ele><time>2026-05-02T10:34:06.154Z</time></trkpt><trkpt lat="42.1990241" lon="13.745648"><ele>1057.0</ele><time>2026-05-02T10:34:07.161Z</time></trkpt><trkpt lat="42.1990528" lon="13.7455342"><ele>1057.0</ele><time>2026-05-02T10:34:08.154Z</time></trkpt><trkpt lat="42.1990839" lon="13.7454166"><ele>1057.0</ele><time>2026-05-02T10:34:09.161Z</time></trkpt><trkpt lat="42.1991277" lon="13.7453129"><ele>1057.0</ele><time>2026-05-02T10:34:10.152Z</time></trkpt><trkpt lat="42.1991817" lon="13.7452162"><ele>1057.0</ele><time>2026-05-02T10:34:11.161Z</time></trkpt><trkpt lat="42.1992599" lon="13.7451198"><ele>1057.0</ele><time>2026-05-02T10:34:12.157Z</time></trkpt><trkpt lat="42.1993321" lon="13.7450232"><ele>1057.3333333333333</ele><time>2026-05-02T10:34:13.153Z</time></trkpt><trkpt lat="42.1993831" lon="13.7449244"><ele>1057.6666666666665</ele><time>2026-05-02T10:34:14.158Z</time></trkpt><trkpt lat="42.1994219" lon="13.7448296"><ele>1058.0</ele><time>2026-05-02T10:34:15.156Z</time></trkpt><trkpt lat="42.19945" lon="13.7447417"><ele>1058.3333333333333</ele><time>2026-05-02T10:34:16.16Z</time></trkpt><trkpt lat="42.1994748" lon="13.7446611"><ele>1058.6666666666667</ele><time>2026-05-02T10:34:17.164Z</time></trkpt><trkpt lat="42.199523" lon="13.7445129"><ele>1059.0</ele><time>2026-05-02T10:34:19.164Z</time></trkpt><trkpt lat="42.1995919" lon="13.7443889"><ele>1059.8</ele><time>2026-05-02T10:34:21.166Z</time></trkpt><trkpt lat="42.1996725" lon="13.7443139"><ele>1060.6000000000001</ele><time>2026-05-02T10:34:23.161Z</time></trkpt><trkpt lat="42.1997518" lon="13.7442773"><ele>1061.4</ele><time>2026-05-02T10:34:25.161Z</time></trkpt><trkpt lat="42.1998518" lon="13.7442317"><ele>1062.2</ele><time>2026-05-02T10:34:27.172Z</time></trkpt><trkpt lat="42.1999607" lon="13.7441798"><ele>1063.0</ele><time>2026-05-02T10:34:29.178Z</time></trkpt><trkpt lat="42.2000711" lon="13.7441243"><ele>1060.6</ele><time>2026-05-02T10:34:31.167Z</time></trkpt><trkpt lat="42.2001735" lon="13.7440617"><ele>1058.1999999999998</ele><time>2026-05-02T10:34:33.169Z</time></trkpt><trkpt lat="42.2002533" lon="13.7439826"><ele>1055.8</ele><time>2026-05-02T10:34:35.161Z</time></trkpt><trkpt lat="42.2003375" lon="13.7438822"><ele>1053.3999999999999</ele><time>2026-05-02T10:34:37.166Z</time></trkpt><trkpt lat="42.2003895" lon="13.7438091"><ele>1051.0</ele><time>2026-05-02T10:34:38.158Z</time></trkpt><trkpt lat="42.2004464" lon="13.7437208"><ele>1051.0</ele><time>2026-05-02T10:34:39.166Z</time></trkpt><trkpt lat="42.2004992" lon="13.7436227"><ele>1051.0</ele><time>2026-05-02T10:34:40.166Z</time></trkpt><trkpt lat="42.2005467" lon="13.7435254"><ele>1051.0</ele><time>2026-05-02T10:34:41.165Z</time></trkpt><trkpt lat="42.2005888" lon="13.7434328"><ele>1051.0</ele><time>2026-05-02T10:34:42.169Z</time></trkpt><trkpt lat="42.2006298" lon="13.7433412"><ele>1051.0</ele><time>2026-05-02T10:34:43.164Z</time></trkpt><trkpt lat="42.2006657" lon="13.7432563"><ele>1051.0</ele><time>2026-05-02T10:34:44.158Z</time></trkpt><trkpt lat="42.2006969" lon="13.7431757"><ele>1048.8333333333333</ele><time>2026-05-02T10:34:45.16Z</time></trkpt><trkpt lat="42.2007238" lon="13.7430934"><ele>1046.6666666666665</ele><time>2026-05-02T10:34:46.156Z</time></trkpt><trkpt lat="42.2007528" lon="13.7430106"><ele>1044.5</ele><time>2026-05-02T10:34:47.162Z</time></trkpt><trkpt lat="42.2007886" lon="13.7429253"><ele>1042.3333333333333</ele><time>2026-05-02T10:34:48.158Z</time></trkpt><trkpt lat="42.2008348" lon="13.7428333"><ele>1040.1666666666667</ele><time>2026-05-02T10:34:49.163Z</time></trkpt><trkpt lat="42.2008862" lon="13.7427451"><ele>1038.0</ele><time>2026-05-02T10:34:50.155Z</time></trkpt><trkpt lat="42.2009367" lon="13.7426591"><ele>1038.0</ele><time>2026-05-02T10:34:51.157Z</time></trkpt><trkpt lat="42.2009813" lon="13.742577"><ele>1038.0</ele><time>2026-05-02T10:34:52.161Z</time></trkpt><trkpt lat="42.2010171" lon="13.7424907"><ele>1038.0</ele><time>2026-05-02T10:34:53.151Z</time></trkpt><trkpt lat="42.2010513" lon="13.7423982"><ele>1038.0</ele><time>2026-05-02T10:34:54.154Z</time></trkpt><trkpt lat="42.2010998" lon="13.7423167"><ele>1038.0</ele><time>2026-05-02T10:34:55.146Z</time></trkpt><trkpt lat="42.2011643" lon="13.742249"><ele>1038.0</ele><time>2026-05-02T10:34:56.156Z</time></trkpt><trkpt lat="42.2012278" lon="13.7421813"><ele>1038.0</ele><time>2026-05-02T10:34:57.15Z</time></trkpt><trkpt lat="42.2012877" lon="13.7421134"><ele>1038.0</ele><time>2026-05-02T10:34:58.148Z</time></trkpt><trkpt lat="42.2013436" lon="13.7420427"><ele>1038.0</ele><time>2026-05-02T10:34:59.15Z</time></trkpt><trkpt lat="42.2014073" lon="13.7419647"><ele>1038.0</ele><time>2026-05-02T10:35:00.153Z</time></trkpt><trkpt lat="42.2014765" lon="13.7418797"><ele>1038.0</ele><time>2026-05-02T10:35:01.147Z</time></trkpt><trkpt lat="42.2015435" lon="13.7417993"><ele>1038.0</ele><time>2026-05-02T10:35:02.153Z</time></trkpt><trkpt lat="42.2016058" lon="13.7417222"><ele>1035.6666666666667</ele><time>2026-05-02T10:35:03.159Z</time></trkpt><trkpt lat="42.2016636" lon="13.7416524"><ele>1033.3333333333333</ele><time>2026-05-02T10:35:04.155Z</time></trkpt><trkpt lat="42.2017143" lon="13.7415823"><ele>1031.0</ele><time>2026-05-02T10:35:05.158Z</time></trkpt><trkpt lat="42.201769" lon="13.7415094"><ele>1028.6666666666665</ele><time>2026-05-02T10:35:06.15Z</time></trkpt><trkpt lat="42.2018386" lon="13.7414466"><ele>1026.3333333333333</ele><time>2026-05-02T10:35:07.152Z</time></trkpt><trkpt lat="42.2019124" lon="13.7413916"><ele>1024.0</ele><time>2026-05-02T10:35:08.152Z</time></trkpt><trkpt lat="42.2019905" lon="13.7413442"><ele>1024.0</ele><time>2026-05-02T10:35:09.147Z</time></trkpt><trkpt lat="42.202065" lon="13.7413096"><ele>1024.0</ele><time>2026-05-02T10:35:10.15Z</time></trkpt><trkpt lat="42.2021498" lon="13.7413012"><ele>1024.0</ele><time>2026-05-02T10:35:11.152Z</time></trkpt><trkpt lat="42.2022583" lon="13.7412972"><ele>1024.0</ele><time>2026-05-02T10:35:12.147Z</time></trkpt><trkpt lat="42.2023727" lon="13.7412956"><ele>1024.0</ele><time>2026-05-02T10:35:13.149Z</time></trkpt><trkpt lat="42.2024914" lon="13.7412795"><ele>1019.8333333333333</ele><time>2026-05-02T10:35:14.15Z</time></trkpt><trkpt lat="42.2025999" lon="13.7412517"><ele>1015.6666666666666</ele><time>2026-05-02T10:35:15.148Z</time></trkpt><trkpt lat="42.2026958" lon="13.7412289"><ele>1011.5</ele><time>2026-05-02T10:35:16.149Z</time></trkpt><trkpt lat="42.2027739" lon="13.7412009"><ele>1007.3333333333333</ele><time>2026-05-02T10:35:17.144Z</time></trkpt><trkpt lat="42.2028465" lon="13.7411683"><ele>1003.1666666666666</ele><time>2026-05-02T10:35:18.147Z</time></trkpt><trkpt lat="42.2029251" lon="13.7411279"><ele>999.0</ele><time>2026-05-02T10:35:19.153Z</time></trkpt><trkpt lat="42.2030117" lon="13.7410851"><ele>999.0</ele><time>2026-05-02T10:35:20.15Z</time></trkpt><trkpt lat="42.203097" lon="13.7410591"><ele>999.0</ele><time>2026-05-02T10:35:21.152Z</time></trkpt><trkpt lat="42.2031789" lon="13.741055"><ele>999.0</ele><time>2026-05-02T10:35:22.15Z</time></trkpt><trkpt lat="42.2032529" lon="13.7410463"><ele>999.0</ele><time>2026-05-02T10:35:23.155Z</time></trkpt><trkpt lat="42.2033261" lon="13.7410279"><ele>999.0</ele><time>2026-05-02T10:35:24.147Z</time></trkpt><trkpt lat="42.2033895" lon="13.7409996"><ele>999.0</ele><time>2026-05-02T10:35:25.157Z</time></trkpt><trkpt lat="42.203452" lon="13.7409688"><ele>1000.1666666666666</ele><time>2026-05-02T10:35:26.156Z</time></trkpt><trkpt lat="42.2035204" lon="13.7409434"><ele>1001.3333333333333</ele><time>2026-05-02T10:35:27.153Z</time></trkpt><trkpt lat="42.2036262" lon="13.7408671"><ele>1002.5</ele><time>2026-05-02T10:35:29.158Z</time></trkpt><trkpt lat="42.2036721" lon="13.7407914"><ele>1003.6666666666666</ele><time>2026-05-02T10:35:30.152Z</time></trkpt><trkpt lat="42.2037197" lon="13.7406943"><ele>1004.8333333333333</ele><time>2026-05-02T10:35:31.154Z</time></trkpt><trkpt lat="42.20378" lon="13.740588"><ele>1006.0</ele><time>2026-05-02T10:35:32.156Z</time></trkpt><trkpt lat="42.2038409" lon="13.7404861"><ele>1005.9999999999999</ele><time>2026-05-02T10:35:33.159Z</time></trkpt><trkpt lat="42.2039062" lon="13.7403833"><ele>1006.0</ele><time>2026-05-02T10:35:34.154Z</time></trkpt><trkpt lat="42.2039644" lon="13.7402856"><ele>1006.0</ele><time>2026-05-02T10:35:35.157Z</time></trkpt><trkpt lat="42.204014" lon="13.7401967"><ele>1006.0</ele><time>2026-05-02T10:35:36.155Z</time></trkpt><trkpt lat="42.2040725" lon="13.7401229"><ele>1005.9999999999999</ele><time>2026-05-02T10:35:37.148Z</time></trkpt><trkpt lat="42.2041397" lon="13.7400565"><ele>1006.0</ele><time>2026-05-02T10:35:38.152Z</time></trkpt><trkpt lat="42.2042116" lon="13.7399923"><ele>1004.9999999999999</ele><time>2026-05-02T10:35:39.151Z</time></trkpt><trkpt lat="42.2042931" lon="13.7399251"><ele>1004.0</ele><time>2026-05-02T10:35:40.154Z</time></trkpt><trkpt lat="42.2043636" lon="13.7398468"><ele>1003.0</ele><time>2026-05-02T10:35:41.154Z</time></trkpt><trkpt lat="42.2044307" lon="13.7397711"><ele>1002.0</ele><time>2026-05-02T10:35:42.153Z</time></trkpt><trkpt lat="42.2044947" lon="13.7396969"><ele>1000.9999999999999</ele><time>2026-05-02T10:35:43.144Z</time></trkpt><trkpt lat="42.204572" lon="13.7396362"><ele>1000.0</ele><time>2026-05-02T10:35:44.156Z</time></trkpt><trkpt lat="42.2046581" lon="13.7395882"><ele>999.9999999999999</ele><time>2026-05-02T10:35:45.152Z</time></trkpt><trkpt lat="42.2047525" lon="13.7395543"><ele>1000.0</ele><time>2026-05-02T10:35:46.155Z</time></trkpt><trkpt lat="42.2048461" lon="13.7395351"><ele>1000.0</ele><time>2026-05-02T10:35:47.157Z</time></trkpt><trkpt lat="42.2049262" lon="13.7395239"><ele>1000.0</ele><time>2026-05-02T10:35:48.151Z</time></trkpt><trkpt lat="42.2049959" lon="13.7395067"><ele>999.9999999999999</ele><time>2026-05-02T10:35:49.149Z</time></trkpt><trkpt lat="42.2050533" lon="13.7394642"><ele>1000.0</ele><time>2026-05-02T10:35:50.149Z</time></trkpt><trkpt lat="42.2051239" lon="13.7393362"><ele>998.4285714285713</ele><time>2026-05-02T10:35:52.154Z</time></trkpt><trkpt lat="42.2051486" lon="13.7392579"><ele>996.8571428571429</ele><time>2026-05-02T10:35:53.163Z</time></trkpt><trkpt lat="42.2051876" lon="13.7391749"><ele>995.2857142857142</ele><time>2026-05-02T10:35:54.156Z</time></trkpt><trkpt lat="42.2052312" lon="13.7391022"><ele>993.7142857142857</ele><time>2026-05-02T10:35:55.158Z</time></trkpt><trkpt lat="42.2052951" lon="13.7390622"><ele>992.1428571428571</ele><time>2026-05-02T10:35:56.159Z</time></trkpt><trkpt lat="42.2053688" lon="13.7390465"><ele>990.5714285714286</ele><time>2026-05-02T10:35:57.155Z</time></trkpt><trkpt lat="42.2054611" lon="13.7390428"><ele>989.0</ele><time>2026-05-02T10:35:58.152Z</time></trkpt><trkpt lat="42.2055625" lon="13.7390338"><ele>987.6</ele><time>2026-05-02T10:35:59.151Z</time></trkpt><trkpt lat="42.2056718" lon="13.7390231"><ele>986.2</ele><time>2026-05-02T10:36:00.146Z</time></trkpt><trkpt lat="42.2057809" lon="13.7390046"><ele>984.8000000000001</ele><time>2026-05-02T10:36:01.145Z</time></trkpt><trkpt lat="42.2058874" lon="13.7389589"><ele>983.4000000000001</ele><time>2026-05-02T10:36:02.148Z</time></trkpt><trkpt lat="42.2059958" lon="13.7389008"><ele>982.0</ele><time>2026-05-02T10:36:03.148Z</time></trkpt><trkpt lat="42.2061046" lon="13.7388312"><ele>982.0</ele><time>2026-05-02T10:36:04.15Z</time></trkpt><trkpt lat="42.2062074" lon="13.7387771"><ele>982.0</ele><time>2026-05-02T10:36:05.154Z</time></trkpt><trkpt lat="42.2062992" lon="13.7387617"><ele>982.0</ele><time>2026-05-02T10:36:06.151Z</time></trkpt><trkpt lat="42.2063908" lon="13.7387818"><ele>982.0</ele><time>2026-05-02T10:36:07.152Z</time></trkpt><trkpt lat="42.2064777" lon="13.7388228"><ele>982.0</ele><time>2026-05-02T10:36:08.153Z</time></trkpt><trkpt lat="42.2065685" lon="13.7388711"><ele>982.0</ele><time>2026-05-02T10:36:09.151Z</time></trkpt><trkpt lat="42.2066653" lon="13.7389006"><ele>982.0</ele><time>2026-05-02T10:36:10.15Z</time></trkpt><trkpt lat="42.2067594" lon="13.7388924"><ele>982.0</ele><time>2026-05-02T10:36:11.151Z</time></trkpt><trkpt lat="42.2068523" lon="13.7388789"><ele>982.0</ele><time>2026-05-02T10:36:12.157Z</time></trkpt><trkpt lat="42.2069377" lon="13.7388779"><ele>982.0</ele><time>2026-05-02T10:36:13.153Z</time></trkpt><trkpt lat="42.2070216" lon="13.738878"><ele>981.9999999999999</ele><time>2026-05-02T10:36:14.159Z</time></trkpt><trkpt lat="42.2070987" lon="13.7388668"><ele>982.0</ele><time>2026-05-02T10:36:15.158Z</time></trkpt><trkpt lat="42.2071706" lon="13.7388588"><ele>982.0</ele><time>2026-05-02T10:36:16.15Z</time></trkpt><trkpt lat="42.2072506" lon="13.7388225"><ele>982.0</ele><time>2026-05-02T10:36:17.15Z</time></trkpt><trkpt lat="42.2073452" lon="13.7387614"><ele>981.9999999999999</ele><time>2026-05-02T10:36:18.159Z</time></trkpt><trkpt lat="42.2074356" lon="13.738683"><ele>982.0</ele><time>2026-05-02T10:36:19.154Z</time></trkpt><trkpt lat="42.2075202" lon="13.7385934"><ele>984.2</ele><time>2026-05-02T10:36:20.154Z</time></trkpt><trkpt lat="42.2075969" lon="13.7384875"><ele>986.4000000000001</ele><time>2026-05-02T10:36:21.156Z</time></trkpt><trkpt lat="42.2076656" lon="13.7383786"><ele>988.5999999999999</ele><time>2026-05-02T10:36:22.157Z</time></trkpt><trkpt lat="42.2077303" lon="13.7382803"><ele>990.8</ele><time>2026-05-02T10:36:23.158Z</time></trkpt><trkpt lat="42.2077852" lon="13.73819"><ele>993.0</ele><time>2026-05-02T10:36:24.152Z</time></trkpt><trkpt lat="42.2078324" lon="13.7381145"><ele>993.0</ele><time>2026-05-02T10:36:25.16Z</time></trkpt><trkpt lat="42.2078826" lon="13.7380425"><ele>993.0</ele><time>2026-05-02T10:36:26.158Z</time></trkpt><trkpt lat="42.2079495" lon="13.7379832"><ele>993.0</ele><time>2026-05-02T10:36:27.161Z</time></trkpt><trkpt lat="42.2080168" lon="13.7379284"><ele>993.0</ele><time>2026-05-02T10:36:28.157Z</time></trkpt><trkpt lat="42.208075" lon="13.737885"><ele>993.0</ele><time>2026-05-02T10:36:29.159Z</time></trkpt><trkpt lat="42.2081317" lon="13.7378388"><ele>993.0</ele><time>2026-05-02T10:36:30.153Z</time></trkpt><trkpt lat="42.2081986" lon="13.7377846"><ele>993.0</ele><time>2026-05-02T10:36:31.154Z</time></trkpt><trkpt lat="42.2082795" lon="13.7377148"><ele>994.0</ele><time>2026-05-02T10:36:32.15Z</time></trkpt><trkpt lat="42.2083831" lon="13.7376468"><ele>995.0</ele><time>2026-05-02T10:36:33.154Z</time></trkpt><trkpt lat="42.2084937" lon="13.7376003"><ele>996.0</ele><time>2026-05-02T10:36:34.15Z</time></trkpt><trkpt lat="42.2085961" lon="13.7375672"><ele>997.0</ele><time>2026-05-02T10:36:35.147Z</time></trkpt><trkpt lat="42.2087049" lon="13.7375211"><ele>997.0</ele><time>2026-05-02T10:36:36.153Z</time></trkpt><trkpt lat="42.2088055" lon="13.7374764"><ele>997.0</ele><time>2026-05-02T10:36:37.153Z</time></trkpt><trkpt lat="42.2089056" lon="13.7374209"><ele>997.0</ele><time>2026-05-02T10:36:38.153Z</time></trkpt><trkpt lat="42.2090016" lon="13.737367"><ele>997.0</ele><time>2026-05-02T10:36:39.157Z</time></trkpt><trkpt lat="42.2091012" lon="13.7373231"><ele>997.0</ele><time>2026-05-02T10:36:40.155Z</time></trkpt><trkpt lat="42.2091983" lon="13.7372778"><ele>994.6666666666666</ele><time>2026-05-02T10:36:41.155Z</time></trkpt><trkpt lat="42.2092896" lon="13.7372368"><ele>992.3333333333333</ele><time>2026-05-02T10:36:42.157Z</time></trkpt><trkpt lat="42.2093778" lon="13.7371955"><ele>990.0</ele><time>2026-05-02T10:36:43.154Z</time></trkpt><trkpt lat="42.2094552" lon="13.7371511"><ele>987.6666666666667</ele><time>2026-05-02T10:36:44.156Z</time></trkpt><trkpt lat="42.2095213" lon="13.7371178"><ele>985.3333333333334</ele><time>2026-05-02T10:36:45.155Z</time></trkpt><trkpt lat="42.2096095" lon="13.73705"><ele>983.0</ele><time>2026-05-02T10:36:47.161Z</time></trkpt><trkpt lat="42.2096893" lon="13.7369223"><ele>983.1666666666667</ele><time>2026-05-02T10:36:49.16Z</time></trkpt><trkpt lat="42.2097474" lon="13.7368262"><ele>983.3333333333334</ele><time>2026-05-02T10:36:50.156Z</time></trkpt><trkpt lat="42.2098147" lon="13.7367415"><ele>983.5</ele><time>2026-05-02T10:36:51.161Z</time></trkpt><trkpt lat="42.2098848" lon="13.7366786"><ele>983.6666666666667</ele><time>2026-05-02T10:36:52.165Z</time></trkpt><trkpt lat="42.2099487" lon="13.7366288"><ele>983.8333333333334</ele><time>2026-05-02T10:36:53.166Z</time></trkpt><trkpt lat="42.210013" lon="13.7365791"><ele>984.0</ele><time>2026-05-02T10:36:54.158Z</time></trkpt><trkpt lat="42.2101022" lon="13.7364847"><ele>984.0</ele><time>2026-05-02T10:36:56.164Z</time></trkpt><trkpt lat="42.2101564" lon="13.736427"><ele>984.0</ele><time>2026-05-02T10:36:57.158Z</time></trkpt><trkpt lat="42.2102252" lon="13.7363537"><ele>984.0</ele><time>2026-05-02T10:36:58.158Z</time></trkpt><trkpt lat="42.2103049" lon="13.7362874"><ele>984.0</ele><time>2026-05-02T10:36:59.161Z</time></trkpt><trkpt lat="42.2103734" lon="13.7362427"><ele>984.0</ele><time>2026-05-02T10:37:00.151Z</time></trkpt><trkpt lat="42.210453" lon="13.7362132"><ele>984.0</ele><time>2026-05-02T10:37:02.155Z</time></trkpt><trkpt lat="42.2103873" lon="13.736141"><ele>984.0</ele><time>2026-05-02T10:37:13.162Z</time></trkpt><trkpt lat="42.2102987" lon="13.7360709"><ele>984.0000000000001</ele><time>2026-05-02T10:37:15.165Z</time></trkpt><trkpt lat="42.210218" lon="13.7360231"><ele>984.0000000000001</ele><time>2026-05-02T10:37:17.159Z</time></trkpt><trkpt lat="42.2101519" lon="13.7359745"><ele>984.0</ele><time>2026-05-02T10:37:40.172Z</time></trkpt><trkpt lat="42.2100688" lon="13.7358963"><ele>984.0</ele><time>2026-05-02T10:37:43.169Z</time></trkpt><trkpt lat="42.2099697" lon="13.73582"><ele>985.4000000000001</ele><time>2026-05-02T10:37:45.166Z</time></trkpt><trkpt lat="42.2099059" lon="13.7357623"><ele>986.8000000000001</ele><time>2026-05-02T10:37:46.165Z</time></trkpt><trkpt lat="42.2098344" lon="13.7356966"><ele>988.1999999999999</ele><time>2026-05-02T10:37:47.165Z</time></trkpt><trkpt lat="42.2097605" lon="13.7356156"><ele>989.5999999999999</ele><time>2026-05-02T10:37:48.167Z</time></trkpt><trkpt lat="42.2096835" lon="13.7355241"><ele>991.0</ele><time>2026-05-02T10:37:49.165Z</time></trkpt><trkpt lat="42.2096145" lon="13.7354267"><ele>994.1999999999999</ele><time>2026-05-02T10:37:50.169Z</time></trkpt><trkpt lat="42.2095512" lon="13.7353321"><ele>997.3999999999999</ele><time>2026-05-02T10:37:51.173Z</time></trkpt><trkpt lat="42.2094848" lon="13.735236"><ele>1000.6</ele><time>2026-05-02T10:37:52.166Z</time></trkpt><trkpt lat="42.2094177" lon="13.7351485"><ele>1003.8</ele><time>2026-05-02T10:37:53.165Z</time></trkpt><trkpt lat="42.2093453" lon="13.7350878"><ele>1007.0</ele><time>2026-05-02T10:37:54.161Z</time></trkpt><trkpt lat="42.20926" lon="13.7350393"><ele>1007.0</ele><time>2026-05-02T10:37:55.163Z</time></trkpt><trkpt lat="42.2091741" lon="13.7350246"><ele>1007.0</ele><time>2026-05-02T10:37:56.166Z</time></trkpt><trkpt lat="42.2090693" lon="13.7350192"><ele>1007.0</ele><time>2026-05-02T10:37:57.168Z</time></trkpt><trkpt lat="42.2089477" lon="13.7350183"><ele>1007.0</ele><time>2026-05-02T10:37:58.162Z</time></trkpt><trkpt lat="42.2088322" lon="13.7350279"><ele>1007.0</ele><time>2026-05-02T10:37:59.161Z</time></trkpt><trkpt lat="42.2087148" lon="13.7350402"><ele>1010.8</ele><time>2026-05-02T10:38:00.164Z</time></trkpt><trkpt lat="42.2085976" lon="13.7350652"><ele>1014.6</ele><time>2026-05-02T10:38:01.163Z</time></trkpt><trkpt lat="42.2084903" lon="13.7351012"><ele>1018.3999999999999</ele><time>2026-05-02T10:38:02.166Z</time></trkpt><trkpt lat="42.208394" lon="13.7351474"><ele>1022.1999999999999</ele><time>2026-05-02T10:38:03.163Z</time></trkpt><trkpt lat="42.2083055" lon="13.7352076"><ele>1026.0</ele><time>2026-05-02T10:38:04.166Z</time></trkpt><trkpt lat="42.2082193" lon="13.735278"><ele>1030.3999999999999</ele><time>2026-05-02T10:38:05.162Z</time></trkpt><trkpt lat="42.2081444" lon="13.7353707"><ele>1034.8</ele><time>2026-05-02T10:38:06.159Z</time></trkpt><trkpt lat="42.2080765" lon="13.7354854"><ele>1039.1999999999998</ele><time>2026-05-02T10:38:07.155Z</time></trkpt><trkpt lat="42.2080248" lon="13.7356199"><ele>1043.6</ele><time>2026-05-02T10:38:08.157Z</time></trkpt><trkpt lat="42.2079836" lon="13.735752"><ele>1048.0</ele><time>2026-05-02T10:38:09.152Z</time></trkpt><trkpt lat="42.2079445" lon="13.7358935"><ele>1048.0</ele><time>2026-05-02T10:38:10.154Z</time></trkpt><trkpt lat="42.2078896" lon="13.7360395"><ele>1048.0</ele><time>2026-05-02T10:38:11.16Z</time></trkpt><trkpt lat="42.2078219" lon="13.7361905"><ele>1048.0</ele><time>2026-05-02T10:38:12.157Z</time></trkpt><trkpt lat="42.2077564" lon="13.73633"><ele>1048.0</ele><time>2026-05-02T10:38:13.157Z</time></trkpt><trkpt lat="42.2076982" lon="13.7364575"><ele>1046.4</ele><time>2026-05-02T10:38:14.152Z</time></trkpt><trkpt lat="42.207628" lon="13.7365689"><ele>1044.8</ele><time>2026-05-02T10:38:15.162Z</time></trkpt><trkpt lat="42.2075461" lon="13.7366663"><ele>1043.2</ele><time>2026-05-02T10:38:16.168Z</time></trkpt><trkpt lat="42.2074726" lon="13.7367558"><ele>1041.6</ele><time>2026-05-02T10:38:17.17Z</time></trkpt><trkpt lat="42.2074062" lon="13.7368274"><ele>1040.0</ele><time>2026-05-02T10:38:18.166Z</time></trkpt><trkpt lat="42.2073336" lon="13.7368845"><ele>1040.2</ele><time>2026-05-02T10:38:19.171Z</time></trkpt><trkpt lat="42.2072589" lon="13.7369289"><ele>1040.4</ele><time>2026-05-02T10:38:20.162Z</time></trkpt><trkpt lat="42.2071941" lon="13.7369602"><ele>1040.6</ele><time>2026-05-02T10:38:21.168Z</time></trkpt><trkpt lat="42.2070804" lon="13.7369874"><ele>1040.8</ele><time>2026-05-02T10:38:23.165Z</time></trkpt><trkpt lat="42.2070266" lon="13.7369247"><ele>1041.0</ele><time>2026-05-02T10:38:25.17Z</time></trkpt><trkpt lat="42.2069757" lon="13.7367592"><ele>1041.0</ele><time>2026-05-02T10:38:27.162Z</time></trkpt><trkpt lat="42.2069554" lon="13.7366431"><ele>1041.0</ele><time>2026-05-02T10:38:28.16Z</time></trkpt><trkpt lat="42.2069309" lon="13.736518"><ele>1041.0</ele><time>2026-05-02T10:38:29.167Z</time></trkpt><trkpt lat="42.2069068" lon="13.7363811"><ele>1041.0</ele><time>2026-05-02T10:38:30.163Z</time></trkpt><trkpt lat="42.2068807" lon="13.7362349"><ele>1041.0</ele><time>2026-05-02T10:38:31.163Z</time></trkpt><trkpt lat="42.2068462" lon="13.7360753"><ele>1043.3999999999999</ele><time>2026-05-02T10:38:32.157Z</time></trkpt><trkpt lat="42.206816" lon="13.7359239"><ele>1045.8</ele><time>2026-05-02T10:38:33.154Z</time></trkpt><trkpt lat="42.2068009" lon="13.7357857"><ele>1048.1999999999998</ele><time>2026-05-02T10:38:34.162Z</time></trkpt><trkpt lat="42.2068043" lon="13.7356601"><ele>1050.6</ele><time>2026-05-02T10:38:35.162Z</time></trkpt><trkpt lat="42.2068115" lon="13.7355363"><ele>1053.0</ele><time>2026-05-02T10:38:36.159Z</time></trkpt><trkpt lat="42.2068079" lon="13.7354254"><ele>1053.0</ele><time>2026-05-02T10:38:37.159Z</time></trkpt><trkpt lat="42.2067838" lon="13.7353295"><ele>1053.0</ele><time>2026-05-02T10:38:38.162Z</time></trkpt><trkpt lat="42.2067402" lon="13.7352436"><ele>1053.0</ele><time>2026-05-02T10:38:39.159Z</time></trkpt><trkpt lat="42.2066896" lon="13.7351589"><ele>1053.0</ele><time>2026-05-02T10:38:40.163Z</time></trkpt><trkpt lat="42.2066486" lon="13.735063"><ele>1053.0</ele><time>2026-05-02T10:38:41.157Z</time></trkpt><trkpt lat="42.2066133" lon="13.7349423"><ele>1053.0</ele><time>2026-05-02T10:38:42.157Z</time></trkpt><trkpt lat="42.2065884" lon="13.7348052"><ele>1055.4</ele><time>2026-05-02T10:38:43.158Z</time></trkpt><trkpt lat="42.2065757" lon="13.7346612"><ele>1057.8</ele><time>2026-05-02T10:38:44.16Z</time></trkpt><trkpt lat="42.2065776" lon="13.7345169"><ele>1060.2</ele><time>2026-05-02T10:38:45.164Z</time></trkpt><trkpt lat="42.2065964" lon="13.7343725"><ele>1062.6</ele><time>2026-05-02T10:38:46.162Z</time></trkpt><trkpt lat="42.2066137" lon="13.7342189"><ele>1065.0</ele><time>2026-05-02T10:38:47.16Z</time></trkpt><trkpt lat="42.2066391" lon="13.7340607"><ele>1066.4</ele><time>2026-05-02T10:38:48.166Z</time></trkpt><trkpt lat="42.2066693" lon="13.7339026"><ele>1067.8</ele><time>2026-05-02T10:38:49.164Z</time></trkpt><trkpt lat="42.2066964" lon="13.7337674"><ele>1069.2</ele><time>2026-05-02T10:38:50.164Z</time></trkpt><trkpt lat="42.206712" lon="13.7336463"><ele>1070.6</ele><time>2026-05-02T10:38:51.168Z</time></trkpt><trkpt lat="42.2067046" lon="13.733519"><ele>1072.0</ele><time>2026-05-02T10:38:52.166Z</time></trkpt><trkpt lat="42.2066783" lon="13.7333924"><ele>1073.6</ele><time>2026-05-02T10:38:53.172Z</time></trkpt><trkpt lat="42.2066448" lon="13.7332666"><ele>1075.2</ele><time>2026-05-02T10:38:54.163Z</time></trkpt><trkpt lat="42.206602" lon="13.7331468"><ele>1076.8</ele><time>2026-05-02T10:38:55.171Z</time></trkpt><trkpt lat="42.2065514" lon="13.7330377"><ele>1078.4</ele><time>2026-05-02T10:38:56.168Z</time></trkpt><trkpt lat="42.2064993" lon="13.732915"><ele>1080.0</ele><time>2026-05-02T10:38:57.166Z</time></trkpt><trkpt lat="42.206447" lon="13.7327864"><ele>1082.5</ele><time>2026-05-02T10:38:58.157Z</time></trkpt><trkpt lat="42.2063876" lon="13.7326829"><ele>1085.0</ele><time>2026-05-02T10:38:59.157Z</time></trkpt><trkpt lat="42.206323" lon="13.7325971"><ele>1087.5</ele><time>2026-05-02T10:39:00.151Z</time></trkpt><trkpt lat="42.2062588" lon="13.7325339"><ele>1090.0</ele><time>2026-05-02T10:39:01.155Z</time></trkpt><trkpt lat="42.2061967" lon="13.7324757"><ele>1092.5</ele><time>2026-05-02T10:39:02.161Z</time></trkpt><trkpt lat="42.2061511" lon="13.7324091"><ele>1095.0</ele><time>2026-05-02T10:39:03.163Z</time></trkpt><trkpt lat="42.2061344" lon="13.7323141"><ele>1095.0</ele><time>2026-05-02T10:39:04.161Z</time></trkpt><trkpt lat="42.2061238" lon="13.7321864"><ele>1095.0</ele><time>2026-05-02T10:39:05.164Z</time></trkpt><trkpt lat="42.2061179" lon="13.7320511"><ele>1095.0</ele><time>2026-05-02T10:39:06.165Z</time></trkpt><trkpt lat="42.2061099" lon="13.7319162"><ele>1095.0</ele><time>2026-05-02T10:39:07.162Z</time></trkpt><trkpt lat="42.2061033" lon="13.7317742"><ele>1095.0</ele><time>2026-05-02T10:39:08.161Z</time></trkpt><trkpt lat="42.2060928" lon="13.7316317"><ele>1097.6</ele><time>2026-05-02T10:39:09.161Z</time></trkpt><trkpt lat="42.2060848" lon="13.7314914"><ele>1100.2</ele><time>2026-05-02T10:39:10.162Z</time></trkpt><trkpt lat="42.2060684" lon="13.7313532"><ele>1102.8</ele><time>2026-05-02T10:39:11.159Z</time></trkpt><trkpt lat="42.2060374" lon="13.7312207"><ele>1105.4</ele><time>2026-05-02T10:39:12.165Z</time></trkpt><trkpt lat="42.2060025" lon="13.7310993"><ele>1108.0</ele><time>2026-05-02T10:39:13.16Z</time></trkpt><trkpt lat="42.2059557" lon="13.7309923"><ele>1109.8333333333333</ele><time>2026-05-02T10:39:14.162Z</time></trkpt><trkpt lat="42.2059029" lon="13.7308868"><ele>1111.6666666666665</ele><time>2026-05-02T10:39:15.164Z</time></trkpt><trkpt lat="42.2058457" lon="13.7307757"><ele>1113.5</ele><time>2026-05-02T10:39:16.157Z</time></trkpt><trkpt lat="42.205805" lon="13.7306725"><ele>1115.3333333333333</ele><time>2026-05-02T10:39:17.161Z</time></trkpt><trkpt lat="42.2057705" lon="13.7305753"><ele>1117.1666666666667</ele><time>2026-05-02T10:39:18.164Z</time></trkpt><trkpt lat="42.2057479" lon="13.7304704"><ele>1119.0</ele><time>2026-05-02T10:39:19.168Z</time></trkpt><trkpt lat="42.2057199" lon="13.7303757"><ele>1119.0</ele><time>2026-05-02T10:39:20.161Z</time></trkpt><trkpt lat="42.2056697" lon="13.7302927"><ele>1119.0</ele><time>2026-05-02T10:39:21.166Z</time></trkpt><trkpt lat="42.2056246" lon="13.7302286"><ele>1119.0</ele><time>2026-05-02T10:39:22.164Z</time></trkpt><trkpt lat="42.205571" lon="13.7300455"><ele>1119.0</ele><time>2026-05-02T10:39:24.17Z</time></trkpt><trkpt lat="42.2055407" lon="13.7299313"><ele>1119.0</ele><time>2026-05-02T10:39:25.163Z</time></trkpt><trkpt lat="42.2054932" lon="13.7298268"><ele>1121.0</ele><time>2026-05-02T10:39:26.162Z</time></trkpt><trkpt lat="42.2054252" lon="13.729721"><ele>1123.0</ele><time>2026-05-02T10:39:27.155Z</time></trkpt><trkpt lat="42.2053379" lon="13.7296082"><ele>1125.0</ele><time>2026-05-02T10:39:28.159Z</time></trkpt><trkpt lat="42.2052599" lon="13.7295031"><ele>1127.0</ele><time>2026-05-02T10:39:29.156Z</time></trkpt><trkpt lat="42.2051908" lon="13.7294084"><ele>1129.0</ele><time>2026-05-02T10:39:30.159Z</time></trkpt><trkpt lat="42.2051342" lon="13.7293238"><ele>1129.0</ele><time>2026-05-02T10:39:31.159Z</time></trkpt><trkpt lat="42.2050788" lon="13.729255"><ele>1129.0</ele><time>2026-05-02T10:39:32.157Z</time></trkpt><trkpt lat="42.2050105" lon="13.7291599"><ele>1129.0</ele><time>2026-05-02T10:39:34.16Z</time></trkpt><trkpt lat="42.2049584" lon="13.7290743"><ele>1129.0</ele><time>2026-05-02T10:39:36.161Z</time></trkpt><trkpt lat="42.2049117" lon="13.72901"><ele>1129.0</ele><time>2026-05-02T10:39:38.167Z</time></trkpt><trkpt lat="42.2048245" lon="13.7289507"><ele>1129.0</ele><time>2026-05-02T10:39:55.169Z</time></trkpt><trkpt lat="42.2047261" lon="13.7289288"><ele>1130.0</ele><time>2026-05-02T10:39:57.171Z</time></trkpt><trkpt lat="42.2046594" lon="13.7289067"><ele>1131.0</ele><time>2026-05-02T10:39:58.166Z</time></trkpt><trkpt lat="42.2045882" lon="13.728872"><ele>1132.0</ele><time>2026-05-02T10:39:59.167Z</time></trkpt><trkpt lat="42.2045074" lon="13.7288238"><ele>1133.0</ele><time>2026-05-02T10:40:00.163Z</time></trkpt><trkpt lat="42.2044246" lon="13.7287819"><ele>1134.0</ele><time>2026-05-02T10:40:01.163Z</time></trkpt><trkpt lat="42.204353" lon="13.7287465"><ele>1135.0</ele><time>2026-05-02T10:40:02.161Z</time></trkpt><trkpt lat="42.2042929" lon="13.7287158"><ele>1135.0</ele><time>2026-05-02T10:40:03.157Z</time></trkpt><trkpt lat="42.2042119" lon="13.7286551"><ele>1135.0</ele><time>2026-05-02T10:40:05.157Z</time></trkpt><trkpt lat="42.2040912" lon="13.7285527"><ele>1135.0</ele><time>2026-05-02T10:40:07.156Z</time></trkpt><trkpt lat="42.2040074" lon="13.7284826"><ele>1135.0</ele><time>2026-05-02T10:40:08.161Z</time></trkpt><trkpt lat="42.2039285" lon="13.7284071"><ele>1135.0</ele><time>2026-05-02T10:40:09.148Z</time></trkpt><trkpt lat="42.2038648" lon="13.7283376"><ele>1134.3333333333333</ele><time>2026-05-02T10:40:10.156Z</time></trkpt><trkpt lat="42.2037962" lon="13.7283103"><ele>1133.6666666666665</ele><time>2026-05-02T10:40:11.164Z</time></trkpt><trkpt lat="42.2037206" lon="13.7283083"><ele>1133.0</ele><time>2026-05-02T10:40:12.164Z</time></trkpt><trkpt lat="42.2036403" lon="13.7283383"><ele>1132.3333333333333</ele><time>2026-05-02T10:40:13.162Z</time></trkpt><trkpt lat="42.2035531" lon="13.7283785"><ele>1131.6666666666667</ele><time>2026-05-02T10:40:14.169Z</time></trkpt><trkpt lat="42.2034577" lon="13.7284153"><ele>1131.0</ele><time>2026-05-02T10:40:15.166Z</time></trkpt><trkpt lat="42.2033568" lon="13.7284553"><ele>1131.0</ele><time>2026-05-02T10:40:16.166Z</time></trkpt><trkpt lat="42.2032611" lon="13.7285007"><ele>1131.0</ele><time>2026-05-02T10:40:17.167Z</time></trkpt><trkpt lat="42.2031663" lon="13.7285325"><ele>1131.0</ele><time>2026-05-02T10:40:18.166Z</time></trkpt><trkpt lat="42.2030599" lon="13.728545"><ele>1131.0</ele><time>2026-05-02T10:40:19.164Z</time></trkpt><trkpt lat="42.2029409" lon="13.7285461"><ele>1131.0</ele><time>2026-05-02T10:40:20.168Z</time></trkpt><trkpt lat="42.2028134" lon="13.7285496"><ele>1133.5</ele><time>2026-05-02T10:40:21.17Z</time></trkpt><trkpt lat="42.2026873" lon="13.7285689"><ele>1136.0</ele><time>2026-05-02T10:40:22.182Z</time></trkpt><trkpt lat="42.2025578" lon="13.7285933"><ele>1138.5</ele><time>2026-05-02T10:40:23.172Z</time></trkpt><trkpt lat="42.2024307" lon="13.7286121"><ele>1141.0</ele><time>2026-05-02T10:40:24.172Z</time></trkpt><trkpt lat="42.20231" lon="13.7286137"><ele>1141.5</ele><time>2026-05-02T10:40:25.168Z</time></trkpt><trkpt lat="42.2021887" lon="13.7285921"><ele>1142.0</ele><time>2026-05-02T10:40:26.172Z</time></trkpt><trkpt lat="42.2020718" lon="13.7285425"><ele>1142.5</ele><time>2026-05-02T10:40:27.169Z</time></trkpt><trkpt lat="42.2019688" lon="13.7284913"><ele>1143.0</ele><time>2026-05-02T10:40:28.169Z</time></trkpt><trkpt lat="42.2018656" lon="13.728459"><ele>1141.8</ele><time>2026-05-02T10:40:29.169Z</time></trkpt><trkpt lat="42.2017601" lon="13.7284478"><ele>1140.6</ele><time>2026-05-02T10:40:30.168Z</time></trkpt><trkpt lat="42.2016582" lon="13.7284568"><ele>1139.4</ele><time>2026-05-02T10:40:31.167Z</time></trkpt><trkpt lat="42.201573" lon="13.7284733"><ele>1138.2</ele><time>2026-05-02T10:40:32.17Z</time></trkpt><trkpt lat="42.2014981" lon="13.7284864"><ele>1137.0</ele><time>2026-05-02T10:40:33.176Z</time></trkpt><trkpt lat="42.2014166" lon="13.7285079"><ele>1137.8</ele><time>2026-05-02T10:40:34.17Z</time></trkpt><trkpt lat="42.2013306" lon="13.7285263"><ele>1138.6</ele><time>2026-05-02T10:40:35.172Z</time></trkpt><trkpt lat="42.201252" lon="13.7285483"><ele>1139.3999999999999</ele><time>2026-05-02T10:40:36.169Z</time></trkpt><trkpt lat="42.2011828" lon="13.7285642"><ele>1140.2</ele><time>2026-05-02T10:40:37.168Z</time></trkpt><trkpt lat="42.2010681" lon="13.7285754"><ele>1141.0</ele><time>2026-05-02T10:40:39.172Z</time></trkpt><trkpt lat="42.2009599" lon="13.7285714"><ele>1141.0</ele><time>2026-05-02T10:40:41.172Z</time></trkpt><trkpt lat="42.2008304" lon="13.7285616"><ele>1141.0</ele><time>2026-05-02T10:40:43.169Z</time></trkpt><trkpt lat="42.2007654" lon="13.7285528"><ele>1141.0</ele><time>2026-05-02T10:40:44.169Z</time></trkpt><trkpt lat="42.2006862" lon="13.7285342"><ele>1141.0</ele><time>2026-05-02T10:40:46.171Z</time></trkpt><trkpt lat="42.2006276" lon="13.7284719"><ele>1141.0</ele><time>2026-05-02T10:40:48.173Z</time></trkpt><trkpt lat="42.2005409" lon="13.7284046"><ele>1137.2</ele><time>2026-05-02T10:40:50.172Z</time></trkpt><trkpt lat="42.200444" lon="13.728325"><ele>1133.3999999999999</ele><time>2026-05-02T10:40:52.17Z</time></trkpt><trkpt lat="42.2003933" lon="13.7282538"><ele>1129.6</ele><time>2026-05-02T10:40:53.167Z</time></trkpt><trkpt lat="42.2003405" lon="13.7281618"><ele>1125.8</ele><time>2026-05-02T10:40:54.171Z</time></trkpt><trkpt lat="42.2002922" lon="13.7280527"><ele>1122.0</ele><time>2026-05-02T10:40:55.172Z</time></trkpt><trkpt lat="42.2002521" lon="13.7279548"><ele>1122.0</ele><time>2026-05-02T10:40:56.18Z</time></trkpt><trkpt lat="42.2002124" lon="13.7278683"><ele>1122.0</ele><time>2026-05-02T10:40:57.172Z</time></trkpt><trkpt lat="42.2001661" lon="13.7277906"><ele>1122.0</ele><time>2026-05-02T10:40:58.174Z</time></trkpt><trkpt lat="42.2001025" lon="13.7277244"><ele>1122.0</ele><time>2026-05-02T10:40:59.171Z</time></trkpt><trkpt lat="42.2000274" lon="13.7276573"><ele>1122.0</ele><time>2026-05-02T10:41:00.168Z</time></trkpt><trkpt lat="42.1999478" lon="13.7275809"><ele>1122.0</ele><time>2026-05-02T10:41:01.167Z</time></trkpt><trkpt lat="42.1998647" lon="13.727519"><ele>1119.6666666666667</ele><time>2026-05-02T10:41:02.17Z</time></trkpt><trkpt lat="42.199786" lon="13.7274672"><ele>1117.3333333333333</ele><time>2026-05-02T10:41:03.174Z</time></trkpt><trkpt lat="42.1997066" lon="13.7274167"><ele>1115.0</ele><time>2026-05-02T10:41:04.172Z</time></trkpt><trkpt lat="42.1996327" lon="13.7273618"><ele>1112.6666666666665</ele><time>2026-05-02T10:41:05.165Z</time></trkpt><trkpt lat="42.1995782" lon="13.7273011"><ele>1110.3333333333333</ele><time>2026-05-02T10:41:06.166Z</time></trkpt><trkpt lat="42.1995447" lon="13.7272264"><ele>1108.0</ele><time>2026-05-02T10:41:07.169Z</time></trkpt><trkpt lat="42.1995142" lon="13.7271414"><ele>1108.0</ele><time>2026-05-02T10:41:08.166Z</time></trkpt><trkpt lat="42.1994677" lon="13.7270744"><ele>1108.0</ele><time>2026-05-02T10:41:09.164Z</time></trkpt><trkpt lat="42.1994017" lon="13.7270265"><ele>1108.0</ele><time>2026-05-02T10:41:10.168Z</time></trkpt><trkpt lat="42.199313" lon="13.7269944"><ele>1108.0</ele><time>2026-05-02T10:41:11.167Z</time></trkpt><trkpt lat="42.1992232" lon="13.7269648"><ele>1108.0</ele><time>2026-05-02T10:41:12.169Z</time></trkpt><trkpt lat="42.1991324" lon="13.7269485"><ele>1108.0</ele><time>2026-05-02T10:41:13.168Z</time></trkpt><trkpt lat="42.1990484" lon="13.7269496"><ele>1107.6666666666665</ele><time>2026-05-02T10:41:14.169Z</time></trkpt><trkpt lat="42.1989766" lon="13.7269656"><ele>1107.3333333333333</ele><time>2026-05-02T10:41:15.171Z</time></trkpt><trkpt lat="42.198912" lon="13.7269818"><ele>1107.0</ele><time>2026-05-02T10:41:16.173Z</time></trkpt><trkpt lat="42.1988431" lon="13.7269807"><ele>1106.6666666666667</ele><time>2026-05-02T10:41:17.165Z</time></trkpt><trkpt lat="42.1987583" lon="13.7269676"><ele>1106.3333333333335</ele><time>2026-05-02T10:41:18.169Z</time></trkpt><trkpt lat="42.1986736" lon="13.7269285"><ele>1106.0</ele><time>2026-05-02T10:41:19.158Z</time></trkpt><trkpt lat="42.1986031" lon="13.7268744"><ele>1104.1666666666667</ele><time>2026-05-02T10:41:20.166Z</time></trkpt><trkpt lat="42.1985233" lon="13.7268029"><ele>1102.3333333333335</ele><time>2026-05-02T10:41:21.166Z</time></trkpt><trkpt lat="42.1984417" lon="13.7267472"><ele>1100.5</ele><time>2026-05-02T10:41:22.169Z</time></trkpt><trkpt lat="42.1983658" lon="13.7267001"><ele>1098.6666666666667</ele><time>2026-05-02T10:41:23.174Z</time></trkpt><trkpt lat="42.1982894" lon="13.7266543"><ele>1096.8333333333333</ele><time>2026-05-02T10:41:24.167Z</time></trkpt><trkpt lat="42.1982202" lon="13.7266112"><ele>1095.0</ele><time>2026-05-02T10:41:25.166Z</time></trkpt><trkpt lat="42.198112" lon="13.7265502"><ele>1093.8</ele><time>2026-05-02T10:41:27.166Z</time></trkpt><trkpt lat="42.1980174" lon="13.7264786"><ele>1092.6</ele><time>2026-05-02T10:41:29.168Z</time></trkpt><trkpt lat="42.1979673" lon="13.7263864"><ele>1091.4</ele><time>2026-05-02T10:41:31.166Z</time></trkpt><trkpt lat="42.1978835" lon="13.7263068"><ele>1090.2</ele><time>2026-05-02T10:41:33.172Z</time></trkpt><trkpt lat="42.1977558" lon="13.7263527"><ele>1089.0</ele><time>2026-05-02T10:41:35.163Z</time></trkpt><trkpt lat="42.1976957" lon="13.7264233"><ele>1089.0</ele><time>2026-05-02T10:41:36.161Z</time></trkpt><trkpt lat="42.1976458" lon="13.7265141"><ele>1089.0</ele><time>2026-05-02T10:41:37.163Z</time></trkpt><trkpt lat="42.1976123" lon="13.7266172"><ele>1089.0</ele><time>2026-05-02T10:41:38.156Z</time></trkpt><trkpt lat="42.1975885" lon="13.7267279"><ele>1089.0</ele><time>2026-05-02T10:41:39.161Z</time></trkpt><trkpt lat="42.1975531" lon="13.7268245"><ele>1089.0</ele><time>2026-05-02T10:41:40.159Z</time></trkpt><trkpt lat="42.1974974" lon="13.726898"><ele>1089.0</ele><time>2026-05-02T10:41:41.153Z</time></trkpt><trkpt lat="42.1974123" lon="13.7269586"><ele>1087.5</ele><time>2026-05-02T10:41:42.155Z</time></trkpt><trkpt lat="42.197307" lon="13.7270173"><ele>1086.0</ele><time>2026-05-02T10:41:43.157Z</time></trkpt><trkpt lat="42.1971902" lon="13.7270538"><ele>1084.5</ele><time>2026-05-02T10:41:44.164Z</time></trkpt><trkpt lat="42.1970773" lon="13.7270824"><ele>1083.0</ele><time>2026-05-02T10:41:45.167Z</time></trkpt><trkpt lat="42.1969694" lon="13.7271065"><ele>1083.0</ele><time>2026-05-02T10:41:46.169Z</time></trkpt><trkpt lat="42.1968714" lon="13.7271395"><ele>1083.0</ele><time>2026-05-02T10:41:47.169Z</time></trkpt><trkpt lat="42.1967727" lon="13.7271744"><ele>1083.0</ele><time>2026-05-02T10:41:48.164Z</time></trkpt><trkpt lat="42.1966779" lon="13.7272075"><ele>1083.0</ele><time>2026-05-02T10:41:49.165Z</time></trkpt><trkpt lat="42.1965849" lon="13.7272373"><ele>1083.0</ele><time>2026-05-02T10:41:50.167Z</time></trkpt><trkpt lat="42.1965032" lon="13.7272703"><ele>1082.8</ele><time>2026-05-02T10:41:51.165Z</time></trkpt><trkpt lat="42.1964376" lon="13.727299"><ele>1082.6</ele><time>2026-05-02T10:41:52.167Z</time></trkpt><trkpt lat="42.196359" lon="13.7272501"><ele>1082.4</ele><time>2026-05-02T10:41:55.164Z</time></trkpt><trkpt lat="42.196372" lon="13.7270987"><ele>1082.2</ele><time>2026-05-02T10:41:57.165Z</time></trkpt><trkpt lat="42.1963916" lon="13.7269769"><ele>1082.0</ele><time>2026-05-02T10:41:58.162Z</time></trkpt><trkpt lat="42.1964143" lon="13.7268296"><ele>1083.5</ele><time>2026-05-02T10:41:59.161Z</time></trkpt><trkpt lat="42.1964521" lon="13.7266722"><ele>1085.0</ele><time>2026-05-02T10:42:00.162Z</time></trkpt><trkpt lat="42.1964926" lon="13.7265293"><ele>1086.5</ele><time>2026-05-02T10:42:01.163Z</time></trkpt><trkpt lat="42.1965317" lon="13.72639"><ele>1088.0</ele><time>2026-05-02T10:42:02.165Z</time></trkpt><trkpt lat="42.1965607" lon="13.7262465"><ele>1088.0</ele><time>2026-05-02T10:42:03.163Z</time></trkpt><trkpt lat="42.1965839" lon="13.7260934"><ele>1088.0</ele><time>2026-05-02T10:42:04.164Z</time></trkpt><trkpt lat="42.1966195" lon="13.7259586"><ele>1088.0</ele><time>2026-05-02T10:42:05.161Z</time></trkpt><trkpt lat="42.1966727" lon="13.7258493"><ele>1088.0</ele><time>2026-05-02T10:42:06.161Z</time></trkpt><trkpt lat="42.1967352" lon="13.7257665"><ele>1088.0</ele><time>2026-05-02T10:42:07.162Z</time></trkpt><trkpt lat="42.1968132" lon="13.7257127"><ele>1089.0</ele><time>2026-05-02T10:42:08.165Z</time></trkpt><trkpt lat="42.1969034" lon="13.7256888"><ele>1090.0</ele><time>2026-05-02T10:42:09.164Z</time></trkpt><trkpt lat="42.1969802" lon="13.7256739"><ele>1091.0</ele><time>2026-05-02T10:42:10.171Z</time></trkpt><trkpt lat="42.1970802" lon="13.7255864"><ele>1092.0</ele><time>2026-05-02T10:42:12.16Z</time></trkpt><trkpt lat="42.1971208" lon="13.7254417"><ele>1093.0</ele><time>2026-05-02T10:42:14.168Z</time></trkpt><trkpt lat="42.1971305" lon="13.7253427"><ele>1093.0</ele><time>2026-05-02T10:42:15.168Z</time></trkpt><trkpt lat="42.1971467" lon="13.7252386"><ele>1093.0</ele><time>2026-05-02T10:42:16.167Z</time></trkpt><trkpt lat="42.1971696" lon="13.7251254"><ele>1093.0</ele><time>2026-05-02T10:42:17.171Z</time></trkpt><trkpt lat="42.1971967" lon="13.7250079"><ele>1093.0</ele><time>2026-05-02T10:42:18.17Z</time></trkpt><trkpt lat="42.1972309" lon="13.7248817"><ele>1093.0</ele><time>2026-05-02T10:42:19.172Z</time></trkpt><trkpt lat="42.1972613" lon="13.7247542"><ele>1093.2</ele><time>2026-05-02T10:42:20.168Z</time></trkpt><trkpt lat="42.1972814" lon="13.7246195"><ele>1093.4</ele><time>2026-05-02T10:42:21.17Z</time></trkpt><trkpt lat="42.197287" lon="13.724481"><ele>1093.6000000000001</ele><time>2026-05-02T10:42:22.169Z</time></trkpt><trkpt lat="42.1972826" lon="13.7243442"><ele>1093.8</ele><time>2026-05-02T10:42:23.163Z</time></trkpt><trkpt lat="42.197265" lon="13.7242208"><ele>1094.0</ele><time>2026-05-02T10:42:24.163Z</time></trkpt><trkpt lat="42.1972418" lon="13.7240991"><ele>1095.2</ele><time>2026-05-02T10:42:25.17Z</time></trkpt><trkpt lat="42.1972177" lon="13.7239781"><ele>1096.4</ele><time>2026-05-02T10:42:26.169Z</time></trkpt><trkpt lat="42.1972011" lon="13.7238607"><ele>1097.6</ele><time>2026-05-02T10:42:27.16Z</time></trkpt><trkpt lat="42.1971921" lon="13.7237365"><ele>1098.8</ele><time>2026-05-02T10:42:28.162Z</time></trkpt><trkpt lat="42.1971966" lon="13.7236103"><ele>1100.0</ele><time>2026-05-02T10:42:29.163Z</time></trkpt><trkpt lat="42.1972108" lon="13.7234818"><ele>1100.0</ele><time>2026-05-02T10:42:30.164Z</time></trkpt><trkpt lat="42.1972225" lon="13.723365"><ele>1100.0</ele><time>2026-05-02T10:42:31.16Z</time></trkpt><trkpt lat="42.1972436" lon="13.7232674"><ele>1100.0</ele><time>2026-05-02T10:42:32.16Z</time></trkpt><trkpt lat="42.1972618" lon="13.7231768"><ele>1100.0</ele><time>2026-05-02T10:42:33.159Z</time></trkpt><trkpt lat="42.1972734" lon="13.7230927"><ele>1100.0</ele><time>2026-05-02T10:42:34.163Z</time></trkpt><trkpt lat="42.1973405" lon="13.7229455"><ele>1100.0</ele><time>2026-05-02T10:42:36.167Z</time></trkpt><trkpt lat="42.1974102" lon="13.7228251"><ele>1098.8333333333335</ele><time>2026-05-02T10:42:38.167Z</time></trkpt><trkpt lat="42.1974947" lon="13.7226959"><ele>1097.6666666666667</ele><time>2026-05-02T10:42:40.161Z</time></trkpt><trkpt lat="42.197545" lon="13.7226163"><ele>1096.5</ele><time>2026-05-02T10:42:41.161Z</time></trkpt><trkpt lat="42.1975872" lon="13.7225473"><ele>1095.3333333333333</ele><time>2026-05-02T10:42:42.166Z</time></trkpt><trkpt lat="42.1976478" lon="13.7224297"><ele>1094.1666666666665</ele><time>2026-05-02T10:42:44.161Z</time></trkpt><trkpt lat="42.1976817" lon="13.7223576"><ele>1093.0</ele><time>2026-05-02T10:42:46.155Z</time></trkpt><trkpt lat="42.1977373" lon="13.7222381"><ele>1093.0</ele><time>2026-05-02T10:42:56.175Z</time></trkpt><trkpt lat="42.1977899" lon="13.7221236"><ele>1093.0</ele><time>2026-05-02T10:42:58.165Z</time></trkpt><trkpt lat="42.1978467" lon="13.7219917"><ele>1093.0</ele><time>2026-05-02T10:43:00.168Z</time></trkpt><trkpt lat="42.1978955" lon="13.721912"><ele>1093.0</ele><time>2026-05-02T10:43:01.163Z</time></trkpt><trkpt lat="42.1979493" lon="13.7218368"><ele>1093.0</ele><time>2026-05-02T10:43:02.158Z</time></trkpt><trkpt lat="42.1980076" lon="13.7217738"><ele>1093.0</ele><time>2026-05-02T10:43:03.159Z</time></trkpt><trkpt lat="42.1980739" lon="13.7217139"><ele>1092.8333333333333</ele><time>2026-05-02T10:43:04.153Z</time></trkpt><trkpt lat="42.1981445" lon="13.7216504"><ele>1092.6666666666665</ele><time>2026-05-02T10:43:05.154Z</time></trkpt><trkpt lat="42.1982129" lon="13.7215803"><ele>1092.5</ele><time>2026-05-02T10:43:06.153Z</time></trkpt><trkpt lat="42.1982683" lon="13.7215208"><ele>1092.3333333333333</ele><time>2026-05-02T10:43:07.164Z</time></trkpt><trkpt lat="42.1983225" lon="13.7214584"><ele>1092.1666666666667</ele><time>2026-05-02T10:43:08.156Z</time></trkpt><trkpt lat="42.1983966" lon="13.7213531"><ele>1092.0</ele><time>2026-05-02T10:43:10.159Z</time></trkpt><trkpt lat="42.1984779" lon="13.7212582"><ele>1091.2</ele><time>2026-05-02T10:43:12.163Z</time></trkpt><trkpt lat="42.1985717" lon="13.721143"><ele>1090.4</ele><time>2026-05-02T10:43:14.164Z</time></trkpt><trkpt lat="42.1986381" lon="13.7210685"><ele>1089.6</ele><time>2026-05-02T10:43:15.16Z</time></trkpt><trkpt lat="42.1987183" lon="13.7209891"><ele>1088.8</ele><time>2026-05-02T10:43:16.163Z</time></trkpt><trkpt lat="42.1988073" lon="13.7209183"><ele>1088.0</ele><time>2026-05-02T10:43:17.159Z</time></trkpt><trkpt lat="42.1988944" lon="13.7208591"><ele>1086.2</ele><time>2026-05-02T10:43:18.159Z</time></trkpt><trkpt lat="42.1989785" lon="13.7208046"><ele>1084.4</ele><time>2026-05-02T10:43:19.159Z</time></trkpt><trkpt lat="42.1990544" lon="13.7207402"><ele>1082.6000000000001</ele><time>2026-05-02T10:43:20.163Z</time></trkpt><trkpt lat="42.1991262" lon="13.7206575"><ele>1080.8</ele><time>2026-05-02T10:43:21.171Z</time></trkpt><trkpt lat="42.1991896" lon="13.7205699"><ele>1079.0</ele><time>2026-05-02T10:43:22.161Z</time></trkpt><trkpt lat="42.1992381" lon="13.7204805"><ele>1076.8</ele><time>2026-05-02T10:43:23.163Z</time></trkpt><trkpt lat="42.199279" lon="13.720404"><ele>1074.6000000000001</ele><time>2026-05-02T10:43:24.161Z</time></trkpt><trkpt lat="42.1993246" lon="13.7203393"><ele>1072.4</ele><time>2026-05-02T10:43:25.164Z</time></trkpt><trkpt lat="42.1993944" lon="13.7202117"><ele>1070.2</ele><time>2026-05-02T10:43:27.165Z</time></trkpt><trkpt lat="42.1994376" lon="13.7200766"><ele>1068.0</ele><time>2026-05-02T10:43:29.173Z</time></trkpt><trkpt lat="42.1994712" lon="13.719899"><ele>1068.2</ele><time>2026-05-02T10:43:31.167Z</time></trkpt><trkpt lat="42.1994957" lon="13.7197906"><ele>1068.4</ele><time>2026-05-02T10:43:32.164Z</time></trkpt><trkpt lat="42.1995419" lon="13.7196753"><ele>1068.6000000000001</ele><time>2026-05-02T10:43:33.161Z</time></trkpt><trkpt lat="42.1995934" lon="13.7195581"><ele>1068.8</ele><time>2026-05-02T10:43:34.159Z</time></trkpt><trkpt lat="42.1996453" lon="13.7194513"><ele>1069.0</ele><time>2026-05-02T10:43:35.156Z</time></trkpt><trkpt lat="42.199691" lon="13.7193333"><ele>1069.0</ele><time>2026-05-02T10:43:36.155Z</time></trkpt><trkpt lat="42.1997338" lon="13.719189"><ele>1069.0</ele><time>2026-05-02T10:43:37.155Z</time></trkpt><trkpt lat="42.1997832" lon="13.7190403"><ele>1069.0</ele><time>2026-05-02T10:43:38.156Z</time></trkpt><trkpt lat="42.1998423" lon="13.7189187"><ele>1069.0</ele><time>2026-05-02T10:43:39.151Z</time></trkpt><trkpt lat="42.1998922" lon="13.718824"><ele>1069.0</ele><time>2026-05-02T10:43:40.149Z</time></trkpt><trkpt lat="42.1999523" lon="13.7187348"><ele>1067.0</ele><time>2026-05-02T10:43:41.145Z</time></trkpt><trkpt lat="42.2000311" lon="13.7186252"><ele>1065.0</ele><time>2026-05-02T10:43:42.15Z</time></trkpt><trkpt lat="42.2001103" lon="13.7185178"><ele>1063.0</ele><time>2026-05-02T10:43:43.144Z</time></trkpt><trkpt lat="42.2001739" lon="13.718416"><ele>1061.0</ele><time>2026-05-02T10:43:44.152Z</time></trkpt><trkpt lat="42.2002175" lon="13.7183188"><ele>1059.0</ele><time>2026-05-02T10:43:45.152Z</time></trkpt><trkpt lat="42.2002556" lon="13.7182395"><ele>1059.0</ele><time>2026-05-02T10:43:46.151Z</time></trkpt><trkpt lat="42.2003346" lon="13.7181256"><ele>1059.0</ele><time>2026-05-02T10:43:48.152Z</time></trkpt><trkpt lat="42.2003782" lon="13.7180075"><ele>1059.0</ele><time>2026-05-02T10:43:50.145Z</time></trkpt><trkpt lat="42.2003862" lon="13.7178548"><ele>1059.0</ele><time>2026-05-02T10:43:52.156Z</time></trkpt><trkpt lat="42.2004074" lon="13.7177306"><ele>1059.0</ele><time>2026-05-02T10:43:54.148Z</time></trkpt><trkpt lat="42.2003992" lon="13.7176443"><ele>1058.8</ele><time>2026-05-02T10:43:55.149Z</time></trkpt><trkpt lat="42.2003526" lon="13.7175294"><ele>1058.6000000000001</ele><time>2026-05-02T10:43:57.149Z</time></trkpt><trkpt lat="42.2003273" lon="13.7174507"><ele>1058.4</ele><time>2026-05-02T10:44:17.15Z</time></trkpt><trkpt lat="42.2002968" lon="13.7173708"><ele>1058.2</ele><time>2026-05-02T10:44:18.157Z</time></trkpt><trkpt lat="42.2002512" lon="13.7172374"><ele>1058.0</ele><time>2026-05-02T10:44:19.154Z</time></trkpt><trkpt lat="42.2001994" lon="13.7170898"><ele>1058.0</ele><time>2026-05-02T10:44:20.16Z</time></trkpt><trkpt lat="42.2001562" lon="13.7169439"><ele>1058.0</ele><time>2026-05-02T10:44:21.16Z</time></trkpt><trkpt lat="42.2001201" lon="13.7167895"><ele>1058.0</ele><time>2026-05-02T10:44:22.164Z</time></trkpt><trkpt lat="42.2000804" lon="13.7166485"><ele>1058.0</ele><time>2026-05-02T10:44:23.155Z</time></trkpt><trkpt lat="42.2000392" lon="13.7165139"><ele>1058.2</ele><time>2026-05-02T10:44:24.152Z</time></trkpt><trkpt lat="42.200006" lon="13.7163902"><ele>1058.4</ele><time>2026-05-02T10:44:25.153Z</time></trkpt><trkpt lat="42.19998" lon="13.716272"><ele>1058.6000000000001</ele><time>2026-05-02T10:44:26.148Z</time></trkpt><trkpt lat="42.1999685" lon="13.7161561"><ele>1058.8</ele><time>2026-05-02T10:44:27.147Z</time></trkpt><trkpt lat="42.200005" lon="13.7160321"><ele>1059.0</ele><time>2026-05-02T10:44:28.147Z</time></trkpt><trkpt lat="42.2000826" lon="13.7158842"><ele>1059.25</ele><time>2026-05-02T10:44:29.148Z</time></trkpt><trkpt lat="42.2001642" lon="13.7157468"><ele>1059.5</ele><time>2026-05-02T10:44:30.146Z</time></trkpt><trkpt lat="42.2002241" lon="13.71561"><ele>1059.75</ele><time>2026-05-02T10:44:31.145Z</time></trkpt><trkpt lat="42.2002704" lon="13.7154734"><ele>1060.0</ele><time>2026-05-02T10:44:32.144Z</time></trkpt><trkpt lat="42.2003037" lon="13.7153259"><ele>1060.2</ele><time>2026-05-02T10:44:33.146Z</time></trkpt><trkpt lat="42.200331" lon="13.7151902"><ele>1060.4</ele><time>2026-05-02T10:44:34.146Z</time></trkpt><trkpt lat="42.2003487" lon="13.7150674"><ele>1060.6</ele><time>2026-05-02T10:44:35.146Z</time></trkpt><trkpt lat="42.2003674" lon="13.7149441"><ele>1060.8</ele><time>2026-05-02T10:44:36.147Z</time></trkpt><trkpt lat="42.2004038" lon="13.7148268"><ele>1061.0</ele><time>2026-05-02T10:44:37.151Z</time></trkpt><trkpt lat="42.2004501" lon="13.7147087"><ele>1061.0</ele><time>2026-05-02T10:44:38.148Z</time></trkpt><trkpt lat="42.2004938" lon="13.7145961"><ele>1061.0</ele><time>2026-05-02T10:44:39.148Z</time></trkpt><trkpt lat="42.2005194" lon="13.7144871"><ele>1061.0</ele><time>2026-05-02T10:44:40.147Z</time></trkpt><trkpt lat="42.2005339" lon="13.7143612"><ele>1061.0</ele><time>2026-05-02T10:44:41.151Z</time></trkpt><trkpt lat="42.2005518" lon="13.7142002"><ele>1061.0</ele><time>2026-05-02T10:44:42.142Z</time></trkpt><trkpt lat="42.2005627" lon="13.7140145"><ele>1060.75</ele><time>2026-05-02T10:44:43.145Z</time></trkpt><trkpt lat="42.2005905" lon="13.7138291"><ele>1060.5</ele><time>2026-05-02T10:44:44.15Z</time></trkpt><trkpt lat="42.2006124" lon="13.7136473"><ele>1060.25</ele><time>2026-05-02T10:44:45.147Z</time></trkpt><trkpt lat="42.2006442" lon="13.7134677"><ele>1060.0</ele><time>2026-05-02T10:44:46.15Z</time></trkpt><trkpt lat="42.2006774" lon="13.7132972"><ele>1054.75</ele><time>2026-05-02T10:44:47.142Z</time></trkpt><trkpt lat="42.20071" lon="13.7131489"><ele>1049.5</ele><time>2026-05-02T10:44:48.147Z</time></trkpt><trkpt lat="42.2007528" lon="13.7130188"><ele>1044.25</ele><time>2026-05-02T10:44:49.146Z</time></trkpt><trkpt lat="42.2008131" lon="13.7128731"><ele>1039.0</ele><time>2026-05-02T10:44:50.146Z</time></trkpt><trkpt lat="42.2008766" lon="13.7127236"><ele>1038.4</ele><time>2026-05-02T10:44:51.147Z</time></trkpt><trkpt lat="42.2009424" lon="13.7125783"><ele>1037.8000000000002</ele><time>2026-05-02T10:44:52.148Z</time></trkpt><trkpt lat="42.2010099" lon="13.7124523"><ele>1037.1999999999998</ele><time>2026-05-02T10:44:53.148Z</time></trkpt><trkpt lat="42.2010585" lon="13.7123398"><ele>1036.6</ele><time>2026-05-02T10:44:54.147Z</time></trkpt><trkpt lat="42.2010877" lon="13.7122299"><ele>1036.0</ele><time>2026-05-02T10:44:55.146Z</time></trkpt><trkpt lat="42.2011133" lon="13.7121068"><ele>1036.0</ele><time>2026-05-02T10:44:56.152Z</time></trkpt><trkpt lat="42.2011335" lon="13.7119834"><ele>1036.0</ele><time>2026-05-02T10:44:57.147Z</time></trkpt><trkpt lat="42.2011538" lon="13.7118679"><ele>1036.0</ele><time>2026-05-02T10:44:58.148Z</time></trkpt><trkpt lat="42.2011818" lon="13.71176"><ele>1036.0</ele><time>2026-05-02T10:44:59.146Z</time></trkpt><trkpt lat="42.2012043" lon="13.7116567"><ele>1036.0</ele><time>2026-05-02T10:45:00.152Z</time></trkpt><trkpt lat="42.2012185" lon="13.7115707"><ele>1036.0</ele><time>2026-05-02T10:45:01.148Z</time></trkpt><trkpt lat="42.2012205" lon="13.7114093"><ele>1035.3999999999999</ele><time>2026-05-02T10:45:03.145Z</time></trkpt><trkpt lat="42.2012029" lon="13.7112982"><ele>1034.8</ele><time>2026-05-02T10:45:04.148Z</time></trkpt><trkpt lat="42.2011813" lon="13.7111848"><ele>1034.1999999999998</ele><time>2026-05-02T10:45:05.146Z</time></trkpt><trkpt lat="42.2011517" lon="13.7110603"><ele>1033.6</ele><time>2026-05-02T10:45:06.146Z</time></trkpt><trkpt lat="42.2011291" lon="13.7109175"><ele>1033.0</ele><time>2026-05-02T10:45:07.152Z</time></trkpt><trkpt lat="42.2011131" lon="13.7107778"><ele>1032.2</ele><time>2026-05-02T10:45:08.147Z</time></trkpt><trkpt lat="42.2011023" lon="13.7106528"><ele>1031.4</ele><time>2026-05-02T10:45:09.148Z</time></trkpt><trkpt lat="42.2011097" lon="13.710532"><ele>1030.6000000000001</ele><time>2026-05-02T10:45:10.142Z</time></trkpt><trkpt lat="42.2011347" lon="13.7103915"><ele>1029.8</ele><time>2026-05-02T10:45:11.15Z</time></trkpt><trkpt lat="42.2011621" lon="13.7102377"><ele>1029.0</ele><time>2026-05-02T10:45:12.148Z</time></trkpt><trkpt lat="42.2012009" lon="13.7101049"><ele>1028.8</ele><time>2026-05-02T10:45:13.146Z</time></trkpt><trkpt lat="42.2012258" lon="13.709997"><ele>1028.6000000000001</ele><time>2026-05-02T10:45:14.143Z</time></trkpt><trkpt lat="42.2012441" lon="13.7098958"><ele>1028.4</ele><time>2026-05-02T10:45:15.142Z</time></trkpt><trkpt lat="42.2012588" lon="13.7097623"><ele>1028.2</ele><time>2026-05-02T10:45:16.147Z</time></trkpt><trkpt lat="42.2013007" lon="13.7096012"><ele>1028.0</ele><time>2026-05-02T10:45:17.15Z</time></trkpt><trkpt lat="42.2013351" lon="13.7094408"><ele>1028.4</ele><time>2026-05-02T10:45:18.143Z</time></trkpt><trkpt lat="42.2013645" lon="13.7092826"><ele>1028.8</ele><time>2026-05-02T10:45:19.141Z</time></trkpt><trkpt lat="42.2013885" lon="13.7091196"><ele>1029.2</ele><time>2026-05-02T10:45:20.146Z</time></trkpt><trkpt lat="42.2014038" lon="13.7089753"><ele>1029.6</ele><time>2026-05-02T10:45:21.146Z</time></trkpt><trkpt lat="42.2014251" lon="13.7088571"><ele>1030.0</ele><time>2026-05-02T10:45:22.149Z</time></trkpt><trkpt lat="42.2014644" lon="13.7087342"><ele>1026.8333333333333</ele><time>2026-05-02T10:45:23.154Z</time></trkpt><trkpt lat="42.2015147" lon="13.7086029"><ele>1023.6666666666666</ele><time>2026-05-02T10:45:24.152Z</time></trkpt><trkpt lat="42.2015463" lon="13.708484"><ele>1020.5</ele><time>2026-05-02T10:45:25.151Z</time></trkpt><trkpt lat="42.2015691" lon="13.7083695"><ele>1017.3333333333333</ele><time>2026-05-02T10:45:26.155Z</time></trkpt><trkpt lat="42.2015881" lon="13.7082644"><ele>1014.1666666666666</ele><time>2026-05-02T10:45:27.148Z</time></trkpt><trkpt lat="42.2015987" lon="13.708162"><ele>1011.0</ele><time>2026-05-02T10:45:28.149Z</time></trkpt><trkpt lat="42.2016035" lon="13.7080561"><ele>1010.0</ele><time>2026-05-02T10:45:29.152Z</time></trkpt><trkpt lat="42.2016083" lon="13.7079535"><ele>1008.9999999999999</ele><time>2026-05-02T10:45:30.155Z</time></trkpt><trkpt lat="42.2016115" lon="13.7078563"><ele>1007.9999999999999</ele><time>2026-05-02T10:45:31.155Z</time></trkpt><trkpt lat="42.2016205" lon="13.7077718"><ele>1007.0</ele><time>2026-05-02T10:45:32.153Z</time></trkpt><trkpt lat="42.2016616" lon="13.7076138"><ele>1006.0</ele><time>2026-05-02T10:45:34.153Z</time></trkpt><trkpt lat="42.2017165" lon="13.7074596"><ele>1004.6666666666666</ele><time>2026-05-02T10:45:36.15Z</time></trkpt><trkpt lat="42.2017412" lon="13.7073781"><ele>1003.3333333333333</ele><time>2026-05-02T10:45:37.15Z</time></trkpt><trkpt lat="42.2017607" lon="13.7072953"><ele>1002.0</ele><time>2026-05-02T10:45:38.149Z</time></trkpt><trkpt lat="42.2017715" lon="13.707141"><ele>1000.6666666666667</ele><time>2026-05-02T10:45:40.146Z</time></trkpt><trkpt lat="42.2017753" lon="13.7070323"><ele>999.3333333333334</ele><time>2026-05-02T10:45:42.149Z</time></trkpt><trkpt lat="42.2018048" lon="13.7069292"><ele>998.0</ele><time>2026-05-02T10:45:44.148Z</time></trkpt><trkpt lat="42.2018525" lon="13.7068171"><ele>996.5999999999999</ele><time>2026-05-02T10:45:46.146Z</time></trkpt><trkpt lat="42.2018931" lon="13.7067132"><ele>995.1999999999999</ele><time>2026-05-02T10:45:48.141Z</time></trkpt><trkpt lat="42.2018956" lon="13.7066184"><ele>993.8</ele><time>2026-05-02T10:45:50.147Z</time></trkpt><trkpt lat="42.2018697" lon="13.7065148"><ele>992.4</ele><time>2026-05-02T10:45:52.146Z</time></trkpt><trkpt lat="42.2018511" lon="13.7063834"><ele>991.0</ele><time>2026-05-02T10:45:54.143Z</time></trkpt><trkpt lat="42.2018177" lon="13.7062349"><ele>991.0</ele><time>2026-05-02T10:45:56.149Z</time></trkpt><trkpt lat="42.201739" lon="13.7061355"><ele>990.9999999999999</ele><time>2026-05-02T10:45:58.141Z</time></trkpt><trkpt lat="42.2016153" lon="13.7060828"><ele>990.9999999999999</ele><time>2026-05-02T10:46:00.138Z</time></trkpt><trkpt lat="42.2015185" lon="13.7060536"><ele>991.0</ele><time>2026-05-02T10:46:02.133Z</time></trkpt><trkpt lat="42.2015095" lon="13.7059631"><ele>991.0</ele><time>2026-05-02T10:46:04.135Z</time></trkpt><trkpt lat="42.2015156" lon="13.7058675"><ele>990.1999999999999</ele><time>2026-05-02T10:46:05.132Z</time></trkpt><trkpt lat="42.2015362" lon="13.7057809"><ele>989.3999999999999</ele><time>2026-05-02T10:46:06.138Z</time></trkpt><trkpt lat="42.2015482" lon="13.7056329"><ele>988.6</ele><time>2026-05-02T10:46:08.136Z</time></trkpt><trkpt lat="42.2015164" lon="13.705532"><ele>987.8</ele><time>2026-05-02T10:46:09.145Z</time></trkpt><trkpt lat="42.2014626" lon="13.7054127"><ele>987.0</ele><time>2026-05-02T10:46:10.141Z</time></trkpt><trkpt lat="42.2014128" lon="13.7052867"><ele>985.2</ele><time>2026-05-02T10:46:11.144Z</time></trkpt><trkpt lat="42.2013754" lon="13.7051633"><ele>983.4000000000001</ele><time>2026-05-02T10:46:12.14Z</time></trkpt><trkpt lat="42.2013482" lon="13.7050387"><ele>981.5999999999999</ele><time>2026-05-02T10:46:13.141Z</time></trkpt><trkpt lat="42.2013304" lon="13.7049053"><ele>979.8</ele><time>2026-05-02T10:46:14.142Z</time></trkpt><trkpt lat="42.2013338" lon="13.7047684"><ele>978.0</ele><time>2026-05-02T10:46:15.148Z</time></trkpt><trkpt lat="42.2013375" lon="13.7046437"><ele>978.0</ele><time>2026-05-02T10:46:16.145Z</time></trkpt><trkpt lat="42.2013428" lon="13.7045349"><ele>978.0</ele><time>2026-05-02T10:46:17.149Z</time></trkpt><trkpt lat="42.2013519" lon="13.7044401"><ele>978.0</ele><time>2026-05-02T10:46:18.15Z</time></trkpt><trkpt lat="42.2013734" lon="13.7042847"><ele>978.0</ele><time>2026-05-02T10:46:20.149Z</time></trkpt><trkpt lat="42.2013781" lon="13.7041993"><ele>978.0</ele><time>2026-05-02T10:46:21.152Z</time></trkpt><trkpt lat="42.2013823" lon="13.7041051"><ele>978.0</ele><time>2026-05-02T10:46:22.157Z</time></trkpt><trkpt lat="42.2013918" lon="13.7040042"><ele>977.3333333333334</ele><time>2026-05-02T10:46:23.154Z</time></trkpt><trkpt lat="42.201408" lon="13.7038974"><ele>976.6666666666667</ele><time>2026-05-02T10:46:24.154Z</time></trkpt><trkpt lat="42.2014338" lon="13.703793"><ele>976.0</ele><time>2026-05-02T10:46:25.153Z</time></trkpt><trkpt lat="42.2014607" lon="13.7036881"><ele>975.3333333333334</ele><time>2026-05-02T10:46:26.158Z</time></trkpt><trkpt lat="42.2014886" lon="13.7035835"><ele>974.6666666666667</ele><time>2026-05-02T10:46:27.15Z</time></trkpt><trkpt lat="42.2015174" lon="13.7034765"><ele>974.0</ele><time>2026-05-02T10:46:28.15Z</time></trkpt><trkpt lat="42.2015363" lon="13.7033749"><ele>974.0000000000001</ele><time>2026-05-02T10:46:29.152Z</time></trkpt><trkpt lat="42.2015426" lon="13.7032827"><ele>974.0</ele><time>2026-05-02T10:46:30.15Z</time></trkpt><trkpt lat="42.2015451" lon="13.7031956"><ele>974.0</ele><time>2026-05-02T10:46:31.153Z</time></trkpt><trkpt lat="42.2015347" lon="13.7030445"><ele>974.0</ele><time>2026-05-02T10:46:33.153Z</time></trkpt><trkpt lat="42.2014927" lon="13.7029642"><ele>974.0000000000001</ele><time>2026-05-02T10:46:35.144Z</time></trkpt><trkpt lat="42.2014372" lon="13.7028872"><ele>974.0</ele><time>2026-05-02T10:46:44.149Z</time></trkpt><trkpt lat="42.2013898" lon="13.7028304"><ele>966.6</ele><time>2026-05-02T10:46:46.147Z</time></trkpt><trkpt lat="42.201318" lon="13.7027505"><ele>959.2</ele><time>2026-05-02T10:46:48.142Z</time></trkpt><trkpt lat="42.2012207" lon="13.7026579"><ele>951.8000000000001</ele><time>2026-05-02T10:46:50.14Z</time></trkpt><trkpt lat="42.201103" lon="13.702576"><ele>944.4000000000001</ele><time>2026-05-02T10:46:52.146Z</time></trkpt><trkpt lat="42.2010433" lon="13.7025228"><ele>937.0</ele><time>2026-05-02T10:46:53.144Z</time></trkpt><trkpt lat="42.2009847" lon="13.7024628"><ele>936.9999999999999</ele><time>2026-05-02T10:46:54.142Z</time></trkpt><trkpt lat="42.2009133" lon="13.7024086"><ele>937.0</ele><time>2026-05-02T10:46:55.144Z</time></trkpt><trkpt lat="42.2008398" lon="13.7023628"><ele>937.0</ele><time>2026-05-02T10:46:56.146Z</time></trkpt><trkpt lat="42.2007727" lon="13.7023205"><ele>937.0</ele><time>2026-05-02T10:46:57.143Z</time></trkpt><trkpt lat="42.2007134" lon="13.7022876"><ele>936.9999999999999</ele><time>2026-05-02T10:46:58.135Z</time></trkpt><trkpt lat="42.2006204" lon="13.7022542"><ele>937.0</ele><time>2026-05-02T10:47:00.14Z</time></trkpt><trkpt lat="42.2005417" lon="13.7022457"><ele>931.9999999999999</ele><time>2026-05-02T10:47:02.138Z</time></trkpt><trkpt lat="42.2004754" lon="13.702219"><ele>927.0</ele><time>2026-05-02T10:47:04.142Z</time></trkpt><trkpt lat="42.2003803" lon="13.7021997"><ele>922.0</ele><time>2026-05-02T10:47:06.137Z</time></trkpt><trkpt lat="42.2002769" lon="13.7021897"><ele>917.0</ele><time>2026-05-02T10:47:08.147Z</time></trkpt><trkpt lat="42.2002078" lon="13.7021622"><ele>911.9999999999999</ele><time>2026-05-02T10:47:10.147Z</time></trkpt><trkpt lat="42.2001672" lon="13.7020833"><ele>907.0</ele><time>2026-05-02T10:47:12.15Z</time></trkpt><trkpt lat="42.2001554" lon="13.7019842"><ele>907.4999999999999</ele><time>2026-05-02T10:47:14.154Z</time></trkpt><trkpt lat="42.200137" lon="13.7018523"><ele>908.0</ele><time>2026-05-02T10:47:16.151Z</time></trkpt><trkpt lat="42.2001101" lon="13.7017227"><ele>908.5</ele><time>2026-05-02T10:47:18.152Z</time></trkpt><trkpt lat="42.2000786" lon="13.7016315"><ele>909.0</ele><time>2026-05-02T10:47:20.153Z</time></trkpt><trkpt lat="42.2000358" lon="13.7015257"><ele>909.4999999999999</ele><time>2026-05-02T10:47:23.157Z</time></trkpt><trkpt lat="42.2000212" lon="13.7014427"><ele>910.0</ele><time>2026-05-02T10:47:27.154Z</time></trkpt><trkpt lat="42.2000567" lon="13.7013561"><ele>910.0</ele><time>2026-05-02T10:47:30.156Z</time></trkpt><trkpt lat="42.2000701" lon="13.7012574"><ele>910.0</ele><time>2026-05-02T10:48:47.16Z</time></trkpt><trkpt lat="42.2000826" lon="13.7011443"><ele>910.0</ele><time>2026-05-02T10:48:49.157Z</time></trkpt><trkpt lat="42.2000917" lon="13.7009619"><ele>910.0</ele><time>2026-05-02T10:48:51.153Z</time></trkpt><trkpt lat="42.2001016" lon="13.7008665"><ele>910.0</ele><time>2026-05-02T10:48:52.148Z</time></trkpt><trkpt lat="42.2001192" lon="13.7007224"><ele>909.1428571428571</ele><time>2026-05-02T10:48:54.148Z</time></trkpt><trkpt lat="42.2001086" lon="13.7006233"><ele>908.2857142857142</ele><time>2026-05-02T10:48:56.147Z</time></trkpt><trkpt lat="42.2000679" lon="13.7005126"><ele>907.4285714285714</ele><time>2026-05-02T10:48:58.141Z</time></trkpt><trkpt lat="42.2000572" lon="13.7004261"><ele>906.5714285714286</ele><time>2026-05-02T10:48:59.151Z</time></trkpt><trkpt lat="42.2000582" lon="13.7003239"><ele>905.7142857142857</ele><time>2026-05-02T10:49:00.147Z</time></trkpt><trkpt lat="42.200066" lon="13.7002272"><ele>904.8571428571429</ele><time>2026-05-02T10:49:01.152Z</time></trkpt><trkpt lat="42.2000803" lon="13.7001388"><ele>904.0</ele><time>2026-05-02T10:49:02.143Z</time></trkpt><trkpt lat="42.2001033" lon="13.6999965"><ele>903.8000000000001</ele><time>2026-05-02T10:49:04.142Z</time></trkpt><trkpt lat="42.2000522" lon="13.6999072"><ele>903.6000000000001</ele><time>2026-05-02T10:49:06.143Z</time></trkpt><trkpt lat="42.1999453" lon="13.6998381"><ele>903.4</ele><time>2026-05-02T10:49:08.153Z</time></trkpt><trkpt lat="42.1998498" lon="13.6997681"><ele>903.2</ele><time>2026-05-02T10:49:10.146Z</time></trkpt><trkpt lat="42.19978" lon="13.6996461"><ele>903.0</ele><time>2026-05-02T10:49:12.15Z</time></trkpt><trkpt lat="42.199746" lon="13.6995453"><ele>894.3333333333334</ele><time>2026-05-02T10:49:13.149Z</time></trkpt><trkpt lat="42.1997173" lon="13.6994393"><ele>885.6666666666667</ele><time>2026-05-02T10:49:14.15Z</time></trkpt><trkpt lat="42.1996925" lon="13.6993498"><ele>877.0</ele><time>2026-05-02T10:49:15.149Z</time></trkpt><trkpt lat="42.199654" lon="13.6992113"><ele>868.3333333333334</ele><time>2026-05-02T10:49:17.162Z</time></trkpt><trkpt lat="42.1995942" lon="13.6990776"><ele>859.6666666666667</ele><time>2026-05-02T10:49:19.156Z</time></trkpt><trkpt lat="42.1995556" lon="13.6990009"><ele>851.0</ele><time>2026-05-02T10:49:20.153Z</time></trkpt><trkpt lat="42.1995287" lon="13.698915"><ele>851.0000000000001</ele><time>2026-05-02T10:49:21.155Z</time></trkpt><trkpt lat="42.1995131" lon="13.6988215"><ele>851.0</ele><time>2026-05-02T10:49:22.155Z</time></trkpt><trkpt lat="42.1995123" lon="13.6987334"><ele>851.0</ele><time>2026-05-02T10:49:23.16Z</time></trkpt><trkpt lat="42.1995174" lon="13.6985668"><ele>851.0</ele><time>2026-05-02T10:49:25.163Z</time></trkpt><trkpt lat="42.1995006" lon="13.6984395"><ele>851.0000000000001</ele><time>2026-05-02T10:49:27.16Z</time></trkpt><trkpt lat="42.1994808" lon="13.6983278"><ele>851.0</ele><time>2026-05-02T10:49:29.156Z</time></trkpt><trkpt lat="42.1994859" lon="13.6982002"><ele>851.6666666666667</ele><time>2026-05-02T10:49:31.162Z</time></trkpt><trkpt lat="42.1994984" lon="13.6981164"><ele>852.3333333333334</ele><time>2026-05-02T10:49:32.151Z</time></trkpt><trkpt lat="42.1995184" lon="13.6980172"><ele>853.0</ele><time>2026-05-02T10:49:33.161Z</time></trkpt><trkpt lat="42.1995439" lon="13.6979228"><ele>853.6666666666667</ele><time>2026-05-02T10:49:34.151Z</time></trkpt><trkpt lat="42.1995909" lon="13.6977812"><ele>854.3333333333334</ele><time>2026-05-02T10:49:36.155Z</time></trkpt><trkpt lat="42.1996436" lon="13.6976427"><ele>855.0</ele><time>2026-05-02T10:49:38.155Z</time></trkpt><trkpt lat="42.1996731" lon="13.6975414"><ele>853.0</ele><time>2026-05-02T10:49:40.155Z</time></trkpt><trkpt lat="42.1997141" lon="13.6974444"><ele>851.0</ele><time>2026-05-02T10:49:42.151Z</time></trkpt><trkpt lat="42.1997722" lon="13.6973651"><ele>849.0</ele><time>2026-05-02T10:49:44.152Z</time></trkpt><trkpt lat="42.1998125" lon="13.6972647"><ele>847.0</ele><time>2026-05-02T10:49:47.151Z</time></trkpt><trkpt lat="42.199871" lon="13.6971751"><ele>845.0</ele><time>2026-05-02T10:49:50.155Z</time></trkpt><trkpt lat="42.1999703" lon="13.6971415"><ele>843.0</ele><time>2026-05-02T10:49:53.152Z</time></trkpt><trkpt lat="42.2000614" lon="13.6971257"><ele>850.0</ele><time>2026-05-02T10:49:55.157Z</time></trkpt><trkpt lat="42.2001733" lon="13.6971081"><ele>857.0</ele><time>2026-05-02T10:49:57.155Z</time></trkpt><trkpt lat="42.2002793" lon="13.6970564"><ele>864.0</ele><time>2026-05-02T10:49:59.151Z</time></trkpt><trkpt lat="42.200353" lon="13.696998"><ele>871.0</ele><time>2026-05-02T10:50:01.147Z</time></trkpt><trkpt lat="42.2004628" lon="13.6969951"><ele>878.0</ele><time>2026-05-02T10:50:03.15Z</time></trkpt><trkpt lat="42.2005277" lon="13.6969707"><ele>878.0000000000001</ele><time>2026-05-02T10:50:04.148Z</time></trkpt><trkpt lat="42.2005889" lon="13.6969351"><ele>878.0</ele><time>2026-05-02T10:50:05.149Z</time></trkpt><trkpt lat="42.2006505" lon="13.6968884"><ele>878.0</ele><time>2026-05-02T10:50:06.146Z</time></trkpt><trkpt lat="42.2007159" lon="13.6968434"><ele>878.0</ele><time>2026-05-02T10:50:07.151Z</time></trkpt><trkpt lat="42.2007762" lon="13.6967945"><ele>878.0000000000001</ele><time>2026-05-02T10:50:08.144Z</time></trkpt><trkpt lat="42.2008648" lon="13.6967017"><ele>878.0</ele><time>2026-05-02T10:50:10.146Z</time></trkpt><trkpt lat="42.2008877" lon="13.6965873"><ele>874.25</ele><time>2026-05-02T10:50:12.138Z</time></trkpt><trkpt lat="42.2008255" lon="13.6965138"><ele>870.5</ele><time>2026-05-02T10:50:14.142Z</time></trkpt><trkpt lat="42.2007523" lon="13.6965329"><ele>866.75</ele><time>2026-05-02T10:50:16.14Z</time></trkpt><trkpt lat="42.2006815" lon="13.6965692"><ele>863.0</ele><time>2026-05-02T10:50:18.142Z</time></trkpt><trkpt lat="42.1998125" lon="13.6972647"><ele>866.0</ele><time>2026-05-02T10:49:47.151Z</time></trkpt><trkpt lat="42.199871" lon="13.6971751"><ele>869.0</ele><time>2026-05-02T10:49:50.155Z</time></trkpt><trkpt lat="42.1999703" lon="13.6971415"><ele>872.0</ele><time>2026-05-02T10:49:53.152Z</time></trkpt><trkpt lat="42.2000614" lon="13.6971257"><ele>875.0</ele><time>2026-05-02T10:49:55.157Z</time></trkpt><trkpt lat="42.2001733" lon="13.6971081"><ele>878.0</ele><time>2026-05-02T10:49:57.155Z</time></trkpt><trkpt lat="42.2002793" lon="13.6970564"><ele>878.0000000000001</ele><time>2026-05-02T10:49:59.151Z</time></trkpt><trkpt lat="42.200353" lon="13.696998"><ele>878.0</ele><time>2026-05-02T10:50:01.147Z</time></trkpt><trkpt lat="42.2004628" lon="13.6969951"><ele>878.0</ele><time>2026-05-02T10:50:03.15Z</time></trkpt><trkpt lat="42.2005277" lon="13.6969707"><ele>878.0</ele><time>2026-05-02T10:50:04.148Z</time></trkpt><trkpt lat="42.2005889" lon="13.6969351"><ele>878.0000000000001</ele><time>2026-05-02T10:50:05.149Z</time></trkpt><trkpt lat="42.2006505" lon="13.6968884"><ele>878.0</ele><time>2026-05-02T10:50:06.146Z</time></trkpt><trkpt lat="42.2007159" lon="13.6968434"><ele>875.5000000000001</ele><time>2026-05-02T10:50:07.151Z</time></trkpt><trkpt lat="42.2007762" lon="13.6967945"><ele>873.0</ele><time>2026-05-02T10:50:08.144Z</time></trkpt><trkpt lat="42.2008648" lon="13.6967017"><ele>870.5</ele><time>2026-05-02T10:50:10.146Z</time></trkpt><trkpt lat="42.2008877" lon="13.6965873"><ele>868.0</ele><time>2026-05-02T10:50:12.138Z</time></trkpt><trkpt lat="42.2008255" lon="13.6965138"><ele>865.5000000000001</ele><time>2026-05-02T10:50:14.142Z</time></trkpt><trkpt lat="42.2007523" lon="13.6965329"><ele>863.0</ele><time>2026-05-02T10:50:16.14Z</time></trkpt><trkpt lat="42.2006815" lon="13.6965692"><ele>860.1666666666667</ele><time>2026-05-02T10:50:18.142Z</time></trkpt><trkpt lat="42.2006238" lon="13.6965194"><ele>857.3333333333334</ele><time>2026-05-02T10:50:20.142Z</time></trkpt><trkpt lat="42.2005684" lon="13.69645"><ele>854.5</ele><time>2026-05-02T10:50:22.139Z</time></trkpt><trkpt lat="42.2004904" lon="13.6965005"><ele>851.6666666666667</ele><time>2026-05-02T10:50:35.143Z</time></trkpt><trkpt lat="42.2004153" lon="13.6964788"><ele>848.8333333333334</ele><time>2026-05-02T10:50:42.138Z</time></trkpt><trkpt lat="42.2003454" lon="13.6964022"><ele>846.0</ele><time>2026-05-02T10:50:45.148Z</time></trkpt><trkpt lat="42.200279" lon="13.6963262"><ele>846.0</ele><time>2026-05-02T10:50:47.142Z</time></trkpt><trkpt lat="42.200203" lon="13.696265"><ele>846.0</ele><time>2026-05-02T10:50:49.147Z</time></trkpt><trkpt lat="42.2001287" lon="13.6962231"><ele>846.0</ele><time>2026-05-02T10:50:51.146Z</time></trkpt><trkpt lat="42.2000302" lon="13.6962567"><ele>846.0</ele><time>2026-05-02T10:50:53.15Z</time></trkpt><trkpt lat="42.1999738" lon="13.6963041"><ele>846.0</ele><time>2026-05-02T10:50:54.144Z</time></trkpt><trkpt lat="42.1999216" lon="13.6963636"><ele>846.0</ele><time>2026-05-02T10:50:55.147Z</time></trkpt><trkpt lat="42.199826" lon="13.6963949"><ele>841.6666666666666</ele><time>2026-05-02T10:50:57.142Z</time></trkpt><trkpt lat="42.1997661" lon="13.6963549"><ele>837.3333333333333</ele><time>2026-05-02T10:50:59.156Z</time></trkpt><trkpt lat="42.199714" lon="13.6962997"><ele>833.0</ele><time>2026-05-02T10:51:01.155Z</time></trkpt><trkpt lat="42.199653" lon="13.6961931"><ele>828.6666666666666</ele><time>2026-05-02T10:51:03.153Z</time></trkpt><trkpt lat="42.199582" lon="13.6960566"><ele>824.3333333333333</ele><time>2026-05-02T10:51:05.152Z</time></trkpt><trkpt lat="42.1995465" lon="13.6959864"><ele>820.0</ele><time>2026-05-02T10:51:06.156Z</time></trkpt><trkpt lat="42.1995026" lon="13.6959141"><ele>817.3333333333333</ele><time>2026-05-02T10:51:07.157Z</time></trkpt><trkpt lat="42.1994563" lon="13.6958365"><ele>814.6666666666666</ele><time>2026-05-02T10:51:08.157Z</time></trkpt><trkpt lat="42.1994024" lon="13.6957569"><ele>812.0</ele><time>2026-05-02T10:51:09.161Z</time></trkpt><trkpt lat="42.1993489" lon="13.6956724"><ele>809.3333333333333</ele><time>2026-05-02T10:51:10.156Z</time></trkpt><trkpt lat="42.1993007" lon="13.695579"><ele>806.6666666666666</ele><time>2026-05-02T10:51:11.161Z</time></trkpt><trkpt lat="42.1992564" lon="13.6954834"><ele>804.0</ele><time>2026-05-02T10:51:12.155Z</time></trkpt><trkpt lat="42.1992234" lon="13.6953806"><ele>804.0</ele><time>2026-05-02T10:51:13.157Z</time></trkpt><trkpt lat="42.1991961" lon="13.6952581"><ele>804.0</ele><time>2026-05-02T10:51:14.162Z</time></trkpt><trkpt lat="42.1991709" lon="13.6951352"><ele>804.0</ele><time>2026-05-02T10:51:15.154Z</time></trkpt><trkpt lat="42.1991366" lon="13.6950342"><ele>804.0</ele><time>2026-05-02T10:51:16.157Z</time></trkpt><trkpt lat="42.1990916" lon="13.694961"><ele>804.0</ele><time>2026-05-02T10:51:17.167Z</time></trkpt><trkpt lat="42.1990445" lon="13.6949036"><ele>804.0</ele><time>2026-05-02T10:51:18.156Z</time></trkpt><trkpt lat="42.1989536" lon="13.6948673"><ele>800.5</ele><time>2026-05-02T10:51:20.156Z</time></trkpt><trkpt lat="42.1988654" lon="13.6949447"><ele>797.0</ele><time>2026-05-02T10:51:22.16Z</time></trkpt><trkpt lat="42.1988284" lon="13.6950159"><ele>793.5</ele><time>2026-05-02T10:51:23.156Z</time></trkpt><trkpt lat="42.1987906" lon="13.6951129"><ele>790.0</ele><time>2026-05-02T10:51:24.157Z</time></trkpt><trkpt lat="42.198746" lon="13.6952311"><ele>786.5</ele><time>2026-05-02T10:51:25.158Z</time></trkpt><trkpt lat="42.1986928" lon="13.6953404"><ele>783.0</ele><time>2026-05-02T10:51:26.162Z</time></trkpt><trkpt lat="42.1986358" lon="13.6954346"><ele>783.0</ele><time>2026-05-02T10:51:27.157Z</time></trkpt><trkpt lat="42.1985917" lon="13.6955102"><ele>783.0</ele><time>2026-05-02T10:51:28.158Z</time></trkpt><trkpt lat="42.1985313" lon="13.6956133"><ele>783.0</ele><time>2026-05-02T10:51:30.151Z</time></trkpt><trkpt lat="42.1984643" lon="13.6956092"><ele>783.0</ele><time>2026-05-02T10:51:32.156Z</time></trkpt><trkpt lat="42.1983948" lon="13.6955277"><ele>783.0</ele><time>2026-05-02T10:51:34.156Z</time></trkpt><trkpt lat="42.1982804" lon="13.6954545"><ele>783.0</ele><time>2026-05-02T10:51:36.154Z</time></trkpt><trkpt lat="42.1982174" lon="13.6954446"><ele>783.0</ele><time>2026-05-02T10:51:37.153Z</time></trkpt><trkpt lat="42.1981029" lon="13.6954925"><ele>783.0</ele><time>2026-05-02T10:51:39.159Z</time></trkpt><trkpt lat="42.1980048" lon="13.6955947"><ele>783.0</ele><time>2026-05-02T10:51:41.162Z</time></trkpt><trkpt lat="42.1979489" lon="13.6956361"><ele>783.0</ele><time>2026-05-02T10:51:42.158Z</time></trkpt><trkpt lat="42.1978745" lon="13.6956669"><ele>783.0</ele><time>2026-05-02T10:51:43.162Z</time></trkpt><trkpt lat="42.1977823" lon="13.6957007"><ele>779.2</ele><time>2026-05-02T10:51:44.161Z</time></trkpt><trkpt lat="42.1976867" lon="13.6957328"><ele>775.4</ele><time>2026-05-02T10:51:45.161Z</time></trkpt><trkpt lat="42.1975874" lon="13.6957604"><ele>771.6</ele><time>2026-05-02T10:51:46.158Z</time></trkpt><trkpt lat="42.197484" lon="13.6957845"><ele>767.8000000000001</ele><time>2026-05-02T10:51:47.162Z</time></trkpt><trkpt lat="42.1973766" lon="13.6958073"><ele>764.0</ele><time>2026-05-02T10:51:48.162Z</time></trkpt><trkpt lat="42.1972688" lon="13.6958352"><ele>760.4000000000001</ele><time>2026-05-02T10:51:49.158Z</time></trkpt><trkpt lat="42.1971643" lon="13.6958723"><ele>756.8</ele><time>2026-05-02T10:51:50.165Z</time></trkpt><trkpt lat="42.1970695" lon="13.6959096"><ele>753.2</ele><time>2026-05-02T10:51:51.163Z</time></trkpt><trkpt lat="42.1969788" lon="13.6959428"><ele>749.5999999999999</ele><time>2026-05-02T10:51:52.161Z</time></trkpt><trkpt lat="42.1968949" lon="13.6959691"><ele>746.0</ele><time>2026-05-02T10:51:53.164Z</time></trkpt><trkpt lat="42.1968169" lon="13.6959919"><ele>746.0</ele><time>2026-05-02T10:51:54.161Z</time></trkpt><trkpt lat="42.1967458" lon="13.6960192"><ele>746.0</ele><time>2026-05-02T10:51:55.162Z</time></trkpt><trkpt lat="42.1966459" lon="13.6960749"><ele>746.0</ele><time>2026-05-02T10:51:57.161Z</time></trkpt><trkpt lat="42.1965822" lon="13.6960936"><ele>746.0</ele><time>2026-05-02T10:51:59.156Z</time></trkpt><trkpt lat="42.1965083" lon="13.6961358"><ele>746.0</ele><time>2026-05-02T10:53:33.159Z</time></trkpt><trkpt lat="42.1965074" lon="13.6962447"><ele>746.0</ele><time>2026-05-02T10:53:36.159Z</time></trkpt><trkpt lat="42.1964649" lon="13.6961773"><ele>742.8</ele><time>2026-05-02T10:53:44.161Z</time></trkpt><trkpt lat="42.1964539" lon="13.6960921"><ele>739.5999999999999</ele><time>2026-05-02T10:54:50.162Z</time></trkpt><trkpt lat="42.1964494" lon="13.6959934"><ele>736.4</ele><time>2026-05-02T10:54:53.161Z</time></trkpt><trkpt lat="42.1964312" lon="13.6958847"><ele>733.2</ele><time>2026-05-02T10:54:55.164Z</time></trkpt><trkpt lat="42.196427" lon="13.6957206"><ele>730.0</ele><time>2026-05-02T10:54:57.163Z</time></trkpt><trkpt lat="42.1964184" lon="13.6955599"><ele>730.0000000000001</ele><time>2026-05-02T10:54:59.155Z</time></trkpt><trkpt lat="42.1964033" lon="13.6954761"><ele>730.0</ele><time>2026-05-02T10:55:00.16Z</time></trkpt><trkpt lat="42.1963831" lon="13.6953818"><ele>730.0</ele><time>2026-05-02T10:55:01.157Z</time></trkpt><trkpt lat="42.1963713" lon="13.6952836"><ele>730.0</ele><time>2026-05-02T10:55:02.16Z</time></trkpt><trkpt lat="42.1963588" lon="13.6951893"><ele>730.0</ele><time>2026-05-02T10:55:03.16Z</time></trkpt><trkpt lat="42.1963421" lon="13.695098"><ele>730.0000000000001</ele><time>2026-05-02T10:55:04.16Z</time></trkpt><trkpt lat="42.1963228" lon="13.6950075"><ele>730.0</ele><time>2026-05-02T10:55:05.158Z</time></trkpt><trkpt lat="42.1963126" lon="13.6949053"><ele>730.1666666666667</ele><time>2026-05-02T10:55:06.162Z</time></trkpt><trkpt lat="42.1963053" lon="13.6948019"><ele>730.3333333333334</ele><time>2026-05-02T10:55:07.159Z</time></trkpt><trkpt lat="42.1962933" lon="13.6946942"><ele>730.5</ele><time>2026-05-02T10:55:08.16Z</time></trkpt><trkpt lat="42.1962731" lon="13.694587"><ele>730.6666666666666</ele><time>2026-05-02T10:55:09.16Z</time></trkpt><trkpt lat="42.1962443" lon="13.6944806"><ele>730.8333333333333</ele><time>2026-05-02T10:55:10.158Z</time></trkpt><trkpt lat="42.1962046" lon="13.6943868"><ele>731.0</ele><time>2026-05-02T10:55:11.159Z</time></trkpt><trkpt lat="42.1961659" lon="13.6943038"><ele>731.0</ele><time>2026-05-02T10:55:12.159Z</time></trkpt><trkpt lat="42.196136" lon="13.6942207"><ele>731.0</ele><time>2026-05-02T10:55:13.159Z</time></trkpt><trkpt lat="42.1961098" lon="13.69414"><ele>731.0</ele><time>2026-05-02T10:55:14.161Z</time></trkpt><trkpt lat="42.1960802" lon="13.6940389"><ele>731.0</ele><time>2026-05-02T10:55:15.157Z</time></trkpt><trkpt lat="42.1960638" lon="13.6939328"><ele>731.0</ele><time>2026-05-02T10:55:16.157Z</time></trkpt><trkpt lat="42.1960531" lon="13.6938377"><ele>731.0</ele><time>2026-05-02T10:55:17.161Z</time></trkpt><trkpt lat="42.1960455" lon="13.6937397"><ele>731.0</ele><time>2026-05-02T10:55:18.16Z</time></trkpt><trkpt lat="42.1960289" lon="13.6936354"><ele>729.5999999999999</ele><time>2026-05-02T10:55:19.158Z</time></trkpt><trkpt lat="42.1960135" lon="13.6935417"><ele>728.2</ele><time>2026-05-02T10:55:20.16Z</time></trkpt><trkpt lat="42.1959972" lon="13.6934565"><ele>726.8</ele><time>2026-05-02T10:55:21.159Z</time></trkpt><trkpt lat="42.1959755" lon="13.6933097"><ele>725.4000000000001</ele><time>2026-05-02T10:55:23.161Z</time></trkpt><trkpt lat="42.1959552" lon="13.6931646"><ele>724.0</ele><time>2026-05-02T10:55:25.162Z</time></trkpt><trkpt lat="42.1959316" lon="13.6930376"><ele>724.0</ele><time>2026-05-02T10:55:27.153Z</time></trkpt><trkpt lat="42.1959058" lon="13.6928701"><ele>724.0</ele><time>2026-05-02T10:55:29.162Z</time></trkpt><trkpt lat="42.1958934" lon="13.6927565"><ele>724.0</ele><time>2026-05-02T10:55:30.158Z</time></trkpt><trkpt lat="42.1958785" lon="13.6926392"><ele>724.0</ele><time>2026-05-02T10:55:31.163Z</time></trkpt><trkpt lat="42.1958749" lon="13.6925288"><ele>724.0</ele><time>2026-05-02T10:55:32.157Z</time></trkpt><trkpt lat="42.1958735" lon="13.6924082"><ele>722.0</ele><time>2026-05-02T10:55:33.156Z</time></trkpt><trkpt lat="42.19588" lon="13.6922816"><ele>720.0</ele><time>2026-05-02T10:55:34.155Z</time></trkpt><trkpt lat="42.1958869" lon="13.692148"><ele>718.0</ele><time>2026-05-02T10:55:35.151Z</time></trkpt><trkpt lat="42.1958877" lon="13.6920192"><ele>716.0</ele><time>2026-05-02T10:55:36.155Z</time></trkpt><trkpt lat="42.1958857" lon="13.6918972"><ele>714.0</ele><time>2026-05-02T10:55:37.156Z</time></trkpt><trkpt lat="42.1958904" lon="13.6917745"><ele>712.6</ele><time>2026-05-02T10:55:38.155Z</time></trkpt><trkpt lat="42.1958983" lon="13.6916594"><ele>711.2</ele><time>2026-05-02T10:55:39.152Z</time></trkpt><trkpt lat="42.1959017" lon="13.6915566"><ele>709.8000000000001</ele><time>2026-05-02T10:55:40.15Z</time></trkpt><trkpt lat="42.195898" lon="13.6914716"><ele>708.4000000000001</ele><time>2026-05-02T10:55:41.151Z</time></trkpt><trkpt lat="42.1958564" lon="13.6913284"><ele>707.0</ele><time>2026-05-02T10:55:43.158Z</time></trkpt><trkpt lat="42.1957818" lon="13.6911745"><ele>706.5</ele><time>2026-05-02T10:55:45.15Z</time></trkpt><trkpt lat="42.195742" lon="13.6910797"><ele>706.0</ele><time>2026-05-02T10:55:46.152Z</time></trkpt><trkpt lat="42.195693" lon="13.6909855"><ele>705.5</ele><time>2026-05-02T10:55:47.15Z</time></trkpt><trkpt lat="42.1956415" lon="13.6909119"><ele>705.0</ele><time>2026-05-02T10:55:48.146Z</time></trkpt><trkpt lat="42.1955861" lon="13.6908476"><ele>704.5</ele><time>2026-05-02T10:55:49.158Z</time></trkpt><trkpt lat="42.1955264" lon="13.6907953"><ele>704.0</ele><time>2026-05-02T10:55:50.156Z</time></trkpt><trkpt lat="42.1954586" lon="13.6907558"><ele>701.6</ele><time>2026-05-02T10:55:51.152Z</time></trkpt><trkpt lat="42.1953765" lon="13.6907147"><ele>699.2</ele><time>2026-05-02T10:55:52.158Z</time></trkpt><trkpt lat="42.1952778" lon="13.6906825"><ele>696.8000000000001</ele><time>2026-05-02T10:55:53.155Z</time></trkpt><trkpt lat="42.1951725" lon="13.6906527"><ele>694.4000000000001</ele><time>2026-05-02T10:55:54.16Z</time></trkpt><trkpt lat="42.1950715" lon="13.6906178"><ele>692.0</ele><time>2026-05-02T10:55:55.163Z</time></trkpt><trkpt lat="42.1949769" lon="13.6905824"><ele>692.0</ele><time>2026-05-02T10:55:56.163Z</time></trkpt><trkpt lat="42.1948755" lon="13.6905444"><ele>692.0</ele><time>2026-05-02T10:55:57.159Z</time></trkpt><trkpt lat="42.194773" lon="13.6905091"><ele>692.0</ele><time>2026-05-02T10:55:58.158Z</time></trkpt><trkpt lat="42.1946706" lon="13.690487"><ele>692.0</ele><time>2026-05-02T10:55:59.161Z</time></trkpt><trkpt lat="42.194575" lon="13.6904613"><ele>692.0</ele><time>2026-05-02T10:56:00.162Z</time></trkpt><trkpt lat="42.1944869" lon="13.6904384"><ele>690.0</ele><time>2026-05-02T10:56:01.158Z</time></trkpt><trkpt lat="42.1944075" lon="13.6904014"><ele>688.0</ele><time>2026-05-02T10:56:02.16Z</time></trkpt><trkpt lat="42.1943329" lon="13.6903476"><ele>686.0</ele><time>2026-05-02T10:56:03.155Z</time></trkpt><trkpt lat="42.1942642" lon="13.6902836"><ele>684.0</ele><time>2026-05-02T10:56:04.158Z</time></trkpt><trkpt lat="42.1942042" lon="13.690204"><ele>682.0</ele><time>2026-05-02T10:56:05.153Z</time></trkpt><trkpt lat="42.1941399" lon="13.6901064"><ele>680.0</ele><time>2026-05-02T10:56:06.152Z</time></trkpt><trkpt lat="42.194079" lon="13.6900084"><ele>679.5</ele><time>2026-05-02T10:56:07.156Z</time></trkpt><trkpt lat="42.1940209" lon="13.6899185"><ele>679.0</ele><time>2026-05-02T10:56:08.157Z</time></trkpt><trkpt lat="42.193971" lon="13.6898269"><ele>678.5</ele><time>2026-05-02T10:56:09.156Z</time></trkpt><trkpt lat="42.1939359" lon="13.689719"><ele>678.0</ele><time>2026-05-02T10:56:10.153Z</time></trkpt><trkpt lat="42.1939112" lon="13.6896206"><ele>677.5</ele><time>2026-05-02T10:56:11.154Z</time></trkpt><trkpt lat="42.1938823" lon="13.6895325"><ele>677.0</ele><time>2026-05-02T10:56:12.151Z</time></trkpt><trkpt lat="42.1938408" lon="13.6894635"><ele>676.0</ele><time>2026-05-02T10:56:13.155Z</time></trkpt><trkpt lat="42.193736" lon="13.6893957"><ele>675.0</ele><time>2026-05-02T10:56:15.157Z</time></trkpt><trkpt lat="42.1936675" lon="13.689391"><ele>674.0</ele><time>2026-05-02T10:56:16.157Z</time></trkpt><trkpt lat="42.193578" lon="13.6893973"><ele>673.0</ele><time>2026-05-02T10:56:18.16Z</time></trkpt><trkpt lat="42.1934967" lon="13.6894331"><ele>672.0</ele><time>2026-05-02T10:56:20.163Z</time></trkpt><trkpt lat="42.1934267" lon="13.6894019"><ele>671.0</ele><time>2026-05-02T10:56:23.162Z</time></trkpt><trkpt lat="42.1933775" lon="13.6892859"><ele>671.0</ele><time>2026-05-02T10:56:25.156Z</time></trkpt><trkpt lat="42.193332" lon="13.6891945"><ele>671.0</ele><time>2026-05-02T10:56:26.156Z</time></trkpt><trkpt lat="42.1932686" lon="13.6890775"><ele>671.0</ele><time>2026-05-02T10:56:27.156Z</time></trkpt><trkpt lat="42.1931962" lon="13.688971"><ele>671.0</ele><time>2026-05-02T10:56:28.156Z</time></trkpt><trkpt lat="42.1931435" lon="13.688854"><ele>671.0</ele><time>2026-05-02T10:56:29.16Z</time></trkpt><trkpt lat="42.1931076" lon="13.688715"><ele>672.25</ele><time>2026-05-02T10:56:30.152Z</time></trkpt><trkpt lat="42.1930804" lon="13.6885408"><ele>673.5</ele><time>2026-05-02T10:56:31.162Z</time></trkpt><trkpt lat="42.1930537" lon="13.6883693"><ele>674.75</ele><time>2026-05-02T10:56:32.155Z</time></trkpt><trkpt lat="42.1930379" lon="13.6882222"><ele>676.0</ele><time>2026-05-02T10:56:33.155Z</time></trkpt><trkpt lat="42.193044" lon="13.6880839"><ele>676.0</ele><time>2026-05-02T10:56:34.153Z</time></trkpt><trkpt lat="42.1930677" lon="13.6879342"><ele>676.0</ele><time>2026-05-02T10:56:35.155Z</time></trkpt><trkpt lat="42.193097" lon="13.6877996"><ele>676.0</ele><time>2026-05-02T10:56:36.158Z</time></trkpt><trkpt lat="42.1931088" lon="13.6876775"><ele>676.0</ele><time>2026-05-02T10:56:37.163Z</time></trkpt><trkpt lat="42.1930924" lon="13.6875384"><ele>676.0</ele><time>2026-05-02T10:56:38.151Z</time></trkpt><trkpt lat="42.1930555" lon="13.6873995"><ele>676.1999999999999</ele><time>2026-05-02T10:56:39.156Z</time></trkpt><trkpt lat="42.1930148" lon="13.6872775"><ele>676.4</ele><time>2026-05-02T10:56:40.153Z</time></trkpt><trkpt lat="42.192977" lon="13.687171"><ele>676.6</ele><time>2026-05-02T10:56:41.153Z</time></trkpt><trkpt lat="42.1929745" lon="13.6870625"><ele>676.8</ele><time>2026-05-02T10:56:42.157Z</time></trkpt><trkpt lat="42.1929821" lon="13.6869411"><ele>677.0</ele><time>2026-05-02T10:56:43.152Z</time></trkpt><trkpt lat="42.1930071" lon="13.6867945"><ele>676.3333333333333</ele><time>2026-05-02T10:56:44.165Z</time></trkpt><trkpt lat="42.1930638" lon="13.6866059"><ele>675.6666666666666</ele><time>2026-05-02T10:56:45.157Z</time></trkpt><trkpt lat="42.1931209" lon="13.6864163"><ele>675.0</ele><time>2026-05-02T10:56:46.159Z</time></trkpt><trkpt lat="42.1931854" lon="13.6862335"><ele>675.0</ele><time>2026-05-02T10:56:47.161Z</time></trkpt><trkpt lat="42.1932173" lon="13.6860913"><ele>675.0</ele><time>2026-05-02T10:56:48.156Z</time></trkpt><trkpt lat="42.1932525" lon="13.685955"><ele>675.0</ele><time>2026-05-02T10:56:49.164Z</time></trkpt><trkpt lat="42.193275" lon="13.6858365"><ele>675.0</ele><time>2026-05-02T10:56:50.156Z</time></trkpt><trkpt lat="42.1932525" lon="13.6857077"><ele>675.0</ele><time>2026-05-02T10:56:51.16Z</time></trkpt><trkpt lat="42.1932318" lon="13.6855561"><ele>675.0</ele><time>2026-05-02T10:56:52.16Z</time></trkpt><trkpt lat="42.1932039" lon="13.6854263"><ele>675.0</ele><time>2026-05-02T10:56:53.159Z</time></trkpt><trkpt lat="42.193197" lon="13.6853145"><ele>675.0</ele><time>2026-05-02T10:56:54.161Z</time></trkpt><trkpt lat="42.1931922" lon="13.6851895"><ele>675.0</ele><time>2026-05-02T10:56:55.157Z</time></trkpt><trkpt lat="42.1932007" lon="13.685045"><ele>675.0</ele><time>2026-05-02T10:56:56.16Z</time></trkpt><trkpt lat="42.1932122" lon="13.6848925"><ele>674.75</ele><time>2026-05-02T10:56:57.155Z</time></trkpt><trkpt lat="42.1932106" lon="13.684741"><ele>674.5</ele><time>2026-05-02T10:56:58.169Z</time></trkpt><trkpt lat="42.1932004" lon="13.684584"><ele>674.25</ele><time>2026-05-02T10:56:59.154Z</time></trkpt><trkpt lat="42.193171" lon="13.6844303"><ele>674.0</ele><time>2026-05-02T10:57:00.156Z</time></trkpt><trkpt lat="42.1931345" lon="13.6842782"><ele>670.75</ele><time>2026-05-02T10:57:01.162Z</time></trkpt><trkpt lat="42.1930962" lon="13.6841275"><ele>667.5</ele><time>2026-05-02T10:57:02.162Z</time></trkpt><trkpt lat="42.1930658" lon="13.6839723"><ele>664.25</ele><time>2026-05-02T10:57:03.161Z</time></trkpt><trkpt lat="42.1930328" lon="13.6838262"><ele>661.0</ele><time>2026-05-02T10:57:04.156Z</time></trkpt><trkpt lat="42.1929947" lon="13.6836925"><ele>661.5999999999999</ele><time>2026-05-02T10:57:05.153Z</time></trkpt><trkpt lat="42.1929531" lon="13.6835665"><ele>662.2</ele><time>2026-05-02T10:57:06.157Z</time></trkpt><trkpt lat="42.1929145" lon="13.6834505"><ele>662.8</ele><time>2026-05-02T10:57:07.162Z</time></trkpt><trkpt lat="42.1928854" lon="13.683334"><ele>663.4000000000001</ele><time>2026-05-02T10:57:08.157Z</time></trkpt><trkpt lat="42.1928622" lon="13.6832008"><ele>664.0</ele><time>2026-05-02T10:57:09.16Z</time></trkpt><trkpt lat="42.1928419" lon="13.6830559"><ele>664.0</ele><time>2026-05-02T10:57:10.158Z</time></trkpt><trkpt lat="42.1928225" lon="13.6829085"><ele>664.0</ele><time>2026-05-02T10:57:11.158Z</time></trkpt><trkpt lat="42.1928055" lon="13.6827653"><ele>664.0</ele><time>2026-05-02T10:57:12.159Z</time></trkpt><trkpt lat="42.1927826" lon="13.6826344"><ele>664.0</ele><time>2026-05-02T10:57:13.154Z</time></trkpt><trkpt lat="42.1927613" lon="13.6825193"><ele>664.0</ele><time>2026-05-02T10:57:14.161Z</time></trkpt><trkpt lat="42.1927325" lon="13.682417"><ele>664.1666666666667</ele><time>2026-05-02T10:57:15.155Z</time></trkpt><trkpt lat="42.1926778" lon="13.6822805"><ele>664.3333333333334</ele><time>2026-05-02T10:57:17.153Z</time></trkpt><trkpt lat="42.1926518" lon="13.6821661"><ele>664.5</ele><time>2026-05-02T10:57:19.148Z</time></trkpt><trkpt lat="42.1926264" lon="13.6820771"><ele>664.6666666666666</ele><time>2026-05-02T10:57:21.143Z</time></trkpt><trkpt lat="42.1926458" lon="13.6819792"><ele>664.8333333333333</ele><time>2026-05-02T10:57:23.148Z</time></trkpt><trkpt lat="42.1926789" lon="13.6818989"><ele>665.0</ele><time>2026-05-02T10:57:24.154Z</time></trkpt><trkpt lat="42.192716" lon="13.6818239"><ele>665.0</ele><time>2026-05-02T10:57:25.153Z</time></trkpt><trkpt lat="42.1927409" lon="13.6817405"><ele>665.0</ele><time>2026-05-02T10:57:26.154Z</time></trkpt><trkpt lat="42.1927669" lon="13.6816592"><ele>665.0</ele><time>2026-05-02T10:57:27.146Z</time></trkpt><trkpt lat="42.1927889" lon="13.6815308"><ele>665.0</ele><time>2026-05-02T10:57:29.146Z</time></trkpt><trkpt lat="42.1927612" lon="13.6814073"><ele>665.0</ele><time>2026-05-02T10:57:31.14Z</time></trkpt><trkpt lat="42.1927582" lon="13.6813202"><ele>665.0</ele><time>2026-05-02T10:57:32.142Z</time></trkpt><trkpt lat="42.1927622" lon="13.681234"><ele>665.0</ele><time>2026-05-02T10:57:33.15Z</time></trkpt><trkpt lat="42.1927746" lon="13.6811448"><ele>665.0</ele><time>2026-05-02T10:57:34.155Z</time></trkpt><trkpt lat="42.1928444" lon="13.6810277"><ele>665.0</ele><time>2026-05-02T10:57:36.136Z</time></trkpt><trkpt lat="42.192903" lon="13.6809639"><ele>665.0</ele><time>2026-05-02T10:57:37.138Z</time></trkpt><trkpt lat="42.1929615" lon="13.6808862"><ele>665.0</ele><time>2026-05-02T10:57:38.14Z</time></trkpt><trkpt lat="42.1930128" lon="13.6808201"><ele>665.0</ele><time>2026-05-02T10:57:39.135Z</time></trkpt><trkpt lat="42.1930909" lon="13.6807275"><ele>662.8333333333333</ele><time>2026-05-02T10:57:41.135Z</time></trkpt><trkpt lat="42.1931107" lon="13.680631"><ele>660.6666666666666</ele><time>2026-05-02T10:57:43.152Z</time></trkpt><trkpt lat="42.1930814" lon="13.6805507"><ele>658.5</ele><time>2026-05-02T10:57:44.156Z</time></trkpt><trkpt lat="42.1930464" lon="13.6804464"><ele>656.3333333333334</ele><time>2026-05-02T10:57:45.149Z</time></trkpt><trkpt lat="42.1930177" lon="13.6803412"><ele>654.1666666666667</ele><time>2026-05-02T10:57:46.15Z</time></trkpt><trkpt lat="42.193002" lon="13.6802321"><ele>652.0</ele><time>2026-05-02T10:57:47.147Z</time></trkpt><trkpt lat="42.1929967" lon="13.6801397"><ele>649.2</ele><time>2026-05-02T10:57:48.147Z</time></trkpt><trkpt lat="42.1929824" lon="13.6800012"><ele>646.4000000000001</ele><time>2026-05-02T10:57:50.147Z</time></trkpt><trkpt lat="42.1929827" lon="13.6798361"><ele>643.5999999999999</ele><time>2026-05-02T10:57:52.158Z</time></trkpt><trkpt lat="42.1930106" lon="13.6797075"><ele>640.8</ele><time>2026-05-02T10:57:53.152Z</time></trkpt><trkpt lat="42.1930648" lon="13.6795687"><ele>638.0</ele><time>2026-05-02T10:57:54.147Z</time></trkpt><trkpt lat="42.1931241" lon="13.6794341"><ele>640.5</ele><time>2026-05-02T10:57:55.147Z</time></trkpt><trkpt lat="42.1931931" lon="13.6793032"><ele>643.0</ele><time>2026-05-02T10:57:56.151Z</time></trkpt><trkpt lat="42.1932685" lon="13.6791748"><ele>645.5</ele><time>2026-05-02T10:57:57.144Z</time></trkpt><trkpt lat="42.1933386" lon="13.6790584"><ele>648.0</ele><time>2026-05-02T10:57:58.148Z</time></trkpt><trkpt lat="42.1934141" lon="13.6789405"><ele>648.0</ele><time>2026-05-02T10:57:59.145Z</time></trkpt><trkpt lat="42.1934951" lon="13.6788263"><ele>648.0</ele><time>2026-05-02T10:58:00.146Z</time></trkpt><trkpt lat="42.1935834" lon="13.6787056"><ele>648.0</ele><time>2026-05-02T10:58:01.158Z</time></trkpt><trkpt lat="42.1936719" lon="13.678579"><ele>648.0</ele><time>2026-05-02T10:58:02.145Z</time></trkpt><trkpt lat="42.1937631" lon="13.6784495"><ele>649.0</ele><time>2026-05-02T10:58:03.161Z</time></trkpt><trkpt lat="42.1938592" lon="13.6783108"><ele>650.0</ele><time>2026-05-02T10:58:04.153Z</time></trkpt><trkpt lat="42.1939572" lon="13.6781639"><ele>651.0</ele><time>2026-05-02T10:58:05.156Z</time></trkpt><trkpt lat="42.1940558" lon="13.6780053"><ele>652.0</ele><time>2026-05-02T10:58:06.148Z</time></trkpt><trkpt lat="42.1941452" lon="13.6778644"><ele>649.75</ele><time>2026-05-02T10:58:07.157Z</time></trkpt><trkpt lat="42.1942261" lon="13.6777386"><ele>647.5</ele><time>2026-05-02T10:58:08.149Z</time></trkpt><trkpt lat="42.1943065" lon="13.6776143"><ele>645.25</ele><time>2026-05-02T10:58:09.154Z</time></trkpt><trkpt lat="42.1943926" lon="13.6774877"><ele>643.0</ele><time>2026-05-02T10:58:10.158Z</time></trkpt><trkpt lat="42.1944897" lon="13.6773682"><ele>643.0</ele><time>2026-05-02T10:58:11.156Z</time></trkpt><trkpt lat="42.1945814" lon="13.6772345"><ele>643.0</ele><time>2026-05-02T10:58:12.144Z</time></trkpt><trkpt lat="42.1946661" lon="13.6770796"><ele>643.0</ele><time>2026-05-02T10:58:13.148Z</time></trkpt><trkpt lat="42.1947398" lon="13.6769046"><ele>643.0</ele><time>2026-05-02T10:58:14.149Z</time></trkpt><trkpt lat="42.1948178" lon="13.6767249"><ele>642.25</ele><time>2026-05-02T10:58:15.151Z</time></trkpt><trkpt lat="42.1948785" lon="13.6765592"><ele>641.5</ele><time>2026-05-02T10:58:16.158Z</time></trkpt><trkpt lat="42.1949401" lon="13.6763871"><ele>640.75</ele><time>2026-05-02T10:58:17.152Z</time></trkpt><trkpt lat="42.1950093" lon="13.6762362"><ele>640.0</ele><time>2026-05-02T10:58:18.155Z</time></trkpt><trkpt lat="42.1950832" lon="13.6760914"><ele>640.0</ele><time>2026-05-02T10:58:19.152Z</time></trkpt><trkpt lat="42.1951494" lon="13.6759404"><ele>640.0</ele><time>2026-05-02T10:58:20.155Z</time></trkpt><trkpt lat="42.1952194" lon="13.6758066"><ele>640.0</ele><time>2026-05-02T10:58:21.153Z</time></trkpt><trkpt lat="42.1952951" lon="13.6756698"><ele>640.0</ele><time>2026-05-02T10:58:22.154Z</time></trkpt><trkpt lat="42.195401" lon="13.6755482"><ele>640.0</ele><time>2026-05-02T10:58:23.153Z</time></trkpt><trkpt lat="42.1955285" lon="13.6754194"><ele>640.0</ele><time>2026-05-02T10:58:24.158Z</time></trkpt><trkpt lat="42.1956659" lon="13.6753111"><ele>640.0</ele><time>2026-05-02T10:58:25.15Z</time></trkpt><trkpt lat="42.1958027" lon="13.6752092"><ele>639.75</ele><time>2026-05-02T10:58:26.159Z</time></trkpt><trkpt lat="42.1959312" lon="13.6751019"><ele>639.5</ele><time>2026-05-02T10:58:27.159Z</time></trkpt><trkpt lat="42.1960282" lon="13.6750019"><ele>639.25</ele><time>2026-05-02T10:58:28.161Z</time></trkpt><trkpt lat="42.1961115" lon="13.6749069"><ele>639.0</ele><time>2026-05-02T10:58:29.152Z</time></trkpt><trkpt lat="42.1961952" lon="13.6748095"><ele>639.0</ele><time>2026-05-02T10:58:30.154Z</time></trkpt><trkpt lat="42.1962609" lon="13.6747034"><ele>639.0</ele><time>2026-05-02T10:58:31.155Z</time></trkpt><trkpt lat="42.1963387" lon="13.6745732"><ele>639.0</ele><time>2026-05-02T10:58:32.157Z</time></trkpt><trkpt lat="42.1964083" lon="13.6744445"><ele>639.0</ele><time>2026-05-02T10:58:33.152Z</time></trkpt><trkpt lat="42.1964852" lon="13.6743222"><ele>638.25</ele><time>2026-05-02T10:58:34.157Z</time></trkpt><trkpt lat="42.1965686" lon="13.6741915"><ele>637.5</ele><time>2026-05-02T10:58:35.153Z</time></trkpt><trkpt lat="42.1966519" lon="13.6740537"><ele>636.75</ele><time>2026-05-02T10:58:36.157Z</time></trkpt><trkpt lat="42.196738" lon="13.6739155"><ele>636.0</ele><time>2026-05-02T10:58:37.156Z</time></trkpt><trkpt lat="42.1968339" lon="13.6737753"><ele>636.0</ele><time>2026-05-02T10:58:38.159Z</time></trkpt><trkpt lat="42.1969304" lon="13.6736254"><ele>636.0</ele><time>2026-05-02T10:58:39.155Z</time></trkpt><trkpt lat="42.1970435" lon="13.6734518"><ele>636.0</ele><time>2026-05-02T10:58:40.156Z</time></trkpt><trkpt lat="42.197142" lon="13.6732611"><ele>633.75</ele><time>2026-05-02T10:58:41.156Z</time></trkpt><trkpt lat="42.1972138" lon="13.6730783"><ele>631.5</ele><time>2026-05-02T10:58:42.157Z</time></trkpt><trkpt lat="42.1972576" lon="13.6729168"><ele>629.25</ele><time>2026-05-02T10:58:43.157Z</time></trkpt><trkpt lat="42.1972915" lon="13.6727606"><ele>627.0</ele><time>2026-05-02T10:58:44.155Z</time></trkpt><trkpt lat="42.1973326" lon="13.6726041"><ele>628.0</ele><time>2026-05-02T10:58:45.155Z</time></trkpt><trkpt lat="42.1974172" lon="13.6724747"><ele>629.0</ele><time>2026-05-02T10:58:46.162Z</time></trkpt><trkpt lat="42.1975205" lon="13.6723631"><ele>630.0</ele><time>2026-05-02T10:58:47.163Z</time></trkpt><trkpt lat="42.1976436" lon="13.6723363"><ele>631.0</ele><time>2026-05-02T10:58:48.152Z</time></trkpt><trkpt lat="42.1977873" lon="13.6723283"><ele>631.0</ele><time>2026-05-02T10:58:49.158Z</time></trkpt><trkpt lat="42.1979076" lon="13.6723452"><ele>631.0</ele><time>2026-05-02T10:58:50.147Z</time></trkpt><trkpt lat="42.198047" lon="13.6723946"><ele>631.0</ele><time>2026-05-02T10:58:51.151Z</time></trkpt><trkpt lat="42.1981787" lon="13.6724721"><ele>631.0</ele><time>2026-05-02T10:58:52.153Z</time></trkpt><trkpt lat="42.1983041" lon="13.6725457"><ele>632.5</ele><time>2026-05-02T10:58:53.153Z</time></trkpt><trkpt lat="42.1984136" lon="13.6725833"><ele>634.0</ele><time>2026-05-02T10:58:54.153Z</time></trkpt><trkpt lat="42.1985334" lon="13.6725331"><ele>635.5</ele><time>2026-05-02T10:58:55.155Z</time></trkpt><trkpt lat="42.1986458" lon="13.6724381"><ele>637.0</ele><time>2026-05-02T10:58:56.153Z</time></trkpt><trkpt lat="42.1987151" lon="13.6723363"><ele>637.0</ele><time>2026-05-02T10:58:57.143Z</time></trkpt><trkpt lat="42.1987547" lon="13.6721869"><ele>637.0</ele><time>2026-05-02T10:58:58.151Z</time></trkpt><trkpt lat="42.1987455" lon="13.6720194"><ele>637.0</ele><time>2026-05-02T10:58:59.145Z</time></trkpt><trkpt lat="42.1987175" lon="13.6718655"><ele>637.0</ele><time>2026-05-02T10:59:00.145Z</time></trkpt><trkpt lat="42.1987059" lon="13.6716954"><ele>633.0</ele><time>2026-05-02T10:59:01.147Z</time></trkpt><trkpt lat="42.1987158" lon="13.6715074"><ele>629.0</ele><time>2026-05-02T10:59:02.151Z</time></trkpt><trkpt lat="42.1987594" lon="13.6713188"><ele>625.0</ele><time>2026-05-02T10:59:03.147Z</time></trkpt><trkpt lat="42.1988308" lon="13.6711413"><ele>621.0</ele><time>2026-05-02T10:59:04.141Z</time></trkpt><trkpt lat="42.1989992" lon="13.6709813"><ele>625.3333333333334</ele><time>2026-05-02T10:59:05.144Z</time></trkpt><trkpt lat="42.1991602" lon="13.6708319"><ele>629.6666666666667</ele><time>2026-05-02T10:59:06.141Z</time></trkpt><trkpt lat="42.1992784" lon="13.6706302"><ele>634.0</ele><time>2026-05-02T10:59:07.15Z</time></trkpt><trkpt lat="42.1993682" lon="13.6704095"><ele>629.3333333333334</ele><time>2026-05-02T10:59:08.139Z</time></trkpt><trkpt lat="42.1994422" lon="13.6702025"><ele>624.6666666666666</ele><time>2026-05-02T10:59:09.135Z</time></trkpt><trkpt lat="42.1995165" lon="13.6699953"><ele>620.0</ele><time>2026-05-02T10:59:10.143Z</time></trkpt><trkpt lat="42.1996237" lon="13.669806"><ele>620.0</ele><time>2026-05-02T10:59:11.144Z</time></trkpt><trkpt lat="42.1997434" lon="13.6696351"><ele>620.0</ele><time>2026-05-02T10:59:12.147Z</time></trkpt><trkpt lat="42.1998842" lon="13.6694935"><ele>620.0</ele><time>2026-05-02T10:59:13.152Z</time></trkpt><trkpt lat="42.1999881" lon="13.6693669"><ele>622.5</ele><time>2026-05-02T10:59:14.147Z</time></trkpt><trkpt lat="42.2000754" lon="13.6692647"><ele>625.0</ele><time>2026-05-02T10:59:15.145Z</time></trkpt><trkpt lat="42.2001748" lon="13.6691586"><ele>627.5</ele><time>2026-05-02T10:59:16.148Z</time></trkpt><trkpt lat="42.200258" lon="13.6690497"><ele>630.0</ele><time>2026-05-02T10:59:17.143Z</time></trkpt><trkpt lat="42.2003289" lon="13.6689281"><ele>630.0</ele><time>2026-05-02T10:59:18.147Z</time></trkpt><trkpt lat="42.2003824" lon="13.6688057"><ele>630.0</ele><time>2026-05-02T10:59:19.144Z</time></trkpt><trkpt lat="42.2004232" lon="13.6686919"><ele>630.0</ele><time>2026-05-02T10:59:20.148Z</time></trkpt><trkpt lat="42.2004579" lon="13.668582"><ele>630.0</ele><time>2026-05-02T10:59:21.153Z</time></trkpt><trkpt lat="42.2004897" lon="13.6684916"><ele>630.0</ele><time>2026-05-02T10:59:22.162Z</time></trkpt><trkpt lat="42.2005212" lon="13.6683914"><ele>630.0</ele><time>2026-05-02T10:59:24.149Z</time></trkpt><trkpt lat="42.2004377" lon="13.6683987"><ele>630.0</ele><time>2026-05-02T10:59:27.155Z</time></trkpt><trkpt lat="42.2003661" lon="13.6684344"><ele>630.0</ele><time>2026-05-02T10:59:29.155Z</time></trkpt><trkpt lat="42.2003071" lon="13.6684773"><ele>630.0</ele><time>2026-05-02T11:00:09.16Z</time></trkpt><trkpt lat="42.2002068" lon="13.668539"><ele>630.0</ele><time>2026-05-02T11:00:11.146Z</time></trkpt><trkpt lat="42.2001405" lon="13.6686044"><ele>630.0</ele><time>2026-05-02T11:00:12.138Z</time></trkpt><trkpt lat="42.2000609" lon="13.668691"><ele>630.0</ele><time>2026-05-02T11:00:13.145Z</time></trkpt><trkpt lat="42.1999777" lon="13.6687958"><ele>630.0</ele><time>2026-05-02T11:00:14.143Z</time></trkpt><trkpt lat="42.1998997" lon="13.6688979"><ele>630.0</ele><time>2026-05-02T11:00:15.143Z</time></trkpt><trkpt lat="42.1998239" lon="13.669"><ele>630.0</ele><time>2026-05-02T11:00:16.146Z</time></trkpt><trkpt lat="42.1997531" lon="13.6691"><ele>630.0</ele><time>2026-05-02T11:00:17.136Z</time></trkpt><trkpt lat="42.1996874" lon="13.6691928"><ele>630.0</ele><time>2026-05-02T11:00:18.135Z</time></trkpt><trkpt lat="42.1996242" lon="13.669275"><ele>628.3333333333334</ele><time>2026-05-02T11:00:19.133Z</time></trkpt><trkpt lat="42.1995746" lon="13.6693572"><ele>626.6666666666666</ele><time>2026-05-02T11:00:20.138Z</time></trkpt><trkpt lat="42.1995381" lon="13.6694382"><ele>625.0</ele><time>2026-05-02T11:00:21.135Z</time></trkpt><trkpt lat="42.1994667" lon="13.6695368"><ele>623.3333333333333</ele><time>2026-05-02T11:00:23.14Z</time></trkpt><trkpt lat="42.1993844" lon="13.6695505"><ele>621.6666666666666</ele><time>2026-05-02T11:00:25.145Z</time></trkpt><trkpt lat="42.1993519" lon="13.6694349"><ele>620.0</ele><time>2026-05-02T11:00:27.138Z</time></trkpt><trkpt lat="42.1993587" lon="13.6693373"><ele>616.5</ele><time>2026-05-02T11:00:28.133Z</time></trkpt><trkpt lat="42.1993811" lon="13.6692037"><ele>613.0</ele><time>2026-05-02T11:00:29.141Z</time></trkpt><trkpt lat="42.1994169" lon="13.6690354"><ele>609.5</ele><time>2026-05-02T11:00:30.135Z</time></trkpt><trkpt lat="42.1994435" lon="13.6688743"><ele>606.0</ele><time>2026-05-02T11:00:31.133Z</time></trkpt><trkpt lat="42.1994531" lon="13.6687077"><ele>605.0</ele><time>2026-05-02T11:00:32.136Z</time></trkpt><trkpt lat="42.1994399" lon="13.6685395"><ele>604.0</ele><time>2026-05-02T11:00:33.138Z</time></trkpt><trkpt lat="42.1994119" lon="13.6683651"><ele>603.0</ele><time>2026-05-02T11:00:34.152Z</time></trkpt><trkpt lat="42.1993759" lon="13.668203"><ele>602.0</ele><time>2026-05-02T11:00:35.147Z</time></trkpt><trkpt lat="42.1993395" lon="13.6680571"><ele>602.0</ele><time>2026-05-02T11:00:36.146Z</time></trkpt><trkpt lat="42.1993055" lon="13.667923"><ele>602.0</ele><time>2026-05-02T11:00:37.145Z</time></trkpt><trkpt lat="42.199276" lon="13.6677913"><ele>602.0</ele><time>2026-05-02T11:00:38.147Z</time></trkpt><trkpt lat="42.1992522" lon="13.6676663"><ele>602.0</ele><time>2026-05-02T11:00:39.143Z</time></trkpt><trkpt lat="42.199231" lon="13.6675587"><ele>602.0</ele><time>2026-05-02T11:00:40.142Z</time></trkpt><trkpt lat="42.199201" lon="13.667437"><ele>603.0</ele><time>2026-05-02T11:00:42.15Z</time></trkpt><trkpt lat="42.1991541" lon="13.6673538"><ele>604.0</ele><time>2026-05-02T11:01:01.154Z</time></trkpt><trkpt lat="42.1991123" lon="13.6672555"><ele>605.0</ele><time>2026-05-02T11:01:03.146Z</time></trkpt><trkpt lat="42.1990889" lon="13.6671331"><ele>606.0</ele><time>2026-05-02T11:01:05.153Z</time></trkpt><trkpt lat="42.1990801" lon="13.6670478"><ele>607.0</ele><time>2026-05-02T11:01:06.146Z</time></trkpt><trkpt lat="42.1990926" lon="13.6668905"><ele>608.0</ele><time>2026-05-02T11:01:08.149Z</time></trkpt><trkpt lat="42.1991526" lon="13.6668182"><ele>608.1666666666666</ele><time>2026-05-02T11:01:10.146Z</time></trkpt><trkpt lat="42.1992415" lon="13.6668245"><ele>608.3333333333333</ele><time>2026-05-02T11:01:12.147Z</time></trkpt><trkpt lat="42.1992327" lon="13.6666729"><ele>608.5</ele><time>2026-05-02T11:01:17.144Z</time></trkpt><trkpt lat="42.1992135" lon="13.6665638"><ele>608.6666666666666</ele><time>2026-05-02T11:01:18.155Z</time></trkpt><trkpt lat="42.1992018" lon="13.6664531"><ele>608.8333333333334</ele><time>2026-05-02T11:01:19.149Z</time></trkpt><trkpt lat="42.1991995" lon="13.6663547"><ele>609.0</ele><time>2026-05-02T11:01:20.147Z</time></trkpt><trkpt lat="42.1991998" lon="13.666244"><ele>609.0</ele><time>2026-05-02T11:01:21.147Z</time></trkpt><trkpt lat="42.1992227" lon="13.6661213"><ele>609.0</ele><time>2026-05-02T11:01:22.146Z</time></trkpt><trkpt lat="42.1992548" lon="13.6660028"><ele>609.0</ele><time>2026-05-02T11:01:23.155Z</time></trkpt><trkpt lat="42.1993015" lon="13.6658917"><ele>609.0</ele><time>2026-05-02T11:01:24.151Z</time></trkpt><trkpt lat="42.1993491" lon="13.6657979"><ele>609.0</ele><time>2026-05-02T11:01:25.151Z</time></trkpt><trkpt lat="42.1994064" lon="13.6657188"><ele>609.0</ele><time>2026-05-02T11:01:26.159Z</time></trkpt><trkpt lat="42.1994699" lon="13.6656437"><ele>608.2</ele><time>2026-05-02T11:01:27.153Z</time></trkpt><trkpt lat="42.1995415" lon="13.6655551"><ele>607.4</ele><time>2026-05-02T11:01:28.156Z</time></trkpt><trkpt lat="42.1996111" lon="13.6654516"><ele>606.6</ele><time>2026-05-02T11:01:29.158Z</time></trkpt><trkpt lat="42.1996718" lon="13.6653592"><ele>605.8</ele><time>2026-05-02T11:01:30.153Z</time></trkpt><trkpt lat="42.199725" lon="13.6652753"><ele>605.0</ele><time>2026-05-02T11:01:31.157Z</time></trkpt><trkpt lat="42.1997855" lon="13.6651996"><ele>605.0</ele><time>2026-05-02T11:01:32.152Z</time></trkpt><trkpt lat="42.1998527" lon="13.6651234"><ele>605.0</ele><time>2026-05-02T11:01:33.157Z</time></trkpt><trkpt lat="42.1999203" lon="13.6650557"><ele>605.0</ele><time>2026-05-02T11:01:34.163Z</time></trkpt><trkpt lat="42.1999793" lon="13.6650055"><ele>605.0</ele><time>2026-05-02T11:01:35.148Z</time></trkpt><trkpt lat="42.200053" lon="13.6649497"><ele>605.0</ele><time>2026-05-02T11:01:37.156Z</time></trkpt><trkpt lat="42.200111" lon="13.664885"><ele>605.0</ele><time>2026-05-02T11:01:39.143Z</time></trkpt><trkpt lat="42.2001707" lon="13.6648368"><ele>605.0</ele><time>2026-05-02T11:01:40.147Z</time></trkpt><trkpt lat="42.200247" lon="13.6648034"><ele>605.0</ele><time>2026-05-02T11:01:41.145Z</time></trkpt><trkpt lat="42.2003163" lon="13.6647765"><ele>605.0</ele><time>2026-05-02T11:01:42.154Z</time></trkpt><trkpt lat="42.2003839" lon="13.6647505"><ele>605.0</ele><time>2026-05-02T11:01:43.143Z</time></trkpt><trkpt lat="42.2004513" lon="13.6647151"><ele>605.0</ele><time>2026-05-02T11:01:44.151Z</time></trkpt><trkpt lat="42.2005181" lon="13.6646831"><ele>605.0</ele><time>2026-05-02T11:01:45.152Z</time></trkpt><trkpt lat="42.2005859" lon="13.6646377"><ele>605.0</ele><time>2026-05-02T11:01:46.149Z</time></trkpt><trkpt lat="42.2006486" lon="13.6645938"><ele>604.1666666666666</ele><time>2026-05-02T11:01:47.152Z</time></trkpt><trkpt lat="42.2007047" lon="13.6645531"><ele>603.3333333333333</ele><time>2026-05-02T11:01:48.155Z</time></trkpt><trkpt lat="42.2007636" lon="13.6645181"><ele>602.5</ele><time>2026-05-02T11:01:49.151Z</time></trkpt><trkpt lat="42.2008643" lon="13.6644333"><ele>601.6666666666666</ele><time>2026-05-02T11:01:51.147Z</time></trkpt><trkpt lat="42.2009089" lon="13.664371"><ele>600.8333333333334</ele><time>2026-05-02T11:01:52.145Z</time></trkpt><trkpt lat="42.2009639" lon="13.6642987"><ele>600.0</ele><time>2026-05-02T11:01:53.152Z</time></trkpt><trkpt lat="42.2010244" lon="13.664222"><ele>597.5</ele><time>2026-05-02T11:01:54.147Z</time></trkpt><trkpt lat="42.2010854" lon="13.6641488"><ele>595.0</ele><time>2026-05-02T11:01:55.147Z</time></trkpt><trkpt lat="42.2011426" lon="13.6640881"><ele>592.5</ele><time>2026-05-02T11:01:56.159Z</time></trkpt><trkpt lat="42.2012089" lon="13.6640456"><ele>590.0</ele><time>2026-05-02T11:01:57.144Z</time></trkpt><trkpt lat="42.2012907" lon="13.6640171"><ele>587.5</ele><time>2026-05-02T11:01:58.149Z</time></trkpt><trkpt lat="42.2013811" lon="13.6639929"><ele>585.0</ele><time>2026-05-02T11:01:59.149Z</time></trkpt><trkpt lat="42.2014887" lon="13.6639641"><ele>584.2</ele><time>2026-05-02T11:02:00.147Z</time></trkpt><trkpt lat="42.201595" lon="13.663932"><ele>583.4</ele><time>2026-05-02T11:02:01.147Z</time></trkpt><trkpt lat="42.2016927" lon="13.663912"><ele>582.6</ele><time>2026-05-02T11:02:02.147Z</time></trkpt><trkpt lat="42.2017836" lon="13.6638869"><ele>581.8</ele><time>2026-05-02T11:02:03.155Z</time></trkpt><trkpt lat="42.2018584" lon="13.6638651"><ele>581.0</ele><time>2026-05-02T11:02:04.151Z</time></trkpt><trkpt lat="42.2019316" lon="13.663819"><ele>581.0</ele><time>2026-05-02T11:02:06.148Z</time></trkpt><trkpt lat="42.2019694" lon="13.6637134"><ele>581.0</ele><time>2026-05-02T11:02:08.144Z</time></trkpt><trkpt lat="42.2020246" lon="13.663583"><ele>581.0</ele><time>2026-05-02T11:02:10.141Z</time></trkpt><trkpt lat="42.2020572" lon="13.6635039"><ele>581.0</ele><time>2026-05-02T11:02:11.142Z</time></trkpt><trkpt lat="42.2020984" lon="13.6634081"><ele>581.0</ele><time>2026-05-02T11:02:12.145Z</time></trkpt><trkpt lat="42.2021469" lon="13.6633112"><ele>581.0</ele><time>2026-05-02T11:02:13.144Z</time></trkpt><trkpt lat="42.2021951" lon="13.6632119"><ele>580.0</ele><time>2026-05-02T11:02:14.148Z</time></trkpt><trkpt lat="42.2022431" lon="13.6631061"><ele>579.0</ele><time>2026-05-02T11:02:15.149Z</time></trkpt><trkpt lat="42.2022931" lon="13.6629886"><ele>578.0</ele><time>2026-05-02T11:02:16.153Z</time></trkpt><trkpt lat="42.2023405" lon="13.6628621"><ele>577.0</ele><time>2026-05-02T11:02:17.153Z</time></trkpt><trkpt lat="42.2023736" lon="13.6627253"><ele>576.0</ele><time>2026-05-02T11:02:18.152Z</time></trkpt><trkpt lat="42.2024058" lon="13.6625863"><ele>574.6</ele><time>2026-05-02T11:02:19.152Z</time></trkpt><trkpt lat="42.2024393" lon="13.6624521"><ele>573.2</ele><time>2026-05-02T11:02:20.153Z</time></trkpt><trkpt lat="42.2024774" lon="13.6623141"><ele>571.8</ele><time>2026-05-02T11:02:21.15Z</time></trkpt><trkpt lat="42.2025202" lon="13.662174"><ele>570.4</ele><time>2026-05-02T11:02:22.152Z</time></trkpt><trkpt lat="42.2025641" lon="13.6620299"><ele>569.0</ele><time>2026-05-02T11:02:23.155Z</time></trkpt><trkpt lat="42.2026038" lon="13.6618886"><ele>568.2</ele><time>2026-05-02T11:02:24.146Z</time></trkpt><trkpt lat="42.2026299" lon="13.6617564"><ele>567.4</ele><time>2026-05-02T11:02:25.155Z</time></trkpt><trkpt lat="42.2026515" lon="13.6616333"><ele>566.6</ele><time>2026-05-02T11:02:26.155Z</time></trkpt><trkpt lat="42.2026759" lon="13.6615093"><ele>565.8</ele><time>2026-05-02T11:02:27.146Z</time></trkpt><trkpt lat="42.2027087" lon="13.6613989"><ele>565.0</ele><time>2026-05-02T11:02:28.147Z</time></trkpt><trkpt lat="42.202751" lon="13.6612978"><ele>565.0</ele><time>2026-05-02T11:02:29.149Z</time></trkpt><trkpt lat="42.2027998" lon="13.6611835"><ele>565.0</ele><time>2026-05-02T11:02:30.145Z</time></trkpt><trkpt lat="42.2028436" lon="13.661069"><ele>565.0</ele><time>2026-05-02T11:02:31.152Z</time></trkpt><trkpt lat="42.2028806" lon="13.6609577"><ele>565.0</ele><time>2026-05-02T11:02:32.15Z</time></trkpt><trkpt lat="42.2029082" lon="13.6608494"><ele>565.0</ele><time>2026-05-02T11:02:33.145Z</time></trkpt><trkpt lat="42.2029346" lon="13.6607501"><ele>565.0</ele><time>2026-05-02T11:02:34.15Z</time></trkpt><trkpt lat="42.2029528" lon="13.6606509"><ele>564.4285714285713</ele><time>2026-05-02T11:02:35.145Z</time></trkpt><trkpt lat="42.2029717" lon="13.66056"><ele>563.8571428571429</ele><time>2026-05-02T11:02:36.151Z</time></trkpt><trkpt lat="42.2029836" lon="13.6604647"><ele>563.2857142857142</ele><time>2026-05-02T11:02:37.147Z</time></trkpt><trkpt lat="42.2029939" lon="13.660369"><ele>562.7142857142857</ele><time>2026-05-02T11:02:38.143Z</time></trkpt><trkpt lat="42.2030072" lon="13.6602757"><ele>562.1428571428571</ele><time>2026-05-02T11:02:39.142Z</time></trkpt><trkpt lat="42.203029" lon="13.6601717"><ele>561.5714285714286</ele><time>2026-05-02T11:02:40.152Z</time></trkpt><trkpt lat="42.2030532" lon="13.6600671"><ele>561.0</ele><time>2026-05-02T11:02:41.143Z</time></trkpt><trkpt lat="42.2030817" lon="13.6599608"><ele>560.1666666666666</ele><time>2026-05-02T11:02:42.144Z</time></trkpt><trkpt lat="42.2031214" lon="13.6598498"><ele>559.3333333333334</ele><time>2026-05-02T11:02:43.144Z</time></trkpt><trkpt lat="42.2031663" lon="13.6597371"><ele>558.5</ele><time>2026-05-02T11:02:44.149Z</time></trkpt><trkpt lat="42.2032037" lon="13.6596276"><ele>557.6666666666667</ele><time>2026-05-02T11:02:45.15Z</time></trkpt><trkpt lat="42.2032369" lon="13.6595253"><ele>556.8333333333334</ele><time>2026-05-02T11:02:46.15Z</time></trkpt><trkpt lat="42.2032774" lon="13.65942"><ele>556.0</ele><time>2026-05-02T11:02:47.146Z</time></trkpt><trkpt lat="42.2033146" lon="13.659319"><ele>553.6</ele><time>2026-05-02T11:02:48.152Z</time></trkpt><trkpt lat="42.2033466" lon="13.65922"><ele>551.2</ele><time>2026-05-02T11:02:49.149Z</time></trkpt><trkpt lat="42.2033826" lon="13.659128"><ele>548.8</ele><time>2026-05-02T11:02:50.15Z</time></trkpt><trkpt lat="42.2034182" lon="13.6590526"><ele>546.4</ele><time>2026-05-02T11:02:51.144Z</time></trkpt><trkpt lat="42.2034837" lon="13.6589232"><ele>544.0</ele><time>2026-05-02T11:02:53.144Z</time></trkpt><trkpt lat="42.2035416" lon="13.6587911"><ele>544.0</ele><time>2026-05-02T11:02:55.153Z</time></trkpt><trkpt lat="42.2035918" lon="13.6586796"><ele>544.0</ele><time>2026-05-02T11:02:57.146Z</time></trkpt><trkpt lat="42.2036286" lon="13.6585883"><ele>544.0</ele><time>2026-05-02T11:03:02.149Z</time></trkpt><trkpt lat="42.2035732" lon="13.6585057"><ele>544.0</ele><time>2026-05-02T11:03:04.148Z</time></trkpt><trkpt lat="42.2035084" lon="13.6584813"><ele>544.0</ele><time>2026-05-02T11:03:05.15Z</time></trkpt><trkpt lat="42.203435" lon="13.6584504"><ele>544.0</ele><time>2026-05-02T11:03:06.149Z</time></trkpt><trkpt lat="42.2033602" lon="13.6584231"><ele>541.6</ele><time>2026-05-02T11:03:07.155Z</time></trkpt><trkpt lat="42.2032797" lon="13.6583977"><ele>539.2</ele><time>2026-05-02T11:03:08.15Z</time></trkpt><trkpt lat="42.203198" lon="13.6583749"><ele>536.8000000000001</ele><time>2026-05-02T11:03:09.149Z</time></trkpt><trkpt lat="42.2031044" lon="13.658348"><ele>534.4</ele><time>2026-05-02T11:03:10.148Z</time></trkpt><trkpt lat="42.2030027" lon="13.6583045"><ele>532.0</ele><time>2026-05-02T11:03:11.141Z</time></trkpt><trkpt lat="42.2028955" lon="13.6582362"><ele>531.75</ele><time>2026-05-02T11:03:12.142Z</time></trkpt><trkpt lat="42.2027823" lon="13.6581328"><ele>531.5</ele><time>2026-05-02T11:03:13.14Z</time></trkpt><trkpt lat="42.2026622" lon="13.6580069"><ele>531.25</ele><time>2026-05-02T11:03:14.146Z</time></trkpt><trkpt lat="42.2025327" lon="13.6578784"><ele>531.0</ele><time>2026-05-02T11:03:15.148Z</time></trkpt><trkpt lat="42.2023875" lon="13.6577188"><ele>527.5</ele><time>2026-05-02T11:03:16.148Z</time></trkpt><trkpt lat="42.2022626" lon="13.6576187"><ele>524.0</ele><time>2026-05-02T11:03:17.144Z</time></trkpt><trkpt lat="42.2021321" lon="13.6575118"><ele>520.5</ele><time>2026-05-02T11:03:18.14Z</time></trkpt><trkpt lat="42.2020053" lon="13.6574673"><ele>517.0</ele><time>2026-05-02T11:03:19.146Z</time></trkpt><trkpt lat="42.2018634" lon="13.6574486"><ele>517.0</ele><time>2026-05-02T11:03:20.15Z</time></trkpt><trkpt lat="42.2017148" lon="13.6574631"><ele>517.0</ele><time>2026-05-02T11:03:21.147Z</time></trkpt><trkpt lat="42.201554" lon="13.6574843"><ele>517.0</ele><time>2026-05-02T11:03:22.151Z</time></trkpt><trkpt lat="42.2013956" lon="13.6575132"><ele>517.75</ele><time>2026-05-02T11:03:23.152Z</time></trkpt><trkpt lat="42.2012519" lon="13.657561"><ele>518.5</ele><time>2026-05-02T11:03:24.149Z</time></trkpt><trkpt lat="42.2011237" lon="13.6576378"><ele>519.25</ele><time>2026-05-02T11:03:25.144Z</time></trkpt><trkpt lat="42.2010056" lon="13.6577562"><ele>520.0</ele><time>2026-05-02T11:03:26.151Z</time></trkpt><trkpt lat="42.2009153" lon="13.6578914"><ele>520.0</ele><time>2026-05-02T11:03:27.137Z</time></trkpt><trkpt lat="42.2008147" lon="13.6580134"><ele>520.0</ele><time>2026-05-02T11:03:28.145Z</time></trkpt><trkpt lat="42.2007129" lon="13.6581224"><ele>520.0</ele><time>2026-05-02T11:03:29.141Z</time></trkpt><trkpt lat="42.2005882" lon="13.6582135"><ele>520.0</ele><time>2026-05-02T11:03:30.128Z</time></trkpt><trkpt lat="42.2004502" lon="13.6582638"><ele>516.0</ele><time>2026-05-02T11:03:31.142Z</time></trkpt><trkpt lat="42.2002809" lon="13.6582872"><ele>512.0</ele><time>2026-05-02T11:03:32.135Z</time></trkpt><trkpt lat="42.2001022" lon="13.6583025"><ele>508.0</ele><time>2026-05-02T11:03:33.142Z</time></trkpt><trkpt lat="42.1999351" lon="13.6583351"><ele>505.33333333333337</ele><time>2026-05-02T11:03:34.142Z</time></trkpt><trkpt lat="42.1997808" lon="13.6583748"><ele>502.66666666666663</ele><time>2026-05-02T11:03:35.144Z</time></trkpt><trkpt lat="42.1996309" lon="13.6584517"><ele>500.0</ele><time>2026-05-02T11:03:36.139Z</time></trkpt><trkpt lat="42.1995022" lon="13.6585613"><ele>502.66666666666663</ele><time>2026-05-02T11:03:37.137Z</time></trkpt><trkpt lat="42.1993622" lon="13.6586853"><ele>505.33333333333337</ele><time>2026-05-02T11:03:38.143Z</time></trkpt><trkpt lat="42.1992285" lon="13.6588215"><ele>508.0</ele><time>2026-05-02T11:03:39.143Z</time></trkpt><trkpt lat="42.1991003" lon="13.6589684"><ele>505.25</ele><time>2026-05-02T11:03:40.14Z</time></trkpt><trkpt lat="42.1989856" lon="13.6590801"><ele>502.5</ele><time>2026-05-02T11:03:41.149Z</time></trkpt><trkpt lat="42.1988793" lon="13.659181"><ele>499.75</ele><time>2026-05-02T11:03:42.139Z</time></trkpt><trkpt lat="42.1987793" lon="13.6592403"><ele>497.0</ele><time>2026-05-02T11:03:43.147Z</time></trkpt><trkpt lat="42.1986732" lon="13.6592614"><ele>497.0</ele><time>2026-05-02T11:03:44.144Z</time></trkpt><trkpt lat="42.1985668" lon="13.6592543"><ele>497.00000000000006</ele><time>2026-05-02T11:03:45.143Z</time></trkpt><trkpt lat="42.1984599" lon="13.6592192"><ele>497.00000000000006</ele><time>2026-05-02T11:03:46.142Z</time></trkpt><trkpt lat="42.1983713" lon="13.6591893"><ele>497.0</ele><time>2026-05-02T11:03:47.146Z</time></trkpt><trkpt lat="42.1982779" lon="13.6591488"><ele>497.0</ele><time>2026-05-02T11:03:48.145Z</time></trkpt><trkpt lat="42.1982003" lon="13.6591099"><ele>496.6</ele><time>2026-05-02T11:03:49.154Z</time></trkpt><trkpt lat="42.1981367" lon="13.6590409"><ele>496.20000000000005</ele><time>2026-05-02T11:03:50.151Z</time></trkpt><trkpt lat="42.1980949" lon="13.6589338"><ele>495.8</ele><time>2026-05-02T11:03:51.158Z</time></trkpt><trkpt lat="42.1980737" lon="13.6587908"><ele>495.4</ele><time>2026-05-02T11:03:52.151Z</time></trkpt><trkpt lat="42.198045" lon="13.6586328"><ele>495.0</ele><time>2026-05-02T11:03:53.154Z</time></trkpt><trkpt lat="42.1979914" lon="13.6584617"><ele>494.0</ele><time>2026-05-02T11:03:54.143Z</time></trkpt><trkpt lat="42.1979151" lon="13.6582867"><ele>493.0</ele><time>2026-05-02T11:03:55.146Z</time></trkpt><trkpt lat="42.1978032" lon="13.6580939"><ele>492.0</ele><time>2026-05-02T11:03:56.151Z</time></trkpt><trkpt lat="42.1976967" lon="13.657914"><ele>492.33333333333337</ele><time>2026-05-02T11:03:57.144Z</time></trkpt><trkpt lat="42.1975786" lon="13.6577298"><ele>492.6666666666667</ele><time>2026-05-02T11:03:58.155Z</time></trkpt><trkpt lat="42.1974489" lon="13.6575409"><ele>493.0</ele><time>2026-05-02T11:03:59.159Z</time></trkpt><trkpt lat="42.1973082" lon="13.6573574"><ele>493.0</ele><time>2026-05-02T11:04:00.156Z</time></trkpt><trkpt lat="42.1971872" lon="13.6571599"><ele>493.0</ele><time>2026-05-02T11:04:01.158Z</time></trkpt><trkpt lat="42.197053" lon="13.6569668"><ele>493.0</ele><time>2026-05-02T11:04:02.158Z</time></trkpt><trkpt lat="42.196921" lon="13.6567526"><ele>493.0</ele><time>2026-05-02T11:04:03.156Z</time></trkpt><trkpt lat="42.1967957" lon="13.6565781"><ele>493.0</ele><time>2026-05-02T11:04:04.158Z</time></trkpt><trkpt lat="42.19668" lon="13.65639"><ele>493.0</ele><time>2026-05-02T11:04:05.155Z</time></trkpt><trkpt lat="42.1965727" lon="13.6561932"><ele>495.6666666666667</ele><time>2026-05-02T11:04:06.15Z</time></trkpt><trkpt lat="42.1964513" lon="13.6559963"><ele>498.33333333333337</ele><time>2026-05-02T11:04:07.152Z</time></trkpt><trkpt lat="42.1963267" lon="13.6558075"><ele>501.0</ele><time>2026-05-02T11:04:08.154Z</time></trkpt><trkpt lat="42.1961992" lon="13.6556097"><ele>501.0</ele><time>2026-05-02T11:04:09.161Z</time></trkpt><trkpt lat="42.1960723" lon="13.6554191"><ele>501.0</ele><time>2026-05-02T11:04:10.157Z</time></trkpt><trkpt lat="42.1959538" lon="13.6552154"><ele>501.0</ele><time>2026-05-02T11:04:11.151Z</time></trkpt><trkpt lat="42.1958407" lon="13.6550513"><ele>502.33333333333337</ele><time>2026-05-02T11:04:12.151Z</time></trkpt><trkpt lat="42.1957581" lon="13.6548893"><ele>503.6666666666667</ele><time>2026-05-02T11:04:13.156Z</time></trkpt><trkpt lat="42.1957" lon="13.6547132"><ele>505.0</ele><time>2026-05-02T11:04:14.148Z</time></trkpt><trkpt lat="42.1956444" lon="13.6544878"><ele>507.0</ele><time>2026-05-02T11:04:15.145Z</time></trkpt><trkpt lat="42.1956125" lon="13.654252"><ele>509.0</ele><time>2026-05-02T11:04:16.14Z</time></trkpt><trkpt lat="42.1956334" lon="13.6540245"><ele>511.0</ele><time>2026-05-02T11:04:17.143Z</time></trkpt><trkpt lat="42.1956853" lon="13.6538034"><ele>514.3333333333334</ele><time>2026-05-02T11:04:18.143Z</time></trkpt><trkpt lat="42.1957497" lon="13.6535775"><ele>517.6666666666666</ele><time>2026-05-02T11:04:19.147Z</time></trkpt><trkpt lat="42.1958088" lon="13.6533387"><ele>521.0</ele><time>2026-05-02T11:04:20.15Z</time></trkpt><trkpt lat="42.1958518" lon="13.6530961"><ele>521.0</ele><time>2026-05-02T11:04:21.14Z</time></trkpt><trkpt lat="42.1958895" lon="13.652852"><ele>521.0</ele><time>2026-05-02T11:04:22.156Z</time></trkpt><trkpt lat="42.1959269" lon="13.6525958"><ele>521.0</ele><time>2026-05-02T11:04:23.147Z</time></trkpt><trkpt lat="42.1959675" lon="13.6523168"><ele>522.6666666666666</ele><time>2026-05-02T11:04:24.151Z</time></trkpt><trkpt lat="42.1960257" lon="13.6520459"><ele>524.3333333333334</ele><time>2026-05-02T11:04:25.145Z</time></trkpt><trkpt lat="42.1960794" lon="13.6517849"><ele>526.0</ele><time>2026-05-02T11:04:26.153Z</time></trkpt><trkpt lat="42.1961126" lon="13.651524"><ele>527.6666666666667</ele><time>2026-05-02T11:04:27.145Z</time></trkpt><trkpt lat="42.1961592" lon="13.651266"><ele>529.3333333333334</ele><time>2026-05-02T11:04:28.15Z</time></trkpt><trkpt lat="42.196226" lon="13.6510128"><ele>531.0</ele><time>2026-05-02T11:04:29.161Z</time></trkpt><trkpt lat="42.1962792" lon="13.6507692"><ele>532.3333333333334</ele><time>2026-05-02T11:04:30.158Z</time></trkpt><trkpt lat="42.1963217" lon="13.650554"><ele>533.6666666666667</ele><time>2026-05-02T11:04:31.158Z</time></trkpt><trkpt lat="42.196341" lon="13.6503477"><ele>535.0</ele><time>2026-05-02T11:04:32.162Z</time></trkpt><trkpt lat="42.1963645" lon="13.6501018"><ele>537.3333333333334</ele><time>2026-05-02T11:04:33.156Z</time></trkpt><trkpt lat="42.196399" lon="13.6498748"><ele>539.6666666666666</ele><time>2026-05-02T11:04:34.159Z</time></trkpt><trkpt lat="42.1964341" lon="13.649659"><ele>542.0</ele><time>2026-05-02T11:04:35.168Z</time></trkpt><trkpt lat="42.1964523" lon="13.6494455"><ele>542.6666666666666</ele><time>2026-05-02T11:04:36.166Z</time></trkpt><trkpt lat="42.1964746" lon="13.6492333"><ele>543.3333333333334</ele><time>2026-05-02T11:04:37.168Z</time></trkpt><trkpt lat="42.1965101" lon="13.6490289"><ele>544.0</ele><time>2026-05-02T11:04:38.165Z</time></trkpt><trkpt lat="42.1965471" lon="13.6488454"><ele>544.0</ele><time>2026-05-02T11:04:39.166Z</time></trkpt><trkpt lat="42.1965764" lon="13.6486631"><ele>544.0</ele><time>2026-05-02T11:04:40.151Z</time></trkpt><trkpt lat="42.1966097" lon="13.6485011"><ele>544.0</ele><time>2026-05-02T11:04:41.159Z</time></trkpt><trkpt lat="42.1966535" lon="13.6483522"><ele>544.0</ele><time>2026-05-02T11:04:42.145Z</time></trkpt><trkpt lat="42.1966737" lon="13.6482274"><ele>544.6</ele><time>2026-05-02T11:04:43.138Z</time></trkpt><trkpt lat="42.1967007" lon="13.648107"><ele>545.2</ele><time>2026-05-02T11:04:44.143Z</time></trkpt><trkpt lat="42.1966417" lon="13.6479673"><ele>545.8000000000001</ele><time>2026-05-02T11:04:46.146Z</time></trkpt><trkpt lat="42.1965863" lon="13.6479103"><ele>546.4</ele><time>2026-05-02T11:04:47.151Z</time></trkpt><trkpt lat="42.1964739" lon="13.6478712"><ele>547.0</ele><time>2026-05-02T11:04:49.144Z</time></trkpt><trkpt lat="42.1963506" lon="13.6479151"><ele>549.75</ele><time>2026-05-02T11:04:51.148Z</time></trkpt><trkpt lat="42.1962646" lon="13.6479925"><ele>552.5</ele><time>2026-05-02T11:04:52.146Z</time></trkpt><trkpt lat="42.1961772" lon="13.6480982"><ele>555.25</ele><time>2026-05-02T11:04:53.144Z</time></trkpt><trkpt lat="42.1960888" lon="13.6482267"><ele>558.0</ele><time>2026-05-02T11:04:54.138Z</time></trkpt><trkpt lat="42.1959823" lon="13.6483563"><ele>558.0</ele><time>2026-05-02T11:04:55.143Z</time></trkpt><trkpt lat="42.1958619" lon="13.6484742"><ele>558.0</ele><time>2026-05-02T11:04:56.142Z</time></trkpt><trkpt lat="42.1956901" lon="13.6485653"><ele>558.0</ele><time>2026-05-02T11:04:57.142Z</time></trkpt><trkpt lat="42.1955" lon="13.6486416"><ele>561.6666666666666</ele><time>2026-05-02T11:04:58.143Z</time></trkpt><trkpt lat="42.1953373" lon="13.6487216"><ele>565.3333333333333</ele><time>2026-05-02T11:04:59.141Z</time></trkpt><trkpt lat="42.1951995" lon="13.6488342"><ele>569.0</ele><time>2026-05-02T11:05:00.134Z</time></trkpt><trkpt lat="42.1950888" lon="13.6490058"><ele>569.0</ele><time>2026-05-02T11:05:01.143Z</time></trkpt><trkpt lat="42.1949917" lon="13.6491872"><ele>569.0</ele><time>2026-05-02T11:05:02.135Z</time></trkpt><trkpt lat="42.1949169" lon="13.6493775"><ele>569.0</ele><time>2026-05-02T11:05:03.133Z</time></trkpt><trkpt lat="42.1948351" lon="13.6495832"><ele>573.0</ele><time>2026-05-02T11:05:04.142Z</time></trkpt><trkpt lat="42.1947511" lon="13.6497861"><ele>577.0</ele><time>2026-05-02T11:05:05.138Z</time></trkpt><trkpt lat="42.1946527" lon="13.6499177"><ele>581.0</ele><time>2026-05-02T11:05:06.138Z</time></trkpt><trkpt lat="42.1945715" lon="13.6500516"><ele>585.0</ele><time>2026-05-02T11:05:07.134Z</time></trkpt><trkpt lat="42.1944319" lon="13.6501454"><ele>585.0</ele><time>2026-05-02T11:05:08.138Z</time></trkpt><trkpt lat="42.1942735" lon="13.6502551"><ele>585.0</ele><time>2026-05-02T11:05:09.14Z</time></trkpt><trkpt lat="42.1941049" lon="13.6503772"><ele>585.0</ele><time>2026-05-02T11:05:10.142Z</time></trkpt><trkpt lat="42.193943" lon="13.6504904"><ele>587.3333333333334</ele><time>2026-05-02T11:05:11.14Z</time></trkpt><trkpt lat="42.193776" lon="13.6506228"><ele>589.6666666666667</ele><time>2026-05-02T11:05:12.143Z</time></trkpt><trkpt lat="42.193632" lon="13.6507602"><ele>592.0</ele><time>2026-05-02T11:05:13.138Z</time></trkpt><trkpt lat="42.1934744" lon="13.6509093"><ele>592.0</ele><time>2026-05-02T11:05:14.139Z</time></trkpt><trkpt lat="42.193372" lon="13.6510807"><ele>592.0</ele><time>2026-05-02T11:05:15.13Z</time></trkpt><trkpt lat="42.1932962" lon="13.6512618"><ele>592.0</ele><time>2026-05-02T11:05:16.137Z</time></trkpt><trkpt lat="42.1932125" lon="13.6514582"><ele>590.75</ele><time>2026-05-02T11:05:17.137Z</time></trkpt><trkpt lat="42.1931742" lon="13.6516143"><ele>589.5</ele><time>2026-05-02T11:05:18.137Z</time></trkpt><trkpt lat="42.1931952" lon="13.6517838"><ele>588.25</ele><time>2026-05-02T11:05:19.137Z</time></trkpt><trkpt lat="42.193235" lon="13.6519755"><ele>587.0</ele><time>2026-05-02T11:05:20.138Z</time></trkpt><trkpt lat="42.1932873" lon="13.6521805"><ele>587.0</ele><time>2026-05-02T11:05:21.143Z</time></trkpt><trkpt lat="42.193311" lon="13.6523969"><ele>587.0</ele><time>2026-05-02T11:05:22.147Z</time></trkpt><trkpt lat="42.1932784" lon="13.6526053"><ele>587.0</ele><time>2026-05-02T11:05:23.142Z</time></trkpt><trkpt lat="42.1932528" lon="13.6528057"><ele>586.0</ele><time>2026-05-02T11:05:24.138Z</time></trkpt><trkpt lat="42.1932057" lon="13.6529555"><ele>585.0</ele><time>2026-05-02T11:05:25.146Z</time></trkpt><trkpt lat="42.1931802" lon="13.6530822"><ele>584.0</ele><time>2026-05-02T11:05:26.146Z</time></trkpt><trkpt lat="42.193142" lon="13.6531658"><ele>583.0</ele><time>2026-05-02T11:05:27.147Z</time></trkpt><trkpt lat="42.1930383" lon="13.6531503"><ele>582.0</ele><time>2026-05-02T11:05:28.143Z</time></trkpt><trkpt lat="42.1929466" lon="13.6530928"><ele>584.2</ele><time>2026-05-02T11:05:29.14Z</time></trkpt><trkpt lat="42.1929284" lon="13.6529793"><ele>586.4000000000001</ele><time>2026-05-02T11:05:30.142Z</time></trkpt><trkpt lat="42.1929277" lon="13.6528303"><ele>588.5999999999999</ele><time>2026-05-02T11:05:31.131Z</time></trkpt><trkpt lat="42.1929088" lon="13.6526617"><ele>590.8</ele><time>2026-05-02T11:05:32.142Z</time></trkpt><trkpt lat="42.1929676" lon="13.6525422"><ele>593.0</ele><time>2026-05-02T11:05:33.141Z</time></trkpt><trkpt lat="42.1930171" lon="13.6523964"><ele>597.0</ele><time>2026-05-02T11:05:34.146Z</time></trkpt><trkpt lat="42.1930525" lon="13.6522479"><ele>601.0</ele><time>2026-05-02T11:05:35.14Z</time></trkpt><trkpt lat="42.1930648" lon="13.6521182"><ele>605.0</ele><time>2026-05-02T11:05:36.149Z</time></trkpt><trkpt lat="42.1929606" lon="13.6520207"><ele>609.0</ele><time>2026-05-02T11:05:38.147Z</time></trkpt><trkpt lat="42.1928814" lon="13.6520735"><ele>613.0</ele><time>2026-05-02T11:05:39.146Z</time></trkpt><trkpt lat="42.1928357" lon="13.6521861"><ele>613.0</ele><time>2026-05-02T11:05:40.151Z</time></trkpt><trkpt lat="42.1928117" lon="13.6523289"><ele>613.0</ele><time>2026-05-02T11:05:41.141Z</time></trkpt><trkpt lat="42.1928" lon="13.6524817"><ele>613.0</ele><time>2026-05-02T11:05:42.142Z</time></trkpt><trkpt lat="42.1927632" lon="13.6526278"><ele>613.0</ele><time>2026-05-02T11:05:43.141Z</time></trkpt><trkpt lat="42.1926902" lon="13.6527598"><ele>613.0</ele><time>2026-05-02T11:05:44.143Z</time></trkpt><trkpt lat="42.1925859" lon="13.6528651"><ele>613.0</ele><time>2026-05-02T11:05:45.137Z</time></trkpt><trkpt lat="42.1924929" lon="13.6529438"><ele>613.0</ele><time>2026-05-02T11:05:46.148Z</time></trkpt><trkpt lat="42.1924202" lon="13.6529599"><ele>613.0</ele><time>2026-05-02T11:05:47.147Z</time></trkpt><trkpt lat="42.1923348" lon="13.6528359"><ele>613.0</ele><time>2026-05-02T11:05:49.137Z</time></trkpt><trkpt lat="42.1923417" lon="13.6527313"><ele>613.0</ele><time>2026-05-02T11:05:50.143Z</time></trkpt><trkpt lat="42.1923898" lon="13.652649"><ele>613.0</ele><time>2026-05-02T11:05:51.133Z</time></trkpt><trkpt lat="42.1924708" lon="13.6525739"><ele>613.0</ele><time>2026-05-02T11:05:52.144Z</time></trkpt><trkpt lat="42.1925412" lon="13.6524613"><ele>613.0</ele><time>2026-05-02T11:05:53.143Z</time></trkpt><trkpt lat="42.1925703" lon="13.6523331"><ele>613.0</ele><time>2026-05-02T11:05:54.152Z</time></trkpt><trkpt lat="42.1925388" lon="13.6522256"><ele>613.0</ele><time>2026-05-02T11:05:55.155Z</time></trkpt><trkpt lat="42.1924841" lon="13.6521712"><ele>613.0</ele><time>2026-05-02T11:05:56.154Z</time></trkpt><trkpt lat="42.1924101" lon="13.6521795"><ele>613.0</ele><time>2026-05-02T11:05:57.151Z</time></trkpt><trkpt lat="42.1923217" lon="13.6522539"><ele>613.0</ele><time>2026-05-02T11:05:58.149Z</time></trkpt><trkpt lat="42.1922371" lon="13.6523678"><ele>613.0</ele><time>2026-05-02T11:05:59.145Z</time></trkpt><trkpt lat="42.1921491" lon="13.6524998"><ele>611.5</ele><time>2026-05-02T11:06:00.143Z</time></trkpt><trkpt lat="42.1920554" lon="13.6526182"><ele>610.0</ele><time>2026-05-02T11:06:01.144Z</time></trkpt><trkpt lat="42.1919474" lon="13.6526956"><ele>608.5</ele><time>2026-05-02T11:06:02.142Z</time></trkpt><trkpt lat="42.1918313" lon="13.6527589"><ele>607.0</ele><time>2026-05-02T11:06:03.141Z</time></trkpt><trkpt lat="42.1917073" lon="13.6528053"><ele>607.0</ele><time>2026-05-02T11:06:04.139Z</time></trkpt><trkpt lat="42.1915732" lon="13.6528438"><ele>607.0</ele><time>2026-05-02T11:06:05.145Z</time></trkpt><trkpt lat="42.1914195" lon="13.6528682"><ele>607.0</ele><time>2026-05-02T11:06:06.141Z</time></trkpt><trkpt lat="42.1912302" lon="13.6529075"><ele>614.6666666666667</ele><time>2026-05-02T11:06:07.143Z</time></trkpt><trkpt lat="42.1910466" lon="13.652991"><ele>622.3333333333334</ele><time>2026-05-02T11:06:08.139Z</time></trkpt><trkpt lat="42.1908923" lon="13.6530931"><ele>630.0</ele><time>2026-05-02T11:06:09.149Z</time></trkpt><trkpt lat="42.1907676" lon="13.6532428"><ele>636.0</ele><time>2026-05-02T11:06:10.135Z</time></trkpt><trkpt lat="42.1906282" lon="13.6533329"><ele>642.0</ele><time>2026-05-02T11:06:11.141Z</time></trkpt><trkpt lat="42.1904623" lon="13.6533982"><ele>648.0</ele><time>2026-05-02T11:06:12.135Z</time></trkpt><trkpt lat="42.1902956" lon="13.6534399"><ele>648.0</ele><time>2026-05-02T11:06:13.141Z</time></trkpt><trkpt lat="42.1901344" lon="13.6535112"><ele>648.0</ele><time>2026-05-02T11:06:14.14Z</time></trkpt><trkpt lat="42.189999" lon="13.6535516"><ele>648.0</ele><time>2026-05-02T11:06:15.142Z</time></trkpt><trkpt lat="42.1898695" lon="13.6536121"><ele>648.0</ele><time>2026-05-02T11:06:16.142Z</time></trkpt><trkpt lat="42.1897557" lon="13.6536577"><ele>648.8</ele><time>2026-05-02T11:06:17.144Z</time></trkpt><trkpt lat="42.189669" lon="13.65372"><ele>649.5999999999999</ele><time>2026-05-02T11:06:18.145Z</time></trkpt><trkpt lat="42.189615" lon="13.6538231"><ele>650.4000000000001</ele><time>2026-05-02T11:06:19.14Z</time></trkpt><trkpt lat="42.189607" lon="13.6539651"><ele>651.2</ele><time>2026-05-02T11:06:20.137Z</time></trkpt><trkpt lat="42.189637" lon="13.6541144"><ele>652.0</ele><time>2026-05-02T11:06:21.132Z</time></trkpt><trkpt lat="42.1896827" lon="13.6542951"><ele>652.25</ele><time>2026-05-02T11:06:22.132Z</time></trkpt><trkpt lat="42.189737" lon="13.6544561"><ele>652.5</ele><time>2026-05-02T11:06:23.139Z</time></trkpt><trkpt lat="42.1898098" lon="13.6546215"><ele>652.75</ele><time>2026-05-02T11:06:24.138Z</time></trkpt><trkpt lat="42.1898596" lon="13.6547708"><ele>653.0</ele><time>2026-05-02T11:06:25.14Z</time></trkpt><trkpt lat="42.1898808" lon="13.6548973"><ele>653.0</ele><time>2026-05-02T11:06:26.138Z</time></trkpt><trkpt lat="42.1899004" lon="13.6550106"><ele>653.0</ele><time>2026-05-02T11:06:27.141Z</time></trkpt><trkpt lat="42.1898878" lon="13.6551117"><ele>653.0</ele><time>2026-05-02T11:06:28.142Z</time></trkpt><trkpt lat="42.1898146" lon="13.6551976"><ele>653.0</ele><time>2026-05-02T11:06:29.137Z</time></trkpt><trkpt lat="42.1897084" lon="13.6552705"><ele>653.0</ele><time>2026-05-02T11:06:30.142Z</time></trkpt><trkpt lat="42.1895808" lon="13.6553308"><ele>652.75</ele><time>2026-05-02T11:06:31.139Z</time></trkpt><trkpt lat="42.1894507" lon="13.6553848"><ele>652.5</ele><time>2026-05-02T11:06:32.143Z</time></trkpt><trkpt lat="42.1893201" lon="13.6554621"><ele>652.25</ele><time>2026-05-02T11:06:33.143Z</time></trkpt><trkpt lat="42.1891673" lon="13.6555384"><ele>652.0</ele><time>2026-05-02T11:06:34.144Z</time></trkpt><trkpt lat="42.1890195" lon="13.6556179"><ele>654.3333333333334</ele><time>2026-05-02T11:06:35.141Z</time></trkpt><trkpt lat="42.1888831" lon="13.6556992"><ele>656.6666666666666</ele><time>2026-05-02T11:06:36.143Z</time></trkpt><trkpt lat="42.1887499" lon="13.6557739"><ele>659.0</ele><time>2026-05-02T11:06:37.146Z</time></trkpt><trkpt lat="42.1886003" lon="13.6558376"><ele>659.0</ele><time>2026-05-02T11:06:38.143Z</time></trkpt><trkpt lat="42.1884737" lon="13.6558754"><ele>659.0</ele><time>2026-05-02T11:06:39.141Z</time></trkpt><trkpt lat="42.1883485" lon="13.6559005"><ele>659.0</ele><time>2026-05-02T11:06:40.14Z</time></trkpt><trkpt lat="42.1882521" lon="13.6559411"><ele>659.0</ele><time>2026-05-02T11:06:41.143Z</time></trkpt><trkpt lat="42.1881846" lon="13.6559901"><ele>659.0</ele><time>2026-05-02T11:06:42.139Z</time></trkpt><trkpt lat="42.1881262" lon="13.6560766"><ele>660.2</ele><time>2026-05-02T11:06:43.151Z</time></trkpt><trkpt lat="42.188118" lon="13.6561898"><ele>661.4000000000001</ele><time>2026-05-02T11:06:44.146Z</time></trkpt><trkpt lat="42.1881373" lon="13.6562801"><ele>662.6</ele><time>2026-05-02T11:06:45.145Z</time></trkpt><trkpt lat="42.1882051" lon="13.6563622"><ele>663.8</ele><time>2026-05-02T11:06:46.142Z</time></trkpt><trkpt lat="42.1882944" lon="13.6564028"><ele>665.0</ele><time>2026-05-02T11:06:47.139Z</time></trkpt><trkpt lat="42.1884196" lon="13.6563986"><ele>665.0</ele><time>2026-05-02T11:06:48.142Z</time></trkpt><trkpt lat="42.1885661" lon="13.656388"><ele>665.0</ele><time>2026-05-02T11:06:49.138Z</time></trkpt><trkpt lat="42.1887449" lon="13.6563895"><ele>665.0</ele><time>2026-05-02T11:06:50.142Z</time></trkpt><trkpt lat="42.188892" lon="13.6563546"><ele>663.75</ele><time>2026-05-02T11:06:51.147Z</time></trkpt><trkpt lat="42.1890508" lon="13.6563256"><ele>662.5</ele><time>2026-05-02T11:06:52.15Z</time></trkpt><trkpt lat="42.1892024" lon="13.656298"><ele>661.25</ele><time>2026-05-02T11:06:53.145Z</time></trkpt><trkpt lat="42.1893196" lon="13.6562906"><ele>660.0</ele><time>2026-05-02T11:06:54.147Z</time></trkpt><trkpt lat="42.1894257" lon="13.6563034"><ele>660.0</ele><time>2026-05-02T11:06:55.144Z</time></trkpt><trkpt lat="42.1895015" lon="13.6563388"><ele>660.0</ele><time>2026-05-02T11:06:56.144Z</time></trkpt><trkpt lat="42.1895499" lon="13.6564022"><ele>660.0</ele><time>2026-05-02T11:06:57.139Z</time></trkpt><trkpt lat="42.1895325" lon="13.6565395"><ele>660.0</ele><time>2026-05-02T11:06:59.148Z</time></trkpt><trkpt lat="42.1894172" lon="13.6565722"><ele>660.0</ele><time>2026-05-02T11:07:00.142Z</time></trkpt><trkpt lat="42.1892845" lon="13.6565654"><ele>660.0</ele><time>2026-05-02T11:07:01.137Z</time></trkpt><trkpt lat="42.1891435" lon="13.6565426"><ele>660.0</ele><time>2026-05-02T11:07:02.145Z</time></trkpt><trkpt lat="42.1889869" lon="13.6565365"><ele>660.0</ele><time>2026-05-02T11:07:03.144Z</time></trkpt><trkpt lat="42.1887744" lon="13.656524"><ele>661.6666666666666</ele><time>2026-05-02T11:07:04.142Z</time></trkpt><trkpt lat="42.1885614" lon="13.6565199"><ele>663.3333333333333</ele><time>2026-05-02T11:07:05.138Z</time></trkpt><trkpt lat="42.1883854" lon="13.6565131"><ele>665.0</ele><time>2026-05-02T11:07:06.139Z</time></trkpt><trkpt lat="42.1882141" lon="13.6565123"><ele>666.3333333333333</ele><time>2026-05-02T11:07:07.145Z</time></trkpt><trkpt lat="42.1880555" lon="13.6565433"><ele>667.6666666666666</ele><time>2026-05-02T11:07:08.144Z</time></trkpt><trkpt lat="42.1878837" lon="13.6565617"><ele>669.0</ele><time>2026-05-02T11:07:09.143Z</time></trkpt><trkpt lat="42.1877206" lon="13.6565923"><ele>669.0</ele><time>2026-05-02T11:07:10.148Z</time></trkpt><trkpt lat="42.1875465" lon="13.6566226"><ele>669.0</ele><time>2026-05-02T11:07:11.142Z</time></trkpt><trkpt lat="42.1873788" lon="13.6566573"><ele>669.0</ele><time>2026-05-02T11:07:12.141Z</time></trkpt><trkpt lat="42.1872115" lon="13.6566952"><ele>671.3333333333334</ele><time>2026-05-02T11:07:13.149Z</time></trkpt><trkpt lat="42.1870411" lon="13.656731"><ele>673.6666666666667</ele><time>2026-05-02T11:07:14.145Z</time></trkpt><trkpt lat="42.1868649" lon="13.6567579"><ele>676.0</ele><time>2026-05-02T11:07:15.151Z</time></trkpt><trkpt lat="42.1866867" lon="13.6567848"><ele>677.6666666666667</ele><time>2026-05-02T11:07:16.143Z</time></trkpt><trkpt lat="42.1865027" lon="13.6568225"><ele>679.3333333333334</ele><time>2026-05-02T11:07:17.147Z</time></trkpt><trkpt lat="42.1863441" lon="13.6568619"><ele>681.0</ele><time>2026-05-02T11:07:18.143Z</time></trkpt><trkpt lat="42.1861889" lon="13.6568932"><ele>681.0</ele><time>2026-05-02T11:07:19.14Z</time></trkpt><trkpt lat="42.1860375" lon="13.6569482"><ele>681.0</ele><time>2026-05-02T11:07:20.143Z</time></trkpt><trkpt lat="42.1858802" lon="13.6569997"><ele>681.0</ele><time>2026-05-02T11:07:21.139Z</time></trkpt><trkpt lat="42.185715" lon="13.6570454"><ele>684.0</ele><time>2026-05-02T11:07:22.141Z</time></trkpt><trkpt lat="42.1855496" lon="13.6570702"><ele>687.0</ele><time>2026-05-02T11:07:23.139Z</time></trkpt><trkpt lat="42.1853835" lon="13.6571237"><ele>690.0</ele><time>2026-05-02T11:07:24.141Z</time></trkpt><trkpt lat="42.1852269" lon="13.6571978"><ele>690.0</ele><time>2026-05-02T11:07:25.138Z</time></trkpt><trkpt lat="42.1850931" lon="13.6573116"><ele>690.0</ele><time>2026-05-02T11:07:26.137Z</time></trkpt><trkpt lat="42.1849445" lon="13.6574161"><ele>690.0</ele><time>2026-05-02T11:07:27.136Z</time></trkpt><trkpt lat="42.1848038" lon="13.6575583"><ele>689.3333333333334</ele><time>2026-05-02T11:07:28.141Z</time></trkpt><trkpt lat="42.1846636" lon="13.6577404"><ele>688.6666666666667</ele><time>2026-05-02T11:07:29.143Z</time></trkpt><trkpt lat="42.1845238" lon="13.6578851"><ele>688.0</ele><time>2026-05-02T11:07:30.143Z</time></trkpt><trkpt lat="42.1844077" lon="13.6580312"><ele>687.3333333333334</ele><time>2026-05-02T11:07:31.152Z</time></trkpt><trkpt lat="42.1842785" lon="13.6581721"><ele>686.6666666666666</ele><time>2026-05-02T11:07:32.147Z</time></trkpt><trkpt lat="42.1841436" lon="13.6583093"><ele>686.0</ele><time>2026-05-02T11:07:33.148Z</time></trkpt><trkpt lat="42.1840165" lon="13.6584189"><ele>687.0</ele><time>2026-05-02T11:07:34.148Z</time></trkpt><trkpt lat="42.183881" lon="13.6585311"><ele>688.0</ele><time>2026-05-02T11:07:35.146Z</time></trkpt><trkpt lat="42.18373" lon="13.658634"><ele>689.0</ele><time>2026-05-02T11:07:36.149Z</time></trkpt><trkpt lat="42.1835656" lon="13.6587378"><ele>688.6666666666666</ele><time>2026-05-02T11:07:37.147Z</time></trkpt><trkpt lat="42.1833902" lon="13.6588406"><ele>688.3333333333334</ele><time>2026-05-02T11:07:38.148Z</time></trkpt><trkpt lat="42.1832191" lon="13.6589396"><ele>688.0</ele><time>2026-05-02T11:07:39.15Z</time></trkpt><trkpt lat="42.1830578" lon="13.6590258"><ele>688.0</ele><time>2026-05-02T11:07:40.148Z</time></trkpt><trkpt lat="42.1828882" lon="13.6591203"><ele>688.0</ele><time>2026-05-02T11:07:41.151Z</time></trkpt><trkpt lat="42.1827292" lon="13.6592075"><ele>688.0</ele><time>2026-05-02T11:07:42.149Z</time></trkpt><trkpt lat="42.1825626" lon="13.6592957"><ele>688.0</ele><time>2026-05-02T11:07:43.154Z</time></trkpt><trkpt lat="42.1823893" lon="13.6593907"><ele>688.0</ele><time>2026-05-02T11:07:44.152Z</time></trkpt><trkpt lat="42.182218" lon="13.6594897"><ele>688.0</ele><time>2026-05-02T11:07:45.149Z</time></trkpt><trkpt lat="42.1820555" lon="13.659603"><ele>687.0</ele><time>2026-05-02T11:07:46.152Z</time></trkpt><trkpt lat="42.181887" lon="13.6597503"><ele>686.0</ele><time>2026-05-02T11:07:47.15Z</time></trkpt><trkpt lat="42.1817327" lon="13.6599071"><ele>685.0</ele><time>2026-05-02T11:07:48.155Z</time></trkpt><trkpt lat="42.1815841" lon="13.6600739"><ele>686.3333333333334</ele><time>2026-05-02T11:07:49.155Z</time></trkpt><trkpt lat="42.1814501" lon="13.6602493"><ele>687.6666666666666</ele><time>2026-05-02T11:07:50.15Z</time></trkpt><trkpt lat="42.1813048" lon="13.6604217"><ele>689.0</ele><time>2026-05-02T11:07:51.156Z</time></trkpt><trkpt lat="42.1811726" lon="13.6605851"><ele>689.0</ele><time>2026-05-02T11:07:52.149Z</time></trkpt><trkpt lat="42.1810488" lon="13.6607477"><ele>689.0</ele><time>2026-05-02T11:07:53.149Z</time></trkpt><trkpt lat="42.1809135" lon="13.6609337"><ele>689.0</ele><time>2026-05-02T11:07:54.145Z</time></trkpt><trkpt lat="42.1807882" lon="13.6610902"><ele>689.3333333333333</ele><time>2026-05-02T11:07:55.158Z</time></trkpt><trkpt lat="42.1806933" lon="13.6612401"><ele>689.6666666666666</ele><time>2026-05-02T11:07:56.153Z</time></trkpt><trkpt lat="42.1806004" lon="13.6613959"><ele>690.0</ele><time>2026-05-02T11:07:57.154Z</time></trkpt><trkpt lat="42.1804733" lon="13.6615175"><ele>690.0</ele><time>2026-05-02T11:07:58.147Z</time></trkpt><trkpt lat="42.1803239" lon="13.6616492"><ele>690.0</ele><time>2026-05-02T11:07:59.154Z</time></trkpt><trkpt lat="42.1801848" lon="13.6617898"><ele>690.0</ele><time>2026-05-02T11:08:00.146Z</time></trkpt><trkpt lat="42.1800344" lon="13.6619137"><ele>688.6666666666666</ele><time>2026-05-02T11:08:01.151Z</time></trkpt><trkpt lat="42.1798982" lon="13.6620649"><ele>687.3333333333333</ele><time>2026-05-02T11:08:02.146Z</time></trkpt><trkpt lat="42.1797448" lon="13.6622326"><ele>686.0</ele><time>2026-05-02T11:08:03.147Z</time></trkpt><trkpt lat="42.1796134" lon="13.6624135"><ele>686.0</ele><time>2026-05-02T11:08:04.15Z</time></trkpt><trkpt lat="42.1794719" lon="13.6625915"><ele>686.0</ele><time>2026-05-02T11:08:05.146Z</time></trkpt><trkpt lat="42.1793455" lon="13.6627802"><ele>686.0</ele><time>2026-05-02T11:08:06.145Z</time></trkpt><trkpt lat="42.1792235" lon="13.6629672"><ele>686.3333333333333</ele><time>2026-05-02T11:08:07.14Z</time></trkpt><trkpt lat="42.1791095" lon="13.6631149"><ele>686.6666666666666</ele><time>2026-05-02T11:08:08.15Z</time></trkpt><trkpt lat="42.1790186" lon="13.6632808"><ele>687.0</ele><time>2026-05-02T11:08:09.15Z</time></trkpt><trkpt lat="42.1789079" lon="13.6634372"><ele>688.6666666666666</ele><time>2026-05-02T11:08:10.153Z</time></trkpt><trkpt lat="42.1787957" lon="13.6635916"><ele>690.3333333333333</ele><time>2026-05-02T11:08:11.146Z</time></trkpt><trkpt lat="42.1786607" lon="13.6637385"><ele>692.0</ele><time>2026-05-02T11:08:12.148Z</time></trkpt><trkpt lat="42.1785239" lon="13.6638605"><ele>692.6666666666666</ele><time>2026-05-02T11:08:13.145Z</time></trkpt><trkpt lat="42.178373" lon="13.6639881"><ele>693.3333333333334</ele><time>2026-05-02T11:08:14.152Z</time></trkpt><trkpt lat="42.1782159" lon="13.6641001"><ele>694.0</ele><time>2026-05-02T11:08:15.154Z</time></trkpt><trkpt lat="42.1780512" lon="13.6642046"><ele>695.3333333333334</ele><time>2026-05-02T11:08:16.15Z</time></trkpt><trkpt lat="42.1778836" lon="13.6643109"><ele>696.6666666666666</ele><time>2026-05-02T11:08:17.155Z</time></trkpt><trkpt lat="42.1777236" lon="13.664413"><ele>698.0</ele><time>2026-05-02T11:08:18.153Z</time></trkpt><trkpt lat="42.1775851" lon="13.6645345"><ele>699.3333333333333</ele><time>2026-05-02T11:08:19.148Z</time></trkpt><trkpt lat="42.1774565" lon="13.6646366"><ele>700.6666666666666</ele><time>2026-05-02T11:08:20.15Z</time></trkpt><trkpt lat="42.1773133" lon="13.6647589"><ele>702.0</ele><time>2026-05-02T11:08:21.148Z</time></trkpt><trkpt lat="42.1771842" lon="13.6649083"><ele>704.25</ele><time>2026-05-02T11:08:22.154Z</time></trkpt><trkpt lat="42.1770793" lon="13.665062"><ele>706.5</ele><time>2026-05-02T11:08:23.149Z</time></trkpt><trkpt lat="42.1769961" lon="13.665201"><ele>708.75</ele><time>2026-05-02T11:08:24.152Z</time></trkpt><trkpt lat="42.1769026" lon="13.6653412"><ele>711.0</ele><time>2026-05-02T11:08:25.154Z</time></trkpt><trkpt lat="42.1768052" lon="13.6654637"><ele>711.75</ele><time>2026-05-02T11:08:26.152Z</time></trkpt><trkpt lat="42.176697" lon="13.6655889"><ele>712.5</ele><time>2026-05-02T11:08:27.16Z</time></trkpt><trkpt lat="42.1765853" lon="13.665708"><ele>713.25</ele><time>2026-05-02T11:08:28.153Z</time></trkpt><trkpt lat="42.1764817" lon="13.665816"><ele>714.0</ele><time>2026-05-02T11:08:29.155Z</time></trkpt><trkpt lat="42.1764005" lon="13.6659101"><ele>716.6</ele><time>2026-05-02T11:08:30.15Z</time></trkpt><trkpt lat="42.1763279" lon="13.6659735"><ele>719.2</ele><time>2026-05-02T11:08:31.147Z</time></trkpt><trkpt lat="42.1762149" lon="13.6660051"><ele>721.8000000000001</ele><time>2026-05-02T11:08:32.146Z</time></trkpt><trkpt lat="42.176103" lon="13.6660232"><ele>724.4000000000001</ele><time>2026-05-02T11:08:33.146Z</time></trkpt><trkpt lat="42.1759905" lon="13.6659892"><ele>727.0</ele><time>2026-05-02T11:08:34.15Z</time></trkpt><trkpt lat="42.175877" lon="13.6659428"><ele>727.0</ele><time>2026-05-02T11:08:35.144Z</time></trkpt><trkpt lat="42.1757449" lon="13.665894"><ele>727.0</ele><time>2026-05-02T11:08:36.151Z</time></trkpt><trkpt lat="42.1756262" lon="13.6658647"><ele>727.0</ele><time>2026-05-02T11:08:37.144Z</time></trkpt><trkpt lat="42.1755312" lon="13.6658436"><ele>727.0</ele><time>2026-05-02T11:08:38.15Z</time></trkpt><trkpt lat="42.175428" lon="13.6658008"><ele>729.25</ele><time>2026-05-02T11:08:39.147Z</time></trkpt><trkpt lat="42.1753219" lon="13.6657366"><ele>731.5</ele><time>2026-05-02T11:08:40.152Z</time></trkpt><trkpt lat="42.175215" lon="13.6656617"><ele>733.75</ele><time>2026-05-02T11:08:41.151Z</time></trkpt><trkpt lat="42.1750962" lon="13.6655874"><ele>736.0</ele><time>2026-05-02T11:08:42.152Z</time></trkpt><trkpt lat="42.17497" lon="13.6655083"><ele>736.0</ele><time>2026-05-02T11:08:43.153Z</time></trkpt><trkpt lat="42.1748545" lon="13.6654348"><ele>736.0</ele><time>2026-05-02T11:08:44.154Z</time></trkpt><trkpt lat="42.174736" lon="13.6653351"><ele>736.0</ele><time>2026-05-02T11:08:45.152Z</time></trkpt><trkpt lat="42.1746093" lon="13.6652409"><ele>736.0</ele><time>2026-05-02T11:08:46.152Z</time></trkpt><trkpt lat="42.174496" lon="13.6651722"><ele>739.25</ele><time>2026-05-02T11:08:47.155Z</time></trkpt><trkpt lat="42.1743758" lon="13.6650786"><ele>742.5</ele><time>2026-05-02T11:08:48.154Z</time></trkpt><trkpt lat="42.1742515" lon="13.6650029"><ele>745.75</ele><time>2026-05-02T11:08:49.148Z</time></trkpt><trkpt lat="42.174119" lon="13.6649083"><ele>749.0</ele><time>2026-05-02T11:08:50.147Z</time></trkpt><trkpt lat="42.1739768" lon="13.6648078"><ele>754.0</ele><time>2026-05-02T11:08:51.149Z</time></trkpt><trkpt lat="42.1738375" lon="13.6647111"><ele>759.0</ele><time>2026-05-02T11:08:52.149Z</time></trkpt><trkpt lat="42.1736919" lon="13.6646259"><ele>764.0</ele><time>2026-05-02T11:08:53.145Z</time></trkpt><trkpt lat="42.1735596" lon="13.6645444"><ele>764.0</ele><time>2026-05-02T11:08:54.144Z</time></trkpt><trkpt lat="42.173428" lon="13.664456"><ele>764.0</ele><time>2026-05-02T11:08:55.149Z</time></trkpt><trkpt lat="42.173304" lon="13.6643699"><ele>764.0</ele><time>2026-05-02T11:08:56.149Z</time></trkpt><trkpt lat="42.1731687" lon="13.6642732"><ele>764.0</ele><time>2026-05-02T11:08:57.154Z</time></trkpt><trkpt lat="42.1730469" lon="13.6641638"><ele>767.5</ele><time>2026-05-02T11:08:58.156Z</time></trkpt><trkpt lat="42.1729121" lon="13.6640551"><ele>771.0</ele><time>2026-05-02T11:08:59.153Z</time></trkpt><trkpt lat="42.1727966" lon="13.6639442"><ele>774.5</ele><time>2026-05-02T11:09:00.152Z</time></trkpt><trkpt lat="42.1726747" lon="13.6638336"><ele>778.0</ele><time>2026-05-02T11:09:01.156Z</time></trkpt><trkpt lat="42.1725551" lon="13.6637221"><ele>778.0</ele><time>2026-05-02T11:09:02.144Z</time></trkpt><trkpt lat="42.1724463" lon="13.6636174"><ele>778.0</ele><time>2026-05-02T11:09:03.147Z</time></trkpt><trkpt lat="42.1723411" lon="13.663502"><ele>778.0</ele><time>2026-05-02T11:09:04.142Z</time></trkpt><trkpt lat="42.1722433" lon="13.6633738"><ele>778.0</ele><time>2026-05-02T11:09:05.145Z</time></trkpt><trkpt lat="42.1721788" lon="13.6632043"><ele>780.75</ele><time>2026-05-02T11:09:06.137Z</time></trkpt><trkpt lat="42.1721181" lon="13.6630324"><ele>783.5</ele><time>2026-05-02T11:09:07.144Z</time></trkpt><trkpt lat="42.1720744" lon="13.6628578"><ele>786.25</ele><time>2026-05-02T11:09:08.146Z</time></trkpt><trkpt lat="42.1720058" lon="13.6626702"><ele>789.0</ele><time>2026-05-02T11:09:09.144Z</time></trkpt><trkpt lat="42.1719182" lon="13.6625027"><ele>790.0</ele><time>2026-05-02T11:09:10.146Z</time></trkpt><trkpt lat="42.171842" lon="13.6623212"><ele>791.0</ele><time>2026-05-02T11:09:11.141Z</time></trkpt><trkpt lat="42.1717628" lon="13.662154"><ele>792.0</ele><time>2026-05-02T11:09:12.143Z</time></trkpt><trkpt lat="42.1716623" lon="13.6619674"><ele>796.0</ele><time>2026-05-02T11:09:13.141Z</time></trkpt><trkpt lat="42.1715912" lon="13.6617769"><ele>800.0</ele><time>2026-05-02T11:09:14.142Z</time></trkpt><trkpt lat="42.1715193" lon="13.6616031"><ele>804.0</ele><time>2026-05-02T11:09:15.142Z</time></trkpt><trkpt lat="42.1714542" lon="13.6614411"><ele>808.0</ele><time>2026-05-02T11:09:16.142Z</time></trkpt><trkpt lat="42.1714146" lon="13.6613052"><ele>810.2</ele><time>2026-05-02T11:09:17.142Z</time></trkpt><trkpt lat="42.1713479" lon="13.6612026"><ele>812.4</ele><time>2026-05-02T11:09:18.138Z</time></trkpt><trkpt lat="42.171296" lon="13.661097"><ele>814.6</ele><time>2026-05-02T11:09:19.138Z</time></trkpt><trkpt lat="42.1712342" lon="13.661027"><ele>816.8000000000001</ele><time>2026-05-02T11:09:20.139Z</time></trkpt><trkpt lat="42.1711337" lon="13.6609479"><ele>819.0</ele><time>2026-05-02T11:09:21.141Z</time></trkpt><trkpt lat="42.1710156" lon="13.6608777"><ele>819.0</ele><time>2026-05-02T11:09:22.131Z</time></trkpt><trkpt lat="42.1708985" lon="13.6608107"><ele>819.0</ele><time>2026-05-02T11:09:23.145Z</time></trkpt><trkpt lat="42.1707593" lon="13.6607668"><ele>819.0</ele><time>2026-05-02T11:09:24.142Z</time></trkpt><trkpt lat="42.17063" lon="13.6607321"><ele>819.0</ele><time>2026-05-02T11:09:25.15Z</time></trkpt><trkpt lat="42.170499" lon="13.6606963"><ele>823.75</ele><time>2026-05-02T11:09:26.144Z</time></trkpt><trkpt lat="42.1703779" lon="13.6606514"><ele>828.5</ele><time>2026-05-02T11:09:27.146Z</time></trkpt><trkpt lat="42.170262" lon="13.660583"><ele>833.25</ele><time>2026-05-02T11:09:28.141Z</time></trkpt><trkpt lat="42.1701475" lon="13.6605044"><ele>838.0</ele><time>2026-05-02T11:09:29.144Z</time></trkpt><trkpt lat="42.1700251" lon="13.6604353"><ele>838.0</ele><time>2026-05-02T11:09:30.14Z</time></trkpt><trkpt lat="42.1699081" lon="13.6603629"><ele>838.0</ele><time>2026-05-02T11:09:31.147Z</time></trkpt><trkpt lat="42.1697996" lon="13.6602915"><ele>838.0</ele><time>2026-05-02T11:09:32.14Z</time></trkpt><trkpt lat="42.169695" lon="13.6602448"><ele>838.0</ele><time>2026-05-02T11:09:33.14Z</time></trkpt><trkpt lat="42.1695843" lon="13.6602289"><ele>843.0</ele><time>2026-05-02T11:09:34.138Z</time></trkpt><trkpt lat="42.1694632" lon="13.6602158"><ele>848.0</ele><time>2026-05-02T11:09:35.138Z</time></trkpt><trkpt lat="42.1693261" lon="13.6601786"><ele>853.0</ele><time>2026-05-02T11:09:36.136Z</time></trkpt><trkpt lat="42.1691934" lon="13.6601299"><ele>858.0</ele><time>2026-05-02T11:09:37.136Z</time></trkpt><trkpt lat="42.1690712" lon="13.6600813"><ele>861.5</ele><time>2026-05-02T11:09:38.132Z</time></trkpt><trkpt lat="42.1689531" lon="13.6600329"><ele>865.0</ele><time>2026-05-02T11:09:39.131Z</time></trkpt><trkpt lat="42.1688513" lon="13.6599773"><ele>868.5</ele><time>2026-05-02T11:09:40.124Z</time></trkpt><trkpt lat="42.1687459" lon="13.6599427"><ele>872.0</ele><time>2026-05-02T11:09:41.127Z</time></trkpt><trkpt lat="42.1686382" lon="13.6599544"><ele>872.0</ele><time>2026-05-02T11:09:42.136Z</time></trkpt><trkpt lat="42.1685322" lon="13.6599996"><ele>872.0</ele><time>2026-05-02T11:09:43.129Z</time></trkpt><trkpt lat="42.1684257" lon="13.6600633"><ele>872.0</ele><time>2026-05-02T11:09:44.132Z</time></trkpt><trkpt lat="42.1683117" lon="13.6601431"><ele>872.0</ele><time>2026-05-02T11:09:45.129Z</time></trkpt><trkpt lat="42.1681893" lon="13.6602202"><ele>875.25</ele><time>2026-05-02T11:09:46.135Z</time></trkpt><trkpt lat="42.1680699" lon="13.6603189"><ele>878.5</ele><time>2026-05-02T11:09:47.134Z</time></trkpt><trkpt lat="42.1679491" lon="13.6604231"><ele>881.75</ele><time>2026-05-02T11:09:48.133Z</time></trkpt><trkpt lat="42.1678405" lon="13.6605641"><ele>885.0</ele><time>2026-05-02T11:09:49.128Z</time></trkpt><trkpt lat="42.1677199" lon="13.6606628"><ele>885.0</ele><time>2026-05-02T11:09:50.121Z</time></trkpt><trkpt lat="42.1675906" lon="13.6607652"><ele>885.0</ele><time>2026-05-02T11:09:51.126Z</time></trkpt><trkpt lat="42.1674626" lon="13.6608449"><ele>885.0</ele><time>2026-05-02T11:09:52.13Z</time></trkpt><trkpt lat="42.1673483" lon="13.6609371"><ele>885.0</ele><time>2026-05-02T11:09:53.128Z</time></trkpt><trkpt lat="42.1672203" lon="13.6610271"><ele>887.75</ele><time>2026-05-02T11:09:54.129Z</time></trkpt><trkpt lat="42.1671033" lon="13.661101"><ele>890.5</ele><time>2026-05-02T11:09:55.13Z</time></trkpt><trkpt lat="42.1669819" lon="13.6611966"><ele>893.25</ele><time>2026-05-02T11:09:56.131Z</time></trkpt><trkpt lat="42.1668753" lon="13.6612805"><ele>896.0</ele><time>2026-05-02T11:09:57.127Z</time></trkpt><trkpt lat="42.1667681" lon="13.6613729"><ele>896.0</ele><time>2026-05-02T11:09:58.126Z</time></trkpt><trkpt lat="42.16669" lon="13.6614893"><ele>896.0</ele><time>2026-05-02T11:09:59.13Z</time></trkpt><trkpt lat="42.1666118" lon="13.661631"><ele>896.0</ele><time>2026-05-02T11:10:00.133Z</time></trkpt><trkpt lat="42.1665337" lon="13.661779"><ele>896.0</ele><time>2026-05-02T11:10:01.134Z</time></trkpt><trkpt lat="42.1664566" lon="13.6619232"><ele>897.25</ele><time>2026-05-02T11:10:02.137Z</time></trkpt><trkpt lat="42.1663726" lon="13.6620716"><ele>898.5</ele><time>2026-05-02T11:10:03.135Z</time></trkpt><trkpt lat="42.1662818" lon="13.6622186"><ele>899.75</ele><time>2026-05-02T11:10:04.133Z</time></trkpt><trkpt lat="42.1662126" lon="13.6623369"><ele>901.0</ele><time>2026-05-02T11:10:05.139Z</time></trkpt><trkpt lat="42.1661682" lon="13.6624279"><ele>901.0</ele><time>2026-05-02T11:10:06.136Z</time></trkpt><trkpt lat="42.1661124" lon="13.6624755"><ele>900.9999999999999</ele><time>2026-05-02T11:10:07.14Z</time></trkpt><trkpt lat="42.1660106" lon="13.6625167"><ele>900.9999999999999</ele><time>2026-05-02T11:10:09.146Z</time></trkpt><trkpt lat="42.1658878" lon="13.6625835"><ele>901.0</ele><time>2026-05-02T11:10:11.146Z</time></trkpt><trkpt lat="42.1658351" lon="13.6626457"><ele>901.0</ele><time>2026-05-02T11:10:12.146Z</time></trkpt><trkpt lat="42.16578" lon="13.6627211"><ele>902.6666666666666</ele><time>2026-05-02T11:10:13.147Z</time></trkpt><trkpt lat="42.1657186" lon="13.6627843"><ele>904.3333333333333</ele><time>2026-05-02T11:10:14.146Z</time></trkpt><trkpt lat="42.1656462" lon="13.6628334"><ele>906.0</ele><time>2026-05-02T11:10:15.149Z</time></trkpt><trkpt lat="42.165559" lon="13.6628671"><ele>907.6666666666667</ele><time>2026-05-02T11:10:16.141Z</time></trkpt><trkpt lat="42.1654604" lon="13.6628686"><ele>909.3333333333334</ele><time>2026-05-02T11:10:17.147Z</time></trkpt><trkpt lat="42.1653778" lon="13.662865"><ele>911.0</ele><time>2026-05-02T11:10:18.147Z</time></trkpt><trkpt lat="42.1653039" lon="13.66287"><ele>911.8333333333334</ele><time>2026-05-02T11:10:19.148Z</time></trkpt><trkpt lat="42.1652189" lon="13.6628798"><ele>912.6666666666667</ele><time>2026-05-02T11:10:20.141Z</time></trkpt><trkpt lat="42.1651276" lon="13.6628964"><ele>913.5</ele><time>2026-05-02T11:10:21.142Z</time></trkpt><trkpt lat="42.1650299" lon="13.662925"><ele>914.3333333333333</ele><time>2026-05-02T11:10:22.14Z</time></trkpt><trkpt lat="42.1649526" lon="13.6629648"><ele>915.1666666666666</ele><time>2026-05-02T11:10:23.139Z</time></trkpt><trkpt lat="42.1648807" lon="13.6630264"><ele>916.0</ele><time>2026-05-02T11:10:24.137Z</time></trkpt><trkpt lat="42.1648128" lon="13.6630927"><ele>916.9999999999999</ele><time>2026-05-02T11:10:25.137Z</time></trkpt><trkpt lat="42.1647439" lon="13.6631507"><ele>918.0</ele><time>2026-05-02T11:10:26.14Z</time></trkpt><trkpt lat="42.1646692" lon="13.6631926"><ele>919.0</ele><time>2026-05-02T11:10:27.137Z</time></trkpt><trkpt lat="42.1646006" lon="13.6632314"><ele>920.0</ele><time>2026-05-02T11:10:28.135Z</time></trkpt><trkpt lat="42.1645399" lon="13.66329"><ele>920.9999999999999</ele><time>2026-05-02T11:10:29.139Z</time></trkpt><trkpt lat="42.1644816" lon="13.663361"><ele>922.0</ele><time>2026-05-02T11:10:30.139Z</time></trkpt><trkpt lat="42.1644213" lon="13.6634394"><ele>922.0</ele><time>2026-05-02T11:10:31.14Z</time></trkpt><trkpt lat="42.1643562" lon="13.6635308"><ele>922.0</ele><time>2026-05-02T11:10:32.142Z</time></trkpt><trkpt lat="42.1642891" lon="13.663614"><ele>922.0</ele><time>2026-05-02T11:10:33.143Z</time></trkpt><trkpt lat="42.1642156" lon="13.6636797"><ele>922.0</ele><time>2026-05-02T11:10:34.132Z</time></trkpt><trkpt lat="42.16414" lon="13.6637291"><ele>922.0</ele><time>2026-05-02T11:10:35.133Z</time></trkpt><trkpt lat="42.1640538" lon="13.663787"><ele>924.6</ele><time>2026-05-02T11:10:36.133Z</time></trkpt><trkpt lat="42.1639722" lon="13.6638509"><ele>927.2</ele><time>2026-05-02T11:10:37.131Z</time></trkpt><trkpt lat="42.163899" lon="13.6639202"><ele>929.8</ele><time>2026-05-02T11:10:38.136Z</time></trkpt><trkpt lat="42.1638271" lon="13.6640126"><ele>932.4</ele><time>2026-05-02T11:10:39.138Z</time></trkpt><trkpt lat="42.1637514" lon="13.6640993"><ele>935.0</ele><time>2026-05-02T11:10:40.136Z</time></trkpt><trkpt lat="42.1636679" lon="13.6641686"><ele>935.0</ele><time>2026-05-02T11:10:41.134Z</time></trkpt><trkpt lat="42.163589" lon="13.6642219"><ele>935.0</ele><time>2026-05-02T11:10:42.14Z</time></trkpt><trkpt lat="42.1635146" lon="13.6642851"><ele>935.0</ele><time>2026-05-02T11:10:43.138Z</time></trkpt><trkpt lat="42.1634487" lon="13.664361"><ele>935.0</ele><time>2026-05-02T11:10:44.137Z</time></trkpt><trkpt lat="42.1633868" lon="13.6644555"><ele>935.0</ele><time>2026-05-02T11:10:45.136Z</time></trkpt><trkpt lat="42.1633226" lon="13.664565"><ele>935.5000000000001</ele><time>2026-05-02T11:10:46.139Z</time></trkpt><trkpt lat="42.1632549" lon="13.6646643"><ele>936.0</ele><time>2026-05-02T11:10:47.138Z</time></trkpt><trkpt lat="42.1631951" lon="13.6647571"><ele>936.5</ele><time>2026-05-02T11:10:48.139Z</time></trkpt><trkpt lat="42.1631375" lon="13.6648489"><ele>937.0</ele><time>2026-05-02T11:10:49.138Z</time></trkpt><trkpt lat="42.1630917" lon="13.6649427"><ele>937.5000000000001</ele><time>2026-05-02T11:10:50.141Z</time></trkpt><trkpt lat="42.1630373" lon="13.6650228"><ele>938.0</ele><time>2026-05-02T11:10:51.139Z</time></trkpt><trkpt lat="42.1629801" lon="13.6650988"><ele>937.8333333333334</ele><time>2026-05-02T11:10:52.139Z</time></trkpt><trkpt lat="42.1629373" lon="13.6651701"><ele>937.6666666666667</ele><time>2026-05-02T11:10:53.14Z</time></trkpt><trkpt lat="42.1629089" lon="13.6652465"><ele>937.5</ele><time>2026-05-02T11:10:54.14Z</time></trkpt><trkpt lat="42.1628799" lon="13.6653372"><ele>937.3333333333333</ele><time>2026-05-02T11:10:55.142Z</time></trkpt><trkpt lat="42.1628327" lon="13.6654457"><ele>937.1666666666666</ele><time>2026-05-02T11:10:56.142Z</time></trkpt><trkpt lat="42.1627598" lon="13.6655608"><ele>937.0</ele><time>2026-05-02T11:10:57.151Z</time></trkpt><trkpt lat="42.1626959" lon="13.6656801"><ele>937.0</ele><time>2026-05-02T11:10:58.144Z</time></trkpt><trkpt lat="42.1626391" lon="13.6658097"><ele>937.0</ele><time>2026-05-02T11:10:59.152Z</time></trkpt><trkpt lat="42.1625852" lon="13.6659328"><ele>937.0</ele><time>2026-05-02T11:11:00.143Z</time></trkpt><trkpt lat="42.1625292" lon="13.6660329"><ele>937.0</ele><time>2026-05-02T11:11:01.148Z</time></trkpt><trkpt lat="42.1624719" lon="13.6661118"><ele>937.0</ele><time>2026-05-02T11:11:02.143Z</time></trkpt><trkpt lat="42.1624111" lon="13.6661826"><ele>939.2</ele><time>2026-05-02T11:11:03.139Z</time></trkpt><trkpt lat="42.1623225" lon="13.6662394"><ele>941.4000000000001</ele><time>2026-05-02T11:11:04.142Z</time></trkpt><trkpt lat="42.1622308" lon="13.6662921"><ele>943.5999999999999</ele><time>2026-05-02T11:11:05.14Z</time></trkpt><trkpt lat="42.1621339" lon="13.6663315"><ele>945.8</ele><time>2026-05-02T11:11:06.144Z</time></trkpt><trkpt lat="42.1620296" lon="13.6663662"><ele>948.0</ele><time>2026-05-02T11:11:07.143Z</time></trkpt><trkpt lat="42.1619322" lon="13.6664054"><ele>948.0</ele><time>2026-05-02T11:11:08.137Z</time></trkpt><trkpt lat="42.1618372" lon="13.6664663"><ele>948.0</ele><time>2026-05-02T11:11:09.143Z</time></trkpt><trkpt lat="42.1617558" lon="13.6665416"><ele>948.0</ele><time>2026-05-02T11:11:10.144Z</time></trkpt><trkpt lat="42.1616714" lon="13.6666318"><ele>948.0</ele><time>2026-05-02T11:11:11.146Z</time></trkpt><trkpt lat="42.1615813" lon="13.66672"><ele>948.0</ele><time>2026-05-02T11:11:12.147Z</time></trkpt><trkpt lat="42.1614822" lon="13.6668056"><ele>949.4</ele><time>2026-05-02T11:11:13.147Z</time></trkpt><trkpt lat="42.1613894" lon="13.6668911"><ele>950.8</ele><time>2026-05-02T11:11:14.144Z</time></trkpt><trkpt lat="42.1612959" lon="13.6669568"><ele>952.2</ele><time>2026-05-02T11:11:15.148Z</time></trkpt><trkpt lat="42.1612076" lon="13.6670231"><ele>953.6</ele><time>2026-05-02T11:11:16.143Z</time></trkpt><trkpt lat="42.1611205" lon="13.6671109"><ele>955.0</ele><time>2026-05-02T11:11:17.149Z</time></trkpt><trkpt lat="42.1610358" lon="13.6672138"><ele>955.0</ele><time>2026-05-02T11:11:18.149Z</time></trkpt><trkpt lat="42.1609627" lon="13.6673366"><ele>955.0</ele><time>2026-05-02T11:11:19.154Z</time></trkpt><trkpt lat="42.1608871" lon="13.6674533"><ele>955.0</ele><time>2026-05-02T11:11:20.145Z</time></trkpt><trkpt lat="42.1608089" lon="13.6675508"><ele>955.0</ele><time>2026-05-02T11:11:21.153Z</time></trkpt><trkpt lat="42.1607418" lon="13.6676401"><ele>955.0</ele><time>2026-05-02T11:11:22.149Z</time></trkpt><trkpt lat="42.1606788" lon="13.6677178"><ele>954.4999999999999</ele><time>2026-05-02T11:11:23.152Z</time></trkpt><trkpt lat="42.160622" lon="13.6677774"><ele>954.0</ele><time>2026-05-02T11:11:24.146Z</time></trkpt><trkpt lat="42.1605362" lon="13.6678462"><ele>953.5</ele><time>2026-05-02T11:11:26.154Z</time></trkpt><trkpt lat="42.1604441" lon="13.6679152"><ele>953.0</ele><time>2026-05-02T11:11:28.153Z</time></trkpt><trkpt lat="42.1603828" lon="13.667967"><ele>952.4999999999999</ele><time>2026-05-02T11:11:29.155Z</time></trkpt><trkpt lat="42.160318" lon="13.6680342"><ele>952.0</ele><time>2026-05-02T11:11:30.152Z</time></trkpt><trkpt lat="42.1602538" lon="13.6680938"><ele>951.9999999999999</ele><time>2026-05-02T11:11:31.154Z</time></trkpt><trkpt lat="42.160189" lon="13.6681585"><ele>952.0</ele><time>2026-05-02T11:11:32.155Z</time></trkpt><trkpt lat="42.1601255" lon="13.6682309"><ele>952.0</ele><time>2026-05-02T11:11:33.159Z</time></trkpt><trkpt lat="42.1600617" lon="13.6683079"><ele>952.0</ele><time>2026-05-02T11:11:34.152Z</time></trkpt><trkpt lat="42.159999" lon="13.6683852"><ele>951.9999999999999</ele><time>2026-05-02T11:11:35.16Z</time></trkpt><trkpt lat="42.1599387" lon="13.6684574"><ele>952.0</ele><time>2026-05-02T11:11:36.152Z</time></trkpt><trkpt lat="42.1598798" lon="13.668521"><ele>953.8333333333333</ele><time>2026-05-02T11:11:37.154Z</time></trkpt><trkpt lat="42.1598132" lon="13.6685766"><ele>955.6666666666666</ele><time>2026-05-02T11:11:38.15Z</time></trkpt><trkpt lat="42.1597405" lon="13.6686287"><ele>957.5</ele><time>2026-05-02T11:11:39.16Z</time></trkpt><trkpt lat="42.1596718" lon="13.6686853"><ele>959.3333333333333</ele><time>2026-05-02T11:11:40.151Z</time></trkpt><trkpt lat="42.1596066" lon="13.6687452"><ele>961.1666666666666</ele><time>2026-05-02T11:11:41.16Z</time></trkpt><trkpt lat="42.1595442" lon="13.6687987"><ele>963.0</ele><time>2026-05-02T11:11:42.151Z</time></trkpt><trkpt lat="42.1594871" lon="13.6688581"><ele>959.3333333333334</ele><time>2026-05-02T11:11:43.154Z</time></trkpt><trkpt lat="42.1594382" lon="13.668922"><ele>955.6666666666667</ele><time>2026-05-02T11:11:44.151Z</time></trkpt><trkpt lat="42.1593979" lon="13.6690688"><ele>952.0</ele><time>2026-05-02T11:11:46.147Z</time></trkpt><trkpt lat="42.1594008" lon="13.6691559"><ele>948.3333333333334</ele><time>2026-05-02T11:11:47.154Z</time></trkpt><trkpt lat="42.1594057" lon="13.6692544"><ele>944.6666666666667</ele><time>2026-05-02T11:11:48.152Z</time></trkpt><trkpt lat="42.1594089" lon="13.6693636"><ele>941.0</ele><time>2026-05-02T11:11:49.146Z</time></trkpt><trkpt lat="42.1594039" lon="13.6694879"><ele>939.8333333333334</ele><time>2026-05-02T11:11:50.141Z</time></trkpt><trkpt lat="42.1593946" lon="13.6696181"><ele>938.6666666666667</ele><time>2026-05-02T11:11:51.144Z</time></trkpt><trkpt lat="42.1593807" lon="13.6697336"><ele>937.5</ele><time>2026-05-02T11:11:52.144Z</time></trkpt><trkpt lat="42.1593603" lon="13.6698292"><ele>936.3333333333333</ele><time>2026-05-02T11:11:53.148Z</time></trkpt><trkpt lat="42.1593251" lon="13.6699164"><ele>935.1666666666666</ele><time>2026-05-02T11:11:54.139Z</time></trkpt><trkpt lat="42.159279" lon="13.6699966"><ele>934.0</ele><time>2026-05-02T11:11:55.146Z</time></trkpt><trkpt lat="42.1592316" lon="13.6700586"><ele>934.0</ele><time>2026-05-02T11:11:56.146Z</time></trkpt><trkpt lat="42.1591889" lon="13.6701235"><ele>934.0000000000001</ele><time>2026-05-02T11:11:57.146Z</time></trkpt><trkpt lat="42.1591355" lon="13.6702711"><ele>934.0000000000001</ele><time>2026-05-02T11:11:59.154Z</time></trkpt><trkpt lat="42.1591141" lon="13.6703666"><ele>934.0</ele><time>2026-05-02T11:12:00.143Z</time></trkpt><trkpt lat="42.1591048" lon="13.6705257"><ele>934.0</ele><time>2026-05-02T11:12:02.141Z</time></trkpt><trkpt lat="42.1591151" lon="13.6707076"><ele>935.6</ele><time>2026-05-02T11:12:04.149Z</time></trkpt><trkpt lat="42.1591243" lon="13.6708157"><ele>937.2</ele><time>2026-05-02T11:12:05.142Z</time></trkpt><trkpt lat="42.1591401" lon="13.6709428"><ele>938.8000000000001</ele><time>2026-05-02T11:12:06.144Z</time></trkpt><trkpt lat="42.159158" lon="13.6710891"><ele>940.4000000000001</ele><time>2026-05-02T11:12:07.142Z</time></trkpt><trkpt lat="42.1591743" lon="13.6712414"><ele>942.0</ele><time>2026-05-02T11:12:08.149Z</time></trkpt><trkpt lat="42.1591884" lon="13.6713812"><ele>942.2</ele><time>2026-05-02T11:12:09.142Z</time></trkpt><trkpt lat="42.159191" lon="13.6715104"><ele>942.4000000000001</ele><time>2026-05-02T11:12:10.148Z</time></trkpt><trkpt lat="42.1591894" lon="13.6716231"><ele>942.5999999999999</ele><time>2026-05-02T11:12:11.144Z</time></trkpt><trkpt lat="42.1592149" lon="13.6718024"><ele>942.8</ele><time>2026-05-02T11:12:13.148Z</time></trkpt><trkpt lat="42.1592587" lon="13.6718965"><ele>943.0</ele><time>2026-05-02T11:12:14.153Z</time></trkpt><trkpt lat="42.1593141" lon="13.6719747"><ele>941.9999999999999</ele><time>2026-05-02T11:12:15.152Z</time></trkpt><trkpt lat="42.1593727" lon="13.6720225"><ele>941.0</ele><time>2026-05-02T11:12:16.152Z</time></trkpt><trkpt lat="42.159461" lon="13.6720615"><ele>940.0</ele><time>2026-05-02T11:12:18.15Z</time></trkpt><trkpt lat="42.1595524" lon="13.6721342"><ele>939.0</ele><time>2026-05-02T11:12:20.151Z</time></trkpt><trkpt lat="42.1595947" lon="13.6722524"><ele>937.9999999999999</ele><time>2026-05-02T11:12:22.149Z</time></trkpt><trkpt lat="42.1595932" lon="13.6723424"><ele>937.0</ele><time>2026-05-02T11:12:23.15Z</time></trkpt><trkpt lat="42.1596057" lon="13.6724462"><ele>937.0</ele><time>2026-05-02T11:12:24.15Z</time></trkpt><trkpt lat="42.1596329" lon="13.67256"><ele>937.0</ele><time>2026-05-02T11:12:25.154Z</time></trkpt><trkpt lat="42.1596721" lon="13.6726858"><ele>937.0</ele><time>2026-05-02T11:12:26.147Z</time></trkpt><trkpt lat="42.1597223" lon="13.6728273"><ele>937.0</ele><time>2026-05-02T11:12:27.151Z</time></trkpt><trkpt lat="42.1597725" lon="13.6729663"><ele>937.0</ele><time>2026-05-02T11:12:28.154Z</time></trkpt><trkpt lat="42.1598274" lon="13.6730997"><ele>939.6</ele><time>2026-05-02T11:12:29.155Z</time></trkpt><trkpt lat="42.1598896" lon="13.673243"><ele>942.2</ele><time>2026-05-02T11:12:30.154Z</time></trkpt><trkpt lat="42.1599492" lon="13.6733732"><ele>944.8</ele><time>2026-05-02T11:12:31.158Z</time></trkpt><trkpt lat="42.1600047" lon="13.6734884"><ele>947.4</ele><time>2026-05-02T11:12:32.153Z</time></trkpt><trkpt lat="42.1600571" lon="13.6736077"><ele>950.0</ele><time>2026-05-02T11:12:33.153Z</time></trkpt><trkpt lat="42.1601139" lon="13.6737441"><ele>950.0000000000001</ele><time>2026-05-02T11:12:34.154Z</time></trkpt><trkpt lat="42.1601601" lon="13.673872"><ele>950.0</ele><time>2026-05-02T11:12:35.157Z</time></trkpt><trkpt lat="42.1602045" lon="13.6739851"><ele>950.0</ele><time>2026-05-02T11:12:36.157Z</time></trkpt><trkpt lat="42.1602492" lon="13.6740924"><ele>950.0</ele><time>2026-05-02T11:12:37.158Z</time></trkpt><trkpt lat="42.1602869" lon="13.6741871"><ele>950.0000000000001</ele><time>2026-05-02T11:12:38.155Z</time></trkpt><trkpt lat="42.1603248" lon="13.6742657"><ele>950.0</ele><time>2026-05-02T11:12:39.157Z</time></trkpt><trkpt lat="42.1604073" lon="13.6743812"><ele>949.6666666666667</ele><time>2026-05-02T11:12:41.154Z</time></trkpt><trkpt lat="42.1605197" lon="13.6744546"><ele>949.3333333333334</ele><time>2026-05-02T11:12:43.156Z</time></trkpt><trkpt lat="42.1605984" lon="13.6744887"><ele>949.0</ele><time>2026-05-02T11:12:44.154Z</time></trkpt><trkpt lat="42.160684" lon="13.6745178"><ele>948.6666666666667</ele><time>2026-05-02T11:12:45.157Z</time></trkpt><trkpt lat="42.160752" lon="13.674554"><ele>948.3333333333334</ele><time>2026-05-02T11:12:46.153Z</time></trkpt><trkpt lat="42.1608034" lon="13.6746123"><ele>948.0</ele><time>2026-05-02T11:12:47.152Z</time></trkpt><trkpt lat="42.1608478" lon="13.674693"><ele>950.5999999999999</ele><time>2026-05-02T11:12:48.155Z</time></trkpt><trkpt lat="42.1608949" lon="13.6747819"><ele>953.1999999999999</ele><time>2026-05-02T11:12:49.147Z</time></trkpt><trkpt lat="42.1609619" lon="13.6748951"><ele>955.8</ele><time>2026-05-02T11:12:50.158Z</time></trkpt><trkpt lat="42.1610316" lon="13.6750088"><ele>958.4</ele><time>2026-05-02T11:12:51.154Z</time></trkpt><trkpt lat="42.1610953" lon="13.6751168"><ele>961.0</ele><time>2026-05-02T11:12:52.157Z</time></trkpt><trkpt lat="42.1611556" lon="13.6752306"><ele>962.4</ele><time>2026-05-02T11:12:53.155Z</time></trkpt><trkpt lat="42.1612086" lon="13.6753554"><ele>963.8</ele><time>2026-05-02T11:12:54.152Z</time></trkpt><trkpt lat="42.1612543" lon="13.6754656"><ele>965.1999999999999</ele><time>2026-05-02T11:12:55.149Z</time></trkpt><trkpt lat="42.1613137" lon="13.6755773"><ele>966.5999999999999</ele><time>2026-05-02T11:12:56.15Z</time></trkpt><trkpt lat="42.1613767" lon="13.6756964"><ele>968.0</ele><time>2026-05-02T11:12:57.147Z</time></trkpt><trkpt lat="42.1614431" lon="13.6758047"><ele>968.0000000000001</ele><time>2026-05-02T11:12:58.147Z</time></trkpt><trkpt lat="42.161495" lon="13.6759"><ele>968.0</ele><time>2026-05-02T11:12:59.151Z</time></trkpt><trkpt lat="42.1615319" lon="13.6759991"><ele>968.0</ele><time>2026-05-02T11:13:00.146Z</time></trkpt><trkpt lat="42.1615612" lon="13.676107"><ele>968.0</ele><time>2026-05-02T11:13:01.152Z</time></trkpt><trkpt lat="42.1615817" lon="13.6762049"><ele>968.0000000000001</ele><time>2026-05-02T11:13:02.154Z</time></trkpt><trkpt lat="42.1616012" lon="13.676302"><ele>968.0</ele><time>2026-05-02T11:13:03.152Z</time></trkpt><trkpt lat="42.1616198" lon="13.6764016"><ele>968.0000000000001</ele><time>2026-05-02T11:13:04.152Z</time></trkpt><trkpt lat="42.1616509" lon="13.6765008"><ele>968.0</ele><time>2026-05-02T11:13:05.158Z</time></trkpt><trkpt lat="42.1616784" lon="13.6766071"><ele>968.0</ele><time>2026-05-02T11:13:06.157Z</time></trkpt><trkpt lat="42.16171" lon="13.6767026"><ele>968.0</ele><time>2026-05-02T11:13:07.149Z</time></trkpt><trkpt lat="42.1617362" lon="13.6767812"><ele>968.0000000000001</ele><time>2026-05-02T11:13:08.149Z</time></trkpt><trkpt lat="42.1617683" lon="13.6769143"><ele>968.0</ele><time>2026-05-02T11:13:10.154Z</time></trkpt><trkpt lat="42.1617834" lon="13.6770745"><ele>966.8333333333334</ele><time>2026-05-02T11:13:12.155Z</time></trkpt><trkpt lat="42.161795" lon="13.6771797"><ele>965.6666666666667</ele><time>2026-05-02T11:13:13.147Z</time></trkpt><trkpt lat="42.1618041" lon="13.6772914"><ele>964.5</ele><time>2026-05-02T11:13:14.157Z</time></trkpt><trkpt lat="42.1618102" lon="13.6774081"><ele>963.3333333333333</ele><time>2026-05-02T11:13:15.15Z</time></trkpt><trkpt lat="42.1618145" lon="13.6775269"><ele>962.1666666666666</ele><time>2026-05-02T11:13:16.156Z</time></trkpt><trkpt lat="42.1618207" lon="13.6776428"><ele>961.0</ele><time>2026-05-02T11:13:17.153Z</time></trkpt><trkpt lat="42.1618218" lon="13.6777645"><ele>958.4</ele><time>2026-05-02T11:13:18.155Z</time></trkpt><trkpt lat="42.1618215" lon="13.6778955"><ele>955.8</ele><time>2026-05-02T11:13:19.146Z</time></trkpt><trkpt lat="42.1618221" lon="13.6780289"><ele>953.1999999999999</ele><time>2026-05-02T11:13:20.158Z</time></trkpt><trkpt lat="42.1618235" lon="13.6781567"><ele>950.5999999999999</ele><time>2026-05-02T11:13:21.157Z</time></trkpt><trkpt lat="42.1618287" lon="13.6782794"><ele>948.0</ele><time>2026-05-02T11:13:22.16Z</time></trkpt><trkpt lat="42.1618357" lon="13.6784051"><ele>948.0</ele><time>2026-05-02T11:13:23.155Z</time></trkpt><trkpt lat="42.1618442" lon="13.6785306"><ele>948.0</ele><time>2026-05-02T11:13:24.156Z</time></trkpt><trkpt lat="42.1618482" lon="13.6786578"><ele>948.0</ele><time>2026-05-02T11:13:25.158Z</time></trkpt><trkpt lat="42.161854" lon="13.6787841"><ele>948.0</ele><time>2026-05-02T11:13:26.161Z</time></trkpt><trkpt lat="42.1618557" lon="13.6789085"><ele>948.0</ele><time>2026-05-02T11:13:27.158Z</time></trkpt><trkpt lat="42.1618504" lon="13.6790259"><ele>946.3333333333334</ele><time>2026-05-02T11:13:28.157Z</time></trkpt><trkpt lat="42.1618414" lon="13.6791442"><ele>944.6666666666667</ele><time>2026-05-02T11:13:29.155Z</time></trkpt><trkpt lat="42.161823" lon="13.6792639"><ele>943.0</ele><time>2026-05-02T11:13:30.152Z</time></trkpt><trkpt lat="42.1617992" lon="13.6793806"><ele>941.3333333333334</ele><time>2026-05-02T11:13:31.153Z</time></trkpt><trkpt lat="42.1617725" lon="13.6794926"><ele>939.6666666666667</ele><time>2026-05-02T11:13:32.156Z</time></trkpt><trkpt lat="42.1617494" lon="13.6795955"><ele>938.0</ele><time>2026-05-02T11:13:33.151Z</time></trkpt><trkpt lat="42.1617309" lon="13.6796909"><ele>936.4</ele><time>2026-05-02T11:13:34.155Z</time></trkpt><trkpt lat="42.1617149" lon="13.679782"><ele>934.8</ele><time>2026-05-02T11:13:35.156Z</time></trkpt><trkpt lat="42.1616896" lon="13.6799293"><ele>933.2</ele><time>2026-05-02T11:13:37.156Z</time></trkpt><trkpt lat="42.1616723" lon="13.6800647"><ele>931.6</ele><time>2026-05-02T11:13:39.158Z</time></trkpt><trkpt lat="42.1616306" lon="13.6801407"><ele>930.0</ele><time>2026-05-02T11:13:41.155Z</time></trkpt><trkpt lat="42.1615445" lon="13.6800725"><ele>930.0</ele><time>2026-05-02T11:13:44.151Z</time></trkpt><trkpt lat="42.1615376" lon="13.6799072"><ele>930.0</ele><time>2026-05-02T11:13:46.15Z</time></trkpt><trkpt lat="42.1615391" lon="13.6797822"><ele>930.0</ele><time>2026-05-02T11:13:47.156Z</time></trkpt><trkpt lat="42.1615306" lon="13.6796596"><ele>930.0</ele><time>2026-05-02T11:13:48.155Z</time></trkpt><trkpt lat="42.1615221" lon="13.6795555"><ele>930.0</ele><time>2026-05-02T11:13:49.153Z</time></trkpt><trkpt lat="42.1615216" lon="13.6794666"><ele>931.2</ele><time>2026-05-02T11:13:50.155Z</time></trkpt><trkpt lat="42.1615159" lon="13.6793214"><ele>932.4</ele><time>2026-05-02T11:13:52.155Z</time></trkpt><trkpt lat="42.1614844" lon="13.6792236"><ele>933.5999999999999</ele><time>2026-05-02T11:13:54.154Z</time></trkpt><trkpt lat="42.1613568" lon="13.6792117"><ele>934.8</ele><time>2026-05-02T11:13:56.154Z</time></trkpt><trkpt lat="42.1612705" lon="13.6792418"><ele>936.0</ele><time>2026-05-02T11:13:57.158Z</time></trkpt><trkpt lat="42.1611806" lon="13.6792745"><ele>936.0</ele><time>2026-05-02T11:13:58.152Z</time></trkpt><trkpt lat="42.1610886" lon="13.6793093"><ele>935.9999999999999</ele><time>2026-05-02T11:13:59.155Z</time></trkpt><trkpt lat="42.160991" lon="13.6793447"><ele>935.9999999999999</ele><time>2026-05-02T11:14:00.157Z</time></trkpt><trkpt lat="42.1608977" lon="13.679379"><ele>936.0</ele><time>2026-05-02T11:14:01.158Z</time></trkpt><trkpt lat="42.1608085" lon="13.6793978"><ele>936.0</ele><time>2026-05-02T11:14:02.151Z</time></trkpt><trkpt lat="42.1607112" lon="13.6794051"><ele>935.1666666666666</ele><time>2026-05-02T11:14:03.154Z</time></trkpt><trkpt lat="42.1606194" lon="13.6794098"><ele>934.3333333333333</ele><time>2026-05-02T11:14:04.153Z</time></trkpt><trkpt lat="42.1605347" lon="13.6794216"><ele>933.5</ele><time>2026-05-02T11:14:05.153Z</time></trkpt><trkpt lat="42.1604567" lon="13.6794469"><ele>932.6666666666666</ele><time>2026-05-02T11:14:06.157Z</time></trkpt><trkpt lat="42.1603815" lon="13.6794854"><ele>931.8333333333333</ele><time>2026-05-02T11:14:07.152Z</time></trkpt><trkpt lat="42.1603103" lon="13.6795381"><ele>931.0</ele><time>2026-05-02T11:14:08.158Z</time></trkpt><trkpt lat="42.1602387" lon="13.6795928"><ele>928.4285714285714</ele><time>2026-05-02T11:14:09.155Z</time></trkpt><trkpt lat="42.1601612" lon="13.6796389"><ele>925.8571428571429</ele><time>2026-05-02T11:14:10.157Z</time></trkpt><trkpt lat="42.1600836" lon="13.6796805"><ele>923.2857142857142</ele><time>2026-05-02T11:14:11.15Z</time></trkpt><trkpt lat="42.1600177" lon="13.6797162"><ele>920.7142857142857</ele><time>2026-05-02T11:14:12.159Z</time></trkpt><trkpt lat="42.1599579" lon="13.6797589"><ele>918.1428571428571</ele><time>2026-05-02T11:14:13.157Z</time></trkpt><trkpt lat="42.1599013" lon="13.6798103"><ele>915.5714285714284</ele><time>2026-05-02T11:14:14.155Z</time></trkpt><trkpt lat="42.1598487" lon="13.6798766"><ele>912.9999999999999</ele><time>2026-05-02T11:14:15.162Z</time></trkpt><trkpt lat="42.1597992" lon="13.6799477"><ele>908.8333333333333</ele><time>2026-05-02T11:14:16.158Z</time></trkpt><trkpt lat="42.1597548" lon="13.6800088"><ele>904.6666666666666</ele><time>2026-05-02T11:14:17.152Z</time></trkpt><trkpt lat="42.1596806" lon="13.680069"><ele>900.5</ele><time>2026-05-02T11:14:19.148Z</time></trkpt><trkpt lat="42.1596093" lon="13.6800315"><ele>896.3333333333333</ele><time>2026-05-02T11:14:21.151Z</time></trkpt><trkpt lat="42.1595471" lon="13.6799404"><ele>892.1666666666666</ele><time>2026-05-02T11:14:23.15Z</time></trkpt><trkpt lat="42.1594921" lon="13.679848"><ele>888.0</ele><time>2026-05-02T11:14:25.154Z</time></trkpt><trkpt lat="42.1594418" lon="13.6797282"><ele>888.0</ele><time>2026-05-02T11:14:27.156Z</time></trkpt><trkpt lat="42.1594103" lon="13.6796479"><ele>888.0</ele><time>2026-05-02T11:14:28.161Z</time></trkpt><trkpt lat="42.159379" lon="13.6795736"><ele>888.0</ele><time>2026-05-02T11:14:29.155Z</time></trkpt><trkpt lat="42.1593504" lon="13.6794931"><ele>888.0</ele><time>2026-05-02T11:14:30.155Z</time></trkpt><trkpt lat="42.1593289" lon="13.6794122"><ele>888.0</ele><time>2026-05-02T11:14:31.153Z</time></trkpt><trkpt lat="42.159299" lon="13.6792689"><ele>888.0</ele><time>2026-05-02T11:14:33.155Z</time></trkpt><trkpt lat="42.1592752" lon="13.6791112"><ele>889.5</ele><time>2026-05-02T11:14:35.151Z</time></trkpt><trkpt lat="42.1592378" lon="13.6789484"><ele>891.0</ele><time>2026-05-02T11:14:37.15Z</time></trkpt><trkpt lat="42.1592136" lon="13.678859"><ele>892.5</ele><time>2026-05-02T11:14:38.154Z</time></trkpt><trkpt lat="42.1591893" lon="13.6787627"><ele>894.0</ele><time>2026-05-02T11:14:39.147Z</time></trkpt><trkpt lat="42.1591652" lon="13.6786682"><ele>895.5</ele><time>2026-05-02T11:14:40.154Z</time></trkpt><trkpt lat="42.1591364" lon="13.6785773"><ele>897.0</ele><time>2026-05-02T11:14:41.161Z</time></trkpt><trkpt lat="42.1591049" lon="13.678495"><ele>898.4285714285714</ele><time>2026-05-02T11:14:42.156Z</time></trkpt><trkpt lat="42.1590752" lon="13.6784139"><ele>899.8571428571429</ele><time>2026-05-02T11:14:43.162Z</time></trkpt><trkpt lat="42.1590509" lon="13.6783273"><ele>901.2857142857143</ele><time>2026-05-02T11:14:44.159Z</time></trkpt><trkpt lat="42.1590253" lon="13.6782397"><ele>902.7142857142858</ele><time>2026-05-02T11:14:45.157Z</time></trkpt><trkpt lat="42.1589969" lon="13.6781429"><ele>904.1428571428571</ele><time>2026-05-02T11:14:46.157Z</time></trkpt><trkpt lat="42.158974" lon="13.6780413"><ele>905.5714285714287</ele><time>2026-05-02T11:14:47.154Z</time></trkpt><trkpt lat="42.1589471" lon="13.6779471"><ele>907.0000000000001</ele><time>2026-05-02T11:14:48.146Z</time></trkpt><trkpt lat="42.1589147" lon="13.6778652"><ele>900.9999999999999</ele><time>2026-05-02T11:14:49.151Z</time></trkpt><trkpt lat="42.1588648" lon="13.6777293"><ele>895.0</ele><time>2026-05-02T11:14:51.149Z</time></trkpt><trkpt lat="42.1588063" lon="13.6775861"><ele>889.0</ele><time>2026-05-02T11:14:53.153Z</time></trkpt><trkpt lat="42.1587753" lon="13.677498"><ele>883.0</ele><time>2026-05-02T11:14:54.151Z</time></trkpt><trkpt lat="42.1587507" lon="13.6774043"><ele>876.9999999999999</ele><time>2026-05-02T11:14:55.15Z</time></trkpt><trkpt lat="42.158725" lon="13.6773209"><ele>871.0</ele><time>2026-05-02T11:14:56.159Z</time></trkpt><trkpt lat="42.1586954" lon="13.6772448"><ele>871.0</ele><time>2026-05-02T11:14:57.157Z</time></trkpt><trkpt lat="42.1586647" lon="13.6771613"><ele>871.0</ele><time>2026-05-02T11:14:58.156Z</time></trkpt><trkpt lat="42.1586276" lon="13.677079"><ele>871.0</ele><time>2026-05-02T11:14:59.152Z</time></trkpt><trkpt lat="42.1585893" lon="13.6769914"><ele>871.0</ele><time>2026-05-02T11:15:00.153Z</time></trkpt><trkpt lat="42.1585507" lon="13.676914"><ele>871.0</ele><time>2026-05-02T11:15:01.154Z</time></trkpt><trkpt lat="42.1585091" lon="13.6768358"><ele>871.0</ele><time>2026-05-02T11:15:02.154Z</time></trkpt><trkpt lat="42.1584699" lon="13.6767587"><ele>871.0</ele><time>2026-05-02T11:15:03.153Z</time></trkpt><trkpt lat="42.158425" lon="13.6766836"><ele>873.4999999999999</ele><time>2026-05-02T11:15:04.152Z</time></trkpt><trkpt lat="42.1583857" lon="13.6766118"><ele>876.0</ele><time>2026-05-02T11:15:05.147Z</time></trkpt><trkpt lat="42.1583436" lon="13.6765371"><ele>878.5</ele><time>2026-05-02T11:15:06.151Z</time></trkpt><trkpt lat="42.1582975" lon="13.6764576"><ele>881.0</ele><time>2026-05-02T11:15:07.145Z</time></trkpt><trkpt lat="42.1582511" lon="13.6763694"><ele>883.4999999999999</ele><time>2026-05-02T11:15:08.152Z</time></trkpt><trkpt lat="42.158202" lon="13.6762846"><ele>886.0</ele><time>2026-05-02T11:15:09.153Z</time></trkpt><trkpt lat="42.1581531" lon="13.6761966"><ele>878.5999999999999</ele><time>2026-05-02T11:15:10.15Z</time></trkpt><trkpt lat="42.1581041" lon="13.6761109"><ele>871.1999999999999</ele><time>2026-05-02T11:15:11.148Z</time></trkpt><trkpt lat="42.1580653" lon="13.6760341"><ele>863.8</ele><time>2026-05-02T11:15:12.144Z</time></trkpt><trkpt lat="42.1580082" lon="13.6758873"><ele>856.4000000000001</ele><time>2026-05-02T11:15:14.143Z</time></trkpt><trkpt lat="42.1579443" lon="13.6757571"><ele>849.0</ele><time>2026-05-02T11:15:16.154Z</time></trkpt><trkpt lat="42.1578848" lon="13.67565"><ele>849.0</ele><time>2026-05-02T11:15:18.153Z</time></trkpt><trkpt lat="42.1578444" lon="13.6755788"><ele>849.0</ele><time>2026-05-02T11:15:20.148Z</time></trkpt><trkpt lat="42.157798" lon="13.6754736"><ele>849.0</ele><time>2026-05-02T11:15:23.158Z</time></trkpt><trkpt lat="42.1577675" lon="13.6753955"><ele>849.0</ele><time>2026-05-02T11:15:25.156Z</time></trkpt><trkpt lat="42.1577333" lon="13.6753014"><ele>849.0</ele><time>2026-05-02T11:15:27.156Z</time></trkpt><trkpt lat="42.1576893" lon="13.6752022"><ele>849.0</ele><time>2026-05-02T11:15:29.157Z</time></trkpt><trkpt lat="42.1576567" lon="13.6750735"><ele>849.4000000000001</ele><time>2026-05-02T11:15:31.158Z</time></trkpt><trkpt lat="42.1576375" lon="13.6749373"><ele>849.8</ele><time>2026-05-02T11:15:33.158Z</time></trkpt><trkpt lat="42.15763" lon="13.6748103"><ele>850.2</ele><time>2026-05-02T11:15:35.152Z</time></trkpt><trkpt lat="42.157638" lon="13.6746614"><ele>850.5999999999999</ele><time>2026-05-02T11:15:37.151Z</time></trkpt><trkpt lat="42.1576458" lon="13.6745179"><ele>851.0</ele><time>2026-05-02T11:15:39.151Z</time></trkpt><trkpt lat="42.157658" lon="13.6744145"><ele>851.0000000000001</ele><time>2026-05-02T11:15:41.148Z</time></trkpt><trkpt lat="42.1576985" lon="13.6743042"><ele>851.0</ele><time>2026-05-02T11:15:43.144Z</time></trkpt><trkpt lat="42.1577179" lon="13.6742212"><ele>851.0</ele><time>2026-05-02T11:15:45.149Z</time></trkpt><trkpt lat="42.1576269" lon="13.6742423"><ele>851.0</ele><time>2026-05-02T11:15:48.152Z</time></trkpt><trkpt lat="42.1575366" lon="13.6743694"><ele>851.0000000000001</ele><time>2026-05-02T11:15:50.148Z</time></trkpt><trkpt lat="42.1574948" lon="13.674442"><ele>851.0</ele><time>2026-05-02T11:15:51.149Z</time></trkpt><trkpt lat="42.1574324" lon="13.6745648"><ele>851.6666666666667</ele><time>2026-05-02T11:15:53.147Z</time></trkpt><trkpt lat="42.1573872" lon="13.6746711"><ele>852.3333333333334</ele><time>2026-05-02T11:15:55.151Z</time></trkpt><trkpt lat="42.1573627" lon="13.6747798"><ele>853.0</ele><time>2026-05-02T11:15:57.144Z</time></trkpt><trkpt lat="42.1573421" lon="13.6749127"><ele>853.6666666666667</ele><time>2026-05-02T11:15:59.147Z</time></trkpt><trkpt lat="42.1573246" lon="13.6750219"><ele>854.3333333333334</ele><time>2026-05-02T11:16:01.152Z</time></trkpt><trkpt lat="42.1572617" lon="13.6750402"><ele>855.0</ele><time>2026-05-02T11:16:05.154Z</time></trkpt><trkpt lat="42.1572546" lon="13.6749433"><ele>849.3333333333334</ele><time>2026-05-02T11:16:09.155Z</time></trkpt><trkpt lat="42.1572453" lon="13.6748483"><ele>843.6666666666667</ele><time>2026-05-02T11:16:11.152Z</time></trkpt><trkpt lat="42.1572369" lon="13.674726"><ele>838.0</ele><time>2026-05-02T11:16:13.155Z</time></trkpt><trkpt lat="42.1572202" lon="13.6745851"><ele>832.3333333333334</ele><time>2026-05-02T11:16:15.157Z</time></trkpt><trkpt lat="42.1572196" lon="13.6744561"><ele>826.6666666666667</ele><time>2026-05-02T11:16:17.157Z</time></trkpt><trkpt lat="42.1572223" lon="13.6743521"><ele>821.0</ele><time>2026-05-02T11:16:19.157Z</time></trkpt><trkpt lat="42.1572296" lon="13.6742411"><ele>821.0000000000001</ele><time>2026-05-02T11:16:21.153Z</time></trkpt><trkpt lat="42.1572352" lon="13.6741502"><ele>821.0</ele><time>2026-05-02T11:16:23.148Z</time></trkpt><trkpt lat="42.1572618" lon="13.6740555"><ele>821.0</ele><time>2026-05-02T11:16:25.15Z</time></trkpt><trkpt lat="42.1572666" lon="13.6739425"><ele>821.0</ele><time>2026-05-02T11:16:28.154Z</time></trkpt><trkpt lat="42.1572074" lon="13.6738984"><ele>821.0000000000001</ele><time>2026-05-02T11:16:30.148Z</time></trkpt><trkpt lat="42.1571222" lon="13.6738871"><ele>821.0</ele><time>2026-05-02T11:16:32.148Z</time></trkpt><trkpt lat="42.1570433" lon="13.6739445"><ele>821.0000000000001</ele><time>2026-05-02T11:16:34.145Z</time></trkpt><trkpt lat="42.1569656" lon="13.6740198"><ele>821.0</ele><time>2026-05-02T11:16:36.138Z</time></trkpt><trkpt lat="42.1569012" lon="13.6741016"><ele>821.0</ele><time>2026-05-02T11:16:38.147Z</time></trkpt><trkpt lat="42.1568511" lon="13.6741849"><ele>821.0</ele><time>2026-05-02T11:16:40.152Z</time></trkpt><trkpt lat="42.1568322" lon="13.6742725"><ele>821.0000000000001</ele><time>2026-05-02T11:16:42.145Z</time></trkpt><trkpt lat="42.1568415" lon="13.6743685"><ele>821.0</ele><time>2026-05-02T11:16:44.151Z</time></trkpt><trkpt lat="42.1568359" lon="13.6744628"><ele>819.0</ele><time>2026-05-02T11:16:46.153Z</time></trkpt><trkpt lat="42.1568086" lon="13.6745624"><ele>817.0</ele><time>2026-05-02T11:16:48.147Z</time></trkpt><trkpt lat="42.1567631" lon="13.6746984"><ele>815.0</ele><time>2026-05-02T11:16:50.15Z</time></trkpt><trkpt lat="42.1567212" lon="13.6748336"><ele>813.0</ele><time>2026-05-02T11:16:52.144Z</time></trkpt><trkpt lat="42.1566813" lon="13.6749489"><ele>811.0</ele><time>2026-05-02T11:16:54.143Z</time></trkpt><trkpt lat="42.1566467" lon="13.6750554"><ele>811.0</ele><time>2026-05-02T11:16:56.152Z</time></trkpt><trkpt lat="42.156602" lon="13.675167"><ele>811.0</ele><time>2026-05-02T11:16:58.145Z</time></trkpt><trkpt lat="42.1565531" lon="13.6752962"><ele>811.0</ele><time>2026-05-02T11:17:00.147Z</time></trkpt><trkpt lat="42.1565105" lon="13.6754424"><ele>811.0</ele><time>2026-05-02T11:17:02.151Z</time></trkpt><trkpt lat="42.1564719" lon="13.6755945"><ele>811.0</ele><time>2026-05-02T11:17:04.152Z</time></trkpt><trkpt lat="42.1564324" lon="13.6757435"><ele>811.7142857142857</ele><time>2026-05-02T11:17:06.148Z</time></trkpt><trkpt lat="42.1563976" lon="13.6758519"><ele>812.4285714285714</ele><time>2026-05-02T11:17:08.145Z</time></trkpt><trkpt lat="42.1563573" lon="13.6759335"><ele>813.1428571428571</ele><time>2026-05-02T11:17:11.145Z</time></trkpt><trkpt lat="42.1563497" lon="13.6760186"><ele>813.8571428571429</ele><time>2026-05-02T11:17:13.144Z</time></trkpt><trkpt lat="42.1563621" lon="13.6761089"><ele>814.5714285714287</ele><time>2026-05-02T11:17:15.146Z</time></trkpt><trkpt lat="42.1563685" lon="13.6762105"><ele>815.2857142857143</ele><time>2026-05-02T11:17:17.146Z</time></trkpt><trkpt lat="42.156369" lon="13.6763056"><ele>816.0</ele><time>2026-05-02T11:17:19.144Z</time></trkpt><trkpt lat="42.1563669" lon="13.6764184"><ele>816.0</ele><time>2026-05-02T11:17:21.14Z</time></trkpt><trkpt lat="42.1563942" lon="13.6765541"><ele>816.0</ele><time>2026-05-02T11:17:23.14Z</time></trkpt><trkpt lat="42.1564157" lon="13.6767052"><ele>816.0</ele><time>2026-05-02T11:17:25.144Z</time></trkpt><trkpt lat="42.1564499" lon="13.6768414"><ele>816.0</ele><time>2026-05-02T11:17:27.144Z</time></trkpt><trkpt lat="42.1564738" lon="13.6769645"><ele>816.0</ele><time>2026-05-02T11:17:29.151Z</time></trkpt><trkpt lat="42.1565007" lon="13.6770631"><ele>809.0</ele><time>2026-05-02T11:17:31.145Z</time></trkpt><trkpt lat="42.1565618" lon="13.6771822"><ele>802.0</ele><time>2026-05-02T11:17:48.142Z</time></trkpt><trkpt lat="42.1566023" lon="13.677272"><ele>795.0</ele><time>2026-05-02T11:17:49.143Z</time></trkpt><trkpt lat="42.1566401" lon="13.6773919"><ele>788.0</ele><time>2026-05-02T11:17:50.137Z</time></trkpt><trkpt lat="42.1566945" lon="13.6775334"><ele>781.0</ele><time>2026-05-02T11:17:51.14Z</time></trkpt><trkpt lat="42.1567349" lon="13.6776926"><ele>779.5</ele><time>2026-05-02T11:17:52.15Z</time></trkpt><trkpt lat="42.15676" lon="13.6778614"><ele>778.0</ele><time>2026-05-02T11:17:53.145Z</time></trkpt><trkpt lat="42.1567891" lon="13.6780295"><ele>776.5</ele><time>2026-05-02T11:17:54.138Z</time></trkpt><trkpt lat="42.1568327" lon="13.678182"><ele>775.0</ele><time>2026-05-02T11:17:55.145Z</time></trkpt><trkpt lat="42.1568759" lon="13.6783361"><ele>775.0</ele><time>2026-05-02T11:17:56.146Z</time></trkpt><trkpt lat="42.1569182" lon="13.6784851"><ele>775.0</ele><time>2026-05-02T11:17:57.14Z</time></trkpt><trkpt lat="42.1569572" lon="13.6786335"><ele>775.0</ele><time>2026-05-02T11:17:58.143Z</time></trkpt><trkpt lat="42.156989" lon="13.6787907"><ele>775.0</ele><time>2026-05-02T11:17:59.151Z</time></trkpt><trkpt lat="42.1570225" lon="13.6789376"><ele>775.4999999999999</ele><time>2026-05-02T11:18:00.139Z</time></trkpt><trkpt lat="42.157057" lon="13.6790631"><ele>776.0</ele><time>2026-05-02T11:18:01.144Z</time></trkpt><trkpt lat="42.157096" lon="13.6791768"><ele>776.5</ele><time>2026-05-02T11:18:02.138Z</time></trkpt><trkpt lat="42.1571354" lon="13.6792886"><ele>777.0</ele><time>2026-05-02T11:18:03.141Z</time></trkpt><trkpt lat="42.1571718" lon="13.6793758"><ele>777.4999999999999</ele><time>2026-05-02T11:18:04.142Z</time></trkpt><trkpt lat="42.1572035" lon="13.6794517"><ele>778.0</ele><time>2026-05-02T11:18:05.138Z</time></trkpt><trkpt lat="42.1572173" lon="13.6795439"><ele>775.2</ele><time>2026-05-02T11:18:06.133Z</time></trkpt><trkpt lat="42.1572092" lon="13.6796519"><ele>772.4</ele><time>2026-05-02T11:18:07.134Z</time></trkpt><trkpt lat="42.1571828" lon="13.6797759"><ele>769.6</ele><time>2026-05-02T11:18:08.139Z</time></trkpt><trkpt lat="42.1571593" lon="13.6799186"><ele>766.8000000000001</ele><time>2026-05-02T11:18:09.139Z</time></trkpt><trkpt lat="42.1571348" lon="13.6800689"><ele>764.0</ele><time>2026-05-02T11:18:10.143Z</time></trkpt><trkpt lat="42.157111" lon="13.6802236"><ele>760.2</ele><time>2026-05-02T11:18:11.139Z</time></trkpt><trkpt lat="42.1570904" lon="13.6803746"><ele>756.4000000000001</ele><time>2026-05-02T11:18:12.14Z</time></trkpt><trkpt lat="42.1570705" lon="13.6805217"><ele>752.6</ele><time>2026-05-02T11:18:13.147Z</time></trkpt><trkpt lat="42.1570384" lon="13.6806662"><ele>748.8</ele><time>2026-05-02T11:18:14.139Z</time></trkpt><trkpt lat="42.1569949" lon="13.6808031"><ele>745.0</ele><time>2026-05-02T11:18:15.144Z</time></trkpt><trkpt lat="42.1569424" lon="13.6809331"><ele>745.0</ele><time>2026-05-02T11:18:16.143Z</time></trkpt><trkpt lat="42.1568806" lon="13.6810528"><ele>745.0</ele><time>2026-05-02T11:18:17.145Z</time></trkpt><trkpt lat="42.1568125" lon="13.681162"><ele>745.0</ele><time>2026-05-02T11:18:18.142Z</time></trkpt><trkpt lat="42.156732" lon="13.6812596"><ele>745.0</ele><time>2026-05-02T11:18:19.148Z</time></trkpt><trkpt lat="42.156644" lon="13.6813542"><ele>745.0</ele><time>2026-05-02T11:18:20.144Z</time></trkpt><trkpt lat="42.1565555" lon="13.681453"><ele>740.6666666666667</ele><time>2026-05-02T11:18:21.145Z</time></trkpt><trkpt lat="42.1564703" lon="13.6815542"><ele>736.3333333333334</ele><time>2026-05-02T11:18:22.648Z</time></trkpt><trkpt lat="42.1562988" lon="13.681757"><ele>732.0</ele><time>2026-05-02T11:18:24.148Z</time></trkpt><trkpt lat="42.1562056" lon="13.6818488"><ele>731.25</ele><time>2026-05-02T11:18:25.15Z</time></trkpt><trkpt lat="42.1561089" lon="13.6819419"><ele>730.5</ele><time>2026-05-02T11:18:26.15Z</time></trkpt><trkpt lat="42.1560107" lon="13.6820288"><ele>729.75</ele><time>2026-05-02T11:18:27.142Z</time></trkpt><trkpt lat="42.155914" lon="13.6821194"><ele>729.0</ele><time>2026-05-02T11:18:28.143Z</time></trkpt><trkpt lat="42.1558145" lon="13.6822043"><ele>729.0</ele><time>2026-05-02T11:18:29.147Z</time></trkpt><trkpt lat="42.1557244" lon="13.6822846"><ele>729.0</ele><time>2026-05-02T11:18:30.145Z</time></trkpt><trkpt lat="42.1556369" lon="13.6823612"><ele>729.0</ele><time>2026-05-02T11:18:31.143Z</time></trkpt><trkpt lat="42.1555517" lon="13.6824358"><ele>729.0</ele><time>2026-05-02T11:18:32.151Z</time></trkpt><trkpt lat="42.1554635" lon="13.682498"><ele>729.0</ele><time>2026-05-02T11:18:33.146Z</time></trkpt><trkpt lat="42.1553833" lon="13.6825556"><ele>726.6666666666666</ele><time>2026-05-02T11:18:34.151Z</time></trkpt><trkpt lat="42.1553065" lon="13.6826154"><ele>724.3333333333334</ele><time>2026-05-02T11:18:35.147Z</time></trkpt><trkpt lat="42.155237" lon="13.6826808"><ele>722.0</ele><time>2026-05-02T11:18:36.146Z</time></trkpt><trkpt lat="42.1551721" lon="13.6827449"><ele>719.6666666666667</ele><time>2026-05-02T11:18:37.149Z</time></trkpt><trkpt lat="42.1551144" lon="13.6828032"><ele>717.3333333333334</ele><time>2026-05-02T11:18:38.151Z</time></trkpt><trkpt lat="42.1550589" lon="13.6828682"><ele>715.0</ele><time>2026-05-02T11:18:39.15Z</time></trkpt><trkpt lat="42.1550019" lon="13.6829325"><ele>715.0</ele><time>2026-05-02T11:18:40.146Z</time></trkpt><trkpt lat="42.1549462" lon="13.6830071"><ele>715.0</ele><time>2026-05-02T11:18:41.145Z</time></trkpt><trkpt lat="42.1548903" lon="13.6830763"><ele>715.0</ele><time>2026-05-02T11:18:42.141Z</time></trkpt><trkpt lat="42.1548392" lon="13.683144"><ele>715.0</ele><time>2026-05-02T11:18:43.14Z</time></trkpt><trkpt lat="42.1547862" lon="13.6832117"><ele>715.0</ele><time>2026-05-02T11:18:44.15Z</time></trkpt><trkpt lat="42.1547381" lon="13.6832818"><ele>715.0</ele><time>2026-05-02T11:18:45.148Z</time></trkpt><trkpt lat="42.1546905" lon="13.6833427"><ele>715.0</ele><time>2026-05-02T11:18:46.145Z</time></trkpt><trkpt lat="42.1546007" lon="13.6834493"><ele>712.8</ele><time>2026-05-02T11:18:48.153Z</time></trkpt><trkpt lat="42.1545112" lon="13.6835674"><ele>710.6</ele><time>2026-05-02T11:18:50.152Z</time></trkpt><trkpt lat="42.1544373" lon="13.6836672"><ele>708.4000000000001</ele><time>2026-05-02T11:18:52.145Z</time></trkpt><trkpt lat="42.1543708" lon="13.6836656"><ele>706.2</ele><time>2026-05-02T11:18:55.151Z</time></trkpt><trkpt lat="42.1543123" lon="13.6836088"><ele>704.0</ele><time>2026-05-02T11:18:57.149Z</time></trkpt><trkpt lat="42.1541878" lon="13.6836054"><ele>703.0</ele><time>2026-05-02T11:18:59.152Z</time></trkpt><trkpt lat="42.1541174" lon="13.6836353"><ele>702.0</ele><time>2026-05-02T11:19:00.15Z</time></trkpt><trkpt lat="42.1540507" lon="13.6836912"><ele>701.0</ele><time>2026-05-02T11:19:01.151Z</time></trkpt><trkpt lat="42.1539931" lon="13.6837703"><ele>700.0</ele><time>2026-05-02T11:19:02.154Z</time></trkpt><trkpt lat="42.1539518" lon="13.6838459"><ele>699.0</ele><time>2026-05-02T11:19:03.147Z</time></trkpt><trkpt lat="42.153939" lon="13.6839991"><ele>698.0</ele><time>2026-05-02T11:19:05.143Z</time></trkpt><trkpt lat="42.153977" lon="13.6840683"><ele>698.0</ele><time>2026-05-02T11:19:06.144Z</time></trkpt><trkpt lat="42.1540298" lon="13.6841203"><ele>698.0</ele><time>2026-05-02T11:19:07.147Z</time></trkpt><trkpt lat="42.1541144" lon="13.6842278"><ele>698.0</ele><time>2026-05-02T11:19:09.159Z</time></trkpt><trkpt lat="42.1541124" lon="13.6843205"><ele>698.0</ele><time>2026-05-02T11:19:10.151Z</time></trkpt><trkpt lat="42.1540832" lon="13.6844317"><ele>698.0</ele><time>2026-05-02T11:19:11.16Z</time></trkpt><trkpt lat="42.1540441" lon="13.68455"><ele>698.0</ele><time>2026-05-02T11:19:12.146Z</time></trkpt><trkpt lat="42.154008" lon="13.6846705"><ele>697.1666666666666</ele><time>2026-05-02T11:19:13.152Z</time></trkpt><trkpt lat="42.1539751" lon="13.684783"><ele>696.3333333333333</ele><time>2026-05-02T11:19:14.159Z</time></trkpt><trkpt lat="42.1539469" lon="13.684893"><ele>695.5</ele><time>2026-05-02T11:19:15.163Z</time></trkpt><trkpt lat="42.1539201" lon="13.684997"><ele>694.6666666666666</ele><time>2026-05-02T11:19:16.154Z</time></trkpt><trkpt lat="42.1538929" lon="13.6850969"><ele>693.8333333333334</ele><time>2026-05-02T11:19:17.164Z</time></trkpt><trkpt lat="42.15386" lon="13.6851961"><ele>693.0</ele><time>2026-05-02T11:19:18.154Z</time></trkpt><trkpt lat="42.1538271" lon="13.6853056"><ele>693.0</ele><time>2026-05-02T11:19:19.159Z</time></trkpt><trkpt lat="42.1537916" lon="13.6854288"><ele>693.0</ele><time>2026-05-02T11:19:20.154Z</time></trkpt><trkpt lat="42.153755" lon="13.6855608"><ele>693.0</ele><time>2026-05-02T11:19:21.159Z</time></trkpt><trkpt lat="42.1537205" lon="13.6857014"><ele>693.0</ele><time>2026-05-02T11:19:22.162Z</time></trkpt><trkpt lat="42.1536892" lon="13.6858528"><ele>693.0</ele><time>2026-05-02T11:19:23.156Z</time></trkpt><trkpt lat="42.1536528" lon="13.6859972"><ele>690.8</ele><time>2026-05-02T11:19:24.156Z</time></trkpt><trkpt lat="42.1536193" lon="13.6861292"><ele>688.5999999999999</ele><time>2026-05-02T11:19:25.157Z</time></trkpt><trkpt lat="42.153586" lon="13.6862573"><ele>686.4000000000001</ele><time>2026-05-02T11:19:26.157Z</time></trkpt><trkpt lat="42.153555" lon="13.6863879"><ele>684.2</ele><time>2026-05-02T11:19:27.148Z</time></trkpt><trkpt lat="42.1535256" lon="13.6865225"><ele>682.0</ele><time>2026-05-02T11:19:28.156Z</time></trkpt><trkpt lat="42.153496" lon="13.6866584"><ele>682.0</ele><time>2026-05-02T11:19:29.158Z</time></trkpt><trkpt lat="42.1534682" lon="13.6868018"><ele>682.0</ele><time>2026-05-02T11:19:30.158Z</time></trkpt><trkpt lat="42.1534389" lon="13.6869443"><ele>682.0</ele><time>2026-05-02T11:19:31.159Z</time></trkpt><trkpt lat="42.1534119" lon="13.6870826"><ele>682.0</ele><time>2026-05-02T11:19:32.16Z</time></trkpt><trkpt lat="42.1533916" lon="13.6872155"><ele>682.0</ele><time>2026-05-02T11:19:33.165Z</time></trkpt><trkpt lat="42.1533731" lon="13.6873422"><ele>680.8333333333334</ele><time>2026-05-02T11:19:34.158Z</time></trkpt><trkpt lat="42.1533524" lon="13.6874635"><ele>679.6666666666667</ele><time>2026-05-02T11:19:35.166Z</time></trkpt><trkpt lat="42.1533332" lon="13.6875693"><ele>678.5</ele><time>2026-05-02T11:19:36.155Z</time></trkpt><trkpt lat="42.1533236" lon="13.6876582"><ele>677.3333333333334</ele><time>2026-05-02T11:19:37.154Z</time></trkpt><trkpt lat="42.153285" lon="13.6877477"><ele>676.1666666666666</ele><time>2026-05-02T11:19:39.164Z</time></trkpt><trkpt lat="42.1531868" lon="13.6876916"><ele>675.0</ele><time>2026-05-02T11:19:42.155Z</time></trkpt><trkpt lat="42.1530732" lon="13.6876803"><ele>675.0</ele><time>2026-05-02T11:19:44.161Z</time></trkpt><trkpt lat="42.1529971" lon="13.6877186"><ele>675.0</ele><time>2026-05-02T11:19:45.155Z</time></trkpt><trkpt lat="42.1529166" lon="13.6877731"><ele>675.0</ele><time>2026-05-02T11:19:46.162Z</time></trkpt><trkpt lat="42.1528266" lon="13.6878395"><ele>675.0</ele><time>2026-05-02T11:19:47.163Z</time></trkpt><trkpt lat="42.1527339" lon="13.6878938"><ele>675.0</ele><time>2026-05-02T11:19:48.158Z</time></trkpt><trkpt lat="42.1526449" lon="13.6879456"><ele>674.2</ele><time>2026-05-02T11:19:49.156Z</time></trkpt><trkpt lat="42.1525596" lon="13.6880158"><ele>673.4</ele><time>2026-05-02T11:19:50.162Z</time></trkpt><trkpt lat="42.1524869" lon="13.6881104"><ele>672.5999999999999</ele><time>2026-05-02T11:19:51.161Z</time></trkpt><trkpt lat="42.1524238" lon="13.6882273"><ele>671.8</ele><time>2026-05-02T11:19:52.168Z</time></trkpt><trkpt lat="42.1523637" lon="13.6883619"><ele>671.0</ele><time>2026-05-02T11:19:53.166Z</time></trkpt><trkpt lat="42.152301" lon="13.6885105"><ele>669.4</ele><time>2026-05-02T11:19:54.164Z</time></trkpt><trkpt lat="42.1522322" lon="13.6886402"><ele>667.8</ele><time>2026-05-02T11:19:55.164Z</time></trkpt><trkpt lat="42.1521608" lon="13.6887452"><ele>666.1999999999999</ele><time>2026-05-02T11:19:56.166Z</time></trkpt><trkpt lat="42.152083" lon="13.688841"><ele>664.5999999999999</ele><time>2026-05-02T11:19:57.153Z</time></trkpt><trkpt lat="42.1519924" lon="13.6889221"><ele>663.0</ele><time>2026-05-02T11:19:58.155Z</time></trkpt><trkpt lat="42.1518918" lon="13.6890039"><ele>663.0</ele><time>2026-05-02T11:19:59.161Z</time></trkpt><trkpt lat="42.1517806" lon="13.6890874"><ele>663.0</ele><time>2026-05-02T11:20:00.158Z</time></trkpt><trkpt lat="42.1516738" lon="13.6891672"><ele>663.0</ele><time>2026-05-02T11:20:01.169Z</time></trkpt><trkpt lat="42.1515626" lon="13.6892344"><ele>663.0</ele><time>2026-05-02T11:20:02.157Z</time></trkpt><trkpt lat="42.151456" lon="13.6892976"><ele>662.8</ele><time>2026-05-02T11:20:03.161Z</time></trkpt><trkpt lat="42.1513543" lon="13.6893589"><ele>662.5999999999999</ele><time>2026-05-02T11:20:04.158Z</time></trkpt><trkpt lat="42.1512644" lon="13.689412"><ele>662.4000000000001</ele><time>2026-05-02T11:20:05.157Z</time></trkpt><trkpt lat="42.1511942" lon="13.6894551"><ele>662.2</ele><time>2026-05-02T11:20:06.157Z</time></trkpt><trkpt lat="42.1511245" lon="13.6895338"><ele>662.0</ele><time>2026-05-02T11:20:08.154Z</time></trkpt><trkpt lat="42.1510645" lon="13.6897107"><ele>662.0</ele><time>2026-05-02T11:20:10.165Z</time></trkpt><trkpt lat="42.1510349" lon="13.6898586"><ele>662.0</ele><time>2026-05-02T11:20:11.158Z</time></trkpt><trkpt lat="42.1510064" lon="13.6900354"><ele>662.0</ele><time>2026-05-02T11:20:12.157Z</time></trkpt><trkpt lat="42.1509696" lon="13.6902269"><ele>662.0</ele><time>2026-05-02T11:20:13.15Z</time></trkpt><trkpt lat="42.150929" lon="13.6904181"><ele>662.0</ele><time>2026-05-02T11:20:14.159Z</time></trkpt><trkpt lat="42.1508665" lon="13.6906295"><ele>662.0</ele><time>2026-05-02T11:20:15.15Z</time></trkpt><trkpt lat="42.1508001" lon="13.6908246"><ele>662.0</ele><time>2026-05-02T11:20:16.156Z</time></trkpt><trkpt lat="42.1507509" lon="13.6909992"><ele>660.75</ele><time>2026-05-02T11:20:17.158Z</time></trkpt><trkpt lat="42.1506949" lon="13.6911715"><ele>659.5</ele><time>2026-05-02T11:20:18.153Z</time></trkpt><trkpt lat="42.1506529" lon="13.6913128"><ele>658.25</ele><time>2026-05-02T11:20:19.154Z</time></trkpt><trkpt lat="42.1506036" lon="13.69146"><ele>657.0</ele><time>2026-05-02T11:20:20.155Z</time></trkpt><trkpt lat="42.1505562" lon="13.6916097"><ele>657.0</ele><time>2026-05-02T11:20:21.158Z</time></trkpt><trkpt lat="42.1504936" lon="13.6917543"><ele>657.0</ele><time>2026-05-02T11:20:22.158Z</time></trkpt><trkpt lat="42.1504243" lon="13.6919017"><ele>657.0</ele><time>2026-05-02T11:20:23.159Z</time></trkpt><trkpt lat="42.1503664" lon="13.6920232"><ele>657.0</ele><time>2026-05-02T11:20:24.155Z</time></trkpt><trkpt lat="42.1503143" lon="13.6921412"><ele>657.6</ele><time>2026-05-02T11:20:25.162Z</time></trkpt><trkpt lat="42.1502662" lon="13.6922736"><ele>658.2</ele><time>2026-05-02T11:20:26.168Z</time></trkpt><trkpt lat="42.1502325" lon="13.6924031"><ele>658.8</ele><time>2026-05-02T11:20:27.165Z</time></trkpt><trkpt lat="42.1501953" lon="13.6925206"><ele>659.4</ele><time>2026-05-02T11:20:28.165Z</time></trkpt><trkpt lat="42.1501608" lon="13.6926302"><ele>660.0</ele><time>2026-05-02T11:20:29.164Z</time></trkpt><trkpt lat="42.1501326" lon="13.6927191"><ele>659.6666666666666</ele><time>2026-05-02T11:20:30.159Z</time></trkpt><trkpt lat="42.1500653" lon="13.6928306"><ele>659.3333333333334</ele><time>2026-05-02T11:20:32.156Z</time></trkpt><trkpt lat="42.149998" lon="13.6928573"><ele>659.0</ele><time>2026-05-02T11:20:33.156Z</time></trkpt><trkpt lat="42.1499231" lon="13.6928904"><ele>658.6666666666667</ele><time>2026-05-02T11:20:34.165Z</time></trkpt><trkpt lat="42.1498613" lon="13.6929379"><ele>658.3333333333334</ele><time>2026-05-02T11:20:35.153Z</time></trkpt><trkpt lat="42.1498079" lon="13.6930109"><ele>658.0</ele><time>2026-05-02T11:20:36.155Z</time></trkpt><trkpt lat="42.149754" lon="13.6931057"><ele>656.4</ele><time>2026-05-02T11:20:37.149Z</time></trkpt><trkpt lat="42.149696" lon="13.6932217"><ele>654.8</ele><time>2026-05-02T11:20:38.161Z</time></trkpt><trkpt lat="42.1496326" lon="13.6933487"><ele>653.2</ele><time>2026-05-02T11:20:39.153Z</time></trkpt><trkpt lat="42.1495724" lon="13.6934778"><ele>651.6</ele><time>2026-05-02T11:20:40.156Z</time></trkpt><trkpt lat="42.1495105" lon="13.6936132"><ele>650.0</ele><time>2026-05-02T11:20:41.162Z</time></trkpt><trkpt lat="42.1494536" lon="13.6937518"><ele>650.0</ele><time>2026-05-02T11:20:42.145Z</time></trkpt><trkpt lat="42.1493882" lon="13.6938925"><ele>650.0</ele><time>2026-05-02T11:20:43.151Z</time></trkpt><trkpt lat="42.1493258" lon="13.6940305"><ele>650.0</ele><time>2026-05-02T11:20:44.16Z</time></trkpt><trkpt lat="42.149262" lon="13.6941666"><ele>650.0</ele><time>2026-05-02T11:20:45.161Z</time></trkpt><trkpt lat="42.149202" lon="13.6943021"><ele>650.0</ele><time>2026-05-02T11:20:46.161Z</time></trkpt><trkpt lat="42.1491368" lon="13.6944261"><ele>650.0</ele><time>2026-05-02T11:20:47.166Z</time></trkpt><trkpt lat="42.1490737" lon="13.6945334"><ele>650.0</ele><time>2026-05-02T11:20:48.161Z</time></trkpt><trkpt lat="42.1490071" lon="13.6946406"><ele>650.0</ele><time>2026-05-02T11:20:49.161Z</time></trkpt><trkpt lat="42.1489343" lon="13.6947587"><ele>650.0</ele><time>2026-05-02T11:20:50.15Z</time></trkpt><trkpt lat="42.1488663" lon="13.6948818"><ele>650.0</ele><time>2026-05-02T11:20:51.15Z</time></trkpt><trkpt lat="42.1488089" lon="13.6949984"><ele>650.0</ele><time>2026-05-02T11:20:52.169Z</time></trkpt><trkpt lat="42.1487542" lon="13.6951"><ele>650.0</ele><time>2026-05-02T11:20:53.154Z</time></trkpt><trkpt lat="42.1486862" lon="13.6951894"><ele>650.0</ele><time>2026-05-02T11:20:54.154Z</time></trkpt><trkpt lat="42.1485952" lon="13.6952657"><ele>650.0</ele><time>2026-05-02T11:20:55.146Z</time></trkpt><trkpt lat="42.1485035" lon="13.6953351"><ele>649.8</ele><time>2026-05-02T11:20:56.155Z</time></trkpt><trkpt lat="42.1484102" lon="13.6953978"><ele>649.6</ele><time>2026-05-02T11:20:57.152Z</time></trkpt><trkpt lat="42.1483213" lon="13.6954701"><ele>649.4000000000001</ele><time>2026-05-02T11:20:58.155Z</time></trkpt><trkpt lat="42.1482538" lon="13.6955686"><ele>649.2</ele><time>2026-05-02T11:20:59.158Z</time></trkpt><trkpt lat="42.1482002" lon="13.6956771"><ele>649.0</ele><time>2026-05-02T11:21:00.157Z</time></trkpt><trkpt lat="42.148159" lon="13.6957801"><ele>649.0</ele><time>2026-05-02T11:21:01.161Z</time></trkpt><trkpt lat="42.1481224" lon="13.6958679"><ele>649.0</ele><time>2026-05-02T11:21:02.158Z</time></trkpt><trkpt lat="42.1480249" lon="13.6959792"><ele>649.0</ele><time>2026-05-02T11:21:04.152Z</time></trkpt><trkpt lat="42.1479493" lon="13.6960143"><ele>649.0</ele><time>2026-05-02T11:21:05.158Z</time></trkpt><trkpt lat="42.1478503" lon="13.6960225"><ele>649.0</ele><time>2026-05-02T11:21:06.155Z</time></trkpt><trkpt lat="42.1477446" lon="13.6960265"><ele>649.0</ele><time>2026-05-02T11:21:07.152Z</time></trkpt><trkpt lat="42.1476207" lon="13.6960337"><ele>649.0</ele><time>2026-05-02T11:21:08.163Z</time></trkpt><trkpt lat="42.1474992" lon="13.6960485"><ele>649.0</ele><time>2026-05-02T11:21:09.155Z</time></trkpt><trkpt lat="42.1473825" lon="13.6960658"><ele>649.0</ele><time>2026-05-02T11:21:10.161Z</time></trkpt><trkpt lat="42.1472715" lon="13.6960824"><ele>648.1666666666667</ele><time>2026-05-02T11:21:11.152Z</time></trkpt><trkpt lat="42.1471697" lon="13.6960993"><ele>647.3333333333334</ele><time>2026-05-02T11:21:12.154Z</time></trkpt><trkpt lat="42.1470822" lon="13.6960969"><ele>646.5</ele><time>2026-05-02T11:21:13.158Z</time></trkpt><trkpt lat="42.1470118" lon="13.6960761"><ele>645.6666666666666</ele><time>2026-05-02T11:21:14.15Z</time></trkpt><trkpt lat="42.1469457" lon="13.6960392"><ele>644.8333333333333</ele><time>2026-05-02T11:21:15.157Z</time></trkpt><trkpt lat="42.1468703" lon="13.6959849"><ele>644.0</ele><time>2026-05-02T11:21:16.158Z</time></trkpt><trkpt lat="42.1467847" lon="13.6959347"><ele>644.0</ele><time>2026-05-02T11:21:17.162Z</time></trkpt><trkpt lat="42.1466931" lon="13.6958914"><ele>644.0</ele><time>2026-05-02T11:21:18.154Z</time></trkpt><trkpt lat="42.1466048" lon="13.6958502"><ele>644.0</ele><time>2026-05-02T11:21:19.154Z</time></trkpt><trkpt lat="42.146518" lon="13.6958218"><ele>644.0</ele><time>2026-05-02T11:21:20.157Z</time></trkpt><trkpt lat="42.1464321" lon="13.6957955"><ele>644.0</ele><time>2026-05-02T11:21:21.154Z</time></trkpt><trkpt lat="42.1463388" lon="13.6957668"><ele>641.6</ele><time>2026-05-02T11:21:22.155Z</time></trkpt><trkpt lat="42.1462404" lon="13.6957523"><ele>639.2</ele><time>2026-05-02T11:21:23.157Z</time></trkpt><trkpt lat="42.1461371" lon="13.6957548"><ele>636.8000000000001</ele><time>2026-05-02T11:21:24.148Z</time></trkpt><trkpt lat="42.1460364" lon="13.695783"><ele>634.4000000000001</ele><time>2026-05-02T11:21:25.151Z</time></trkpt><trkpt lat="42.145938" lon="13.6958253"><ele>632.0</ele><time>2026-05-02T11:21:26.158Z</time></trkpt><trkpt lat="42.1458312" lon="13.6958727"><ele>632.0</ele><time>2026-05-02T11:21:27.145Z</time></trkpt><trkpt lat="42.1457224" lon="13.6959276"><ele>632.0</ele><time>2026-05-02T11:21:28.156Z</time></trkpt><trkpt lat="42.145611" lon="13.6959886"><ele>632.0</ele><time>2026-05-02T11:21:29.159Z</time></trkpt><trkpt lat="42.1454965" lon="13.696049"><ele>632.0</ele><time>2026-05-02T11:21:30.158Z</time></trkpt><trkpt lat="42.1453782" lon="13.6961124"><ele>629.0</ele><time>2026-05-02T11:21:31.161Z</time></trkpt><trkpt lat="42.1452626" lon="13.6961665"><ele>626.0</ele><time>2026-05-02T11:21:32.159Z</time></trkpt><trkpt lat="42.1451439" lon="13.6962136"><ele>623.0</ele><time>2026-05-02T11:21:33.162Z</time></trkpt><trkpt lat="42.1450174" lon="13.6962525"><ele>620.0</ele><time>2026-05-02T11:21:34.158Z</time></trkpt><trkpt lat="42.144889" lon="13.6962794"><ele>617.25</ele><time>2026-05-02T11:21:35.162Z</time></trkpt><trkpt lat="42.144762" lon="13.6963009"><ele>614.5</ele><time>2026-05-02T11:21:36.159Z</time></trkpt><trkpt lat="42.144639" lon="13.6963124"><ele>611.75</ele><time>2026-05-02T11:21:37.163Z</time></trkpt><trkpt lat="42.1445191" lon="13.6963197"><ele>609.0</ele><time>2026-05-02T11:21:38.16Z</time></trkpt><trkpt lat="42.1444042" lon="13.6963335"><ele>609.0</ele><time>2026-05-02T11:21:39.165Z</time></trkpt><trkpt lat="42.1442928" lon="13.6963682"><ele>609.0</ele><time>2026-05-02T11:21:40.16Z</time></trkpt><trkpt lat="42.1441878" lon="13.6964171"><ele>609.0</ele><time>2026-05-02T11:21:41.17Z</time></trkpt><trkpt lat="42.1440878" lon="13.6964897"><ele>609.0</ele><time>2026-05-02T11:21:42.162Z</time></trkpt><trkpt lat="42.1439916" lon="13.6965846"><ele>606.25</ele><time>2026-05-02T11:21:43.166Z</time></trkpt><trkpt lat="42.1438947" lon="13.696692"><ele>603.5</ele><time>2026-05-02T11:21:44.165Z</time></trkpt><trkpt lat="42.1437863" lon="13.69679"><ele>600.75</ele><time>2026-05-02T11:21:45.161Z</time></trkpt><trkpt lat="42.1436702" lon="13.6968688"><ele>598.0</ele><time>2026-05-02T11:21:46.164Z</time></trkpt><trkpt lat="42.1435527" lon="13.6969432"><ele>597.25</ele><time>2026-05-02T11:21:47.163Z</time></trkpt><trkpt lat="42.1434351" lon="13.6970085"><ele>596.5</ele><time>2026-05-02T11:21:48.165Z</time></trkpt><trkpt lat="42.1433187" lon="13.6970836"><ele>595.75</ele><time>2026-05-02T11:21:49.166Z</time></trkpt><trkpt lat="42.1432053" lon="13.6971767"><ele>595.0</ele><time>2026-05-02T11:21:50.171Z</time></trkpt><trkpt lat="42.1430922" lon="13.6972752"><ele>593.75</ele><time>2026-05-02T11:21:51.166Z</time></trkpt><trkpt lat="42.1429758" lon="13.6973761"><ele>592.5</ele><time>2026-05-02T11:21:52.172Z</time></trkpt><trkpt lat="42.1428519" lon="13.6974755"><ele>591.25</ele><time>2026-05-02T11:21:53.17Z</time></trkpt><trkpt lat="42.1427376" lon="13.6975711"><ele>590.0</ele><time>2026-05-02T11:21:54.167Z</time></trkpt><trkpt lat="42.1426268" lon="13.6976496"><ele>590.0</ele><time>2026-05-02T11:21:55.164Z</time></trkpt><trkpt lat="42.1425065" lon="13.6977258"><ele>590.0</ele><time>2026-05-02T11:21:56.167Z</time></trkpt><trkpt lat="42.1423937" lon="13.6978042"><ele>590.0</ele><time>2026-05-02T11:21:57.163Z</time></trkpt><trkpt lat="42.1422909" lon="13.6978765"><ele>590.0</ele><time>2026-05-02T11:21:58.169Z</time></trkpt><trkpt lat="42.1421878" lon="13.6979451"><ele>586.75</ele><time>2026-05-02T11:21:59.166Z</time></trkpt><trkpt lat="42.1420673" lon="13.6980142"><ele>583.5</ele><time>2026-05-02T11:22:00.163Z</time></trkpt><trkpt lat="42.1419433" lon="13.6980643"><ele>580.25</ele><time>2026-05-02T11:22:01.163Z</time></trkpt><trkpt lat="42.1418198" lon="13.6980987"><ele>577.0</ele><time>2026-05-02T11:22:02.159Z</time></trkpt><trkpt lat="42.141699" lon="13.6981121"><ele>577.0</ele><time>2026-05-02T11:22:03.16Z</time></trkpt><trkpt lat="42.1415868" lon="13.6981072"><ele>577.0</ele><time>2026-05-02T11:22:04.158Z</time></trkpt><trkpt lat="42.1414914" lon="13.6980888"><ele>577.0</ele><time>2026-05-02T11:22:05.16Z</time></trkpt><trkpt lat="42.1414072" lon="13.6980628"><ele>577.0</ele><time>2026-05-02T11:22:06.169Z</time></trkpt><trkpt lat="42.1413197" lon="13.6980242"><ele>577.0</ele><time>2026-05-02T11:22:07.159Z</time></trkpt><trkpt lat="42.1412346" lon="13.6979808"><ele>575.0</ele><time>2026-05-02T11:22:08.161Z</time></trkpt><trkpt lat="42.1411498" lon="13.6979327"><ele>573.0</ele><time>2026-05-02T11:22:09.16Z</time></trkpt><trkpt lat="42.1410739" lon="13.6978715"><ele>571.0</ele><time>2026-05-02T11:22:10.162Z</time></trkpt><trkpt lat="42.1410118" lon="13.6978046"><ele>569.0</ele><time>2026-05-02T11:22:11.156Z</time></trkpt><trkpt lat="42.1409666" lon="13.697734"><ele>567.0</ele><time>2026-05-02T11:22:12.165Z</time></trkpt><trkpt lat="42.1409275" lon="13.6975937"><ele>565.0</ele><time>2026-05-02T11:22:14.165Z</time></trkpt><trkpt lat="42.1408323" lon="13.6976415"><ele>565.0</ele><time>2026-05-02T11:22:18.158Z</time></trkpt><trkpt lat="42.1407895" lon="13.6977258"><ele>565.0</ele><time>2026-05-02T11:22:19.159Z</time></trkpt><trkpt lat="42.1407404" lon="13.6978396"><ele>565.0</ele><time>2026-05-02T11:22:20.15Z</time></trkpt><trkpt lat="42.1406909" lon="13.6979558"><ele>565.0</ele><time>2026-05-02T11:22:21.166Z</time></trkpt><trkpt lat="42.1406515" lon="13.6980536"><ele>565.0</ele><time>2026-05-02T11:22:22.159Z</time></trkpt><trkpt lat="42.1405811" lon="13.6981528"><ele>565.3333333333334</ele><time>2026-05-02T11:22:24.16Z</time></trkpt><trkpt lat="42.1405173" lon="13.6980788"><ele>565.6666666666667</ele><time>2026-05-02T11:22:26.174Z</time></trkpt><trkpt lat="42.1404879" lon="13.6979799"><ele>566.0</ele><time>2026-05-02T11:22:27.154Z</time></trkpt><trkpt lat="42.1404568" lon="13.6978759"><ele>566.3333333333334</ele><time>2026-05-02T11:22:28.163Z</time></trkpt><trkpt lat="42.1404103" lon="13.6977704"><ele>566.6666666666666</ele><time>2026-05-02T11:22:29.158Z</time></trkpt><trkpt lat="42.1403563" lon="13.6976781"><ele>567.0</ele><time>2026-05-02T11:22:30.157Z</time></trkpt><trkpt lat="42.1402947" lon="13.6975795"><ele>567.0</ele><time>2026-05-02T11:22:31.167Z</time></trkpt><trkpt lat="42.1402255" lon="13.6974863"><ele>567.0</ele><time>2026-05-02T11:22:32.161Z</time></trkpt><trkpt lat="42.1401625" lon="13.6974071"><ele>567.0</ele><time>2026-05-02T11:22:33.17Z</time></trkpt><trkpt lat="42.1401028" lon="13.6973549"><ele>567.0</ele><time>2026-05-02T11:22:34.158Z</time></trkpt><trkpt lat="42.1400006" lon="13.6973208"><ele>567.0</ele><time>2026-05-02T11:22:36.156Z</time></trkpt><trkpt lat="42.13989" lon="13.6973561"><ele>568.4</ele><time>2026-05-02T11:22:38.16Z</time></trkpt><trkpt lat="42.1398145" lon="13.6973829"><ele>569.8000000000001</ele><time>2026-05-02T11:22:39.161Z</time></trkpt><trkpt lat="42.1397461" lon="13.6973991"><ele>571.2</ele><time>2026-05-02T11:22:40.15Z</time></trkpt><trkpt lat="42.1396267" lon="13.6973979"><ele>572.6</ele><time>2026-05-02T11:22:42.142Z</time></trkpt><trkpt lat="42.1395148" lon="13.697325"><ele>574.0</ele><time>2026-05-02T11:22:44.149Z</time></trkpt><trkpt lat="42.1394351" lon="13.6972791"><ele>574.0</ele><time>2026-05-02T11:22:45.161Z</time></trkpt><trkpt lat="42.1393517" lon="13.6972452"><ele>574.0</ele><time>2026-05-02T11:22:46.156Z</time></trkpt><trkpt lat="42.1392719" lon="13.697233"><ele>574.0</ele><time>2026-05-02T11:22:47.157Z</time></trkpt><trkpt lat="42.1391905" lon="13.6972324"><ele>574.0</ele><time>2026-05-02T11:22:48.164Z</time></trkpt><trkpt lat="42.1391114" lon="13.6972148"><ele>574.0</ele><time>2026-05-02T11:22:49.155Z</time></trkpt><trkpt lat="42.1390462" lon="13.697186"><ele>574.0</ele><time>2026-05-02T11:22:50.156Z</time></trkpt><trkpt lat="42.1389933" lon="13.6971394"><ele>575.8333333333334</ele><time>2026-05-02T11:22:51.156Z</time></trkpt><trkpt lat="42.1389422" lon="13.6970849"><ele>577.6666666666667</ele><time>2026-05-02T11:22:52.159Z</time></trkpt><trkpt lat="42.138878" lon="13.6970194"><ele>579.5</ele><time>2026-05-02T11:22:53.169Z</time></trkpt><trkpt lat="42.1388184" lon="13.6969445"><ele>581.3333333333334</ele><time>2026-05-02T11:22:54.166Z</time></trkpt><trkpt lat="42.1387722" lon="13.6968717"><ele>583.1666666666666</ele><time>2026-05-02T11:22:55.167Z</time></trkpt><trkpt lat="42.1387318" lon="13.6967956"><ele>585.0</ele><time>2026-05-02T11:22:56.168Z</time></trkpt><trkpt lat="42.1386212" lon="13.6966855"><ele>585.0</ele><time>2026-05-02T11:22:58.163Z</time></trkpt><trkpt lat="42.1385459" lon="13.6966319"><ele>585.0</ele><time>2026-05-02T11:22:59.164Z</time></trkpt><trkpt lat="42.1384592" lon="13.6965813"><ele>585.0</ele><time>2026-05-02T11:23:00.164Z</time></trkpt><trkpt lat="42.1383755" lon="13.6965367"><ele>585.0</ele><time>2026-05-02T11:23:01.165Z</time></trkpt><trkpt lat="42.1382981" lon="13.6965002"><ele>585.0</ele><time>2026-05-02T11:23:02.163Z</time></trkpt><trkpt lat="42.1382157" lon="13.6964665"><ele>585.0</ele><time>2026-05-02T11:23:03.16Z</time></trkpt><trkpt lat="42.1381393" lon="13.6964313"><ele>585.8333333333334</ele><time>2026-05-02T11:23:04.161Z</time></trkpt><trkpt lat="42.1380631" lon="13.6963987"><ele>586.6666666666666</ele><time>2026-05-02T11:23:05.157Z</time></trkpt><trkpt lat="42.1379901" lon="13.6963671"><ele>587.5</ele><time>2026-05-02T11:23:06.157Z</time></trkpt><trkpt lat="42.1379076" lon="13.6963309"><ele>588.3333333333333</ele><time>2026-05-02T11:23:07.158Z</time></trkpt><trkpt lat="42.137829" lon="13.6962932"><ele>589.1666666666666</ele><time>2026-05-02T11:23:08.156Z</time></trkpt><trkpt lat="42.1377645" lon="13.6962676"><ele>590.0</ele><time>2026-05-02T11:23:09.159Z</time></trkpt><trkpt lat="42.1376712" lon="13.6961959"><ele>590.0</ele><time>2026-05-02T11:23:11.149Z</time></trkpt><trkpt lat="42.1376125" lon="13.6961447"><ele>590.0</ele><time>2026-05-02T11:23:12.147Z</time></trkpt><trkpt lat="42.1375475" lon="13.6961012"><ele>590.0</ele><time>2026-05-02T11:23:13.145Z</time></trkpt><trkpt lat="42.1374812" lon="13.6960533"><ele>590.0</ele><time>2026-05-02T11:23:14.142Z</time></trkpt><trkpt lat="42.1374137" lon="13.6960229"><ele>590.0</ele><time>2026-05-02T11:23:15.144Z</time></trkpt><trkpt lat="42.1373023" lon="13.6960023"><ele>590.0</ele><time>2026-05-02T11:23:17.148Z</time></trkpt><trkpt lat="42.1372291" lon="13.6960007"><ele>590.5</ele><time>2026-05-02T11:23:19.15Z</time></trkpt><trkpt lat="42.1371594" lon="13.6960214"><ele>591.0</ele><time>2026-05-02T11:23:21.143Z</time></trkpt><trkpt lat="42.1370764" lon="13.6960669"><ele>591.5</ele><time>2026-05-02T11:23:23.149Z</time></trkpt><trkpt lat="42.1369939" lon="13.696099"><ele>592.0</ele><time>2026-05-02T11:23:25.144Z</time></trkpt><trkpt lat="42.1369141" lon="13.6961217"><ele>592.5</ele><time>2026-05-02T11:23:27.156Z</time></trkpt><trkpt lat="42.1368477" lon="13.6961319"><ele>593.0</ele><time>2026-05-02T11:23:28.154Z</time></trkpt><trkpt lat="42.1367751" lon="13.6961318"><ele>593.4285714285713</ele><time>2026-05-02T11:23:29.152Z</time></trkpt><trkpt lat="42.1367064" lon="13.6961293"><ele>593.8571428571429</ele><time>2026-05-02T11:23:30.149Z</time></trkpt><trkpt lat="42.1366421" lon="13.6961182"><ele>594.2857142857142</ele><time>2026-05-02T11:23:31.159Z</time></trkpt><trkpt lat="42.136577" lon="13.6961044"><ele>594.7142857142857</ele><time>2026-05-02T11:23:32.154Z</time></trkpt><trkpt lat="42.136507" lon="13.6960904"><ele>595.1428571428571</ele><time>2026-05-02T11:23:33.156Z</time></trkpt><trkpt lat="42.1364273" lon="13.6960679"><ele>595.5714285714286</ele><time>2026-05-02T11:23:34.161Z</time></trkpt><trkpt lat="42.1363489" lon="13.6960539"><ele>596.0</ele><time>2026-05-02T11:23:35.162Z</time></trkpt><trkpt lat="42.1362673" lon="13.696059"><ele>596.5</ele><time>2026-05-02T11:23:36.164Z</time></trkpt><trkpt lat="42.1361789" lon="13.6960727"><ele>597.0</ele><time>2026-05-02T11:23:37.161Z</time></trkpt><trkpt lat="42.1360892" lon="13.6960825"><ele>597.5</ele><time>2026-05-02T11:23:38.157Z</time></trkpt><trkpt lat="42.1360069" lon="13.6960877"><ele>598.0</ele><time>2026-05-02T11:23:39.159Z</time></trkpt><trkpt lat="42.1359335" lon="13.6960891"><ele>598.5</ele><time>2026-05-02T11:23:40.159Z</time></trkpt><trkpt lat="42.1358609" lon="13.6960769"><ele>599.0</ele><time>2026-05-02T11:23:41.147Z</time></trkpt><trkpt lat="42.1357848" lon="13.6960472"><ele>601.3333333333333</ele><time>2026-05-02T11:23:42.15Z</time></trkpt><trkpt lat="42.1356995" lon="13.6960117"><ele>603.6666666666666</ele><time>2026-05-02T11:23:43.154Z</time></trkpt><trkpt lat="42.1356125" lon="13.6959723"><ele>606.0</ele><time>2026-05-02T11:23:44.149Z</time></trkpt><trkpt lat="42.1355231" lon="13.6959265"><ele>608.3333333333334</ele><time>2026-05-02T11:23:45.151Z</time></trkpt><trkpt lat="42.1354406" lon="13.6958923"><ele>610.6666666666667</ele><time>2026-05-02T11:23:46.146Z</time></trkpt><trkpt lat="42.1353572" lon="13.695862"><ele>613.0</ele><time>2026-05-02T11:23:47.153Z</time></trkpt><trkpt lat="42.1352778" lon="13.6958384"><ele>613.0</ele><time>2026-05-02T11:23:48.158Z</time></trkpt><trkpt lat="42.1351984" lon="13.6958285"><ele>613.0</ele><time>2026-05-02T11:23:49.146Z</time></trkpt><trkpt lat="42.1351328" lon="13.695832"><ele>613.0</ele><time>2026-05-02T11:23:50.144Z</time></trkpt><trkpt lat="42.1350125" lon="13.6958507"><ele>613.0</ele><time>2026-05-02T11:23:52.152Z</time></trkpt><trkpt lat="42.1349489" lon="13.6958597"><ele>613.0</ele><time>2026-05-02T11:23:53.157Z</time></trkpt><trkpt lat="42.134876" lon="13.6958711"><ele>613.0</ele><time>2026-05-02T11:23:54.154Z</time></trkpt><trkpt lat="42.1348092" lon="13.6958848"><ele>614.0</ele><time>2026-05-02T11:23:55.157Z</time></trkpt><trkpt lat="42.1347365" lon="13.6958866"><ele>615.0</ele><time>2026-05-02T11:23:56.162Z</time></trkpt><trkpt lat="42.1346533" lon="13.695889"><ele>616.0</ele><time>2026-05-02T11:23:57.163Z</time></trkpt><trkpt lat="42.1345664" lon="13.6958946"><ele>617.0</ele><time>2026-05-02T11:23:58.159Z</time></trkpt><trkpt lat="42.1344973" lon="13.6959033"><ele>618.0</ele><time>2026-05-02T11:23:59.161Z</time></trkpt><trkpt lat="42.1344141" lon="13.6959495"><ele>619.0</ele><time>2026-05-02T11:24:01.164Z</time></trkpt><trkpt lat="42.1343528" lon="13.6960262"><ele>617.8</ele><time>2026-05-02T11:24:03.157Z</time></trkpt><trkpt lat="42.1342665" lon="13.6961655"><ele>616.5999999999999</ele><time>2026-05-02T11:24:05.164Z</time></trkpt><trkpt lat="42.1342228" lon="13.6962603"><ele>615.4</ele><time>2026-05-02T11:24:06.164Z</time></trkpt><trkpt lat="42.1341768" lon="13.6963517"><ele>614.1999999999999</ele><time>2026-05-02T11:24:07.157Z</time></trkpt><trkpt lat="42.1341258" lon="13.6964433"><ele>613.0</ele><time>2026-05-02T11:24:08.161Z</time></trkpt><trkpt lat="42.1340681" lon="13.6965277"><ele>613.1666666666667</ele><time>2026-05-02T11:24:09.154Z</time></trkpt><trkpt lat="42.1340098" lon="13.696605"><ele>613.3333333333334</ele><time>2026-05-02T11:24:10.161Z</time></trkpt><trkpt lat="42.1339447" lon="13.6966894"><ele>613.5</ele><time>2026-05-02T11:24:11.165Z</time></trkpt><trkpt lat="42.1338776" lon="13.696764"><ele>613.6666666666666</ele><time>2026-05-02T11:24:12.164Z</time></trkpt><trkpt lat="42.1338035" lon="13.6968325"><ele>613.8333333333333</ele><time>2026-05-02T11:24:13.158Z</time></trkpt><trkpt lat="42.1337276" lon="13.6969091"><ele>614.0</ele><time>2026-05-02T11:24:14.16Z</time></trkpt><trkpt lat="42.133654" lon="13.6970056"><ele>612.4</ele><time>2026-05-02T11:24:15.164Z</time></trkpt><trkpt lat="42.1335861" lon="13.6970986"><ele>610.8</ele><time>2026-05-02T11:24:16.163Z</time></trkpt><trkpt lat="42.1335293" lon="13.6971853"><ele>609.2</ele><time>2026-05-02T11:24:17.167Z</time></trkpt><trkpt lat="42.133474" lon="13.6972742"><ele>607.6</ele><time>2026-05-02T11:24:18.166Z</time></trkpt><trkpt lat="42.1334037" lon="13.6973714"><ele>606.0</ele><time>2026-05-02T11:24:19.164Z</time></trkpt><trkpt lat="42.133327" lon="13.6974796"><ele>606.0</ele><time>2026-05-02T11:24:20.163Z</time></trkpt><trkpt lat="42.1332398" lon="13.6975856"><ele>606.0</ele><time>2026-05-02T11:24:21.16Z</time></trkpt><trkpt lat="42.1331554" lon="13.6976899"><ele>606.0</ele><time>2026-05-02T11:24:22.165Z</time></trkpt><trkpt lat="42.1330649" lon="13.6977949"><ele>606.0</ele><time>2026-05-02T11:24:23.163Z</time></trkpt><trkpt lat="42.1329681" lon="13.6978984"><ele>607.4</ele><time>2026-05-02T11:24:24.164Z</time></trkpt><trkpt lat="42.1328823" lon="13.6980004"><ele>608.8</ele><time>2026-05-02T11:24:25.161Z</time></trkpt><trkpt lat="42.1327984" lon="13.6981003"><ele>610.1999999999999</ele><time>2026-05-02T11:24:26.164Z</time></trkpt><trkpt lat="42.1327157" lon="13.698198"><ele>611.6</ele><time>2026-05-02T11:24:27.161Z</time></trkpt><trkpt lat="42.1326269" lon="13.6982827"><ele>613.0</ele><time>2026-05-02T11:24:28.16Z</time></trkpt><trkpt lat="42.1325491" lon="13.6983662"><ele>613.0</ele><time>2026-05-02T11:24:29.162Z</time></trkpt><trkpt lat="42.1324823" lon="13.6984606"><ele>613.0</ele><time>2026-05-02T11:24:30.153Z</time></trkpt><trkpt lat="42.13243" lon="13.6985744"><ele>613.0</ele><time>2026-05-02T11:24:31.156Z</time></trkpt><trkpt lat="42.1323843" lon="13.698695"><ele>613.0</ele><time>2026-05-02T11:24:32.161Z</time></trkpt><trkpt lat="42.1323502" lon="13.6988193"><ele>613.0</ele><time>2026-05-02T11:24:33.15Z</time></trkpt><trkpt lat="42.1323074" lon="13.69895"><ele>613.4</ele><time>2026-05-02T11:24:34.156Z</time></trkpt><trkpt lat="42.1322531" lon="13.6990904"><ele>613.8</ele><time>2026-05-02T11:24:35.153Z</time></trkpt><trkpt lat="42.1321892" lon="13.6992216"><ele>614.2</ele><time>2026-05-02T11:24:36.165Z</time></trkpt><trkpt lat="42.1321222" lon="13.6993442"><ele>614.6</ele><time>2026-05-02T11:24:37.155Z</time></trkpt><trkpt lat="42.1320623" lon="13.699448"><ele>615.0</ele><time>2026-05-02T11:24:38.16Z</time></trkpt><trkpt lat="42.1320113" lon="13.6995368"><ele>615.0</ele><time>2026-05-02T11:24:39.162Z</time></trkpt><trkpt lat="42.1319548" lon="13.6996153"><ele>615.0</ele><time>2026-05-02T11:24:40.159Z</time></trkpt><trkpt lat="42.131902" lon="13.6997026"><ele>615.0</ele><time>2026-05-02T11:24:41.161Z</time></trkpt><trkpt lat="42.1318469" lon="13.6997854"><ele>615.0</ele><time>2026-05-02T11:24:42.16Z</time></trkpt><trkpt lat="42.131784" lon="13.6998757"><ele>615.0</ele><time>2026-05-02T11:24:43.159Z</time></trkpt><trkpt lat="42.131711" lon="13.6999687"><ele>615.0</ele><time>2026-05-02T11:24:44.163Z</time></trkpt><trkpt lat="42.1316295" lon="13.700056"><ele>615.4</ele><time>2026-05-02T11:24:45.159Z</time></trkpt><trkpt lat="42.1315466" lon="13.7001354"><ele>615.8</ele><time>2026-05-02T11:24:46.159Z</time></trkpt><trkpt lat="42.1314624" lon="13.7002015"><ele>616.2</ele><time>2026-05-02T11:24:47.16Z</time></trkpt><trkpt lat="42.1313795" lon="13.7002614"><ele>616.6</ele><time>2026-05-02T11:24:48.16Z</time></trkpt><trkpt lat="42.1312943" lon="13.7003393"><ele>617.0</ele><time>2026-05-02T11:24:49.164Z</time></trkpt><trkpt lat="42.1312076" lon="13.7004547"><ele>617.0</ele><time>2026-05-02T11:24:50.157Z</time></trkpt><trkpt lat="42.1311259" lon="13.7005931"><ele>617.0</ele><time>2026-05-02T11:24:51.156Z</time></trkpt><trkpt lat="42.1310443" lon="13.7007342"><ele>617.0</ele><time>2026-05-02T11:24:52.163Z</time></trkpt><trkpt lat="42.1309474" lon="13.7008676"><ele>617.0</ele><time>2026-05-02T11:24:53.154Z</time></trkpt><trkpt lat="42.1308364" lon="13.7009962"><ele>620.0</ele><time>2026-05-02T11:24:54.15Z</time></trkpt><trkpt lat="42.1307073" lon="13.7011072"><ele>623.0</ele><time>2026-05-02T11:24:55.164Z</time></trkpt><trkpt lat="42.1305924" lon="13.7011988"><ele>626.0</ele><time>2026-05-02T11:24:56.167Z</time></trkpt><trkpt lat="42.1305033" lon="13.7013273"><ele>629.0</ele><time>2026-05-02T11:24:57.164Z</time></trkpt><trkpt lat="42.1304293" lon="13.7014209"><ele>629.0</ele><time>2026-05-02T11:24:58.163Z</time></trkpt><trkpt lat="42.1303561" lon="13.7015182"><ele>629.0</ele><time>2026-05-02T11:24:59.17Z</time></trkpt><trkpt lat="42.1302894" lon="13.7015848"><ele>629.0</ele><time>2026-05-02T11:25:00.164Z</time></trkpt><trkpt lat="42.1302299" lon="13.7016497"><ele>629.0</ele><time>2026-05-02T11:25:01.173Z</time></trkpt><trkpt lat="42.1301763" lon="13.7016958"><ele>629.0</ele><time>2026-05-02T11:25:02.16Z</time></trkpt><trkpt lat="42.1301067" lon="13.7016759"><ele>629.0</ele><time>2026-05-02T11:25:05.158Z</time></trkpt><trkpt lat="42.1300551" lon="13.7015053"><ele>629.0</ele><time>2026-05-02T11:25:07.163Z</time></trkpt><trkpt lat="42.1300131" lon="13.7013912"><ele>629.0</ele><time>2026-05-02T11:25:08.169Z</time></trkpt><trkpt lat="42.1299735" lon="13.7013001"><ele>629.0</ele><time>2026-05-02T11:25:09.168Z</time></trkpt><trkpt lat="42.1299405" lon="13.7012222"><ele>629.0</ele><time>2026-05-02T11:25:10.161Z</time></trkpt><trkpt lat="42.1299054" lon="13.7011351"><ele>629.0</ele><time>2026-05-02T11:25:11.162Z</time></trkpt><trkpt lat="42.1298696" lon="13.7010434"><ele>629.0</ele><time>2026-05-02T11:25:12.168Z</time></trkpt><trkpt lat="42.1298322" lon="13.700937"><ele>631.6666666666666</ele><time>2026-05-02T11:25:13.167Z</time></trkpt><trkpt lat="42.1297945" lon="13.7008291"><ele>634.3333333333333</ele><time>2026-05-02T11:25:14.167Z</time></trkpt><trkpt lat="42.1297535" lon="13.700727"><ele>637.0</ele><time>2026-05-02T11:25:15.167Z</time></trkpt><trkpt lat="42.1297096" lon="13.7006338"><ele>639.6666666666666</ele><time>2026-05-02T11:25:16.163Z</time></trkpt><trkpt lat="42.1296671" lon="13.7005467"><ele>642.3333333333334</ele><time>2026-05-02T11:25:17.163Z</time></trkpt><trkpt lat="42.129622" lon="13.7004618"><ele>645.0</ele><time>2026-05-02T11:25:18.162Z</time></trkpt><trkpt lat="42.1295816" lon="13.7003774"><ele>645.0</ele><time>2026-05-02T11:25:19.167Z</time></trkpt><trkpt lat="42.1294903" lon="13.7002894"><ele>645.0</ele><time>2026-05-02T11:25:21.17Z</time></trkpt><trkpt lat="42.1293945" lon="13.7002893"><ele>645.0</ele><time>2026-05-02T11:25:23.175Z</time></trkpt><trkpt lat="42.1292704" lon="13.7002797"><ele>645.0</ele><time>2026-05-02T11:25:25.17Z</time></trkpt><trkpt lat="42.129194" lon="13.7002474"><ele>645.0</ele><time>2026-05-02T11:25:26.167Z</time></trkpt><trkpt lat="42.129113" lon="13.7002004"><ele>648.0</ele><time>2026-05-02T11:25:27.166Z</time></trkpt><trkpt lat="42.1290433" lon="13.7001462"><ele>651.0</ele><time>2026-05-02T11:25:28.162Z</time></trkpt><trkpt lat="42.128994" lon="13.7000892"><ele>654.0</ele><time>2026-05-02T11:25:29.151Z</time></trkpt><trkpt lat="42.1289379" lon="13.7000023"><ele>657.0</ele><time>2026-05-02T11:25:31.16Z</time></trkpt><trkpt lat="42.12887" lon="13.6999903"><ele>660.0</ele><time>2026-05-02T11:25:36.162Z</time></trkpt><trkpt lat="42.1288002" lon="13.7000111"><ele>663.0</ele><time>2026-05-02T11:25:41.164Z</time></trkpt><trkpt lat="42.1287458" lon="13.6999342"><ele>663.0</ele><time>2026-05-02T11:25:44.165Z</time></trkpt><trkpt lat="42.1286665" lon="13.6998975"><ele>663.0</ele><time>2026-05-02T11:25:47.152Z</time></trkpt><trkpt lat="42.1285399" lon="13.6999473"><ele>663.0</ele><time>2026-05-02T11:25:49.154Z</time></trkpt><trkpt lat="42.128469" lon="13.6999753"><ele>663.0</ele><time>2026-05-02T11:25:50.155Z</time></trkpt><trkpt lat="42.1284012" lon="13.7000026"><ele>663.0</ele><time>2026-05-02T11:25:51.149Z</time></trkpt><trkpt lat="42.1283351" lon="13.7000167"><ele>663.0</ele><time>2026-05-02T11:25:52.156Z</time></trkpt><trkpt lat="42.1282725" lon="13.7000287"><ele>665.5999999999999</ele><time>2026-05-02T11:25:53.158Z</time></trkpt><trkpt lat="42.1281713" lon="13.7000555"><ele>668.1999999999999</ele><time>2026-05-02T11:25:55.156Z</time></trkpt><trkpt lat="42.1280673" lon="13.7000805"><ele>670.8</ele><time>2026-05-02T11:25:57.159Z</time></trkpt><trkpt lat="42.1279754" lon="13.7001098"><ele>673.4</ele><time>2026-05-02T11:25:59.161Z</time></trkpt><trkpt lat="42.1278618" lon="13.7001469"><ele>676.0</ele><time>2026-05-02T11:26:01.161Z</time></trkpt><trkpt lat="42.1277989" lon="13.7001625"><ele>676.0</ele><time>2026-05-02T11:26:02.144Z</time></trkpt><trkpt lat="42.1276788" lon="13.7001805"><ele>676.0</ele><time>2026-05-02T11:26:04.142Z</time></trkpt><trkpt lat="42.1276155" lon="13.7001745"><ele>676.0</ele><time>2026-05-02T11:26:05.152Z</time></trkpt><trkpt lat="42.1275481" lon="13.7001783"><ele>676.0</ele><time>2026-05-02T11:26:06.149Z</time></trkpt><trkpt lat="42.1274756" lon="13.7001834"><ele>676.0</ele><time>2026-05-02T11:26:07.149Z</time></trkpt><trkpt lat="42.1274014" lon="13.7001898"><ele>676.0</ele><time>2026-05-02T11:26:08.145Z</time></trkpt><trkpt lat="42.1272865" lon="13.7001733"><ele>674.3333333333334</ele><time>2026-05-02T11:26:10.141Z</time></trkpt><trkpt lat="42.1272155" lon="13.7001421"><ele>672.6666666666667</ele><time>2026-05-02T11:26:12.153Z</time></trkpt><trkpt lat="42.1271499" lon="13.7001328"><ele>671.0</ele><time>2026-05-02T11:26:28.168Z</time></trkpt><trkpt lat="42.1270648" lon="13.7001321"><ele>669.3333333333334</ele><time>2026-05-02T11:26:31.161Z</time></trkpt><trkpt lat="42.1269908" lon="13.700113"><ele>667.6666666666666</ele><time>2026-05-02T11:26:33.151Z</time></trkpt><trkpt lat="42.1269017" lon="13.7000847"><ele>666.0</ele><time>2026-05-02T11:26:35.145Z</time></trkpt><trkpt lat="42.1268391" lon="13.699997"><ele>666.0</ele><time>2026-05-02T11:26:37.139Z</time></trkpt><trkpt lat="42.1268025" lon="13.6998495"><ele>666.0</ele><time>2026-05-02T11:26:39.136Z</time></trkpt><trkpt lat="42.1267538" lon="13.6997019"><ele>666.0</ele><time>2026-05-02T11:26:41.138Z</time></trkpt><trkpt lat="42.1267244" lon="13.6995678"><ele>666.0</ele><time>2026-05-02T11:26:43.13Z</time></trkpt><trkpt lat="42.1267072" lon="13.6994716"><ele>666.0</ele><time>2026-05-02T11:26:45.138Z</time></trkpt><trkpt lat="42.1267019" lon="13.6993704"><ele>665.0</ele><time>2026-05-02T11:26:47.128Z</time></trkpt><trkpt lat="42.126646" lon="13.6993089"><ele>664.0</ele><time>2026-05-02T11:26:49.135Z</time></trkpt><trkpt lat="42.1265674" lon="13.6993116"><ele>663.0</ele><time>2026-05-02T11:26:51.142Z</time></trkpt><trkpt lat="42.1264633" lon="13.6993044"><ele>662.0</ele><time>2026-05-02T11:26:53.149Z</time></trkpt><trkpt lat="42.1263748" lon="13.6993364"><ele>661.0</ele><time>2026-05-02T11:26:55.154Z</time></trkpt><trkpt lat="42.1263211" lon="13.6992468"><ele>660.0</ele><time>2026-05-02T11:26:57.148Z</time></trkpt><trkpt lat="42.126299" lon="13.6991624"><ele>660.0</ele><time>2026-05-02T11:26:58.149Z</time></trkpt><trkpt lat="42.1262536" lon="13.6990856"><ele>660.0</ele><time>2026-05-02T11:26:59.157Z</time></trkpt><trkpt lat="42.1262086" lon="13.699024"><ele>660.0</ele><time>2026-05-02T11:27:00.147Z</time></trkpt><trkpt lat="42.1261123" lon="13.6989084"><ele>660.0</ele><time>2026-05-02T11:27:02.142Z</time></trkpt><trkpt lat="42.1260827" lon="13.6988229"><ele>660.0</ele><time>2026-05-02T11:27:03.156Z</time></trkpt><trkpt lat="42.1260617" lon="13.6987145"><ele>660.0</ele><time>2026-05-02T11:27:04.148Z</time></trkpt><trkpt lat="42.1260665" lon="13.6985875"><ele>661.2</ele><time>2026-05-02T11:27:05.146Z</time></trkpt><trkpt lat="42.1260859" lon="13.6984702"><ele>662.4</ele><time>2026-05-02T11:27:06.142Z</time></trkpt><trkpt lat="42.1261008" lon="13.6983381"><ele>663.5999999999999</ele><time>2026-05-02T11:27:07.151Z</time></trkpt><trkpt lat="42.1261088" lon="13.6982168"><ele>664.8</ele><time>2026-05-02T11:27:08.149Z</time></trkpt><trkpt lat="42.1261241" lon="13.6981011"><ele>666.0</ele><time>2026-05-02T11:27:09.148Z</time></trkpt><trkpt lat="42.1261363" lon="13.6979787"><ele>666.0</ele><time>2026-05-02T11:27:10.154Z</time></trkpt><trkpt lat="42.1261424" lon="13.697846"><ele>666.0</ele><time>2026-05-02T11:27:11.153Z</time></trkpt><trkpt lat="42.1261429" lon="13.6977033"><ele>666.0</ele><time>2026-05-02T11:27:12.152Z</time></trkpt><trkpt lat="42.1261297" lon="13.6975649"><ele>666.0</ele><time>2026-05-02T11:27:13.158Z</time></trkpt><trkpt lat="42.126106" lon="13.6974359"><ele>666.0</ele><time>2026-05-02T11:27:14.161Z</time></trkpt><trkpt lat="42.1260817" lon="13.6973212"><ele>667.8333333333334</ele><time>2026-05-02T11:27:15.154Z</time></trkpt><trkpt lat="42.1260527" lon="13.6972168"><ele>669.6666666666666</ele><time>2026-05-02T11:27:16.158Z</time></trkpt><trkpt lat="42.1260329" lon="13.6971149"><ele>671.5</ele><time>2026-05-02T11:27:17.157Z</time></trkpt><trkpt lat="42.1260094" lon="13.6970085"><ele>673.3333333333333</ele><time>2026-05-02T11:27:18.155Z</time></trkpt><trkpt lat="42.1259801" lon="13.6969016"><ele>675.1666666666666</ele><time>2026-05-02T11:27:19.159Z</time></trkpt><trkpt lat="42.1259527" lon="13.6967899"><ele>677.0</ele><time>2026-05-02T11:27:20.161Z</time></trkpt><trkpt lat="42.1259271" lon="13.6966794"><ele>679.4000000000001</ele><time>2026-05-02T11:27:21.155Z</time></trkpt><trkpt lat="42.1259052" lon="13.6965603"><ele>681.8000000000001</ele><time>2026-05-02T11:27:22.159Z</time></trkpt><trkpt lat="42.1258815" lon="13.6964346"><ele>684.2</ele><time>2026-05-02T11:27:23.155Z</time></trkpt><trkpt lat="42.1258613" lon="13.696299"><ele>686.6</ele><time>2026-05-02T11:27:24.157Z</time></trkpt><trkpt lat="42.1258391" lon="13.6961474"><ele>689.0</ele><time>2026-05-02T11:27:25.152Z</time></trkpt><trkpt lat="42.1258118" lon="13.6959777"><ele>693.6666666666666</ele><time>2026-05-02T11:27:26.158Z</time></trkpt><trkpt lat="42.1257748" lon="13.6957829"><ele>698.3333333333334</ele><time>2026-05-02T11:27:27.149Z</time></trkpt><trkpt lat="42.1257282" lon="13.6955622"><ele>703.0</ele><time>2026-05-02T11:27:28.154Z</time></trkpt><trkpt lat="42.1256825" lon="13.695335"><ele>709.5</ele><time>2026-05-02T11:27:29.152Z</time></trkpt><trkpt lat="42.1256361" lon="13.695115"><ele>716.0</ele><time>2026-05-02T11:27:30.153Z</time></trkpt><trkpt lat="42.1256052" lon="13.694921"><ele>722.5</ele><time>2026-05-02T11:27:31.154Z</time></trkpt><trkpt lat="42.1255889" lon="13.6947529"><ele>729.0</ele><time>2026-05-02T11:27:32.155Z</time></trkpt><trkpt lat="42.1255497" lon="13.6945962"><ele>729.0</ele><time>2026-05-02T11:27:33.16Z</time></trkpt><trkpt lat="42.125509" lon="13.6944352"><ele>729.0</ele><time>2026-05-02T11:27:34.157Z</time></trkpt><trkpt lat="42.1254617" lon="13.6942726"><ele>729.0</ele><time>2026-05-02T11:27:35.156Z</time></trkpt><trkpt lat="42.1254381" lon="13.6941537"><ele>729.0</ele><time>2026-05-02T11:27:36.149Z</time></trkpt><trkpt lat="42.1254062" lon="13.694052"><ele>729.0</ele><time>2026-05-02T11:27:37.152Z</time></trkpt><trkpt lat="42.1253623" lon="13.6939583"><ele>729.7142857142858</ele><time>2026-05-02T11:27:38.154Z</time></trkpt><trkpt lat="42.1253117" lon="13.6938762"><ele>730.4285714285713</ele><time>2026-05-02T11:27:39.151Z</time></trkpt><trkpt lat="42.1252668" lon="13.6938009"><ele>731.1428571428571</ele><time>2026-05-02T11:27:40.154Z</time></trkpt><trkpt lat="42.1252308" lon="13.6937204"><ele>731.8571428571429</ele><time>2026-05-02T11:27:41.15Z</time></trkpt><trkpt lat="42.1251996" lon="13.6936263"><ele>732.5714285714287</ele><time>2026-05-02T11:27:42.153Z</time></trkpt><trkpt lat="42.125171" lon="13.6935371"><ele>733.2857142857142</ele><time>2026-05-02T11:27:43.15Z</time></trkpt><trkpt lat="42.1251477" lon="13.6934543"><ele>734.0</ele><time>2026-05-02T11:27:44.151Z</time></trkpt><trkpt lat="42.1251141" lon="13.6933785"><ele>735.3333333333333</ele><time>2026-05-02T11:27:45.155Z</time></trkpt><trkpt lat="42.1250765" lon="13.693307"><ele>736.6666666666666</ele><time>2026-05-02T11:27:46.157Z</time></trkpt><trkpt lat="42.1250402" lon="13.6932357"><ele>738.0</ele><time>2026-05-02T11:27:47.154Z</time></trkpt><trkpt lat="42.1249387" lon="13.6931047"><ele>739.3333333333334</ele><time>2026-05-02T11:27:49.154Z</time></trkpt><trkpt lat="42.1248769" lon="13.6930426"><ele>740.6666666666667</ele><time>2026-05-02T11:27:50.15Z</time></trkpt><trkpt lat="42.124821" lon="13.6929735"><ele>742.0</ele><time>2026-05-02T11:27:51.146Z</time></trkpt><trkpt lat="42.1247708" lon="13.6928932"><ele>746.0</ele><time>2026-05-02T11:27:52.151Z</time></trkpt><trkpt lat="42.1247058" lon="13.6928136"><ele>750.0</ele><time>2026-05-02T11:27:53.155Z</time></trkpt><trkpt lat="42.1246422" lon="13.6927389"><ele>754.0</ele><time>2026-05-02T11:27:54.141Z</time></trkpt><trkpt lat="42.1245871" lon="13.6926695"><ele>758.0</ele><time>2026-05-02T11:27:55.15Z</time></trkpt><trkpt lat="42.1245386" lon="13.6925963"><ele>762.0</ele><time>2026-05-02T11:27:56.149Z</time></trkpt><trkpt lat="42.1244922" lon="13.6925196"><ele>766.0</ele><time>2026-05-02T11:27:57.153Z</time></trkpt><trkpt lat="42.124456" lon="13.6924423"><ele>766.1666666666667</ele><time>2026-05-02T11:27:58.151Z</time></trkpt><trkpt lat="42.124418" lon="13.6923631"><ele>766.3333333333334</ele><time>2026-05-02T11:27:59.147Z</time></trkpt><trkpt lat="42.124392" lon="13.6922781"><ele>766.5</ele><time>2026-05-02T11:28:00.149Z</time></trkpt><trkpt lat="42.1243501" lon="13.692137"><ele>766.6666666666666</ele><time>2026-05-02T11:28:02.151Z</time></trkpt><trkpt lat="42.1243034" lon="13.6920093"><ele>766.8333333333333</ele><time>2026-05-02T11:28:04.146Z</time></trkpt><trkpt lat="42.1242338" lon="13.6919647"><ele>767.0</ele><time>2026-05-02T11:28:06.147Z</time></trkpt><trkpt lat="42.1241437" lon="13.6920086"><ele>767.0</ele><time>2026-05-02T11:28:08.146Z</time></trkpt><trkpt lat="42.1240694" lon="13.6921457"><ele>767.0</ele><time>2026-05-02T11:28:10.142Z</time></trkpt><trkpt lat="42.1240445" lon="13.6922324"><ele>767.0</ele><time>2026-05-02T11:28:11.147Z</time></trkpt><trkpt lat="42.1240229" lon="13.6923363"><ele>767.0</ele><time>2026-05-02T11:28:12.144Z</time></trkpt><trkpt lat="42.1240017" lon="13.6924656"><ele>767.0</ele><time>2026-05-02T11:28:13.148Z</time></trkpt><trkpt lat="42.1239853" lon="13.6926111"><ele>771.0</ele><time>2026-05-02T11:28:14.138Z</time></trkpt><trkpt lat="42.1239871" lon="13.6927606"><ele>775.0</ele><time>2026-05-02T11:28:15.145Z</time></trkpt><trkpt lat="42.1239878" lon="13.6928891"><ele>779.0</ele><time>2026-05-02T11:28:16.146Z</time></trkpt><trkpt lat="42.1239937" lon="13.6930134"><ele>783.0</ele><time>2026-05-02T11:28:17.144Z</time></trkpt><trkpt lat="42.1239999" lon="13.6931317"><ele>787.0</ele><time>2026-05-02T11:28:18.154Z</time></trkpt><trkpt lat="42.1240077" lon="13.6932574"><ele>786.9999999999999</ele><time>2026-05-02T11:28:19.146Z</time></trkpt><trkpt lat="42.1240113" lon="13.6933777"><ele>787.0</ele><time>2026-05-02T11:28:20.147Z</time></trkpt><trkpt lat="42.1240026" lon="13.6934877"><ele>787.0</ele><time>2026-05-02T11:28:21.149Z</time></trkpt><trkpt lat="42.1239728" lon="13.6935797"><ele>787.0</ele><time>2026-05-02T11:28:22.155Z</time></trkpt><trkpt lat="42.1239317" lon="13.6936651"><ele>786.9999999999999</ele><time>2026-05-02T11:28:23.152Z</time></trkpt><trkpt lat="42.1238514" lon="13.6937274"><ele>787.0</ele><time>2026-05-02T11:28:24.153Z</time></trkpt><trkpt lat="42.123769" lon="13.6937816"><ele>784.6</ele><time>2026-05-02T11:28:25.15Z</time></trkpt><trkpt lat="42.1236849" lon="13.6938185"><ele>782.2</ele><time>2026-05-02T11:28:26.154Z</time></trkpt><trkpt lat="42.1235958" lon="13.6938512"><ele>779.8</ele><time>2026-05-02T11:28:27.153Z</time></trkpt><trkpt lat="42.1234956" lon="13.6938787"><ele>777.4</ele><time>2026-05-02T11:28:28.153Z</time></trkpt><trkpt lat="42.1233957" lon="13.693907"><ele>775.0</ele><time>2026-05-02T11:28:29.156Z</time></trkpt><trkpt lat="42.1233053" lon="13.69393"><ele>778.6666666666666</ele><time>2026-05-02T11:28:30.155Z</time></trkpt><trkpt lat="42.1232291" lon="13.6939755"><ele>782.3333333333333</ele><time>2026-05-02T11:28:31.162Z</time></trkpt><trkpt lat="42.1231578" lon="13.6940361"><ele>786.0</ele><time>2026-05-02T11:28:32.154Z</time></trkpt><trkpt lat="42.1230835" lon="13.6941092"><ele>789.6666666666667</ele><time>2026-05-02T11:28:33.158Z</time></trkpt><trkpt lat="42.1230165" lon="13.6941985"><ele>793.3333333333334</ele><time>2026-05-02T11:28:34.152Z</time></trkpt><trkpt lat="42.1229562" lon="13.6942894"><ele>797.0</ele><time>2026-05-02T11:28:35.158Z</time></trkpt><trkpt lat="42.1228878" lon="13.6943759"><ele>795.8</ele><time>2026-05-02T11:28:36.154Z</time></trkpt><trkpt lat="42.1228153" lon="13.6944496"><ele>794.6</ele><time>2026-05-02T11:28:37.146Z</time></trkpt><trkpt lat="42.1227368" lon="13.6945166"><ele>793.4</ele><time>2026-05-02T11:28:38.145Z</time></trkpt><trkpt lat="42.1226464" lon="13.6945584"><ele>792.1999999999999</ele><time>2026-05-02T11:28:39.153Z</time></trkpt><trkpt lat="42.1225583" lon="13.6945796"><ele>791.0</ele><time>2026-05-02T11:28:40.151Z</time></trkpt><trkpt lat="42.1224739" lon="13.6945896"><ele>791.8333333333334</ele><time>2026-05-02T11:28:41.152Z</time></trkpt><trkpt lat="42.1223884" lon="13.6946068"><ele>792.6666666666667</ele><time>2026-05-02T11:28:42.151Z</time></trkpt><trkpt lat="42.1223016" lon="13.6946113"><ele>793.5</ele><time>2026-05-02T11:28:43.157Z</time></trkpt><trkpt lat="42.1222204" lon="13.6945989"><ele>794.3333333333333</ele><time>2026-05-02T11:28:44.147Z</time></trkpt><trkpt lat="42.1221489" lon="13.6945811"><ele>795.1666666666666</ele><time>2026-05-02T11:28:45.15Z</time></trkpt><trkpt lat="42.1220415" lon="13.6945595"><ele>796.0</ele><time>2026-05-02T11:28:47.15Z</time></trkpt><trkpt lat="42.1219804" lon="13.6945304"><ele>798.8</ele><time>2026-05-02T11:28:49.157Z</time></trkpt><trkpt lat="42.122027" lon="13.694419"><ele>801.5999999999999</ele><time>2026-05-02T11:28:53.155Z</time></trkpt><trkpt lat="42.1220811" lon="13.694369"><ele>804.4</ele><time>2026-05-02T11:28:54.152Z</time></trkpt><trkpt lat="42.1221407" lon="13.6942943"><ele>807.2</ele><time>2026-05-02T11:28:55.141Z</time></trkpt><trkpt lat="42.1222034" lon="13.6941726"><ele>810.0</ele><time>2026-05-02T11:28:56.15Z</time></trkpt><trkpt lat="42.1222665" lon="13.694014"><ele>810.0</ele><time>2026-05-02T11:28:57.151Z</time></trkpt><trkpt lat="42.1223308" lon="13.693834"><ele>810.0</ele><time>2026-05-02T11:28:58.153Z</time></trkpt><trkpt lat="42.1223893" lon="13.6936657"><ele>810.0</ele><time>2026-05-02T11:28:59.155Z</time></trkpt><trkpt lat="42.1224461" lon="13.6935112"><ele>810.0</ele><time>2026-05-02T11:29:00.155Z</time></trkpt><trkpt lat="42.1225046" lon="13.6933738"><ele>809.5</ele><time>2026-05-02T11:29:01.155Z</time></trkpt><trkpt lat="42.1225588" lon="13.6932535"><ele>809.0</ele><time>2026-05-02T11:29:02.152Z</time></trkpt><trkpt lat="42.1226072" lon="13.6931309"><ele>808.5</ele><time>2026-05-02T11:29:03.151Z</time></trkpt><trkpt lat="42.1226424" lon="13.6930249"><ele>808.0</ele><time>2026-05-02T11:29:04.153Z</time></trkpt><trkpt lat="42.1226634" lon="13.6929281"><ele>807.5</ele><time>2026-05-02T11:29:05.157Z</time></trkpt><trkpt lat="42.1226582" lon="13.6928398"><ele>807.0</ele><time>2026-05-02T11:29:06.149Z</time></trkpt><trkpt lat="42.1225887" lon="13.6927319"><ele>807.0</ele><time>2026-05-02T11:29:08.151Z</time></trkpt><trkpt lat="42.1225111" lon="13.6927508"><ele>807.0</ele><time>2026-05-02T11:29:09.14Z</time></trkpt><trkpt lat="42.12243" lon="13.6927988"><ele>807.0</ele><time>2026-05-02T11:29:10.14Z</time></trkpt><trkpt lat="42.1223283" lon="13.6928825"><ele>807.0</ele><time>2026-05-02T11:29:11.142Z</time></trkpt><trkpt lat="42.122219" lon="13.6929941"><ele>807.0</ele><time>2026-05-02T11:29:12.137Z</time></trkpt><trkpt lat="42.1220863" lon="13.6930886"><ele>812.0</ele><time>2026-05-02T11:29:13.134Z</time></trkpt><trkpt lat="42.1219594" lon="13.693211"><ele>817.0</ele><time>2026-05-02T11:29:14.137Z</time></trkpt><trkpt lat="42.1218346" lon="13.6932892"><ele>822.0</ele><time>2026-05-02T11:29:15.132Z</time></trkpt><trkpt lat="42.1217024" lon="13.6933497"><ele>827.0</ele><time>2026-05-02T11:29:16.142Z</time></trkpt><trkpt lat="42.1215643" lon="13.693418"><ele>825.75</ele><time>2026-05-02T11:29:17.146Z</time></trkpt><trkpt lat="42.12143" lon="13.6934688"><ele>824.5</ele><time>2026-05-02T11:29:18.151Z</time></trkpt><trkpt lat="42.121271" lon="13.6935226"><ele>823.25</ele><time>2026-05-02T11:29:19.143Z</time></trkpt><trkpt lat="42.1211339" lon="13.6935761"><ele>822.0</ele><time>2026-05-02T11:29:20.149Z</time></trkpt><trkpt lat="42.1209807" lon="13.6936477"><ele>822.0</ele><time>2026-05-02T11:29:21.15Z</time></trkpt><trkpt lat="42.1208315" lon="13.6937205"><ele>822.0</ele><time>2026-05-02T11:29:22.151Z</time></trkpt><trkpt lat="42.1206662" lon="13.6937606"><ele>822.0</ele><time>2026-05-02T11:29:23.147Z</time></trkpt><trkpt lat="42.1205001" lon="13.693784"><ele>826.25</ele><time>2026-05-02T11:29:24.151Z</time></trkpt><trkpt lat="42.1203494" lon="13.6938036"><ele>830.5</ele><time>2026-05-02T11:29:25.148Z</time></trkpt><trkpt lat="42.1202266" lon="13.6938303"><ele>834.75</ele><time>2026-05-02T11:29:26.151Z</time></trkpt><trkpt lat="42.12011" lon="13.6938952"><ele>839.0</ele><time>2026-05-02T11:29:27.148Z</time></trkpt><trkpt lat="42.1199551" lon="13.6939482"><ele>847.3333333333334</ele><time>2026-05-02T11:29:28.152Z</time></trkpt><trkpt lat="42.1198112" lon="13.6940481"><ele>855.6666666666667</ele><time>2026-05-02T11:29:29.149Z</time></trkpt><trkpt lat="42.1196597" lon="13.6941196"><ele>864.0</ele><time>2026-05-02T11:29:30.158Z</time></trkpt><trkpt lat="42.1195202" lon="13.6941933"><ele>864.0</ele><time>2026-05-02T11:29:31.149Z</time></trkpt><trkpt lat="42.1193774" lon="13.6942177"><ele>864.0</ele><time>2026-05-02T11:29:32.152Z</time></trkpt><trkpt lat="42.119243" lon="13.6942896"><ele>864.0</ele><time>2026-05-02T11:29:33.151Z</time></trkpt><trkpt lat="42.1191173" lon="13.6942934"><ele>864.0</ele><time>2026-05-02T11:29:34.147Z</time></trkpt><trkpt lat="42.1189802" lon="13.6943023"><ele>862.25</ele><time>2026-05-02T11:29:35.15Z</time></trkpt><trkpt lat="42.118849" lon="13.6943431"><ele>860.5</ele><time>2026-05-02T11:29:36.139Z</time></trkpt><trkpt lat="42.1187054" lon="13.6944422"><ele>858.75</ele><time>2026-05-02T11:29:37.144Z</time></trkpt><trkpt lat="42.1185864" lon="13.6945275"><ele>857.0</ele><time>2026-05-02T11:29:38.15Z</time></trkpt><trkpt lat="42.1184551" lon="13.6946337"><ele>857.0</ele><time>2026-05-02T11:29:39.149Z</time></trkpt><trkpt lat="42.1183168" lon="13.6947406"><ele>857.0</ele><time>2026-05-02T11:29:40.148Z</time></trkpt><trkpt lat="42.1181724" lon="13.6948403"><ele>857.0</ele><time>2026-05-02T11:29:41.146Z</time></trkpt><trkpt lat="42.1180421" lon="13.6949359"><ele>864.5</ele><time>2026-05-02T11:29:42.148Z</time></trkpt><trkpt lat="42.1179206" lon="13.6950189"><ele>872.0</ele><time>2026-05-02T11:29:43.143Z</time></trkpt><trkpt lat="42.1177857" lon="13.6950757"><ele>879.5</ele><time>2026-05-02T11:29:44.14Z</time></trkpt><trkpt lat="42.117643" lon="13.6951325"><ele>887.0</ele><time>2026-05-02T11:29:45.146Z</time></trkpt><trkpt lat="42.117496" lon="13.6952076"><ele>894.0</ele><time>2026-05-02T11:29:46.138Z</time></trkpt><trkpt lat="42.1173465" lon="13.6952338"><ele>901.0</ele><time>2026-05-02T11:29:47.146Z</time></trkpt><trkpt lat="42.1171687" lon="13.695231"><ele>908.0</ele><time>2026-05-02T11:29:48.14Z</time></trkpt><trkpt lat="42.1169966" lon="13.6952475"><ele>900.0</ele><time>2026-05-02T11:29:49.146Z</time></trkpt><trkpt lat="42.1168319" lon="13.6952628"><ele>892.0</ele><time>2026-05-02T11:29:50.142Z</time></trkpt><trkpt lat="42.1166628" lon="13.6953101"><ele>884.0</ele><time>2026-05-02T11:29:51.148Z</time></trkpt><trkpt lat="42.1165046" lon="13.6953784"><ele>884.0</ele><time>2026-05-02T11:29:52.142Z</time></trkpt><trkpt lat="42.1163447" lon="13.6954186"><ele>884.0</ele><time>2026-05-02T11:29:53.142Z</time></trkpt><trkpt lat="42.116203" lon="13.6954508"><ele>884.0</ele><time>2026-05-02T11:29:54.141Z</time></trkpt><trkpt lat="42.1160674" lon="13.6954744"><ele>884.0</ele><time>2026-05-02T11:29:55.149Z</time></trkpt><trkpt lat="42.1159267" lon="13.6955326"><ele>884.0</ele><time>2026-05-02T11:29:56.148Z</time></trkpt><trkpt lat="42.1157819" lon="13.6955961"><ele>884.0</ele><time>2026-05-02T11:29:57.147Z</time></trkpt><trkpt lat="42.1156367" lon="13.6956672"><ele>884.0</ele><time>2026-05-02T11:29:58.14Z</time></trkpt><trkpt lat="42.1154465" lon="13.6957392"><ele>890.6666666666667</ele><time>2026-05-02T11:29:59.146Z</time></trkpt><trkpt lat="42.1152831" lon="13.6957462"><ele>897.3333333333333</ele><time>2026-05-02T11:30:00.146Z</time></trkpt><trkpt lat="42.1151185" lon="13.6957502"><ele>904.0</ele><time>2026-05-02T11:30:01.144Z</time></trkpt><trkpt lat="42.114946" lon="13.6957936"><ele>910.0</ele><time>2026-05-02T11:30:02.138Z</time></trkpt><trkpt lat="42.1147873" lon="13.6958186"><ele>916.0</ele><time>2026-05-02T11:30:03.142Z</time></trkpt><trkpt lat="42.1146104" lon="13.6958769"><ele>922.0</ele><time>2026-05-02T11:30:04.14Z</time></trkpt><trkpt lat="42.1144458" lon="13.695911"><ele>922.0</ele><time>2026-05-02T11:30:05.143Z</time></trkpt><trkpt lat="42.1142886" lon="13.6959672"><ele>922.0</ele><time>2026-05-02T11:30:06.137Z</time></trkpt><trkpt lat="42.1141397" lon="13.6959857"><ele>922.0</ele><time>2026-05-02T11:30:07.136Z</time></trkpt><trkpt lat="42.1139981" lon="13.6959941"><ele>926.0</ele><time>2026-05-02T11:30:08.138Z</time></trkpt><trkpt lat="42.1138585" lon="13.6960275"><ele>930.0</ele><time>2026-05-02T11:30:09.143Z</time></trkpt><trkpt lat="42.1137224" lon="13.696066"><ele>934.0</ele><time>2026-05-02T11:30:10.139Z</time></trkpt><trkpt lat="42.1135885" lon="13.6960949"><ele>938.0</ele><time>2026-05-02T11:30:11.143Z</time></trkpt><trkpt lat="42.1134434" lon="13.696154"><ele>933.0</ele><time>2026-05-02T11:30:12.145Z</time></trkpt><trkpt lat="42.1133048" lon="13.6962015"><ele>928.0</ele><time>2026-05-02T11:30:13.148Z</time></trkpt><trkpt lat="42.1131851" lon="13.6962523"><ele>923.0</ele><time>2026-05-02T11:30:14.145Z</time></trkpt><trkpt lat="42.1130806" lon="13.6963061"><ele>918.0</ele><time>2026-05-02T11:30:15.142Z</time></trkpt><trkpt lat="42.1129605" lon="13.6963598"><ele>918.0</ele><time>2026-05-02T11:30:16.146Z</time></trkpt><trkpt lat="42.1128322" lon="13.6964198"><ele>918.0</ele><time>2026-05-02T11:30:17.146Z</time></trkpt><trkpt lat="42.1127113" lon="13.6965265"><ele>918.0</ele><time>2026-05-02T11:30:18.142Z</time></trkpt><trkpt lat="42.1125928" lon="13.6966289"><ele>918.0</ele><time>2026-05-02T11:30:19.145Z</time></trkpt><trkpt lat="42.1124704" lon="13.6967335"><ele>915.5</ele><time>2026-05-02T11:30:20.147Z</time></trkpt><trkpt lat="42.112338" lon="13.6967964"><ele>913.0</ele><time>2026-05-02T11:30:21.147Z</time></trkpt><trkpt lat="42.1122208" lon="13.6968315"><ele>910.5</ele><time>2026-05-02T11:30:22.148Z</time></trkpt><trkpt lat="42.1121023" lon="13.6969313"><ele>908.0</ele><time>2026-05-02T11:30:23.145Z</time></trkpt><trkpt lat="42.1119832" lon="13.6970226"><ele>908.0</ele><time>2026-05-02T11:30:24.147Z</time></trkpt><trkpt lat="42.1118765" lon="13.6970854"><ele>908.0</ele><time>2026-05-02T11:30:25.147Z</time></trkpt><trkpt lat="42.1117597" lon="13.6971785"><ele>908.0</ele><time>2026-05-02T11:30:26.15Z</time></trkpt><trkpt lat="42.1116112" lon="13.6972315"><ele>908.0</ele><time>2026-05-02T11:30:27.148Z</time></trkpt><trkpt lat="42.1114802" lon="13.6972946"><ele>915.5</ele><time>2026-05-02T11:30:28.147Z</time></trkpt><trkpt lat="42.1113591" lon="13.6973547"><ele>923.0</ele><time>2026-05-02T11:30:29.152Z</time></trkpt><trkpt lat="42.1112187" lon="13.6974234"><ele>930.5</ele><time>2026-05-02T11:30:30.147Z</time></trkpt><trkpt lat="42.1110975" lon="13.6975015"><ele>938.0</ele><time>2026-05-02T11:30:31.151Z</time></trkpt><trkpt lat="42.110966" lon="13.6975854"><ele>938.0</ele><time>2026-05-02T11:30:32.14Z</time></trkpt><trkpt lat="42.110813" lon="13.6976582"><ele>938.0</ele><time>2026-05-02T11:30:33.15Z</time></trkpt><trkpt lat="42.1106967" lon="13.6977742"><ele>938.0</ele><time>2026-05-02T11:30:34.148Z</time></trkpt><trkpt lat="42.11055" lon="13.6978574"><ele>936.75</ele><time>2026-05-02T11:30:35.143Z</time></trkpt><trkpt lat="42.1104045" lon="13.6979008"><ele>935.5</ele><time>2026-05-02T11:30:36.148Z</time></trkpt><trkpt lat="42.110264" lon="13.6979942"><ele>934.25</ele><time>2026-05-02T11:30:37.146Z</time></trkpt><trkpt lat="42.1101321" lon="13.6980548"><ele>933.0</ele><time>2026-05-02T11:30:38.148Z</time></trkpt><trkpt lat="42.1099924" lon="13.6981072"><ele>939.25</ele><time>2026-05-02T11:30:39.153Z</time></trkpt><trkpt lat="42.1098534" lon="13.6981494"><ele>945.5</ele><time>2026-05-02T11:30:40.154Z</time></trkpt><trkpt lat="42.1097159" lon="13.6982153"><ele>951.75</ele><time>2026-05-02T11:30:41.147Z</time></trkpt><trkpt lat="42.1095816" lon="13.698315"><ele>958.0</ele><time>2026-05-02T11:30:42.154Z</time></trkpt><trkpt lat="42.1094503" lon="13.6983835"><ele>958.0</ele><time>2026-05-02T11:30:43.152Z</time></trkpt><trkpt lat="42.1093534" lon="13.6984316"><ele>958.0</ele><time>2026-05-02T11:30:44.151Z</time></trkpt><trkpt lat="42.1092132" lon="13.6984892"><ele>958.0</ele><time>2026-05-02T11:30:45.147Z</time></trkpt><trkpt lat="42.1090537" lon="13.6985046"><ele>958.0</ele><time>2026-05-02T11:30:46.151Z</time></trkpt><trkpt lat="42.1088865" lon="13.6985394"><ele>957.75</ele><time>2026-05-02T11:30:47.157Z</time></trkpt><trkpt lat="42.1087442" lon="13.6985574"><ele>957.5</ele><time>2026-05-02T11:30:48.161Z</time></trkpt><trkpt lat="42.108636" lon="13.6985601"><ele>957.25</ele><time>2026-05-02T11:30:49.145Z</time></trkpt><trkpt lat="42.1085243" lon="13.6985608"><ele>957.0</ele><time>2026-05-02T11:30:50.156Z</time></trkpt><trkpt lat="42.1084336" lon="13.6985213"><ele>957.0</ele><time>2026-05-02T11:30:51.159Z</time></trkpt><trkpt lat="42.1083631" lon="13.6984457"><ele>957.0</ele><time>2026-05-02T11:30:52.162Z</time></trkpt><trkpt lat="42.1083162" lon="13.6983349"><ele>957.0</ele><time>2026-05-02T11:30:53.161Z</time></trkpt><trkpt lat="42.1082989" lon="13.698173"><ele>957.0</ele><time>2026-05-02T11:30:54.164Z</time></trkpt><trkpt lat="42.1082784" lon="13.6980113"><ele>957.0</ele><time>2026-05-02T11:30:55.168Z</time></trkpt><trkpt lat="42.1082417" lon="13.6978741"><ele>956.0</ele><time>2026-05-02T11:30:56.163Z</time></trkpt><trkpt lat="42.1081926" lon="13.6977539"><ele>955.0</ele><time>2026-05-02T11:30:57.167Z</time></trkpt><trkpt lat="42.1081463" lon="13.6976532"><ele>954.0</ele><time>2026-05-02T11:30:58.155Z</time></trkpt><trkpt lat="42.1081118" lon="13.6975796"><ele>953.0</ele><time>2026-05-02T11:30:59.163Z</time></trkpt><trkpt lat="42.1080667" lon="13.6975006"><ele>952.0</ele><time>2026-05-02T11:31:01.166Z</time></trkpt><trkpt lat="42.1080243" lon="13.6974024"><ele>951.0</ele><time>2026-05-02T11:31:05.163Z</time></trkpt><trkpt lat="42.1079755" lon="13.6973099"><ele>951.0</ele><time>2026-05-02T11:31:07.157Z</time></trkpt><trkpt lat="42.1079354" lon="13.6971488"><ele>950.9999999999999</ele><time>2026-05-02T11:31:09.162Z</time></trkpt><trkpt lat="42.1079225" lon="13.697056"><ele>950.9999999999999</ele><time>2026-05-02T11:31:10.163Z</time></trkpt><trkpt lat="42.1079106" lon="13.6969692"><ele>951.0</ele><time>2026-05-02T11:31:11.157Z</time></trkpt><trkpt lat="42.1078776" lon="13.6968059"><ele>951.0</ele><time>2026-05-02T11:31:13.163Z</time></trkpt><trkpt lat="42.1078649" lon="13.6967095"><ele>950.6666666666666</ele><time>2026-05-02T11:31:14.16Z</time></trkpt><trkpt lat="42.1078484" lon="13.6966051"><ele>950.3333333333333</ele><time>2026-05-02T11:31:15.161Z</time></trkpt><trkpt lat="42.1078317" lon="13.6964911"><ele>950.0</ele><time>2026-05-02T11:31:16.16Z</time></trkpt><trkpt lat="42.1078091" lon="13.6963854"><ele>949.6666666666666</ele><time>2026-05-02T11:31:17.158Z</time></trkpt><trkpt lat="42.1077883" lon="13.6962756"><ele>949.3333333333333</ele><time>2026-05-02T11:31:18.16Z</time></trkpt><trkpt lat="42.1077656" lon="13.6961586"><ele>949.0</ele><time>2026-05-02T11:31:19.159Z</time></trkpt><trkpt lat="42.1077456" lon="13.6960461"><ele>948.3333333333333</ele><time>2026-05-02T11:31:20.155Z</time></trkpt><trkpt lat="42.107725" lon="13.6959334"><ele>947.6666666666666</ele><time>2026-05-02T11:31:21.158Z</time></trkpt><trkpt lat="42.1077074" lon="13.6958191"><ele>947.0</ele><time>2026-05-02T11:31:22.163Z</time></trkpt><trkpt lat="42.10769" lon="13.6957086"><ele>946.3333333333333</ele><time>2026-05-02T11:31:23.161Z</time></trkpt><trkpt lat="42.1076724" lon="13.695599"><ele>945.6666666666666</ele><time>2026-05-02T11:31:24.16Z</time></trkpt><trkpt lat="42.1076581" lon="13.6954881"><ele>945.0</ele><time>2026-05-02T11:31:25.161Z</time></trkpt><trkpt lat="42.1076448" lon="13.695381"><ele>945.0</ele><time>2026-05-02T11:31:26.161Z</time></trkpt><trkpt lat="42.1076257" lon="13.6952759"><ele>945.0</ele><time>2026-05-02T11:31:27.157Z</time></trkpt><trkpt lat="42.1076042" lon="13.6951736"><ele>945.0</ele><time>2026-05-02T11:31:28.159Z</time></trkpt><trkpt lat="42.1075831" lon="13.6950638"><ele>945.0</ele><time>2026-05-02T11:31:29.162Z</time></trkpt><trkpt lat="42.107564" lon="13.694959"><ele>945.0</ele><time>2026-05-02T11:31:30.157Z</time></trkpt><trkpt lat="42.1075474" lon="13.6948575"><ele>945.0</ele><time>2026-05-02T11:31:31.16Z</time></trkpt><trkpt lat="42.107531" lon="13.6947563"><ele>944.6666666666666</ele><time>2026-05-02T11:31:32.157Z</time></trkpt><trkpt lat="42.1075156" lon="13.6946544"><ele>944.3333333333333</ele><time>2026-05-02T11:31:33.157Z</time></trkpt><trkpt lat="42.1075013" lon="13.6945595"><ele>944.0</ele><time>2026-05-02T11:31:34.155Z</time></trkpt><trkpt lat="42.1074846" lon="13.6944744"><ele>943.6666666666666</ele><time>2026-05-02T11:31:35.157Z</time></trkpt><trkpt lat="42.1074082" lon="13.6943529"><ele>943.3333333333333</ele><time>2026-05-02T11:31:37.15Z</time></trkpt><trkpt lat="42.1073409" lon="13.6943276"><ele>943.0</ele><time>2026-05-02T11:31:38.157Z</time></trkpt><trkpt lat="42.1072698" lon="13.6943223"><ele>939.5999999999999</ele><time>2026-05-02T11:31:39.155Z</time></trkpt><trkpt lat="42.1071838" lon="13.6943237"><ele>936.1999999999999</ele><time>2026-05-02T11:31:40.159Z</time></trkpt><trkpt lat="42.1070861" lon="13.694326"><ele>932.8</ele><time>2026-05-02T11:31:41.157Z</time></trkpt><trkpt lat="42.1069854" lon="13.6943241"><ele>929.4</ele><time>2026-05-02T11:31:42.153Z</time></trkpt><trkpt lat="42.1068823" lon="13.6943156"><ele>926.0</ele><time>2026-05-02T11:31:43.158Z</time></trkpt><trkpt lat="42.1067761" lon="13.6943025"><ele>926.0</ele><time>2026-05-02T11:31:44.159Z</time></trkpt><trkpt lat="42.1066729" lon="13.6942768"><ele>925.9999999999999</ele><time>2026-05-02T11:31:45.158Z</time></trkpt><trkpt lat="42.1065687" lon="13.6942386"><ele>925.9999999999999</ele><time>2026-05-02T11:31:46.161Z</time></trkpt><trkpt lat="42.1064617" lon="13.6942065"><ele>926.0</ele><time>2026-05-02T11:31:47.157Z</time></trkpt><trkpt lat="42.1063526" lon="13.6941848"><ele>926.0</ele><time>2026-05-02T11:31:48.164Z</time></trkpt><trkpt lat="42.1062361" lon="13.6941619"><ele>923.0</ele><time>2026-05-02T11:31:49.158Z</time></trkpt><trkpt lat="42.1061105" lon="13.6941348"><ele>920.0</ele><time>2026-05-02T11:31:50.162Z</time></trkpt><trkpt lat="42.105988" lon="13.6941062"><ele>917.0</ele><time>2026-05-02T11:31:51.157Z</time></trkpt><trkpt lat="42.1058697" lon="13.6940814"><ele>914.0</ele><time>2026-05-02T11:31:52.163Z</time></trkpt><trkpt lat="42.1057563" lon="13.6940574"><ele>912.4000000000001</ele><time>2026-05-02T11:31:53.162Z</time></trkpt><trkpt lat="42.105644" lon="13.6940309"><ele>910.8000000000001</ele><time>2026-05-02T11:31:54.164Z</time></trkpt><trkpt lat="42.105534" lon="13.6939989"><ele>909.1999999999999</ele><time>2026-05-02T11:31:55.17Z</time></trkpt><trkpt lat="42.1054327" lon="13.693966"><ele>907.5999999999999</ele><time>2026-05-02T11:31:56.17Z</time></trkpt><trkpt lat="42.1053325" lon="13.69394"><ele>906.0</ele><time>2026-05-02T11:31:57.171Z</time></trkpt><trkpt lat="42.1052392" lon="13.6939105"><ele>906.0</ele><time>2026-05-02T11:31:58.161Z</time></trkpt><trkpt lat="42.1051654" lon="13.6938798"><ele>905.9999999999999</ele><time>2026-05-02T11:31:59.166Z</time></trkpt><trkpt lat="42.1050822" lon="13.6938139"><ele>905.9999999999999</ele><time>2026-05-02T11:32:01.173Z</time></trkpt><trkpt lat="42.1050169" lon="13.6936912"><ele>906.0</ele><time>2026-05-02T11:32:03.16Z</time></trkpt><trkpt lat="42.1049818" lon="13.6935902"><ele>906.0</ele><time>2026-05-02T11:32:04.167Z</time></trkpt><trkpt lat="42.1049443" lon="13.693473"><ele>908.5999999999999</ele><time>2026-05-02T11:32:05.169Z</time></trkpt><trkpt lat="42.1048989" lon="13.6933555"><ele>911.1999999999999</ele><time>2026-05-02T11:32:06.161Z</time></trkpt><trkpt lat="42.1048477" lon="13.6932664"><ele>913.8000000000001</ele><time>2026-05-02T11:32:07.16Z</time></trkpt><trkpt lat="42.1047474" lon="13.6931891"><ele>916.4000000000001</ele><time>2026-05-02T11:32:09.17Z</time></trkpt><trkpt lat="42.1046816" lon="13.6931884"><ele>919.0</ele><time>2026-05-02T11:32:10.163Z</time></trkpt><trkpt lat="42.1045912" lon="13.6932194"><ele>919.0</ele><time>2026-05-02T11:32:11.158Z</time></trkpt><trkpt lat="42.1044858" lon="13.693238"><ele>919.0000000000001</ele><time>2026-05-02T11:32:12.158Z</time></trkpt><trkpt lat="42.104367" lon="13.6932251"><ele>919.0000000000001</ele><time>2026-05-02T11:32:13.169Z</time></trkpt><trkpt lat="42.1042592" lon="13.6932135"><ele>919.0</ele><time>2026-05-02T11:32:14.157Z</time></trkpt><trkpt lat="42.1041633" lon="13.6932159"><ele>919.0</ele><time>2026-05-02T11:32:15.156Z</time></trkpt><trkpt lat="42.1040885" lon="13.6932461"><ele>919.8000000000001</ele><time>2026-05-02T11:32:16.163Z</time></trkpt><trkpt lat="42.104011" lon="13.6933955"><ele>920.6000000000001</ele><time>2026-05-02T11:32:18.158Z</time></trkpt><trkpt lat="42.1039855" lon="13.6935134"><ele>921.4</ele><time>2026-05-02T11:32:19.156Z</time></trkpt><trkpt lat="42.1039692" lon="13.6936537"><ele>922.2</ele><time>2026-05-02T11:32:20.159Z</time></trkpt><trkpt lat="42.1039527" lon="13.6937803"><ele>923.0</ele><time>2026-05-02T11:32:21.162Z</time></trkpt><trkpt lat="42.103929" lon="13.693878"><ele>923.0</ele><time>2026-05-02T11:32:22.162Z</time></trkpt><trkpt lat="42.1038951" lon="13.6939551"><ele>923.0</ele><time>2026-05-02T11:32:23.166Z</time></trkpt><trkpt lat="42.1038477" lon="13.6940296"><ele>923.0</ele><time>2026-05-02T11:32:24.162Z</time></trkpt><trkpt lat="42.1037908" lon="13.6940951"><ele>923.0</ele><time>2026-05-02T11:32:25.152Z</time></trkpt><trkpt lat="42.1037306" lon="13.6941404"><ele>923.0</ele><time>2026-05-02T11:32:26.157Z</time></trkpt><trkpt lat="42.1036584" lon="13.6941567"><ele>923.0</ele><time>2026-05-02T11:32:27.168Z</time></trkpt><trkpt lat="42.1035769" lon="13.6941533"><ele>923.0</ele><time>2026-05-02T11:32:28.17Z</time></trkpt><trkpt lat="42.1034984" lon="13.6941297"><ele>923.0</ele><time>2026-05-02T11:32:29.171Z</time></trkpt><trkpt lat="42.1034219" lon="13.6940964"><ele>923.0</ele><time>2026-05-02T11:32:30.167Z</time></trkpt><trkpt lat="42.1033323" lon="13.694063"><ele>923.0</ele><time>2026-05-02T11:32:31.17Z</time></trkpt><trkpt lat="42.1032361" lon="13.6940456"><ele>923.0</ele><time>2026-05-02T11:32:32.163Z</time></trkpt><trkpt lat="42.1031357" lon="13.6940488"><ele>923.0</ele><time>2026-05-02T11:32:33.167Z</time></trkpt><trkpt lat="42.1030373" lon="13.6940687"><ele>923.8</ele><time>2026-05-02T11:32:34.16Z</time></trkpt><trkpt lat="42.1029371" lon="13.6940901"><ele>924.5999999999999</ele><time>2026-05-02T11:32:35.158Z</time></trkpt><trkpt lat="42.1028438" lon="13.6941056"><ele>925.4000000000001</ele><time>2026-05-02T11:32:36.169Z</time></trkpt><trkpt lat="42.1027539" lon="13.6941325"><ele>926.2</ele><time>2026-05-02T11:32:37.161Z</time></trkpt><trkpt lat="42.1026618" lon="13.6941678"><ele>927.0</ele><time>2026-05-02T11:32:38.164Z</time></trkpt><trkpt lat="42.1025727" lon="13.6942022"><ele>927.0</ele><time>2026-05-02T11:32:39.162Z</time></trkpt><trkpt lat="42.1024804" lon="13.6942308"><ele>927.0</ele><time>2026-05-02T11:32:40.166Z</time></trkpt><trkpt lat="42.1023874" lon="13.6942482"><ele>927.0</ele><time>2026-05-02T11:32:41.158Z</time></trkpt><trkpt lat="42.1023023" lon="13.6942566"><ele>927.0</ele><time>2026-05-02T11:32:42.164Z</time></trkpt><trkpt lat="42.102223" lon="13.6942474"><ele>927.0</ele><time>2026-05-02T11:32:43.172Z</time></trkpt><trkpt lat="42.1021416" lon="13.6942227"><ele>927.0</ele><time>2026-05-02T11:32:44.161Z</time></trkpt><trkpt lat="42.1020645" lon="13.6941817"><ele>928.0</ele><time>2026-05-02T11:32:45.166Z</time></trkpt><trkpt lat="42.1020025" lon="13.6941182"><ele>929.0</ele><time>2026-05-02T11:32:46.163Z</time></trkpt><trkpt lat="42.1019514" lon="13.6940327"><ele>930.0</ele><time>2026-05-02T11:32:47.159Z</time></trkpt><trkpt lat="42.1018963" lon="13.6939389"><ele>931.0</ele><time>2026-05-02T11:32:48.164Z</time></trkpt><trkpt lat="42.1018331" lon="13.6938406"><ele>932.0</ele><time>2026-05-02T11:32:49.164Z</time></trkpt><trkpt lat="42.1017741" lon="13.6937365"><ele>933.0</ele><time>2026-05-02T11:32:50.16Z</time></trkpt><trkpt lat="42.1017237" lon="13.6936369"><ele>934.3333333333334</ele><time>2026-05-02T11:32:51.151Z</time></trkpt><trkpt lat="42.1016685" lon="13.6935556"><ele>935.6666666666667</ele><time>2026-05-02T11:32:52.166Z</time></trkpt><trkpt lat="42.1016008" lon="13.6934924"><ele>937.0</ele><time>2026-05-02T11:32:53.159Z</time></trkpt><trkpt lat="42.1015182" lon="13.6934459"><ele>938.3333333333334</ele><time>2026-05-02T11:32:54.16Z</time></trkpt><trkpt lat="42.1014339" lon="13.6934119"><ele>939.6666666666667</ele><time>2026-05-02T11:32:55.158Z</time></trkpt><trkpt lat="42.1013593" lon="13.6933962"><ele>941.0</ele><time>2026-05-02T11:32:56.155Z</time></trkpt><trkpt lat="42.1012962" lon="13.6934143"><ele>941.8571428571427</ele><time>2026-05-02T11:32:57.155Z</time></trkpt><trkpt lat="42.1012356" lon="13.6934745"><ele>942.7142857142857</ele><time>2026-05-02T11:32:58.153Z</time></trkpt><trkpt lat="42.1011845" lon="13.6935454"><ele>943.5714285714284</ele><time>2026-05-02T11:32:59.157Z</time></trkpt><trkpt lat="42.1011401" lon="13.6936303"><ele>944.4285714285713</ele><time>2026-05-02T11:33:00.152Z</time></trkpt><trkpt lat="42.1011038" lon="13.693724"><ele>945.2857142857142</ele><time>2026-05-02T11:33:01.161Z</time></trkpt><trkpt lat="42.1010787" lon="13.6938132"><ele>946.1428571428571</ele><time>2026-05-02T11:33:02.157Z</time></trkpt><trkpt lat="42.1010453" lon="13.6938976"><ele>947.0</ele><time>2026-05-02T11:33:03.157Z</time></trkpt><trkpt lat="42.1009881" lon="13.693978"><ele>947.0</ele><time>2026-05-02T11:33:04.149Z</time></trkpt><trkpt lat="42.100911" lon="13.6940542"><ele>947.0</ele><time>2026-05-02T11:33:05.157Z</time></trkpt><trkpt lat="42.1008276" lon="13.6941359"><ele>947.0</ele><time>2026-05-02T11:33:06.144Z</time></trkpt><trkpt lat="42.1007473" lon="13.6942218"><ele>947.0</ele><time>2026-05-02T11:33:07.147Z</time></trkpt><trkpt lat="42.1006778" lon="13.6942925"><ele>947.0</ele><time>2026-05-02T11:33:08.141Z</time></trkpt><trkpt lat="42.1006103" lon="13.6943442"><ele>949.3333333333334</ele><time>2026-05-02T11:33:09.154Z</time></trkpt><trkpt lat="42.1005414" lon="13.6943685"><ele>951.6666666666667</ele><time>2026-05-02T11:33:10.143Z</time></trkpt><trkpt lat="42.1004215" lon="13.6943465"><ele>954.0</ele><time>2026-05-02T11:33:12.151Z</time></trkpt><trkpt lat="42.1003551" lon="13.6942895"><ele>956.3333333333333</ele><time>2026-05-02T11:33:13.148Z</time></trkpt><trkpt lat="42.1002731" lon="13.6942317"><ele>958.6666666666666</ele><time>2026-05-02T11:33:14.161Z</time></trkpt><trkpt lat="42.1002039" lon="13.6942051"><ele>961.0</ele><time>2026-05-02T11:33:15.149Z</time></trkpt><trkpt lat="42.1001401" lon="13.6942037"><ele>961.0</ele><time>2026-05-02T11:33:16.15Z</time></trkpt><trkpt lat="42.1000273" lon="13.6941845"><ele>960.9999999999999</ele><time>2026-05-02T11:33:18.151Z</time></trkpt><trkpt lat="42.0999569" lon="13.6941376"><ele>960.9999999999999</ele><time>2026-05-02T11:33:19.151Z</time></trkpt><trkpt lat="42.0998648" lon="13.6940924"><ele>961.0</ele><time>2026-05-02T11:33:20.164Z</time></trkpt><trkpt lat="42.0997683" lon="13.6940414"><ele>961.0</ele><time>2026-05-02T11:33:21.157Z</time></trkpt><trkpt lat="42.0997002" lon="13.693977"><ele>963.8333333333333</ele><time>2026-05-02T11:33:22.163Z</time></trkpt><trkpt lat="42.0996644" lon="13.6938935"><ele>966.6666666666666</ele><time>2026-05-02T11:33:23.158Z</time></trkpt><trkpt lat="42.0996465" lon="13.6938041"><ele>969.5</ele><time>2026-05-02T11:33:24.154Z</time></trkpt><trkpt lat="42.0996314" lon="13.6936976"><ele>972.3333333333333</ele><time>2026-05-02T11:33:25.162Z</time></trkpt><trkpt lat="42.0996124" lon="13.6935864"><ele>975.1666666666666</ele><time>2026-05-02T11:33:26.162Z</time></trkpt><trkpt lat="42.0995874" lon="13.6934744"><ele>978.0</ele><time>2026-05-02T11:33:27.156Z</time></trkpt><trkpt lat="42.0995555" lon="13.6933714"><ele>979.5</ele><time>2026-05-02T11:33:28.159Z</time></trkpt><trkpt lat="42.0995206" lon="13.6932959"><ele>981.0</ele><time>2026-05-02T11:33:29.157Z</time></trkpt><trkpt lat="42.0994078" lon="13.693197"><ele>982.5</ele><time>2026-05-02T11:33:31.162Z</time></trkpt><trkpt lat="42.0993341" lon="13.6931467"><ele>984.0</ele><time>2026-05-02T11:33:32.159Z</time></trkpt><trkpt lat="42.0992729" lon="13.6931153"><ele>985.5</ele><time>2026-05-02T11:33:33.158Z</time></trkpt><trkpt lat="42.0992099" lon="13.6931116"><ele>987.0</ele><time>2026-05-02T11:33:34.156Z</time></trkpt><trkpt lat="42.0991047" lon="13.6931741"><ele>989.4285714285714</ele><time>2026-05-02T11:33:36.155Z</time></trkpt><trkpt lat="42.0990352" lon="13.6932134"><ele>991.8571428571429</ele><time>2026-05-02T11:33:37.15Z</time></trkpt><trkpt lat="42.0989822" lon="13.6932625"><ele>994.2857142857142</ele><time>2026-05-02T11:33:38.141Z</time></trkpt><trkpt lat="42.0989351" lon="13.6933206"><ele>996.7142857142857</ele><time>2026-05-02T11:33:39.136Z</time></trkpt><trkpt lat="42.0988977" lon="13.6933917"><ele>999.1428571428571</ele><time>2026-05-02T11:33:40.147Z</time></trkpt><trkpt lat="42.0988778" lon="13.693483"><ele>1001.5714285714284</ele><time>2026-05-02T11:33:41.151Z</time></trkpt><trkpt lat="42.0988758" lon="13.6935823"><ele>1003.9999999999999</ele><time>2026-05-02T11:33:42.144Z</time></trkpt><trkpt lat="42.0988608" lon="13.6936993"><ele>1004.0</ele><time>2026-05-02T11:33:43.152Z</time></trkpt><trkpt lat="42.0988538" lon="13.6938212"><ele>1004.0000000000001</ele><time>2026-05-02T11:33:44.154Z</time></trkpt><trkpt lat="42.0988534" lon="13.6939482"><ele>1004.0000000000001</ele><time>2026-05-02T11:33:45.156Z</time></trkpt><trkpt lat="42.0988305" lon="13.6940549"><ele>1004.0</ele><time>2026-05-02T11:33:46.155Z</time></trkpt><trkpt lat="42.0987992" lon="13.6941303"><ele>1004.0</ele><time>2026-05-02T11:33:47.149Z</time></trkpt><trkpt lat="42.0986831" lon="13.6942095"><ele>1004.0</ele><time>2026-05-02T11:33:49.147Z</time></trkpt><trkpt lat="42.0986071" lon="13.6942547"><ele>1004.0000000000001</ele><time>2026-05-02T11:33:50.147Z</time></trkpt><trkpt lat="42.098522" lon="13.694324"><ele>1004.0000000000001</ele><time>2026-05-02T11:33:51.153Z</time></trkpt><trkpt lat="42.0984274" lon="13.694416"><ele>1004.0</ele><time>2026-05-02T11:33:52.159Z</time></trkpt><trkpt lat="42.0983457" lon="13.6945266"><ele>1004.0</ele><time>2026-05-02T11:33:53.153Z</time></trkpt><trkpt lat="42.0982735" lon="13.6946335"><ele>1004.0</ele><time>2026-05-02T11:33:54.152Z</time></trkpt><trkpt lat="42.0982246" lon="13.6947497"><ele>1004.0000000000001</ele><time>2026-05-02T11:33:55.154Z</time></trkpt><trkpt lat="42.0981894" lon="13.6948607"><ele>1004.0000000000001</ele><time>2026-05-02T11:33:56.161Z</time></trkpt><trkpt lat="42.0981448" lon="13.6949608"><ele>1004.0</ele><time>2026-05-02T11:33:57.152Z</time></trkpt><trkpt lat="42.0980906" lon="13.6950781"><ele>1004.0</ele><time>2026-05-02T11:33:58.154Z</time></trkpt><trkpt lat="42.0980272" lon="13.6951918"><ele>1002.6666666666667</ele><time>2026-05-02T11:33:59.16Z</time></trkpt><trkpt lat="42.0979764" lon="13.695299"><ele>1001.3333333333334</ele><time>2026-05-02T11:34:00.158Z</time></trkpt><trkpt lat="42.0979264" lon="13.6954043"><ele>1000.0</ele><time>2026-05-02T11:34:01.161Z</time></trkpt><trkpt lat="42.0978773" lon="13.6954833"><ele>998.6666666666667</ele><time>2026-05-02T11:34:02.162Z</time></trkpt><trkpt lat="42.0978162" lon="13.6955434"><ele>997.3333333333334</ele><time>2026-05-02T11:34:03.154Z</time></trkpt><trkpt lat="42.0977429" lon="13.6955873"><ele>996.0</ele><time>2026-05-02T11:34:04.157Z</time></trkpt><trkpt lat="42.0976552" lon="13.6956327"><ele>996.0</ele><time>2026-05-02T11:34:05.167Z</time></trkpt><trkpt lat="42.0975367" lon="13.6956669"><ele>995.9999999999999</ele><time>2026-05-02T11:34:06.16Z</time></trkpt><trkpt lat="42.0974275" lon="13.6956974"><ele>995.9999999999999</ele><time>2026-05-02T11:34:07.166Z</time></trkpt><trkpt lat="42.0973239" lon="13.695731"><ele>996.0</ele><time>2026-05-02T11:34:08.159Z</time></trkpt><trkpt lat="42.0972223" lon="13.6957821"><ele>996.0</ele><time>2026-05-02T11:34:09.166Z</time></trkpt><trkpt lat="42.0971233" lon="13.6958304"><ele>996.4</ele><time>2026-05-02T11:34:10.164Z</time></trkpt><trkpt lat="42.0970185" lon="13.6958618"><ele>996.8</ele><time>2026-05-02T11:34:11.156Z</time></trkpt><trkpt lat="42.0969147" lon="13.6958848"><ele>997.1999999999999</ele><time>2026-05-02T11:34:12.16Z</time></trkpt><trkpt lat="42.096817" lon="13.6958879"><ele>997.5999999999999</ele><time>2026-05-02T11:34:13.168Z</time></trkpt><trkpt lat="42.0967355" lon="13.6958747"><ele>998.0</ele><time>2026-05-02T11:34:14.166Z</time></trkpt><trkpt lat="42.0966718" lon="13.6958409"><ele>998.0000000000001</ele><time>2026-05-02T11:34:15.16Z</time></trkpt><trkpt lat="42.0966168" lon="13.6957991"><ele>998.0</ele><time>2026-05-02T11:34:16.162Z</time></trkpt><trkpt lat="42.0965658" lon="13.6957407"><ele>998.0000000000001</ele><time>2026-05-02T11:34:17.16Z</time></trkpt><trkpt lat="42.0965174" lon="13.6956837"><ele>998.0000000000001</ele><time>2026-05-02T11:34:18.161Z</time></trkpt><trkpt lat="42.0964614" lon="13.6956404"><ele>998.0</ele><time>2026-05-02T11:34:19.159Z</time></trkpt><trkpt lat="42.0963476" lon="13.6956306"><ele>998.0000000000001</ele><time>2026-05-02T11:34:21.16Z</time></trkpt><trkpt lat="42.0962849" lon="13.6956588"><ele>998.0000000000001</ele><time>2026-05-02T11:34:22.163Z</time></trkpt><trkpt lat="42.0962201" lon="13.6957221"><ele>997.6666666666667</ele><time>2026-05-02T11:34:23.159Z</time></trkpt><trkpt lat="42.0961474" lon="13.6957785"><ele>997.3333333333334</ele><time>2026-05-02T11:34:24.16Z</time></trkpt><trkpt lat="42.0960743" lon="13.6958333"><ele>997.0</ele><time>2026-05-02T11:34:25.159Z</time></trkpt><trkpt lat="42.096005" lon="13.6958791"><ele>996.6666666666667</ele><time>2026-05-02T11:34:26.16Z</time></trkpt><trkpt lat="42.0959341" lon="13.695896"><ele>996.3333333333334</ele><time>2026-05-02T11:34:27.158Z</time></trkpt><trkpt lat="42.0958685" lon="13.6958921"><ele>996.0</ele><time>2026-05-02T11:34:28.153Z</time></trkpt><trkpt lat="42.0957492" lon="13.6957979"><ele>997.1666666666666</ele><time>2026-05-02T11:34:30.146Z</time></trkpt><trkpt lat="42.0956712" lon="13.6957309"><ele>998.3333333333333</ele><time>2026-05-02T11:34:31.152Z</time></trkpt><trkpt lat="42.0955844" lon="13.6956962"><ele>999.5</ele><time>2026-05-02T11:34:32.149Z</time></trkpt><trkpt lat="42.0954972" lon="13.6956815"><ele>1000.6666666666666</ele><time>2026-05-02T11:34:33.156Z</time></trkpt><trkpt lat="42.095419" lon="13.6956842"><ele>1001.8333333333333</ele><time>2026-05-02T11:34:34.158Z</time></trkpt><trkpt lat="42.0953342" lon="13.6957078"><ele>1003.0</ele><time>2026-05-02T11:34:35.152Z</time></trkpt><trkpt lat="42.0952394" lon="13.6957398"><ele>1002.9999999999999</ele><time>2026-05-02T11:34:36.147Z</time></trkpt><trkpt lat="42.0951646" lon="13.6957753"><ele>1003.0</ele><time>2026-05-02T11:34:37.155Z</time></trkpt><trkpt lat="42.0950594" lon="13.6958575"><ele>1003.0</ele><time>2026-05-02T11:34:39.154Z</time></trkpt><trkpt lat="42.0949978" lon="13.6959094"><ele>1003.0</ele><time>2026-05-02T11:34:40.15Z</time></trkpt><trkpt lat="42.0949259" lon="13.6959533"><ele>1002.9999999999999</ele><time>2026-05-02T11:34:41.158Z</time></trkpt><trkpt lat="42.0948425" lon="13.6959864"><ele>1003.0</ele><time>2026-05-02T11:34:42.16Z</time></trkpt><trkpt lat="42.094753" lon="13.6960113"><ele>1003.8</ele><time>2026-05-02T11:34:43.163Z</time></trkpt><trkpt lat="42.0946612" lon="13.6960435"><ele>1004.5999999999999</ele><time>2026-05-02T11:34:44.164Z</time></trkpt><trkpt lat="42.0945691" lon="13.6960915"><ele>1005.4000000000001</ele><time>2026-05-02T11:34:45.16Z</time></trkpt><trkpt lat="42.0944822" lon="13.6961495"><ele>1006.2</ele><time>2026-05-02T11:34:46.162Z</time></trkpt><trkpt lat="42.0944014" lon="13.6962203"><ele>1007.0</ele><time>2026-05-02T11:34:47.163Z</time></trkpt><trkpt lat="42.094324" lon="13.6962777"><ele>1007.2</ele><time>2026-05-02T11:34:48.153Z</time></trkpt><trkpt lat="42.0942345" lon="13.6963028"><ele>1007.4000000000001</ele><time>2026-05-02T11:34:49.159Z</time></trkpt><trkpt lat="42.0941327" lon="13.6963222"><ele>1007.5999999999999</ele><time>2026-05-02T11:34:50.16Z</time></trkpt><trkpt lat="42.0940243" lon="13.6963605"><ele>1007.8</ele><time>2026-05-02T11:34:51.16Z</time></trkpt><trkpt lat="42.0939269" lon="13.6963878"><ele>1008.0</ele><time>2026-05-02T11:34:52.158Z</time></trkpt><trkpt lat="42.0938313" lon="13.6964131"><ele>1008.0</ele><time>2026-05-02T11:34:53.156Z</time></trkpt><trkpt lat="42.0937383" lon="13.6964645"><ele>1008.0</ele><time>2026-05-02T11:34:54.157Z</time></trkpt><trkpt lat="42.0936522" lon="13.6965509"><ele>1008.0</ele><time>2026-05-02T11:34:55.154Z</time></trkpt><trkpt lat="42.0935636" lon="13.6966488"><ele>1008.0</ele><time>2026-05-02T11:34:56.159Z</time></trkpt><trkpt lat="42.0934909" lon="13.6967619"><ele>1008.0</ele><time>2026-05-02T11:34:57.153Z</time></trkpt><trkpt lat="42.093421" lon="13.6968857"><ele>1007.2</ele><time>2026-05-02T11:34:58.155Z</time></trkpt><trkpt lat="42.0933541" lon="13.6970074"><ele>1006.4</ele><time>2026-05-02T11:34:59.155Z</time></trkpt><trkpt lat="42.0932898" lon="13.6971246"><ele>1005.6000000000001</ele><time>2026-05-02T11:35:00.15Z</time></trkpt><trkpt lat="42.0932346" lon="13.697228"><ele>1004.8000000000001</ele><time>2026-05-02T11:35:01.158Z</time></trkpt><trkpt lat="42.0931866" lon="13.6973189"><ele>1004.0</ele><time>2026-05-02T11:35:02.151Z</time></trkpt><trkpt lat="42.0931472" lon="13.6973993"><ele>1003.8333333333334</ele><time>2026-05-02T11:35:03.159Z</time></trkpt><trkpt lat="42.0931108" lon="13.6974948"><ele>1003.6666666666667</ele><time>2026-05-02T11:35:04.158Z</time></trkpt><trkpt lat="42.0930701" lon="13.6975875"><ele>1003.5</ele><time>2026-05-02T11:35:05.157Z</time></trkpt><trkpt lat="42.0930288" lon="13.6976739"><ele>1003.3333333333333</ele><time>2026-05-02T11:35:06.153Z</time></trkpt><trkpt lat="42.0929792" lon="13.6977461"><ele>1003.1666666666666</ele><time>2026-05-02T11:35:07.152Z</time></trkpt><trkpt lat="42.0929219" lon="13.6977943"><ele>1003.0</ele><time>2026-05-02T11:35:08.145Z</time></trkpt><trkpt lat="42.0927954" lon="13.6978315"><ele>1002.9999999999999</ele><time>2026-05-02T11:35:10.156Z</time></trkpt><trkpt lat="42.0927288" lon="13.6977977"><ele>1003.0</ele><time>2026-05-02T11:35:11.156Z</time></trkpt><trkpt lat="42.0926638" lon="13.6977421"><ele>1003.0</ele><time>2026-05-02T11:35:12.157Z</time></trkpt><trkpt lat="42.0926047" lon="13.6976888"><ele>1003.0</ele><time>2026-05-02T11:35:13.168Z</time></trkpt><trkpt lat="42.0925299" lon="13.6976627"><ele>1002.9999999999999</ele><time>2026-05-02T11:35:14.168Z</time></trkpt><trkpt lat="42.0924386" lon="13.6976615"><ele>1003.0</ele><time>2026-05-02T11:35:15.164Z</time></trkpt><trkpt lat="42.0923374" lon="13.6976893"><ele>1002.2</ele><time>2026-05-02T11:35:16.168Z</time></trkpt><trkpt lat="42.0922367" lon="13.6977267"><ele>1001.4</ele><time>2026-05-02T11:35:17.17Z</time></trkpt><trkpt lat="42.0921381" lon="13.6977683"><ele>1000.6000000000001</ele><time>2026-05-02T11:35:18.168Z</time></trkpt><trkpt lat="42.0920366" lon="13.6978006"><ele>999.8000000000001</ele><time>2026-05-02T11:35:19.165Z</time></trkpt><trkpt lat="42.0919311" lon="13.6978068"><ele>999.0</ele><time>2026-05-02T11:35:20.167Z</time></trkpt><trkpt lat="42.0918283" lon="13.6977952"><ele>998.2</ele><time>2026-05-02T11:35:21.16Z</time></trkpt><trkpt lat="42.0917326" lon="13.6977891"><ele>997.4000000000001</ele><time>2026-05-02T11:35:22.159Z</time></trkpt><trkpt lat="42.0916352" lon="13.6978135"><ele>996.6</ele><time>2026-05-02T11:35:23.157Z</time></trkpt><trkpt lat="42.0915335" lon="13.6978675"><ele>995.8</ele><time>2026-05-02T11:35:24.159Z</time></trkpt><trkpt lat="42.0914329" lon="13.6979425"><ele>995.0</ele><time>2026-05-02T11:35:25.155Z</time></trkpt><trkpt lat="42.0913364" lon="13.6980232"><ele>994.4</ele><time>2026-05-02T11:35:26.156Z</time></trkpt><trkpt lat="42.091242" lon="13.6980965"><ele>993.8</ele><time>2026-05-02T11:35:27.152Z</time></trkpt><trkpt lat="42.091153" lon="13.6981603"><ele>993.2</ele><time>2026-05-02T11:35:28.158Z</time></trkpt><trkpt lat="42.0910655" lon="13.698224"><ele>992.6</ele><time>2026-05-02T11:35:29.157Z</time></trkpt><trkpt lat="42.0909799" lon="13.6982707"><ele>992.0</ele><time>2026-05-02T11:35:30.155Z</time></trkpt><trkpt lat="42.0909034" lon="13.698307"><ele>992.0000000000001</ele><time>2026-05-02T11:35:31.157Z</time></trkpt><trkpt lat="42.090842" lon="13.698362"><ele>992.0</ele><time>2026-05-02T11:35:32.16Z</time></trkpt><trkpt lat="42.0907942" lon="13.6984422"><ele>992.0</ele><time>2026-05-02T11:35:33.155Z</time></trkpt><trkpt lat="42.0907663" lon="13.6985442"><ele>992.0</ele><time>2026-05-02T11:35:34.151Z</time></trkpt><trkpt lat="42.0907588" lon="13.698672"><ele>992.0000000000001</ele><time>2026-05-02T11:35:35.141Z</time></trkpt><trkpt lat="42.0907415" lon="13.6987977"><ele>992.0</ele><time>2026-05-02T11:35:36.153Z</time></trkpt><trkpt lat="42.0907135" lon="13.6989214"><ele>992.8333333333334</ele><time>2026-05-02T11:35:37.149Z</time></trkpt><trkpt lat="42.0906694" lon="13.6990203"><ele>993.6666666666667</ele><time>2026-05-02T11:35:38.158Z</time></trkpt><trkpt lat="42.0906054" lon="13.6990758"><ele>994.5</ele><time>2026-05-02T11:35:39.153Z</time></trkpt><trkpt lat="42.0905443" lon="13.6991292"><ele>995.3333333333333</ele><time>2026-05-02T11:35:40.156Z</time></trkpt><trkpt lat="42.0904808" lon="13.6991907"><ele>996.1666666666666</ele><time>2026-05-02T11:35:41.156Z</time></trkpt><trkpt lat="42.0903994" lon="13.6992468"><ele>997.0</ele><time>2026-05-02T11:35:42.155Z</time></trkpt><trkpt lat="42.0903015" lon="13.6993044"><ele>997.0</ele><time>2026-05-02T11:35:43.157Z</time></trkpt><trkpt lat="42.0902002" lon="13.6993556"><ele>997.0</ele><time>2026-05-02T11:35:44.158Z</time></trkpt><trkpt lat="42.0901073" lon="13.6994099"><ele>997.0</ele><time>2026-05-02T11:35:45.159Z</time></trkpt><trkpt lat="42.0900184" lon="13.6994868"><ele>997.0</ele><time>2026-05-02T11:35:46.152Z</time></trkpt><trkpt lat="42.0899211" lon="13.6995666"><ele>997.0</ele><time>2026-05-02T11:35:47.148Z</time></trkpt><trkpt lat="42.0898279" lon="13.6996269"><ele>997.6</ele><time>2026-05-02T11:35:48.15Z</time></trkpt><trkpt lat="42.0897499" lon="13.6996616"><ele>998.2</ele><time>2026-05-02T11:35:49.156Z</time></trkpt><trkpt lat="42.089645" lon="13.6996072"><ele>998.8</ele><time>2026-05-02T11:35:51.162Z</time></trkpt><trkpt lat="42.0896138" lon="13.6995074"><ele>999.4</ele><time>2026-05-02T11:35:52.16Z</time></trkpt><trkpt lat="42.0895882" lon="13.6993755"><ele>1000.0</ele><time>2026-05-02T11:35:53.158Z</time></trkpt><trkpt lat="42.0895553" lon="13.6992338"><ele>999.9999999999999</ele><time>2026-05-02T11:35:54.151Z</time></trkpt><trkpt lat="42.0895358" lon="13.6991002"><ele>1000.0</ele><time>2026-05-02T11:35:55.153Z</time></trkpt><trkpt lat="42.0895212" lon="13.6989905"><ele>1000.0</ele><time>2026-05-02T11:35:56.154Z</time></trkpt><trkpt lat="42.0895187" lon="13.6988846"><ele>1000.0</ele><time>2026-05-02T11:35:57.15Z</time></trkpt><trkpt lat="42.089521" lon="13.6987788"><ele>999.9999999999999</ele><time>2026-05-02T11:35:58.156Z</time></trkpt><trkpt lat="42.0895266" lon="13.6986746"><ele>1000.0</ele><time>2026-05-02T11:35:59.152Z</time></trkpt><trkpt lat="42.0895403" lon="13.6985745"><ele>999.1666666666666</ele><time>2026-05-02T11:36:00.156Z</time></trkpt><trkpt lat="42.0895524" lon="13.6984884"><ele>998.3333333333333</ele><time>2026-05-02T11:36:01.159Z</time></trkpt><trkpt lat="42.0895628" lon="13.6984032"><ele>997.5</ele><time>2026-05-02T11:36:02.16Z</time></trkpt><trkpt lat="42.0895462" lon="13.6982377"><ele>996.6666666666667</ele><time>2026-05-02T11:36:04.152Z</time></trkpt><trkpt lat="42.0895096" lon="13.6981492"><ele>995.8333333333334</ele><time>2026-05-02T11:36:05.165Z</time></trkpt><trkpt lat="42.0894664" lon="13.6980601"><ele>995.0</ele><time>2026-05-02T11:36:06.158Z</time></trkpt><trkpt lat="42.0894176" lon="13.6979818"><ele>995.0000000000001</ele><time>2026-05-02T11:36:07.147Z</time></trkpt><trkpt lat="42.0893573" lon="13.6979362"><ele>995.0</ele><time>2026-05-02T11:36:08.154Z</time></trkpt><trkpt lat="42.0892933" lon="13.6979166"><ele>995.0</ele><time>2026-05-02T11:36:09.16Z</time></trkpt><trkpt lat="42.0892259" lon="13.6979431"><ele>995.0</ele><time>2026-05-02T11:36:10.154Z</time></trkpt><trkpt lat="42.0891481" lon="13.6979917"><ele>995.0000000000001</ele><time>2026-05-02T11:36:11.15Z</time></trkpt><trkpt lat="42.0890647" lon="13.6980561"><ele>995.0</ele><time>2026-05-02T11:36:12.156Z</time></trkpt><trkpt lat="42.0889832" lon="13.6981249"><ele>995.0000000000001</ele><time>2026-05-02T11:36:13.155Z</time></trkpt><trkpt lat="42.0889126" lon="13.6981978"><ele>995.0</ele><time>2026-05-02T11:36:14.157Z</time></trkpt><trkpt lat="42.0888531" lon="13.698267"><ele>995.0</ele><time>2026-05-02T11:36:15.14Z</time></trkpt><trkpt lat="42.0887979" lon="13.6983242"><ele>995.0</ele><time>2026-05-02T11:36:16.151Z</time></trkpt><trkpt lat="42.0887404" lon="13.6983737"><ele>995.0000000000001</ele><time>2026-05-02T11:36:17.145Z</time></trkpt><trkpt lat="42.0886606" lon="13.6984226"><ele>995.0</ele><time>2026-05-02T11:36:18.156Z</time></trkpt><trkpt lat="42.0885813" lon="13.6984795"><ele>995.0000000000001</ele><time>2026-05-02T11:36:19.153Z</time></trkpt><trkpt lat="42.0885029" lon="13.6985355"><ele>995.0</ele><time>2026-05-02T11:36:20.152Z</time></trkpt><trkpt lat="42.0884234" lon="13.698582"><ele>995.0</ele><time>2026-05-02T11:36:21.154Z</time></trkpt><trkpt lat="42.0883499" lon="13.6986296"><ele>995.0</ele><time>2026-05-02T11:36:22.153Z</time></trkpt><trkpt lat="42.0882835" lon="13.6986736"><ele>995.0000000000001</ele><time>2026-05-02T11:36:23.161Z</time></trkpt><trkpt lat="42.0882236" lon="13.6987112"><ele>995.0</ele><time>2026-05-02T11:36:24.154Z</time></trkpt><trkpt lat="42.0881674" lon="13.6987544"><ele>994.3333333333334</ele><time>2026-05-02T11:36:25.16Z</time></trkpt><trkpt lat="42.0881133" lon="13.6988075"><ele>993.6666666666667</ele><time>2026-05-02T11:36:26.148Z</time></trkpt><trkpt lat="42.0880547" lon="13.6988819"><ele>993.0</ele><time>2026-05-02T11:36:27.158Z</time></trkpt><trkpt lat="42.0879945" lon="13.6989601"><ele>992.3333333333333</ele><time>2026-05-02T11:36:28.149Z</time></trkpt><trkpt lat="42.0879395" lon="13.6990491"><ele>991.6666666666666</ele><time>2026-05-02T11:36:29.161Z</time></trkpt><trkpt lat="42.0878933" lon="13.6991402"><ele>991.0</ele><time>2026-05-02T11:36:30.15Z</time></trkpt><trkpt lat="42.0878588" lon="13.6992156"><ele>990.9999999999999</ele><time>2026-05-02T11:36:31.157Z</time></trkpt><trkpt lat="42.0878198" lon="13.6993702"><ele>991.0</ele><time>2026-05-02T11:36:33.155Z</time></trkpt><trkpt lat="42.0878146" lon="13.699461"><ele>991.0</ele><time>2026-05-02T11:36:34.153Z</time></trkpt><trkpt lat="42.0878179" lon="13.6995581"><ele>991.0</ele><time>2026-05-02T11:36:35.154Z</time></trkpt><trkpt lat="42.0878223" lon="13.6996627"><ele>990.9999999999999</ele><time>2026-05-02T11:36:36.156Z</time></trkpt><trkpt lat="42.0878187" lon="13.6997753"><ele>991.0</ele><time>2026-05-02T11:36:37.145Z</time></trkpt><trkpt lat="42.0878045" lon="13.6998789"><ele>989.4</ele><time>2026-05-02T11:36:38.15Z</time></trkpt><trkpt lat="42.087786" lon="13.6999665"><ele>987.8</ele><time>2026-05-02T11:36:39.145Z</time></trkpt><trkpt lat="42.0877117" lon="13.7000851"><ele>986.1999999999999</ele><time>2026-05-02T11:36:41.138Z</time></trkpt><trkpt lat="42.0875963" lon="13.7001373"><ele>984.5999999999999</ele><time>2026-05-02T11:36:43.149Z</time></trkpt><trkpt lat="42.0874755" lon="13.7001611"><ele>983.0</ele><time>2026-05-02T11:36:45.145Z</time></trkpt><trkpt lat="42.0873997" lon="13.7001831"><ele>983.0000000000001</ele><time>2026-05-02T11:36:46.156Z</time></trkpt><trkpt lat="42.0873271" lon="13.7002015"><ele>983.0</ele><time>2026-05-02T11:36:47.147Z</time></trkpt><trkpt lat="42.0872612" lon="13.700229"><ele>983.0</ele><time>2026-05-02T11:36:48.149Z</time></trkpt><trkpt lat="42.087193" lon="13.700281"><ele>983.0</ele><time>2026-05-02T11:36:49.147Z</time></trkpt><trkpt lat="42.0871178" lon="13.7003564"><ele>983.0000000000001</ele><time>2026-05-02T11:36:50.153Z</time></trkpt><trkpt lat="42.0870413" lon="13.7004351"><ele>983.0</ele><time>2026-05-02T11:36:51.149Z</time></trkpt><trkpt lat="42.0869705" lon="13.7004931"><ele>982.9999999999999</ele><time>2026-05-02T11:36:52.159Z</time></trkpt><trkpt lat="42.0869022" lon="13.7005506"><ele>983.0</ele><time>2026-05-02T11:36:53.156Z</time></trkpt><trkpt lat="42.0868317" lon="13.7005965"><ele>982.9999999999999</ele><time>2026-05-02T11:36:54.149Z</time></trkpt><trkpt lat="42.0867643" lon="13.7006349"><ele>982.9999999999999</ele><time>2026-05-02T11:36:55.154Z</time></trkpt><trkpt lat="42.0867044" lon="13.7006739"><ele>983.0</ele><time>2026-05-02T11:36:56.155Z</time></trkpt><trkpt lat="42.0866508" lon="13.700726"><ele>982.9999999999999</ele><time>2026-05-02T11:36:57.154Z</time></trkpt><trkpt lat="42.0865969" lon="13.70079"><ele>982.9999999999999</ele><time>2026-05-02T11:36:58.143Z</time></trkpt><trkpt lat="42.0865307" lon="13.7008594"><ele>983.0000000000001</ele><time>2026-05-02T11:36:59.155Z</time></trkpt><trkpt lat="42.0864734" lon="13.7009299"><ele>983.0</ele><time>2026-05-02T11:37:00.144Z</time></trkpt><trkpt lat="42.0864285" lon="13.7009991"><ele>983.0</ele><time>2026-05-02T11:37:01.147Z</time></trkpt><trkpt lat="42.0863884" lon="13.7010723"><ele>983.0</ele><time>2026-05-02T11:37:02.142Z</time></trkpt><trkpt lat="42.086347" lon="13.701172"><ele>983.0000000000001</ele><time>2026-05-02T11:37:03.148Z</time></trkpt><trkpt lat="42.0863097" lon="13.701293"><ele>983.0</ele><time>2026-05-02T11:37:04.142Z</time></trkpt><trkpt lat="42.086272" lon="13.7014275"><ele>981.2</ele><time>2026-05-02T11:37:05.144Z</time></trkpt><trkpt lat="42.0862184" lon="13.7015549"><ele>979.4</ele><time>2026-05-02T11:37:06.144Z</time></trkpt><trkpt lat="42.086161" lon="13.7016797"><ele>977.6000000000001</ele><time>2026-05-02T11:37:07.143Z</time></trkpt><trkpt lat="42.0861032" lon="13.7018065"><ele>975.8000000000001</ele><time>2026-05-02T11:37:08.15Z</time></trkpt><trkpt lat="42.0860399" lon="13.7019423"><ele>974.0</ele><time>2026-05-02T11:37:09.147Z</time></trkpt><trkpt lat="42.0859819" lon="13.7020728"><ele>973.4000000000001</ele><time>2026-05-02T11:37:10.144Z</time></trkpt><trkpt lat="42.0859286" lon="13.7022023"><ele>972.8000000000001</ele><time>2026-05-02T11:37:11.143Z</time></trkpt><trkpt lat="42.0858738" lon="13.7023272"><ele>972.1999999999999</ele><time>2026-05-02T11:37:12.146Z</time></trkpt><trkpt lat="42.0858186" lon="13.7024483"><ele>971.5999999999999</ele><time>2026-05-02T11:37:13.151Z</time></trkpt><trkpt lat="42.0857662" lon="13.7025736"><ele>971.0</ele><time>2026-05-02T11:37:14.15Z</time></trkpt><trkpt lat="42.0857197" lon="13.7027071"><ele>969.8</ele><time>2026-05-02T11:37:15.148Z</time></trkpt><trkpt lat="42.0856761" lon="13.7028211"><ele>968.5999999999999</ele><time>2026-05-02T11:37:16.15Z</time></trkpt><trkpt lat="42.0856174" lon="13.7029325"><ele>967.4</ele><time>2026-05-02T11:37:17.156Z</time></trkpt><trkpt lat="42.0855516" lon="13.7030474"><ele>966.2</ele><time>2026-05-02T11:37:18.148Z</time></trkpt><trkpt lat="42.085477" lon="13.7031598"><ele>965.0</ele><time>2026-05-02T11:37:19.146Z</time></trkpt><trkpt lat="42.085399" lon="13.7032731"><ele>965.0</ele><time>2026-05-02T11:37:20.148Z</time></trkpt><trkpt lat="42.085313" lon="13.7033736"><ele>965.0</ele><time>2026-05-02T11:37:21.147Z</time></trkpt><trkpt lat="42.0852325" lon="13.7034606"><ele>965.0</ele><time>2026-05-02T11:37:22.151Z</time></trkpt><trkpt lat="42.0851492" lon="13.7035451"><ele>965.0</ele><time>2026-05-02T11:37:23.157Z</time></trkpt><trkpt lat="42.0850556" lon="13.7036124"><ele>965.0</ele><time>2026-05-02T11:37:24.15Z</time></trkpt><trkpt lat="42.0849628" lon="13.7036783"><ele>965.2</ele><time>2026-05-02T11:37:25.147Z</time></trkpt><trkpt lat="42.0848655" lon="13.7037444"><ele>965.4</ele><time>2026-05-02T11:37:26.152Z</time></trkpt><trkpt lat="42.0847698" lon="13.7038242"><ele>965.5999999999999</ele><time>2026-05-02T11:37:27.153Z</time></trkpt><trkpt lat="42.08468" lon="13.7039128"><ele>965.8</ele><time>2026-05-02T11:37:28.151Z</time></trkpt><trkpt lat="42.0845917" lon="13.7039954"><ele>966.0</ele><time>2026-05-02T11:37:29.151Z</time></trkpt><trkpt lat="42.0845095" lon="13.7040722"><ele>966.0</ele><time>2026-05-02T11:37:30.155Z</time></trkpt><trkpt lat="42.0844341" lon="13.7041628"><ele>965.9999999999999</ele><time>2026-05-02T11:37:31.155Z</time></trkpt><trkpt lat="42.0843534" lon="13.7042569"><ele>965.9999999999999</ele><time>2026-05-02T11:37:32.152Z</time></trkpt><trkpt lat="42.0842759" lon="13.7043377"><ele>966.0</ele><time>2026-05-02T11:37:33.15Z</time></trkpt><trkpt lat="42.0841991" lon="13.704419"><ele>966.0</ele><time>2026-05-02T11:37:34.153Z</time></trkpt><trkpt lat="42.0841188" lon="13.7045012"><ele>966.4</ele><time>2026-05-02T11:37:35.156Z</time></trkpt><trkpt lat="42.0840348" lon="13.7045896"><ele>966.8</ele><time>2026-05-02T11:37:36.155Z</time></trkpt><trkpt lat="42.0839538" lon="13.7046895"><ele>967.1999999999999</ele><time>2026-05-02T11:37:37.156Z</time></trkpt><trkpt lat="42.0838758" lon="13.7047938"><ele>967.5999999999999</ele><time>2026-05-02T11:37:38.147Z</time></trkpt><trkpt lat="42.0838003" lon="13.7048976"><ele>968.0</ele><time>2026-05-02T11:37:39.154Z</time></trkpt><trkpt lat="42.0837245" lon="13.7049932"><ele>968.0000000000001</ele><time>2026-05-02T11:37:40.149Z</time></trkpt><trkpt lat="42.0836483" lon="13.7050575"><ele>968.0</ele><time>2026-05-02T11:37:41.155Z</time></trkpt><trkpt lat="42.0835747" lon="13.7051152"><ele>968.0</ele><time>2026-05-02T11:37:42.146Z</time></trkpt><trkpt lat="42.0835046" lon="13.7051644"><ele>968.0</ele><time>2026-05-02T11:37:43.156Z</time></trkpt><trkpt lat="42.0834395" lon="13.7052101"><ele>968.0000000000001</ele><time>2026-05-02T11:37:44.149Z</time></trkpt><trkpt lat="42.0833792" lon="13.7052588"><ele>968.0</ele><time>2026-05-02T11:37:45.15Z</time></trkpt><trkpt lat="42.0833169" lon="13.7053142"><ele>971.3333333333334</ele><time>2026-05-02T11:37:46.148Z</time></trkpt><trkpt lat="42.0832555" lon="13.7053807"><ele>974.6666666666667</ele><time>2026-05-02T11:37:47.152Z</time></trkpt><trkpt lat="42.0832026" lon="13.7054535"><ele>978.0</ele><time>2026-05-02T11:37:48.153Z</time></trkpt><trkpt lat="42.0831588" lon="13.7055274"><ele>981.3333333333333</ele><time>2026-05-02T11:37:49.142Z</time></trkpt><trkpt lat="42.0831216" lon="13.705604"><ele>984.6666666666666</ele><time>2026-05-02T11:37:50.15Z</time></trkpt><trkpt lat="42.0830758" lon="13.7057353"><ele>988.0</ele><time>2026-05-02T11:37:52.15Z</time></trkpt><trkpt lat="42.0830443" lon="13.7058204"><ele>987.9999999999999</ele><time>2026-05-02T11:37:54.146Z</time></trkpt><trkpt lat="42.083037" lon="13.705907"><ele>988.0</ele><time>2026-05-02T11:38:21.164Z</time></trkpt><trkpt lat="42.0830056" lon="13.7059813"><ele>988.0</ele><time>2026-05-02T11:39:27.149Z</time></trkpt><trkpt lat="42.0829638" lon="13.7060719"><ele>988.0</ele><time>2026-05-02T11:39:30.154Z</time></trkpt><trkpt lat="42.0828803" lon="13.7061901"><ele>987.9999999999999</ele><time>2026-05-02T11:39:32.149Z</time></trkpt><trkpt lat="42.0828311" lon="13.7062596"><ele>988.0</ele><time>2026-05-02T11:39:33.145Z</time></trkpt><trkpt lat="42.0827848" lon="13.7063232"><ele>984.2</ele><time>2026-05-02T11:39:34.144Z</time></trkpt><trkpt lat="42.0827149" lon="13.7064156"><ele>980.4</ele><time>2026-05-02T11:39:36.148Z</time></trkpt><trkpt lat="42.0826517" lon="13.7065038"><ele>976.6000000000001</ele><time>2026-05-02T11:39:49.149Z</time></trkpt><trkpt lat="42.082603" lon="13.7065989"><ele>972.8000000000001</ele><time>2026-05-02T11:39:52.144Z</time></trkpt><trkpt lat="42.082524" lon="13.706791"><ele>969.0</ele><time>2026-05-02T11:39:54.147Z</time></trkpt><trkpt lat="42.0824596" lon="13.7069183"><ele>973.25</ele><time>2026-05-02T11:39:55.15Z</time></trkpt><trkpt lat="42.0823946" lon="13.7070435"><ele>977.5</ele><time>2026-05-02T11:39:56.144Z</time></trkpt><trkpt lat="42.0823165" lon="13.7071794"><ele>981.75</ele><time>2026-05-02T11:39:57.14Z</time></trkpt><trkpt lat="42.0822279" lon="13.7073245"><ele>986.0</ele><time>2026-05-02T11:39:58.148Z</time></trkpt><trkpt lat="42.0821123" lon="13.7074827"><ele>986.0</ele><time>2026-05-02T11:39:59.137Z</time></trkpt><trkpt lat="42.081975" lon="13.707695"><ele>986.0</ele><time>2026-05-02T11:40:00.14Z</time></trkpt><trkpt lat="42.0818391" lon="13.7078565"><ele>986.0</ele><time>2026-05-02T11:40:01.144Z</time></trkpt><trkpt lat="42.0816992" lon="13.70808"><ele>987.3333333333334</ele><time>2026-05-02T11:40:02.143Z</time></trkpt><trkpt lat="42.0815551" lon="13.7082413"><ele>988.6666666666667</ele><time>2026-05-02T11:40:03.142Z</time></trkpt><trkpt lat="42.0814503" lon="13.7083845"><ele>990.0</ele><time>2026-05-02T11:40:04.139Z</time></trkpt><trkpt lat="42.0813594" lon="13.7084872"><ele>977.3333333333333</ele><time>2026-05-02T11:40:05.139Z</time></trkpt><trkpt lat="42.0812151" lon="13.7085802"><ele>964.6666666666666</ele><time>2026-05-02T11:40:06.149Z</time></trkpt><trkpt lat="42.0810668" lon="13.7086627"><ele>952.0</ele><time>2026-05-02T11:40:07.146Z</time></trkpt><trkpt lat="42.0809457" lon="13.7087289"><ele>952.0</ele><time>2026-05-02T11:40:08.146Z</time></trkpt><trkpt lat="42.0808231" lon="13.7087955"><ele>952.0</ele><time>2026-05-02T11:40:09.147Z</time></trkpt><trkpt lat="42.080692" lon="13.7088731"><ele>952.0</ele><time>2026-05-02T11:40:10.144Z</time></trkpt><trkpt lat="42.0805451" lon="13.7089543"><ele>952.0</ele><time>2026-05-02T11:40:11.139Z</time></trkpt><trkpt lat="42.0803964" lon="13.7090357"><ele>960.3333333333333</ele><time>2026-05-02T11:40:12.147Z</time></trkpt><trkpt lat="42.0802391" lon="13.709132"><ele>968.6666666666667</ele><time>2026-05-02T11:40:13.149Z</time></trkpt><trkpt lat="42.0800936" lon="13.7091936"><ele>977.0</ele><time>2026-05-02T11:40:14.143Z</time></trkpt><trkpt lat="42.0799388" lon="13.7093068"><ele>978.75</ele><time>2026-05-02T11:40:15.142Z</time></trkpt><trkpt lat="42.0797925" lon="13.7094028"><ele>980.5</ele><time>2026-05-02T11:40:16.15Z</time></trkpt><trkpt lat="42.0796628" lon="13.7094736"><ele>982.25</ele><time>2026-05-02T11:40:17.143Z</time></trkpt><trkpt lat="42.0795335" lon="13.7095032"><ele>984.0</ele><time>2026-05-02T11:40:18.143Z</time></trkpt><trkpt lat="42.0793732" lon="13.7095225"><ele>978.5</ele><time>2026-05-02T11:40:19.151Z</time></trkpt><trkpt lat="42.079233" lon="13.7094963"><ele>973.0</ele><time>2026-05-02T11:40:20.141Z</time></trkpt><trkpt lat="42.0791183" lon="13.7094217"><ele>967.5</ele><time>2026-05-02T11:40:21.14Z</time></trkpt><trkpt lat="42.0790346" lon="13.7092886"><ele>962.0</ele><time>2026-05-02T11:40:22.153Z</time></trkpt><trkpt lat="42.0789538" lon="13.7091333"><ele>961.0</ele><time>2026-05-02T11:40:23.153Z</time></trkpt><trkpt lat="42.0788935" lon="13.7089709"><ele>960.0</ele><time>2026-05-02T11:40:24.146Z</time></trkpt><trkpt lat="42.0788263" lon="13.7088198"><ele>959.0</ele><time>2026-05-02T11:40:25.159Z</time></trkpt><trkpt lat="42.0787624" lon="13.7086365"><ele>958.0</ele><time>2026-05-02T11:40:26.159Z</time></trkpt><trkpt lat="42.0786913" lon="13.7084389"><ele>963.6666666666666</ele><time>2026-05-02T11:40:27.158Z</time></trkpt><trkpt lat="42.0786295" lon="13.7082421"><ele>969.3333333333333</ele><time>2026-05-02T11:40:28.158Z</time></trkpt><trkpt lat="42.0785862" lon="13.7080099"><ele>975.0</ele><time>2026-05-02T11:40:29.159Z</time></trkpt><trkpt lat="42.078561" lon="13.7078043"><ele>979.6666666666667</ele><time>2026-05-02T11:40:30.156Z</time></trkpt><trkpt lat="42.0785364" lon="13.7075843"><ele>984.3333333333334</ele><time>2026-05-02T11:40:31.159Z</time></trkpt><trkpt lat="42.0785007" lon="13.7073607"><ele>989.0</ele><time>2026-05-02T11:40:32.157Z</time></trkpt><trkpt lat="42.0784679" lon="13.7071784"><ele>989.0</ele><time>2026-05-02T11:40:33.154Z</time></trkpt><trkpt lat="42.0784575" lon="13.7070158"><ele>989.0000000000001</ele><time>2026-05-02T11:40:34.152Z</time></trkpt><trkpt lat="42.0784507" lon="13.7068886"><ele>989.0000000000001</ele><time>2026-05-02T11:40:35.146Z</time></trkpt><trkpt lat="42.0784117" lon="13.7067902"><ele>989.0</ele><time>2026-05-02T11:40:36.153Z</time></trkpt><trkpt lat="42.0783215" lon="13.7067317"><ele>989.0</ele><time>2026-05-02T11:40:37.155Z</time></trkpt><trkpt lat="42.0782204" lon="13.7067375"><ele>992.0</ele><time>2026-05-02T11:40:38.155Z</time></trkpt><trkpt lat="42.0781173" lon="13.7068259"><ele>995.0</ele><time>2026-05-02T11:40:39.148Z</time></trkpt><trkpt lat="42.0780364" lon="13.7069457"><ele>998.0</ele><time>2026-05-02T11:40:40.135Z</time></trkpt><trkpt lat="42.07796" lon="13.7070948"><ele>1001.0</ele><time>2026-05-02T11:40:41.147Z</time></trkpt><trkpt lat="42.0778621" lon="13.7072697"><ele>1001.0</ele><time>2026-05-02T11:40:42.136Z</time></trkpt><trkpt lat="42.0777314" lon="13.7074896"><ele>1001.0</ele><time>2026-05-02T11:40:43.147Z</time></trkpt><trkpt lat="42.077602" lon="13.7076418"><ele>1001.0</ele><time>2026-05-02T11:40:44.138Z</time></trkpt><trkpt lat="42.0774795" lon="13.7077929"><ele>995.75</ele><time>2026-05-02T11:40:45.14Z</time></trkpt><trkpt lat="42.0773783" lon="13.7079169"><ele>990.5</ele><time>2026-05-02T11:40:46.142Z</time></trkpt><trkpt lat="42.0772756" lon="13.7079992"><ele>985.25</ele><time>2026-05-02T11:40:47.145Z</time></trkpt><trkpt lat="42.0771606" lon="13.7079906"><ele>980.0</ele><time>2026-05-02T11:40:48.141Z</time></trkpt><trkpt lat="42.077052" lon="13.7079923"><ele>980.0</ele><time>2026-05-02T11:40:49.151Z</time></trkpt><trkpt lat="42.0769287" lon="13.7079656"><ele>980.0</ele><time>2026-05-02T11:40:50.147Z</time></trkpt><trkpt lat="42.0767839" lon="13.7078973"><ele>980.0</ele><time>2026-05-02T11:40:51.139Z</time></trkpt><trkpt lat="42.0766162" lon="13.7078298"><ele>977.6666666666667</ele><time>2026-05-02T11:40:52.154Z</time></trkpt><trkpt lat="42.0764418" lon="13.7077829"><ele>975.3333333333333</ele><time>2026-05-02T11:40:53.147Z</time></trkpt><trkpt lat="42.076267" lon="13.7077024"><ele>973.0</ele><time>2026-05-02T11:40:54.156Z</time></trkpt><trkpt lat="42.0760799" lon="13.7076619"><ele>980.6666666666666</ele><time>2026-05-02T11:40:55.148Z</time></trkpt><trkpt lat="42.075932" lon="13.7075993"><ele>988.3333333333333</ele><time>2026-05-02T11:40:56.156Z</time></trkpt><trkpt lat="42.0757844" lon="13.7075381"><ele>996.0</ele><time>2026-05-02T11:40:57.151Z</time></trkpt><trkpt lat="42.0756175" lon="13.7074802"><ele>996.0</ele><time>2026-05-02T11:40:58.149Z</time></trkpt><trkpt lat="42.075462" lon="13.7073916"><ele>996.0</ele><time>2026-05-02T11:40:59.145Z</time></trkpt><trkpt lat="42.0753062" lon="13.7072846"><ele>996.0</ele><time>2026-05-02T11:41:00.144Z</time></trkpt><trkpt lat="42.0751617" lon="13.7071286"><ele>996.0</ele><time>2026-05-02T11:41:01.153Z</time></trkpt><trkpt lat="42.0750062" lon="13.7069926"><ele>996.0</ele><time>2026-05-02T11:41:02.149Z</time></trkpt><trkpt lat="42.074876" lon="13.7068798"><ele>996.0</ele><time>2026-05-02T11:41:03.152Z</time></trkpt><trkpt lat="42.0747559" lon="13.7067536"><ele>998.3333333333333</ele><time>2026-05-02T11:41:04.141Z</time></trkpt><trkpt lat="42.0746455" lon="13.706613"><ele>1000.6666666666666</ele><time>2026-05-02T11:41:05.154Z</time></trkpt><trkpt lat="42.0745304" lon="13.7064559"><ele>1003.0</ele><time>2026-05-02T11:41:06.154Z</time></trkpt><trkpt lat="42.0744239" lon="13.7063063"><ele>1003.0</ele><time>2026-05-02T11:41:07.16Z</time></trkpt><trkpt lat="42.0743089" lon="13.7061588"><ele>1003.0</ele><time>2026-05-02T11:41:08.157Z</time></trkpt><trkpt lat="42.0742072" lon="13.7059911"><ele>1003.0</ele><time>2026-05-02T11:41:09.162Z</time></trkpt><trkpt lat="42.0741053" lon="13.7058225"><ele>1005.75</ele><time>2026-05-02T11:41:10.158Z</time></trkpt><trkpt lat="42.0739767" lon="13.7056945"><ele>1008.5</ele><time>2026-05-02T11:41:11.159Z</time></trkpt><trkpt lat="42.0738762" lon="13.7055428"><ele>1011.25</ele><time>2026-05-02T11:41:12.152Z</time></trkpt><trkpt lat="42.0737856" lon="13.7054064"><ele>1014.0</ele><time>2026-05-02T11:41:13.155Z</time></trkpt><trkpt lat="42.0736952" lon="13.7053157"><ele>1018.0</ele><time>2026-05-02T11:41:14.158Z</time></trkpt><trkpt lat="42.0736211" lon="13.7052106"><ele>1022.0</ele><time>2026-05-02T11:41:15.146Z</time></trkpt><trkpt lat="42.0735089" lon="13.7051604"><ele>1026.0</ele><time>2026-05-02T11:41:16.145Z</time></trkpt><trkpt lat="42.0733751" lon="13.7051546"><ele>1030.0</ele><time>2026-05-02T11:41:17.145Z</time></trkpt><trkpt lat="42.0732249" lon="13.7051955"><ele>1031.3333333333333</ele><time>2026-05-02T11:41:18.144Z</time></trkpt><trkpt lat="42.073067" lon="13.7052278"><ele>1032.6666666666667</ele><time>2026-05-02T11:41:19.141Z</time></trkpt><trkpt lat="42.07287" lon="13.7052909"><ele>1034.0</ele><time>2026-05-02T11:41:20.142Z</time></trkpt><trkpt lat="42.0726824" lon="13.7053123"><ele>1031.0</ele><time>2026-05-02T11:41:21.135Z</time></trkpt><trkpt lat="42.0725175" lon="13.7052874"><ele>1028.0</ele><time>2026-05-02T11:41:22.144Z</time></trkpt><trkpt lat="42.0723468" lon="13.705275"><ele>1025.0</ele><time>2026-05-02T11:41:23.145Z</time></trkpt><trkpt lat="42.0721802" lon="13.7052913"><ele>1025.0</ele><time>2026-05-02T11:41:24.139Z</time></trkpt><trkpt lat="42.0720169" lon="13.7053032"><ele>1025.0</ele><time>2026-05-02T11:41:25.144Z</time></trkpt><trkpt lat="42.0718616" lon="13.7053175"><ele>1025.0</ele><time>2026-05-02T11:41:26.145Z</time></trkpt><trkpt lat="42.0717209" lon="13.7053571"><ele>1030.3333333333335</ele><time>2026-05-02T11:41:27.137Z</time></trkpt><trkpt lat="42.0715843" lon="13.7054514"><ele>1035.6666666666667</ele><time>2026-05-02T11:41:28.144Z</time></trkpt><trkpt lat="42.071467" lon="13.7055903"><ele>1041.0</ele><time>2026-05-02T11:41:29.153Z</time></trkpt><trkpt lat="42.0713729" lon="13.7057518"><ele>1041.0</ele><time>2026-05-02T11:41:30.149Z</time></trkpt><trkpt lat="42.0712742" lon="13.7059168"><ele>1041.0</ele><time>2026-05-02T11:41:31.148Z</time></trkpt><trkpt lat="42.0711834" lon="13.7060566"><ele>1041.0</ele><time>2026-05-02T11:41:32.144Z</time></trkpt><trkpt lat="42.0710847" lon="13.7061547"><ele>1041.0</ele><time>2026-05-02T11:41:33.134Z</time></trkpt><trkpt lat="42.0709629" lon="13.7062285"><ele>1037.75</ele><time>2026-05-02T11:41:34.144Z</time></trkpt><trkpt lat="42.0708339" lon="13.7062844"><ele>1034.5</ele><time>2026-05-02T11:41:35.139Z</time></trkpt><trkpt lat="42.0706918" lon="13.7063148"><ele>1031.25</ele><time>2026-05-02T11:41:36.141Z</time></trkpt><trkpt lat="42.0705556" lon="13.7063302"><ele>1028.0</ele><time>2026-05-02T11:41:37.148Z</time></trkpt><trkpt lat="42.0704493" lon="13.7063209"><ele>1028.0</ele><time>2026-05-02T11:41:38.149Z</time></trkpt><trkpt lat="42.0703582" lon="13.7063179"><ele>1028.0</ele><time>2026-05-02T11:41:39.145Z</time></trkpt><trkpt lat="42.0702775" lon="13.7062727"><ele>1028.0</ele><time>2026-05-02T11:41:40.146Z</time></trkpt><trkpt lat="42.0702082" lon="13.706191"><ele>1028.0</ele><time>2026-05-02T11:41:41.144Z</time></trkpt><trkpt lat="42.0701586" lon="13.7060727"><ele>1028.0</ele><time>2026-05-02T11:41:42.145Z</time></trkpt><trkpt lat="42.0701666" lon="13.7059598"><ele>1032.75</ele><time>2026-05-02T11:41:43.148Z</time></trkpt><trkpt lat="42.0702354" lon="13.7058488"><ele>1037.5</ele><time>2026-05-02T11:41:44.136Z</time></trkpt><trkpt lat="42.07032" lon="13.7057683"><ele>1042.25</ele><time>2026-05-02T11:41:45.146Z</time></trkpt><trkpt lat="42.0704413" lon="13.7057544"><ele>1047.0</ele><time>2026-05-02T11:41:46.15Z</time></trkpt><trkpt lat="42.0705799" lon="13.7057741"><ele>1047.0</ele><time>2026-05-02T11:41:47.15Z</time></trkpt><trkpt lat="42.0707168" lon="13.7058069"><ele>1047.0</ele><time>2026-05-02T11:41:48.146Z</time></trkpt><trkpt lat="42.0708411" lon="13.7058205"><ele>1047.0</ele><time>2026-05-02T11:41:49.15Z</time></trkpt><trkpt lat="42.070966" lon="13.7058068"><ele>1047.0</ele><time>2026-05-02T11:41:50.143Z</time></trkpt><trkpt lat="42.0710846" lon="13.7057259"><ele>1045.0</ele><time>2026-05-02T11:41:51.154Z</time></trkpt><trkpt lat="42.0712006" lon="13.7055747"><ele>1043.0</ele><time>2026-05-02T11:41:52.152Z</time></trkpt><trkpt lat="42.0713398" lon="13.7053466"><ele>1041.0</ele><time>2026-05-02T11:41:53.146Z</time></trkpt><trkpt lat="42.0714951" lon="13.7051297"><ele>1042.6666666666667</ele><time>2026-05-02T11:41:54.144Z</time></trkpt><trkpt lat="42.0716785" lon="13.7049872"><ele>1044.3333333333335</ele><time>2026-05-02T11:41:55.151Z</time></trkpt><trkpt lat="42.0718651" lon="13.7048396"><ele>1046.0</ele><time>2026-05-02T11:41:56.143Z</time></trkpt><trkpt lat="42.0720203" lon="13.7046849"><ele>1046.0</ele><time>2026-05-02T11:41:57.142Z</time></trkpt><trkpt lat="42.072175" lon="13.7045377"><ele>1046.0</ele><time>2026-05-02T11:41:58.138Z</time></trkpt><trkpt lat="42.0723048" lon="13.7044232"><ele>1046.0</ele><time>2026-05-02T11:41:59.144Z</time></trkpt><trkpt lat="42.0724473" lon="13.7042357"><ele>1047.5</ele><time>2026-05-02T11:42:00.14Z</time></trkpt><trkpt lat="42.0725342" lon="13.7040732"><ele>1049.0</ele><time>2026-05-02T11:42:01.154Z</time></trkpt><trkpt lat="42.0726226" lon="13.7039059"><ele>1050.5</ele><time>2026-05-02T11:42:02.148Z</time></trkpt><trkpt lat="42.0726909" lon="13.7037554"><ele>1052.0</ele><time>2026-05-02T11:42:03.151Z</time></trkpt><trkpt lat="42.0727489" lon="13.7036206"><ele>1054.8</ele><time>2026-05-02T11:42:04.152Z</time></trkpt><trkpt lat="42.0727664" lon="13.703489"><ele>1057.6</ele><time>2026-05-02T11:42:05.149Z</time></trkpt><trkpt lat="42.0727291" lon="13.703387"><ele>1060.3999999999999</ele><time>2026-05-02T11:42:06.141Z</time></trkpt><trkpt lat="42.0726677" lon="13.7033274"><ele>1063.2</ele><time>2026-05-02T11:42:07.154Z</time></trkpt><trkpt lat="42.0725634" lon="13.7033335"><ele>1066.0</ele><time>2026-05-02T11:42:08.146Z</time></trkpt><trkpt lat="42.0724536" lon="13.7033922"><ele>1065.3333333333333</ele><time>2026-05-02T11:42:09.149Z</time></trkpt><trkpt lat="42.072341" lon="13.7035271"><ele>1064.6666666666667</ele><time>2026-05-02T11:42:10.148Z</time></trkpt><trkpt lat="42.0722323" lon="13.7036952"><ele>1064.0</ele><time>2026-05-02T11:42:11.151Z</time></trkpt><trkpt lat="42.0721042" lon="13.7039056"><ele>1064.0</ele><time>2026-05-02T11:42:12.135Z</time></trkpt><trkpt lat="42.0719626" lon="13.7040624"><ele>1064.0</ele><time>2026-05-02T11:42:13.154Z</time></trkpt><trkpt lat="42.0718178" lon="13.7041864"><ele>1064.0</ele><time>2026-05-02T11:42:14.143Z</time></trkpt><trkpt lat="42.0716773" lon="13.7042912"><ele>1066.5</ele><time>2026-05-02T11:42:15.145Z</time></trkpt><trkpt lat="42.0715502" lon="13.7043465"><ele>1069.0</ele><time>2026-05-02T11:42:16.138Z</time></trkpt><trkpt lat="42.0713937" lon="13.7043527"><ele>1071.5</ele><time>2026-05-02T11:42:17.152Z</time></trkpt><trkpt lat="42.0712368" lon="13.7043337"><ele>1074.0</ele><time>2026-05-02T11:42:18.146Z</time></trkpt><trkpt lat="42.0710828" lon="13.7043176"><ele>1074.0</ele><time>2026-05-02T11:42:19.147Z</time></trkpt><trkpt lat="42.07091" lon="13.7043155"><ele>1074.0</ele><time>2026-05-02T11:42:20.149Z</time></trkpt><trkpt lat="42.0707091" lon="13.7042928"><ele>1074.0</ele><time>2026-05-02T11:42:21.149Z</time></trkpt><trkpt lat="42.0705466" lon="13.7042848"><ele>1072.3333333333333</ele><time>2026-05-02T11:42:22.149Z</time></trkpt><trkpt lat="42.0703809" lon="13.7043268"><ele>1070.6666666666665</ele><time>2026-05-02T11:42:23.167Z</time></trkpt><trkpt lat="42.0702236" lon="13.7044114"><ele>1069.0</ele><time>2026-05-02T11:42:24.155Z</time></trkpt><trkpt lat="42.0700789" lon="13.7045645"><ele>1080.3333333333333</ele><time>2026-05-02T11:42:25.161Z</time></trkpt><trkpt lat="42.0699241" lon="13.7047381"><ele>1091.6666666666667</ele><time>2026-05-02T11:42:26.154Z</time></trkpt><trkpt lat="42.0697676" lon="13.7049137"><ele>1103.0</ele><time>2026-05-02T11:42:27.151Z</time></trkpt><trkpt lat="42.0696181" lon="13.7050956"><ele>1092.3333333333335</ele><time>2026-05-02T11:42:28.144Z</time></trkpt><trkpt lat="42.0694596" lon="13.7052758"><ele>1081.6666666666667</ele><time>2026-05-02T11:42:29.143Z</time></trkpt><trkpt lat="42.0692973" lon="13.7054177"><ele>1071.0</ele><time>2026-05-02T11:42:30.142Z</time></trkpt><trkpt lat="42.0691543" lon="13.7055105"><ele>1077.0</ele><time>2026-05-02T11:42:31.139Z</time></trkpt><trkpt lat="42.0690039" lon="13.7055962"><ele>1083.0</ele><time>2026-05-02T11:42:32.143Z</time></trkpt><trkpt lat="42.0688474" lon="13.7057095"><ele>1089.0</ele><time>2026-05-02T11:42:33.144Z</time></trkpt><trkpt lat="42.0686829" lon="13.7058015"><ele>1089.0</ele><time>2026-05-02T11:42:34.146Z</time></trkpt><trkpt lat="42.0684901" lon="13.7058785"><ele>1089.0</ele><time>2026-05-02T11:42:35.147Z</time></trkpt><trkpt lat="42.0682895" lon="13.70595"><ele>1089.0</ele><time>2026-05-02T11:42:36.14Z</time></trkpt><trkpt lat="42.0680777" lon="13.7059885"><ele>1093.6666666666667</ele><time>2026-05-02T11:42:37.137Z</time></trkpt><trkpt lat="42.0678719" lon="13.7060194"><ele>1098.3333333333335</ele><time>2026-05-02T11:42:38.149Z</time></trkpt><trkpt lat="42.0676557" lon="13.7060491"><ele>1103.0</ele><time>2026-05-02T11:42:39.147Z</time></trkpt><trkpt lat="42.0674447" lon="13.7060581"><ele>1092.6666666666667</ele><time>2026-05-02T11:42:40.145Z</time></trkpt><trkpt lat="42.0672299" lon="13.7060832"><ele>1082.3333333333333</ele><time>2026-05-02T11:42:41.146Z</time></trkpt><trkpt lat="42.0670094" lon="13.7060909"><ele>1072.0</ele><time>2026-05-02T11:42:42.144Z</time></trkpt><trkpt lat="42.0667987" lon="13.7061055"><ele>1075.6666666666665</ele><time>2026-05-02T11:42:43.147Z</time></trkpt><trkpt lat="42.06659" lon="13.7060854"><ele>1079.3333333333333</ele><time>2026-05-02T11:42:44.148Z</time></trkpt><trkpt lat="42.0663736" lon="13.7060996"><ele>1083.0</ele><time>2026-05-02T11:42:45.137Z</time></trkpt><trkpt lat="42.0661703" lon="13.7061404"><ele>1083.0</ele><time>2026-05-02T11:42:46.151Z</time></trkpt><trkpt lat="42.0659652" lon="13.706154"><ele>1083.0</ele><time>2026-05-02T11:42:47.157Z</time></trkpt><trkpt lat="42.0657655" lon="13.7062193"><ele>1083.0</ele><time>2026-05-02T11:42:48.149Z</time></trkpt><trkpt lat="42.0655684" lon="13.706242"><ele>1086.6666666666667</ele><time>2026-05-02T11:42:49.15Z</time></trkpt><trkpt lat="42.0653734" lon="13.7062235"><ele>1090.3333333333335</ele><time>2026-05-02T11:42:50.148Z</time></trkpt><trkpt lat="42.0651805" lon="13.7061686"><ele>1094.0</ele><time>2026-05-02T11:42:51.153Z</time></trkpt><trkpt lat="42.0649858" lon="13.7061291"><ele>1099.6666666666667</ele><time>2026-05-02T11:42:52.156Z</time></trkpt><trkpt lat="42.064781" lon="13.7061112"><ele>1105.3333333333333</ele><time>2026-05-02T11:42:53.16Z</time></trkpt><trkpt lat="42.0646009" lon="13.7060873"><ele>1111.0</ele><time>2026-05-02T11:42:54.16Z</time></trkpt><trkpt lat="42.0644482" lon="13.7060672"><ele>1111.0</ele><time>2026-05-02T11:42:55.161Z</time></trkpt><trkpt lat="42.0642871" lon="13.7060867"><ele>1111.0</ele><time>2026-05-02T11:42:56.165Z</time></trkpt><trkpt lat="42.0641551" lon="13.7060605"><ele>1111.0</ele><time>2026-05-02T11:42:57.167Z</time></trkpt><trkpt lat="42.0640617" lon="13.7060073"><ele>1111.0</ele><time>2026-05-02T11:42:58.16Z</time></trkpt><trkpt lat="42.0639971" lon="13.7059194"><ele>1111.1666666666665</ele><time>2026-05-02T11:42:59.156Z</time></trkpt><trkpt lat="42.0639415" lon="13.7058456"><ele>1111.3333333333333</ele><time>2026-05-02T11:43:00.162Z</time></trkpt><trkpt lat="42.0638744" lon="13.7057823"><ele>1111.5</ele><time>2026-05-02T11:43:01.162Z</time></trkpt><trkpt lat="42.0638163" lon="13.7057437"><ele>1111.6666666666667</ele><time>2026-05-02T11:43:02.159Z</time></trkpt><trkpt lat="42.0637369" lon="13.7057487"><ele>1111.8333333333335</ele><time>2026-05-02T11:43:04.168Z</time></trkpt><trkpt lat="42.0636635" lon="13.7057224"><ele>1112.0</ele><time>2026-05-02T11:43:07.159Z</time></trkpt><trkpt lat="42.0636095" lon="13.7056487"><ele>1112.0</ele><time>2026-05-02T11:43:10.164Z</time></trkpt><trkpt lat="42.0635428" lon="13.7055561"><ele>1112.0</ele><time>2026-05-02T11:43:13.152Z</time></trkpt><trkpt lat="42.0634955" lon="13.705478"><ele>1112.0</ele><time>2026-05-02T11:43:15.159Z</time></trkpt><trkpt lat="42.0634495" lon="13.7054149"><ele>1112.0</ele><time>2026-05-02T11:43:19.162Z</time></trkpt><trkpt lat="42.0633799" lon="13.7053327"><ele>1112.0</ele><time>2026-05-02T11:44:45.158Z</time></trkpt><trkpt lat="42.0632722" lon="13.7052424"><ele>1107.3333333333335</ele><time>2026-05-02T11:44:47.158Z</time></trkpt><trkpt lat="42.0632116" lon="13.7051909"><ele>1102.6666666666667</ele><time>2026-05-02T11:44:48.162Z</time></trkpt><trkpt lat="42.0631519" lon="13.7051445"><ele>1098.0</ele><time>2026-05-02T11:44:49.158Z</time></trkpt><trkpt lat="42.0630376" lon="13.7050732"><ele>1093.3333333333333</ele><time>2026-05-02T11:44:51.158Z</time></trkpt><trkpt lat="42.0629764" lon="13.7050261"><ele>1088.6666666666665</ele><time>2026-05-02T11:44:52.164Z</time></trkpt><trkpt lat="42.0629082" lon="13.704986"><ele>1084.0</ele><time>2026-05-02T11:44:53.16Z</time></trkpt><trkpt lat="42.0628454" lon="13.7049576"><ele>1084.0</ele><time>2026-05-02T11:44:54.159Z</time></trkpt><trkpt lat="42.0627734" lon="13.7049375"><ele>1084.0</ele><time>2026-05-02T11:44:55.158Z</time></trkpt><trkpt lat="42.0626957" lon="13.7049309"><ele>1084.0</ele><time>2026-05-02T11:44:56.156Z</time></trkpt><trkpt lat="42.0626118" lon="13.7049236"><ele>1084.0</ele><time>2026-05-02T11:44:57.156Z</time></trkpt><trkpt lat="42.0625276" lon="13.7049143"><ele>1084.0</ele><time>2026-05-02T11:44:58.156Z</time></trkpt><trkpt lat="42.0624459" lon="13.7049046"><ele>1084.0</ele><time>2026-05-02T11:44:59.161Z</time></trkpt><trkpt lat="42.0623651" lon="13.7049002"><ele>1082.3333333333333</ele><time>2026-05-02T11:45:00.156Z</time></trkpt><trkpt lat="42.0622817" lon="13.7049031"><ele>1080.6666666666665</ele><time>2026-05-02T11:45:01.156Z</time></trkpt><trkpt lat="42.0621907" lon="13.7049025"><ele>1079.0</ele><time>2026-05-02T11:45:02.156Z</time></trkpt><trkpt lat="42.0620988" lon="13.7048964"><ele>1077.3333333333333</ele><time>2026-05-02T11:45:03.155Z</time></trkpt><trkpt lat="42.0620058" lon="13.7048899"><ele>1075.6666666666667</ele><time>2026-05-02T11:45:04.146Z</time></trkpt><trkpt lat="42.0619248" lon="13.7048754"><ele>1074.0</ele><time>2026-05-02T11:45:05.156Z</time></trkpt><trkpt lat="42.0618501" lon="13.7048687"><ele>1074.0</ele><time>2026-05-02T11:45:06.148Z</time></trkpt><trkpt lat="42.0617859" lon="13.7048462"><ele>1074.0</ele><time>2026-05-02T11:45:07.151Z</time></trkpt><trkpt lat="42.0616868" lon="13.7047456"><ele>1074.0</ele><time>2026-05-02T11:45:09.145Z</time></trkpt><trkpt lat="42.0616302" lon="13.7046754"><ele>1074.0</ele><time>2026-05-02T11:45:10.149Z</time></trkpt><trkpt lat="42.0615607" lon="13.7045824"><ele>1074.0</ele><time>2026-05-02T11:45:11.151Z</time></trkpt><trkpt lat="42.0614933" lon="13.7044811"><ele>1072.8</ele><time>2026-05-02T11:45:12.15Z</time></trkpt><trkpt lat="42.0614347" lon="13.7043722"><ele>1071.6000000000001</ele><time>2026-05-02T11:45:13.15Z</time></trkpt><trkpt lat="42.0613803" lon="13.7042601"><ele>1070.4</ele><time>2026-05-02T11:45:14.152Z</time></trkpt><trkpt lat="42.0613234" lon="13.704139"><ele>1069.2</ele><time>2026-05-02T11:45:15.149Z</time></trkpt><trkpt lat="42.0612588" lon="13.7040126"><ele>1068.0</ele><time>2026-05-02T11:45:16.15Z</time></trkpt><trkpt lat="42.0611909" lon="13.7038875"><ele>1068.0</ele><time>2026-05-02T11:45:17.153Z</time></trkpt><trkpt lat="42.0611235" lon="13.7037752"><ele>1068.0</ele><time>2026-05-02T11:45:18.151Z</time></trkpt><trkpt lat="42.0610588" lon="13.7036726"><ele>1068.0</ele><time>2026-05-02T11:45:19.156Z</time></trkpt><trkpt lat="42.0609969" lon="13.7035647"><ele>1068.0</ele><time>2026-05-02T11:45:20.157Z</time></trkpt><trkpt lat="42.0609331" lon="13.7034441"><ele>1068.0</ele><time>2026-05-02T11:45:21.158Z</time></trkpt><trkpt lat="42.0608639" lon="13.7033247"><ele>1068.6</ele><time>2026-05-02T11:45:22.155Z</time></trkpt><trkpt lat="42.0607965" lon="13.7032143"><ele>1069.1999999999998</ele><time>2026-05-02T11:45:23.163Z</time></trkpt><trkpt lat="42.060737" lon="13.7031047"><ele>1069.8</ele><time>2026-05-02T11:45:24.159Z</time></trkpt><trkpt lat="42.0606774" lon="13.7029912"><ele>1070.3999999999999</ele><time>2026-05-02T11:45:25.163Z</time></trkpt><trkpt lat="42.0606082" lon="13.7028859"><ele>1071.0</ele><time>2026-05-02T11:45:26.165Z</time></trkpt><trkpt lat="42.0605468" lon="13.7027724"><ele>1069.8</ele><time>2026-05-02T11:45:27.161Z</time></trkpt><trkpt lat="42.0604894" lon="13.7026639"><ele>1068.6</ele><time>2026-05-02T11:45:28.165Z</time></trkpt><trkpt lat="42.0604391" lon="13.7025502"><ele>1067.4</ele><time>2026-05-02T11:45:29.162Z</time></trkpt><trkpt lat="42.0603798" lon="13.7024391"><ele>1066.2</ele><time>2026-05-02T11:45:30.163Z</time></trkpt><trkpt lat="42.06032" lon="13.7023201"><ele>1065.0</ele><time>2026-05-02T11:45:31.161Z</time></trkpt><trkpt lat="42.0602544" lon="13.7022053"><ele>1065.0</ele><time>2026-05-02T11:45:32.167Z</time></trkpt><trkpt lat="42.0601862" lon="13.702093"><ele>1065.0</ele><time>2026-05-02T11:45:33.166Z</time></trkpt><trkpt lat="42.0601136" lon="13.7019798"><ele>1065.0</ele><time>2026-05-02T11:45:34.157Z</time></trkpt><trkpt lat="42.0600441" lon="13.7018721"><ele>1065.0</ele><time>2026-05-02T11:45:35.156Z</time></trkpt><trkpt lat="42.0599775" lon="13.7017541"><ele>1065.0</ele><time>2026-05-02T11:45:36.157Z</time></trkpt><trkpt lat="42.0599134" lon="13.7016391"><ele>1067.2</ele><time>2026-05-02T11:45:37.159Z</time></trkpt><trkpt lat="42.0598482" lon="13.7015297"><ele>1069.4</ele><time>2026-05-02T11:45:38.16Z</time></trkpt><trkpt lat="42.0597849" lon="13.7014245"><ele>1071.6</ele><time>2026-05-02T11:45:39.159Z</time></trkpt><trkpt lat="42.0597226" lon="13.701328"><ele>1073.8</ele><time>2026-05-02T11:45:40.161Z</time></trkpt><trkpt lat="42.0596578" lon="13.701228"><ele>1076.0</ele><time>2026-05-02T11:45:41.158Z</time></trkpt><trkpt lat="42.0595947" lon="13.701129"><ele>1073.5</ele><time>2026-05-02T11:45:42.16Z</time></trkpt><trkpt lat="42.0595402" lon="13.7010331"><ele>1071.0</ele><time>2026-05-02T11:45:43.156Z</time></trkpt><trkpt lat="42.0594879" lon="13.7009326"><ele>1068.5</ele><time>2026-05-02T11:45:44.161Z</time></trkpt><trkpt lat="42.0594326" lon="13.7008398"><ele>1066.0</ele><time>2026-05-02T11:45:45.157Z</time></trkpt><trkpt lat="42.0593692" lon="13.7007601"><ele>1063.5</ele><time>2026-05-02T11:45:46.158Z</time></trkpt><trkpt lat="42.0593079" lon="13.7006819"><ele>1061.0</ele><time>2026-05-02T11:45:47.161Z</time></trkpt><trkpt lat="42.0592418" lon="13.700618"><ele>1061.0</ele><time>2026-05-02T11:45:48.155Z</time></trkpt><trkpt lat="42.0591736" lon="13.7005612"><ele>1061.0</ele><time>2026-05-02T11:45:49.155Z</time></trkpt><trkpt lat="42.0591" lon="13.7005138"><ele>1061.0</ele><time>2026-05-02T11:45:50.154Z</time></trkpt><trkpt lat="42.0590196" lon="13.7004716"><ele>1061.0</ele><time>2026-05-02T11:45:51.154Z</time></trkpt><trkpt lat="42.0589379" lon="13.7004386"><ele>1061.0</ele><time>2026-05-02T11:45:52.161Z</time></trkpt><trkpt lat="42.0588592" lon="13.7004051"><ele>1061.0</ele><time>2026-05-02T11:45:53.159Z</time></trkpt><trkpt lat="42.05878" lon="13.70038"><ele>1060.3333333333335</ele><time>2026-05-02T11:45:54.156Z</time></trkpt><trkpt lat="42.0586956" lon="13.7003695"><ele>1059.6666666666667</ele><time>2026-05-02T11:45:55.155Z</time></trkpt><trkpt lat="42.0586139" lon="13.7003578"><ele>1059.0</ele><time>2026-05-02T11:45:56.16Z</time></trkpt><trkpt lat="42.058525" lon="13.700338"><ele>1058.3333333333333</ele><time>2026-05-02T11:45:57.159Z</time></trkpt><trkpt lat="42.0584334" lon="13.7003226"><ele>1057.6666666666665</ele><time>2026-05-02T11:45:58.153Z</time></trkpt><trkpt lat="42.0583347" lon="13.7003134"><ele>1057.0</ele><time>2026-05-02T11:45:59.158Z</time></trkpt><trkpt lat="42.0582423" lon="13.7003143"><ele>1056.1666666666665</ele><time>2026-05-02T11:46:00.158Z</time></trkpt><trkpt lat="42.0581524" lon="13.7003164"><ele>1055.3333333333333</ele><time>2026-05-02T11:46:01.158Z</time></trkpt><trkpt lat="42.0580613" lon="13.7003116"><ele>1054.5</ele><time>2026-05-02T11:46:02.154Z</time></trkpt><trkpt lat="42.0579709" lon="13.7003102"><ele>1053.6666666666667</ele><time>2026-05-02T11:46:03.152Z</time></trkpt><trkpt lat="42.0578942" lon="13.7003075"><ele>1052.8333333333335</ele><time>2026-05-02T11:46:04.153Z</time></trkpt><trkpt lat="42.0578285" lon="13.7002921"><ele>1052.0</ele><time>2026-05-02T11:46:05.156Z</time></trkpt><trkpt lat="42.0577006" lon="13.70027"><ele>1052.0</ele><time>2026-05-02T11:46:07.152Z</time></trkpt><trkpt lat="42.0576278" lon="13.7002606"><ele>1052.0</ele><time>2026-05-02T11:46:08.153Z</time></trkpt><trkpt lat="42.0575582" lon="13.7002455"><ele>1052.0</ele><time>2026-05-02T11:46:09.154Z</time></trkpt><trkpt lat="42.0574909" lon="13.7002421"><ele>1052.0</ele><time>2026-05-02T11:46:10.156Z</time></trkpt><trkpt lat="42.0574232" lon="13.7002406"><ele>1052.0</ele><time>2026-05-02T11:46:11.15Z</time></trkpt><trkpt lat="42.0573554" lon="13.7002398"><ele>1052.0</ele><time>2026-05-02T11:46:12.151Z</time></trkpt><trkpt lat="42.0572868" lon="13.7002303"><ele>1052.0</ele><time>2026-05-02T11:46:13.153Z</time></trkpt><trkpt lat="42.0572202" lon="13.7002213"><ele>1051.857142857143</ele><time>2026-05-02T11:46:14.154Z</time></trkpt><trkpt lat="42.0571514" lon="13.7002153"><ele>1051.7142857142856</ele><time>2026-05-02T11:46:15.157Z</time></trkpt><trkpt lat="42.0570813" lon="13.7002091"><ele>1051.5714285714284</ele><time>2026-05-02T11:46:16.154Z</time></trkpt><trkpt lat="42.0570098" lon="13.7001998"><ele>1051.4285714285713</ele><time>2026-05-02T11:46:17.155Z</time></trkpt><trkpt lat="42.0569361" lon="13.7001946"><ele>1051.2857142857142</ele><time>2026-05-02T11:46:18.154Z</time></trkpt><trkpt lat="42.0568675" lon="13.7001854"><ele>1051.142857142857</ele><time>2026-05-02T11:46:19.153Z</time></trkpt><trkpt lat="42.0568021" lon="13.7001756"><ele>1051.0</ele><time>2026-05-02T11:46:20.154Z</time></trkpt><trkpt lat="42.0566924" lon="13.7001543"><ele>1051.2</ele><time>2026-05-02T11:46:22.155Z</time></trkpt><trkpt lat="42.0565783" lon="13.7001344"><ele>1051.3999999999999</ele><time>2026-05-02T11:46:24.153Z</time></trkpt><trkpt lat="42.0564747" lon="13.7001265"><ele>1051.6</ele><time>2026-05-02T11:46:26.154Z</time></trkpt><trkpt lat="42.0563787" lon="13.7001279"><ele>1051.8</ele><time>2026-05-02T11:46:37.154Z</time></trkpt><trkpt lat="42.0562636" lon="13.7001127"><ele>1052.0</ele><time>2026-05-02T11:46:39.153Z</time></trkpt><trkpt lat="42.0561996" lon="13.7001026"><ele>1052.0</ele><time>2026-05-02T11:46:40.153Z</time></trkpt><trkpt lat="42.0561363" lon="13.7000866"><ele>1052.0</ele><time>2026-05-02T11:46:41.16Z</time></trkpt><trkpt lat="42.0560234" lon="13.7000513"><ele>1052.0</ele><time>2026-05-02T11:46:43.159Z</time></trkpt><trkpt lat="42.0559114" lon="13.7000286"><ele>1052.0</ele><time>2026-05-02T11:46:45.152Z</time></trkpt><trkpt lat="42.055783" lon="13.7000073"><ele>1052.0</ele><time>2026-05-02T11:46:47.155Z</time></trkpt><trkpt lat="42.0557123" lon="13.6999938"><ele>1051.7142857142858</ele><time>2026-05-02T11:46:48.149Z</time></trkpt><trkpt lat="42.0556379" lon="13.6999848"><ele>1051.4285714285713</ele><time>2026-05-02T11:46:49.153Z</time></trkpt><trkpt lat="42.0555653" lon="13.6999741"><ele>1051.142857142857</ele><time>2026-05-02T11:46:50.159Z</time></trkpt><trkpt lat="42.0554954" lon="13.6999686"><ele>1050.857142857143</ele><time>2026-05-02T11:46:51.158Z</time></trkpt><trkpt lat="42.0554266" lon="13.699955"><ele>1050.5714285714284</ele><time>2026-05-02T11:46:52.158Z</time></trkpt><trkpt lat="42.0553613" lon="13.6999451"><ele>1050.2857142857142</ele><time>2026-05-02T11:46:53.155Z</time></trkpt><trkpt lat="42.0552941" lon="13.6999322"><ele>1050.0</ele><time>2026-05-02T11:46:54.157Z</time></trkpt><trkpt lat="42.0552267" lon="13.6999136"><ele>1050.0</ele><time>2026-05-02T11:46:55.158Z</time></trkpt><trkpt lat="42.0551598" lon="13.6998876"><ele>1050.0</ele><time>2026-05-02T11:46:56.153Z</time></trkpt><trkpt lat="42.0550894" lon="13.699861"><ele>1050.0</ele><time>2026-05-02T11:46:57.154Z</time></trkpt><trkpt lat="42.0550221" lon="13.6998279"><ele>1050.0</ele><time>2026-05-02T11:46:58.15Z</time></trkpt><trkpt lat="42.0549542" lon="13.6997939"><ele>1050.0</ele><time>2026-05-02T11:46:59.149Z</time></trkpt><trkpt lat="42.0548896" lon="13.6997603"><ele>1050.0</ele><time>2026-05-02T11:47:00.151Z</time></trkpt><trkpt lat="42.0548298" lon="13.699726"><ele>1050.0</ele><time>2026-05-02T11:47:01.151Z</time></trkpt><trkpt lat="42.0547203" lon="13.6996604"><ele>1049.6666666666667</ele><time>2026-05-02T11:47:03.145Z</time></trkpt><trkpt lat="42.0546199" lon="13.6995913"><ele>1049.3333333333333</ele><time>2026-05-02T11:47:05.15Z</time></trkpt><trkpt lat="42.0545452" lon="13.6995376"><ele>1049.0</ele><time>2026-05-02T11:47:07.146Z</time></trkpt><trkpt lat="42.0544813" lon="13.6994825"><ele>1048.6666666666665</ele><time>2026-05-02T11:50:22.159Z</time></trkpt><trkpt lat="42.0544091" lon="13.6994821"><ele>1048.3333333333333</ele><time>2026-05-02T11:50:49.152Z</time></trkpt><trkpt lat="42.0543229" lon="13.6994595"><ele>1048.0</ele><time>2026-05-02T11:50:53.152Z</time></trkpt><trkpt lat="42.0542096" lon="13.6994075"><ele>1048.6666666666665</ele><time>2026-05-02T11:50:55.152Z</time></trkpt><trkpt lat="42.054142" lon="13.6993678"><ele>1049.3333333333333</ele><time>2026-05-02T11:50:56.154Z</time></trkpt><trkpt lat="42.0540717" lon="13.6993305"><ele>1050.0</ele><time>2026-05-02T11:50:57.153Z</time></trkpt><trkpt lat="42.0540015" lon="13.6992979"><ele>1050.6666666666667</ele><time>2026-05-02T11:50:58.152Z</time></trkpt><trkpt lat="42.0539288" lon="13.6992663"><ele>1051.3333333333335</ele><time>2026-05-02T11:50:59.15Z</time></trkpt><trkpt lat="42.0538549" lon="13.6992306"><ele>1052.0</ele><time>2026-05-02T11:51:00.152Z</time></trkpt><trkpt lat="42.053781" lon="13.6991904"><ele>1052.0</ele><time>2026-05-02T11:51:01.152Z</time></trkpt><trkpt lat="42.0537012" lon="13.699152"><ele>1052.0</ele><time>2026-05-02T11:51:02.149Z</time></trkpt><trkpt lat="42.0536174" lon="13.6991113"><ele>1052.0</ele><time>2026-05-02T11:51:03.148Z</time></trkpt><trkpt lat="42.0535371" lon="13.6990742"><ele>1052.0</ele><time>2026-05-02T11:51:04.151Z</time></trkpt><trkpt lat="42.0534561" lon="13.6990331"><ele>1052.0</ele><time>2026-05-02T11:51:05.144Z</time></trkpt><trkpt lat="42.0533791" lon="13.6989962"><ele>1052.0</ele><time>2026-05-02T11:51:06.15Z</time></trkpt><trkpt lat="42.0532955" lon="13.6989621"><ele>1052.4</ele><time>2026-05-02T11:51:07.151Z</time></trkpt><trkpt lat="42.053213" lon="13.6989267"><ele>1052.8000000000002</ele><time>2026-05-02T11:51:08.149Z</time></trkpt><trkpt lat="42.0531335" lon="13.6988797"><ele>1053.2</ele><time>2026-05-02T11:51:09.154Z</time></trkpt><trkpt lat="42.0530571" lon="13.6988165"><ele>1053.6000000000001</ele><time>2026-05-02T11:51:10.147Z</time></trkpt><trkpt lat="42.0529831" lon="13.6987293"><ele>1054.0</ele><time>2026-05-02T11:51:11.152Z</time></trkpt><trkpt lat="42.0529111" lon="13.6986478"><ele>1054.4</ele><time>2026-05-02T11:51:12.148Z</time></trkpt><trkpt lat="42.052844" lon="13.6985583"><ele>1054.8000000000002</ele><time>2026-05-02T11:51:13.153Z</time></trkpt><trkpt lat="42.0527736" lon="13.6984679"><ele>1055.1999999999998</ele><time>2026-05-02T11:51:14.146Z</time></trkpt><trkpt lat="42.0526971" lon="13.6983851"><ele>1055.6</ele><time>2026-05-02T11:51:15.149Z</time></trkpt><trkpt lat="42.052614" lon="13.6983067"><ele>1056.0</ele><time>2026-05-02T11:51:16.151Z</time></trkpt><trkpt lat="42.0525329" lon="13.6982313"><ele>1058.6</ele><time>2026-05-02T11:51:17.15Z</time></trkpt><trkpt lat="42.0524513" lon="13.6981519"><ele>1061.1999999999998</ele><time>2026-05-02T11:51:18.148Z</time></trkpt><trkpt lat="42.0523699" lon="13.6980678"><ele>1063.8000000000002</ele><time>2026-05-02T11:51:19.147Z</time></trkpt><trkpt lat="42.0522935" lon="13.6979845"><ele>1066.4</ele><time>2026-05-02T11:51:20.148Z</time></trkpt><trkpt lat="42.05222" lon="13.6979097"><ele>1069.0</ele><time>2026-05-02T11:51:21.151Z</time></trkpt><trkpt lat="42.0521477" lon="13.6978278"><ele>1066.4</ele><time>2026-05-02T11:51:22.151Z</time></trkpt><trkpt lat="42.0520796" lon="13.6977356"><ele>1063.8000000000002</ele><time>2026-05-02T11:51:23.15Z</time></trkpt><trkpt lat="42.0520158" lon="13.6976415"><ele>1061.1999999999998</ele><time>2026-05-02T11:51:24.147Z</time></trkpt><trkpt lat="42.0519497" lon="13.6975426"><ele>1058.6</ele><time>2026-05-02T11:51:25.146Z</time></trkpt><trkpt lat="42.0518787" lon="13.6974476"><ele>1056.0</ele><time>2026-05-02T11:51:26.15Z</time></trkpt><trkpt lat="42.0518111" lon="13.6973644"><ele>1056.0</ele><time>2026-05-02T11:51:27.153Z</time></trkpt><trkpt lat="42.0517458" lon="13.6972937"><ele>1056.0</ele><time>2026-05-02T11:51:28.147Z</time></trkpt><trkpt lat="42.0516822" lon="13.6972243"><ele>1056.0</ele><time>2026-05-02T11:51:29.147Z</time></trkpt><trkpt lat="42.0516175" lon="13.6971515"><ele>1056.0</ele><time>2026-05-02T11:51:30.148Z</time></trkpt><trkpt lat="42.051548" lon="13.6970745"><ele>1056.0</ele><time>2026-05-02T11:51:31.153Z</time></trkpt><trkpt lat="42.0514751" lon="13.6969966"><ele>1056.0</ele><time>2026-05-02T11:51:32.145Z</time></trkpt><trkpt lat="42.0514001" lon="13.6969211"><ele>1055.8</ele><time>2026-05-02T11:51:33.142Z</time></trkpt><trkpt lat="42.0513243" lon="13.6968549"><ele>1055.6</ele><time>2026-05-02T11:51:34.147Z</time></trkpt><trkpt lat="42.0512472" lon="13.696787"><ele>1055.4</ele><time>2026-05-02T11:51:35.144Z</time></trkpt><trkpt lat="42.0511796" lon="13.696708"><ele>1055.2</ele><time>2026-05-02T11:51:36.143Z</time></trkpt><trkpt lat="42.0511097" lon="13.6966186"><ele>1055.0</ele><time>2026-05-02T11:51:37.141Z</time></trkpt><trkpt lat="42.0510364" lon="13.6965272"><ele>1055.0</ele><time>2026-05-02T11:51:38.145Z</time></trkpt><trkpt lat="42.0509583" lon="13.6964388"><ele>1055.0</ele><time>2026-05-02T11:51:39.143Z</time></trkpt><trkpt lat="42.0508846" lon="13.6963543"><ele>1055.0</ele><time>2026-05-02T11:51:40.144Z</time></trkpt><trkpt lat="42.0508107" lon="13.6962673"><ele>1055.0</ele><time>2026-05-02T11:51:41.143Z</time></trkpt><trkpt lat="42.0507421" lon="13.6961781"><ele>1055.0</ele><time>2026-05-02T11:51:42.137Z</time></trkpt><trkpt lat="42.0506803" lon="13.696077"><ele>1054.3333333333335</ele><time>2026-05-02T11:51:43.143Z</time></trkpt><trkpt lat="42.050613" lon="13.6959811"><ele>1053.6666666666667</ele><time>2026-05-02T11:51:44.145Z</time></trkpt><trkpt lat="42.0505434" lon="13.6958862"><ele>1053.0</ele><time>2026-05-02T11:51:45.141Z</time></trkpt><trkpt lat="42.0504872" lon="13.6957942"><ele>1052.3333333333333</ele><time>2026-05-02T11:51:46.144Z</time></trkpt><trkpt lat="42.050434" lon="13.6957128"><ele>1051.6666666666665</ele><time>2026-05-02T11:51:47.143Z</time></trkpt><trkpt lat="42.0503751" lon="13.6956376"><ele>1051.0</ele><time>2026-05-02T11:51:48.142Z</time></trkpt><trkpt lat="42.0503121" lon="13.6955672"><ele>1051.0</ele><time>2026-05-02T11:51:49.141Z</time></trkpt><trkpt lat="42.0502488" lon="13.6954902"><ele>1051.0</ele><time>2026-05-02T11:51:50.141Z</time></trkpt><trkpt lat="42.0501883" lon="13.6954017"><ele>1051.0</ele><time>2026-05-02T11:51:51.141Z</time></trkpt><trkpt lat="42.0501314" lon="13.6953164"><ele>1051.0</ele><time>2026-05-02T11:51:52.143Z</time></trkpt><trkpt lat="42.0500695" lon="13.6952434"><ele>1051.0</ele><time>2026-05-02T11:51:53.143Z</time></trkpt><trkpt lat="42.0500009" lon="13.6951622"><ele>1051.0</ele><time>2026-05-02T11:51:54.14Z</time></trkpt><trkpt lat="42.049937" lon="13.6950781"><ele>1052.0</ele><time>2026-05-02T11:51:55.143Z</time></trkpt><trkpt lat="42.0498777" lon="13.6949897"><ele>1053.0</ele><time>2026-05-02T11:51:56.143Z</time></trkpt><trkpt lat="42.0498147" lon="13.6948969"><ele>1054.0</ele><time>2026-05-02T11:51:57.142Z</time></trkpt><trkpt lat="42.0497496" lon="13.6948056"><ele>1055.0</ele><time>2026-05-02T11:51:58.14Z</time></trkpt><trkpt lat="42.0496897" lon="13.6947182"><ele>1056.0</ele><time>2026-05-02T11:51:59.141Z</time></trkpt><trkpt lat="42.0496283" lon="13.6946297"><ele>1056.0</ele><time>2026-05-02T11:52:00.145Z</time></trkpt><trkpt lat="42.0495659" lon="13.6945517"><ele>1056.0</ele><time>2026-05-02T11:52:01.144Z</time></trkpt><trkpt lat="42.0495117" lon="13.6944722"><ele>1056.0</ele><time>2026-05-02T11:52:02.143Z</time></trkpt><trkpt lat="42.0494573" lon="13.6943898"><ele>1056.0</ele><time>2026-05-02T11:52:03.141Z</time></trkpt><trkpt lat="42.0493947" lon="13.6943067"><ele>1056.0</ele><time>2026-05-02T11:52:04.141Z</time></trkpt><trkpt lat="42.0493238" lon="13.6942292"><ele>1056.0</ele><time>2026-05-02T11:52:05.142Z</time></trkpt><trkpt lat="42.0492497" lon="13.6941527"><ele>1055.8333333333333</ele><time>2026-05-02T11:52:06.141Z</time></trkpt><trkpt lat="42.0491821" lon="13.6940724"><ele>1055.6666666666667</ele><time>2026-05-02T11:52:07.138Z</time></trkpt><trkpt lat="42.0491145" lon="13.6940033"><ele>1055.5</ele><time>2026-05-02T11:52:08.143Z</time></trkpt><trkpt lat="42.0490447" lon="13.6939336"><ele>1055.3333333333335</ele><time>2026-05-02T11:52:09.139Z</time></trkpt><trkpt lat="42.0489754" lon="13.6938581"><ele>1055.1666666666667</ele><time>2026-05-02T11:52:10.139Z</time></trkpt><trkpt lat="42.048905" lon="13.6937912"><ele>1055.0</ele><time>2026-05-02T11:52:11.137Z</time></trkpt><trkpt lat="42.048839" lon="13.6937203"><ele>1055.0</ele><time>2026-05-02T11:52:12.144Z</time></trkpt><trkpt lat="42.0487784" lon="13.6936438"><ele>1055.0</ele><time>2026-05-02T11:52:13.141Z</time></trkpt><trkpt lat="42.0487172" lon="13.6935665"><ele>1055.0</ele><time>2026-05-02T11:52:14.146Z</time></trkpt><trkpt lat="42.0486536" lon="13.6934953"><ele>1055.0</ele><time>2026-05-02T11:52:15.138Z</time></trkpt><trkpt lat="42.0485874" lon="13.6934275"><ele>1055.0</ele><time>2026-05-02T11:52:16.142Z</time></trkpt><trkpt lat="42.0485202" lon="13.6933613"><ele>1055.0</ele><time>2026-05-02T11:52:17.147Z</time></trkpt><trkpt lat="42.0484515" lon="13.6932936"><ele>1054.6666666666667</ele><time>2026-05-02T11:52:18.141Z</time></trkpt><trkpt lat="42.0483765" lon="13.6932274"><ele>1054.3333333333335</ele><time>2026-05-02T11:52:19.142Z</time></trkpt><trkpt lat="42.0483032" lon="13.6931523"><ele>1054.0</ele><time>2026-05-02T11:52:20.14Z</time></trkpt><trkpt lat="42.0482339" lon="13.6930786"><ele>1053.6666666666667</ele><time>2026-05-02T11:52:21.138Z</time></trkpt><trkpt lat="42.0481686" lon="13.693001"><ele>1053.3333333333333</ele><time>2026-05-02T11:52:22.148Z</time></trkpt><trkpt lat="42.0481016" lon="13.6929224"><ele>1053.0</ele><time>2026-05-02T11:52:23.146Z</time></trkpt><trkpt lat="42.0480331" lon="13.6928443"><ele>1053.0</ele><time>2026-05-02T11:52:24.145Z</time></trkpt><trkpt lat="42.0479666" lon="13.6927585"><ele>1053.0</ele><time>2026-05-02T11:52:25.14Z</time></trkpt><trkpt lat="42.0479039" lon="13.6926746"><ele>1053.0</ele><time>2026-05-02T11:52:26.147Z</time></trkpt><trkpt lat="42.0478395" lon="13.6925963"><ele>1053.0</ele><time>2026-05-02T11:52:27.143Z</time></trkpt><trkpt lat="42.0477721" lon="13.6925241"><ele>1053.0</ele><time>2026-05-02T11:52:28.137Z</time></trkpt><trkpt lat="42.0477049" lon="13.6924554"><ele>1053.0</ele><time>2026-05-02T11:52:29.139Z</time></trkpt><trkpt lat="42.0476397" lon="13.6923915"><ele>1050.6666666666667</ele><time>2026-05-02T11:52:30.141Z</time></trkpt><trkpt lat="42.0475713" lon="13.6923257"><ele>1048.3333333333333</ele><time>2026-05-02T11:52:31.14Z</time></trkpt><trkpt lat="42.0474981" lon="13.6922632"><ele>1046.0</ele><time>2026-05-02T11:52:32.142Z</time></trkpt><trkpt lat="42.0474311" lon="13.6921957"><ele>1043.6666666666665</ele><time>2026-05-02T11:52:33.135Z</time></trkpt><trkpt lat="42.0473578" lon="13.6921342"><ele>1041.3333333333333</ele><time>2026-05-02T11:52:34.139Z</time></trkpt><trkpt lat="42.0472873" lon="13.6920716"><ele>1039.0</ele><time>2026-05-02T11:52:35.139Z</time></trkpt><trkpt lat="42.0472178" lon="13.6920063"><ele>1039.0</ele><time>2026-05-02T11:52:36.137Z</time></trkpt><trkpt lat="42.0471439" lon="13.6919483"><ele>1039.0</ele><time>2026-05-02T11:52:37.138Z</time></trkpt><trkpt lat="42.0470753" lon="13.691888"><ele>1039.0</ele><time>2026-05-02T11:52:38.139Z</time></trkpt><trkpt lat="42.0470062" lon="13.6918329"><ele>1039.0</ele><time>2026-05-02T11:52:39.14Z</time></trkpt><trkpt lat="42.0469327" lon="13.6917846"><ele>1039.0</ele><time>2026-05-02T11:52:40.135Z</time></trkpt><trkpt lat="42.0468602" lon="13.6917332"><ele>1039.0</ele><time>2026-05-02T11:52:41.137Z</time></trkpt><trkpt lat="42.0467898" lon="13.6916801"><ele>1036.3333333333333</ele><time>2026-05-02T11:52:42.14Z</time></trkpt><trkpt lat="42.0467226" lon="13.6916262"><ele>1033.6666666666665</ele><time>2026-05-02T11:52:43.142Z</time></trkpt><trkpt lat="42.0466579" lon="13.6915736"><ele>1031.0</ele><time>2026-05-02T11:52:44.145Z</time></trkpt><trkpt lat="42.0465911" lon="13.6915254"><ele>1028.3333333333333</ele><time>2026-05-02T11:52:45.149Z</time></trkpt><trkpt lat="42.0465231" lon="13.6914769"><ele>1025.6666666666667</ele><time>2026-05-02T11:52:46.14Z</time></trkpt><trkpt lat="42.0464606" lon="13.6914299"><ele>1023.0</ele><time>2026-05-02T11:52:47.146Z</time></trkpt><trkpt lat="42.0463953" lon="13.6913822"><ele>1023.0</ele><time>2026-05-02T11:52:48.143Z</time></trkpt><trkpt lat="42.0463261" lon="13.6913315"><ele>1023.0</ele><time>2026-05-02T11:52:49.139Z</time></trkpt><trkpt lat="42.0462504" lon="13.6912657"><ele>1023.0</ele><time>2026-05-02T11:52:50.138Z</time></trkpt><trkpt lat="42.0461707" lon="13.6912006"><ele>1023.0</ele><time>2026-05-02T11:52:51.136Z</time></trkpt><trkpt lat="42.0460883" lon="13.6911351"><ele>1023.0</ele><time>2026-05-02T11:52:52.149Z</time></trkpt><trkpt lat="42.0460081" lon="13.6910581"><ele>1022.0</ele><time>2026-05-02T11:52:53.143Z</time></trkpt><trkpt lat="42.0459332" lon="13.6909697"><ele>1021.0</ele><time>2026-05-02T11:52:54.145Z</time></trkpt><trkpt lat="42.045865" lon="13.6908847"><ele>1020.0</ele><time>2026-05-02T11:52:55.137Z</time></trkpt><trkpt lat="42.0457938" lon="13.6908087"><ele>1019.0</ele><time>2026-05-02T11:52:56.153Z</time></trkpt><trkpt lat="42.0457228" lon="13.6907416"><ele>1018.0</ele><time>2026-05-02T11:52:57.152Z</time></trkpt><trkpt lat="42.0456594" lon="13.6906787"><ele>1017.0</ele><time>2026-05-02T11:52:58.148Z</time></trkpt><trkpt lat="42.0455983" lon="13.6906144"><ele>1017.0</ele><time>2026-05-02T11:52:59.148Z</time></trkpt><trkpt lat="42.0455363" lon="13.6905439"><ele>1017.0</ele><time>2026-05-02T11:53:00.148Z</time></trkpt><trkpt lat="42.0454748" lon="13.6904663"><ele>1017.0</ele><time>2026-05-02T11:53:01.144Z</time></trkpt><trkpt lat="42.0454165" lon="13.6903847"><ele>1017.0</ele><time>2026-05-02T11:53:02.148Z</time></trkpt><trkpt lat="42.0453684" lon="13.690295"><ele>1017.0</ele><time>2026-05-02T11:53:03.147Z</time></trkpt><trkpt lat="42.0453311" lon="13.6901911"><ele>1017.0</ele><time>2026-05-02T11:53:04.148Z</time></trkpt><trkpt lat="42.0452914" lon="13.6900921"><ele>1015.1428571428571</ele><time>2026-05-02T11:53:05.146Z</time></trkpt><trkpt lat="42.0452529" lon="13.6900006"><ele>1013.2857142857142</ele><time>2026-05-02T11:53:06.147Z</time></trkpt><trkpt lat="42.0452174" lon="13.6899217"><ele>1011.4285714285713</ele><time>2026-05-02T11:53:07.157Z</time></trkpt><trkpt lat="42.0451827" lon="13.6898463"><ele>1009.5714285714284</ele><time>2026-05-02T11:53:08.147Z</time></trkpt><trkpt lat="42.0451502" lon="13.6897667"><ele>1007.7142857142857</ele><time>2026-05-02T11:53:09.151Z</time></trkpt><trkpt lat="42.0451152" lon="13.6896922"><ele>1005.8571428571427</ele><time>2026-05-02T11:53:10.144Z</time></trkpt><trkpt lat="42.0450766" lon="13.6896122"><ele>1003.9999999999999</ele><time>2026-05-02T11:53:11.152Z</time></trkpt><trkpt lat="42.0450396" lon="13.6895301"><ele>1004.0000000000001</ele><time>2026-05-02T11:53:12.147Z</time></trkpt><trkpt lat="42.0450051" lon="13.6894458"><ele>1004.0</ele><time>2026-05-02T11:53:13.152Z</time></trkpt><trkpt lat="42.0449771" lon="13.68934"><ele>1004.0</ele><time>2026-05-02T11:53:14.144Z</time></trkpt><trkpt lat="42.0449556" lon="13.6892415"><ele>1004.0</ele><time>2026-05-02T11:53:15.146Z</time></trkpt><trkpt lat="42.0449367" lon="13.6891384"><ele>1004.0000000000001</ele><time>2026-05-02T11:53:16.146Z</time></trkpt><trkpt lat="42.0449046" lon="13.6890431"><ele>1004.0</ele><time>2026-05-02T11:53:17.146Z</time></trkpt><trkpt lat="42.0448696" lon="13.688953"><ele>1003.0000000000001</ele><time>2026-05-02T11:53:18.144Z</time></trkpt><trkpt lat="42.0448375" lon="13.6888716"><ele>1002.0</ele><time>2026-05-02T11:53:19.145Z</time></trkpt><trkpt lat="42.044813" lon="13.68879"><ele>1001.0</ele><time>2026-05-02T11:53:20.146Z</time></trkpt><trkpt lat="42.0447647" lon="13.6886352"><ele>1000.0</ele><time>2026-05-02T11:53:22.142Z</time></trkpt><trkpt lat="42.0447276" lon="13.6885515"><ele>999.0000000000001</ele><time>2026-05-02T11:53:23.143Z</time></trkpt><trkpt lat="42.0446892" lon="13.6884626"><ele>998.0</ele><time>2026-05-02T11:53:24.139Z</time></trkpt><trkpt lat="42.0446556" lon="13.6883736"><ele>998.0000000000001</ele><time>2026-05-02T11:53:25.141Z</time></trkpt><trkpt lat="42.0446265" lon="13.6882762"><ele>998.0</ele><time>2026-05-02T11:53:26.142Z</time></trkpt><trkpt lat="42.0445987" lon="13.688184"><ele>998.0000000000001</ele><time>2026-05-02T11:53:27.141Z</time></trkpt><trkpt lat="42.0445653" lon="13.6881042"><ele>998.0000000000001</ele><time>2026-05-02T11:53:28.144Z</time></trkpt><trkpt lat="42.0445271" lon="13.6880342"><ele>998.0</ele><time>2026-05-02T11:53:29.142Z</time></trkpt><trkpt lat="42.0444843" lon="13.6879601"><ele>998.0000000000001</ele><time>2026-05-02T11:53:30.142Z</time></trkpt><trkpt lat="42.0444409" lon="13.6878924"><ele>998.0000000000001</ele><time>2026-05-02T11:53:31.143Z</time></trkpt><trkpt lat="42.0443936" lon="13.687825"><ele>995.5000000000001</ele><time>2026-05-02T11:53:32.142Z</time></trkpt><trkpt lat="42.0443506" lon="13.687754"><ele>993.0</ele><time>2026-05-02T11:53:33.139Z</time></trkpt><trkpt lat="42.0443069" lon="13.6876822"><ele>990.5</ele><time>2026-05-02T11:53:34.142Z</time></trkpt><trkpt lat="42.0442636" lon="13.6876128"><ele>988.0</ele><time>2026-05-02T11:53:35.14Z</time></trkpt><trkpt lat="42.0442325" lon="13.687536"><ele>985.5000000000001</ele><time>2026-05-02T11:53:36.137Z</time></trkpt><trkpt lat="42.0441889" lon="13.687396"><ele>983.0</ele><time>2026-05-02T11:53:38.138Z</time></trkpt><trkpt lat="42.044145" lon="13.6872894"><ele>980.8</ele><time>2026-05-02T11:53:40.142Z</time></trkpt><trkpt lat="42.0440724" lon="13.6871792"><ele>978.5999999999999</ele><time>2026-05-02T11:53:42.138Z</time></trkpt><trkpt lat="42.044" lon="13.6870724"><ele>976.4000000000001</ele><time>2026-05-02T11:53:44.14Z</time></trkpt><trkpt lat="42.0439415" lon="13.6869974"><ele>974.2</ele><time>2026-05-02T11:53:46.14Z</time></trkpt><trkpt lat="42.0438806" lon="13.6869283"><ele>972.0</ele><time>2026-05-02T11:53:48.14Z</time></trkpt><trkpt lat="42.0438235" lon="13.6868399"><ele>972.0</ele><time>2026-05-02T11:53:50.141Z</time></trkpt><trkpt lat="42.0437617" lon="13.6867483"><ele>972.0</ele><time>2026-05-02T11:53:52.142Z</time></trkpt><trkpt lat="42.0437005" lon="13.6866732"><ele>972.0</ele><time>2026-05-02T11:53:54.138Z</time></trkpt><trkpt lat="42.0436339" lon="13.6866006"><ele>972.0</ele><time>2026-05-02T11:53:57.145Z</time></trkpt><trkpt lat="42.0435902" lon="13.6865343"><ele>972.0</ele><time>2026-05-02T11:53:59.135Z</time></trkpt><trkpt lat="42.0435489" lon="13.686424"><ele>972.0</ele><time>2026-05-02T11:54:01.141Z</time></trkpt><trkpt lat="42.0435132" lon="13.6862854"><ele>972.0</ele><time>2026-05-02T11:54:03.138Z</time></trkpt><trkpt lat="42.0434621" lon="13.6861591"><ele>972.0</ele><time>2026-05-02T11:54:05.141Z</time></trkpt><trkpt lat="42.0434352" lon="13.6860799"><ele>972.0</ele><time>2026-05-02T11:54:06.139Z</time></trkpt><trkpt lat="42.0433946" lon="13.6859379"><ele>972.0</ele><time>2026-05-02T11:54:08.14Z</time></trkpt><trkpt lat="42.0433421" lon="13.6858302"><ele>972.0</ele><time>2026-05-02T11:54:10.139Z</time></trkpt><trkpt lat="42.0432868" lon="13.6857226"><ele>973.2</ele><time>2026-05-02T11:54:12.138Z</time></trkpt><trkpt lat="42.043226" lon="13.6856136"><ele>974.4000000000001</ele><time>2026-05-02T11:54:14.14Z</time></trkpt><trkpt lat="42.0431739" lon="13.6854967"><ele>975.5999999999999</ele><time>2026-05-02T11:54:16.139Z</time></trkpt><trkpt lat="42.0431294" lon="13.6853752"><ele>976.8</ele><time>2026-05-02T11:54:18.141Z</time></trkpt><trkpt lat="42.0430429" lon="13.6852902"><ele>978.0</ele><time>2026-05-02T11:54:20.141Z</time></trkpt><trkpt lat="42.0429579" lon="13.6851875"><ele>972.4</ele><time>2026-05-02T11:54:22.139Z</time></trkpt><trkpt lat="42.0428844" lon="13.6850533"><ele>966.8</ele><time>2026-05-02T11:54:24.137Z</time></trkpt><trkpt lat="42.0428512" lon="13.6849736"><ele>961.2</ele><time>2026-05-02T11:54:25.149Z</time></trkpt><trkpt lat="42.042826" lon="13.6848946"><ele>955.6</ele><time>2026-05-02T11:54:26.143Z</time></trkpt><trkpt lat="42.0427782" lon="13.6847585"><ele>950.0</ele><time>2026-05-02T11:54:28.145Z</time></trkpt><trkpt lat="42.0427312" lon="13.6846361"><ele>950.0</ele><time>2026-05-02T11:54:30.135Z</time></trkpt><trkpt lat="42.0426457" lon="13.6845117"><ele>950.0</ele><time>2026-05-02T11:54:32.141Z</time></trkpt><trkpt lat="42.0425974" lon="13.6844551"><ele>950.0</ele><time>2026-05-02T11:54:33.142Z</time></trkpt><trkpt lat="42.0425044" lon="13.6843463"><ele>950.0</ele><time>2026-05-02T11:54:35.143Z</time></trkpt><trkpt lat="42.0424658" lon="13.6842744"><ele>950.0</ele><time>2026-05-02T11:54:36.142Z</time></trkpt><trkpt lat="42.0423837" lon="13.6841427"><ele>948.2</ele><time>2026-05-02T11:54:38.142Z</time></trkpt><trkpt lat="42.0423322" lon="13.6840755"><ele>946.4</ele><time>2026-05-02T11:54:39.14Z</time></trkpt><trkpt lat="42.0422827" lon="13.684011"><ele>944.5999999999999</ele><time>2026-05-02T11:54:40.141Z</time></trkpt><trkpt lat="42.0421993" lon="13.683907"><ele>942.8</ele><time>2026-05-02T11:54:42.143Z</time></trkpt><trkpt lat="42.0421309" lon="13.6838244"><ele>941.0</ele><time>2026-05-02T11:54:44.137Z</time></trkpt><trkpt lat="42.0420453" lon="13.6837141"><ele>940.9999999999999</ele><time>2026-05-02T11:54:46.14Z</time></trkpt><trkpt lat="42.0420056" lon="13.6836437"><ele>941.0</ele><time>2026-05-02T11:54:47.144Z</time></trkpt><trkpt lat="42.0419668" lon="13.6835716"><ele>940.9999999999999</ele><time>2026-05-02T11:54:48.142Z</time></trkpt><trkpt lat="42.0419273" lon="13.6834992"><ele>940.9999999999999</ele><time>2026-05-02T11:54:49.142Z</time></trkpt><trkpt lat="42.0418841" lon="13.6834293"><ele>941.0</ele><time>2026-05-02T11:54:50.145Z</time></trkpt><trkpt lat="42.0418388" lon="13.6833564"><ele>940.9999999999999</ele><time>2026-05-02T11:54:51.139Z</time></trkpt><trkpt lat="42.04179" lon="13.6832818"><ele>940.9999999999999</ele><time>2026-05-02T11:54:52.142Z</time></trkpt><trkpt lat="42.0417436" lon="13.6832081"><ele>939.142857142857</ele><time>2026-05-02T11:54:53.14Z</time></trkpt><trkpt lat="42.0416997" lon="13.6831285"><ele>937.2857142857142</ele><time>2026-05-02T11:54:54.143Z</time></trkpt><trkpt lat="42.0416571" lon="13.6830488"><ele>935.4285714285714</ele><time>2026-05-02T11:54:55.141Z</time></trkpt><trkpt lat="42.041622" lon="13.6829757"><ele>933.5714285714286</ele><time>2026-05-02T11:54:56.145Z</time></trkpt><trkpt lat="42.0415839" lon="13.682907"><ele>931.7142857142858</ele><time>2026-05-02T11:54:57.142Z</time></trkpt><trkpt lat="42.0415375" lon="13.6828351"><ele>929.857142857143</ele><time>2026-05-02T11:54:58.14Z</time></trkpt><trkpt lat="42.0414947" lon="13.6827658"><ele>928.0000000000001</ele><time>2026-05-02T11:54:59.142Z</time></trkpt><trkpt lat="42.0414118" lon="13.6826333"><ele>923.8333333333333</ele><time>2026-05-02T11:55:01.145Z</time></trkpt><trkpt lat="42.0413677" lon="13.6825673"><ele>919.6666666666666</ele><time>2026-05-02T11:55:02.144Z</time></trkpt><trkpt lat="42.0413237" lon="13.6824962"><ele>915.5</ele><time>2026-05-02T11:55:03.144Z</time></trkpt><trkpt lat="42.0412815" lon="13.6824251"><ele>911.3333333333333</ele><time>2026-05-02T11:55:04.143Z</time></trkpt><trkpt lat="42.041247" lon="13.682349"><ele>907.1666666666666</ele><time>2026-05-02T11:55:05.144Z</time></trkpt><trkpt lat="42.0412169" lon="13.6822666"><ele>903.0</ele><time>2026-05-02T11:55:06.143Z</time></trkpt><trkpt lat="42.0411544" lon="13.6821219"><ele>903.0</ele><time>2026-05-02T11:55:08.143Z</time></trkpt><trkpt lat="42.0411053" lon="13.6820419"><ele>903.0</ele><time>2026-05-02T11:55:09.142Z</time></trkpt><trkpt lat="42.0410559" lon="13.6819662"><ele>903.0</ele><time>2026-05-02T11:55:10.146Z</time></trkpt><trkpt lat="42.0410033" lon="13.6818902"><ele>903.0</ele><time>2026-05-02T11:55:11.149Z</time></trkpt><trkpt lat="42.040946" lon="13.6818091"><ele>903.0</ele><time>2026-05-02T11:55:12.143Z</time></trkpt><trkpt lat="42.0408854" lon="13.6817273"><ele>903.0</ele><time>2026-05-02T11:55:13.152Z</time></trkpt><trkpt lat="42.040822" lon="13.6816455"><ele>902.0</ele><time>2026-05-02T11:55:14.145Z</time></trkpt><trkpt lat="42.0407592" lon="13.681568"><ele>901.0</ele><time>2026-05-02T11:55:15.146Z</time></trkpt><trkpt lat="42.0407032" lon="13.6814873"><ele>900.0</ele><time>2026-05-02T11:55:16.143Z</time></trkpt><trkpt lat="42.0406548" lon="13.6814097"><ele>899.0</ele><time>2026-05-02T11:55:17.148Z</time></trkpt><trkpt lat="42.0406069" lon="13.6813313"><ele>898.0</ele><time>2026-05-02T11:55:18.142Z</time></trkpt><trkpt lat="42.0405567" lon="13.6812536"><ele>897.0</ele><time>2026-05-02T11:55:19.151Z</time></trkpt><trkpt lat="42.0405081" lon="13.6811848"><ele>897.0</ele><time>2026-05-02T11:55:20.145Z</time></trkpt><trkpt lat="42.0404612" lon="13.6811161"><ele>897.0</ele><time>2026-05-02T11:55:21.147Z</time></trkpt><trkpt lat="42.0404164" lon="13.6810533"><ele>897.0</ele><time>2026-05-02T11:55:22.15Z</time></trkpt><trkpt lat="42.0403678" lon="13.6809889"><ele>897.0</ele><time>2026-05-02T11:55:23.158Z</time></trkpt><trkpt lat="42.040318" lon="13.6809168"><ele>897.0</ele><time>2026-05-02T11:55:24.144Z</time></trkpt><trkpt lat="42.040266" lon="13.6808242"><ele>897.0</ele><time>2026-05-02T11:55:25.153Z</time></trkpt><trkpt lat="42.040213" lon="13.6807321"><ele>897.0</ele><time>2026-05-02T11:55:26.148Z</time></trkpt><trkpt lat="42.0401614" lon="13.6806427"><ele>895.1666666666666</ele><time>2026-05-02T11:55:27.143Z</time></trkpt><trkpt lat="42.0401119" lon="13.6805562"><ele>893.3333333333333</ele><time>2026-05-02T11:55:28.146Z</time></trkpt><trkpt lat="42.0400701" lon="13.6804766"><ele>891.5</ele><time>2026-05-02T11:55:29.141Z</time></trkpt><trkpt lat="42.040012" lon="13.6803578"><ele>889.6666666666666</ele><time>2026-05-02T11:55:31.144Z</time></trkpt><trkpt lat="42.0399718" lon="13.6802919"><ele>887.8333333333333</ele><time>2026-05-02T11:55:33.139Z</time></trkpt><trkpt lat="42.0399362" lon="13.6802156"><ele>886.0</ele><time>2026-05-02T11:55:36.152Z</time></trkpt><trkpt lat="42.0398766" lon="13.6801175"><ele>885.9999999999999</ele><time>2026-05-02T11:55:39.16Z</time></trkpt><trkpt lat="42.0398236" lon="13.6800034"><ele>886.0</ele><time>2026-05-02T11:55:41.162Z</time></trkpt><trkpt lat="42.0397781" lon="13.6799234"><ele>886.0</ele><time>2026-05-02T11:55:42.164Z</time></trkpt><trkpt lat="42.0397256" lon="13.679836"><ele>886.0</ele><time>2026-05-02T11:55:43.159Z</time></trkpt><trkpt lat="42.0396751" lon="13.6797408"><ele>885.9999999999999</ele><time>2026-05-02T11:55:44.163Z</time></trkpt><trkpt lat="42.0396211" lon="13.6796416"><ele>886.0</ele><time>2026-05-02T11:55:45.163Z</time></trkpt><trkpt lat="42.0395737" lon="13.6795482"><ele>885.9999999999999</ele><time>2026-05-02T11:55:46.165Z</time></trkpt><trkpt lat="42.0395229" lon="13.6794531"><ele>886.0</ele><time>2026-05-02T11:55:47.167Z</time></trkpt><trkpt lat="42.0394758" lon="13.6793675"><ele>886.0</ele><time>2026-05-02T11:55:48.158Z</time></trkpt><trkpt lat="42.0394329" lon="13.6792814"><ele>886.0</ele><time>2026-05-02T11:55:49.16Z</time></trkpt><trkpt lat="42.0393934" lon="13.6791985"><ele>885.9999999999999</ele><time>2026-05-02T11:55:50.168Z</time></trkpt><trkpt lat="42.0393566" lon="13.6791197"><ele>886.0</ele><time>2026-05-02T11:55:51.157Z</time></trkpt><trkpt lat="42.0393169" lon="13.6790345"><ele>886.5999999999999</ele><time>2026-05-02T11:55:52.165Z</time></trkpt><trkpt lat="42.0392717" lon="13.6789394"><ele>887.1999999999999</ele><time>2026-05-02T11:55:53.166Z</time></trkpt><trkpt lat="42.0392313" lon="13.6788392"><ele>887.8000000000001</ele><time>2026-05-02T11:55:54.175Z</time></trkpt><trkpt lat="42.0391806" lon="13.6787357"><ele>888.4000000000001</ele><time>2026-05-02T11:55:55.164Z</time></trkpt><trkpt lat="42.0391182" lon="13.6786352"><ele>889.0</ele><time>2026-05-02T11:55:56.167Z</time></trkpt><trkpt lat="42.0390609" lon="13.6785374"><ele>885.6</ele><time>2026-05-02T11:55:57.16Z</time></trkpt><trkpt lat="42.0390056" lon="13.6784359"><ele>882.2</ele><time>2026-05-02T11:55:58.169Z</time></trkpt><trkpt lat="42.0389545" lon="13.6783312"><ele>878.8000000000001</ele><time>2026-05-02T11:55:59.163Z</time></trkpt><trkpt lat="42.038895" lon="13.6782358"><ele>875.4000000000001</ele><time>2026-05-02T11:56:00.155Z</time></trkpt><trkpt lat="42.0388315" lon="13.6781329"><ele>872.0</ele><time>2026-05-02T11:56:01.158Z</time></trkpt><trkpt lat="42.0387775" lon="13.678032"><ele>872.0</ele><time>2026-05-02T11:56:02.161Z</time></trkpt><trkpt lat="42.0387214" lon="13.6779405"><ele>872.0</ele><time>2026-05-02T11:56:03.154Z</time></trkpt><trkpt lat="42.0386609" lon="13.6778491"><ele>872.0</ele><time>2026-05-02T11:56:04.155Z</time></trkpt><trkpt lat="42.0385978" lon="13.6777608"><ele>872.0</ele><time>2026-05-02T11:56:05.157Z</time></trkpt><trkpt lat="42.0385336" lon="13.6776764"><ele>872.0</ele><time>2026-05-02T11:56:06.154Z</time></trkpt><trkpt lat="42.03847" lon="13.677589"><ele>870.3333333333334</ele><time>2026-05-02T11:56:07.157Z</time></trkpt><trkpt lat="42.0384097" lon="13.6774928"><ele>868.6666666666667</ele><time>2026-05-02T11:56:08.159Z</time></trkpt><trkpt lat="42.0383565" lon="13.6774064"><ele>867.0</ele><time>2026-05-02T11:56:09.154Z</time></trkpt><trkpt lat="42.0383055" lon="13.6773185"><ele>865.3333333333333</ele><time>2026-05-02T11:56:10.15Z</time></trkpt><trkpt lat="42.0382507" lon="13.6772309"><ele>863.6666666666666</ele><time>2026-05-02T11:56:11.15Z</time></trkpt><trkpt lat="42.0381768" lon="13.677158"><ele>862.0</ele><time>2026-05-02T11:56:12.15Z</time></trkpt><trkpt lat="42.0381021" lon="13.6770822"><ele>861.9999999999999</ele><time>2026-05-02T11:56:13.157Z</time></trkpt><trkpt lat="42.03803" lon="13.6770132"><ele>862.0</ele><time>2026-05-02T11:56:14.153Z</time></trkpt><trkpt lat="42.0379612" lon="13.6769348"><ele>862.0</ele><time>2026-05-02T11:56:15.158Z</time></trkpt><trkpt lat="42.0378927" lon="13.6768498"><ele>862.0</ele><time>2026-05-02T11:56:16.156Z</time></trkpt><trkpt lat="42.0378301" lon="13.6767649"><ele>861.9999999999999</ele><time>2026-05-02T11:56:17.154Z</time></trkpt><trkpt lat="42.0377593" lon="13.6766943"><ele>862.0</ele><time>2026-05-02T11:56:18.149Z</time></trkpt><trkpt lat="42.0376922" lon="13.6766196"><ele>859.8333333333333</ele><time>2026-05-02T11:56:19.153Z</time></trkpt><trkpt lat="42.0376345" lon="13.6765331"><ele>857.6666666666666</ele><time>2026-05-02T11:56:20.156Z</time></trkpt><trkpt lat="42.0375782" lon="13.676454"><ele>855.5</ele><time>2026-05-02T11:56:21.155Z</time></trkpt><trkpt lat="42.0375173" lon="13.6763933"><ele>853.3333333333333</ele><time>2026-05-02T11:56:22.155Z</time></trkpt><trkpt lat="42.0374619" lon="13.6763433"><ele>851.1666666666666</ele><time>2026-05-02T11:56:23.158Z</time></trkpt><trkpt lat="42.0374126" lon="13.6762768"><ele>849.0</ele><time>2026-05-02T11:56:24.148Z</time></trkpt><trkpt lat="42.0373659" lon="13.6761869"><ele>847.0</ele><time>2026-05-02T11:56:25.145Z</time></trkpt><trkpt lat="42.0373339" lon="13.6760823"><ele>845.0</ele><time>2026-05-02T11:56:26.158Z</time></trkpt><trkpt lat="42.0372868" lon="13.6760033"><ele>843.0</ele><time>2026-05-02T11:56:27.151Z</time></trkpt><trkpt lat="42.0372176" lon="13.6759387"><ele>841.0</ele><time>2026-05-02T11:56:28.153Z</time></trkpt><trkpt lat="42.0371364" lon="13.6758794"><ele>839.0</ele><time>2026-05-02T11:56:29.155Z</time></trkpt><trkpt lat="42.0370596" lon="13.675808"><ele>837.0</ele><time>2026-05-02T11:56:30.15Z</time></trkpt><trkpt lat="42.0369878" lon="13.6757309"><ele>837.0</ele><time>2026-05-02T11:56:31.16Z</time></trkpt><trkpt lat="42.0369132" lon="13.6756667"><ele>837.0</ele><time>2026-05-02T11:56:32.155Z</time></trkpt><trkpt lat="42.0368413" lon="13.6756009"><ele>837.0</ele><time>2026-05-02T11:56:33.143Z</time></trkpt><trkpt lat="42.0367736" lon="13.6755457"><ele>837.0</ele><time>2026-05-02T11:56:34.152Z</time></trkpt><trkpt lat="42.0367055" lon="13.675497"><ele>837.0</ele><time>2026-05-02T11:56:35.157Z</time></trkpt><trkpt lat="42.0366405" lon="13.675447"><ele>837.0</ele><time>2026-05-02T11:56:36.145Z</time></trkpt><trkpt lat="42.0365794" lon="13.6753997"><ele>837.2</ele><time>2026-05-02T11:56:37.16Z</time></trkpt><trkpt lat="42.0364738" lon="13.6753265"><ele>837.4000000000001</ele><time>2026-05-02T11:56:39.157Z</time></trkpt><trkpt lat="42.0363708" lon="13.6752524"><ele>837.5999999999999</ele><time>2026-05-02T11:56:41.145Z</time></trkpt><trkpt lat="42.0362668" lon="13.6752231"><ele>837.8</ele><time>2026-05-02T11:56:43.158Z</time></trkpt><trkpt lat="42.0361997" lon="13.6752333"><ele>838.0</ele><time>2026-05-02T11:56:44.15Z</time></trkpt><trkpt lat="42.0361161" lon="13.6752481"><ele>836.4999999999999</ele><time>2026-05-02T11:56:45.149Z</time></trkpt><trkpt lat="42.0360319" lon="13.6752521"><ele>835.0</ele><time>2026-05-02T11:56:46.146Z</time></trkpt><trkpt lat="42.035952" lon="13.6752383"><ele>833.5</ele><time>2026-05-02T11:56:47.155Z</time></trkpt><trkpt lat="42.0358694" lon="13.6752255"><ele>832.0</ele><time>2026-05-02T11:56:48.149Z</time></trkpt><trkpt lat="42.0357937" lon="13.6752198"><ele>830.4999999999999</ele><time>2026-05-02T11:56:49.153Z</time></trkpt><trkpt lat="42.0357219" lon="13.6752206"><ele>829.0</ele><time>2026-05-02T11:56:50.157Z</time></trkpt><trkpt lat="42.035609" lon="13.6751964"><ele>828.4999999999999</ele><time>2026-05-02T11:56:52.151Z</time></trkpt><trkpt lat="42.035545" lon="13.6750905"><ele>828.0</ele><time>2026-05-02T11:56:54.148Z</time></trkpt><trkpt lat="42.0355072" lon="13.6750128"><ele>827.5</ele><time>2026-05-02T11:56:55.147Z</time></trkpt><trkpt lat="42.0354715" lon="13.6749248"><ele>827.0</ele><time>2026-05-02T11:56:56.153Z</time></trkpt><trkpt lat="42.0354408" lon="13.6748468"><ele>826.4999999999999</ele><time>2026-05-02T11:56:57.157Z</time></trkpt><trkpt lat="42.0353668" lon="13.6747341"><ele>826.0</ele><time>2026-05-02T11:56:59.156Z</time></trkpt><trkpt lat="42.0352529" lon="13.674674"><ele>825.9999999999999</ele><time>2026-05-02T11:57:01.162Z</time></trkpt><trkpt lat="42.0351858" lon="13.6746604"><ele>826.0</ele><time>2026-05-02T11:57:02.156Z</time></trkpt><trkpt lat="42.0350795" lon="13.6746382"><ele>826.0</ele><time>2026-05-02T11:57:04.156Z</time></trkpt><trkpt lat="42.0349914" lon="13.6746206"><ele>826.0</ele><time>2026-05-02T11:57:06.157Z</time></trkpt><trkpt lat="42.0349118" lon="13.6745763"><ele>825.9999999999999</ele><time>2026-05-02T11:57:08.153Z</time></trkpt><trkpt lat="42.0348472" lon="13.67453"><ele>826.0</ele><time>2026-05-02T11:57:10.153Z</time></trkpt><trkpt lat="42.0348047" lon="13.6744576"><ele>822.1999999999999</ele><time>2026-05-02T11:57:13.162Z</time></trkpt><trkpt lat="42.0347765" lon="13.6743477"><ele>818.4</ele><time>2026-05-02T11:57:16.166Z</time></trkpt><trkpt lat="42.0347699" lon="13.6742373"><ele>814.6</ele><time>2026-05-02T11:57:18.155Z</time></trkpt><trkpt lat="42.0347624" lon="13.6740759"><ele>810.8</ele><time>2026-05-02T11:57:20.158Z</time></trkpt><trkpt lat="42.0347568" lon="13.673967"><ele>807.0</ele><time>2026-05-02T11:57:21.153Z</time></trkpt><trkpt lat="42.0347583" lon="13.6738581"><ele>807.0000000000001</ele><time>2026-05-02T11:57:22.157Z</time></trkpt><trkpt lat="42.0347659" lon="13.6737602"><ele>807.0</ele><time>2026-05-02T11:57:23.164Z</time></trkpt><trkpt lat="42.0347744" lon="13.6736704"><ele>807.0</ele><time>2026-05-02T11:57:24.158Z</time></trkpt><trkpt lat="42.0347902" lon="13.6735842"><ele>807.0</ele><time>2026-05-02T11:57:25.156Z</time></trkpt><trkpt lat="42.03482" lon="13.6734987"><ele>807.0</ele><time>2026-05-02T11:57:26.161Z</time></trkpt><trkpt lat="42.0348533" lon="13.6734104"><ele>807.0000000000001</ele><time>2026-05-02T11:57:27.156Z</time></trkpt><trkpt lat="42.0348861" lon="13.6733124"><ele>807.0</ele><time>2026-05-02T11:57:28.157Z</time></trkpt><trkpt lat="42.0349108" lon="13.6732185"><ele>808.5</ele><time>2026-05-02T11:57:29.154Z</time></trkpt><trkpt lat="42.0349367" lon="13.6731255"><ele>810.0</ele><time>2026-05-02T11:57:30.158Z</time></trkpt><trkpt lat="42.0349658" lon="13.6730326"><ele>811.5</ele><time>2026-05-02T11:57:31.154Z</time></trkpt><trkpt lat="42.0349992" lon="13.6729384"><ele>813.0</ele><time>2026-05-02T11:57:32.155Z</time></trkpt><trkpt lat="42.0350326" lon="13.6728447"><ele>814.5</ele><time>2026-05-02T11:57:33.151Z</time></trkpt><trkpt lat="42.0350719" lon="13.6727581"><ele>816.0</ele><time>2026-05-02T11:57:34.159Z</time></trkpt><trkpt lat="42.0351137" lon="13.6726721"><ele>818.8</ele><time>2026-05-02T11:57:35.149Z</time></trkpt><trkpt lat="42.0351539" lon="13.6725714"><ele>821.5999999999999</ele><time>2026-05-02T11:57:36.147Z</time></trkpt><trkpt lat="42.0351907" lon="13.6724686"><ele>824.4</ele><time>2026-05-02T11:57:37.15Z</time></trkpt><trkpt lat="42.0352329" lon="13.6723607"><ele>827.2</ele><time>2026-05-02T11:57:38.145Z</time></trkpt><trkpt lat="42.0352788" lon="13.6722387"><ele>830.0</ele><time>2026-05-02T11:57:39.15Z</time></trkpt><trkpt lat="42.0353261" lon="13.6721102"><ele>830.0</ele><time>2026-05-02T11:57:40.149Z</time></trkpt><trkpt lat="42.035368" lon="13.6719878"><ele>830.0</ele><time>2026-05-02T11:57:41.15Z</time></trkpt><trkpt lat="42.0354013" lon="13.6718579"><ele>830.0</ele><time>2026-05-02T11:57:42.151Z</time></trkpt><trkpt lat="42.0354303" lon="13.671718"><ele>830.0</ele><time>2026-05-02T11:57:43.151Z</time></trkpt><trkpt lat="42.035459" lon="13.6715781"><ele>830.0</ele><time>2026-05-02T11:57:44.152Z</time></trkpt><trkpt lat="42.0354878" lon="13.6714402"><ele>831.0</ele><time>2026-05-02T11:57:45.15Z</time></trkpt><trkpt lat="42.0355216" lon="13.6713113"><ele>832.0</ele><time>2026-05-02T11:57:46.153Z</time></trkpt><trkpt lat="42.0355541" lon="13.6711808"><ele>833.0</ele><time>2026-05-02T11:57:47.153Z</time></trkpt><trkpt lat="42.0355831" lon="13.6710441"><ele>834.0</ele><time>2026-05-02T11:57:48.154Z</time></trkpt><trkpt lat="42.035608" lon="13.6708975"><ele>835.0</ele><time>2026-05-02T11:57:49.154Z</time></trkpt><trkpt lat="42.0356252" lon="13.6707516"><ele>836.5</ele><time>2026-05-02T11:57:50.156Z</time></trkpt><trkpt lat="42.0356407" lon="13.6705946"><ele>838.0</ele><time>2026-05-02T11:57:51.154Z</time></trkpt><trkpt lat="42.0356553" lon="13.6704238"><ele>839.5</ele><time>2026-05-02T11:57:52.163Z</time></trkpt><trkpt lat="42.0356721" lon="13.6702692"><ele>841.0</ele><time>2026-05-02T11:57:53.158Z</time></trkpt><trkpt lat="42.0356821" lon="13.6701288"><ele>841.4</ele><time>2026-05-02T11:57:54.156Z</time></trkpt><trkpt lat="42.035681" lon="13.6699903"><ele>841.8</ele><time>2026-05-02T11:57:55.154Z</time></trkpt><trkpt lat="42.0356664" lon="13.6698557"><ele>842.1999999999999</ele><time>2026-05-02T11:57:56.162Z</time></trkpt><trkpt lat="42.0356427" lon="13.6697234"><ele>842.5999999999999</ele><time>2026-05-02T11:57:57.15Z</time></trkpt><trkpt lat="42.0356146" lon="13.6695984"><ele>843.0</ele><time>2026-05-02T11:57:58.155Z</time></trkpt><trkpt lat="42.0355909" lon="13.6694888"><ele>843.1428571428571</ele><time>2026-05-02T11:57:59.149Z</time></trkpt><trkpt lat="42.035581" lon="13.6693939"><ele>843.2857142857142</ele><time>2026-05-02T11:58:00.147Z</time></trkpt><trkpt lat="42.0355868" lon="13.6692983"><ele>843.4285714285714</ele><time>2026-05-02T11:58:01.149Z</time></trkpt><trkpt lat="42.0356128" lon="13.6692122"><ele>843.5714285714286</ele><time>2026-05-02T11:58:02.147Z</time></trkpt><trkpt lat="42.035664" lon="13.6691451"><ele>843.7142857142858</ele><time>2026-05-02T11:58:03.147Z</time></trkpt><trkpt lat="42.0357263" lon="13.6690858"><ele>843.8571428571429</ele><time>2026-05-02T11:58:04.151Z</time></trkpt><trkpt lat="42.0357928" lon="13.6690275"><ele>844.0</ele><time>2026-05-02T11:58:05.157Z</time></trkpt><trkpt lat="42.0358597" lon="13.6689647"><ele>843.4000000000001</ele><time>2026-05-02T11:58:06.158Z</time></trkpt><trkpt lat="42.0359307" lon="13.6689006"><ele>842.8</ele><time>2026-05-02T11:58:07.164Z</time></trkpt><trkpt lat="42.0360113" lon="13.6688337"><ele>842.2</ele><time>2026-05-02T11:58:08.149Z</time></trkpt><trkpt lat="42.0360964" lon="13.6687677"><ele>841.5999999999999</ele><time>2026-05-02T11:58:09.162Z</time></trkpt><trkpt lat="42.0361808" lon="13.6687158"><ele>841.0</ele><time>2026-05-02T11:58:10.156Z</time></trkpt><trkpt lat="42.0362535" lon="13.6686757"><ele>840.9999999999999</ele><time>2026-05-02T11:58:11.154Z</time></trkpt><trkpt lat="42.0363395" lon="13.6686227"><ele>841.0</ele><time>2026-05-02T11:58:13.157Z</time></trkpt><trkpt lat="42.0364175" lon="13.668606"><ele>841.0</ele><time>2026-05-02T11:58:17.154Z</time></trkpt><trkpt lat="42.0364795" lon="13.6686295"><ele>841.0</ele><time>2026-05-02T11:58:18.146Z</time></trkpt><trkpt lat="42.0365604" lon="13.6686698"><ele>840.9999999999999</ele><time>2026-05-02T11:58:19.151Z</time></trkpt><trkpt lat="42.0366528" lon="13.6687174"><ele>841.0</ele><time>2026-05-02T11:58:20.145Z</time></trkpt><trkpt lat="42.0367544" lon="13.6687638"><ele>842.8</ele><time>2026-05-02T11:58:21.152Z</time></trkpt><trkpt lat="42.0368606" lon="13.6688024"><ele>844.5999999999999</ele><time>2026-05-02T11:58:22.152Z</time></trkpt><trkpt lat="42.036948" lon="13.6688232"><ele>846.4</ele><time>2026-05-02T11:58:23.152Z</time></trkpt><trkpt lat="42.0370209" lon="13.6688536"><ele>848.2</ele><time>2026-05-02T11:58:24.142Z</time></trkpt><trkpt lat="42.0370818" lon="13.6688838"><ele>850.0</ele><time>2026-05-02T11:58:25.152Z</time></trkpt><trkpt lat="42.0371944" lon="13.6689274"><ele>849.9999999999999</ele><time>2026-05-02T11:58:27.15Z</time></trkpt><trkpt lat="42.0372633" lon="13.6689328"><ele>850.0</ele><time>2026-05-02T11:58:29.146Z</time></trkpt><trkpt lat="42.0372722" lon="13.6688028"><ele>850.0</ele><time>2026-05-02T11:59:37.168Z</time></trkpt><trkpt lat="42.0372994" lon="13.6686608"><ele>850.0</ele><time>2026-05-02T11:59:39.167Z</time></trkpt><trkpt lat="42.0373182" lon="13.6685694"><ele>849.9999999999999</ele><time>2026-05-02T11:59:40.178Z</time></trkpt><trkpt lat="42.0373347" lon="13.6684872"><ele>850.0</ele><time>2026-05-02T11:59:41.167Z</time></trkpt><trkpt lat="42.0373595" lon="13.6683125"><ele>850.2</ele><time>2026-05-02T11:59:43.166Z</time></trkpt><trkpt lat="42.0373803" lon="13.6682086"><ele>850.4</ele><time>2026-05-02T11:59:44.165Z</time></trkpt><trkpt lat="42.0374015" lon="13.6680916"><ele>850.5999999999999</ele><time>2026-05-02T11:59:45.16Z</time></trkpt><trkpt lat="42.0374247" lon="13.6679576"><ele>850.8</ele><time>2026-05-02T11:59:46.166Z</time></trkpt><trkpt lat="42.0374487" lon="13.667822"><ele>851.0</ele><time>2026-05-02T11:59:47.165Z</time></trkpt><trkpt lat="42.0374689" lon="13.6676915"><ele>851.5999999999999</ele><time>2026-05-02T11:59:48.163Z</time></trkpt><trkpt lat="42.0374859" lon="13.6675684"><ele>852.2</ele><time>2026-05-02T11:59:49.163Z</time></trkpt><trkpt lat="42.0374988" lon="13.6674423"><ele>852.8000000000001</ele><time>2026-05-02T11:59:50.165Z</time></trkpt><trkpt lat="42.0375143" lon="13.6673076"><ele>853.4000000000001</ele><time>2026-05-02T11:59:51.162Z</time></trkpt><trkpt lat="42.0375366" lon="13.667165"><ele>854.0</ele><time>2026-05-02T11:59:52.169Z</time></trkpt><trkpt lat="42.0375646" lon="13.6670418"><ele>853.8000000000001</ele><time>2026-05-02T11:59:53.165Z</time></trkpt><trkpt lat="42.0375976" lon="13.6669335"><ele>853.6000000000001</ele><time>2026-05-02T11:59:54.159Z</time></trkpt><trkpt lat="42.0376504" lon="13.6668297"><ele>853.4</ele><time>2026-05-02T11:59:55.159Z</time></trkpt><trkpt lat="42.0377197" lon="13.6667127"><ele>853.2</ele><time>2026-05-02T11:59:56.161Z</time></trkpt><trkpt lat="42.0377949" lon="13.6665861"><ele>853.0</ele><time>2026-05-02T11:59:57.134Z</time></trkpt><trkpt lat="42.0378649" lon="13.666453"><ele>852.9999999999999</ele><time>2026-05-02T11:59:58.148Z</time></trkpt><trkpt lat="42.0379176" lon="13.6663262"><ele>853.0</ele><time>2026-05-02T11:59:59.147Z</time></trkpt><trkpt lat="42.0379477" lon="13.666229"><ele>853.0</ele><time>2026-05-02T12:00:00.144Z</time></trkpt><trkpt lat="42.0379706" lon="13.6661137"><ele>853.0</ele><time>2026-05-02T12:00:02.141Z</time></trkpt><trkpt lat="42.0379926" lon="13.666033"><ele>852.9999999999999</ele><time>2026-05-02T12:00:06.145Z</time></trkpt><trkpt lat="42.0380052" lon="13.6658955"><ele>853.0</ele><time>2026-05-02T12:00:09.141Z</time></trkpt><trkpt lat="42.0380356" lon="13.6657315"><ele>853.0</ele><time>2026-05-02T12:00:11.146Z</time></trkpt><trkpt lat="42.0380519" lon="13.6655852"><ele>853.0</ele><time>2026-05-02T12:00:13.149Z</time></trkpt><trkpt lat="42.0380665" lon="13.6654541"><ele>853.0</ele><time>2026-05-02T12:00:15.149Z</time></trkpt><trkpt lat="42.0380859" lon="13.6653011"><ele>853.0</ele><time>2026-05-02T12:00:17.146Z</time></trkpt><trkpt lat="42.0381047" lon="13.6652104"><ele>853.0</ele><time>2026-05-02T12:00:18.15Z</time></trkpt><trkpt lat="42.0381289" lon="13.6651012"><ele>853.2</ele><time>2026-05-02T12:00:19.149Z</time></trkpt><trkpt lat="42.0381509" lon="13.6649863"><ele>853.4</ele><time>2026-05-02T12:00:20.152Z</time></trkpt><trkpt lat="42.0381763" lon="13.6648589"><ele>853.6000000000001</ele><time>2026-05-02T12:00:21.152Z</time></trkpt><trkpt lat="42.0382077" lon="13.6647168"><ele>853.8000000000001</ele><time>2026-05-02T12:00:22.154Z</time></trkpt><trkpt lat="42.0382456" lon="13.6645667"><ele>854.0</ele><time>2026-05-02T12:00:23.16Z</time></trkpt><trkpt lat="42.0382864" lon="13.6644173"><ele>854.5</ele><time>2026-05-02T12:00:24.149Z</time></trkpt><trkpt lat="42.0383322" lon="13.6642555"><ele>855.0</ele><time>2026-05-02T12:00:25.153Z</time></trkpt><trkpt lat="42.0383751" lon="13.6640778"><ele>855.5</ele><time>2026-05-02T12:00:26.153Z</time></trkpt><trkpt lat="42.0384075" lon="13.6638966"><ele>856.0</ele><time>2026-05-02T12:00:27.154Z</time></trkpt><trkpt lat="42.038436" lon="13.6637207"><ele>856.25</ele><time>2026-05-02T12:00:28.15Z</time></trkpt><trkpt lat="42.0384572" lon="13.6635503"><ele>856.5</ele><time>2026-05-02T12:00:29.151Z</time></trkpt><trkpt lat="42.0384814" lon="13.6633792"><ele>856.75</ele><time>2026-05-02T12:00:30.153Z</time></trkpt><trkpt lat="42.0385142" lon="13.6631999"><ele>857.0</ele><time>2026-05-02T12:00:31.16Z</time></trkpt><trkpt lat="42.0385616" lon="13.6630199"><ele>857.0</ele><time>2026-05-02T12:00:32.155Z</time></trkpt><trkpt lat="42.0386148" lon="13.6628525"><ele>857.0</ele><time>2026-05-02T12:00:33.153Z</time></trkpt><trkpt lat="42.038678" lon="13.6627017"><ele>857.0</ele><time>2026-05-02T12:00:34.158Z</time></trkpt><trkpt lat="42.0387438" lon="13.662542"><ele>857.0</ele><time>2026-05-02T12:00:35.157Z</time></trkpt><trkpt lat="42.0387856" lon="13.6623683"><ele>857.75</ele><time>2026-05-02T12:00:36.154Z</time></trkpt><trkpt lat="42.0388149" lon="13.662182"><ele>858.5</ele><time>2026-05-02T12:00:37.152Z</time></trkpt><trkpt lat="42.0388475" lon="13.6620087"><ele>859.25</ele><time>2026-05-02T12:00:38.155Z</time></trkpt><trkpt lat="42.0388904" lon="13.6618302"><ele>860.0</ele><time>2026-05-02T12:00:39.166Z</time></trkpt><trkpt lat="42.0389358" lon="13.661678"><ele>860.75</ele><time>2026-05-02T12:00:40.155Z</time></trkpt><trkpt lat="42.0389836" lon="13.6615416"><ele>861.5</ele><time>2026-05-02T12:00:41.16Z</time></trkpt><trkpt lat="42.0390417" lon="13.6614141"><ele>862.25</ele><time>2026-05-02T12:00:42.154Z</time></trkpt><trkpt lat="42.0391005" lon="13.6612764"><ele>863.0</ele><time>2026-05-02T12:00:43.16Z</time></trkpt><trkpt lat="42.0391529" lon="13.6611239"><ele>862.0</ele><time>2026-05-02T12:00:44.154Z</time></trkpt><trkpt lat="42.0392085" lon="13.6609691"><ele>861.0</ele><time>2026-05-02T12:00:45.159Z</time></trkpt><trkpt lat="42.0392637" lon="13.6608034"><ele>860.0</ele><time>2026-05-02T12:00:46.154Z</time></trkpt><trkpt lat="42.0393229" lon="13.6606309"><ele>859.0</ele><time>2026-05-02T12:00:47.164Z</time></trkpt><trkpt lat="42.0393802" lon="13.6604532"><ele>859.0</ele><time>2026-05-02T12:00:48.157Z</time></trkpt><trkpt lat="42.0394254" lon="13.660261"><ele>859.0</ele><time>2026-05-02T12:00:49.165Z</time></trkpt><trkpt lat="42.0394661" lon="13.6600726"><ele>859.0</ele><time>2026-05-02T12:00:50.16Z</time></trkpt><trkpt lat="42.0395109" lon="13.6599051"><ele>859.0</ele><time>2026-05-02T12:00:51.164Z</time></trkpt><trkpt lat="42.0395714" lon="13.6597216"><ele>859.0</ele><time>2026-05-02T12:00:52.16Z</time></trkpt><trkpt lat="42.0396288" lon="13.6595426"><ele>859.0</ele><time>2026-05-02T12:00:53.163Z</time></trkpt><trkpt lat="42.0396874" lon="13.6593939"><ele>859.0</ele><time>2026-05-02T12:00:54.159Z</time></trkpt><trkpt lat="42.0397581" lon="13.659248"><ele>859.0</ele><time>2026-05-02T12:00:55.159Z</time></trkpt><trkpt lat="42.0398279" lon="13.659105"><ele>859.2</ele><time>2026-05-02T12:00:56.16Z</time></trkpt><trkpt lat="42.0398869" lon="13.658988"><ele>859.4000000000001</ele><time>2026-05-02T12:00:57.157Z</time></trkpt><trkpt lat="42.0399417" lon="13.6588813"><ele>859.6</ele><time>2026-05-02T12:00:58.161Z</time></trkpt><trkpt lat="42.0399958" lon="13.658794"><ele>859.8</ele><time>2026-05-02T12:00:59.154Z</time></trkpt><trkpt lat="42.0400585" lon="13.6587152"><ele>860.0</ele><time>2026-05-02T12:01:00.158Z</time></trkpt><trkpt lat="42.0401258" lon="13.6586497"><ele>859.4</ele><time>2026-05-02T12:01:01.164Z</time></trkpt><trkpt lat="42.0401985" lon="13.6585935"><ele>858.8</ele><time>2026-05-02T12:01:02.152Z</time></trkpt><trkpt lat="42.0402791" lon="13.658538"><ele>858.2</ele><time>2026-05-02T12:01:03.155Z</time></trkpt><trkpt lat="42.0403715" lon="13.6584777"><ele>857.6</ele><time>2026-05-02T12:01:04.149Z</time></trkpt><trkpt lat="42.0404711" lon="13.6584126"><ele>857.0</ele><time>2026-05-02T12:01:05.154Z</time></trkpt><trkpt lat="42.0405799" lon="13.6583412"><ele>857.0</ele><time>2026-05-02T12:01:06.154Z</time></trkpt><trkpt lat="42.0406954" lon="13.6582655"><ele>857.0</ele><time>2026-05-02T12:01:07.155Z</time></trkpt><trkpt lat="42.0408138" lon="13.6581814"><ele>857.0</ele><time>2026-05-02T12:01:08.16Z</time></trkpt><trkpt lat="42.0409374" lon="13.6580984"><ele>857.0</ele><time>2026-05-02T12:01:09.173Z</time></trkpt><trkpt lat="42.0410521" lon="13.6580219"><ele>857.25</ele><time>2026-05-02T12:01:10.155Z</time></trkpt><trkpt lat="42.0411575" lon="13.6579509"><ele>857.5</ele><time>2026-05-02T12:01:11.158Z</time></trkpt><trkpt lat="42.0412636" lon="13.6578786"><ele>857.75</ele><time>2026-05-02T12:01:12.161Z</time></trkpt><trkpt lat="42.0413682" lon="13.6578048"><ele>858.0</ele><time>2026-05-02T12:01:13.153Z</time></trkpt><trkpt lat="42.041478" lon="13.6577313"><ele>858.0</ele><time>2026-05-02T12:01:14.156Z</time></trkpt><trkpt lat="42.0415905" lon="13.6576593"><ele>858.0</ele><time>2026-05-02T12:01:15.15Z</time></trkpt><trkpt lat="42.0417003" lon="13.6575915"><ele>858.0</ele><time>2026-05-02T12:01:16.154Z</time></trkpt><trkpt lat="42.0418155" lon="13.657529"><ele>858.0</ele><time>2026-05-02T12:01:17.161Z</time></trkpt><trkpt lat="42.0419335" lon="13.6574737"><ele>858.4</ele><time>2026-05-02T12:01:18.155Z</time></trkpt><trkpt lat="42.0420549" lon="13.6574155"><ele>858.8</ele><time>2026-05-02T12:01:19.162Z</time></trkpt><trkpt lat="42.0421674" lon="13.6573536"><ele>859.2</ele><time>2026-05-02T12:01:20.151Z</time></trkpt><trkpt lat="42.0422666" lon="13.6573033"><ele>859.6</ele><time>2026-05-02T12:01:21.156Z</time></trkpt><trkpt lat="42.0423422" lon="13.6572585"><ele>860.0</ele><time>2026-05-02T12:01:22.158Z</time></trkpt><trkpt lat="42.0424434" lon="13.6572095"><ele>859.8333333333334</ele><time>2026-05-02T12:01:24.153Z</time></trkpt><trkpt lat="42.0424979" lon="13.6572733"><ele>859.6666666666667</ele><time>2026-05-02T12:01:27.154Z</time></trkpt><trkpt lat="42.0425375" lon="13.6573944"><ele>859.5</ele><time>2026-05-02T12:01:29.159Z</time></trkpt><trkpt lat="42.0425584" lon="13.6574746"><ele>859.3333333333333</ele><time>2026-05-02T12:01:30.147Z</time></trkpt><trkpt lat="42.0425751" lon="13.6575564"><ele>859.1666666666666</ele><time>2026-05-02T12:01:31.158Z</time></trkpt><trkpt lat="42.0425928" lon="13.6576444"><ele>859.0</ele><time>2026-05-02T12:01:32.156Z</time></trkpt><trkpt lat="42.0426073" lon="13.6578098"><ele>859.0</ele><time>2026-05-02T12:01:34.152Z</time></trkpt><trkpt lat="42.0426193" lon="13.6579158"><ele>859.0000000000001</ele><time>2026-05-02T12:01:36.155Z</time></trkpt><trkpt lat="42.0426509" lon="13.6580624"><ele>859.0000000000001</ele><time>2026-05-02T12:01:39.16Z</time></trkpt><trkpt lat="42.0426861" lon="13.6581799"><ele>859.0</ele><time>2026-05-02T12:01:41.155Z</time></trkpt><trkpt lat="42.0427597" lon="13.6582252"><ele>859.0</ele><time>2026-05-02T12:01:43.158Z</time></trkpt><trkpt lat="42.0428963" lon="13.658161"><ele>859.0</ele><time>2026-05-02T12:01:45.159Z</time></trkpt><trkpt lat="42.0429863" lon="13.658096"><ele>859.0</ele><time>2026-05-02T12:01:46.157Z</time></trkpt><trkpt lat="42.0430929" lon="13.6580278"><ele>859.0</ele><time>2026-05-02T12:01:47.16Z</time></trkpt><trkpt lat="42.04321" lon="13.6579522"><ele>859.0</ele><time>2026-05-02T12:01:48.156Z</time></trkpt><trkpt lat="42.0433364" lon="13.6578755"><ele>859.25</ele><time>2026-05-02T12:01:49.159Z</time></trkpt><trkpt lat="42.0434654" lon="13.6577975"><ele>859.5</ele><time>2026-05-02T12:01:50.157Z</time></trkpt><trkpt lat="42.0435918" lon="13.6577222"><ele>859.75</ele><time>2026-05-02T12:01:51.158Z</time></trkpt><trkpt lat="42.0437172" lon="13.6576604"><ele>860.0</ele><time>2026-05-02T12:01:52.159Z</time></trkpt><trkpt lat="42.0438293" lon="13.6576101"><ele>860.1666666666667</ele><time>2026-05-02T12:01:53.156Z</time></trkpt><trkpt lat="42.0439189" lon="13.6575653"><ele>860.3333333333334</ele><time>2026-05-02T12:01:54.153Z</time></trkpt><trkpt lat="42.0439964" lon="13.6575288"><ele>860.5</ele><time>2026-05-02T12:01:55.162Z</time></trkpt><trkpt lat="42.0440678" lon="13.6575147"><ele>860.6666666666667</ele><time>2026-05-02T12:01:56.15Z</time></trkpt><trkpt lat="42.0441424" lon="13.6575375"><ele>860.8333333333334</ele><time>2026-05-02T12:01:57.162Z</time></trkpt><trkpt lat="42.0442224" lon="13.657575"><ele>861.0</ele><time>2026-05-02T12:01:58.145Z</time></trkpt><trkpt lat="42.0443131" lon="13.6575884"><ele>861.0</ele><time>2026-05-02T12:01:59.154Z</time></trkpt><trkpt lat="42.0444197" lon="13.657575"><ele>860.9999999999999</ele><time>2026-05-02T12:02:00.148Z</time></trkpt><trkpt lat="42.0445365" lon="13.6575417"><ele>860.9999999999999</ele><time>2026-05-02T12:02:01.171Z</time></trkpt><trkpt lat="42.0446457" lon="13.6574961"><ele>861.0</ele><time>2026-05-02T12:02:02.152Z</time></trkpt><trkpt lat="42.0447254" lon="13.6574583"><ele>861.0</ele><time>2026-05-02T12:02:03.154Z</time></trkpt><trkpt lat="42.0448309" lon="13.6573891"><ele>861.0</ele><time>2026-05-02T12:02:05.16Z</time></trkpt><trkpt lat="42.0449061" lon="13.6573643"><ele>861.0</ele><time>2026-05-02T12:02:06.155Z</time></trkpt><trkpt lat="42.0449892" lon="13.6573498"><ele>861.0</ele><time>2026-05-02T12:02:07.155Z</time></trkpt><trkpt lat="42.0450699" lon="13.6573318"><ele>861.0</ele><time>2026-05-02T12:02:08.156Z</time></trkpt><trkpt lat="42.0451366" lon="13.6573058"><ele>861.0</ele><time>2026-05-02T12:02:09.16Z</time></trkpt><trkpt lat="42.0452021" lon="13.6572801"><ele>861.0</ele><time>2026-05-02T12:02:10.148Z</time></trkpt><trkpt lat="42.0452837" lon="13.6572786"><ele>861.4</ele><time>2026-05-02T12:02:11.159Z</time></trkpt><trkpt lat="42.0453836" lon="13.657279"><ele>861.8</ele><time>2026-05-02T12:02:12.152Z</time></trkpt><trkpt lat="42.0454888" lon="13.6572594"><ele>862.1999999999999</ele><time>2026-05-02T12:02:13.154Z</time></trkpt><trkpt lat="42.0455958" lon="13.6572259"><ele>862.5999999999999</ele><time>2026-05-02T12:02:14.155Z</time></trkpt><trkpt lat="42.0457102" lon="13.6571739"><ele>863.0</ele><time>2026-05-02T12:02:15.152Z</time></trkpt><trkpt lat="42.045824" lon="13.6571178"><ele>863.0</ele><time>2026-05-02T12:02:16.147Z</time></trkpt><trkpt lat="42.0459298" lon="13.6570669"><ele>863.0</ele><time>2026-05-02T12:02:17.158Z</time></trkpt><trkpt lat="42.0460277" lon="13.6570009"><ele>863.0</ele><time>2026-05-02T12:02:18.151Z</time></trkpt><trkpt lat="42.0461227" lon="13.6569194"><ele>863.0</ele><time>2026-05-02T12:02:19.166Z</time></trkpt><trkpt lat="42.0462062" lon="13.6568304"><ele>863.0</ele><time>2026-05-02T12:02:20.157Z</time></trkpt><trkpt lat="42.0462833" lon="13.6567505"><ele>863.2</ele><time>2026-05-02T12:02:21.156Z</time></trkpt><trkpt lat="42.0463677" lon="13.6566882"><ele>863.4</ele><time>2026-05-02T12:02:22.155Z</time></trkpt><trkpt lat="42.0464585" lon="13.6566286"><ele>863.6000000000001</ele><time>2026-05-02T12:02:23.164Z</time></trkpt><trkpt lat="42.0465494" lon="13.6565533"><ele>863.8000000000001</ele><time>2026-05-02T12:02:24.155Z</time></trkpt><trkpt lat="42.0466373" lon="13.6564622"><ele>864.0</ele><time>2026-05-02T12:02:25.163Z</time></trkpt><trkpt lat="42.0467239" lon="13.6563703"><ele>864.0</ele><time>2026-05-02T12:02:26.16Z</time></trkpt><trkpt lat="42.046809" lon="13.6562985"><ele>864.0000000000001</ele><time>2026-05-02T12:02:27.152Z</time></trkpt><trkpt lat="42.0468992" lon="13.6562391"><ele>864.0000000000001</ele><time>2026-05-02T12:02:28.158Z</time></trkpt><trkpt lat="42.0470037" lon="13.6561799"><ele>864.0</ele><time>2026-05-02T12:02:29.171Z</time></trkpt><trkpt lat="42.0471153" lon="13.6561155"><ele>864.0</ele><time>2026-05-02T12:02:30.157Z</time></trkpt><trkpt lat="42.0472291" lon="13.6560418"><ele>863.5</ele><time>2026-05-02T12:02:31.166Z</time></trkpt><trkpt lat="42.0473371" lon="13.6559516"><ele>863.0</ele><time>2026-05-02T12:02:32.161Z</time></trkpt><trkpt lat="42.0474353" lon="13.6558519"><ele>862.5</ele><time>2026-05-02T12:02:33.165Z</time></trkpt><trkpt lat="42.0475232" lon="13.655757"><ele>862.0</ele><time>2026-05-02T12:02:34.157Z</time></trkpt><trkpt lat="42.0476062" lon="13.6556742"><ele>862.0</ele><time>2026-05-02T12:02:35.166Z</time></trkpt><trkpt lat="42.0476895" lon="13.6555934"><ele>862.0</ele><time>2026-05-02T12:02:36.15Z</time></trkpt><trkpt lat="42.0477754" lon="13.655527"><ele>862.0</ele><time>2026-05-02T12:02:37.167Z</time></trkpt><trkpt lat="42.0478538" lon="13.6554392"><ele>862.0</ele><time>2026-05-02T12:02:38.151Z</time></trkpt><trkpt lat="42.0479337" lon="13.6553303"><ele>862.0</ele><time>2026-05-02T12:02:39.155Z</time></trkpt><trkpt lat="42.0480182" lon="13.6552117"><ele>861.75</ele><time>2026-05-02T12:02:40.163Z</time></trkpt><trkpt lat="42.0481014" lon="13.6550913"><ele>861.5</ele><time>2026-05-02T12:02:41.16Z</time></trkpt><trkpt lat="42.0481858" lon="13.6549769"><ele>861.25</ele><time>2026-05-02T12:02:42.163Z</time></trkpt><trkpt lat="42.0482623" lon="13.6548624"><ele>861.0</ele><time>2026-05-02T12:02:43.161Z</time></trkpt><trkpt lat="42.048333" lon="13.6547504"><ele>861.0</ele><time>2026-05-02T12:02:44.163Z</time></trkpt><trkpt lat="42.0483955" lon="13.6546318"><ele>860.9999999999999</ele><time>2026-05-02T12:02:45.162Z</time></trkpt><trkpt lat="42.0484528" lon="13.6545093"><ele>860.9999999999999</ele><time>2026-05-02T12:02:46.165Z</time></trkpt><trkpt lat="42.0485092" lon="13.6543932"><ele>861.0</ele><time>2026-05-02T12:02:47.166Z</time></trkpt><trkpt lat="42.0485771" lon="13.6542964"><ele>861.0</ele><time>2026-05-02T12:02:48.163Z</time></trkpt><trkpt lat="42.0486624" lon="13.6542252"><ele>860.5999999999999</ele><time>2026-05-02T12:02:49.163Z</time></trkpt><trkpt lat="42.0487504" lon="13.6541529"><ele>860.1999999999999</ele><time>2026-05-02T12:02:50.157Z</time></trkpt><trkpt lat="42.0488359" lon="13.6540607"><ele>859.8000000000001</ele><time>2026-05-02T12:02:51.166Z</time></trkpt><trkpt lat="42.0489148" lon="13.6539551"><ele>859.4000000000001</ele><time>2026-05-02T12:02:52.164Z</time></trkpt><trkpt lat="42.0489889" lon="13.6538579"><ele>859.0</ele><time>2026-05-02T12:02:53.164Z</time></trkpt><trkpt lat="42.0490649" lon="13.6537857"><ele>858.6</ele><time>2026-05-02T12:02:54.16Z</time></trkpt><trkpt lat="42.0491526" lon="13.6537155"><ele>858.2</ele><time>2026-05-02T12:02:55.161Z</time></trkpt><trkpt lat="42.0492438" lon="13.6536382"><ele>857.8000000000001</ele><time>2026-05-02T12:02:56.162Z</time></trkpt><trkpt lat="42.0493257" lon="13.6535559"><ele>857.4000000000001</ele><time>2026-05-02T12:02:57.161Z</time></trkpt><trkpt lat="42.0493993" lon="13.6534488"><ele>857.0</ele><time>2026-05-02T12:02:58.16Z</time></trkpt><trkpt lat="42.0494687" lon="13.6533338"><ele>857.0000000000001</ele><time>2026-05-02T12:02:59.162Z</time></trkpt><trkpt lat="42.0495324" lon="13.653222"><ele>857.0</ele><time>2026-05-02T12:03:00.162Z</time></trkpt><trkpt lat="42.0495993" lon="13.6531275"><ele>857.0</ele><time>2026-05-02T12:03:01.166Z</time></trkpt><trkpt lat="42.0496669" lon="13.6530537"><ele>857.0</ele><time>2026-05-02T12:03:02.16Z</time></trkpt><trkpt lat="42.0497282" lon="13.6529772"><ele>857.0000000000001</ele><time>2026-05-02T12:03:03.173Z</time></trkpt><trkpt lat="42.0497685" lon="13.6529082"><ele>857.0</ele><time>2026-05-02T12:03:04.159Z</time></trkpt><trkpt lat="42.0498215" lon="13.652756"><ele>857.1666666666667</ele><time>2026-05-02T12:03:06.167Z</time></trkpt><trkpt lat="42.0498598" lon="13.6526679"><ele>857.3333333333334</ele><time>2026-05-02T12:03:07.161Z</time></trkpt><trkpt lat="42.049908" lon="13.6525893"><ele>857.5</ele><time>2026-05-02T12:03:08.168Z</time></trkpt><trkpt lat="42.0499655" lon="13.6525183"><ele>857.6666666666667</ele><time>2026-05-02T12:03:09.164Z</time></trkpt><trkpt lat="42.0500229" lon="13.652446"><ele>857.8333333333334</ele><time>2026-05-02T12:03:10.166Z</time></trkpt><trkpt lat="42.0500755" lon="13.6523651"><ele>858.0</ele><time>2026-05-02T12:03:11.161Z</time></trkpt><trkpt lat="42.0501241" lon="13.6522806"><ele>858.0</ele><time>2026-05-02T12:03:12.166Z</time></trkpt><trkpt lat="42.0501661" lon="13.6521995"><ele>858.0</ele><time>2026-05-02T12:03:13.167Z</time></trkpt><trkpt lat="42.0502098" lon="13.6521239"><ele>858.0</ele><time>2026-05-02T12:03:14.165Z</time></trkpt><trkpt lat="42.0502628" lon="13.6520599"><ele>858.0</ele><time>2026-05-02T12:03:15.156Z</time></trkpt><trkpt lat="42.0503354" lon="13.6520048"><ele>858.0</ele><time>2026-05-02T12:03:16.154Z</time></trkpt><trkpt lat="42.0504115" lon="13.651948"><ele>858.0</ele><time>2026-05-02T12:03:17.161Z</time></trkpt><trkpt lat="42.0504812" lon="13.6518942"><ele>857.5</ele><time>2026-05-02T12:03:18.161Z</time></trkpt><trkpt lat="42.0505467" lon="13.651855"><ele>857.0</ele><time>2026-05-02T12:03:19.153Z</time></trkpt><trkpt lat="42.0506169" lon="13.6518217"><ele>856.5</ele><time>2026-05-02T12:03:20.161Z</time></trkpt><trkpt lat="42.0506892" lon="13.6517929"><ele>856.0</ele><time>2026-05-02T12:03:21.156Z</time></trkpt><trkpt lat="42.0507628" lon="13.6517526"><ele>855.5</ele><time>2026-05-02T12:03:22.167Z</time></trkpt><trkpt lat="42.0508341" lon="13.6516916"><ele>855.0</ele><time>2026-05-02T12:03:23.161Z</time></trkpt><trkpt lat="42.0508949" lon="13.6516266"><ele>855.5</ele><time>2026-05-02T12:03:24.17Z</time></trkpt><trkpt lat="42.050937" lon="13.6515606"><ele>856.0</ele><time>2026-05-02T12:03:25.165Z</time></trkpt><trkpt lat="42.0509922" lon="13.6514009"><ele>856.5</ele><time>2026-05-02T12:03:27.163Z</time></trkpt><trkpt lat="42.0510205" lon="13.6512998"><ele>857.0</ele><time>2026-05-02T12:03:28.166Z</time></trkpt><trkpt lat="42.0510433" lon="13.6511954"><ele>857.5</ele><time>2026-05-02T12:03:29.159Z</time></trkpt><trkpt lat="42.0510545" lon="13.6510826"><ele>858.0</ele><time>2026-05-02T12:03:30.163Z</time></trkpt><trkpt lat="42.0510406" lon="13.6509538"><ele>858.0</ele><time>2026-05-02T12:03:31.164Z</time></trkpt><trkpt lat="42.0510029" lon="13.6508166"><ele>858.0</ele><time>2026-05-02T12:03:32.159Z</time></trkpt><trkpt lat="42.050957" lon="13.6506818"><ele>858.0</ele><time>2026-05-02T12:03:33.16Z</time></trkpt><trkpt lat="42.0509241" lon="13.6505582"><ele>858.0</ele><time>2026-05-02T12:03:34.168Z</time></trkpt><trkpt lat="42.0508966" lon="13.6504504"><ele>858.0</ele><time>2026-05-02T12:03:35.159Z</time></trkpt><trkpt lat="42.050889" lon="13.6503573"><ele>857.0</ele><time>2026-05-02T12:03:36.157Z</time></trkpt><trkpt lat="42.0509365" lon="13.6501933"><ele>856.0</ele><time>2026-05-02T12:03:38.146Z</time></trkpt><trkpt lat="42.0509894" lon="13.6500981"><ele>855.0</ele><time>2026-05-02T12:03:39.155Z</time></trkpt><trkpt lat="42.0510682" lon="13.6499962"><ele>854.0</ele><time>2026-05-02T12:03:40.156Z</time></trkpt><trkpt lat="42.0511485" lon="13.6498866"><ele>853.0</ele><time>2026-05-02T12:03:41.157Z</time></trkpt><trkpt lat="42.0512314" lon="13.6497727"><ele>853.0</ele><time>2026-05-02T12:03:42.161Z</time></trkpt><trkpt lat="42.0513107" lon="13.6496644"><ele>853.0</ele><time>2026-05-02T12:03:43.161Z</time></trkpt><trkpt lat="42.0513893" lon="13.6495575"><ele>853.0</ele><time>2026-05-02T12:03:44.164Z</time></trkpt><trkpt lat="42.0514679" lon="13.6494518"><ele>853.0</ele><time>2026-05-02T12:03:45.158Z</time></trkpt><trkpt lat="42.051543" lon="13.6493239"><ele>852.8</ele><time>2026-05-02T12:03:46.157Z</time></trkpt><trkpt lat="42.0516075" lon="13.6491974"><ele>852.5999999999999</ele><time>2026-05-02T12:03:47.159Z</time></trkpt><trkpt lat="42.0516534" lon="13.6490714"><ele>852.4000000000001</ele><time>2026-05-02T12:03:48.163Z</time></trkpt><trkpt lat="42.0516893" lon="13.6489478"><ele>852.2</ele><time>2026-05-02T12:03:49.164Z</time></trkpt><trkpt lat="42.0517171" lon="13.648825"><ele>852.0</ele><time>2026-05-02T12:03:50.162Z</time></trkpt><trkpt lat="42.0517543" lon="13.6487134"><ele>852.0</ele><time>2026-05-02T12:03:51.159Z</time></trkpt><trkpt lat="42.0518044" lon="13.6486041"><ele>852.0</ele><time>2026-05-02T12:03:52.162Z</time></trkpt><trkpt lat="42.0518719" lon="13.648499"><ele>852.0</ele><time>2026-05-02T12:03:53.164Z</time></trkpt><trkpt lat="42.0519535" lon="13.6483948"><ele>852.0</ele><time>2026-05-02T12:03:54.157Z</time></trkpt><trkpt lat="42.0520421" lon="13.6482911"><ele>852.0</ele><time>2026-05-02T12:03:55.165Z</time></trkpt><trkpt lat="42.0521359" lon="13.6481753"><ele>852.0</ele><time>2026-05-02T12:03:56.162Z</time></trkpt><trkpt lat="42.0522375" lon="13.6480664"><ele>852.0</ele><time>2026-05-02T12:03:57.166Z</time></trkpt><trkpt lat="42.0523413" lon="13.6479596"><ele>852.0</ele><time>2026-05-02T12:03:58.165Z</time></trkpt><trkpt lat="42.052449" lon="13.6478499"><ele>852.0</ele><time>2026-05-02T12:03:59.166Z</time></trkpt><trkpt lat="42.0525528" lon="13.6477392"><ele>852.25</ele><time>2026-05-02T12:04:00.154Z</time></trkpt><trkpt lat="42.0526553" lon="13.6476257"><ele>852.5</ele><time>2026-05-02T12:04:01.151Z</time></trkpt><trkpt lat="42.0527556" lon="13.6475022"><ele>852.75</ele><time>2026-05-02T12:04:02.151Z</time></trkpt><trkpt lat="42.0528296" lon="13.6473794"><ele>853.0</ele><time>2026-05-02T12:04:03.152Z</time></trkpt><trkpt lat="42.0529095" lon="13.6472881"><ele>853.0</ele><time>2026-05-02T12:04:04.157Z</time></trkpt><trkpt lat="42.0530094" lon="13.6471906"><ele>853.0</ele><time>2026-05-02T12:04:05.154Z</time></trkpt><trkpt lat="42.0530942" lon="13.6471098"><ele>853.0</ele><time>2026-05-02T12:04:06.162Z</time></trkpt><trkpt lat="42.0531689" lon="13.647047"><ele>853.0</ele><time>2026-05-02T12:04:07.16Z</time></trkpt><trkpt lat="42.053247" lon="13.6469684"><ele>853.0</ele><time>2026-05-02T12:04:08.162Z</time></trkpt><trkpt lat="42.0533351" lon="13.6468938"><ele>853.5</ele><time>2026-05-02T12:04:09.154Z</time></trkpt><trkpt lat="42.053425" lon="13.6468045"><ele>854.0</ele><time>2026-05-02T12:04:10.164Z</time></trkpt><trkpt lat="42.0535135" lon="13.6467155"><ele>854.5</ele><time>2026-05-02T12:04:11.158Z</time></trkpt><trkpt lat="42.0536052" lon="13.6466238"><ele>855.0</ele><time>2026-05-02T12:04:12.161Z</time></trkpt><trkpt lat="42.053699" lon="13.6465272"><ele>855.0</ele><time>2026-05-02T12:04:13.161Z</time></trkpt><trkpt lat="42.0537893" lon="13.6464227"><ele>855.0</ele><time>2026-05-02T12:04:14.164Z</time></trkpt><trkpt lat="42.0538807" lon="13.6463134"><ele>855.0</ele><time>2026-05-02T12:04:15.162Z</time></trkpt><trkpt lat="42.0539754" lon="13.6462048"><ele>855.0</ele><time>2026-05-02T12:04:16.157Z</time></trkpt><trkpt lat="42.0540743" lon="13.6460853"><ele>854.5</ele><time>2026-05-02T12:04:17.159Z</time></trkpt><trkpt lat="42.0541735" lon="13.6459754"><ele>854.0</ele><time>2026-05-02T12:04:18.16Z</time></trkpt><trkpt lat="42.0542676" lon="13.6458757"><ele>853.5</ele><time>2026-05-02T12:04:19.159Z</time></trkpt><trkpt lat="42.0543561" lon="13.6457745"><ele>853.0</ele><time>2026-05-02T12:04:20.154Z</time></trkpt><trkpt lat="42.0544382" lon="13.645673"><ele>853.0</ele><time>2026-05-02T12:04:21.151Z</time></trkpt><trkpt lat="42.0545291" lon="13.6455746"><ele>853.0</ele><time>2026-05-02T12:04:22.153Z</time></trkpt><trkpt lat="42.0546195" lon="13.6454736"><ele>853.0</ele><time>2026-05-02T12:04:23.156Z</time></trkpt><trkpt lat="42.054709" lon="13.6453642"><ele>853.0</ele><time>2026-05-02T12:04:24.155Z</time></trkpt><trkpt lat="42.0547953" lon="13.6452455"><ele>853.25</ele><time>2026-05-02T12:04:25.159Z</time></trkpt><trkpt lat="42.0548746" lon="13.6451188"><ele>853.5</ele><time>2026-05-02T12:04:26.162Z</time></trkpt><trkpt lat="42.0549432" lon="13.6449845"><ele>853.75</ele><time>2026-05-02T12:04:27.168Z</time></trkpt><trkpt lat="42.055006" lon="13.6448533"><ele>854.0</ele><time>2026-05-02T12:04:28.153Z</time></trkpt><trkpt lat="42.0550592" lon="13.6447018"><ele>854.0</ele><time>2026-05-02T12:04:29.155Z</time></trkpt><trkpt lat="42.0550991" lon="13.644565"><ele>854.0000000000001</ele><time>2026-05-02T12:04:30.149Z</time></trkpt><trkpt lat="42.0551302" lon="13.6444312"><ele>854.0000000000001</ele><time>2026-05-02T12:04:31.151Z</time></trkpt><trkpt lat="42.0551467" lon="13.6443152"><ele>854.0</ele><time>2026-05-02T12:04:32.156Z</time></trkpt><trkpt lat="42.0551605" lon="13.6442125"><ele>854.0</ele><time>2026-05-02T12:04:33.154Z</time></trkpt><trkpt lat="42.0551764" lon="13.6441187"><ele>853.6</ele><time>2026-05-02T12:04:34.161Z</time></trkpt><trkpt lat="42.0552298" lon="13.6439751"><ele>853.2</ele><time>2026-05-02T12:04:36.161Z</time></trkpt><trkpt lat="42.0552637" lon="13.6438817"><ele>852.8000000000001</ele><time>2026-05-02T12:04:37.159Z</time></trkpt><trkpt lat="42.0552962" lon="13.6437613"><ele>852.4000000000001</ele><time>2026-05-02T12:04:38.162Z</time></trkpt><trkpt lat="42.0553267" lon="13.6436163"><ele>852.0</ele><time>2026-05-02T12:04:39.162Z</time></trkpt><trkpt lat="42.0553524" lon="13.6434539"><ele>852.0</ele><time>2026-05-02T12:04:40.165Z</time></trkpt><trkpt lat="42.0553753" lon="13.6432956"><ele>852.0</ele><time>2026-05-02T12:04:41.159Z</time></trkpt><trkpt lat="42.0553947" lon="13.643147"><ele>852.0</ele><time>2026-05-02T12:04:42.16Z</time></trkpt><trkpt lat="42.0554173" lon="13.6429994"><ele>852.0</ele><time>2026-05-02T12:04:43.152Z</time></trkpt><trkpt lat="42.055443" lon="13.6428653"><ele>852.0</ele><time>2026-05-02T12:04:44.152Z</time></trkpt><trkpt lat="42.0554816" lon="13.6427361"><ele>851.8333333333334</ele><time>2026-05-02T12:04:45.153Z</time></trkpt><trkpt lat="42.05553" lon="13.6426079"><ele>851.6666666666667</ele><time>2026-05-02T12:04:46.154Z</time></trkpt><trkpt lat="42.0555788" lon="13.6424848"><ele>851.5</ele><time>2026-05-02T12:04:47.151Z</time></trkpt><trkpt lat="42.0556233" lon="13.6423841"><ele>851.3333333333334</ele><time>2026-05-02T12:04:48.155Z</time></trkpt><trkpt lat="42.0556645" lon="13.6422949"><ele>851.1666666666667</ele><time>2026-05-02T12:04:49.151Z</time></trkpt><trkpt lat="42.0557139" lon="13.6422329"><ele>851.0</ele><time>2026-05-02T12:04:50.152Z</time></trkpt><trkpt lat="42.0557763" lon="13.6421878"><ele>852.1999999999999</ele><time>2026-05-02T12:04:51.148Z</time></trkpt><trkpt lat="42.055862" lon="13.6421522"><ele>853.4</ele><time>2026-05-02T12:04:52.152Z</time></trkpt><trkpt lat="42.0559649" lon="13.6421203"><ele>854.6</ele><time>2026-05-02T12:04:53.151Z</time></trkpt><trkpt lat="42.0560817" lon="13.6420815"><ele>855.8</ele><time>2026-05-02T12:04:54.153Z</time></trkpt><trkpt lat="42.0562" lon="13.6420361"><ele>857.0</ele><time>2026-05-02T12:04:55.154Z</time></trkpt><trkpt lat="42.0563227" lon="13.6419768"><ele>856.0</ele><time>2026-05-02T12:04:56.153Z</time></trkpt><trkpt lat="42.0564484" lon="13.6419146"><ele>855.0</ele><time>2026-05-02T12:04:57.153Z</time></trkpt><trkpt lat="42.0565816" lon="13.641865"><ele>854.0</ele><time>2026-05-02T12:04:58.158Z</time></trkpt><trkpt lat="42.0567101" lon="13.6418366"><ele>853.0</ele><time>2026-05-02T12:04:59.152Z</time></trkpt><trkpt lat="42.0568154" lon="13.6417804"><ele>853.0</ele><time>2026-05-02T12:05:00.155Z</time></trkpt><trkpt lat="42.0569127" lon="13.6417361"><ele>853.0</ele><time>2026-05-02T12:05:01.155Z</time></trkpt><trkpt lat="42.0570048" lon="13.6416977"><ele>853.0</ele><time>2026-05-02T12:05:02.149Z</time></trkpt><trkpt lat="42.0570951" lon="13.6417146"><ele>853.0</ele><time>2026-05-02T12:05:03.146Z</time></trkpt><trkpt lat="42.0571994" lon="13.6417472"><ele>853.0</ele><time>2026-05-02T12:05:04.163Z</time></trkpt><trkpt lat="42.0573165" lon="13.6417644"><ele>853.0</ele><time>2026-05-02T12:05:05.149Z</time></trkpt><trkpt lat="42.0574267" lon="13.6417925"><ele>853.0</ele><time>2026-05-02T12:05:06.15Z</time></trkpt><trkpt lat="42.0575389" lon="13.6418005"><ele>853.0</ele><time>2026-05-02T12:05:07.149Z</time></trkpt><trkpt lat="42.057647" lon="13.6417888"><ele>853.0</ele><time>2026-05-02T12:05:08.152Z</time></trkpt><trkpt lat="42.0577593" lon="13.6417546"><ele>853.0</ele><time>2026-05-02T12:05:09.148Z</time></trkpt><trkpt lat="42.0578743" lon="13.6417059"><ele>853.5</ele><time>2026-05-02T12:05:10.149Z</time></trkpt><trkpt lat="42.0579977" lon="13.6416406"><ele>854.0</ele><time>2026-05-02T12:05:11.156Z</time></trkpt><trkpt lat="42.058121" lon="13.6415738"><ele>854.5</ele><time>2026-05-02T12:05:12.156Z</time></trkpt><trkpt lat="42.058239" lon="13.6415169"><ele>855.0</ele><time>2026-05-02T12:05:13.151Z</time></trkpt><trkpt lat="42.0583524" lon="13.6414538"><ele>855.4</ele><time>2026-05-02T12:05:14.156Z</time></trkpt><trkpt lat="42.0584582" lon="13.6413975"><ele>855.8</ele><time>2026-05-02T12:05:15.15Z</time></trkpt><trkpt lat="42.0585612" lon="13.641349"><ele>856.2</ele><time>2026-05-02T12:05:16.155Z</time></trkpt><trkpt lat="42.0586613" lon="13.6413081"><ele>856.6</ele><time>2026-05-02T12:05:17.153Z</time></trkpt><trkpt lat="42.0587671" lon="13.6412599"><ele>857.0</ele><time>2026-05-02T12:05:18.153Z</time></trkpt><trkpt lat="42.0588841" lon="13.6412265"><ele>857.0</ele><time>2026-05-02T12:05:19.149Z</time></trkpt><trkpt lat="42.0590149" lon="13.6412011"><ele>857.0</ele><time>2026-05-02T12:05:20.15Z</time></trkpt><trkpt lat="42.0591555" lon="13.6411885"><ele>857.0</ele><time>2026-05-02T12:05:21.15Z</time></trkpt><trkpt lat="42.059301" lon="13.6411598"><ele>857.0</ele><time>2026-05-02T12:05:22.151Z</time></trkpt><trkpt lat="42.0594481" lon="13.6411482"><ele>857.5</ele><time>2026-05-02T12:05:23.157Z</time></trkpt><trkpt lat="42.0595855" lon="13.6411527"><ele>858.0</ele><time>2026-05-02T12:05:24.151Z</time></trkpt><trkpt lat="42.0597295" lon="13.6411667"><ele>858.5</ele><time>2026-05-02T12:05:25.165Z</time></trkpt><trkpt lat="42.059874" lon="13.64115"><ele>859.0</ele><time>2026-05-02T12:05:26.148Z</time></trkpt><trkpt lat="42.0600162" lon="13.6411627"><ele>859.25</ele><time>2026-05-02T12:05:27.155Z</time></trkpt><trkpt lat="42.0601459" lon="13.6411803"><ele>859.5</ele><time>2026-05-02T12:05:28.158Z</time></trkpt><trkpt lat="42.060258" lon="13.6412163"><ele>859.75</ele><time>2026-05-02T12:05:29.164Z</time></trkpt><trkpt lat="42.0603815" lon="13.6412453"><ele>860.0</ele><time>2026-05-02T12:05:30.152Z</time></trkpt><trkpt lat="42.0605145" lon="13.6412551"><ele>860.0</ele><time>2026-05-02T12:05:31.158Z</time></trkpt><trkpt lat="42.0606478" lon="13.6412353"><ele>860.0</ele><time>2026-05-02T12:05:32.149Z</time></trkpt><trkpt lat="42.0607903" lon="13.6412157"><ele>860.0</ele><time>2026-05-02T12:05:33.156Z</time></trkpt><trkpt lat="42.0609436" lon="13.6412038"><ele>860.0</ele><time>2026-05-02T12:05:34.15Z</time></trkpt><trkpt lat="42.0610911" lon="13.6411872"><ele>860.0</ele><time>2026-05-02T12:05:35.153Z</time></trkpt><trkpt lat="42.0612253" lon="13.641158"><ele>860.0</ele><time>2026-05-02T12:05:36.149Z</time></trkpt><trkpt lat="42.0613465" lon="13.6411021"><ele>860.0</ele><time>2026-05-02T12:05:37.15Z</time></trkpt><trkpt lat="42.0614683" lon="13.6410494"><ele>860.0</ele><time>2026-05-02T12:05:38.149Z</time></trkpt><trkpt lat="42.0615724" lon="13.6410163"><ele>861.75</ele><time>2026-05-02T12:05:39.152Z</time></trkpt><trkpt lat="42.0616708" lon="13.6409811"><ele>863.5</ele><time>2026-05-02T12:05:40.146Z</time></trkpt><trkpt lat="42.0617756" lon="13.6409213"><ele>865.25</ele><time>2026-05-02T12:05:41.15Z</time></trkpt><trkpt lat="42.0618879" lon="13.6408411"><ele>867.0</ele><time>2026-05-02T12:05:42.142Z</time></trkpt><trkpt lat="42.0620035" lon="13.6407436"><ele>867.0</ele><time>2026-05-02T12:05:43.156Z</time></trkpt><trkpt lat="42.0621174" lon="13.6406301"><ele>867.0</ele><time>2026-05-02T12:05:44.149Z</time></trkpt><trkpt lat="42.0622303" lon="13.640519"><ele>867.0</ele><time>2026-05-02T12:05:45.152Z</time></trkpt><trkpt lat="42.0623293" lon="13.6403853"><ele>867.0</ele><time>2026-05-02T12:05:46.146Z</time></trkpt><trkpt lat="42.0624155" lon="13.6402786"><ele>867.0</ele><time>2026-05-02T12:05:47.156Z</time></trkpt><trkpt lat="42.062496" lon="13.6401513"><ele>867.0</ele><time>2026-05-02T12:05:48.15Z</time></trkpt><trkpt lat="42.0625729" lon="13.6400439"><ele>867.0</ele><time>2026-05-02T12:05:49.158Z</time></trkpt><trkpt lat="42.0626532" lon="13.63995"><ele>867.0</ele><time>2026-05-02T12:05:50.148Z</time></trkpt><trkpt lat="42.0627467" lon="13.6398678"><ele>867.0</ele><time>2026-05-02T12:05:51.152Z</time></trkpt><trkpt lat="42.06286" lon="13.6397787"><ele>867.0</ele><time>2026-05-02T12:05:52.143Z</time></trkpt><trkpt lat="42.0629976" lon="13.6396941"><ele>867.0</ele><time>2026-05-02T12:05:53.149Z</time></trkpt><trkpt lat="42.0631471" lon="13.6395908"><ele>866.3333333333333</ele><time>2026-05-02T12:05:54.149Z</time></trkpt><trkpt lat="42.0632869" lon="13.6394901"><ele>865.6666666666666</ele><time>2026-05-02T12:05:55.148Z</time></trkpt><trkpt lat="42.0634245" lon="13.6393859"><ele>865.0</ele><time>2026-05-02T12:05:56.15Z</time></trkpt><trkpt lat="42.0635562" lon="13.6392917"><ele>865.0</ele><time>2026-05-02T12:05:57.151Z</time></trkpt><trkpt lat="42.0636605" lon="13.639176"><ele>865.0</ele><time>2026-05-02T12:05:58.151Z</time></trkpt><trkpt lat="42.0637791" lon="13.6390807"><ele>865.0</ele><time>2026-05-02T12:05:59.151Z</time></trkpt><trkpt lat="42.063887" lon="13.6389589"><ele>865.0</ele><time>2026-05-02T12:06:00.16Z</time></trkpt><trkpt lat="42.063994" lon="13.63885"><ele>865.0</ele><time>2026-05-02T12:06:01.154Z</time></trkpt><trkpt lat="42.0641111" lon="13.6387434"><ele>865.0</ele><time>2026-05-02T12:06:02.157Z</time></trkpt><trkpt lat="42.064235" lon="13.6386462"><ele>865.0</ele><time>2026-05-02T12:06:03.149Z</time></trkpt><trkpt lat="42.0643367" lon="13.638517"><ele>865.0</ele><time>2026-05-02T12:06:04.152Z</time></trkpt><trkpt lat="42.0644094" lon="13.6384372"><ele>864.75</ele><time>2026-05-02T12:06:05.155Z</time></trkpt><trkpt lat="42.0644965" lon="13.6383608"><ele>864.5</ele><time>2026-05-02T12:06:06.158Z</time></trkpt><trkpt lat="42.0646084" lon="13.6382608"><ele>864.25</ele><time>2026-05-02T12:06:07.155Z</time></trkpt><trkpt lat="42.0647237" lon="13.63816"><ele>864.0</ele><time>2026-05-02T12:06:08.157Z</time></trkpt><trkpt lat="42.0648223" lon="13.6380493"><ele>864.0</ele><time>2026-05-02T12:06:09.157Z</time></trkpt><trkpt lat="42.0649337" lon="13.6379379"><ele>864.0</ele><time>2026-05-02T12:06:10.162Z</time></trkpt><trkpt lat="42.0650575" lon="13.6378086"><ele>864.0</ele><time>2026-05-02T12:06:11.158Z</time></trkpt><trkpt lat="42.0651762" lon="13.6376939"><ele>864.0</ele><time>2026-05-02T12:06:12.158Z</time></trkpt><trkpt lat="42.0652783" lon="13.6375877"><ele>864.25</ele><time>2026-05-02T12:06:13.159Z</time></trkpt><trkpt lat="42.065358" lon="13.63748"><ele>864.5</ele><time>2026-05-02T12:06:14.158Z</time></trkpt><trkpt lat="42.0654341" lon="13.6373504"><ele>864.75</ele><time>2026-05-02T12:06:15.149Z</time></trkpt><trkpt lat="42.0655135" lon="13.6372362"><ele>865.0</ele><time>2026-05-02T12:06:16.152Z</time></trkpt><trkpt lat="42.0656078" lon="13.6371425"><ele>865.0</ele><time>2026-05-02T12:06:17.15Z</time></trkpt><trkpt lat="42.0657202" lon="13.637065"><ele>865.0</ele><time>2026-05-02T12:06:18.144Z</time></trkpt><trkpt lat="42.0658355" lon="13.6369792"><ele>865.0</ele><time>2026-05-02T12:06:19.154Z</time></trkpt><trkpt lat="42.0659552" lon="13.6368849"><ele>865.0</ele><time>2026-05-02T12:06:20.143Z</time></trkpt><trkpt lat="42.0660847" lon="13.6367764"><ele>865.3333333333333</ele><time>2026-05-02T12:06:21.149Z</time></trkpt><trkpt lat="42.0662171" lon="13.6366832"><ele>865.6666666666667</ele><time>2026-05-02T12:06:22.149Z</time></trkpt><trkpt lat="42.0663481" lon="13.6365772"><ele>866.0</ele><time>2026-05-02T12:06:23.151Z</time></trkpt><trkpt lat="42.0664735" lon="13.6364476"><ele>866.0</ele><time>2026-05-02T12:06:24.149Z</time></trkpt><trkpt lat="42.0665994" lon="13.6363417"><ele>866.0</ele><time>2026-05-02T12:06:25.151Z</time></trkpt><trkpt lat="42.0667338" lon="13.6362314"><ele>866.0</ele><time>2026-05-02T12:06:26.153Z</time></trkpt><trkpt lat="42.0668586" lon="13.6361455"><ele>866.0</ele><time>2026-05-02T12:06:27.143Z</time></trkpt><trkpt lat="42.0669601" lon="13.636077"><ele>866.8333333333334</ele><time>2026-05-02T12:06:28.149Z</time></trkpt><trkpt lat="42.0670462" lon="13.6359823"><ele>867.6666666666667</ele><time>2026-05-02T12:06:29.152Z</time></trkpt><trkpt lat="42.0671178" lon="13.6359201"><ele>868.5</ele><time>2026-05-02T12:06:30.158Z</time></trkpt><trkpt lat="42.0671861" lon="13.6358783"><ele>869.3333333333333</ele><time>2026-05-02T12:06:31.153Z</time></trkpt><trkpt lat="42.0672646" lon="13.6358343"><ele>870.1666666666666</ele><time>2026-05-02T12:06:32.15Z</time></trkpt><trkpt lat="42.0673532" lon="13.6358246"><ele>871.0</ele><time>2026-05-02T12:06:33.149Z</time></trkpt><trkpt lat="42.0674551" lon="13.6358125"><ele>873.0</ele><time>2026-05-02T12:06:34.148Z</time></trkpt><trkpt lat="42.0675511" lon="13.6357728"><ele>875.0</ele><time>2026-05-02T12:06:35.151Z</time></trkpt><trkpt lat="42.0676495" lon="13.6357031"><ele>877.0</ele><time>2026-05-02T12:06:36.15Z</time></trkpt><trkpt lat="42.0677463" lon="13.6356143"><ele>879.0</ele><time>2026-05-02T12:06:37.151Z</time></trkpt><trkpt lat="42.0678442" lon="13.6355144"><ele>879.0</ele><time>2026-05-02T12:06:38.151Z</time></trkpt><trkpt lat="42.0679489" lon="13.6354121"><ele>879.0</ele><time>2026-05-02T12:06:39.148Z</time></trkpt><trkpt lat="42.0680622" lon="13.6353128"><ele>879.0</ele><time>2026-05-02T12:06:40.148Z</time></trkpt><trkpt lat="42.0681771" lon="13.6352016"><ele>879.0</ele><time>2026-05-02T12:06:41.153Z</time></trkpt><trkpt lat="42.0682834" lon="13.6350747"><ele>880.5</ele><time>2026-05-02T12:06:42.152Z</time></trkpt><trkpt lat="42.0683827" lon="13.6349339"><ele>882.0</ele><time>2026-05-02T12:06:43.153Z</time></trkpt><trkpt lat="42.0684988" lon="13.6348063"><ele>883.5</ele><time>2026-05-02T12:06:44.154Z</time></trkpt><trkpt lat="42.0685957" lon="13.634712"><ele>885.0</ele><time>2026-05-02T12:06:45.15Z</time></trkpt><trkpt lat="42.0686892" lon="13.6346127"><ele>885.0</ele><time>2026-05-02T12:06:46.15Z</time></trkpt><trkpt lat="42.0687853" lon="13.6344974"><ele>885.0</ele><time>2026-05-02T12:06:47.151Z</time></trkpt><trkpt lat="42.0688887" lon="13.6343807"><ele>885.0</ele><time>2026-05-02T12:06:48.152Z</time></trkpt><trkpt lat="42.0689845" lon="13.6342877"><ele>885.0</ele><time>2026-05-02T12:06:49.153Z</time></trkpt><trkpt lat="42.0690687" lon="13.6342056"><ele>885.5</ele><time>2026-05-02T12:06:50.158Z</time></trkpt><trkpt lat="42.0691411" lon="13.6341253"><ele>886.0</ele><time>2026-05-02T12:06:51.152Z</time></trkpt><trkpt lat="42.0692052" lon="13.6340307"><ele>886.5</ele><time>2026-05-02T12:06:52.158Z</time></trkpt><trkpt lat="42.0692613" lon="13.6339354"><ele>887.0</ele><time>2026-05-02T12:06:53.156Z</time></trkpt><trkpt lat="42.0693161" lon="13.6338614"><ele>887.5</ele><time>2026-05-02T12:06:54.155Z</time></trkpt><trkpt lat="42.0693724" lon="13.6338175"><ele>888.0</ele><time>2026-05-02T12:06:55.146Z</time></trkpt><trkpt lat="42.0694935" lon="13.6338218"><ele>888.0</ele><time>2026-05-02T12:06:57.149Z</time></trkpt><trkpt lat="42.0695572" lon="13.6338645"><ele>888.0</ele><time>2026-05-02T12:06:58.156Z</time></trkpt><trkpt lat="42.069609" lon="13.6339207"><ele>888.0</ele><time>2026-05-02T12:06:59.15Z</time></trkpt><trkpt lat="42.0696726" lon="13.6340257"><ele>888.0</ele><time>2026-05-02T12:07:01.157Z</time></trkpt><trkpt lat="42.069697" lon="13.6341596"><ele>888.0</ele><time>2026-05-02T12:07:03.151Z</time></trkpt><trkpt lat="42.0696974" lon="13.6342445"><ele>888.0</ele><time>2026-05-02T12:07:04.152Z</time></trkpt><trkpt lat="42.0697127" lon="13.6343487"><ele>888.0</ele><time>2026-05-02T12:07:05.146Z</time></trkpt><trkpt lat="42.0697484" lon="13.6344655"><ele>888.0</ele><time>2026-05-02T12:07:06.147Z</time></trkpt><trkpt lat="42.0698023" lon="13.6345891"><ele>888.0</ele><time>2026-05-02T12:07:07.144Z</time></trkpt><trkpt lat="42.0698702" lon="13.6347293"><ele>888.0</ele><time>2026-05-02T12:07:08.15Z</time></trkpt><trkpt lat="42.0699493" lon="13.6348749"><ele>888.25</ele><time>2026-05-02T12:07:09.143Z</time></trkpt><trkpt lat="42.07003" lon="13.6350178"><ele>888.5</ele><time>2026-05-02T12:07:10.143Z</time></trkpt><trkpt lat="42.0701098" lon="13.6351431"><ele>888.75</ele><time>2026-05-02T12:07:11.146Z</time></trkpt><trkpt lat="42.0701918" lon="13.6352724"><ele>889.0</ele><time>2026-05-02T12:07:12.148Z</time></trkpt><trkpt lat="42.0702713" lon="13.6354056"><ele>893.0</ele><time>2026-05-02T12:07:13.149Z</time></trkpt><trkpt lat="42.0703467" lon="13.6355342"><ele>897.0</ele><time>2026-05-02T12:07:14.144Z</time></trkpt><trkpt lat="42.0704265" lon="13.6356681"><ele>901.0</ele><time>2026-05-02T12:07:15.149Z</time></trkpt><trkpt lat="42.070508" lon="13.6358095"><ele>905.0</ele><time>2026-05-02T12:07:16.144Z</time></trkpt><trkpt lat="42.0705925" lon="13.6359617"><ele>905.0</ele><time>2026-05-02T12:07:17.144Z</time></trkpt><trkpt lat="42.0706826" lon="13.6361446"><ele>905.0</ele><time>2026-05-02T12:07:18.144Z</time></trkpt><trkpt lat="42.0707685" lon="13.6363141"><ele>905.0</ele><time>2026-05-02T12:07:19.145Z</time></trkpt><trkpt lat="42.0708655" lon="13.6364713"><ele>905.0</ele><time>2026-05-02T12:07:20.144Z</time></trkpt><trkpt lat="42.0709869" lon="13.6366346"><ele>905.0</ele><time>2026-05-02T12:07:21.146Z</time></trkpt><trkpt lat="42.0711315" lon="13.6367628"><ele>905.0</ele><time>2026-05-02T12:07:22.152Z</time></trkpt><trkpt lat="42.071275" lon="13.6369092"><ele>904.3333333333334</ele><time>2026-05-02T12:07:23.148Z</time></trkpt><trkpt lat="42.0714108" lon="13.6370537"><ele>903.6666666666667</ele><time>2026-05-02T12:07:24.148Z</time></trkpt><trkpt lat="42.0715422" lon="13.637217"><ele>903.0</ele><time>2026-05-02T12:07:25.147Z</time></trkpt><trkpt lat="42.0716744" lon="13.6373994"><ele>903.0</ele><time>2026-05-02T12:07:26.15Z</time></trkpt><trkpt lat="42.0718217" lon="13.6375587"><ele>903.0</ele><time>2026-05-02T12:07:27.146Z</time></trkpt><trkpt lat="42.0719631" lon="13.6376935"><ele>903.0</ele><time>2026-05-02T12:07:28.148Z</time></trkpt><trkpt lat="42.0720993" lon="13.637833"><ele>905.3333333333333</ele><time>2026-05-02T12:07:29.151Z</time></trkpt><trkpt lat="42.0722466" lon="13.6379404"><ele>907.6666666666666</ele><time>2026-05-02T12:07:30.144Z</time></trkpt><trkpt lat="42.072404" lon="13.63803"><ele>910.0</ele><time>2026-05-02T12:07:31.148Z</time></trkpt><trkpt lat="42.0725578" lon="13.6380937"><ele>910.0</ele><time>2026-05-02T12:07:32.146Z</time></trkpt><trkpt lat="42.0727012" lon="13.6381741"><ele>910.0</ele><time>2026-05-02T12:07:33.143Z</time></trkpt><trkpt lat="42.0728218" lon="13.6382413"><ele>910.0</ele><time>2026-05-02T12:07:34.147Z</time></trkpt><trkpt lat="42.0729355" lon="13.6383015"><ele>910.0</ele><time>2026-05-02T12:07:35.151Z</time></trkpt><trkpt lat="42.0730314" lon="13.6383941"><ele>910.0</ele><time>2026-05-02T12:07:36.143Z</time></trkpt><trkpt lat="42.0731256" lon="13.6384779"><ele>910.0</ele><time>2026-05-02T12:07:37.147Z</time></trkpt><trkpt lat="42.0732094" lon="13.6386056"><ele>910.0</ele><time>2026-05-02T12:07:38.138Z</time></trkpt><trkpt lat="42.0733005" lon="13.6387724"><ele>910.0</ele><time>2026-05-02T12:07:39.153Z</time></trkpt><trkpt lat="42.0734181" lon="13.6389617"><ele>912.3333333333333</ele><time>2026-05-02T12:07:40.142Z</time></trkpt><trkpt lat="42.0735353" lon="13.6391398"><ele>914.6666666666667</ele><time>2026-05-02T12:07:41.139Z</time></trkpt><trkpt lat="42.0736794" lon="13.6393017"><ele>917.0</ele><time>2026-05-02T12:07:42.145Z</time></trkpt><trkpt lat="42.0738218" lon="13.6394831"><ele>918.6666666666667</ele><time>2026-05-02T12:07:43.144Z</time></trkpt><trkpt lat="42.0739621" lon="13.6396406"><ele>920.3333333333333</ele><time>2026-05-02T12:07:44.144Z</time></trkpt><trkpt lat="42.0741155" lon="13.6397941"><ele>922.0</ele><time>2026-05-02T12:07:45.145Z</time></trkpt><trkpt lat="42.0742603" lon="13.6399506"><ele>922.0</ele><time>2026-05-02T12:07:46.15Z</time></trkpt><trkpt lat="42.0743964" lon="13.6401069"><ele>922.0</ele><time>2026-05-02T12:07:47.148Z</time></trkpt><trkpt lat="42.0745233" lon="13.640277"><ele>922.0</ele><time>2026-05-02T12:07:48.139Z</time></trkpt><trkpt lat="42.0746321" lon="13.6404616"><ele>924.0</ele><time>2026-05-02T12:07:49.141Z</time></trkpt><trkpt lat="42.0747596" lon="13.6406105"><ele>926.0</ele><time>2026-05-02T12:07:50.142Z</time></trkpt><trkpt lat="42.0748787" lon="13.6407818"><ele>928.0</ele><time>2026-05-02T12:07:51.136Z</time></trkpt><trkpt lat="42.0749889" lon="13.6409718"><ele>930.6666666666666</ele><time>2026-05-02T12:07:52.145Z</time></trkpt><trkpt lat="42.0751053" lon="13.6411387"><ele>933.3333333333333</ele><time>2026-05-02T12:07:53.139Z</time></trkpt><trkpt lat="42.0752213" lon="13.6412941"><ele>936.0</ele><time>2026-05-02T12:07:54.137Z</time></trkpt><trkpt lat="42.0753235" lon="13.6414836"><ele>936.0</ele><time>2026-05-02T12:07:55.139Z</time></trkpt><trkpt lat="42.0754515" lon="13.6416664"><ele>936.0</ele><time>2026-05-02T12:07:56.134Z</time></trkpt><trkpt lat="42.0755693" lon="13.6418419"><ele>936.0</ele><time>2026-05-02T12:07:57.144Z</time></trkpt><trkpt lat="42.0757042" lon="13.6419923"><ele>936.0</ele><time>2026-05-02T12:07:58.149Z</time></trkpt><trkpt lat="42.0758368" lon="13.6421595"><ele>936.0</ele><time>2026-05-02T12:07:59.146Z</time></trkpt><trkpt lat="42.0759805" lon="13.6423186"><ele>936.0</ele><time>2026-05-02T12:08:00.138Z</time></trkpt><trkpt lat="42.0761335" lon="13.6424591"><ele>936.0</ele><time>2026-05-02T12:08:01.153Z</time></trkpt><trkpt lat="42.0762641" lon="13.6426057"><ele>936.0</ele><time>2026-05-02T12:08:02.14Z</time></trkpt><trkpt lat="42.0763946" lon="13.6427677"><ele>936.0</ele><time>2026-05-02T12:08:03.144Z</time></trkpt><trkpt lat="42.076526" lon="13.6429199"><ele>938.0</ele><time>2026-05-02T12:08:04.141Z</time></trkpt><trkpt lat="42.0766335" lon="13.6430952"><ele>940.0</ele><time>2026-05-02T12:08:05.138Z</time></trkpt><trkpt lat="42.0767515" lon="13.6432687"><ele>942.0</ele><time>2026-05-02T12:08:06.13Z</time></trkpt><trkpt lat="42.0768763" lon="13.6434421"><ele>942.0</ele><time>2026-05-02T12:08:07.141Z</time></trkpt><trkpt lat="42.0769867" lon="13.6436154"><ele>942.0</ele><time>2026-05-02T12:08:08.134Z</time></trkpt><trkpt lat="42.0770934" lon="13.6437861"><ele>942.0</ele><time>2026-05-02T12:08:09.139Z</time></trkpt><trkpt lat="42.0772068" lon="13.6439519"><ele>943.75</ele><time>2026-05-02T12:08:10.126Z</time></trkpt><trkpt lat="42.0773362" lon="13.6440969"><ele>945.5</ele><time>2026-05-02T12:08:11.139Z</time></trkpt><trkpt lat="42.0774527" lon="13.6442302"><ele>947.25</ele><time>2026-05-02T12:08:12.126Z</time></trkpt><trkpt lat="42.0775523" lon="13.6443301"><ele>949.0</ele><time>2026-05-02T12:08:13.14Z</time></trkpt><trkpt lat="42.0776569" lon="13.6444235"><ele>952.25</ele><time>2026-05-02T12:08:14.132Z</time></trkpt><trkpt lat="42.0777525" lon="13.644522"><ele>955.5</ele><time>2026-05-02T12:08:15.13Z</time></trkpt><trkpt lat="42.0778428" lon="13.6446477"><ele>958.75</ele><time>2026-05-02T12:08:16.133Z</time></trkpt><trkpt lat="42.0779371" lon="13.6447857"><ele>962.0</ele><time>2026-05-02T12:08:17.133Z</time></trkpt><trkpt lat="42.0780108" lon="13.644963"><ele>962.0</ele><time>2026-05-02T12:08:18.134Z</time></trkpt><trkpt lat="42.0780878" lon="13.6450963"><ele>962.0</ele><time>2026-05-02T12:08:19.138Z</time></trkpt><trkpt lat="42.0781569" lon="13.6452738"><ele>962.0</ele><time>2026-05-02T12:08:20.137Z</time></trkpt><trkpt lat="42.0782379" lon="13.6454049"><ele>962.0</ele><time>2026-05-02T12:08:21.143Z</time></trkpt><trkpt lat="42.0783198" lon="13.6455409"><ele>961.5</ele><time>2026-05-02T12:08:22.135Z</time></trkpt><trkpt lat="42.0784078" lon="13.6456894"><ele>961.0</ele><time>2026-05-02T12:08:23.136Z</time></trkpt><trkpt lat="42.0785096" lon="13.6458154"><ele>960.5</ele><time>2026-05-02T12:08:24.131Z</time></trkpt><trkpt lat="42.0786234" lon="13.6459096"><ele>960.0</ele><time>2026-05-02T12:08:25.137Z</time></trkpt><trkpt lat="42.0787459" lon="13.6459964"><ele>960.0</ele><time>2026-05-02T12:08:26.133Z</time></trkpt><trkpt lat="42.0788636" lon="13.6460968"><ele>960.0</ele><time>2026-05-02T12:08:27.132Z</time></trkpt><trkpt lat="42.078987" lon="13.6462139"><ele>960.0</ele><time>2026-05-02T12:08:28.144Z</time></trkpt><trkpt lat="42.0790799" lon="13.6463606"><ele>960.0</ele><time>2026-05-02T12:08:29.14Z</time></trkpt><trkpt lat="42.07917" lon="13.6464964"><ele>960.25</ele><time>2026-05-02T12:08:30.138Z</time></trkpt><trkpt lat="42.0792317" lon="13.6466385"><ele>960.5</ele><time>2026-05-02T12:08:31.137Z</time></trkpt><trkpt lat="42.0792823" lon="13.6468005"><ele>960.75</ele><time>2026-05-02T12:08:32.141Z</time></trkpt><trkpt lat="42.0793463" lon="13.6469279"><ele>961.0</ele><time>2026-05-02T12:08:33.138Z</time></trkpt><trkpt lat="42.0793944" lon="13.6470652"><ele>963.1999999999999</ele><time>2026-05-02T12:08:34.144Z</time></trkpt><trkpt lat="42.0794561" lon="13.6471799"><ele>965.3999999999999</ele><time>2026-05-02T12:08:35.142Z</time></trkpt><trkpt lat="42.0795255" lon="13.647305"><ele>967.6</ele><time>2026-05-02T12:08:36.135Z</time></trkpt><trkpt lat="42.0796133" lon="13.6473963"><ele>969.8</ele><time>2026-05-02T12:08:37.138Z</time></trkpt><trkpt lat="42.0796943" lon="13.6474718"><ele>972.0</ele><time>2026-05-02T12:08:38.14Z</time></trkpt><trkpt lat="42.0797727" lon="13.6475257"><ele>972.0</ele><time>2026-05-02T12:08:39.141Z</time></trkpt><trkpt lat="42.0798627" lon="13.6475867"><ele>972.0</ele><time>2026-05-02T12:08:40.143Z</time></trkpt><trkpt lat="42.0799549" lon="13.647642"><ele>972.0</ele><time>2026-05-02T12:08:41.145Z</time></trkpt><trkpt lat="42.0800416" lon="13.6476969"><ele>972.0</ele><time>2026-05-02T12:08:42.143Z</time></trkpt><trkpt lat="42.0801291" lon="13.6477531"><ele>972.0</ele><time>2026-05-02T12:08:43.152Z</time></trkpt><trkpt lat="42.0802166" lon="13.6478043"><ele>969.4000000000001</ele><time>2026-05-02T12:08:44.144Z</time></trkpt><trkpt lat="42.0803098" lon="13.6478392"><ele>966.8000000000001</ele><time>2026-05-02T12:08:45.16Z</time></trkpt><trkpt lat="42.0804017" lon="13.6478509"><ele>964.2</ele><time>2026-05-02T12:08:46.142Z</time></trkpt><trkpt lat="42.0805005" lon="13.6478413"><ele>961.6</ele><time>2026-05-02T12:08:47.15Z</time></trkpt><trkpt lat="42.0806017" lon="13.6478218"><ele>959.0</ele><time>2026-05-02T12:08:48.143Z</time></trkpt><trkpt lat="42.0807051" lon="13.647776"><ele>960.0</ele><time>2026-05-02T12:08:49.151Z</time></trkpt><trkpt lat="42.0808056" lon="13.6477262"><ele>961.0000000000001</ele><time>2026-05-02T12:08:50.146Z</time></trkpt><trkpt lat="42.0809041" lon="13.647668"><ele>962.0000000000001</ele><time>2026-05-02T12:08:51.149Z</time></trkpt><trkpt lat="42.0810061" lon="13.6476223"><ele>963.0</ele><time>2026-05-02T12:08:52.144Z</time></trkpt><trkpt lat="42.0811155" lon="13.647574"><ele>964.0</ele><time>2026-05-02T12:08:53.152Z</time></trkpt><trkpt lat="42.081222" lon="13.6475135"><ele>964.0</ele><time>2026-05-02T12:08:54.145Z</time></trkpt><trkpt lat="42.0813289" lon="13.6474454"><ele>964.0</ele><time>2026-05-02T12:08:55.155Z</time></trkpt><trkpt lat="42.0814316" lon="13.6473736"><ele>964.0</ele><time>2026-05-02T12:08:56.142Z</time></trkpt><trkpt lat="42.0815306" lon="13.6472941"><ele>964.0</ele><time>2026-05-02T12:08:57.146Z</time></trkpt><trkpt lat="42.0816256" lon="13.6472044"><ele>965.25</ele><time>2026-05-02T12:08:58.148Z</time></trkpt><trkpt lat="42.0817182" lon="13.6470812"><ele>966.5</ele><time>2026-05-02T12:08:59.154Z</time></trkpt><trkpt lat="42.0818107" lon="13.64695"><ele>967.75</ele><time>2026-05-02T12:09:00.143Z</time></trkpt><trkpt lat="42.0819062" lon="13.6468153"><ele>969.0</ele><time>2026-05-02T12:09:01.153Z</time></trkpt><trkpt lat="42.0819943" lon="13.6466778"><ele>970.25</ele><time>2026-05-02T12:09:02.149Z</time></trkpt><trkpt lat="42.0820793" lon="13.646546"><ele>971.5</ele><time>2026-05-02T12:09:03.15Z</time></trkpt><trkpt lat="42.0821696" lon="13.6464104"><ele>972.75</ele><time>2026-05-02T12:09:04.149Z</time></trkpt><trkpt lat="42.0822676" lon="13.64628"><ele>974.0</ele><time>2026-05-02T12:09:05.155Z</time></trkpt><trkpt lat="42.0823718" lon="13.6461729"><ele>976.25</ele><time>2026-05-02T12:09:06.141Z</time></trkpt><trkpt lat="42.0824849" lon="13.6460809"><ele>978.5</ele><time>2026-05-02T12:09:07.145Z</time></trkpt><trkpt lat="42.0826065" lon="13.6460076"><ele>980.75</ele><time>2026-05-02T12:09:08.147Z</time></trkpt><trkpt lat="42.0827167" lon="13.6459772"><ele>983.0</ele><time>2026-05-02T12:09:09.146Z</time></trkpt><trkpt lat="42.0828432" lon="13.6459353"><ele>983.0</ele><time>2026-05-02T12:09:10.145Z</time></trkpt><trkpt lat="42.0829707" lon="13.6458594"><ele>983.0</ele><time>2026-05-02T12:09:11.146Z</time></trkpt><trkpt lat="42.083089" lon="13.6458019"><ele>983.0</ele><time>2026-05-02T12:09:12.15Z</time></trkpt><trkpt lat="42.0832065" lon="13.6457158"><ele>983.0</ele><time>2026-05-02T12:09:13.145Z</time></trkpt><trkpt lat="42.08332" lon="13.6456197"><ele>985.5</ele><time>2026-05-02T12:09:14.149Z</time></trkpt><trkpt lat="42.0834278" lon="13.6455143"><ele>988.0</ele><time>2026-05-02T12:09:15.147Z</time></trkpt><trkpt lat="42.0835414" lon="13.6454047"><ele>990.5</ele><time>2026-05-02T12:09:16.153Z</time></trkpt><trkpt lat="42.0836655" lon="13.6452839"><ele>993.0</ele><time>2026-05-02T12:09:17.151Z</time></trkpt><trkpt lat="42.0837784" lon="13.6451727"><ele>994.0</ele><time>2026-05-02T12:09:18.15Z</time></trkpt><trkpt lat="42.083876" lon="13.6450677"><ele>995.0</ele><time>2026-05-02T12:09:19.149Z</time></trkpt><trkpt lat="42.0839614" lon="13.6449625"><ele>996.0</ele><time>2026-05-02T12:09:20.149Z</time></trkpt><trkpt lat="42.0840337" lon="13.6448101"><ele>997.0</ele><time>2026-05-02T12:09:21.146Z</time></trkpt><trkpt lat="42.0840865" lon="13.6446558"><ele>998.25</ele><time>2026-05-02T12:09:22.145Z</time></trkpt><trkpt lat="42.0841121" lon="13.6444962"><ele>999.5</ele><time>2026-05-02T12:09:23.155Z</time></trkpt><trkpt lat="42.0841418" lon="13.6443351"><ele>1000.75</ele><time>2026-05-02T12:09:24.147Z</time></trkpt><trkpt lat="42.0841807" lon="13.6441599"><ele>1002.0</ele><time>2026-05-02T12:09:25.15Z</time></trkpt><trkpt lat="42.0842191" lon="13.6439817"><ele>1002.75</ele><time>2026-05-02T12:09:26.148Z</time></trkpt><trkpt lat="42.0842678" lon="13.6438184"><ele>1003.5</ele><time>2026-05-02T12:09:27.144Z</time></trkpt><trkpt lat="42.0843304" lon="13.6436501"><ele>1004.25</ele><time>2026-05-02T12:09:28.147Z</time></trkpt><trkpt lat="42.0844055" lon="13.6434715"><ele>1005.0</ele><time>2026-05-02T12:09:29.144Z</time></trkpt><trkpt lat="42.0844685" lon="13.6433017"><ele>1006.5</ele><time>2026-05-02T12:09:30.146Z</time></trkpt><trkpt lat="42.084537" lon="13.6431189"><ele>1008.0</ele><time>2026-05-02T12:09:31.147Z</time></trkpt><trkpt lat="42.0846019" lon="13.6429697"><ele>1009.5</ele><time>2026-05-02T12:09:32.146Z</time></trkpt><trkpt lat="42.0846867" lon="13.6428311"><ele>1011.0</ele><time>2026-05-02T12:09:33.141Z</time></trkpt><trkpt lat="42.084784" lon="13.6426963"><ele>1012.0</ele><time>2026-05-02T12:09:34.148Z</time></trkpt><trkpt lat="42.08487" lon="13.6425579"><ele>1013.0</ele><time>2026-05-02T12:09:35.143Z</time></trkpt><trkpt lat="42.0849313" lon="13.6424245"><ele>1014.0</ele><time>2026-05-02T12:09:36.148Z</time></trkpt><trkpt lat="42.0849876" lon="13.6422688"><ele>1015.0</ele><time>2026-05-02T12:09:37.144Z</time></trkpt><trkpt lat="42.0850134" lon="13.642118"><ele>1018.5</ele><time>2026-05-02T12:09:38.143Z</time></trkpt><trkpt lat="42.0850238" lon="13.6419648"><ele>1022.0</ele><time>2026-05-02T12:09:39.144Z</time></trkpt><trkpt lat="42.0850389" lon="13.6418165"><ele>1025.5</ele><time>2026-05-02T12:09:40.143Z</time></trkpt><trkpt lat="42.0850548" lon="13.6416636"><ele>1029.0</ele><time>2026-05-02T12:09:41.141Z</time></trkpt><trkpt lat="42.0850776" lon="13.6415081"><ele>1029.0</ele><time>2026-05-02T12:09:42.139Z</time></trkpt><trkpt lat="42.0851146" lon="13.641345"><ele>1029.0</ele><time>2026-05-02T12:09:43.143Z</time></trkpt><trkpt lat="42.0851694" lon="13.6411748"><ele>1029.0</ele><time>2026-05-02T12:09:44.141Z</time></trkpt><trkpt lat="42.0852383" lon="13.6409996"><ele>1029.0</ele><time>2026-05-02T12:09:45.142Z</time></trkpt><trkpt lat="42.0852836" lon="13.6408363"><ele>1030.4</ele><time>2026-05-02T12:09:46.143Z</time></trkpt><trkpt lat="42.0853173" lon="13.6406722"><ele>1031.8000000000002</ele><time>2026-05-02T12:09:47.141Z</time></trkpt><trkpt lat="42.0853435" lon="13.6405296"><ele>1033.1999999999998</ele><time>2026-05-02T12:09:48.138Z</time></trkpt><trkpt lat="42.0853157" lon="13.6404017"><ele>1034.6</ele><time>2026-05-02T12:09:49.145Z</time></trkpt><trkpt lat="42.0852798" lon="13.6402651"><ele>1036.0</ele><time>2026-05-02T12:09:50.144Z</time></trkpt><trkpt lat="42.0852213" lon="13.6401144"><ele>1037.0</ele><time>2026-05-02T12:09:51.146Z</time></trkpt><trkpt lat="42.0851791" lon="13.6399796"><ele>1038.0</ele><time>2026-05-02T12:09:52.139Z</time></trkpt><trkpt lat="42.0851633" lon="13.6398513"><ele>1039.0</ele><time>2026-05-02T12:09:53.137Z</time></trkpt><trkpt lat="42.085182" lon="13.6397317"><ele>1040.0</ele><time>2026-05-02T12:09:54.142Z</time></trkpt><trkpt lat="42.0852336" lon="13.6396218"><ele>1041.0</ele><time>2026-05-02T12:09:55.143Z</time></trkpt><trkpt lat="42.0853033" lon="13.6395085"><ele>1042.1666666666667</ele><time>2026-05-02T12:09:56.142Z</time></trkpt><trkpt lat="42.0853692" lon="13.639402"><ele>1043.3333333333333</ele><time>2026-05-02T12:09:57.139Z</time></trkpt><trkpt lat="42.0854091" lon="13.6392866"><ele>1044.5</ele><time>2026-05-02T12:09:58.147Z</time></trkpt><trkpt lat="42.0854268" lon="13.6391634"><ele>1045.6666666666665</ele><time>2026-05-02T12:09:59.142Z</time></trkpt><trkpt lat="42.0854209" lon="13.639066"><ele>1046.8333333333333</ele><time>2026-05-02T12:10:00.135Z</time></trkpt><trkpt lat="42.085396" lon="13.6389777"><ele>1048.0</ele><time>2026-05-02T12:10:01.142Z</time></trkpt><trkpt lat="42.0853566" lon="13.6388904"><ele>1048.0</ele><time>2026-05-02T12:10:02.14Z</time></trkpt><trkpt lat="42.0853145" lon="13.6387842"><ele>1048.0</ele><time>2026-05-02T12:10:03.141Z</time></trkpt><trkpt lat="42.0852735" lon="13.6386643"><ele>1048.0</ele><time>2026-05-02T12:10:04.137Z</time></trkpt><trkpt lat="42.0852405" lon="13.6385189"><ele>1048.0</ele><time>2026-05-02T12:10:05.143Z</time></trkpt><trkpt lat="42.0852107" lon="13.6383549"><ele>1048.0</ele><time>2026-05-02T12:10:06.144Z</time></trkpt><trkpt lat="42.0851842" lon="13.6381902"><ele>1050.25</ele><time>2026-05-02T12:10:07.149Z</time></trkpt><trkpt lat="42.0851516" lon="13.6380122"><ele>1052.5</ele><time>2026-05-02T12:10:08.146Z</time></trkpt><trkpt lat="42.0851185" lon="13.6378398"><ele>1054.75</ele><time>2026-05-02T12:10:09.144Z</time></trkpt><trkpt lat="42.0850889" lon="13.6376802"><ele>1057.0</ele><time>2026-05-02T12:10:10.143Z</time></trkpt><trkpt lat="42.0850663" lon="13.6375386"><ele>1058.2</ele><time>2026-05-02T12:10:11.142Z</time></trkpt><trkpt lat="42.0850583" lon="13.6374019"><ele>1059.4</ele><time>2026-05-02T12:10:12.142Z</time></trkpt><trkpt lat="42.0850605" lon="13.6372637"><ele>1060.6</ele><time>2026-05-02T12:10:13.144Z</time></trkpt><trkpt lat="42.0850596" lon="13.6371121"><ele>1061.8</ele><time>2026-05-02T12:10:14.144Z</time></trkpt><trkpt lat="42.085051" lon="13.6369519"><ele>1063.0</ele><time>2026-05-02T12:10:15.143Z</time></trkpt><trkpt lat="42.0850257" lon="13.6368021"><ele>1064.75</ele><time>2026-05-02T12:10:16.144Z</time></trkpt><trkpt lat="42.0849788" lon="13.6366534"><ele>1066.5</ele><time>2026-05-02T12:10:17.15Z</time></trkpt><trkpt lat="42.0849058" lon="13.6365197"><ele>1068.25</ele><time>2026-05-02T12:10:18.147Z</time></trkpt><trkpt lat="42.0848295" lon="13.6363985"><ele>1070.0</ele><time>2026-05-02T12:10:19.148Z</time></trkpt><trkpt lat="42.0847509" lon="13.6362706"><ele>1070.25</ele><time>2026-05-02T12:10:20.145Z</time></trkpt><trkpt lat="42.0846702" lon="13.6361385"><ele>1070.5</ele><time>2026-05-02T12:10:21.148Z</time></trkpt><trkpt lat="42.0845828" lon="13.6360096"><ele>1070.75</ele><time>2026-05-02T12:10:22.15Z</time></trkpt><trkpt lat="42.0844993" lon="13.635898"><ele>1071.0</ele><time>2026-05-02T12:10:23.151Z</time></trkpt><trkpt lat="42.0844152" lon="13.6357937"><ele>1072.3999999999999</ele><time>2026-05-02T12:10:24.149Z</time></trkpt><trkpt lat="42.0843365" lon="13.6357136"><ele>1073.8</ele><time>2026-05-02T12:10:25.151Z</time></trkpt><trkpt lat="42.0842634" lon="13.6356463"><ele>1075.1999999999998</ele><time>2026-05-02T12:10:26.15Z</time></trkpt><trkpt lat="42.0842002" lon="13.6355652"><ele>1076.6</ele><time>2026-05-02T12:10:27.148Z</time></trkpt><trkpt lat="42.0841587" lon="13.6354648"><ele>1078.0</ele><time>2026-05-02T12:10:28.149Z</time></trkpt><trkpt lat="42.0841376" lon="13.6353424"><ele>1079.2</ele><time>2026-05-02T12:10:29.149Z</time></trkpt><trkpt lat="42.0841342" lon="13.6352077"><ele>1080.4</ele><time>2026-05-02T12:10:30.148Z</time></trkpt><trkpt lat="42.0841327" lon="13.6350699"><ele>1081.6000000000001</ele><time>2026-05-02T12:10:31.145Z</time></trkpt><trkpt lat="42.0841148" lon="13.6349322"><ele>1082.8</ele><time>2026-05-02T12:10:32.145Z</time></trkpt><trkpt lat="42.084076" lon="13.6347848"><ele>1084.0</ele><time>2026-05-02T12:10:33.143Z</time></trkpt><trkpt lat="42.0840323" lon="13.6346255"><ele>1084.0</ele><time>2026-05-02T12:10:34.143Z</time></trkpt><trkpt lat="42.0839956" lon="13.6344733"><ele>1084.0</ele><time>2026-05-02T12:10:35.146Z</time></trkpt><trkpt lat="42.083971" lon="13.6343454"><ele>1084.0</ele><time>2026-05-02T12:10:36.144Z</time></trkpt><trkpt lat="42.0839634" lon="13.6342186"><ele>1084.0</ele><time>2026-05-02T12:10:37.144Z</time></trkpt><trkpt lat="42.0839745" lon="13.6341033"><ele>1084.0</ele><time>2026-05-02T12:10:38.142Z</time></trkpt><trkpt lat="42.0840072" lon="13.6339987"><ele>1084.4</ele><time>2026-05-02T12:10:39.14Z</time></trkpt><trkpt lat="42.0840663" lon="13.6339144"><ele>1084.8000000000002</ele><time>2026-05-02T12:10:40.141Z</time></trkpt><trkpt lat="42.0841432" lon="13.6338399"><ele>1085.1999999999998</ele><time>2026-05-02T12:10:41.134Z</time></trkpt><trkpt lat="42.0842283" lon="13.6337901"><ele>1085.6</ele><time>2026-05-02T12:10:42.142Z</time></trkpt><trkpt lat="42.0843257" lon="13.6337743"><ele>1086.0</ele><time>2026-05-02T12:10:43.14Z</time></trkpt><trkpt lat="42.084419" lon="13.6337444"><ele>1086.0</ele><time>2026-05-02T12:10:44.146Z</time></trkpt><trkpt lat="42.0845019" lon="13.6336866"><ele>1086.0</ele><time>2026-05-02T12:10:45.141Z</time></trkpt><trkpt lat="42.0845773" lon="13.6336078"><ele>1086.0</ele><time>2026-05-02T12:10:46.143Z</time></trkpt><trkpt lat="42.0846448" lon="13.6335117"><ele>1086.0</ele><time>2026-05-02T12:10:47.145Z</time></trkpt><trkpt lat="42.0847067" lon="13.6333844"><ele>1086.0</ele><time>2026-05-02T12:10:48.142Z</time></trkpt><trkpt lat="42.08477" lon="13.6332514"><ele>1085.75</ele><time>2026-05-02T12:10:49.142Z</time></trkpt><trkpt lat="42.0848459" lon="13.6331204"><ele>1085.5</ele><time>2026-05-02T12:10:50.141Z</time></trkpt><trkpt lat="42.0849373" lon="13.6330097"><ele>1085.25</ele><time>2026-05-02T12:10:51.137Z</time></trkpt><trkpt lat="42.0850428" lon="13.6329181"><ele>1085.0</ele><time>2026-05-02T12:10:52.147Z</time></trkpt><trkpt lat="42.0851351" lon="13.6328302"><ele>1087.6666666666667</ele><time>2026-05-02T12:10:53.142Z</time></trkpt><trkpt lat="42.0852043" lon="13.6327546"><ele>1090.3333333333335</ele><time>2026-05-02T12:10:54.146Z</time></trkpt><trkpt lat="42.0852469" lon="13.6326822"><ele>1093.0</ele><time>2026-05-02T12:10:55.145Z</time></trkpt><trkpt lat="42.085282" lon="13.6325928"><ele>1095.6666666666667</ele><time>2026-05-02T12:10:56.143Z</time></trkpt><trkpt lat="42.0853056" lon="13.6324827"><ele>1098.3333333333333</ele><time>2026-05-02T12:10:57.144Z</time></trkpt><trkpt lat="42.0853141" lon="13.6323571"><ele>1101.0</ele><time>2026-05-02T12:10:58.149Z</time></trkpt><trkpt lat="42.0853081" lon="13.6322156"><ele>1101.0</ele><time>2026-05-02T12:10:59.147Z</time></trkpt><trkpt lat="42.085293" lon="13.6320727"><ele>1101.0</ele><time>2026-05-02T12:11:00.147Z</time></trkpt><trkpt lat="42.0852825" lon="13.6319363"><ele>1101.0</ele><time>2026-05-02T12:11:01.149Z</time></trkpt><trkpt lat="42.0852855" lon="13.6318058"><ele>1101.0</ele><time>2026-05-02T12:11:02.146Z</time></trkpt><trkpt lat="42.085303" lon="13.6316727"><ele>1101.0</ele><time>2026-05-02T12:11:03.143Z</time></trkpt><trkpt lat="42.0853409" lon="13.6315405"><ele>1101.8</ele><time>2026-05-02T12:11:04.138Z</time></trkpt><trkpt lat="42.0853934" lon="13.6314132"><ele>1102.6</ele><time>2026-05-02T12:11:05.145Z</time></trkpt><trkpt lat="42.0854623" lon="13.631302"><ele>1103.4</ele><time>2026-05-02T12:11:06.142Z</time></trkpt><trkpt lat="42.0855331" lon="13.6312108"><ele>1104.2</ele><time>2026-05-02T12:11:07.15Z</time></trkpt><trkpt lat="42.0855827" lon="13.6311204"><ele>1105.0</ele><time>2026-05-02T12:11:08.15Z</time></trkpt><trkpt lat="42.0856096" lon="13.6310106"><ele>1106.0</ele><time>2026-05-02T12:11:09.143Z</time></trkpt><trkpt lat="42.0856091" lon="13.6308882"><ele>1107.0</ele><time>2026-05-02T12:11:10.146Z</time></trkpt><trkpt lat="42.0855884" lon="13.6307659"><ele>1108.0</ele><time>2026-05-02T12:11:11.146Z</time></trkpt><trkpt lat="42.0855618" lon="13.6306389"><ele>1109.0</ele><time>2026-05-02T12:11:12.148Z</time></trkpt><trkpt lat="42.0855395" lon="13.6304979"><ele>1110.0</ele><time>2026-05-02T12:11:13.145Z</time></trkpt><trkpt lat="42.0855316" lon="13.630348"><ele>1111.2</ele><time>2026-05-02T12:11:14.148Z</time></trkpt><trkpt lat="42.0855278" lon="13.6301972"><ele>1112.4</ele><time>2026-05-02T12:11:15.147Z</time></trkpt><trkpt lat="42.0855267" lon="13.6300553"><ele>1113.6</ele><time>2026-05-02T12:11:16.148Z</time></trkpt><trkpt lat="42.0855238" lon="13.6299167"><ele>1114.8</ele><time>2026-05-02T12:11:17.146Z</time></trkpt><trkpt lat="42.0855229" lon="13.6297784"><ele>1116.0</ele><time>2026-05-02T12:11:18.148Z</time></trkpt><trkpt lat="42.0855312" lon="13.6296286"><ele>1116.75</ele><time>2026-05-02T12:11:19.15Z</time></trkpt><trkpt lat="42.0855531" lon="13.6294749"><ele>1117.5</ele><time>2026-05-02T12:11:20.144Z</time></trkpt><trkpt lat="42.0855898" lon="13.629317"><ele>1118.25</ele><time>2026-05-02T12:11:21.149Z</time></trkpt><trkpt lat="42.0856315" lon="13.6291483"><ele>1119.0</ele><time>2026-05-02T12:11:22.145Z</time></trkpt><trkpt lat="42.0856745" lon="13.6289652"><ele>1119.0</ele><time>2026-05-02T12:11:23.149Z</time></trkpt><trkpt lat="42.085718" lon="13.6287693"><ele>1119.0</ele><time>2026-05-02T12:11:24.149Z</time></trkpt><trkpt lat="42.0857602" lon="13.6286132"><ele>1119.0</ele><time>2026-05-02T12:11:25.144Z</time></trkpt><trkpt lat="42.0857902" lon="13.6284501"><ele>1119.0</ele><time>2026-05-02T12:11:26.145Z</time></trkpt><trkpt lat="42.0858102" lon="13.6283052"><ele>1121.6000000000001</ele><time>2026-05-02T12:11:27.141Z</time></trkpt><trkpt lat="42.0858462" lon="13.6282232"><ele>1124.2</ele><time>2026-05-02T12:11:28.151Z</time></trkpt><trkpt lat="42.0859051" lon="13.6281503"><ele>1126.8000000000002</ele><time>2026-05-02T12:11:29.144Z</time></trkpt><trkpt lat="42.085974" lon="13.6280513"><ele>1129.4</ele><time>2026-05-02T12:11:30.145Z</time></trkpt><trkpt lat="42.0860344" lon="13.6279335"><ele>1132.0</ele><time>2026-05-02T12:11:31.151Z</time></trkpt><trkpt lat="42.086088" lon="13.6278049"><ele>1133.25</ele><time>2026-05-02T12:11:32.145Z</time></trkpt><trkpt lat="42.0861365" lon="13.6276666"><ele>1134.5</ele><time>2026-05-02T12:11:33.146Z</time></trkpt><trkpt lat="42.0861749" lon="13.6275041"><ele>1135.75</ele><time>2026-05-02T12:11:34.147Z</time></trkpt><trkpt lat="42.0862114" lon="13.627329"><ele>1137.0</ele><time>2026-05-02T12:11:35.149Z</time></trkpt><trkpt lat="42.0862613" lon="13.6271628"><ele>1137.0</ele><time>2026-05-02T12:11:36.145Z</time></trkpt><trkpt lat="42.0863153" lon="13.6270083"><ele>1137.0</ele><time>2026-05-02T12:11:37.15Z</time></trkpt><trkpt lat="42.0863703" lon="13.6268651"><ele>1137.0</ele><time>2026-05-02T12:11:38.144Z</time></trkpt><trkpt lat="42.0864246" lon="13.6267159"><ele>1137.0</ele><time>2026-05-02T12:11:39.151Z</time></trkpt><trkpt lat="42.0864741" lon="13.6265688"><ele>1137.75</ele><time>2026-05-02T12:11:40.145Z</time></trkpt><trkpt lat="42.0865003" lon="13.6263926"><ele>1138.5</ele><time>2026-05-02T12:11:41.145Z</time></trkpt><trkpt lat="42.0864861" lon="13.6262072"><ele>1139.25</ele><time>2026-05-02T12:11:42.145Z</time></trkpt><trkpt lat="42.0864758" lon="13.6260521"><ele>1140.0</ele><time>2026-05-02T12:11:43.145Z</time></trkpt><trkpt lat="42.0864494" lon="13.6258838"><ele>1141.6666666666667</ele><time>2026-05-02T12:11:44.146Z</time></trkpt><trkpt lat="42.0864134" lon="13.6256966"><ele>1143.3333333333335</ele><time>2026-05-02T12:11:45.146Z</time></trkpt><trkpt lat="42.0863755" lon="13.6255015"><ele>1145.0</ele><time>2026-05-02T12:11:46.146Z</time></trkpt><trkpt lat="42.0863429" lon="13.6252776"><ele>1147.5</ele><time>2026-05-02T12:11:47.146Z</time></trkpt><trkpt lat="42.0862923" lon="13.6250939"><ele>1150.0</ele><time>2026-05-02T12:11:48.147Z</time></trkpt><trkpt lat="42.0862599" lon="13.6249009"><ele>1152.5</ele><time>2026-05-02T12:11:49.151Z</time></trkpt><trkpt lat="42.0862133" lon="13.6247183"><ele>1155.0</ele><time>2026-05-02T12:11:50.149Z</time></trkpt><trkpt lat="42.0861741" lon="13.6245545"><ele>1156.0</ele><time>2026-05-02T12:11:51.145Z</time></trkpt><trkpt lat="42.0861505" lon="13.6243993"><ele>1157.0</ele><time>2026-05-02T12:11:52.149Z</time></trkpt><trkpt lat="42.0861306" lon="13.6242172"><ele>1158.0</ele><time>2026-05-02T12:11:53.148Z</time></trkpt><trkpt lat="42.0861372" lon="13.6240413"><ele>1159.0</ele><time>2026-05-02T12:11:54.149Z</time></trkpt><trkpt lat="42.0861442" lon="13.6238709"><ele>1159.0</ele><time>2026-05-02T12:11:55.146Z</time></trkpt><trkpt lat="42.0861422" lon="13.6237261"><ele>1159.0</ele><time>2026-05-02T12:11:56.143Z</time></trkpt><trkpt lat="42.0861212" lon="13.6236082"><ele>1159.0</ele><time>2026-05-02T12:11:57.139Z</time></trkpt><trkpt lat="42.0860743" lon="13.6234921"><ele>1159.0</ele><time>2026-05-02T12:11:58.146Z</time></trkpt><trkpt lat="42.0860137" lon="13.6233824"><ele>1159.0</ele><time>2026-05-02T12:11:59.152Z</time></trkpt><trkpt lat="42.0859539" lon="13.6232625"><ele>1160.6666666666665</ele><time>2026-05-02T12:12:00.147Z</time></trkpt><trkpt lat="42.0858939" lon="13.6231522"><ele>1162.3333333333333</ele><time>2026-05-02T12:12:01.149Z</time></trkpt><trkpt lat="42.0858469" lon="13.6230801"><ele>1164.0</ele><time>2026-05-02T12:12:02.145Z</time></trkpt><trkpt lat="42.0857449" lon="13.6230117"><ele>1165.6666666666667</ele><time>2026-05-02T12:12:04.142Z</time></trkpt><trkpt lat="42.0856788" lon="13.6230056"><ele>1167.3333333333335</ele><time>2026-05-02T12:12:05.151Z</time></trkpt><trkpt lat="42.0855973" lon="13.6230259"><ele>1169.0</ele><time>2026-05-02T12:12:06.141Z</time></trkpt><trkpt lat="42.0855124" lon="13.6230611"><ele>1169.6000000000001</ele><time>2026-05-02T12:12:07.156Z</time></trkpt><trkpt lat="42.0854235" lon="13.6231176"><ele>1170.2</ele><time>2026-05-02T12:12:08.147Z</time></trkpt><trkpt lat="42.0853292" lon="13.6231866"><ele>1170.8000000000002</ele><time>2026-05-02T12:12:09.144Z</time></trkpt><trkpt lat="42.0852305" lon="13.6232717"><ele>1171.4</ele><time>2026-05-02T12:12:10.146Z</time></trkpt><trkpt lat="42.0851231" lon="13.6233609"><ele>1172.0</ele><time>2026-05-02T12:12:11.144Z</time></trkpt><trkpt lat="42.0850116" lon="13.6234495"><ele>1171.25</ele><time>2026-05-02T12:12:12.147Z</time></trkpt><trkpt lat="42.0849081" lon="13.6235265"><ele>1170.5</ele><time>2026-05-02T12:12:13.148Z</time></trkpt><trkpt lat="42.0848087" lon="13.6235942"><ele>1169.75</ele><time>2026-05-02T12:12:14.147Z</time></trkpt><trkpt lat="42.0846997" lon="13.6236688"><ele>1169.0</ele><time>2026-05-02T12:12:15.147Z</time></trkpt><trkpt lat="42.0845879" lon="13.6237482"><ele>1169.0</ele><time>2026-05-02T12:12:16.148Z</time></trkpt><trkpt lat="42.0844802" lon="13.623818"><ele>1169.0</ele><time>2026-05-02T12:12:17.15Z</time></trkpt><trkpt lat="42.0843802" lon="13.6238838"><ele>1169.0</ele><time>2026-05-02T12:12:18.146Z</time></trkpt><trkpt lat="42.0842899" lon="13.6239449"><ele>1169.0</ele><time>2026-05-02T12:12:19.148Z</time></trkpt><trkpt lat="42.0842157" lon="13.6239988"><ele>1169.0</ele><time>2026-05-02T12:12:20.136Z</time></trkpt><trkpt lat="42.0841536" lon="13.6240411"><ele>1170.0</ele><time>2026-05-02T12:12:21.146Z</time></trkpt><trkpt lat="42.0840964" lon="13.6241091"><ele>1171.0</ele><time>2026-05-02T12:12:23.148Z</time></trkpt><trkpt lat="42.0840477" lon="13.6242064"><ele>1172.0</ele><time>2026-05-02T12:13:33.14Z</time></trkpt><trkpt lat="42.0839835" lon="13.6243981"><ele>1173.0</ele><time>2026-05-02T12:13:35.137Z</time></trkpt><trkpt lat="42.0839512" lon="13.6245284"><ele>1174.0</ele><time>2026-05-02T12:13:36.136Z</time></trkpt><trkpt lat="42.0839342" lon="13.6246542"><ele>1172.0</ele><time>2026-05-02T12:13:37.14Z</time></trkpt><trkpt lat="42.0839148" lon="13.6247837"><ele>1170.0</ele><time>2026-05-02T12:13:38.142Z</time></trkpt><trkpt lat="42.083893" lon="13.6249162"><ele>1168.0</ele><time>2026-05-02T12:13:39.145Z</time></trkpt><trkpt lat="42.0838687" lon="13.6250494"><ele>1166.0</ele><time>2026-05-02T12:13:40.149Z</time></trkpt><trkpt lat="42.08385" lon="13.6251866"><ele>1164.0</ele><time>2026-05-02T12:13:41.155Z</time></trkpt><trkpt lat="42.0838337" lon="13.6253222"><ele>1162.2</ele><time>2026-05-02T12:13:42.145Z</time></trkpt><trkpt lat="42.083818" lon="13.6254544"><ele>1160.4</ele><time>2026-05-02T12:13:43.153Z</time></trkpt><trkpt lat="42.0838068" lon="13.6255872"><ele>1158.6</ele><time>2026-05-02T12:13:44.145Z</time></trkpt><trkpt lat="42.0837908" lon="13.6257141"><ele>1156.8</ele><time>2026-05-02T12:13:45.151Z</time></trkpt><trkpt lat="42.0837738" lon="13.6258448"><ele>1155.0</ele><time>2026-05-02T12:13:46.148Z</time></trkpt><trkpt lat="42.0837594" lon="13.6259703"><ele>1155.0</ele><time>2026-05-02T12:13:47.147Z</time></trkpt><trkpt lat="42.0837426" lon="13.6260906"><ele>1155.0</ele><time>2026-05-02T12:13:48.146Z</time></trkpt><trkpt lat="42.0837256" lon="13.6262058"><ele>1155.0</ele><time>2026-05-02T12:13:49.149Z</time></trkpt><trkpt lat="42.0837068" lon="13.626324"><ele>1155.0</ele><time>2026-05-02T12:13:50.145Z</time></trkpt><trkpt lat="42.0836929" lon="13.6264474"><ele>1155.0</ele><time>2026-05-02T12:13:51.15Z</time></trkpt><trkpt lat="42.0836821" lon="13.626565"><ele>1155.0</ele><time>2026-05-02T12:13:52.145Z</time></trkpt><trkpt lat="42.0836676" lon="13.6266778"><ele>1153.1666666666667</ele><time>2026-05-02T12:13:53.159Z</time></trkpt><trkpt lat="42.0836554" lon="13.626786"><ele>1151.3333333333333</ele><time>2026-05-02T12:13:54.151Z</time></trkpt><trkpt lat="42.0836378" lon="13.6268812"><ele>1149.5</ele><time>2026-05-02T12:13:55.154Z</time></trkpt><trkpt lat="42.0836249" lon="13.6269646"><ele>1147.6666666666665</ele><time>2026-05-02T12:13:56.149Z</time></trkpt><trkpt lat="42.0835929" lon="13.6270827"><ele>1145.8333333333333</ele><time>2026-05-02T12:13:58.15Z</time></trkpt><trkpt lat="42.0835596" lon="13.6271939"><ele>1144.0</ele><time>2026-05-02T12:14:00.141Z</time></trkpt><trkpt lat="42.0835499" lon="13.6272799"><ele>1142.6666666666665</ele><time>2026-05-02T12:14:01.148Z</time></trkpt><trkpt lat="42.0835351" lon="13.6273706"><ele>1141.3333333333333</ele><time>2026-05-02T12:14:02.136Z</time></trkpt><trkpt lat="42.08351" lon="13.6274651"><ele>1140.0</ele><time>2026-05-02T12:14:03.147Z</time></trkpt><trkpt lat="42.0834667" lon="13.6275549"><ele>1138.6666666666667</ele><time>2026-05-02T12:14:04.144Z</time></trkpt><trkpt lat="42.0834152" lon="13.6276361"><ele>1137.3333333333335</ele><time>2026-05-02T12:14:05.145Z</time></trkpt><trkpt lat="42.0833484" lon="13.6276998"><ele>1136.0</ele><time>2026-05-02T12:14:06.14Z</time></trkpt><trkpt lat="42.083267" lon="13.6277618"><ele>1133.8</ele><time>2026-05-02T12:14:07.146Z</time></trkpt><trkpt lat="42.0831701" lon="13.627821"><ele>1131.6</ele><time>2026-05-02T12:14:08.144Z</time></trkpt><trkpt lat="42.0830711" lon="13.6278828"><ele>1129.4</ele><time>2026-05-02T12:14:09.142Z</time></trkpt><trkpt lat="42.0829749" lon="13.6279452"><ele>1127.2</ele><time>2026-05-02T12:14:10.143Z</time></trkpt><trkpt lat="42.082877" lon="13.6280088"><ele>1125.0</ele><time>2026-05-02T12:14:11.145Z</time></trkpt><trkpt lat="42.082779" lon="13.6280728"><ele>1125.0</ele><time>2026-05-02T12:14:12.146Z</time></trkpt><trkpt lat="42.0826815" lon="13.6281416"><ele>1125.0</ele><time>2026-05-02T12:14:13.144Z</time></trkpt><trkpt lat="42.0825896" lon="13.6282103"><ele>1125.0</ele><time>2026-05-02T12:14:14.15Z</time></trkpt><trkpt lat="42.0825011" lon="13.6282716"><ele>1125.0</ele><time>2026-05-02T12:14:15.147Z</time></trkpt><trkpt lat="42.0824223" lon="13.6283321"><ele>1125.0</ele><time>2026-05-02T12:14:16.143Z</time></trkpt><trkpt lat="42.0823474" lon="13.6283849"><ele>1123.8333333333333</ele><time>2026-05-02T12:14:17.148Z</time></trkpt><trkpt lat="42.0822733" lon="13.6284331"><ele>1122.6666666666667</ele><time>2026-05-02T12:14:18.148Z</time></trkpt><trkpt lat="42.0822025" lon="13.6284755"><ele>1121.5</ele><time>2026-05-02T12:14:19.154Z</time></trkpt><trkpt lat="42.0821322" lon="13.6285168"><ele>1120.3333333333335</ele><time>2026-05-02T12:14:20.142Z</time></trkpt><trkpt lat="42.0820591" lon="13.6285544"><ele>1119.1666666666667</ele><time>2026-05-02T12:14:21.152Z</time></trkpt><trkpt lat="42.0819867" lon="13.6285874"><ele>1118.0</ele><time>2026-05-02T12:14:22.143Z</time></trkpt><trkpt lat="42.0819126" lon="13.628605"><ele>1118.0</ele><time>2026-05-02T12:14:23.15Z</time></trkpt><trkpt lat="42.0818365" lon="13.6286106"><ele>1118.0</ele><time>2026-05-02T12:14:24.146Z</time></trkpt><trkpt lat="42.0817603" lon="13.6285972"><ele>1118.0</ele><time>2026-05-02T12:14:25.153Z</time></trkpt><trkpt lat="42.081681" lon="13.6285718"><ele>1118.0</ele><time>2026-05-02T12:14:26.147Z</time></trkpt><trkpt lat="42.0816052" lon="13.6285333"><ele>1118.0</ele><time>2026-05-02T12:14:27.151Z</time></trkpt><trkpt lat="42.0815282" lon="13.6284863"><ele>1118.0</ele><time>2026-05-02T12:14:28.146Z</time></trkpt><trkpt lat="42.0814541" lon="13.6284459"><ele>1115.3333333333335</ele><time>2026-05-02T12:14:29.143Z</time></trkpt><trkpt lat="42.0813856" lon="13.6284061"><ele>1112.6666666666667</ele><time>2026-05-02T12:14:30.149Z</time></trkpt><trkpt lat="42.081321" lon="13.6283652"><ele>1110.0</ele><time>2026-05-02T12:14:31.153Z</time></trkpt><trkpt lat="42.0812595" lon="13.6283196"><ele>1107.3333333333333</ele><time>2026-05-02T12:14:32.147Z</time></trkpt><trkpt lat="42.0811989" lon="13.6282665"><ele>1104.6666666666665</ele><time>2026-05-02T12:14:33.147Z</time></trkpt><trkpt lat="42.0811342" lon="13.6282011"><ele>1102.0</ele><time>2026-05-02T12:14:34.144Z</time></trkpt><trkpt lat="42.081069" lon="13.6281202"><ele>1102.0</ele><time>2026-05-02T12:14:35.152Z</time></trkpt><trkpt lat="42.0810064" lon="13.628038"><ele>1102.0</ele><time>2026-05-02T12:14:36.146Z</time></trkpt><trkpt lat="42.0809524" lon="13.6279597"><ele>1102.0</ele><time>2026-05-02T12:14:37.15Z</time></trkpt><trkpt lat="42.0809085" lon="13.6278932"><ele>1102.0</ele><time>2026-05-02T12:14:38.145Z</time></trkpt><trkpt lat="42.0808287" lon="13.6277884"><ele>1102.0</ele><time>2026-05-02T12:14:40.146Z</time></trkpt><trkpt lat="42.0807793" lon="13.6277254"><ele>1102.0</ele><time>2026-05-02T12:14:41.143Z</time></trkpt><trkpt lat="42.0807242" lon="13.6276438"><ele>1100.0</ele><time>2026-05-02T12:14:42.142Z</time></trkpt><trkpt lat="42.0806655" lon="13.6275453"><ele>1098.0</ele><time>2026-05-02T12:14:43.144Z</time></trkpt><trkpt lat="42.0805979" lon="13.6274425"><ele>1096.0</ele><time>2026-05-02T12:14:44.148Z</time></trkpt><trkpt lat="42.080537" lon="13.6273458"><ele>1094.0</ele><time>2026-05-02T12:14:45.148Z</time></trkpt><trkpt lat="42.0804848" lon="13.627251"><ele>1092.0</ele><time>2026-05-02T12:14:46.152Z</time></trkpt><trkpt lat="42.0804295" lon="13.6271511"><ele>1092.0</ele><time>2026-05-02T12:14:47.145Z</time></trkpt><trkpt lat="42.0803799" lon="13.6270407"><ele>1092.0</ele><time>2026-05-02T12:14:48.144Z</time></trkpt><trkpt lat="42.0803451" lon="13.626913"><ele>1092.0</ele><time>2026-05-02T12:14:49.15Z</time></trkpt><trkpt lat="42.0803258" lon="13.6267734"><ele>1092.0</ele><time>2026-05-02T12:14:50.145Z</time></trkpt><trkpt lat="42.0803211" lon="13.626634"><ele>1092.0</ele><time>2026-05-02T12:14:51.145Z</time></trkpt><trkpt lat="42.0803352" lon="13.6265064"><ele>1092.4</ele><time>2026-05-02T12:14:52.148Z</time></trkpt><trkpt lat="42.0803622" lon="13.6263712"><ele>1092.8000000000002</ele><time>2026-05-02T12:14:53.148Z</time></trkpt><trkpt lat="42.0804003" lon="13.6262272"><ele>1093.2</ele><time>2026-05-02T12:14:54.145Z</time></trkpt><trkpt lat="42.0804404" lon="13.6260901"><ele>1093.6000000000001</ele><time>2026-05-02T12:14:55.146Z</time></trkpt><trkpt lat="42.0804667" lon="13.6259593"><ele>1094.0</ele><time>2026-05-02T12:14:56.141Z</time></trkpt><trkpt lat="42.0804645" lon="13.6258327"><ele>1094.4</ele><time>2026-05-02T12:14:57.143Z</time></trkpt><trkpt lat="42.0804443" lon="13.6257108"><ele>1094.8000000000002</ele><time>2026-05-02T12:14:58.152Z</time></trkpt><trkpt lat="42.0804139" lon="13.6255798"><ele>1095.1999999999998</ele><time>2026-05-02T12:14:59.145Z</time></trkpt><trkpt lat="42.08039" lon="13.6254339"><ele>1095.6</ele><time>2026-05-02T12:15:00.147Z</time></trkpt><trkpt lat="42.0803739" lon="13.6252684"><ele>1096.0</ele><time>2026-05-02T12:15:01.15Z</time></trkpt><trkpt lat="42.0803646" lon="13.6250962"><ele>1096.75</ele><time>2026-05-02T12:15:02.147Z</time></trkpt><trkpt lat="42.0803658" lon="13.6249246"><ele>1097.5</ele><time>2026-05-02T12:15:03.149Z</time></trkpt><trkpt lat="42.0803681" lon="13.6247694"><ele>1098.25</ele><time>2026-05-02T12:15:04.146Z</time></trkpt><trkpt lat="42.0803734" lon="13.6246197"><ele>1099.0</ele><time>2026-05-02T12:15:05.149Z</time></trkpt><trkpt lat="42.0803861" lon="13.6244721"><ele>1099.0</ele><time>2026-05-02T12:15:06.146Z</time></trkpt><trkpt lat="42.0804199" lon="13.6243259"><ele>1099.0</ele><time>2026-05-02T12:15:07.148Z</time></trkpt><trkpt lat="42.0804635" lon="13.6241884"><ele>1099.0</ele><time>2026-05-02T12:15:08.143Z</time></trkpt><trkpt lat="42.0804898" lon="13.6240506"><ele>1099.0</ele><time>2026-05-02T12:15:09.138Z</time></trkpt><trkpt lat="42.0804929" lon="13.6239026"><ele>1099.0</ele><time>2026-05-02T12:15:10.142Z</time></trkpt><trkpt lat="42.0804769" lon="13.623743"><ele>1100.0</ele><time>2026-05-02T12:15:11.148Z</time></trkpt><trkpt lat="42.0804563" lon="13.6235881"><ele>1101.0</ele><time>2026-05-02T12:15:12.146Z</time></trkpt><trkpt lat="42.0804403" lon="13.6234409"><ele>1102.0</ele><time>2026-05-02T12:15:13.151Z</time></trkpt><trkpt lat="42.0804264" lon="13.6232928"><ele>1103.0</ele><time>2026-05-02T12:15:14.148Z</time></trkpt><trkpt lat="42.0804259" lon="13.6231382"><ele>1103.0</ele><time>2026-05-02T12:15:15.147Z</time></trkpt><trkpt lat="42.0804325" lon="13.6229876"><ele>1103.0</ele><time>2026-05-02T12:15:16.147Z</time></trkpt><trkpt lat="42.0804517" lon="13.6228632"><ele>1103.0</ele><time>2026-05-02T12:15:17.149Z</time></trkpt><trkpt lat="42.0804665" lon="13.6227503"><ele>1103.0</ele><time>2026-05-02T12:15:18.145Z</time></trkpt><trkpt lat="42.0804755" lon="13.6226242"><ele>1103.0</ele><time>2026-05-02T12:15:19.146Z</time></trkpt><trkpt lat="42.0804867" lon="13.6225023"><ele>1102.6666666666667</ele><time>2026-05-02T12:15:20.148Z</time></trkpt><trkpt lat="42.0805008" lon="13.6223982"><ele>1102.3333333333335</ele><time>2026-05-02T12:15:21.15Z</time></trkpt><trkpt lat="42.080516" lon="13.6223105"><ele>1102.0</ele><time>2026-05-02T12:15:22.143Z</time></trkpt><trkpt lat="42.0805448" lon="13.6222237"><ele>1101.6666666666667</ele><time>2026-05-02T12:15:23.148Z</time></trkpt><trkpt lat="42.0805864" lon="13.6221306"><ele>1101.3333333333333</ele><time>2026-05-02T12:15:24.146Z</time></trkpt><trkpt lat="42.0806326" lon="13.6220308"><ele>1101.0</ele><time>2026-05-02T12:15:25.146Z</time></trkpt><trkpt lat="42.0806879" lon="13.6219299"><ele>1100.0</ele><time>2026-05-02T12:15:26.151Z</time></trkpt><trkpt lat="42.080757" lon="13.6218383"><ele>1099.0</ele><time>2026-05-02T12:15:27.142Z</time></trkpt><trkpt lat="42.080831" lon="13.6217624"><ele>1098.0</ele><time>2026-05-02T12:15:28.15Z</time></trkpt><trkpt lat="42.0809027" lon="13.6216919"><ele>1097.0</ele><time>2026-05-02T12:15:29.143Z</time></trkpt><trkpt lat="42.0809607" lon="13.6216033"><ele>1096.0</ele><time>2026-05-02T12:15:30.146Z</time></trkpt><trkpt lat="42.0810058" lon="13.6215085"><ele>1098.6</ele><time>2026-05-02T12:15:31.147Z</time></trkpt><trkpt lat="42.0810368" lon="13.621407"><ele>1101.1999999999998</ele><time>2026-05-02T12:15:32.148Z</time></trkpt><trkpt lat="42.0810729" lon="13.6212931"><ele>1103.8000000000002</ele><time>2026-05-02T12:15:33.146Z</time></trkpt><trkpt lat="42.0811244" lon="13.6211731"><ele>1106.4</ele><time>2026-05-02T12:15:34.146Z</time></trkpt><trkpt lat="42.0811864" lon="13.6210411"><ele>1109.0</ele><time>2026-05-02T12:15:35.146Z</time></trkpt><trkpt lat="42.0812445" lon="13.6209062"><ele>1109.0</ele><time>2026-05-02T12:15:36.147Z</time></trkpt><trkpt lat="42.0812839" lon="13.6207737"><ele>1109.0</ele><time>2026-05-02T12:15:37.145Z</time></trkpt><trkpt lat="42.0813186" lon="13.6206296"><ele>1109.0</ele><time>2026-05-02T12:15:38.144Z</time></trkpt><trkpt lat="42.0813468" lon="13.6204902"><ele>1109.0</ele><time>2026-05-02T12:15:39.147Z</time></trkpt><trkpt lat="42.0813749" lon="13.6203524"><ele>1109.0</ele><time>2026-05-02T12:15:40.145Z</time></trkpt><trkpt lat="42.0814065" lon="13.6202362"><ele>1107.8333333333335</ele><time>2026-05-02T12:15:41.147Z</time></trkpt><trkpt lat="42.0814373" lon="13.6201338"><ele>1106.6666666666667</ele><time>2026-05-02T12:15:42.148Z</time></trkpt><trkpt lat="42.0814688" lon="13.6200362"><ele>1105.5</ele><time>2026-05-02T12:15:43.142Z</time></trkpt><trkpt lat="42.081499" lon="13.619931"><ele>1104.3333333333333</ele><time>2026-05-02T12:15:44.146Z</time></trkpt><trkpt lat="42.0815217" lon="13.6198161"><ele>1103.1666666666665</ele><time>2026-05-02T12:15:45.146Z</time></trkpt><trkpt lat="42.081545" lon="13.6196983"><ele>1102.0</ele><time>2026-05-02T12:15:46.152Z</time></trkpt><trkpt lat="42.0815703" lon="13.6195838"><ele>1103.4</ele><time>2026-05-02T12:15:47.147Z</time></trkpt><trkpt lat="42.0815939" lon="13.6194692"><ele>1104.8000000000002</ele><time>2026-05-02T12:15:48.153Z</time></trkpt><trkpt lat="42.081624" lon="13.6193567"><ele>1106.2</ele><time>2026-05-02T12:15:49.154Z</time></trkpt><trkpt lat="42.081656" lon="13.6192493"><ele>1107.6000000000001</ele><time>2026-05-02T12:15:50.144Z</time></trkpt><trkpt lat="42.0816875" lon="13.6191284"><ele>1109.0</ele><time>2026-05-02T12:15:51.15Z</time></trkpt><trkpt lat="42.0817174" lon="13.6190053"><ele>1109.0</ele><time>2026-05-02T12:15:52.152Z</time></trkpt><trkpt lat="42.0817539" lon="13.6188823"><ele>1109.0</ele><time>2026-05-02T12:15:53.145Z</time></trkpt><trkpt lat="42.0817954" lon="13.618766"><ele>1109.0</ele><time>2026-05-02T12:15:54.149Z</time></trkpt><trkpt lat="42.0818301" lon="13.6186596"><ele>1109.0</ele><time>2026-05-02T12:15:55.147Z</time></trkpt><trkpt lat="42.0818583" lon="13.6185528"><ele>1109.0</ele><time>2026-05-02T12:15:56.151Z</time></trkpt><trkpt lat="42.0818961" lon="13.6184454"><ele>1106.8</ele><time>2026-05-02T12:15:57.149Z</time></trkpt><trkpt lat="42.0819336" lon="13.6183305"><ele>1104.6000000000001</ele><time>2026-05-02T12:15:58.148Z</time></trkpt><trkpt lat="42.0819737" lon="13.6182033"><ele>1102.4</ele><time>2026-05-02T12:15:59.15Z</time></trkpt><trkpt lat="42.0820129" lon="13.6180595"><ele>1100.2</ele><time>2026-05-02T12:16:00.15Z</time></trkpt><trkpt lat="42.0820533" lon="13.6179232"><ele>1098.0</ele><time>2026-05-02T12:16:01.149Z</time></trkpt><trkpt lat="42.0820939" lon="13.6177832"><ele>1095.8</ele><time>2026-05-02T12:16:02.147Z</time></trkpt><trkpt lat="42.0821321" lon="13.617646"><ele>1093.6</ele><time>2026-05-02T12:16:03.146Z</time></trkpt><trkpt lat="42.0821597" lon="13.6175103"><ele>1091.4</ele><time>2026-05-02T12:16:04.149Z</time></trkpt><trkpt lat="42.0821811" lon="13.6173734"><ele>1089.2</ele><time>2026-05-02T12:16:05.152Z</time></trkpt><trkpt lat="42.0822037" lon="13.6172472"><ele>1087.0</ele><time>2026-05-02T12:16:06.15Z</time></trkpt><trkpt lat="42.0822256" lon="13.6171251"><ele>1087.0</ele><time>2026-05-02T12:16:07.151Z</time></trkpt><trkpt lat="42.0822479" lon="13.6170025"><ele>1087.0</ele><time>2026-05-02T12:16:08.149Z</time></trkpt><trkpt lat="42.0822735" lon="13.6168799"><ele>1087.0</ele><time>2026-05-02T12:16:09.15Z</time></trkpt><trkpt lat="42.0823006" lon="13.6167616"><ele>1087.0</ele><time>2026-05-02T12:16:10.15Z</time></trkpt><trkpt lat="42.0823082" lon="13.6166492"><ele>1087.0</ele><time>2026-05-02T12:16:11.152Z</time></trkpt><trkpt lat="42.0822966" lon="13.6165423"><ele>1087.0</ele><time>2026-05-02T12:16:12.154Z</time></trkpt><trkpt lat="42.0822849" lon="13.6164259"><ele>1085.8333333333333</ele><time>2026-05-02T12:16:13.154Z</time></trkpt><trkpt lat="42.0822739" lon="13.616306"><ele>1084.6666666666665</ele><time>2026-05-02T12:16:14.153Z</time></trkpt><trkpt lat="42.0822651" lon="13.6161869"><ele>1083.5</ele><time>2026-05-02T12:16:15.153Z</time></trkpt><trkpt lat="42.0822621" lon="13.6160671"><ele>1082.3333333333333</ele><time>2026-05-02T12:16:16.159Z</time></trkpt><trkpt lat="42.0822611" lon="13.6159452"><ele>1081.1666666666667</ele><time>2026-05-02T12:16:17.162Z</time></trkpt><trkpt lat="42.0822618" lon="13.6158228"><ele>1080.0</ele><time>2026-05-02T12:16:18.157Z</time></trkpt><trkpt lat="42.0822619" lon="13.6156911"><ele>1078.4</ele><time>2026-05-02T12:16:19.161Z</time></trkpt><trkpt lat="42.0822651" lon="13.6155657"><ele>1076.8</ele><time>2026-05-02T12:16:20.157Z</time></trkpt><trkpt lat="42.0822643" lon="13.6154429"><ele>1075.2</ele><time>2026-05-02T12:16:21.157Z</time></trkpt><trkpt lat="42.0822556" lon="13.6153088"><ele>1073.6</ele><time>2026-05-02T12:16:22.159Z</time></trkpt><trkpt lat="42.082249" lon="13.6151766"><ele>1072.0</ele><time>2026-05-02T12:16:23.158Z</time></trkpt><trkpt lat="42.0822424" lon="13.6150434"><ele>1070.8</ele><time>2026-05-02T12:16:24.156Z</time></trkpt><trkpt lat="42.0822343" lon="13.6149166"><ele>1069.6</ele><time>2026-05-02T12:16:25.159Z</time></trkpt><trkpt lat="42.0822286" lon="13.61479"><ele>1068.3999999999999</ele><time>2026-05-02T12:16:26.156Z</time></trkpt><trkpt lat="42.0822244" lon="13.6146688"><ele>1067.2</ele><time>2026-05-02T12:16:27.148Z</time></trkpt><trkpt lat="42.0822229" lon="13.6145453"><ele>1066.0</ele><time>2026-05-02T12:16:28.161Z</time></trkpt><trkpt lat="42.0822189" lon="13.6144209"><ele>1064.6</ele><time>2026-05-02T12:16:29.153Z</time></trkpt><trkpt lat="42.0822117" lon="13.6142994"><ele>1063.1999999999998</ele><time>2026-05-02T12:16:30.155Z</time></trkpt><trkpt lat="42.0822027" lon="13.6141762"><ele>1061.8000000000002</ele><time>2026-05-02T12:16:31.156Z</time></trkpt><trkpt lat="42.0821977" lon="13.6140468"><ele>1060.4</ele><time>2026-05-02T12:16:32.153Z</time></trkpt><trkpt lat="42.082195" lon="13.6139173"><ele>1059.0</ele><time>2026-05-02T12:16:33.155Z</time></trkpt><trkpt lat="42.082189" lon="13.61379"><ele>1059.0</ele><time>2026-05-02T12:16:34.152Z</time></trkpt><trkpt lat="42.0821829" lon="13.61367"><ele>1059.0</ele><time>2026-05-02T12:16:35.162Z</time></trkpt><trkpt lat="42.0821706" lon="13.613541"><ele>1059.0</ele><time>2026-05-02T12:16:36.151Z</time></trkpt><trkpt lat="42.0821575" lon="13.6134109"><ele>1059.0</ele><time>2026-05-02T12:16:37.158Z</time></trkpt><trkpt lat="42.0821489" lon="13.6132758"><ele>1059.0</ele><time>2026-05-02T12:16:38.16Z</time></trkpt><trkpt lat="42.0821424" lon="13.6131359"><ele>1058.0</ele><time>2026-05-02T12:16:39.159Z</time></trkpt><trkpt lat="42.0821368" lon="13.6129962"><ele>1057.0</ele><time>2026-05-02T12:16:40.157Z</time></trkpt><trkpt lat="42.0821268" lon="13.6128526"><ele>1056.0</ele><time>2026-05-02T12:16:41.158Z</time></trkpt><trkpt lat="42.082125" lon="13.612715"><ele>1055.0</ele><time>2026-05-02T12:16:42.158Z</time></trkpt><trkpt lat="42.082123" lon="13.612584"><ele>1054.0</ele><time>2026-05-02T12:16:43.158Z</time></trkpt><trkpt lat="42.0821186" lon="13.6124542"><ele>1053.1666666666665</ele><time>2026-05-02T12:16:44.159Z</time></trkpt><trkpt lat="42.082109" lon="13.6123369"><ele>1052.3333333333333</ele><time>2026-05-02T12:16:45.158Z</time></trkpt><trkpt lat="42.0821021" lon="13.6122208"><ele>1051.5</ele><time>2026-05-02T12:16:46.159Z</time></trkpt><trkpt lat="42.0820898" lon="13.6121022"><ele>1050.6666666666667</ele><time>2026-05-02T12:16:47.157Z</time></trkpt><trkpt lat="42.082082" lon="13.6119772"><ele>1049.8333333333335</ele><time>2026-05-02T12:16:48.159Z</time></trkpt><trkpt lat="42.0820761" lon="13.6118524"><ele>1049.0</ele><time>2026-05-02T12:16:49.159Z</time></trkpt><trkpt lat="42.08207" lon="13.611735"><ele>1048.0</ele><time>2026-05-02T12:16:50.16Z</time></trkpt><trkpt lat="42.0820681" lon="13.6116183"><ele>1047.0</ele><time>2026-05-02T12:16:51.153Z</time></trkpt><trkpt lat="42.0820683" lon="13.6115202"><ele>1046.0</ele><time>2026-05-02T12:16:52.158Z</time></trkpt><trkpt lat="42.082064" lon="13.6114254"><ele>1045.0</ele><time>2026-05-02T12:16:53.156Z</time></trkpt><trkpt lat="42.0820591" lon="13.6113255"><ele>1044.0</ele><time>2026-05-02T12:16:54.156Z</time></trkpt><trkpt lat="42.0820589" lon="13.6112276"><ele>1043.0</ele><time>2026-05-02T12:16:55.151Z</time></trkpt><trkpt lat="42.0820579" lon="13.611134"><ele>1042.0</ele><time>2026-05-02T12:16:56.151Z</time></trkpt><trkpt lat="42.0820636" lon="13.6110384"><ele>1040.1666666666665</ele><time>2026-05-02T12:16:57.152Z</time></trkpt><trkpt lat="42.0820672" lon="13.6109393"><ele>1038.3333333333333</ele><time>2026-05-02T12:16:58.154Z</time></trkpt><trkpt lat="42.0820804" lon="13.6108435"><ele>1036.5</ele><time>2026-05-02T12:16:59.15Z</time></trkpt><trkpt lat="42.0820969" lon="13.6107549"><ele>1034.6666666666667</ele><time>2026-05-02T12:17:00.149Z</time></trkpt><trkpt lat="42.0821281" lon="13.6106772"><ele>1032.8333333333335</ele><time>2026-05-02T12:17:01.149Z</time></trkpt><trkpt lat="42.0821951" lon="13.6105828"><ele>1031.0</ele><time>2026-05-02T12:17:03.15Z</time></trkpt><trkpt lat="42.0822767" lon="13.6105004"><ele>1031.0</ele><time>2026-05-02T12:17:05.148Z</time></trkpt><trkpt lat="42.0823853" lon="13.6104743"><ele>1031.0</ele><time>2026-05-02T12:17:07.141Z</time></trkpt><trkpt lat="42.0824537" lon="13.6104694"><ele>1031.0</ele><time>2026-05-02T12:17:08.144Z</time></trkpt><trkpt lat="42.0825222" lon="13.6104724"><ele>1031.0</ele><time>2026-05-02T12:17:09.144Z</time></trkpt><trkpt lat="42.0826416" lon="13.6104749"><ele>1031.0</ele><time>2026-05-02T12:17:11.147Z</time></trkpt><trkpt lat="42.0827466" lon="13.610442"><ele>1031.6666666666667</ele><time>2026-05-02T12:17:13.152Z</time></trkpt><trkpt lat="42.0828313" lon="13.610379"><ele>1032.3333333333335</ele><time>2026-05-02T12:17:15.144Z</time></trkpt><trkpt lat="42.0828725" lon="13.6103045"><ele>1033.0</ele><time>2026-05-02T12:17:17.147Z</time></trkpt><trkpt lat="42.0829097" lon="13.6102358"><ele>1033.6666666666667</ele><time>2026-05-02T12:17:29.149Z</time></trkpt><trkpt lat="42.0828492" lon="13.6101985"><ele>1034.3333333333333</ele><time>2026-05-02T12:17:33.15Z</time></trkpt><trkpt lat="42.0827426" lon="13.6101227"><ele>1035.0</ele><time>2026-05-02T12:17:35.147Z</time></trkpt><trkpt lat="42.0826805" lon="13.6100887"><ele>1035.0</ele><time>2026-05-02T12:17:36.146Z</time></trkpt><trkpt lat="42.0826087" lon="13.6100707"><ele>1035.0</ele><time>2026-05-02T12:17:37.15Z</time></trkpt><trkpt lat="42.0825361" lon="13.6100648"><ele>1035.0</ele><time>2026-05-02T12:17:38.147Z</time></trkpt><trkpt lat="42.0824597" lon="13.6100398"><ele>1035.0</ele><time>2026-05-02T12:17:39.147Z</time></trkpt><trkpt lat="42.0823703" lon="13.6100168"><ele>1035.0</ele><time>2026-05-02T12:17:40.149Z</time></trkpt><trkpt lat="42.0822768" lon="13.6100031"><ele>1035.0</ele><time>2026-05-02T12:17:41.145Z</time></trkpt><trkpt lat="42.0821843" lon="13.6099863"><ele>1033.0</ele><time>2026-05-02T12:17:42.148Z</time></trkpt><trkpt lat="42.0820966" lon="13.6099769"><ele>1031.0</ele><time>2026-05-02T12:17:43.146Z</time></trkpt><trkpt lat="42.082017" lon="13.6099727"><ele>1029.0</ele><time>2026-05-02T12:17:44.15Z</time></trkpt><trkpt lat="42.0819453" lon="13.6099791"><ele>1027.0</ele><time>2026-05-02T12:17:45.15Z</time></trkpt><trkpt lat="42.0818788" lon="13.609993"><ele>1025.0</ele><time>2026-05-02T12:17:46.15Z</time></trkpt><trkpt lat="42.0818131" lon="13.6100027"><ele>1023.0</ele><time>2026-05-02T12:17:47.149Z</time></trkpt><trkpt lat="42.0817481" lon="13.6099991"><ele>1021.0</ele><time>2026-05-02T12:17:48.146Z</time></trkpt><trkpt lat="42.0816317" lon="13.6099953"><ele>1018.5999999999999</ele><time>2026-05-02T12:17:50.147Z</time></trkpt><trkpt lat="42.0815329" lon="13.6100097"><ele>1016.1999999999999</ele><time>2026-05-02T12:17:52.142Z</time></trkpt><trkpt lat="42.0814309" lon="13.6100478"><ele>1013.8000000000001</ele><time>2026-05-02T12:17:54.143Z</time></trkpt><trkpt lat="42.0813244" lon="13.6101233"><ele>1011.4000000000001</ele><time>2026-05-02T12:17:56.143Z</time></trkpt><trkpt lat="42.0812241" lon="13.6102184"><ele>1009.0</ele><time>2026-05-02T12:17:58.143Z</time></trkpt><trkpt lat="42.0811279" lon="13.6102716"><ele>1009.0</ele><time>2026-05-02T12:18:00.139Z</time></trkpt><trkpt lat="42.0810456" lon="13.6102604"><ele>1009.0000000000001</ele><time>2026-05-02T12:18:02.145Z</time></trkpt><trkpt lat="42.0809564" lon="13.610213"><ele>1009.0000000000001</ele><time>2026-05-02T12:18:04.143Z</time></trkpt><trkpt lat="42.0808571" lon="13.6101819"><ele>1009.0</ele><time>2026-05-02T12:18:06.141Z</time></trkpt><trkpt lat="42.0807476" lon="13.6101839"><ele>1009.0</ele><time>2026-05-02T12:18:08.142Z</time></trkpt><trkpt lat="42.0806842" lon="13.6101958"><ele>1007.1666666666666</ele><time>2026-05-02T12:18:09.139Z</time></trkpt><trkpt lat="42.080559" lon="13.6102245"><ele>1005.3333333333333</ele><time>2026-05-02T12:18:11.14Z</time></trkpt><trkpt lat="42.080493" lon="13.6102417"><ele>1003.5</ele><time>2026-05-02T12:18:12.137Z</time></trkpt><trkpt lat="42.0804222" lon="13.6102632"><ele>1001.6666666666667</ele><time>2026-05-02T12:18:13.146Z</time></trkpt><trkpt lat="42.0803494" lon="13.6102801"><ele>999.8333333333334</ele><time>2026-05-02T12:18:14.14Z</time></trkpt><trkpt lat="42.0802852" lon="13.6102888"><ele>998.0</ele><time>2026-05-02T12:18:15.14Z</time></trkpt><trkpt lat="42.080162" lon="13.6103025"><ele>998.0000000000001</ele><time>2026-05-02T12:18:17.142Z</time></trkpt><trkpt lat="42.080048" lon="13.6102901"><ele>998.0</ele><time>2026-05-02T12:18:19.146Z</time></trkpt><trkpt lat="42.0799824" lon="13.6103026"><ele>998.0</ele><time>2026-05-02T12:18:20.139Z</time></trkpt><trkpt lat="42.079916" lon="13.6103176"><ele>998.0</ele><time>2026-05-02T12:18:21.151Z</time></trkpt><trkpt lat="42.0798468" lon="13.6103372"><ele>998.0000000000001</ele><time>2026-05-02T12:18:22.147Z</time></trkpt><trkpt lat="42.0797788" lon="13.6103577"><ele>998.0</ele><time>2026-05-02T12:18:23.153Z</time></trkpt><trkpt lat="42.0797113" lon="13.6103795"><ele>996.0000000000001</ele><time>2026-05-02T12:18:24.144Z</time></trkpt><trkpt lat="42.0796476" lon="13.6103963"><ele>994.0</ele><time>2026-05-02T12:18:25.155Z</time></trkpt><trkpt lat="42.0795298" lon="13.6104031"><ele>992.0</ele><time>2026-05-02T12:18:27.145Z</time></trkpt><trkpt lat="42.07942" lon="13.6103546"><ele>990.0</ele><time>2026-05-02T12:18:29.144Z</time></trkpt><trkpt lat="42.0793586" lon="13.6103131"><ele>988.0000000000001</ele><time>2026-05-02T12:18:30.149Z</time></trkpt><trkpt lat="42.0792849" lon="13.6102934"><ele>986.0</ele><time>2026-05-02T12:18:31.15Z</time></trkpt><trkpt lat="42.0792051" lon="13.6102711"><ele>985.4</ele><time>2026-05-02T12:18:32.15Z</time></trkpt><trkpt lat="42.0791283" lon="13.6102426"><ele>984.8</ele><time>2026-05-02T12:18:33.148Z</time></trkpt><trkpt lat="42.0790605" lon="13.6102224"><ele>984.1999999999999</ele><time>2026-05-02T12:18:34.145Z</time></trkpt><trkpt lat="42.0789467" lon="13.6102093"><ele>983.5999999999999</ele><time>2026-05-02T12:18:36.15Z</time></trkpt><trkpt lat="42.0788093" lon="13.6102262"><ele>983.0</ele><time>2026-05-02T12:18:38.146Z</time></trkpt><trkpt lat="42.0787259" lon="13.6102381"><ele>981.0000000000001</ele><time>2026-05-02T12:18:39.144Z</time></trkpt><trkpt lat="42.0786435" lon="13.6102394"><ele>979.0</ele><time>2026-05-02T12:18:40.14Z</time></trkpt><trkpt lat="42.0785562" lon="13.6102242"><ele>977.0</ele><time>2026-05-02T12:18:41.147Z</time></trkpt><trkpt lat="42.0784711" lon="13.6102054"><ele>975.0</ele><time>2026-05-02T12:18:42.14Z</time></trkpt><trkpt lat="42.078385" lon="13.6101953"><ele>973.0000000000001</ele><time>2026-05-02T12:18:43.144Z</time></trkpt><trkpt lat="42.0783" lon="13.6101856"><ele>971.0</ele><time>2026-05-02T12:18:44.141Z</time></trkpt><trkpt lat="42.0782278" lon="13.6101935"><ele>968.8</ele><time>2026-05-02T12:18:45.146Z</time></trkpt><trkpt lat="42.0781131" lon="13.6102372"><ele>966.5999999999999</ele><time>2026-05-02T12:18:47.147Z</time></trkpt><trkpt lat="42.0779917" lon="13.610288"><ele>964.4</ele><time>2026-05-02T12:18:49.15Z</time></trkpt><trkpt lat="42.0779209" lon="13.6102957"><ele>962.2</ele><time>2026-05-02T12:18:50.151Z</time></trkpt><trkpt lat="42.0778445" lon="13.6102899"><ele>960.0</ele><time>2026-05-02T12:18:51.145Z</time></trkpt><trkpt lat="42.0777715" lon="13.6102847"><ele>960.0</ele><time>2026-05-02T12:18:52.149Z</time></trkpt><trkpt lat="42.0777048" lon="13.6102826"><ele>960.0</ele><time>2026-05-02T12:18:53.147Z</time></trkpt><trkpt lat="42.0776376" lon="13.6102937"><ele>960.0</ele><time>2026-05-02T12:18:54.151Z</time></trkpt><trkpt lat="42.0775717" lon="13.6103143"><ele>960.0</ele><time>2026-05-02T12:18:55.152Z</time></trkpt><trkpt lat="42.0774584" lon="13.6103288"><ele>960.0</ele><time>2026-05-02T12:18:57.15Z</time></trkpt><trkpt lat="42.077352" lon="13.6103273"><ele>960.0</ele><time>2026-05-02T12:18:59.145Z</time></trkpt><trkpt lat="42.0772323" lon="13.6103831"><ele>957.8333333333334</ele><time>2026-05-02T12:19:01.154Z</time></trkpt><trkpt lat="42.077168" lon="13.6104037"><ele>955.6666666666667</ele><time>2026-05-02T12:19:02.153Z</time></trkpt><trkpt lat="42.077062" lon="13.6104245"><ele>953.5</ele><time>2026-05-02T12:19:04.148Z</time></trkpt><trkpt lat="42.0769616" lon="13.6103966"><ele>951.3333333333334</ele><time>2026-05-02T12:19:06.146Z</time></trkpt><trkpt lat="42.0768941" lon="13.6103713"><ele>949.1666666666667</ele><time>2026-05-02T12:19:07.146Z</time></trkpt><trkpt lat="42.0768083" lon="13.6103566"><ele>947.0</ele><time>2026-05-02T12:19:08.147Z</time></trkpt><trkpt lat="42.0767317" lon="13.6103531"><ele>947.0</ele><time>2026-05-02T12:19:09.146Z</time></trkpt><trkpt lat="42.0766589" lon="13.6103598"><ele>946.9999999999999</ele><time>2026-05-02T12:19:10.151Z</time></trkpt><trkpt lat="42.0765852" lon="13.6103586"><ele>947.0</ele><time>2026-05-02T12:19:11.15Z</time></trkpt><trkpt lat="42.0765143" lon="13.6103614"><ele>947.0</ele><time>2026-05-02T12:19:12.151Z</time></trkpt><trkpt lat="42.0764441" lon="13.6103648"><ele>946.9999999999999</ele><time>2026-05-02T12:19:13.156Z</time></trkpt><trkpt lat="42.0763758" lon="13.6103817"><ele>947.0</ele><time>2026-05-02T12:19:14.157Z</time></trkpt><trkpt lat="42.0763136" lon="13.6104005"><ele>947.0</ele><time>2026-05-02T12:19:15.156Z</time></trkpt><trkpt lat="42.0761989" lon="13.6104147"><ele>943.8</ele><time>2026-05-02T12:19:17.148Z</time></trkpt><trkpt lat="42.076104" lon="13.6104833"><ele>940.6</ele><time>2026-05-02T12:19:19.153Z</time></trkpt><trkpt lat="42.0760248" lon="13.6105853"><ele>937.3999999999999</ele><time>2026-05-02T12:19:21.153Z</time></trkpt><trkpt lat="42.0759405" lon="13.61071"><ele>934.1999999999999</ele><time>2026-05-02T12:19:23.154Z</time></trkpt><trkpt lat="42.0758596" lon="13.6107902"><ele>931.0</ele><time>2026-05-02T12:19:25.151Z</time></trkpt><trkpt lat="42.0757797" lon="13.6108274"><ele>928.9999999999999</ele><time>2026-05-02T12:19:28.155Z</time></trkpt><trkpt lat="42.075723" lon="13.6108749"><ele>927.0</ele><time>2026-05-02T12:19:32.155Z</time></trkpt><trkpt lat="42.0756572" lon="13.6109194"><ele>925.0</ele><time>2026-05-02T12:19:35.156Z</time></trkpt><trkpt lat="42.0755966" lon="13.610961"><ele>923.0</ele><time>2026-05-02T12:19:38.158Z</time></trkpt><trkpt lat="42.075541" lon="13.611012"><ele>920.9999999999999</ele><time>2026-05-02T12:19:53.156Z</time></trkpt><trkpt lat="42.0754591" lon="13.6110413"><ele>919.0</ele><time>2026-05-02T12:19:56.151Z</time></trkpt><trkpt lat="42.0753661" lon="13.6110823"><ele>919.0</ele><time>2026-05-02T12:19:59.148Z</time></trkpt><trkpt lat="42.0752952" lon="13.6110953"><ele>919.0</ele><time>2026-05-02T12:20:04.153Z</time></trkpt><trkpt lat="42.0752295" lon="13.6110939"><ele>919.0</ele><time>2026-05-02T12:20:08.152Z</time></trkpt><trkpt lat="42.0752142" lon="13.6110072"><ele>919.0</ele><time>2026-05-02T12:20:11.152Z</time></trkpt><trkpt lat="42.0752949" lon="13.6110131"><ele>919.0</ele><time>2026-05-02T12:20:15.156Z</time></trkpt></trkseg><trkseg><trkpt lat="42.0752986" lon="13.6110675"><ele>918.8000000000001</ele><time>2026-05-02T12:53:04.072Z</time></trkpt><trkpt lat="42.0752498" lon="13.6111652"><ele>918.6000000000001</ele><time>2026-05-02T12:55:20.101Z</time></trkpt><trkpt lat="42.075158" lon="13.6112292"><ele>918.4</ele><time>2026-05-02T12:55:22.102Z</time></trkpt><trkpt lat="42.075066" lon="13.6112844"><ele>918.2</ele><time>2026-05-02T12:55:24.098Z</time></trkpt><trkpt lat="42.0749578" lon="13.6113021"><ele>918.0</ele><time>2026-05-02T12:55:26.104Z</time></trkpt><trkpt lat="42.0748933" lon="13.6112898"><ele>916.4</ele><time>2026-05-02T12:55:27.097Z</time></trkpt><trkpt lat="42.074827" lon="13.6112754"><ele>914.8</ele><time>2026-05-02T12:55:28.107Z</time></trkpt><trkpt lat="42.0747166" lon="13.6112544"><ele>913.2</ele><time>2026-05-02T12:55:30.103Z</time></trkpt><trkpt lat="42.0746343" lon="13.6112222"><ele>911.6</ele><time>2026-05-02T12:55:32.099Z</time></trkpt><trkpt lat="42.0745322" lon="13.6111665"><ele>910.0</ele><time>2026-05-02T12:55:34.091Z</time></trkpt><trkpt lat="42.0744541" lon="13.6111208"><ele>909.8</ele><time>2026-05-02T12:55:35.1Z</time></trkpt><trkpt lat="42.0743756" lon="13.6110706"><ele>909.6</ele><time>2026-05-02T12:55:36.095Z</time></trkpt><trkpt lat="42.074294" lon="13.6110199"><ele>909.4000000000001</ele><time>2026-05-02T12:55:37.097Z</time></trkpt><trkpt lat="42.0741972" lon="13.6109671"><ele>909.2</ele><time>2026-05-02T12:55:38.101Z</time></trkpt><trkpt lat="42.074098" lon="13.610907"><ele>909.0</ele><time>2026-05-02T12:55:39.094Z</time></trkpt><trkpt lat="42.0739981" lon="13.6108447"><ele>907.6</ele><time>2026-05-02T12:55:40.096Z</time></trkpt><trkpt lat="42.0738974" lon="13.6107683"><ele>906.2</ele><time>2026-05-02T12:55:41.09Z</time></trkpt><trkpt lat="42.0737922" lon="13.6106952"><ele>904.8000000000001</ele><time>2026-05-02T12:55:42.093Z</time></trkpt><trkpt lat="42.0736965" lon="13.6106262"><ele>903.4000000000001</ele><time>2026-05-02T12:55:43.104Z</time></trkpt><trkpt lat="42.0736031" lon="13.6105582"><ele>902.0</ele><time>2026-05-02T12:55:44.09Z</time></trkpt><trkpt lat="42.0735079" lon="13.6104787"><ele>902.0</ele><time>2026-05-02T12:55:45.096Z</time></trkpt><trkpt lat="42.0734079" lon="13.6103798"><ele>902.0</ele><time>2026-05-02T12:55:46.099Z</time></trkpt><trkpt lat="42.0733015" lon="13.6102667"><ele>902.0</ele><time>2026-05-02T12:55:47.093Z</time></trkpt><trkpt lat="42.0731903" lon="13.6101505"><ele>902.0</ele><time>2026-05-02T12:55:48.099Z</time></trkpt><trkpt lat="42.0730674" lon="13.6100325"><ele>899.25</ele><time>2026-05-02T12:55:49.101Z</time></trkpt><trkpt lat="42.0729613" lon="13.6099179"><ele>896.5</ele><time>2026-05-02T12:55:50.099Z</time></trkpt><trkpt lat="42.0728602" lon="13.6098017"><ele>893.75</ele><time>2026-05-02T12:55:51.092Z</time></trkpt><trkpt lat="42.072754" lon="13.6096783"><ele>891.0</ele><time>2026-05-02T12:55:52.1Z</time></trkpt><trkpt lat="42.0726521" lon="13.6095603"><ele>890.5</ele><time>2026-05-02T12:55:53.1Z</time></trkpt><trkpt lat="42.0725511" lon="13.6094406"><ele>890.0</ele><time>2026-05-02T12:55:54.094Z</time></trkpt><trkpt lat="42.0724633" lon="13.6093234"><ele>889.5</ele><time>2026-05-02T12:55:55.097Z</time></trkpt><trkpt lat="42.0723783" lon="13.6092258"><ele>889.0</ele><time>2026-05-02T12:55:56.09Z</time></trkpt><trkpt lat="42.0723112" lon="13.6091419"><ele>887.6666666666666</ele><time>2026-05-02T12:55:57.093Z</time></trkpt><trkpt lat="42.0722503" lon="13.6090709"><ele>886.3333333333333</ele><time>2026-05-02T12:55:58.091Z</time></trkpt><trkpt lat="42.0722003" lon="13.6089945"><ele>885.0</ele><time>2026-05-02T12:55:59.104Z</time></trkpt><trkpt lat="42.0721642" lon="13.6089058"><ele>883.6666666666667</ele><time>2026-05-02T12:56:00.091Z</time></trkpt><trkpt lat="42.0721448" lon="13.6087944"><ele>882.3333333333334</ele><time>2026-05-02T12:56:01.092Z</time></trkpt><trkpt lat="42.0721316" lon="13.608659"><ele>881.0</ele><time>2026-05-02T12:56:02.086Z</time></trkpt><trkpt lat="42.0721206" lon="13.6085026"><ele>880.25</ele><time>2026-05-02T12:56:03.093Z</time></trkpt><trkpt lat="42.0721066" lon="13.6083406"><ele>879.5</ele><time>2026-05-02T12:56:04.098Z</time></trkpt><trkpt lat="42.0720769" lon="13.6081771"><ele>878.75</ele><time>2026-05-02T12:56:05.1Z</time></trkpt><trkpt lat="42.0720635" lon="13.6080206"><ele>878.0</ele><time>2026-05-02T12:56:06.096Z</time></trkpt><trkpt lat="42.0720628" lon="13.6078654"><ele>876.5</ele><time>2026-05-02T12:56:07.099Z</time></trkpt><trkpt lat="42.0720669" lon="13.6077111"><ele>875.0</ele><time>2026-05-02T12:56:08.095Z</time></trkpt><trkpt lat="42.0720703" lon="13.6075504"><ele>873.5</ele><time>2026-05-02T12:56:09.092Z</time></trkpt><trkpt lat="42.072074" lon="13.6073927"><ele>872.0</ele><time>2026-05-02T12:56:10.098Z</time></trkpt><trkpt lat="42.0720827" lon="13.6072344"><ele>872.0</ele><time>2026-05-02T12:56:11.089Z</time></trkpt><trkpt lat="42.0720848" lon="13.6070746"><ele>872.0</ele><time>2026-05-02T12:56:12.092Z</time></trkpt><trkpt lat="42.072067" lon="13.606914"><ele>872.0</ele><time>2026-05-02T12:56:13.095Z</time></trkpt><trkpt lat="42.0720294" lon="13.6067583"><ele>872.0</ele><time>2026-05-02T12:56:14.095Z</time></trkpt><trkpt lat="42.0719738" lon="13.6066049"><ele>869.75</ele><time>2026-05-02T12:56:15.098Z</time></trkpt><trkpt lat="42.071895" lon="13.6064753"><ele>867.5</ele><time>2026-05-02T12:56:16.089Z</time></trkpt><trkpt lat="42.0717962" lon="13.6063581"><ele>865.25</ele><time>2026-05-02T12:56:17.094Z</time></trkpt><trkpt lat="42.071693" lon="13.6062546"><ele>863.0</ele><time>2026-05-02T12:56:18.094Z</time></trkpt><trkpt lat="42.0715958" lon="13.6061674"><ele>860.0</ele><time>2026-05-02T12:56:19.096Z</time></trkpt><trkpt lat="42.0715049" lon="13.606096"><ele>857.0</ele><time>2026-05-02T12:56:20.092Z</time></trkpt><trkpt lat="42.0714039" lon="13.6060447"><ele>854.0</ele><time>2026-05-02T12:56:21.096Z</time></trkpt><trkpt lat="42.071305" lon="13.6060027"><ele>851.0</ele><time>2026-05-02T12:56:22.092Z</time></trkpt><trkpt lat="42.0711956" lon="13.6059551"><ele>848.0</ele><time>2026-05-02T12:56:23.093Z</time></trkpt><trkpt lat="42.0710899" lon="13.6058834"><ele>848.0</ele><time>2026-05-02T12:56:24.092Z</time></trkpt><trkpt lat="42.0709916" lon="13.6057863"><ele>848.0</ele><time>2026-05-02T12:56:25.094Z</time></trkpt><trkpt lat="42.0708818" lon="13.6056834"><ele>848.0</ele><time>2026-05-02T12:56:26.086Z</time></trkpt><trkpt lat="42.0707691" lon="13.6055716"><ele>848.0</ele><time>2026-05-02T12:56:27.094Z</time></trkpt><trkpt lat="42.0706593" lon="13.6054632"><ele>845.25</ele><time>2026-05-02T12:56:28.093Z</time></trkpt><trkpt lat="42.0705454" lon="13.6053645"><ele>842.5</ele><time>2026-05-02T12:56:29.099Z</time></trkpt><trkpt lat="42.0704311" lon="13.6052657"><ele>839.75</ele><time>2026-05-02T12:56:30.105Z</time></trkpt><trkpt lat="42.0703231" lon="13.6051605"><ele>837.0</ele><time>2026-05-02T12:56:31.096Z</time></trkpt><trkpt lat="42.0702185" lon="13.6050581"><ele>835.75</ele><time>2026-05-02T12:56:32.093Z</time></trkpt><trkpt lat="42.0701161" lon="13.6049537"><ele>834.5</ele><time>2026-05-02T12:56:33.09Z</time></trkpt><trkpt lat="42.0700131" lon="13.6048475"><ele>833.25</ele><time>2026-05-02T12:56:34.091Z</time></trkpt><trkpt lat="42.0699044" lon="13.6047433"><ele>832.0</ele><time>2026-05-02T12:56:35.09Z</time></trkpt><trkpt lat="42.0697942" lon="13.6046406"><ele>829.0</ele><time>2026-05-02T12:56:36.099Z</time></trkpt><trkpt lat="42.0696804" lon="13.6045401"><ele>826.0</ele><time>2026-05-02T12:56:37.09Z</time></trkpt><trkpt lat="42.0695605" lon="13.6044357"><ele>823.0</ele><time>2026-05-02T12:56:38.096Z</time></trkpt><trkpt lat="42.0694292" lon="13.6043274"><ele>820.0</ele><time>2026-05-02T12:56:39.09Z</time></trkpt><trkpt lat="42.0693107" lon="13.6042158"><ele>818.25</ele><time>2026-05-02T12:56:40.096Z</time></trkpt><trkpt lat="42.0692131" lon="13.6040942"><ele>816.5</ele><time>2026-05-02T12:56:41.081Z</time></trkpt><trkpt lat="42.0691112" lon="13.6039796"><ele>814.75</ele><time>2026-05-02T12:56:42.08Z</time></trkpt><trkpt lat="42.0690093" lon="13.603869"><ele>813.0</ele><time>2026-05-02T12:56:43.088Z</time></trkpt><trkpt lat="42.0689112" lon="13.6037642"><ele>811.75</ele><time>2026-05-02T12:56:44.091Z</time></trkpt><trkpt lat="42.0688108" lon="13.6036568"><ele>810.5</ele><time>2026-05-02T12:56:45.091Z</time></trkpt><trkpt lat="42.0687147" lon="13.6035633"><ele>809.25</ele><time>2026-05-02T12:56:46.083Z</time></trkpt><trkpt lat="42.0686287" lon="13.6034757"><ele>808.0</ele><time>2026-05-02T12:56:47.078Z</time></trkpt><trkpt lat="42.0685506" lon="13.6033999"><ele>808.0</ele><time>2026-05-02T12:56:48.071Z</time></trkpt><trkpt lat="42.0684866" lon="13.6033337"><ele>808.0</ele><time>2026-05-02T12:56:49.072Z</time></trkpt><trkpt lat="42.0684222" lon="13.6032938"><ele>808.0</ele><time>2026-05-02T12:56:50.075Z</time></trkpt><trkpt lat="42.0683061" lon="13.6033218"><ele>808.0</ele><time>2026-05-02T12:56:52.072Z</time></trkpt><trkpt lat="42.0682457" lon="13.6033792"><ele>808.0</ele><time>2026-05-02T12:56:53.076Z</time></trkpt><trkpt lat="42.0681554" lon="13.6034889"><ele>809.8</ele><time>2026-05-02T12:56:55.074Z</time></trkpt><trkpt lat="42.0680806" lon="13.603539"><ele>811.5999999999999</ele><time>2026-05-02T12:56:57.069Z</time></trkpt><trkpt lat="42.0679789" lon="13.6035519"><ele>813.4000000000001</ele><time>2026-05-02T12:56:59.081Z</time></trkpt><trkpt lat="42.067902" lon="13.6035554"><ele>815.2</ele><time>2026-05-02T12:57:00.091Z</time></trkpt><trkpt lat="42.0678061" lon="13.6035525"><ele>817.0</ele><time>2026-05-02T12:57:01.085Z</time></trkpt><trkpt lat="42.0677005" lon="13.6035522"><ele>817.0</ele><time>2026-05-02T12:57:02.08Z</time></trkpt><trkpt lat="42.0675946" lon="13.603546"><ele>817.0</ele><time>2026-05-02T12:57:03.082Z</time></trkpt><trkpt lat="42.0674811" lon="13.6035391"><ele>817.0</ele><time>2026-05-02T12:57:04.079Z</time></trkpt><trkpt lat="42.0673622" lon="13.6035234"><ele>817.0</ele><time>2026-05-02T12:57:05.069Z</time></trkpt><trkpt lat="42.0672377" lon="13.6035075"><ele>818.0</ele><time>2026-05-02T12:57:06.081Z</time></trkpt><trkpt lat="42.0671111" lon="13.603496"><ele>819.0</ele><time>2026-05-02T12:57:07.075Z</time></trkpt><trkpt lat="42.0669863" lon="13.6034769"><ele>820.0</ele><time>2026-05-02T12:57:08.08Z</time></trkpt><trkpt lat="42.0668542" lon="13.6034479"><ele>821.0</ele><time>2026-05-02T12:57:09.074Z</time></trkpt><trkpt lat="42.0667269" lon="13.6034114"><ele>822.75</ele><time>2026-05-02T12:57:10.073Z</time></trkpt><trkpt lat="42.0666048" lon="13.6033624"><ele>824.5</ele><time>2026-05-02T12:57:11.079Z</time></trkpt><trkpt lat="42.0664807" lon="13.603315"><ele>826.25</ele><time>2026-05-02T12:57:12.076Z</time></trkpt><trkpt lat="42.0663595" lon="13.603278"><ele>828.0</ele><time>2026-05-02T12:57:13.069Z</time></trkpt><trkpt lat="42.0662613" lon="13.6032571"><ele>828.0</ele><time>2026-05-02T12:57:14.081Z</time></trkpt><trkpt lat="42.0661667" lon="13.6032604"><ele>828.0</ele><time>2026-05-02T12:57:15.084Z</time></trkpt><trkpt lat="42.0660681" lon="13.6032701"><ele>828.0</ele><time>2026-05-02T12:57:16.091Z</time></trkpt><trkpt lat="42.0659754" lon="13.6032873"><ele>828.0</ele><time>2026-05-02T12:57:17.082Z</time></trkpt><trkpt lat="42.0658945" lon="13.6033034"><ele>828.0</ele><time>2026-05-02T12:57:18.088Z</time></trkpt><trkpt lat="42.0658321" lon="13.603321"><ele>828.0</ele><time>2026-05-02T12:57:19.096Z</time></trkpt><trkpt lat="42.065734" lon="13.6033247"><ele>828.1666666666666</ele><time>2026-05-02T12:57:21.092Z</time></trkpt><trkpt lat="42.0656729" lon="13.6032289"><ele>828.3333333333333</ele><time>2026-05-02T12:57:24.092Z</time></trkpt><trkpt lat="42.0656695" lon="13.6031384"><ele>828.5</ele><time>2026-05-02T12:57:25.086Z</time></trkpt><trkpt lat="42.0656562" lon="13.6030171"><ele>828.6666666666666</ele><time>2026-05-02T12:57:26.097Z</time></trkpt><trkpt lat="42.0656374" lon="13.6028845"><ele>828.8333333333333</ele><time>2026-05-02T12:57:27.093Z</time></trkpt><trkpt lat="42.0656346" lon="13.6027591"><ele>829.0</ele><time>2026-05-02T12:57:28.093Z</time></trkpt><trkpt lat="42.0656541" lon="13.6026489"><ele>829.4000000000001</ele><time>2026-05-02T12:57:29.093Z</time></trkpt><trkpt lat="42.0657048" lon="13.6025581"><ele>829.8</ele><time>2026-05-02T12:57:30.092Z</time></trkpt><trkpt lat="42.0657778" lon="13.6024681"><ele>830.2</ele><time>2026-05-02T12:57:31.089Z</time></trkpt><trkpt lat="42.0658326" lon="13.6023546"><ele>830.5999999999999</ele><time>2026-05-02T12:57:32.099Z</time></trkpt><trkpt lat="42.0658676" lon="13.6022156"><ele>831.0</ele><time>2026-05-02T12:57:33.091Z</time></trkpt><trkpt lat="42.0658986" lon="13.6020601"><ele>830.25</ele><time>2026-05-02T12:57:34.093Z</time></trkpt><trkpt lat="42.0659359" lon="13.6019047"><ele>829.5</ele><time>2026-05-02T12:57:35.093Z</time></trkpt><trkpt lat="42.0659731" lon="13.6017498"><ele>828.75</ele><time>2026-05-02T12:57:36.088Z</time></trkpt><trkpt lat="42.0660049" lon="13.6016022"><ele>828.0</ele><time>2026-05-02T12:57:37.079Z</time></trkpt><trkpt lat="42.0660379" lon="13.6014791"><ele>828.0</ele><time>2026-05-02T12:57:38.092Z</time></trkpt><trkpt lat="42.0660637" lon="13.6013686"><ele>828.0</ele><time>2026-05-02T12:57:39.09Z</time></trkpt><trkpt lat="42.0660776" lon="13.6012647"><ele>828.0</ele><time>2026-05-02T12:57:40.088Z</time></trkpt><trkpt lat="42.0660798" lon="13.6011574"><ele>828.0</ele><time>2026-05-02T12:57:41.088Z</time></trkpt><trkpt lat="42.0660835" lon="13.6010492"><ele>828.0</ele><time>2026-05-02T12:57:42.094Z</time></trkpt><trkpt lat="42.0660863" lon="13.6009507"><ele>828.0</ele><time>2026-05-02T12:57:43.083Z</time></trkpt><trkpt lat="42.0660985" lon="13.6008041"><ele>828.0</ele><time>2026-05-02T12:57:45.085Z</time></trkpt><trkpt lat="42.0660982" lon="13.6006973"><ele>828.0</ele><time>2026-05-02T12:57:47.091Z</time></trkpt><trkpt lat="42.0661188" lon="13.6005754"><ele>828.0</ele><time>2026-05-02T12:57:49.086Z</time></trkpt><trkpt lat="42.0661584" lon="13.6004166"><ele>828.0</ele><time>2026-05-02T12:57:51.085Z</time></trkpt><trkpt lat="42.0661679" lon="13.6002721"><ele>828.0</ele><time>2026-05-02T12:57:53.084Z</time></trkpt><trkpt lat="42.0661027" lon="13.6001916"><ele>828.0</ele><time>2026-05-02T12:57:55.093Z</time></trkpt><trkpt lat="42.0660379" lon="13.6001912"><ele>828.0</ele><time>2026-05-02T12:57:56.094Z</time></trkpt><trkpt lat="42.0659577" lon="13.6001879"><ele>828.0</ele><time>2026-05-02T12:57:57.084Z</time></trkpt><trkpt lat="42.0658734" lon="13.6001817"><ele>828.0</ele><time>2026-05-02T12:57:58.1Z</time></trkpt><trkpt lat="42.0657982" lon="13.6001833"><ele>828.0</ele><time>2026-05-02T12:57:59.085Z</time></trkpt><trkpt lat="42.0657222" lon="13.6001822"><ele>828.0</ele><time>2026-05-02T12:58:00.088Z</time></trkpt><trkpt lat="42.0656478" lon="13.6001715"><ele>826.5</ele><time>2026-05-02T12:58:01.091Z</time></trkpt><trkpt lat="42.0655714" lon="13.6001635"><ele>825.0</ele><time>2026-05-02T12:58:02.091Z</time></trkpt><trkpt lat="42.0654974" lon="13.6001613"><ele>823.5</ele><time>2026-05-02T12:58:03.11Z</time></trkpt><trkpt lat="42.0654211" lon="13.6001647"><ele>822.0</ele><time>2026-05-02T12:58:04.095Z</time></trkpt><trkpt lat="42.0653432" lon="13.6001634"><ele>820.5</ele><time>2026-05-02T12:58:05.094Z</time></trkpt><trkpt lat="42.0652589" lon="13.600161"><ele>819.0</ele><time>2026-05-02T12:58:06.086Z</time></trkpt><trkpt lat="42.0651739" lon="13.6001567"><ele>819.0</ele><time>2026-05-02T12:58:07.097Z</time></trkpt><trkpt lat="42.0650851" lon="13.6001472"><ele>819.0</ele><time>2026-05-02T12:58:08.093Z</time></trkpt><trkpt lat="42.0649853" lon="13.6001337"><ele>819.0</ele><time>2026-05-02T12:58:09.099Z</time></trkpt><trkpt lat="42.0648837" lon="13.6001237"><ele>819.0</ele><time>2026-05-02T12:58:10.089Z</time></trkpt><trkpt lat="42.0647911" lon="13.6001228"><ele>819.0</ele><time>2026-05-02T12:58:11.077Z</time></trkpt><trkpt lat="42.0647082" lon="13.6001243"><ele>817.5</ele><time>2026-05-02T12:58:12.082Z</time></trkpt><trkpt lat="42.0646252" lon="13.6001185"><ele>816.0</ele><time>2026-05-02T12:58:13.08Z</time></trkpt><trkpt lat="42.0645398" lon="13.6001194"><ele>814.5</ele><time>2026-05-02T12:58:14.082Z</time></trkpt><trkpt lat="42.0644625" lon="13.6001207"><ele>813.0</ele><time>2026-05-02T12:58:15.072Z</time></trkpt><trkpt lat="42.0643906" lon="13.6001346"><ele>811.5</ele><time>2026-05-02T12:58:16.08Z</time></trkpt><trkpt lat="42.0643186" lon="13.6001413"><ele>810.0</ele><time>2026-05-02T12:58:17.078Z</time></trkpt><trkpt lat="42.0642514" lon="13.6001292"><ele>810.0</ele><time>2026-05-02T12:58:18.08Z</time></trkpt><trkpt lat="42.064181" lon="13.6001103"><ele>810.0</ele><time>2026-05-02T12:58:19.081Z</time></trkpt><trkpt lat="42.0641097" lon="13.6000865"><ele>810.0</ele><time>2026-05-02T12:58:20.076Z</time></trkpt><trkpt lat="42.0640424" lon="13.6000657"><ele>810.0</ele><time>2026-05-02T12:58:21.076Z</time></trkpt><trkpt lat="42.0639261" lon="13.600037"><ele>810.0</ele><time>2026-05-02T12:58:23.063Z</time></trkpt><trkpt lat="42.0638239" lon="13.6000087"><ele>810.0</ele><time>2026-05-02T12:58:25.074Z</time></trkpt><trkpt lat="42.0637474" lon="13.5999745"><ele>808.8571428571428</ele><time>2026-05-02T12:58:27.084Z</time></trkpt><trkpt lat="42.0636819" lon="13.5999476"><ele>807.7142857142857</ele><time>2026-05-02T12:58:33.091Z</time></trkpt><trkpt lat="42.0636152" lon="13.5999459"><ele>806.5714285714286</ele><time>2026-05-02T12:59:00.098Z</time></trkpt><trkpt lat="42.0635483" lon="13.5999218"><ele>805.4285714285713</ele><time>2026-05-02T13:04:08.097Z</time></trkpt><trkpt lat="42.0635955" lon="13.5998523"><ele>804.2857142857143</ele><time>2026-05-02T13:04:12.101Z</time></trkpt><trkpt lat="42.0636738" lon="13.5998437"><ele>803.1428571428571</ele><time>2026-05-02T13:04:23.087Z</time></trkpt><trkpt lat="42.0637325" lon="13.5997708"><ele>802.0</ele><time>2026-05-02T13:04:25.094Z</time></trkpt><trkpt lat="42.0637772" lon="13.5996208"><ele>801.9999999999999</ele><time>2026-05-02T13:04:27.103Z</time></trkpt><trkpt lat="42.0638088" lon="13.599506"><ele>802.0</ele><time>2026-05-02T13:04:29.104Z</time></trkpt><trkpt lat="42.063845" lon="13.5993911"><ele>802.0</ele><time>2026-05-02T13:04:31.101Z</time></trkpt><trkpt lat="42.063871" lon="13.5993064"><ele>802.0</ele><time>2026-05-02T13:04:32.098Z</time></trkpt><trkpt lat="42.0639099" lon="13.599235"><ele>801.9999999999999</ele><time>2026-05-02T13:04:33.101Z</time></trkpt><trkpt lat="42.0639684" lon="13.5991083"><ele>802.0</ele><time>2026-05-02T13:04:35.1Z</time></trkpt><trkpt lat="42.0640111" lon="13.5990338"><ele>802.4000000000001</ele><time>2026-05-02T13:04:37.09Z</time></trkpt><trkpt lat="42.0641132" lon="13.5990295"><ele>802.8000000000001</ele><time>2026-05-02T13:04:39.09Z</time></trkpt><trkpt lat="42.0642025" lon="13.5990362"><ele>803.2</ele><time>2026-05-02T13:04:40.094Z</time></trkpt><trkpt lat="42.0642899" lon="13.5990382"><ele>803.6</ele><time>2026-05-02T13:04:41.096Z</time></trkpt><trkpt lat="42.064391" lon="13.5990533"><ele>804.0</ele><time>2026-05-02T13:04:42.093Z</time></trkpt><trkpt lat="42.0644874" lon="13.5990671"><ele>804.0</ele><time>2026-05-02T13:04:43.082Z</time></trkpt><trkpt lat="42.0645673" lon="13.5990801"><ele>804.0</ele><time>2026-05-02T13:04:44.085Z</time></trkpt><trkpt lat="42.0646452" lon="13.5990936"><ele>804.0</ele><time>2026-05-02T13:04:45.08Z</time></trkpt><trkpt lat="42.0647308" lon="13.599111"><ele>804.0</ele><time>2026-05-02T13:04:46.083Z</time></trkpt><trkpt lat="42.0648186" lon="13.5991249"><ele>804.0</ele><time>2026-05-02T13:04:47.079Z</time></trkpt><trkpt lat="42.0649068" lon="13.5991298"><ele>804.0</ele><time>2026-05-02T13:04:48.082Z</time></trkpt><trkpt lat="42.0649927" lon="13.599132"><ele>805.8333333333334</ele><time>2026-05-02T13:04:49.083Z</time></trkpt><trkpt lat="42.0650829" lon="13.5991367"><ele>807.6666666666667</ele><time>2026-05-02T13:04:50.081Z</time></trkpt><trkpt lat="42.0651707" lon="13.5991365"><ele>809.5</ele><time>2026-05-02T13:04:51.081Z</time></trkpt><trkpt lat="42.0652584" lon="13.5991366"><ele>811.3333333333334</ele><time>2026-05-02T13:04:52.089Z</time></trkpt><trkpt lat="42.0653491" lon="13.5991359"><ele>813.1666666666667</ele><time>2026-05-02T13:04:53.083Z</time></trkpt><trkpt lat="42.0654394" lon="13.5991411"><ele>815.0</ele><time>2026-05-02T13:04:54.085Z</time></trkpt><trkpt lat="42.0655399" lon="13.5991377"><ele>815.0</ele><time>2026-05-02T13:04:55.084Z</time></trkpt><trkpt lat="42.0656359" lon="13.5991377"><ele>815.0</ele><time>2026-05-02T13:04:56.087Z</time></trkpt><trkpt lat="42.0657329" lon="13.5991369"><ele>815.0</ele><time>2026-05-02T13:04:57.086Z</time></trkpt><trkpt lat="42.0658255" lon="13.5991366"><ele>815.0</ele><time>2026-05-02T13:04:58.084Z</time></trkpt><trkpt lat="42.065916" lon="13.5991331"><ele>815.0</ele><time>2026-05-02T13:04:59.082Z</time></trkpt><trkpt lat="42.0660065" lon="13.5991347"><ele>816.6666666666667</ele><time>2026-05-02T13:05:00.088Z</time></trkpt><trkpt lat="42.0660966" lon="13.5991376"><ele>818.3333333333334</ele><time>2026-05-02T13:05:01.089Z</time></trkpt><trkpt lat="42.0661806" lon="13.5991354"><ele>820.0</ele><time>2026-05-02T13:05:02.089Z</time></trkpt><trkpt lat="42.0662483" lon="13.599126"><ele>821.6666666666667</ele><time>2026-05-02T13:05:03.086Z</time></trkpt><trkpt lat="42.0663539" lon="13.5991099"><ele>823.3333333333334</ele><time>2026-05-02T13:05:05.08Z</time></trkpt><trkpt lat="42.0664317" lon="13.5990479"><ele>825.0</ele><time>2026-05-02T13:05:08.075Z</time></trkpt><trkpt lat="42.0664774" lon="13.5988993"><ele>825.0</ele><time>2026-05-02T13:05:10.089Z</time></trkpt><trkpt lat="42.0665026" lon="13.5987698"><ele>825.0</ele><time>2026-05-02T13:05:11.082Z</time></trkpt><trkpt lat="42.0665408" lon="13.5986339"><ele>825.0</ele><time>2026-05-02T13:05:12.085Z</time></trkpt><trkpt lat="42.0665907" lon="13.5984908"><ele>825.0</ele><time>2026-05-02T13:05:13.088Z</time></trkpt><trkpt lat="42.0666548" lon="13.5983766"><ele>825.0</ele><time>2026-05-02T13:05:14.082Z</time></trkpt><trkpt lat="42.0667091" lon="13.5982733"><ele>825.6666666666666</ele><time>2026-05-02T13:05:15.09Z</time></trkpt><trkpt lat="42.0667487" lon="13.5981845"><ele>826.3333333333333</ele><time>2026-05-02T13:05:16.088Z</time></trkpt><trkpt lat="42.0667938" lon="13.5981019"><ele>827.0</ele><time>2026-05-02T13:05:17.088Z</time></trkpt><trkpt lat="42.0668277" lon="13.5980208"><ele>827.6666666666666</ele><time>2026-05-02T13:05:18.084Z</time></trkpt><trkpt lat="42.0668715" lon="13.5978974"><ele>828.3333333333333</ele><time>2026-05-02T13:05:20.085Z</time></trkpt><trkpt lat="42.0669415" lon="13.5978759"><ele>829.0</ele><time>2026-05-02T13:05:22.092Z</time></trkpt><trkpt lat="42.0670199" lon="13.5979116"><ele>829.0</ele><time>2026-05-02T13:05:23.079Z</time></trkpt><trkpt lat="42.0671117" lon="13.5979225"><ele>829.0</ele><time>2026-05-02T13:05:24.091Z</time></trkpt><trkpt lat="42.0672158" lon="13.5979365"><ele>829.0</ele><time>2026-05-02T13:05:25.091Z</time></trkpt><trkpt lat="42.0673202" lon="13.5979558"><ele>829.0</ele><time>2026-05-02T13:05:26.09Z</time></trkpt><trkpt lat="42.0674169" lon="13.597985"><ele>829.0</ele><time>2026-05-02T13:05:27.094Z</time></trkpt><trkpt lat="42.0675052" lon="13.5980163"><ele>831.2</ele><time>2026-05-02T13:05:28.089Z</time></trkpt><trkpt lat="42.0675955" lon="13.5980589"><ele>833.4000000000001</ele><time>2026-05-02T13:05:29.085Z</time></trkpt><trkpt lat="42.0676902" lon="13.5981078"><ele>835.6</ele><time>2026-05-02T13:05:30.091Z</time></trkpt><trkpt lat="42.0677955" lon="13.5981481"><ele>837.8</ele><time>2026-05-02T13:05:31.084Z</time></trkpt><trkpt lat="42.0679094" lon="13.598176"><ele>840.0</ele><time>2026-05-02T13:05:32.089Z</time></trkpt><trkpt lat="42.0680285" lon="13.5982044"><ele>840.0</ele><time>2026-05-02T13:05:33.089Z</time></trkpt><trkpt lat="42.0681496" lon="13.5982443"><ele>840.0</ele><time>2026-05-02T13:05:34.086Z</time></trkpt><trkpt lat="42.0682673" lon="13.5982821"><ele>840.0</ele><time>2026-05-02T13:05:35.086Z</time></trkpt><trkpt lat="42.0683848" lon="13.5983117"><ele>840.0</ele><time>2026-05-02T13:05:36.091Z</time></trkpt><trkpt lat="42.0684984" lon="13.5983365"><ele>842.0</ele><time>2026-05-02T13:05:37.089Z</time></trkpt><trkpt lat="42.0686188" lon="13.5983581"><ele>844.0</ele><time>2026-05-02T13:05:38.093Z</time></trkpt><trkpt lat="42.0687406" lon="13.5983846"><ele>846.0</ele><time>2026-05-02T13:05:39.091Z</time></trkpt><trkpt lat="42.0688608" lon="13.5984155"><ele>848.0</ele><time>2026-05-02T13:05:40.096Z</time></trkpt><trkpt lat="42.0689776" lon="13.5984441"><ele>848.0</ele><time>2026-05-02T13:05:41.083Z</time></trkpt><trkpt lat="42.06909" lon="13.5984729"><ele>848.0</ele><time>2026-05-02T13:05:42.093Z</time></trkpt><trkpt lat="42.0691869" lon="13.5985028"><ele>848.0</ele><time>2026-05-02T13:05:43.088Z</time></trkpt><trkpt lat="42.0692716" lon="13.5985263"><ele>848.0</ele><time>2026-05-02T13:05:44.094Z</time></trkpt><trkpt lat="42.0693355" lon="13.5985501"><ele>848.0</ele><time>2026-05-02T13:05:45.088Z</time></trkpt><trkpt lat="42.0693924" lon="13.59864"><ele>850.5999999999999</ele><time>2026-05-02T13:05:47.085Z</time></trkpt><trkpt lat="42.0693594" lon="13.5987965"><ele>853.1999999999999</ele><time>2026-05-02T13:05:49.091Z</time></trkpt><trkpt lat="42.0693201" lon="13.5989145"><ele>855.8</ele><time>2026-05-02T13:05:50.09Z</time></trkpt><trkpt lat="42.0692906" lon="13.5990483"><ele>858.4</ele><time>2026-05-02T13:05:51.086Z</time></trkpt><trkpt lat="42.0692741" lon="13.5991884"><ele>861.0</ele><time>2026-05-02T13:05:52.089Z</time></trkpt><trkpt lat="42.0692667" lon="13.5993375"><ele>861.0</ele><time>2026-05-02T13:05:53.087Z</time></trkpt><trkpt lat="42.0692658" lon="13.5994773"><ele>861.0</ele><time>2026-05-02T13:05:54.091Z</time></trkpt><trkpt lat="42.0692637" lon="13.599602"><ele>861.0</ele><time>2026-05-02T13:05:55.086Z</time></trkpt><trkpt lat="42.0692683" lon="13.5997082"><ele>861.0</ele><time>2026-05-02T13:05:56.089Z</time></trkpt><trkpt lat="42.0692844" lon="13.5998004"><ele>861.0</ele><time>2026-05-02T13:05:57.083Z</time></trkpt><trkpt lat="42.069308" lon="13.5998824"><ele>861.0</ele><time>2026-05-02T13:05:58.098Z</time></trkpt><trkpt lat="42.0693727" lon="13.5999802"><ele>861.4</ele><time>2026-05-02T13:06:00.092Z</time></trkpt><trkpt lat="42.0694828" lon="13.5999957"><ele>861.8</ele><time>2026-05-02T13:06:02.083Z</time></trkpt><trkpt lat="42.0695584" lon="13.5999753"><ele>862.1999999999999</ele><time>2026-05-02T13:06:03.09Z</time></trkpt><trkpt lat="42.0696579" lon="13.5999192"><ele>862.5999999999999</ele><time>2026-05-02T13:06:04.09Z</time></trkpt><trkpt lat="42.0697702" lon="13.5998667"><ele>863.0</ele><time>2026-05-02T13:06:05.085Z</time></trkpt><trkpt lat="42.0698961" lon="13.5998349"><ele>864.75</ele><time>2026-05-02T13:06:06.079Z</time></trkpt><trkpt lat="42.0700287" lon="13.599819"><ele>866.5</ele><time>2026-05-02T13:06:07.086Z</time></trkpt><trkpt lat="42.0701529" lon="13.5998128"><ele>868.25</ele><time>2026-05-02T13:06:08.094Z</time></trkpt><trkpt lat="42.0702702" lon="13.5997981"><ele>870.0</ele><time>2026-05-02T13:06:09.093Z</time></trkpt><trkpt lat="42.0703872" lon="13.5997836"><ele>870.0</ele><time>2026-05-02T13:06:10.093Z</time></trkpt><trkpt lat="42.070502" lon="13.5997669"><ele>870.0</ele><time>2026-05-02T13:06:11.093Z</time></trkpt><trkpt lat="42.0706209" lon="13.5997357"><ele>870.0</ele><time>2026-05-02T13:06:12.088Z</time></trkpt><trkpt lat="42.070742" lon="13.5996924"><ele>870.0</ele><time>2026-05-02T13:06:13.091Z</time></trkpt><trkpt lat="42.0708685" lon="13.5996338"><ele>870.0</ele><time>2026-05-02T13:06:14.089Z</time></trkpt><trkpt lat="42.0709903" lon="13.599573"><ele>870.0</ele><time>2026-05-02T13:06:15.089Z</time></trkpt><trkpt lat="42.0711149" lon="13.5995121"><ele>870.0</ele><time>2026-05-02T13:06:16.091Z</time></trkpt><trkpt lat="42.0712426" lon="13.5994494"><ele>870.0</ele><time>2026-05-02T13:06:17.093Z</time></trkpt><trkpt lat="42.0713708" lon="13.5993858"><ele>871.5</ele><time>2026-05-02T13:06:18.093Z</time></trkpt><trkpt lat="42.0715056" lon="13.5993255"><ele>873.0</ele><time>2026-05-02T13:06:19.087Z</time></trkpt><trkpt lat="42.0716679" lon="13.5992667"><ele>874.5</ele><time>2026-05-02T13:06:20.092Z</time></trkpt><trkpt lat="42.0717798" lon="13.5992093"><ele>876.0</ele><time>2026-05-02T13:06:21.088Z</time></trkpt><trkpt lat="42.0719046" lon="13.5991435"><ele>877.75</ele><time>2026-05-02T13:06:22.093Z</time></trkpt><trkpt lat="42.0720317" lon="13.5990887"><ele>879.5</ele><time>2026-05-02T13:06:23.087Z</time></trkpt><trkpt lat="42.0721559" lon="13.5990409"><ele>881.25</ele><time>2026-05-02T13:06:24.087Z</time></trkpt><trkpt lat="42.0722766" lon="13.598988"><ele>883.0</ele><time>2026-05-02T13:06:25.09Z</time></trkpt><trkpt lat="42.0723804" lon="13.5989269"><ele>884.75</ele><time>2026-05-02T13:06:26.092Z</time></trkpt><trkpt lat="42.072493" lon="13.5988746"><ele>886.5</ele><time>2026-05-02T13:06:27.089Z</time></trkpt><trkpt lat="42.0726063" lon="13.5988251"><ele>888.25</ele><time>2026-05-02T13:06:28.092Z</time></trkpt><trkpt lat="42.0727213" lon="13.5987777"><ele>890.0</ele><time>2026-05-02T13:06:29.087Z</time></trkpt><trkpt lat="42.072835" lon="13.598731"><ele>890.0</ele><time>2026-05-02T13:06:30.089Z</time></trkpt><trkpt lat="42.0729528" lon="13.5986835"><ele>890.0</ele><time>2026-05-02T13:06:31.086Z</time></trkpt><trkpt lat="42.0730704" lon="13.5986299"><ele>890.0</ele><time>2026-05-02T13:06:32.085Z</time></trkpt><trkpt lat="42.07319" lon="13.5985803"><ele>890.0</ele><time>2026-05-02T13:06:33.086Z</time></trkpt><trkpt lat="42.0733124" lon="13.5985305"><ele>893.5</ele><time>2026-05-02T13:06:34.09Z</time></trkpt><trkpt lat="42.0734334" lon="13.5984763"><ele>897.0</ele><time>2026-05-02T13:06:35.087Z</time></trkpt><trkpt lat="42.0735581" lon="13.5984151"><ele>900.5</ele><time>2026-05-02T13:06:36.09Z</time></trkpt><trkpt lat="42.0736733" lon="13.5983506"><ele>904.0</ele><time>2026-05-02T13:06:37.089Z</time></trkpt><trkpt lat="42.0738111" lon="13.5982847"><ele>904.0</ele><time>2026-05-02T13:06:38.087Z</time></trkpt><trkpt lat="42.0739594" lon="13.5982369"><ele>904.0</ele><time>2026-05-02T13:06:39.085Z</time></trkpt><trkpt lat="42.0741048" lon="13.5982187"><ele>904.0</ele><time>2026-05-02T13:06:40.091Z</time></trkpt><trkpt lat="42.07424" lon="13.5982086"><ele>904.0</ele><time>2026-05-02T13:06:41.089Z</time></trkpt><trkpt lat="42.0743858" lon="13.5981975"><ele>906.25</ele><time>2026-05-02T13:06:42.093Z</time></trkpt><trkpt lat="42.074533" lon="13.5981975"><ele>908.5</ele><time>2026-05-02T13:06:43.088Z</time></trkpt><trkpt lat="42.0746745" lon="13.5981995"><ele>910.75</ele><time>2026-05-02T13:06:44.092Z</time></trkpt><trkpt lat="42.0748058" lon="13.5982187"><ele>913.0</ele><time>2026-05-02T13:06:45.094Z</time></trkpt><trkpt lat="42.0749306" lon="13.5982372"><ele>915.75</ele><time>2026-05-02T13:06:46.091Z</time></trkpt><trkpt lat="42.0750688" lon="13.5982447"><ele>918.5</ele><time>2026-05-02T13:06:47.092Z</time></trkpt><trkpt lat="42.0752091" lon="13.5982482"><ele>921.25</ele><time>2026-05-02T13:06:48.098Z</time></trkpt><trkpt lat="42.0753574" lon="13.5982671"><ele>924.0</ele><time>2026-05-02T13:06:49.091Z</time></trkpt><trkpt lat="42.0755296" lon="13.5982625"><ele>924.0</ele><time>2026-05-02T13:06:50.097Z</time></trkpt><trkpt lat="42.0756953" lon="13.5982553"><ele>924.0</ele><time>2026-05-02T13:06:51.088Z</time></trkpt><trkpt lat="42.0758531" lon="13.5982579"><ele>924.0</ele><time>2026-05-02T13:06:52.097Z</time></trkpt><trkpt lat="42.076008" lon="13.5982561"><ele>926.5</ele><time>2026-05-02T13:06:53.084Z</time></trkpt><trkpt lat="42.0761523" lon="13.5982219"><ele>929.0</ele><time>2026-05-02T13:06:54.087Z</time></trkpt><trkpt lat="42.0762811" lon="13.5981817"><ele>931.5</ele><time>2026-05-02T13:06:55.081Z</time></trkpt><trkpt lat="42.076388" lon="13.598127"><ele>934.0</ele><time>2026-05-02T13:06:56.082Z</time></trkpt><trkpt lat="42.0764952" lon="13.5980175"><ele>934.0</ele><time>2026-05-02T13:06:57.083Z</time></trkpt><trkpt lat="42.0765898" lon="13.5978722"><ele>934.0</ele><time>2026-05-02T13:06:58.08Z</time></trkpt><trkpt lat="42.0766678" lon="13.5976999"><ele>934.0</ele><time>2026-05-02T13:06:59.089Z</time></trkpt><trkpt lat="42.0767428" lon="13.5975543"><ele>934.0</ele><time>2026-05-02T13:07:00.089Z</time></trkpt><trkpt lat="42.0768219" lon="13.5974443"><ele>936.8000000000001</ele><time>2026-05-02T13:07:01.084Z</time></trkpt><trkpt lat="42.0769104" lon="13.5973634"><ele>939.6000000000001</ele><time>2026-05-02T13:07:02.083Z</time></trkpt><trkpt lat="42.0770143" lon="13.597313"><ele>942.4</ele><time>2026-05-02T13:07:03.083Z</time></trkpt><trkpt lat="42.0771219" lon="13.5972829"><ele>945.2</ele><time>2026-05-02T13:07:04.071Z</time></trkpt><trkpt lat="42.0772259" lon="13.5972744"><ele>948.0</ele><time>2026-05-02T13:07:05.077Z</time></trkpt><trkpt lat="42.0773155" lon="13.5973194"><ele>948.0</ele><time>2026-05-02T13:07:06.075Z</time></trkpt><trkpt lat="42.077388" lon="13.5974021"><ele>948.0</ele><time>2026-05-02T13:07:07.075Z</time></trkpt><trkpt lat="42.0774286" lon="13.5975562"><ele>948.0</ele><time>2026-05-02T13:07:08.064Z</time></trkpt><trkpt lat="42.0774613" lon="13.5977282"><ele>948.0</ele><time>2026-05-02T13:07:09.074Z</time></trkpt><trkpt lat="42.0774986" lon="13.5978803"><ele>949.4</ele><time>2026-05-02T13:07:10.062Z</time></trkpt><trkpt lat="42.0775372" lon="13.5980047"><ele>950.8</ele><time>2026-05-02T13:07:11.07Z</time></trkpt><trkpt lat="42.0776034" lon="13.5980338"><ele>952.2</ele><time>2026-05-02T13:07:12.066Z</time></trkpt><trkpt lat="42.0776974" lon="13.5979349"><ele>953.6</ele><time>2026-05-02T13:07:14.066Z</time></trkpt><trkpt lat="42.0777065" lon="13.5978348"><ele>955.0</ele><time>2026-05-02T13:07:15.075Z</time></trkpt><trkpt lat="42.0776663" lon="13.5977153"><ele>952.6666666666666</ele><time>2026-05-02T13:07:16.066Z</time></trkpt><trkpt lat="42.0776019" lon="13.5975658"><ele>950.3333333333333</ele><time>2026-05-02T13:07:17.068Z</time></trkpt><trkpt lat="42.0775184" lon="13.5973965"><ele>948.0</ele><time>2026-05-02T13:07:18.065Z</time></trkpt><trkpt lat="42.0774137" lon="13.5972055"><ele>948.0</ele><time>2026-05-02T13:07:19.069Z</time></trkpt><trkpt lat="42.0773306" lon="13.597012"><ele>948.0</ele><time>2026-05-02T13:07:20.063Z</time></trkpt><trkpt lat="42.0772502" lon="13.5968076"><ele>948.0</ele><time>2026-05-02T13:07:21.068Z</time></trkpt><trkpt lat="42.0771907" lon="13.5966048"><ele>949.75</ele><time>2026-05-02T13:07:22.068Z</time></trkpt><trkpt lat="42.0771241" lon="13.5964259"><ele>951.5</ele><time>2026-05-02T13:07:23.076Z</time></trkpt><trkpt lat="42.077085" lon="13.5962532"><ele>953.25</ele><time>2026-05-02T13:07:24.079Z</time></trkpt><trkpt lat="42.0770774" lon="13.5960988"><ele>955.0</ele><time>2026-05-02T13:07:25.082Z</time></trkpt><trkpt lat="42.0771038" lon="13.5959544"><ele>955.0</ele><time>2026-05-02T13:07:26.084Z</time></trkpt><trkpt lat="42.0771467" lon="13.5958188"><ele>955.0</ele><time>2026-05-02T13:07:27.084Z</time></trkpt><trkpt lat="42.0772253" lon="13.5956723"><ele>955.0</ele><time>2026-05-02T13:07:28.09Z</time></trkpt><trkpt lat="42.0773094" lon="13.5955362"><ele>955.0</ele><time>2026-05-02T13:07:29.09Z</time></trkpt><trkpt lat="42.0774109" lon="13.5954133"><ele>959.6666666666666</ele><time>2026-05-02T13:07:30.09Z</time></trkpt><trkpt lat="42.0775421" lon="13.5953231"><ele>964.3333333333333</ele><time>2026-05-02T13:07:31.091Z</time></trkpt><trkpt lat="42.0776864" lon="13.5952097"><ele>969.0</ele><time>2026-05-02T13:07:32.093Z</time></trkpt><trkpt lat="42.0778094" lon="13.5950794"><ele>969.0</ele><time>2026-05-02T13:07:33.092Z</time></trkpt><trkpt lat="42.0779134" lon="13.5949414"><ele>969.0</ele><time>2026-05-02T13:07:34.09Z</time></trkpt><trkpt lat="42.0779919" lon="13.5948117"><ele>969.0</ele><time>2026-05-02T13:07:35.083Z</time></trkpt><trkpt lat="42.078083" lon="13.5947271"><ele>969.0</ele><time>2026-05-02T13:07:36.087Z</time></trkpt><trkpt lat="42.0781881" lon="13.5946657"><ele>973.25</ele><time>2026-05-02T13:07:37.079Z</time></trkpt><trkpt lat="42.0783073" lon="13.5945919"><ele>977.5</ele><time>2026-05-02T13:07:38.081Z</time></trkpt><trkpt lat="42.0783753" lon="13.5944696"><ele>981.75</ele><time>2026-05-02T13:07:39.078Z</time></trkpt><trkpt lat="42.0783721" lon="13.5942979"><ele>986.0</ele><time>2026-05-02T13:07:40.081Z</time></trkpt><trkpt lat="42.078348" lon="13.5941489"><ele>986.0</ele><time>2026-05-02T13:07:41.084Z</time></trkpt><trkpt lat="42.0783264" lon="13.59401"><ele>985.9999999999999</ele><time>2026-05-02T13:07:42.075Z</time></trkpt><trkpt lat="42.0783127" lon="13.5938586"><ele>985.9999999999999</ele><time>2026-05-02T13:07:43.081Z</time></trkpt><trkpt lat="42.0783251" lon="13.5937239"><ele>986.0</ele><time>2026-05-02T13:07:44.082Z</time></trkpt><trkpt lat="42.0783874" lon="13.5936057"><ele>986.0</ele><time>2026-05-02T13:07:45.087Z</time></trkpt><trkpt lat="42.0784821" lon="13.5934959"><ele>983.5</ele><time>2026-05-02T13:07:46.082Z</time></trkpt><trkpt lat="42.0785868" lon="13.5933946"><ele>981.0</ele><time>2026-05-02T13:07:47.087Z</time></trkpt><trkpt lat="42.0786909" lon="13.5932856"><ele>978.5</ele><time>2026-05-02T13:07:48.092Z</time></trkpt><trkpt lat="42.0788078" lon="13.5931851"><ele>976.0</ele><time>2026-05-02T13:07:49.088Z</time></trkpt><trkpt lat="42.078926" lon="13.5930828"><ele>976.0</ele><time>2026-05-02T13:07:50.096Z</time></trkpt><trkpt lat="42.0790382" lon="13.5929809"><ele>976.0</ele><time>2026-05-02T13:07:51.087Z</time></trkpt><trkpt lat="42.0791441" lon="13.592888"><ele>976.0</ele><time>2026-05-02T13:07:52.093Z</time></trkpt><trkpt lat="42.079251" lon="13.5928079"><ele>976.0</ele><time>2026-05-02T13:07:53.087Z</time></trkpt><trkpt lat="42.0793501" lon="13.5927292"><ele>979.5</ele><time>2026-05-02T13:07:54.092Z</time></trkpt><trkpt lat="42.0794476" lon="13.5926487"><ele>983.0</ele><time>2026-05-02T13:07:55.09Z</time></trkpt><trkpt lat="42.0795452" lon="13.5925692"><ele>986.5</ele><time>2026-05-02T13:07:56.093Z</time></trkpt><trkpt lat="42.079643" lon="13.5924873"><ele>990.0</ele><time>2026-05-02T13:07:57.088Z</time></trkpt><trkpt lat="42.0797313" lon="13.5924029"><ele>990.0</ele><time>2026-05-02T13:07:58.089Z</time></trkpt><trkpt lat="42.0798118" lon="13.5923265"><ele>990.0</ele><time>2026-05-02T13:07:59.091Z</time></trkpt><trkpt lat="42.0798858" lon="13.5922579"><ele>990.0</ele><time>2026-05-02T13:08:00.092Z</time></trkpt><trkpt lat="42.0799562" lon="13.5921867"><ele>990.0</ele><time>2026-05-02T13:08:01.089Z</time></trkpt><trkpt lat="42.0800267" lon="13.5921173"><ele>990.0</ele><time>2026-05-02T13:08:02.081Z</time></trkpt><trkpt lat="42.0800872" lon="13.5920591"><ele>990.0</ele><time>2026-05-02T13:08:03.083Z</time></trkpt><trkpt lat="42.0801431" lon="13.5920132"><ele>992.8</ele><time>2026-05-02T13:08:04.091Z</time></trkpt><trkpt lat="42.0802238" lon="13.5919595"><ele>995.6</ele><time>2026-05-02T13:08:06.085Z</time></trkpt><trkpt lat="42.0803003" lon="13.591907"><ele>998.4000000000001</ele><time>2026-05-02T13:08:09.084Z</time></trkpt><trkpt lat="42.0803548" lon="13.5918584"><ele>1001.2</ele><time>2026-05-02T13:08:12.089Z</time></trkpt><trkpt lat="42.0804474" lon="13.5917736"><ele>1004.0</ele><time>2026-05-02T13:08:15.083Z</time></trkpt><trkpt lat="42.0805237" lon="13.5916937"><ele>1004.0</ele><time>2026-05-02T13:08:17.082Z</time></trkpt><trkpt lat="42.0805927" lon="13.5916278"><ele>1004.0000000000001</ele><time>2026-05-02T13:08:19.088Z</time></trkpt><trkpt lat="42.0806629" lon="13.5915313"><ele>1004.0000000000001</ele><time>2026-05-02T13:08:21.089Z</time></trkpt><trkpt lat="42.0807201" lon="13.5914052"><ele>1004.0</ele><time>2026-05-02T13:08:23.08Z</time></trkpt><trkpt lat="42.080751" lon="13.5912802"><ele>1004.0</ele><time>2026-05-02T13:08:25.077Z</time></trkpt><trkpt lat="42.0806959" lon="13.5911657"><ele>1004.8333333333334</ele><time>2026-05-02T13:08:27.086Z</time></trkpt><trkpt lat="42.0806304" lon="13.5911328"><ele>1005.6666666666667</ele><time>2026-05-02T13:08:28.077Z</time></trkpt><trkpt lat="42.08055" lon="13.5911001"><ele>1006.5</ele><time>2026-05-02T13:08:29.08Z</time></trkpt><trkpt lat="42.0804685" lon="13.5910524"><ele>1007.3333333333333</ele><time>2026-05-02T13:08:30.08Z</time></trkpt><trkpt lat="42.0803861" lon="13.5909994"><ele>1008.1666666666666</ele><time>2026-05-02T13:08:31.08Z</time></trkpt><trkpt lat="42.0803033" lon="13.5909538"><ele>1009.0</ele><time>2026-05-02T13:08:32.079Z</time></trkpt><trkpt lat="42.0802245" lon="13.590913"><ele>1008.9999999999999</ele><time>2026-05-02T13:08:33.078Z</time></trkpt><trkpt lat="42.0801591" lon="13.5908664"><ele>1009.0</ele><time>2026-05-02T13:08:34.073Z</time></trkpt><trkpt lat="42.0800956" lon="13.5908234"><ele>1009.0</ele><time>2026-05-02T13:08:35.08Z</time></trkpt><trkpt lat="42.0800376" lon="13.5907844"><ele>1009.0</ele><time>2026-05-02T13:08:36.075Z</time></trkpt><trkpt lat="42.0799292" lon="13.590719"><ele>1008.9999999999999</ele><time>2026-05-02T13:08:38.077Z</time></trkpt><trkpt lat="42.0798503" lon="13.5906726"><ele>1009.0</ele><time>2026-05-02T13:08:40.077Z</time></trkpt><trkpt lat="42.079788" lon="13.5906035"><ele>1004.3333333333333</ele><time>2026-05-02T13:08:42.078Z</time></trkpt><trkpt lat="42.0797387" lon="13.5904829"><ele>999.6666666666666</ele><time>2026-05-02T13:08:44.079Z</time></trkpt><trkpt lat="42.0797298" lon="13.5903377"><ele>995.0</ele><time>2026-05-02T13:08:46.081Z</time></trkpt><trkpt lat="42.0797332" lon="13.5902184"><ele>990.3333333333333</ele><time>2026-05-02T13:08:48.082Z</time></trkpt><trkpt lat="42.0797217" lon="13.5901323"><ele>985.6666666666666</ele><time>2026-05-02T13:08:50.078Z</time></trkpt><trkpt lat="42.0797178" lon="13.5900357"><ele>981.0</ele><time>2026-05-02T13:08:52.078Z</time></trkpt><trkpt lat="42.0797254" lon="13.5898949"><ele>980.8</ele><time>2026-05-02T13:08:54.08Z</time></trkpt><trkpt lat="42.0797687" lon="13.5897391"><ele>980.5999999999999</ele><time>2026-05-02T13:08:56.081Z</time></trkpt><trkpt lat="42.079805" lon="13.5896538"><ele>980.4</ele><time>2026-05-02T13:08:57.084Z</time></trkpt><trkpt lat="42.079846" lon="13.5895521"><ele>980.2</ele><time>2026-05-02T13:08:58.088Z</time></trkpt><trkpt lat="42.0798941" lon="13.5894429"><ele>980.0</ele><time>2026-05-02T13:08:59.086Z</time></trkpt><trkpt lat="42.0799396" lon="13.5893244"><ele>984.0</ele><time>2026-05-02T13:09:00.082Z</time></trkpt><trkpt lat="42.0799809" lon="13.5891997"><ele>988.0</ele><time>2026-05-02T13:09:01.088Z</time></trkpt><trkpt lat="42.0800208" lon="13.5890909"><ele>992.0</ele><time>2026-05-02T13:09:02.087Z</time></trkpt><trkpt lat="42.0800733" lon="13.588996"><ele>996.0</ele><time>2026-05-02T13:09:03.085Z</time></trkpt><trkpt lat="42.0801446" lon="13.5889231"><ele>1000.0</ele><time>2026-05-02T13:09:04.085Z</time></trkpt><trkpt lat="42.080226" lon="13.5888544"><ele>999.9999999999999</ele><time>2026-05-02T13:09:05.084Z</time></trkpt><trkpt lat="42.0803099" lon="13.5887931"><ele>1000.0</ele><time>2026-05-02T13:09:06.087Z</time></trkpt><trkpt lat="42.0803968" lon="13.5887436"><ele>1000.0</ele><time>2026-05-02T13:09:07.082Z</time></trkpt><trkpt lat="42.0804786" lon="13.5886918"><ele>1000.0</ele><time>2026-05-02T13:09:08.087Z</time></trkpt><trkpt lat="42.0805595" lon="13.588643"><ele>999.9999999999999</ele><time>2026-05-02T13:09:09.083Z</time></trkpt><trkpt lat="42.0806294" lon="13.5885944"><ele>1000.0</ele><time>2026-05-02T13:09:10.086Z</time></trkpt><trkpt lat="42.0806869" lon="13.5885469"><ele>999.1666666666666</ele><time>2026-05-02T13:09:11.085Z</time></trkpt><trkpt lat="42.080797" lon="13.5885022"><ele>998.3333333333333</ele><time>2026-05-02T13:09:13.085Z</time></trkpt><trkpt lat="42.0808653" lon="13.5885005"><ele>997.5</ele><time>2026-05-02T13:09:14.087Z</time></trkpt><trkpt lat="42.0809453" lon="13.5885095"><ele>996.6666666666667</ele><time>2026-05-02T13:09:15.086Z</time></trkpt><trkpt lat="42.081035" lon="13.5885449"><ele>995.8333333333334</ele><time>2026-05-02T13:09:16.087Z</time></trkpt><trkpt lat="42.081119" lon="13.588581"><ele>995.0</ele><time>2026-05-02T13:09:17.08Z</time></trkpt><trkpt lat="42.081203" lon="13.5886227"><ele>995.0000000000001</ele><time>2026-05-02T13:09:18.082Z</time></trkpt><trkpt lat="42.0812839" lon="13.5886752"><ele>995.0</ele><time>2026-05-02T13:09:19.085Z</time></trkpt><trkpt lat="42.0813622" lon="13.5887258"><ele>995.0</ele><time>2026-05-02T13:09:20.083Z</time></trkpt><trkpt lat="42.0814384" lon="13.5887793"><ele>995.0</ele><time>2026-05-02T13:09:21.083Z</time></trkpt><trkpt lat="42.0815141" lon="13.588836"><ele>995.0000000000001</ele><time>2026-05-02T13:09:22.08Z</time></trkpt><trkpt lat="42.081589" lon="13.5888911"><ele>995.0</ele><time>2026-05-02T13:09:23.086Z</time></trkpt><trkpt lat="42.0816694" lon="13.5889478"><ele>997.0</ele><time>2026-05-02T13:09:24.081Z</time></trkpt><trkpt lat="42.0817573" lon="13.5889966"><ele>999.0</ele><time>2026-05-02T13:09:25.078Z</time></trkpt><trkpt lat="42.081843" lon="13.5890403"><ele>1001.0</ele><time>2026-05-02T13:09:26.076Z</time></trkpt><trkpt lat="42.081926" lon="13.5890753"><ele>1003.0</ele><time>2026-05-02T13:09:27.078Z</time></trkpt><trkpt lat="42.0820087" lon="13.589105"><ele>1005.0</ele><time>2026-05-02T13:09:28.08Z</time></trkpt><trkpt lat="42.0820955" lon="13.5891392"><ele>1005.0</ele><time>2026-05-02T13:09:29.073Z</time></trkpt><trkpt lat="42.0821808" lon="13.5891719"><ele>1005.0</ele><time>2026-05-02T13:09:30.08Z</time></trkpt><trkpt lat="42.0822615" lon="13.5892017"><ele>1005.0</ele><time>2026-05-02T13:09:31.08Z</time></trkpt><trkpt lat="42.0823353" lon="13.589231"><ele>1005.0</ele><time>2026-05-02T13:09:32.076Z</time></trkpt><trkpt lat="42.0823972" lon="13.5892723"><ele>1005.0</ele><time>2026-05-02T13:09:33.074Z</time></trkpt><trkpt lat="42.0824985" lon="13.5893192"><ele>1005.0</ele><time>2026-05-02T13:09:35.074Z</time></trkpt><trkpt lat="42.0825878" lon="13.5893093"><ele>1005.5</ele><time>2026-05-02T13:09:37.082Z</time></trkpt><trkpt lat="42.082659" lon="13.589313"><ele>1006.0</ele><time>2026-05-02T13:09:40.079Z</time></trkpt><trkpt lat="42.082717" lon="13.5892209"><ele>1006.5</ele><time>2026-05-02T13:09:46.075Z</time></trkpt><trkpt lat="42.0826889" lon="13.5890933"><ele>1007.0</ele><time>2026-05-02T13:09:48.075Z</time></trkpt><trkpt lat="42.0826707" lon="13.5889711"><ele>1007.5</ele><time>2026-05-02T13:09:50.083Z</time></trkpt><trkpt lat="42.0826244" lon="13.5888725"><ele>1008.0</ele><time>2026-05-02T13:09:53.073Z</time></trkpt><trkpt lat="42.0826773" lon="13.5887951"><ele>1008.0</ele><time>2026-05-02T13:09:58.08Z</time></trkpt><trkpt lat="42.0828065" lon="13.5888163"><ele>1008.0</ele><time>2026-05-02T13:10:00.084Z</time></trkpt><trkpt lat="42.0828836" lon="13.58883"><ele>1008.0</ele><time>2026-05-02T13:10:01.075Z</time></trkpt><trkpt lat="42.0829569" lon="13.588843"><ele>1008.0</ele><time>2026-05-02T13:10:02.08Z</time></trkpt><trkpt lat="42.0830303" lon="13.5888598"><ele>1008.0</ele><time>2026-05-02T13:10:03.08Z</time></trkpt><trkpt lat="42.0831047" lon="13.5888754"><ele>1008.0</ele><time>2026-05-02T13:10:04.076Z</time></trkpt><trkpt lat="42.083183" lon="13.5888822"><ele>1006.5</ele><time>2026-05-02T13:10:05.082Z</time></trkpt><trkpt lat="42.0832656" lon="13.5888898"><ele>1005.0</ele><time>2026-05-02T13:10:06.085Z</time></trkpt><trkpt lat="42.0833467" lon="13.5889071"><ele>1003.5</ele><time>2026-05-02T13:10:07.081Z</time></trkpt><trkpt lat="42.0834327" lon="13.5889135"><ele>1002.0</ele><time>2026-05-02T13:10:08.087Z</time></trkpt><trkpt lat="42.083518" lon="13.5889154"><ele>1000.5</ele><time>2026-05-02T13:10:09.084Z</time></trkpt><trkpt lat="42.0836008" lon="13.5889151"><ele>999.0</ele><time>2026-05-02T13:10:10.082Z</time></trkpt><trkpt lat="42.0836855" lon="13.5889052"><ele>999.0</ele><time>2026-05-02T13:10:11.085Z</time></trkpt><trkpt lat="42.083775" lon="13.5889012"><ele>999.0</ele><time>2026-05-02T13:10:12.083Z</time></trkpt><trkpt lat="42.0838617" lon="13.5889024"><ele>999.0</ele><time>2026-05-02T13:10:13.084Z</time></trkpt><trkpt lat="42.0839465" lon="13.5889096"><ele>999.0</ele><time>2026-05-02T13:10:14.079Z</time></trkpt><trkpt lat="42.0840368" lon="13.5889155"><ele>999.0</ele><time>2026-05-02T13:10:15.083Z</time></trkpt><trkpt lat="42.0841174" lon="13.5889185"><ele>999.0</ele><time>2026-05-02T13:10:16.075Z</time></trkpt><trkpt lat="42.0841942" lon="13.5889023"><ele>997.5714285714287</ele><time>2026-05-02T13:10:17.072Z</time></trkpt><trkpt lat="42.084261" lon="13.5888851"><ele>996.1428571428572</ele><time>2026-05-02T13:10:18.078Z</time></trkpt><trkpt lat="42.0843276" lon="13.5888762"><ele>994.7142857142858</ele><time>2026-05-02T13:10:19.083Z</time></trkpt><trkpt lat="42.0844001" lon="13.5888767"><ele>993.2857142857142</ele><time>2026-05-02T13:10:20.08Z</time></trkpt><trkpt lat="42.0844727" lon="13.5888633"><ele>991.8571428571428</ele><time>2026-05-02T13:10:21.084Z</time></trkpt><trkpt lat="42.084551" lon="13.5888387"><ele>990.4285714285713</ele><time>2026-05-02T13:10:22.08Z</time></trkpt><trkpt lat="42.0846319" lon="13.5888183"><ele>989.0</ele><time>2026-05-02T13:10:23.085Z</time></trkpt><trkpt lat="42.0847063" lon="13.5888118"><ele>989.0</ele><time>2026-05-02T13:10:24.077Z</time></trkpt><trkpt lat="42.0848193" lon="13.588806"><ele>989.0000000000001</ele><time>2026-05-02T13:10:26.076Z</time></trkpt><trkpt lat="42.0848582" lon="13.5887223"><ele>989.0000000000001</ele><time>2026-05-02T13:10:28.08Z</time></trkpt><trkpt lat="42.0847842" lon="13.5886371"><ele>989.0</ele><time>2026-05-02T13:10:30.078Z</time></trkpt><trkpt lat="42.0846668" lon="13.5886325"><ele>989.0</ele><time>2026-05-02T13:10:32.081Z</time></trkpt><trkpt lat="42.0845922" lon="13.5886439"><ele>985.5000000000001</ele><time>2026-05-02T13:10:33.076Z</time></trkpt><trkpt lat="42.0845146" lon="13.5886284"><ele>982.0</ele><time>2026-05-02T13:10:34.078Z</time></trkpt><trkpt lat="42.0844485" lon="13.5885674"><ele>978.5</ele><time>2026-05-02T13:10:35.071Z</time></trkpt><trkpt lat="42.0843856" lon="13.5884975"><ele>975.0</ele><time>2026-05-02T13:10:36.075Z</time></trkpt><trkpt lat="42.0843161" lon="13.5884354"><ele>971.5000000000001</ele><time>2026-05-02T13:10:37.081Z</time></trkpt><trkpt lat="42.0842544" lon="13.5883786"><ele>968.0</ele><time>2026-05-02T13:10:38.078Z</time></trkpt><trkpt lat="42.0842071" lon="13.5883109"><ele>968.0</ele><time>2026-05-02T13:10:39.081Z</time></trkpt><trkpt lat="42.0841699" lon="13.588169"><ele>968.0</ele><time>2026-05-02T13:10:41.076Z</time></trkpt><trkpt lat="42.0841848" lon="13.5880695"><ele>968.0</ele><time>2026-05-02T13:10:43.08Z</time></trkpt><trkpt lat="42.0842513" lon="13.588016"><ele>968.0</ele><time>2026-05-02T13:10:45.077Z</time></trkpt><trkpt lat="42.0843627" lon="13.5879638"><ele>968.0</ele><time>2026-05-02T13:10:47.079Z</time></trkpt><trkpt lat="42.0844526" lon="13.5878829"><ele>965.8333333333334</ele><time>2026-05-02T13:10:49.081Z</time></trkpt><trkpt lat="42.0845104" lon="13.5878221"><ele>963.6666666666667</ele><time>2026-05-02T13:10:51.081Z</time></trkpt><trkpt lat="42.0845782" lon="13.5877117"><ele>961.5</ele><time>2026-05-02T13:10:53.081Z</time></trkpt><trkpt lat="42.0846176" lon="13.5876225"><ele>959.3333333333333</ele><time>2026-05-02T13:10:54.077Z</time></trkpt><trkpt lat="42.084668" lon="13.5875297"><ele>957.1666666666666</ele><time>2026-05-02T13:10:55.079Z</time></trkpt><trkpt lat="42.0847388" lon="13.587442"><ele>955.0</ele><time>2026-05-02T13:10:56.081Z</time></trkpt><trkpt lat="42.0848113" lon="13.5873588"><ele>955.0</ele><time>2026-05-02T13:10:57.078Z</time></trkpt><trkpt lat="42.0848854" lon="13.5872794"><ele>955.0</ele><time>2026-05-02T13:10:58.08Z</time></trkpt><trkpt lat="42.0849712" lon="13.5872057"><ele>955.0</ele><time>2026-05-02T13:10:59.076Z</time></trkpt><trkpt lat="42.0850635" lon="13.5871452"><ele>955.0</ele><time>2026-05-02T13:11:00.082Z</time></trkpt><trkpt lat="42.085156" lon="13.5871057"><ele>955.0</ele><time>2026-05-02T13:11:01.08Z</time></trkpt><trkpt lat="42.0852445" lon="13.5870875"><ele>954.3333333333333</ele><time>2026-05-02T13:11:02.079Z</time></trkpt><trkpt lat="42.0853296" lon="13.587065"><ele>953.6666666666666</ele><time>2026-05-02T13:11:03.076Z</time></trkpt><trkpt lat="42.0854043" lon="13.5870382"><ele>953.0</ele><time>2026-05-02T13:11:04.081Z</time></trkpt><trkpt lat="42.085465" lon="13.5869939"><ele>952.3333333333333</ele><time>2026-05-02T13:11:05.074Z</time></trkpt><trkpt lat="42.0855432" lon="13.5868704"><ele>951.6666666666666</ele><time>2026-05-02T13:11:07.074Z</time></trkpt><trkpt lat="42.0855739" lon="13.5867817"><ele>951.0</ele><time>2026-05-02T13:11:08.072Z</time></trkpt><trkpt lat="42.0855742" lon="13.5866963"><ele>949.8</ele><time>2026-05-02T13:11:09.079Z</time></trkpt><trkpt lat="42.0855502" lon="13.5866055"><ele>948.5999999999999</ele><time>2026-05-02T13:11:10.079Z</time></trkpt><trkpt lat="42.0855099" lon="13.586502"><ele>947.4</ele><time>2026-05-02T13:11:11.079Z</time></trkpt><trkpt lat="42.0854595" lon="13.5863916"><ele>946.2</ele><time>2026-05-02T13:11:12.087Z</time></trkpt><trkpt lat="42.0854181" lon="13.5862719"><ele>945.0</ele><time>2026-05-02T13:11:13.077Z</time></trkpt><trkpt lat="42.0853865" lon="13.5861467"><ele>944.8333333333334</ele><time>2026-05-02T13:11:14.086Z</time></trkpt><trkpt lat="42.0853769" lon="13.5860227"><ele>944.6666666666667</ele><time>2026-05-02T13:11:15.08Z</time></trkpt><trkpt lat="42.0853803" lon="13.5859124"><ele>944.5</ele><time>2026-05-02T13:11:16.08Z</time></trkpt><trkpt lat="42.0853882" lon="13.5858005"><ele>944.3333333333334</ele><time>2026-05-02T13:11:17.087Z</time></trkpt><trkpt lat="42.0854079" lon="13.585696"><ele>944.1666666666667</ele><time>2026-05-02T13:11:18.081Z</time></trkpt><trkpt lat="42.0854282" lon="13.5856086"><ele>944.0</ele><time>2026-05-02T13:11:19.084Z</time></trkpt><trkpt lat="42.0854602" lon="13.5855235"><ele>944.0</ele><time>2026-05-02T13:11:20.077Z</time></trkpt><trkpt lat="42.0855025" lon="13.5854308"><ele>944.0000000000001</ele><time>2026-05-02T13:11:21.078Z</time></trkpt><trkpt lat="42.0855505" lon="13.5853217"><ele>944.0000000000001</ele><time>2026-05-02T13:11:22.084Z</time></trkpt><trkpt lat="42.0855968" lon="13.5851996"><ele>944.0</ele><time>2026-05-02T13:11:23.08Z</time></trkpt><trkpt lat="42.0856439" lon="13.585077"><ele>944.0</ele><time>2026-05-02T13:11:24.079Z</time></trkpt><trkpt lat="42.0856928" lon="13.5849517"><ele>943.6</ele><time>2026-05-02T13:11:25.082Z</time></trkpt><trkpt lat="42.0857424" lon="13.584826"><ele>943.2</ele><time>2026-05-02T13:11:26.083Z</time></trkpt><trkpt lat="42.0857877" lon="13.5847005"><ele>942.8000000000001</ele><time>2026-05-02T13:11:27.087Z</time></trkpt><trkpt lat="42.0858358" lon="13.5845873"><ele>942.4000000000001</ele><time>2026-05-02T13:11:28.082Z</time></trkpt><trkpt lat="42.0858848" lon="13.5844942"><ele>942.0</ele><time>2026-05-02T13:11:29.086Z</time></trkpt><trkpt lat="42.085929" lon="13.5844213"><ele>945.6666666666666</ele><time>2026-05-02T13:11:30.079Z</time></trkpt><trkpt lat="42.0859817" lon="13.5843559"><ele>949.3333333333333</ele><time>2026-05-02T13:11:31.084Z</time></trkpt><trkpt lat="42.0860341" lon="13.5843025"><ele>953.0</ele><time>2026-05-02T13:11:32.081Z</time></trkpt><trkpt lat="42.0861191" lon="13.5842732"><ele>956.6666666666666</ele><time>2026-05-02T13:11:34.076Z</time></trkpt><trkpt lat="42.0861707" lon="13.5842145"><ele>960.3333333333333</ele><time>2026-05-02T13:11:38.085Z</time></trkpt><trkpt lat="42.0861484" lon="13.5841241"><ele>964.0</ele><time>2026-05-02T13:11:40.081Z</time></trkpt><trkpt lat="42.0861193" lon="13.5839582"><ele>964.0</ele><time>2026-05-02T13:11:42.08Z</time></trkpt><trkpt lat="42.086095" lon="13.5838515"><ele>964.0000000000001</ele><time>2026-05-02T13:11:43.089Z</time></trkpt><trkpt lat="42.0860657" lon="13.5837394"><ele>964.0000000000001</ele><time>2026-05-02T13:11:44.083Z</time></trkpt><trkpt lat="42.0860322" lon="13.5836241"><ele>964.0</ele><time>2026-05-02T13:11:45.081Z</time></trkpt><trkpt lat="42.0859953" lon="13.5835063"><ele>964.0</ele><time>2026-05-02T13:11:46.078Z</time></trkpt><trkpt lat="42.085948" lon="13.5833796"><ele>964.75</ele><time>2026-05-02T13:11:47.077Z</time></trkpt><trkpt lat="42.0858924" lon="13.5832417"><ele>965.5</ele><time>2026-05-02T13:11:48.082Z</time></trkpt><trkpt lat="42.0858236" lon="13.583107"><ele>966.25</ele><time>2026-05-02T13:11:49.081Z</time></trkpt><trkpt lat="42.0857564" lon="13.582985"><ele>967.0</ele><time>2026-05-02T13:11:50.076Z</time></trkpt><trkpt lat="42.0856918" lon="13.5828668"><ele>965.25</ele><time>2026-05-02T13:11:51.079Z</time></trkpt><trkpt lat="42.0856216" lon="13.582746"><ele>963.5</ele><time>2026-05-02T13:11:52.085Z</time></trkpt><trkpt lat="42.0855578" lon="13.5826178"><ele>961.75</ele><time>2026-05-02T13:11:53.073Z</time></trkpt><trkpt lat="42.0854985" lon="13.5824771"><ele>960.0</ele><time>2026-05-02T13:11:54.076Z</time></trkpt><trkpt lat="42.085441" lon="13.5823212"><ele>960.0</ele><time>2026-05-02T13:11:55.082Z</time></trkpt><trkpt lat="42.0853944" lon="13.5821548"><ele>960.0</ele><time>2026-05-02T13:11:56.076Z</time></trkpt><trkpt lat="42.0853547" lon="13.5819807"><ele>960.0</ele><time>2026-05-02T13:11:57.084Z</time></trkpt><trkpt lat="42.0853024" lon="13.5818167"><ele>960.0</ele><time>2026-05-02T13:11:58.094Z</time></trkpt><trkpt lat="42.0852458" lon="13.5816647"><ele>962.25</ele><time>2026-05-02T13:11:59.086Z</time></trkpt><trkpt lat="42.0851909" lon="13.5815191"><ele>964.5</ele><time>2026-05-02T13:12:00.087Z</time></trkpt><trkpt lat="42.0851432" lon="13.5813793"><ele>966.75</ele><time>2026-05-02T13:12:01.089Z</time></trkpt><trkpt lat="42.0850954" lon="13.5812445"><ele>969.0</ele><time>2026-05-02T13:12:02.084Z</time></trkpt><trkpt lat="42.0850489" lon="13.5811043"><ele>970.2</ele><time>2026-05-02T13:12:03.083Z</time></trkpt><trkpt lat="42.085012" lon="13.5809642"><ele>971.4000000000001</ele><time>2026-05-02T13:12:04.081Z</time></trkpt><trkpt lat="42.0849762" lon="13.5808293"><ele>972.6</ele><time>2026-05-02T13:12:05.08Z</time></trkpt><trkpt lat="42.0849414" lon="13.5807128"><ele>973.8</ele><time>2026-05-02T13:12:06.08Z</time></trkpt><trkpt lat="42.0849176" lon="13.5806165"><ele>975.0</ele><time>2026-05-02T13:12:07.082Z</time></trkpt><trkpt lat="42.0849045" lon="13.5805004"><ele>975.0</ele><time>2026-05-02T13:12:09.08Z</time></trkpt><trkpt lat="42.0848888" lon="13.5803906"><ele>975.0</ele><time>2026-05-02T13:12:16.09Z</time></trkpt><trkpt lat="42.084874" lon="13.5802633"><ele>975.0</ele><time>2026-05-02T13:12:19.081Z</time></trkpt><trkpt lat="42.0848681" lon="13.5801082"><ele>975.0</ele><time>2026-05-02T13:12:21.084Z</time></trkpt><trkpt lat="42.0848687" lon="13.5800151"><ele>975.0</ele><time>2026-05-02T13:12:22.089Z</time></trkpt><trkpt lat="42.0848791" lon="13.579925"><ele>975.0</ele><time>2026-05-02T13:12:23.085Z</time></trkpt><trkpt lat="42.0848921" lon="13.5798404"><ele>975.6</ele><time>2026-05-02T13:12:24.081Z</time></trkpt><trkpt lat="42.0849315" lon="13.5796991"><ele>976.2</ele><time>2026-05-02T13:12:26.086Z</time></trkpt><trkpt lat="42.0849879" lon="13.5795784"><ele>976.8</ele><time>2026-05-02T13:12:28.089Z</time></trkpt><trkpt lat="42.0850475" lon="13.5794609"><ele>977.4</ele><time>2026-05-02T13:12:30.083Z</time></trkpt><trkpt lat="42.0851084" lon="13.5793663"><ele>978.0</ele><time>2026-05-02T13:12:32.082Z</time></trkpt><trkpt lat="42.0851743" lon="13.5792788"><ele>975.2</ele><time>2026-05-02T13:12:34.083Z</time></trkpt><trkpt lat="42.0852438" lon="13.5791918"><ele>972.4</ele><time>2026-05-02T13:12:36.085Z</time></trkpt><trkpt lat="42.0853385" lon="13.5790761"><ele>969.6000000000001</ele><time>2026-05-02T13:12:38.086Z</time></trkpt><trkpt lat="42.085398" lon="13.579009"><ele>966.8000000000001</ele><time>2026-05-02T13:12:39.087Z</time></trkpt><trkpt lat="42.085453" lon="13.578939"><ele>964.0</ele><time>2026-05-02T13:12:40.086Z</time></trkpt><trkpt lat="42.0855004" lon="13.5788591"><ele>964.0</ele><time>2026-05-02T13:12:41.087Z</time></trkpt><trkpt lat="42.0855483" lon="13.5787838"><ele>964.0000000000001</ele><time>2026-05-02T13:12:42.089Z</time></trkpt><trkpt lat="42.0855949" lon="13.5787096"><ele>964.0</ele><time>2026-05-02T13:12:43.085Z</time></trkpt><trkpt lat="42.085643" lon="13.5786334"><ele>964.0</ele><time>2026-05-02T13:12:44.09Z</time></trkpt><trkpt lat="42.0856878" lon="13.578564"><ele>964.0000000000001</ele><time>2026-05-02T13:12:45.088Z</time></trkpt><trkpt lat="42.0857305" lon="13.5784931"><ele>964.0</ele><time>2026-05-02T13:12:46.084Z</time></trkpt><trkpt lat="42.0857668" lon="13.5784223"><ele>964.0</ele><time>2026-05-02T13:12:47.09Z</time></trkpt><trkpt lat="42.0857986" lon="13.5783463"><ele>963.6666666666666</ele><time>2026-05-02T13:12:48.089Z</time></trkpt><trkpt lat="42.0858313" lon="13.578264"><ele>963.3333333333333</ele><time>2026-05-02T13:12:49.088Z</time></trkpt><trkpt lat="42.0858678" lon="13.5781897"><ele>963.0</ele><time>2026-05-02T13:12:50.084Z</time></trkpt><trkpt lat="42.0859023" lon="13.5781137"><ele>962.6666666666667</ele><time>2026-05-02T13:12:51.089Z</time></trkpt><trkpt lat="42.0859492" lon="13.5779808"><ele>962.3333333333334</ele><time>2026-05-02T13:12:53.085Z</time></trkpt><trkpt lat="42.0859729" lon="13.5778905"><ele>962.0</ele><time>2026-05-02T13:12:55.082Z</time></trkpt><trkpt lat="42.0859905" lon="13.5777678"><ele>959.0</ele><time>2026-05-02T13:12:57.085Z</time></trkpt><trkpt lat="42.0860174" lon="13.5776405"><ele>956.0</ele><time>2026-05-02T13:12:59.088Z</time></trkpt><trkpt lat="42.0860703" lon="13.5775258"><ele>953.0</ele><time>2026-05-02T13:13:01.085Z</time></trkpt><trkpt lat="42.0860563" lon="13.577431"><ele>950.0</ele><time>2026-05-02T13:13:05.088Z</time></trkpt><trkpt lat="42.085977" lon="13.5773825"><ele>947.0</ele><time>2026-05-02T13:13:07.087Z</time></trkpt><trkpt lat="42.0858487" lon="13.5773579"><ele>947.0</ele><time>2026-05-02T13:13:09.089Z</time></trkpt><trkpt lat="42.0857753" lon="13.5773497"><ele>946.9999999999999</ele><time>2026-05-02T13:13:10.095Z</time></trkpt><trkpt lat="42.0857004" lon="13.5773443"><ele>947.0</ele><time>2026-05-02T13:13:11.09Z</time></trkpt><trkpt lat="42.0856273" lon="13.5773332"><ele>947.0</ele><time>2026-05-02T13:13:12.089Z</time></trkpt><trkpt lat="42.085558" lon="13.5773307"><ele>946.9999999999999</ele><time>2026-05-02T13:13:13.091Z</time></trkpt><trkpt lat="42.0854866" lon="13.5773348"><ele>947.0</ele><time>2026-05-02T13:13:14.091Z</time></trkpt><trkpt lat="42.0854159" lon="13.5773391"><ele>947.0</ele><time>2026-05-02T13:13:15.086Z</time></trkpt><trkpt lat="42.0852975" lon="13.5773571"><ele>944.2</ele><time>2026-05-02T13:13:17.089Z</time></trkpt><trkpt lat="42.0851746" lon="13.5773602"><ele>941.4000000000001</ele><time>2026-05-02T13:13:19.089Z</time></trkpt><trkpt lat="42.0850603" lon="13.5773566"><ele>938.5999999999999</ele><time>2026-05-02T13:13:21.09Z</time></trkpt><trkpt lat="42.0849726" lon="13.5772883"><ele>935.8</ele><time>2026-05-02T13:13:23.08Z</time></trkpt><trkpt lat="42.0849508" lon="13.5771448"><ele>933.0</ele><time>2026-05-02T13:13:25.084Z</time></trkpt><trkpt lat="42.0850198" lon="13.5770205"><ele>930.5</ele><time>2026-05-02T13:13:27.084Z</time></trkpt><trkpt lat="42.0850859" lon="13.5769581"><ele>928.0</ele><time>2026-05-02T13:13:29.091Z</time></trkpt><trkpt lat="42.0851706" lon="13.5769081"><ele>925.5</ele><time>2026-05-02T13:13:31.084Z</time></trkpt><trkpt lat="42.0852445" lon="13.5768603"><ele>923.0</ele><time>2026-05-02T13:13:33.085Z</time></trkpt><trkpt lat="42.0853313" lon="13.576842"><ele>920.5</ele><time>2026-05-02T13:13:35.091Z</time></trkpt><trkpt lat="42.0854203" lon="13.5767845"><ele>918.0</ele><time>2026-05-02T13:13:37.085Z</time></trkpt><trkpt lat="42.0854612" lon="13.5766573"><ele>918.0</ele><time>2026-05-02T13:13:39.083Z</time></trkpt><trkpt lat="42.0854541" lon="13.5765411"><ele>918.0</ele><time>2026-05-02T13:13:41.078Z</time></trkpt><trkpt lat="42.085402" lon="13.5764662"><ele>918.0</ele><time>2026-05-02T13:13:43.081Z</time></trkpt><trkpt lat="42.0853376" lon="13.5764353"><ele>918.0</ele><time>2026-05-02T13:13:45.089Z</time></trkpt><trkpt lat="42.0852542" lon="13.5764369"><ele>918.0</ele><time>2026-05-02T13:13:48.096Z</time></trkpt><trkpt lat="42.0851877" lon="13.5764478"><ele>918.0</ele><time>2026-05-02T13:13:50.091Z</time></trkpt><trkpt lat="42.0850997" lon="13.5764194"><ele>918.0</ele><time>2026-05-02T13:13:52.098Z</time></trkpt><trkpt lat="42.0850122" lon="13.576346"><ele>918.0</ele><time>2026-05-02T13:13:54.095Z</time></trkpt><trkpt lat="42.0849255" lon="13.5762963"><ele>918.0</ele><time>2026-05-02T13:13:56.094Z</time></trkpt><trkpt lat="42.0848499" lon="13.5762689"><ele>918.0</ele><time>2026-05-02T13:13:58.098Z</time></trkpt><trkpt lat="42.0847663" lon="13.576228"><ele>918.0</ele><time>2026-05-02T13:14:00.096Z</time></trkpt><trkpt lat="42.0846685" lon="13.5761952"><ele>913.5999999999999</ele><time>2026-05-02T13:14:02.088Z</time></trkpt><trkpt lat="42.0845729" lon="13.5761834"><ele>909.1999999999999</ele><time>2026-05-02T13:14:04.099Z</time></trkpt><trkpt lat="42.0844858" lon="13.5761708"><ele>904.8</ele><time>2026-05-02T13:14:06.097Z</time></trkpt><trkpt lat="42.0843863" lon="13.5761835"><ele>900.4</ele><time>2026-05-02T13:14:08.096Z</time></trkpt><trkpt lat="42.0842962" lon="13.5761571"><ele>896.0</ele><time>2026-05-02T13:14:10.099Z</time></trkpt><trkpt lat="42.0842163" lon="13.5761362"><ele>896.0000000000001</ele><time>2026-05-02T13:14:12.099Z</time></trkpt><trkpt lat="42.08413" lon="13.5761229"><ele>896.0</ele><time>2026-05-02T13:14:14.097Z</time></trkpt><trkpt lat="42.0840527" lon="13.5761124"><ele>896.0</ele><time>2026-05-02T13:14:16.092Z</time></trkpt><trkpt lat="42.0839829" lon="13.5760956"><ele>896.0</ele><time>2026-05-02T13:14:19.097Z</time></trkpt><trkpt lat="42.0839115" lon="13.5760832"><ele>896.0000000000001</ele><time>2026-05-02T13:14:21.1Z</time></trkpt><trkpt lat="42.0838179" lon="13.5760755"><ele>896.0</ele><time>2026-05-02T13:14:23.096Z</time></trkpt><trkpt lat="42.0837171" lon="13.5760731"><ele>895.4</ele><time>2026-05-02T13:14:25.097Z</time></trkpt><trkpt lat="42.0836236" lon="13.5760101"><ele>894.8</ele><time>2026-05-02T13:14:27.095Z</time></trkpt><trkpt lat="42.0835494" lon="13.5759201"><ele>894.1999999999999</ele><time>2026-05-02T13:14:29.099Z</time></trkpt><trkpt lat="42.0834855" lon="13.575828"><ele>893.5999999999999</ele><time>2026-05-02T13:14:31.098Z</time></trkpt><trkpt lat="42.083428" lon="13.5757461"><ele>893.0</ele><time>2026-05-02T13:14:33.09Z</time></trkpt><trkpt lat="42.0833717" lon="13.5756518"><ele>893.0</ele><time>2026-05-02T13:14:37.093Z</time></trkpt><trkpt lat="42.0833302" lon="13.5755582"><ele>893.0</ele><time>2026-05-02T13:14:39.094Z</time></trkpt><trkpt lat="42.0832633" lon="13.5754328"><ele>893.0</ele><time>2026-05-02T13:14:41.087Z</time></trkpt><trkpt lat="42.0832299" lon="13.5753552"><ele>893.0</ele><time>2026-05-02T13:14:42.096Z</time></trkpt><trkpt lat="42.0831812" lon="13.5752176"><ele>893.0</ele><time>2026-05-02T13:14:44.096Z</time></trkpt><trkpt lat="42.0831538" lon="13.5750926"><ele>891.6666666666667</ele><time>2026-05-02T13:14:46.096Z</time></trkpt><trkpt lat="42.0831363" lon="13.5750104"><ele>890.3333333333334</ele><time>2026-05-02T13:14:47.095Z</time></trkpt><trkpt lat="42.0831058" lon="13.5748962"><ele>889.0</ele><time>2026-05-02T13:14:48.092Z</time></trkpt><trkpt lat="42.0830784" lon="13.5747906"><ele>887.6666666666667</ele><time>2026-05-02T13:14:49.091Z</time></trkpt><trkpt lat="42.0830522" lon="13.5746952"><ele>886.3333333333334</ele><time>2026-05-02T13:14:50.098Z</time></trkpt><trkpt lat="42.0830112" lon="13.5746005"><ele>885.0</ele><time>2026-05-02T13:14:51.096Z</time></trkpt><trkpt lat="42.0829733" lon="13.5745058"><ele>884.0</ele><time>2026-05-02T13:14:52.094Z</time></trkpt><trkpt lat="42.0829247" lon="13.5744157"><ele>883.0</ele><time>2026-05-02T13:14:53.089Z</time></trkpt><trkpt lat="42.0828758" lon="13.5743342"><ele>882.0</ele><time>2026-05-02T13:14:54.087Z</time></trkpt><trkpt lat="42.0828344" lon="13.5742702"><ele>881.0</ele><time>2026-05-02T13:14:55.095Z</time></trkpt><trkpt lat="42.0827734" lon="13.5741686"><ele>880.0</ele><time>2026-05-02T13:14:57.09Z</time></trkpt><trkpt lat="42.0827051" lon="13.5740667"><ele>879.0</ele><time>2026-05-02T13:15:00.091Z</time></trkpt><trkpt lat="42.0826411" lon="13.5739649"><ele>879.0</ele><time>2026-05-02T13:15:02.09Z</time></trkpt><trkpt lat="42.0825692" lon="13.5738566"><ele>879.0000000000001</ele><time>2026-05-02T13:15:04.084Z</time></trkpt><trkpt lat="42.0824932" lon="13.5737226"><ele>879.0000000000001</ele><time>2026-05-02T13:15:06.085Z</time></trkpt><trkpt lat="42.0824167" lon="13.5736211"><ele>879.0</ele><time>2026-05-02T13:15:08.091Z</time></trkpt><trkpt lat="42.0823616" lon="13.57353"><ele>879.0</ele><time>2026-05-02T13:15:10.088Z</time></trkpt><trkpt lat="42.08231" lon="13.5734241"><ele>878.2</ele><time>2026-05-02T13:15:12.089Z</time></trkpt><trkpt lat="42.0822514" lon="13.5733121"><ele>877.4000000000001</ele><time>2026-05-02T13:15:14.094Z</time></trkpt><trkpt lat="42.0821904" lon="13.5732189"><ele>876.6</ele><time>2026-05-02T13:15:16.086Z</time></trkpt><trkpt lat="42.0821247" lon="13.5731347"><ele>875.8</ele><time>2026-05-02T13:15:18.091Z</time></trkpt><trkpt lat="42.0820569" lon="13.573052"><ele>875.0</ele><time>2026-05-02T13:15:20.087Z</time></trkpt><trkpt lat="42.0819848" lon="13.5729784"><ele>875.0</ele><time>2026-05-02T13:15:22.085Z</time></trkpt><trkpt lat="42.0818789" lon="13.5728919"><ele>875.0</ele><time>2026-05-02T13:15:24.084Z</time></trkpt><trkpt lat="42.0818289" lon="13.5728274"><ele>875.0</ele><time>2026-05-02T13:15:25.087Z</time></trkpt><trkpt lat="42.0817772" lon="13.572758"><ele>875.0</ele><time>2026-05-02T13:15:26.077Z</time></trkpt><trkpt lat="42.0816983" lon="13.5726295"><ele>875.0</ele><time>2026-05-02T13:15:28.091Z</time></trkpt><trkpt lat="42.0816589" lon="13.5725594"><ele>874.6666666666667</ele><time>2026-05-02T13:15:29.086Z</time></trkpt><trkpt lat="42.081574" lon="13.5724267"><ele>874.3333333333334</ele><time>2026-05-02T13:15:31.089Z</time></trkpt><trkpt lat="42.0815261" lon="13.5723532"><ele>874.0</ele><time>2026-05-02T13:15:32.086Z</time></trkpt><trkpt lat="42.0814774" lon="13.5722886"><ele>873.6666666666667</ele><time>2026-05-02T13:15:33.083Z</time></trkpt><trkpt lat="42.0814068" lon="13.5721858"><ele>873.3333333333334</ele><time>2026-05-02T13:15:35.087Z</time></trkpt><trkpt lat="42.0814077" lon="13.5720857"><ele>873.0</ele><time>2026-05-02T13:15:37.077Z</time></trkpt><trkpt lat="42.0814603" lon="13.5720292"><ele>871.6666666666666</ele><time>2026-05-02T13:15:39.082Z</time></trkpt><trkpt lat="42.0815321" lon="13.5719677"><ele>870.3333333333333</ele><time>2026-05-02T13:15:42.081Z</time></trkpt><trkpt lat="42.0815198" lon="13.5718838"><ele>869.0</ele><time>2026-05-02T13:15:48.09Z</time></trkpt><trkpt lat="42.0815034" lon="13.5717938"><ele>867.6666666666666</ele><time>2026-05-02T13:15:51.087Z</time></trkpt><trkpt lat="42.0814254" lon="13.5716823"><ele>866.3333333333333</ele><time>2026-05-02T13:15:53.085Z</time></trkpt><trkpt lat="42.0813704" lon="13.5716155"><ele>865.0</ele><time>2026-05-02T13:15:54.086Z</time></trkpt><trkpt lat="42.0812877" lon="13.571516"><ele>865.0</ele><time>2026-05-02T13:15:56.089Z</time></trkpt><trkpt lat="42.0812056" lon="13.5714234"><ele>865.0</ele><time>2026-05-02T13:15:58.089Z</time></trkpt><trkpt lat="42.0811076" lon="13.571361"><ele>865.0</ele><time>2026-05-02T13:16:00.087Z</time></trkpt><trkpt lat="42.0810053" lon="13.5712984"><ele>865.0</ele><time>2026-05-02T13:16:02.084Z</time></trkpt><trkpt lat="42.0809236" lon="13.5712071"><ele>865.0</ele><time>2026-05-02T13:16:04.088Z</time></trkpt><trkpt lat="42.0808464" lon="13.5711272"><ele>863.0</ele><time>2026-05-02T13:16:06.091Z</time></trkpt><trkpt lat="42.0807917" lon="13.5709764"><ele>861.0</ele><time>2026-05-02T13:16:08.085Z</time></trkpt><trkpt lat="42.0807616" lon="13.5708603"><ele>859.0</ele><time>2026-05-02T13:16:09.088Z</time></trkpt><trkpt lat="42.0807195" lon="13.5707462"><ele>857.0</ele><time>2026-05-02T13:16:10.093Z</time></trkpt><trkpt lat="42.080678" lon="13.5706391"><ele>855.0</ele><time>2026-05-02T13:16:11.091Z</time></trkpt><trkpt lat="42.0806364" lon="13.5705232"><ele>857.6</ele><time>2026-05-02T13:16:12.088Z</time></trkpt><trkpt lat="42.0805938" lon="13.570411"><ele>860.2</ele><time>2026-05-02T13:16:13.094Z</time></trkpt><trkpt lat="42.0805516" lon="13.5702969"><ele>862.8</ele><time>2026-05-02T13:16:14.095Z</time></trkpt><trkpt lat="42.0805126" lon="13.5701825"><ele>865.4</ele><time>2026-05-02T13:16:15.094Z</time></trkpt><trkpt lat="42.0804877" lon="13.5700694"><ele>868.0</ele><time>2026-05-02T13:16:16.089Z</time></trkpt><trkpt lat="42.0804656" lon="13.5699615"><ele>868.0</ele><time>2026-05-02T13:16:17.092Z</time></trkpt><trkpt lat="42.0804448" lon="13.5698555"><ele>868.0</ele><time>2026-05-02T13:16:18.086Z</time></trkpt><trkpt lat="42.0804275" lon="13.5697719"><ele>868.0</ele><time>2026-05-02T13:16:19.094Z</time></trkpt><trkpt lat="42.080412" lon="13.5696853"><ele>868.0</ele><time>2026-05-02T13:16:20.092Z</time></trkpt><trkpt lat="42.0803939" lon="13.569604"><ele>868.0</ele><time>2026-05-02T13:16:21.09Z</time></trkpt><trkpt lat="42.0803841" lon="13.5695197"><ele>868.0</ele><time>2026-05-02T13:16:22.089Z</time></trkpt><trkpt lat="42.0803794" lon="13.5694338"><ele>868.0</ele><time>2026-05-02T13:16:23.094Z</time></trkpt><trkpt lat="42.0803828" lon="13.5692898"><ele>865.8</ele><time>2026-05-02T13:16:25.096Z</time></trkpt><trkpt lat="42.080367" lon="13.5691564"><ele>863.5999999999999</ele><time>2026-05-02T13:16:27.095Z</time></trkpt><trkpt lat="42.0803183" lon="13.569012"><ele>861.4000000000001</ele><time>2026-05-02T13:16:29.091Z</time></trkpt><trkpt lat="42.0802778" lon="13.5689325"><ele>859.2</ele><time>2026-05-02T13:16:30.093Z</time></trkpt><trkpt lat="42.0802323" lon="13.5688361"><ele>857.0</ele><time>2026-05-02T13:16:31.085Z</time></trkpt><trkpt lat="42.0801958" lon="13.5687361"><ele>854.8333333333334</ele><time>2026-05-02T13:16:32.084Z</time></trkpt><trkpt lat="42.0801688" lon="13.568636"><ele>852.6666666666667</ele><time>2026-05-02T13:16:33.093Z</time></trkpt><trkpt lat="42.0801476" lon="13.5685417"><ele>850.5</ele><time>2026-05-02T13:16:34.089Z</time></trkpt><trkpt lat="42.0801331" lon="13.5684461"><ele>848.3333333333333</ele><time>2026-05-02T13:16:35.09Z</time></trkpt><trkpt lat="42.0801262" lon="13.5683443"><ele>846.1666666666666</ele><time>2026-05-02T13:16:36.088Z</time></trkpt><trkpt lat="42.0801156" lon="13.5682242"><ele>844.0</ele><time>2026-05-02T13:16:37.084Z</time></trkpt><trkpt lat="42.0801087" lon="13.5681033"><ele>843.9999999999999</ele><time>2026-05-02T13:16:38.09Z</time></trkpt><trkpt lat="42.0801121" lon="13.5679891"><ele>844.0</ele><time>2026-05-02T13:16:39.092Z</time></trkpt><trkpt lat="42.0801196" lon="13.5678798"><ele>844.0</ele><time>2026-05-02T13:16:40.087Z</time></trkpt><trkpt lat="42.0801357" lon="13.5677698"><ele>844.0</ele><time>2026-05-02T13:16:41.084Z</time></trkpt><trkpt lat="42.0801716" lon="13.5676531"><ele>843.9999999999999</ele><time>2026-05-02T13:16:42.088Z</time></trkpt><trkpt lat="42.0802054" lon="13.5675403"><ele>844.0</ele><time>2026-05-02T13:16:43.086Z</time></trkpt><trkpt lat="42.0802421" lon="13.5674315"><ele>842.9999999999999</ele><time>2026-05-02T13:16:44.087Z</time></trkpt><trkpt lat="42.0802877" lon="13.5673208"><ele>842.0</ele><time>2026-05-02T13:16:45.087Z</time></trkpt><trkpt lat="42.0803393" lon="13.5672186"><ele>841.0</ele><time>2026-05-02T13:16:46.088Z</time></trkpt><trkpt lat="42.0803954" lon="13.5671201"><ele>840.0</ele><time>2026-05-02T13:16:47.088Z</time></trkpt><trkpt lat="42.0804484" lon="13.5670272"><ele>838.9999999999999</ele><time>2026-05-02T13:16:48.083Z</time></trkpt><trkpt lat="42.080501" lon="13.5669571"><ele>838.0</ele><time>2026-05-02T13:16:49.084Z</time></trkpt><trkpt lat="42.0805924" lon="13.5668601"><ele>837.9999999999999</ele><time>2026-05-02T13:16:51.083Z</time></trkpt><trkpt lat="42.0806402" lon="13.5667342"><ele>838.0</ele><time>2026-05-02T13:16:53.089Z</time></trkpt><trkpt lat="42.0806123" lon="13.5665908"><ele>838.0</ele><time>2026-05-02T13:16:55.085Z</time></trkpt><trkpt lat="42.080575" lon="13.5665103"><ele>838.0</ele><time>2026-05-02T13:16:56.092Z</time></trkpt><trkpt lat="42.0805367" lon="13.5664216"><ele>837.9999999999999</ele><time>2026-05-02T13:16:57.088Z</time></trkpt><trkpt lat="42.0805121" lon="13.5663325"><ele>838.0</ele><time>2026-05-02T13:16:58.085Z</time></trkpt><trkpt lat="42.0805036" lon="13.5662281"><ele>837.9999999999999</ele><time>2026-05-02T13:16:59.081Z</time></trkpt><trkpt lat="42.0805064" lon="13.5661351"><ele>838.0</ele><time>2026-05-02T13:17:00.09Z</time></trkpt><trkpt lat="42.0805106" lon="13.5660376"><ele>838.0</ele><time>2026-05-02T13:17:01.088Z</time></trkpt><trkpt lat="42.0805141" lon="13.5659255"><ele>838.0</ele><time>2026-05-02T13:17:02.088Z</time></trkpt><trkpt lat="42.0805165" lon="13.5658136"><ele>837.9999999999999</ele><time>2026-05-02T13:17:03.089Z</time></trkpt><trkpt lat="42.0805064" lon="13.565712"><ele>838.0</ele><time>2026-05-02T13:17:04.089Z</time></trkpt><trkpt lat="42.0804891" lon="13.5656164"><ele>837.9999999999999</ele><time>2026-05-02T13:17:05.096Z</time></trkpt><trkpt lat="42.0804621" lon="13.5655332"><ele>838.0</ele><time>2026-05-02T13:17:06.09Z</time></trkpt><trkpt lat="42.0804266" lon="13.5654554"><ele>838.0</ele><time>2026-05-02T13:17:07.097Z</time></trkpt><trkpt lat="42.080385" lon="13.5653714"><ele>838.0</ele><time>2026-05-02T13:17:08.098Z</time></trkpt><trkpt lat="42.0803543" lon="13.5652588"><ele>837.9999999999999</ele><time>2026-05-02T13:17:09.097Z</time></trkpt><trkpt lat="42.0803145" lon="13.5651442"><ele>838.0</ele><time>2026-05-02T13:17:10.094Z</time></trkpt><trkpt lat="42.0802757" lon="13.5650259"><ele>835.5999999999999</ele><time>2026-05-02T13:17:11.09Z</time></trkpt><trkpt lat="42.0802309" lon="13.5649135"><ele>833.1999999999999</ele><time>2026-05-02T13:17:12.091Z</time></trkpt><trkpt lat="42.0801936" lon="13.5647899"><ele>830.8</ele><time>2026-05-02T13:17:13.09Z</time></trkpt><trkpt lat="42.0801633" lon="13.5646577"><ele>828.4</ele><time>2026-05-02T13:17:14.094Z</time></trkpt><trkpt lat="42.080131" lon="13.5645179"><ele>826.0</ele><time>2026-05-02T13:17:15.093Z</time></trkpt><trkpt lat="42.0801157" lon="13.5643823"><ele>824.4</ele><time>2026-05-02T13:17:16.092Z</time></trkpt><trkpt lat="42.080111" lon="13.5642486"><ele>822.8</ele><time>2026-05-02T13:17:17.088Z</time></trkpt><trkpt lat="42.0801124" lon="13.5641143"><ele>821.1999999999999</ele><time>2026-05-02T13:17:18.093Z</time></trkpt><trkpt lat="42.0801126" lon="13.5639821"><ele>819.5999999999999</ele><time>2026-05-02T13:17:19.095Z</time></trkpt><trkpt lat="42.080111" lon="13.563838"><ele>818.0</ele><time>2026-05-02T13:17:20.093Z</time></trkpt><trkpt lat="42.0801107" lon="13.5636872"><ele>817.8</ele><time>2026-05-02T13:17:21.095Z</time></trkpt><trkpt lat="42.0801077" lon="13.5635377"><ele>817.5999999999999</ele><time>2026-05-02T13:17:22.097Z</time></trkpt><trkpt lat="42.0801035" lon="13.5634013"><ele>817.4000000000001</ele><time>2026-05-02T13:17:23.093Z</time></trkpt><trkpt lat="42.0800957" lon="13.5632735"><ele>817.2</ele><time>2026-05-02T13:17:24.086Z</time></trkpt><trkpt lat="42.0800865" lon="13.5631642"><ele>817.0</ele><time>2026-05-02T13:17:25.089Z</time></trkpt><trkpt lat="42.0800773" lon="13.5630588"><ele>816.9999999999999</ele><time>2026-05-02T13:17:26.092Z</time></trkpt><trkpt lat="42.0800831" lon="13.5629591"><ele>817.0</ele><time>2026-05-02T13:17:27.092Z</time></trkpt><trkpt lat="42.0800931" lon="13.5628699"><ele>817.0</ele><time>2026-05-02T13:17:28.091Z</time></trkpt><trkpt lat="42.0800986" lon="13.5627833"><ele>817.0</ele><time>2026-05-02T13:17:29.09Z</time></trkpt><trkpt lat="42.0801069" lon="13.562697"><ele>816.9999999999999</ele><time>2026-05-02T13:17:30.093Z</time></trkpt><trkpt lat="42.080108" lon="13.5625331"><ele>817.0</ele><time>2026-05-02T13:17:32.097Z</time></trkpt><trkpt lat="42.0800887" lon="13.5624467"><ele>815.7142857142857</ele><time>2026-05-02T13:17:33.091Z</time></trkpt><trkpt lat="42.0800612" lon="13.5623647"><ele>814.4285714285714</ele><time>2026-05-02T13:17:34.087Z</time></trkpt><trkpt lat="42.0800221" lon="13.5622815"><ele>813.1428571428571</ele><time>2026-05-02T13:17:35.086Z</time></trkpt><trkpt lat="42.0799814" lon="13.5622104"><ele>811.8571428571429</ele><time>2026-05-02T13:17:36.093Z</time></trkpt><trkpt lat="42.0799455" lon="13.5621332"><ele>810.5714285714286</ele><time>2026-05-02T13:17:37.094Z</time></trkpt><trkpt lat="42.0799204" lon="13.5620467"><ele>809.2857142857142</ele><time>2026-05-02T13:17:38.089Z</time></trkpt><trkpt lat="42.0798954" lon="13.5619362"><ele>808.0</ele><time>2026-05-02T13:17:39.092Z</time></trkpt><trkpt lat="42.0798875" lon="13.5618194"><ele>806.6666666666666</ele><time>2026-05-02T13:17:40.092Z</time></trkpt><trkpt lat="42.0798856" lon="13.5616947"><ele>805.3333333333333</ele><time>2026-05-02T13:17:41.083Z</time></trkpt><trkpt lat="42.079895" lon="13.5615608"><ele>804.0</ele><time>2026-05-02T13:17:42.091Z</time></trkpt><trkpt lat="42.0799033" lon="13.5614398"><ele>802.6666666666667</ele><time>2026-05-02T13:17:43.09Z</time></trkpt><trkpt lat="42.0799276" lon="13.5613391"><ele>801.3333333333334</ele><time>2026-05-02T13:17:44.091Z</time></trkpt><trkpt lat="42.0799682" lon="13.5612523"><ele>800.0</ele><time>2026-05-02T13:17:45.091Z</time></trkpt><trkpt lat="42.0800188" lon="13.5611809"><ele>799.0000000000001</ele><time>2026-05-02T13:17:46.091Z</time></trkpt><trkpt lat="42.0800737" lon="13.561114"><ele>798.0</ele><time>2026-05-02T13:17:47.091Z</time></trkpt><trkpt lat="42.080145" lon="13.5609896"><ele>797.0</ele><time>2026-05-02T13:17:49.092Z</time></trkpt><trkpt lat="42.0801791" lon="13.5608414"><ele>796.0</ele><time>2026-05-02T13:17:51.1Z</time></trkpt><trkpt lat="42.0801797" lon="13.5607472"><ele>795.0000000000001</ele><time>2026-05-02T13:17:52.097Z</time></trkpt><trkpt lat="42.0801621" lon="13.5606511"><ele>794.0</ele><time>2026-05-02T13:17:53.094Z</time></trkpt><trkpt lat="42.0801381" lon="13.5605532"><ele>794.0000000000001</ele><time>2026-05-02T13:17:54.098Z</time></trkpt><trkpt lat="42.0801026" lon="13.5604571"><ele>794.0</ele><time>2026-05-02T13:17:55.093Z</time></trkpt><trkpt lat="42.080063" lon="13.560362"><ele>794.0</ele><time>2026-05-02T13:17:56.08Z</time></trkpt><trkpt lat="42.0800251" lon="13.5602868"><ele>794.0</ele><time>2026-05-02T13:17:57.095Z</time></trkpt><trkpt lat="42.0799604" lon="13.5601539"><ele>794.0000000000001</ele><time>2026-05-02T13:17:59.091Z</time></trkpt><trkpt lat="42.079904" lon="13.5600568"><ele>794.0</ele><time>2026-05-02T13:18:01.094Z</time></trkpt><trkpt lat="42.079846" lon="13.5599718"><ele>796.4000000000001</ele><time>2026-05-02T13:18:03.099Z</time></trkpt><trkpt lat="42.0797755" lon="13.5598669"><ele>798.8</ele><time>2026-05-02T13:18:05.095Z</time></trkpt><trkpt lat="42.0796987" lon="13.559726"><ele>801.2</ele><time>2026-05-02T13:18:07.092Z</time></trkpt><trkpt lat="42.0796503" lon="13.5596472"><ele>803.5999999999999</ele><time>2026-05-02T13:18:08.093Z</time></trkpt><trkpt lat="42.0796033" lon="13.5595544"><ele>806.0</ele><time>2026-05-02T13:18:09.093Z</time></trkpt><trkpt lat="42.0795603" lon="13.5594527"><ele>802.0000000000001</ele><time>2026-05-02T13:18:10.088Z</time></trkpt><trkpt lat="42.0795174" lon="13.5593651"><ele>798.0</ele><time>2026-05-02T13:18:11.087Z</time></trkpt><trkpt lat="42.0794769" lon="13.559282"><ele>794.0</ele><time>2026-05-02T13:18:12.094Z</time></trkpt><trkpt lat="42.0794376" lon="13.559201"><ele>790.0</ele><time>2026-05-02T13:18:13.094Z</time></trkpt><trkpt lat="42.0793999" lon="13.5591213"><ele>786.0000000000001</ele><time>2026-05-02T13:18:14.099Z</time></trkpt><trkpt lat="42.0793673" lon="13.5590465"><ele>782.0</ele><time>2026-05-02T13:18:15.092Z</time></trkpt><trkpt lat="42.0792993" lon="13.5589051"><ele>782.0000000000001</ele><time>2026-05-02T13:18:17.095Z</time></trkpt><trkpt lat="42.0792592" lon="13.5588291"><ele>782.0</ele><time>2026-05-02T13:18:18.095Z</time></trkpt><trkpt lat="42.0792118" lon="13.5587419"><ele>782.0</ele><time>2026-05-02T13:18:19.096Z</time></trkpt><trkpt lat="42.0791583" lon="13.5586525"><ele>782.0</ele><time>2026-05-02T13:18:20.099Z</time></trkpt><trkpt lat="42.079109" lon="13.5585711"><ele>782.0000000000001</ele><time>2026-05-02T13:18:21.101Z</time></trkpt><trkpt lat="42.0790584" lon="13.558493"><ele>782.0</ele><time>2026-05-02T13:18:22.105Z</time></trkpt><trkpt lat="42.0790054" lon="13.558409"><ele>782.3333333333334</ele><time>2026-05-02T13:18:23.09Z</time></trkpt><trkpt lat="42.0789569" lon="13.5583305"><ele>782.6666666666667</ele><time>2026-05-02T13:18:24.094Z</time></trkpt><trkpt lat="42.0789108" lon="13.558266"><ele>783.0</ele><time>2026-05-02T13:18:25.095Z</time></trkpt><trkpt lat="42.0788691" lon="13.5582009"><ele>783.3333333333333</ele><time>2026-05-02T13:18:26.097Z</time></trkpt><trkpt lat="42.0788145" lon="13.558067"><ele>783.6666666666666</ele><time>2026-05-02T13:18:28.103Z</time></trkpt><trkpt lat="42.0787564" lon="13.5579108"><ele>784.0</ele><time>2026-05-02T13:18:30.101Z</time></trkpt><trkpt lat="42.078714" lon="13.557824"><ele>780.6666666666666</ele><time>2026-05-02T13:18:31.095Z</time></trkpt><trkpt lat="42.0786733" lon="13.5577403"><ele>777.3333333333333</ele><time>2026-05-02T13:18:32.086Z</time></trkpt><trkpt lat="42.0786363" lon="13.557649"><ele>774.0</ele><time>2026-05-02T13:18:33.093Z</time></trkpt><trkpt lat="42.0786056" lon="13.5575653"><ele>770.6666666666666</ele><time>2026-05-02T13:18:34.1Z</time></trkpt><trkpt lat="42.0785413" lon="13.5574223"><ele>767.3333333333333</ele><time>2026-05-02T13:18:36.092Z</time></trkpt><trkpt lat="42.0785096" lon="13.5573348"><ele>764.0</ele><time>2026-05-02T13:18:37.094Z</time></trkpt><trkpt lat="42.0784709" lon="13.5572422"><ele>764.0</ele><time>2026-05-02T13:18:38.097Z</time></trkpt><trkpt lat="42.0784328" lon="13.5571431"><ele>764.0</ele><time>2026-05-02T13:18:39.104Z</time></trkpt><trkpt lat="42.0783981" lon="13.557059"><ele>764.0</ele><time>2026-05-02T13:18:40.095Z</time></trkpt><trkpt lat="42.078329" lon="13.5569293"><ele>764.0</ele><time>2026-05-02T13:18:42.091Z</time></trkpt><trkpt lat="42.07828" lon="13.5568216"><ele>764.0</ele><time>2026-05-02T13:18:44.095Z</time></trkpt><trkpt lat="42.0782529" lon="13.5566725"><ele>765.5</ele><time>2026-05-02T13:18:46.091Z</time></trkpt><trkpt lat="42.0782405" lon="13.5565706"><ele>767.0</ele><time>2026-05-02T13:18:47.104Z</time></trkpt><trkpt lat="42.0782255" lon="13.556463"><ele>768.5</ele><time>2026-05-02T13:18:48.091Z</time></trkpt><trkpt lat="42.0782099" lon="13.5563429"><ele>770.0</ele><time>2026-05-02T13:18:49.09Z</time></trkpt><trkpt lat="42.078203" lon="13.5562201"><ele>771.5000000000001</ele><time>2026-05-02T13:18:50.094Z</time></trkpt><trkpt lat="42.0781882" lon="13.5561086"><ele>773.0</ele><time>2026-05-02T13:18:51.09Z</time></trkpt><trkpt lat="42.0781652" lon="13.5560098"><ele>773.0000000000001</ele><time>2026-05-02T13:18:52.091Z</time></trkpt><trkpt lat="42.07813" lon="13.5559094"><ele>773.0</ele><time>2026-05-02T13:18:53.093Z</time></trkpt><trkpt lat="42.0780837" lon="13.5558164"><ele>773.0</ele><time>2026-05-02T13:18:54.091Z</time></trkpt><trkpt lat="42.078031" lon="13.5557302"><ele>773.0</ele><time>2026-05-02T13:18:55.085Z</time></trkpt><trkpt lat="42.0779749" lon="13.5556464"><ele>773.0000000000001</ele><time>2026-05-02T13:18:56.09Z</time></trkpt><trkpt lat="42.0779185" lon="13.555553"><ele>773.0</ele><time>2026-05-02T13:18:57.081Z</time></trkpt><trkpt lat="42.0778715" lon="13.5554534"><ele>770.0</ele><time>2026-05-02T13:18:58.085Z</time></trkpt><trkpt lat="42.0778319" lon="13.5553501"><ele>767.0</ele><time>2026-05-02T13:18:59.082Z</time></trkpt><trkpt lat="42.0778018" lon="13.5552528"><ele>764.0</ele><time>2026-05-02T13:19:00.082Z</time></trkpt><trkpt lat="42.0778044" lon="13.555092"><ele>761.0</ele><time>2026-05-02T13:19:02.087Z</time></trkpt><trkpt lat="42.07782" lon="13.5549506"><ele>758.0</ele><time>2026-05-02T13:19:04.084Z</time></trkpt><trkpt lat="42.0777968" lon="13.5548081"><ele>758.0</ele><time>2026-05-02T13:19:06.089Z</time></trkpt><trkpt lat="42.0777307" lon="13.5546822"><ele>758.0</ele><time>2026-05-02T13:19:08.092Z</time></trkpt><trkpt lat="42.077649" lon="13.5545402"><ele>758.0</ele><time>2026-05-02T13:19:10.095Z</time></trkpt><trkpt lat="42.0775976" lon="13.5544621"><ele>758.0</ele><time>2026-05-02T13:19:11.096Z</time></trkpt><trkpt lat="42.0775366" lon="13.5543941"><ele>758.0</ele><time>2026-05-02T13:19:12.086Z</time></trkpt><trkpt lat="42.0774729" lon="13.5543294"><ele>758.6666666666666</ele><time>2026-05-02T13:19:13.087Z</time></trkpt><trkpt lat="42.0774108" lon="13.5542699"><ele>759.3333333333333</ele><time>2026-05-02T13:19:14.097Z</time></trkpt><trkpt lat="42.0773483" lon="13.5542164"><ele>760.0</ele><time>2026-05-02T13:19:15.091Z</time></trkpt><trkpt lat="42.0772944" lon="13.5541681"><ele>760.6666666666666</ele><time>2026-05-02T13:19:16.093Z</time></trkpt><trkpt lat="42.0772038" lon="13.5540574"><ele>761.3333333333334</ele><time>2026-05-02T13:19:18.092Z</time></trkpt><trkpt lat="42.0771649" lon="13.5539835"><ele>762.0</ele><time>2026-05-02T13:19:19.092Z</time></trkpt><trkpt lat="42.0771211" lon="13.5538248"><ele>762.0</ele><time>2026-05-02T13:19:21.102Z</time></trkpt><trkpt lat="42.077111" lon="13.5537278"><ele>762.0</ele><time>2026-05-02T13:19:22.093Z</time></trkpt><trkpt lat="42.0770961" lon="13.5536412"><ele>762.0</ele><time>2026-05-02T13:19:23.097Z</time></trkpt><trkpt lat="42.077046" lon="13.5535123"><ele>762.0</ele><time>2026-05-02T13:19:25.099Z</time></trkpt><trkpt lat="42.0769991" lon="13.5534393"><ele>762.0</ele><time>2026-05-02T13:19:27.099Z</time></trkpt><trkpt lat="42.0770655" lon="13.5533671"><ele>762.0</ele><time>2026-05-02T13:19:30.089Z</time></trkpt><trkpt lat="42.0771357" lon="13.5533756"><ele>759.5</ele><time>2026-05-02T13:19:31.091Z</time></trkpt><trkpt lat="42.0772089" lon="13.5533685"><ele>757.0</ele><time>2026-05-02T13:19:32.087Z</time></trkpt><trkpt lat="42.0772834" lon="13.5533484"><ele>754.5</ele><time>2026-05-02T13:19:33.088Z</time></trkpt><trkpt lat="42.0773752" lon="13.5533119"><ele>752.0</ele><time>2026-05-02T13:19:34.083Z</time></trkpt><trkpt lat="42.0774614" lon="13.5532553"><ele>749.5</ele><time>2026-05-02T13:19:35.086Z</time></trkpt><trkpt lat="42.0775313" lon="13.5531687"><ele>747.0</ele><time>2026-05-02T13:19:36.082Z</time></trkpt><trkpt lat="42.0775834" lon="13.5530498"><ele>747.0</ele><time>2026-05-02T13:19:37.088Z</time></trkpt><trkpt lat="42.0776169" lon="13.5529104"><ele>747.0</ele><time>2026-05-02T13:19:38.081Z</time></trkpt><trkpt lat="42.0776198" lon="13.5527587"><ele>747.0</ele><time>2026-05-02T13:19:39.079Z</time></trkpt><trkpt lat="42.0776026" lon="13.5526028"><ele>747.0</ele><time>2026-05-02T13:19:40.075Z</time></trkpt><trkpt lat="42.0775522" lon="13.5524315"><ele>747.0</ele><time>2026-05-02T13:19:41.079Z</time></trkpt><trkpt lat="42.0774993" lon="13.5522526"><ele>747.0</ele><time>2026-05-02T13:19:42.071Z</time></trkpt><trkpt lat="42.077439" lon="13.5520667"><ele>747.0</ele><time>2026-05-02T13:19:43.074Z</time></trkpt><trkpt lat="42.0773824" lon="13.551885"><ele>747.0</ele><time>2026-05-02T13:19:44.073Z</time></trkpt><trkpt lat="42.0773217" lon="13.5517173"><ele>747.0</ele><time>2026-05-02T13:19:45.076Z</time></trkpt><trkpt lat="42.0772593" lon="13.5515641"><ele>747.0</ele><time>2026-05-02T13:19:46.072Z</time></trkpt><trkpt lat="42.0771785" lon="13.5514266"><ele>747.0</ele><time>2026-05-02T13:19:47.079Z</time></trkpt><trkpt lat="42.0770978" lon="13.5513115"><ele>747.0</ele><time>2026-05-02T13:19:48.075Z</time></trkpt><trkpt lat="42.0770109" lon="13.5512154"><ele>748.6</ele><time>2026-05-02T13:19:49.079Z</time></trkpt><trkpt lat="42.0769248" lon="13.5511415"><ele>750.2</ele><time>2026-05-02T13:19:50.08Z</time></trkpt><trkpt lat="42.0768401" lon="13.551079"><ele>751.8</ele><time>2026-05-02T13:19:51.078Z</time></trkpt><trkpt lat="42.0767574" lon="13.5510211"><ele>753.4</ele><time>2026-05-02T13:19:52.085Z</time></trkpt><trkpt lat="42.0766841" lon="13.5509673"><ele>755.0</ele><time>2026-05-02T13:19:53.071Z</time></trkpt><trkpt lat="42.0766162" lon="13.5509227"><ele>755.0</ele><time>2026-05-02T13:19:54.075Z</time></trkpt><trkpt lat="42.0765306" lon="13.5508236"><ele>755.0</ele><time>2026-05-02T13:19:56.08Z</time></trkpt><trkpt lat="42.0765263" lon="13.5507014"><ele>755.0</ele><time>2026-05-02T13:19:58.079Z</time></trkpt><trkpt lat="42.0765595" lon="13.5505613"><ele>755.0</ele><time>2026-05-02T13:20:00.08Z</time></trkpt><trkpt lat="42.0765989" lon="13.5504828"><ele>755.0</ele><time>2026-05-02T13:20:01.077Z</time></trkpt><trkpt lat="42.0766642" lon="13.5504112"><ele>753.75</ele><time>2026-05-02T13:20:02.084Z</time></trkpt><trkpt lat="42.0767578" lon="13.5503536"><ele>752.5</ele><time>2026-05-02T13:20:03.072Z</time></trkpt><trkpt lat="42.0768602" lon="13.5503069"><ele>751.25</ele><time>2026-05-02T13:20:04.081Z</time></trkpt><trkpt lat="42.0769728" lon="13.5502655"><ele>750.0</ele><time>2026-05-02T13:20:05.078Z</time></trkpt><trkpt lat="42.0771021" lon="13.55023"><ele>750.0</ele><time>2026-05-02T13:20:06.076Z</time></trkpt><trkpt lat="42.0772365" lon="13.550184"><ele>750.0</ele><time>2026-05-02T13:20:07.073Z</time></trkpt><trkpt lat="42.0773718" lon="13.550122"><ele>750.0</ele><time>2026-05-02T13:20:08.076Z</time></trkpt><trkpt lat="42.0775401" lon="13.5500371"><ele>753.25</ele><time>2026-05-02T13:20:09.072Z</time></trkpt><trkpt lat="42.0777153" lon="13.5499464"><ele>756.5</ele><time>2026-05-02T13:20:10.073Z</time></trkpt><trkpt lat="42.0778407" lon="13.5498443"><ele>759.75</ele><time>2026-05-02T13:20:11.077Z</time></trkpt><trkpt lat="42.0779412" lon="13.5497724"><ele>763.0</ele><time>2026-05-02T13:20:12.087Z</time></trkpt><trkpt lat="42.0780129" lon="13.5496917"><ele>763.0</ele><time>2026-05-02T13:20:13.077Z</time></trkpt><trkpt lat="42.0780564" lon="13.5495421"><ele>763.0</ele><time>2026-05-02T13:20:14.078Z</time></trkpt><trkpt lat="42.078088" lon="13.5493654"><ele>763.0</ele><time>2026-05-02T13:20:15.081Z</time></trkpt><trkpt lat="42.0781152" lon="13.549206"><ele>763.0</ele><time>2026-05-02T13:20:16.075Z</time></trkpt><trkpt lat="42.0781473" lon="13.5490831"><ele>762.8</ele><time>2026-05-02T13:20:17.081Z</time></trkpt><trkpt lat="42.0781751" lon="13.5489815"><ele>762.5999999999999</ele><time>2026-05-02T13:20:18.081Z</time></trkpt><trkpt lat="42.0782009" lon="13.5488931"><ele>762.4000000000001</ele><time>2026-05-02T13:20:19.083Z</time></trkpt><trkpt lat="42.0782638" lon="13.5487596"><ele>762.2</ele><time>2026-05-02T13:20:21.081Z</time></trkpt><trkpt lat="42.0783551" lon="13.5486539"><ele>762.0</ele><time>2026-05-02T13:20:23.08Z</time></trkpt><trkpt lat="42.0784287" lon="13.5486002"><ele>762.0</ele><time>2026-05-02T13:20:24.075Z</time></trkpt><trkpt lat="42.0785313" lon="13.548555"><ele>762.0</ele><time>2026-05-02T13:20:25.079Z</time></trkpt><trkpt lat="42.0786577" lon="13.5485169"><ele>762.0</ele><time>2026-05-02T13:20:26.081Z</time></trkpt><trkpt lat="42.0788063" lon="13.548486"><ele>762.0</ele><time>2026-05-02T13:20:27.075Z</time></trkpt><trkpt lat="42.0789658" lon="13.5484495"><ele>766.3333333333333</ele><time>2026-05-02T13:20:28.073Z</time></trkpt><trkpt lat="42.0791826" lon="13.5484149"><ele>770.6666666666666</ele><time>2026-05-02T13:20:29.079Z</time></trkpt><trkpt lat="42.0793644" lon="13.5483993"><ele>775.0</ele><time>2026-05-02T13:20:30.079Z</time></trkpt><trkpt lat="42.0794923" lon="13.5483592"><ele>775.0</ele><time>2026-05-02T13:20:31.078Z</time></trkpt><trkpt lat="42.0796197" lon="13.5483394"><ele>775.0</ele><time>2026-05-02T13:20:32.082Z</time></trkpt><trkpt lat="42.0797409" lon="13.5483171"><ele>775.0</ele><time>2026-05-02T13:20:33.073Z</time></trkpt><trkpt lat="42.0798622" lon="13.548301"><ele>775.0</ele><time>2026-05-02T13:20:34.077Z</time></trkpt><trkpt lat="42.0799869" lon="13.5482817"><ele>775.8</ele><time>2026-05-02T13:20:35.071Z</time></trkpt><trkpt lat="42.0801034" lon="13.5482526"><ele>776.6</ele><time>2026-05-02T13:20:36.073Z</time></trkpt><trkpt lat="42.0802014" lon="13.5482318"><ele>777.4000000000001</ele><time>2026-05-02T13:20:37.076Z</time></trkpt><trkpt lat="42.0802983" lon="13.548217"><ele>778.2</ele><time>2026-05-02T13:20:38.086Z</time></trkpt><trkpt lat="42.0803843" lon="13.5482067"><ele>779.0</ele><time>2026-05-02T13:20:39.085Z</time></trkpt><trkpt lat="42.0804607" lon="13.5482121"><ele>779.0000000000001</ele><time>2026-05-02T13:20:40.094Z</time></trkpt><trkpt lat="42.0805285" lon="13.5482466"><ele>779.0</ele><time>2026-05-02T13:20:41.086Z</time></trkpt><trkpt lat="42.0805772" lon="13.5483202"><ele>779.0</ele><time>2026-05-02T13:20:42.092Z</time></trkpt><trkpt lat="42.0806122" lon="13.5484584"><ele>779.0</ele><time>2026-05-02T13:20:44.086Z</time></trkpt><trkpt lat="42.0806738" lon="13.5485091"><ele>779.0000000000001</ele><time>2026-05-02T13:20:46.085Z</time></trkpt><trkpt lat="42.0807702" lon="13.5484266"><ele>779.0</ele><time>2026-05-02T13:20:48.08Z</time></trkpt><trkpt lat="42.0808259" lon="13.5483629"><ele>780.0000000000001</ele><time>2026-05-02T13:20:49.082Z</time></trkpt><trkpt lat="42.0808894" lon="13.5482766"><ele>781.0</ele><time>2026-05-02T13:20:50.085Z</time></trkpt><trkpt lat="42.0809568" lon="13.5481868"><ele>782.0</ele><time>2026-05-02T13:20:51.087Z</time></trkpt><trkpt lat="42.0810312" lon="13.5481029"><ele>783.0</ele><time>2026-05-02T13:20:52.088Z</time></trkpt><trkpt lat="42.0810986" lon="13.5480297"><ele>784.0000000000001</ele><time>2026-05-02T13:20:53.085Z</time></trkpt><trkpt lat="42.0811634" lon="13.5479661"><ele>785.0</ele><time>2026-05-02T13:20:54.091Z</time></trkpt><trkpt lat="42.0812299" lon="13.5479085"><ele>783.0000000000001</ele><time>2026-05-02T13:20:55.082Z</time></trkpt><trkpt lat="42.0812896" lon="13.5478382"><ele>781.0</ele><time>2026-05-02T13:20:56.089Z</time></trkpt><trkpt lat="42.0813424" lon="13.547763"><ele>779.0</ele><time>2026-05-02T13:20:57.088Z</time></trkpt><trkpt lat="42.081405" lon="13.547693"><ele>777.0</ele><time>2026-05-02T13:20:58.093Z</time></trkpt><trkpt lat="42.0814785" lon="13.5476256"><ele>775.0000000000001</ele><time>2026-05-02T13:20:59.093Z</time></trkpt><trkpt lat="42.0815527" lon="13.5475657"><ele>773.0</ele><time>2026-05-02T13:21:00.093Z</time></trkpt><trkpt lat="42.0816332" lon="13.5474972"><ele>773.0</ele><time>2026-05-02T13:21:01.087Z</time></trkpt><trkpt lat="42.0817162" lon="13.5474369"><ele>773.0</ele><time>2026-05-02T13:21:02.087Z</time></trkpt><trkpt lat="42.0818021" lon="13.5473791"><ele>773.0</ele><time>2026-05-02T13:21:03.086Z</time></trkpt><trkpt lat="42.0818831" lon="13.547331"><ele>773.0</ele><time>2026-05-02T13:21:04.086Z</time></trkpt><trkpt lat="42.081963" lon="13.5472884"><ele>773.0</ele><time>2026-05-02T13:21:05.092Z</time></trkpt><trkpt lat="42.0820462" lon="13.5472465"><ele>773.0000000000001</ele><time>2026-05-02T13:21:06.086Z</time></trkpt><trkpt lat="42.0821248" lon="13.5472057"><ele>773.0</ele><time>2026-05-02T13:21:07.081Z</time></trkpt><trkpt lat="42.0822083" lon="13.5471653"><ele>773.0</ele><time>2026-05-02T13:21:08.089Z</time></trkpt><trkpt lat="42.0822888" lon="13.5471111"><ele>773.0</ele><time>2026-05-02T13:21:09.079Z</time></trkpt><trkpt lat="42.0823554" lon="13.5470435"><ele>773.0000000000001</ele><time>2026-05-02T13:21:10.086Z</time></trkpt><trkpt lat="42.0824056" lon="13.5469539"><ele>773.0</ele><time>2026-05-02T13:21:11.084Z</time></trkpt><trkpt lat="42.082447" lon="13.5468461"><ele>773.5999999999999</ele><time>2026-05-02T13:21:12.092Z</time></trkpt><trkpt lat="42.0824826" lon="13.5467307"><ele>774.1999999999999</ele><time>2026-05-02T13:21:13.085Z</time></trkpt><trkpt lat="42.0825115" lon="13.5466086"><ele>774.8</ele><time>2026-05-02T13:21:14.091Z</time></trkpt><trkpt lat="42.0825374" lon="13.5464878"><ele>775.4</ele><time>2026-05-02T13:21:15.09Z</time></trkpt><trkpt lat="42.0825649" lon="13.5463696"><ele>776.0</ele><time>2026-05-02T13:21:16.083Z</time></trkpt><trkpt lat="42.0825884" lon="13.5462436"><ele>774.8</ele><time>2026-05-02T13:21:17.084Z</time></trkpt><trkpt lat="42.0826024" lon="13.5461177"><ele>773.5999999999999</ele><time>2026-05-02T13:21:18.08Z</time></trkpt><trkpt lat="42.0826113" lon="13.545994"><ele>772.4</ele><time>2026-05-02T13:21:19.087Z</time></trkpt><trkpt lat="42.0826138" lon="13.5458711"><ele>771.2</ele><time>2026-05-02T13:21:20.083Z</time></trkpt><trkpt lat="42.0826156" lon="13.5457411"><ele>770.0</ele><time>2026-05-02T13:21:21.087Z</time></trkpt><trkpt lat="42.0826144" lon="13.5456015"><ele>770.0</ele><time>2026-05-02T13:21:22.081Z</time></trkpt><trkpt lat="42.082605" lon="13.5454709"><ele>770.0</ele><time>2026-05-02T13:21:23.075Z</time></trkpt><trkpt lat="42.0825875" lon="13.5453378"><ele>770.0</ele><time>2026-05-02T13:21:24.08Z</time></trkpt><trkpt lat="42.0825758" lon="13.5452073"><ele>770.0</ele><time>2026-05-02T13:21:25.08Z</time></trkpt><trkpt lat="42.0825505" lon="13.5450745"><ele>770.0</ele><time>2026-05-02T13:21:26.076Z</time></trkpt><trkpt lat="42.082521" lon="13.5449564"><ele>769.6</ele><time>2026-05-02T13:21:27.083Z</time></trkpt><trkpt lat="42.0824973" lon="13.5448425"><ele>769.2</ele><time>2026-05-02T13:21:28.086Z</time></trkpt><trkpt lat="42.0824789" lon="13.5447204"><ele>768.8</ele><time>2026-05-02T13:21:29.085Z</time></trkpt><trkpt lat="42.082457" lon="13.5445927"><ele>768.4</ele><time>2026-05-02T13:21:30.09Z</time></trkpt><trkpt lat="42.0824294" lon="13.5444609"><ele>768.0</ele><time>2026-05-02T13:21:31.087Z</time></trkpt><trkpt lat="42.0824086" lon="13.5443395"><ele>765.6666666666666</ele><time>2026-05-02T13:21:32.086Z</time></trkpt><trkpt lat="42.0823966" lon="13.5442258"><ele>763.3333333333334</ele><time>2026-05-02T13:21:33.088Z</time></trkpt><trkpt lat="42.0823902" lon="13.5441164"><ele>761.0</ele><time>2026-05-02T13:21:34.089Z</time></trkpt><trkpt lat="42.0823899" lon="13.5440151"><ele>758.6666666666667</ele><time>2026-05-02T13:21:35.085Z</time></trkpt><trkpt lat="42.0823948" lon="13.5439156"><ele>756.3333333333334</ele><time>2026-05-02T13:21:36.087Z</time></trkpt><trkpt lat="42.0824047" lon="13.5438307"><ele>754.0</ele><time>2026-05-02T13:21:37.083Z</time></trkpt><trkpt lat="42.0823957" lon="13.5436684"><ele>753.4000000000001</ele><time>2026-05-02T13:21:39.086Z</time></trkpt><trkpt lat="42.082333" lon="13.5435334"><ele>752.8</ele><time>2026-05-02T13:21:41.087Z</time></trkpt><trkpt lat="42.0822487" lon="13.5434564"><ele>752.2</ele><time>2026-05-02T13:21:43.092Z</time></trkpt><trkpt lat="42.0821667" lon="13.5434665"><ele>751.5999999999999</ele><time>2026-05-02T13:21:44.09Z</time></trkpt><trkpt lat="42.0820736" lon="13.5434751"><ele>751.0</ele><time>2026-05-02T13:21:45.083Z</time></trkpt><trkpt lat="42.0819641" lon="13.5434922"><ele>751.0</ele><time>2026-05-02T13:21:46.084Z</time></trkpt><trkpt lat="42.0818467" lon="13.5434932"><ele>751.0</ele><time>2026-05-02T13:21:47.091Z</time></trkpt><trkpt lat="42.0817326" lon="13.5434957"><ele>751.0</ele><time>2026-05-02T13:21:48.085Z</time></trkpt><trkpt lat="42.0816269" lon="13.5434957"><ele>751.0</ele><time>2026-05-02T13:21:49.086Z</time></trkpt><trkpt lat="42.0815179" lon="13.543492"><ele>751.0</ele><time>2026-05-02T13:21:50.086Z</time></trkpt><trkpt lat="42.0814042" lon="13.5434941"><ele>750.1999999999999</ele><time>2026-05-02T13:21:51.087Z</time></trkpt><trkpt lat="42.0812958" lon="13.5434912"><ele>749.4</ele><time>2026-05-02T13:21:52.094Z</time></trkpt><trkpt lat="42.0811962" lon="13.5434733"><ele>748.6</ele><time>2026-05-02T13:21:53.087Z</time></trkpt><trkpt lat="42.0811051" lon="13.5434574"><ele>747.8</ele><time>2026-05-02T13:21:54.089Z</time></trkpt><trkpt lat="42.0810127" lon="13.5434513"><ele>747.0</ele><time>2026-05-02T13:21:55.083Z</time></trkpt><trkpt lat="42.0809084" lon="13.5434548"><ele>747.0</ele><time>2026-05-02T13:21:56.083Z</time></trkpt><trkpt lat="42.0807886" lon="13.5434636"><ele>747.0</ele><time>2026-05-02T13:21:57.085Z</time></trkpt><trkpt lat="42.0806636" lon="13.5434684"><ele>747.0</ele><time>2026-05-02T13:21:58.086Z</time></trkpt><trkpt lat="42.0805323" lon="13.5434663"><ele>747.0</ele><time>2026-05-02T13:21:59.084Z</time></trkpt><trkpt lat="42.0803999" lon="13.5434688"><ele>746.25</ele><time>2026-05-02T13:22:00.079Z</time></trkpt><trkpt lat="42.0802731" lon="13.5434672"><ele>745.5</ele><time>2026-05-02T13:22:01.079Z</time></trkpt><trkpt lat="42.0801567" lon="13.5434644"><ele>744.75</ele><time>2026-05-02T13:22:02.086Z</time></trkpt><trkpt lat="42.080052" lon="13.5434655"><ele>744.0</ele><time>2026-05-02T13:22:03.086Z</time></trkpt><trkpt lat="42.0799475" lon="13.5434671"><ele>743.2</ele><time>2026-05-02T13:22:04.085Z</time></trkpt><trkpt lat="42.079842" lon="13.5434701"><ele>742.4000000000001</ele><time>2026-05-02T13:22:05.084Z</time></trkpt><trkpt lat="42.0797529" lon="13.5434843"><ele>741.6</ele><time>2026-05-02T13:22:06.089Z</time></trkpt><trkpt lat="42.0797197" lon="13.5433647"><ele>740.8</ele><time>2026-05-02T13:22:12.079Z</time></trkpt><trkpt lat="42.0797005" lon="13.5432759"><ele>740.0</ele><time>2026-05-02T13:22:13.077Z</time></trkpt><trkpt lat="42.0796521" lon="13.5431168"><ele>740.0</ele><time>2026-05-02T13:22:15.086Z</time></trkpt><trkpt lat="42.0796177" lon="13.542976"><ele>740.0</ele><time>2026-05-02T13:22:17.079Z</time></trkpt><trkpt lat="42.079522" lon="13.5428936"><ele>740.0</ele><time>2026-05-02T13:22:19.08Z</time></trkpt><trkpt lat="42.0794585" lon="13.5428764"><ele>740.0</ele><time>2026-05-02T13:22:20.089Z</time></trkpt><trkpt lat="42.0793443" lon="13.5428778"><ele>740.0</ele><time>2026-05-02T13:22:22.088Z</time></trkpt><trkpt lat="42.0792812" lon="13.542866"><ele>740.1666666666666</ele><time>2026-05-02T13:22:23.088Z</time></trkpt><trkpt lat="42.0792142" lon="13.5428476"><ele>740.3333333333333</ele><time>2026-05-02T13:22:24.085Z</time></trkpt><trkpt lat="42.0791416" lon="13.5428249"><ele>740.5</ele><time>2026-05-02T13:22:25.085Z</time></trkpt><trkpt lat="42.0790637" lon="13.5427972"><ele>740.6666666666666</ele><time>2026-05-02T13:22:26.077Z</time></trkpt><trkpt lat="42.0789826" lon="13.542735"><ele>740.8333333333334</ele><time>2026-05-02T13:22:27.081Z</time></trkpt><trkpt lat="42.0789023" lon="13.5426528"><ele>741.0</ele><time>2026-05-02T13:22:28.082Z</time></trkpt><trkpt lat="42.0788234" lon="13.5425445"><ele>740.8</ele><time>2026-05-02T13:22:29.08Z</time></trkpt><trkpt lat="42.0787546" lon="13.5424113"><ele>740.5999999999999</ele><time>2026-05-02T13:22:30.082Z</time></trkpt><trkpt lat="42.0786783" lon="13.5422939"><ele>740.4</ele><time>2026-05-02T13:22:31.087Z</time></trkpt><trkpt lat="42.0785979" lon="13.5421933"><ele>740.2</ele><time>2026-05-02T13:22:32.08Z</time></trkpt><trkpt lat="42.078521" lon="13.5421021"><ele>740.0</ele><time>2026-05-02T13:22:33.083Z</time></trkpt><trkpt lat="42.0784503" lon="13.5420161"><ele>740.0</ele><time>2026-05-02T13:22:34.083Z</time></trkpt><trkpt lat="42.0783869" lon="13.5419444"><ele>740.0</ele><time>2026-05-02T13:22:35.078Z</time></trkpt><trkpt lat="42.0783393" lon="13.5418748"><ele>740.0</ele><time>2026-05-02T13:22:36.075Z</time></trkpt><trkpt lat="42.0782995" lon="13.5417343"><ele>740.0</ele><time>2026-05-02T13:22:38.076Z</time></trkpt><trkpt lat="42.0783515" lon="13.5416022"><ele>740.0</ele><time>2026-05-02T13:22:40.082Z</time></trkpt><trkpt lat="42.0783845" lon="13.5415216"><ele>740.0</ele><time>2026-05-02T13:22:41.071Z</time></trkpt><trkpt lat="42.0783958" lon="13.5413796"><ele>740.0</ele><time>2026-05-02T13:22:43.077Z</time></trkpt><trkpt lat="42.0783298" lon="13.5412665"><ele>740.0</ele><time>2026-05-02T13:22:45.083Z</time></trkpt><trkpt lat="42.0783617" lon="13.5411435"><ele>740.0</ele><time>2026-05-02T13:22:47.077Z</time></trkpt><trkpt lat="42.078391" lon="13.5410299"><ele>740.0</ele><time>2026-05-02T13:22:49.085Z</time></trkpt><trkpt lat="42.0783371" lon="13.5409268"><ele>740.0</ele><time>2026-05-02T13:22:51.081Z</time></trkpt><trkpt lat="42.078297" lon="13.5408563"><ele>738.8333333333333</ele><time>2026-05-02T13:22:52.078Z</time></trkpt><trkpt lat="42.0782547" lon="13.540774"><ele>737.6666666666666</ele><time>2026-05-02T13:22:53.074Z</time></trkpt><trkpt lat="42.0782187" lon="13.5406946"><ele>736.5</ele><time>2026-05-02T13:22:54.072Z</time></trkpt><trkpt lat="42.0781796" lon="13.5405853"><ele>735.3333333333334</ele><time>2026-05-02T13:22:55.08Z</time></trkpt><trkpt lat="42.0781248" lon="13.5404829"><ele>734.1666666666667</ele><time>2026-05-02T13:22:56.083Z</time></trkpt><trkpt lat="42.0780736" lon="13.540395"><ele>733.0</ele><time>2026-05-02T13:22:57.077Z</time></trkpt><trkpt lat="42.0780231" lon="13.5403239"><ele>733.0</ele><time>2026-05-02T13:22:58.082Z</time></trkpt><trkpt lat="42.0779821" lon="13.5402493"><ele>733.0</ele><time>2026-05-02T13:22:59.078Z</time></trkpt><trkpt lat="42.0780006" lon="13.5401107"><ele>733.0</ele><time>2026-05-02T13:23:01.08Z</time></trkpt><trkpt lat="42.078104" lon="13.5400037"><ele>733.0</ele><time>2026-05-02T13:23:03.084Z</time></trkpt><trkpt lat="42.0781662" lon="13.5399665"><ele>733.0</ele><time>2026-05-02T13:23:04.082Z</time></trkpt><trkpt lat="42.0782464" lon="13.5399087"><ele>732.9999999999999</ele><time>2026-05-02T13:23:06.074Z</time></trkpt><trkpt lat="42.0782309" lon="13.5398221"><ele>733.0</ele><time>2026-05-02T13:23:16.081Z</time></trkpt><trkpt lat="42.0782421" lon="13.5397314"><ele>733.0</ele><time>2026-05-02T13:23:31.095Z</time></trkpt><trkpt lat="42.0782714" lon="13.5398204"><ele>733.0</ele><time>2026-05-02T13:23:41.085Z</time></trkpt><trkpt lat="42.0782894" lon="13.539905"><ele>733.0</ele><time>2026-05-02T13:23:47.094Z</time></trkpt><trkpt lat="42.0783426" lon="13.5399612"><ele>732.9999999999999</ele><time>2026-05-02T13:23:53.083Z</time></trkpt><trkpt lat="42.0784079" lon="13.5399588"><ele>733.0</ele><time>2026-05-02T13:23:55.085Z</time></trkpt><trkpt lat="42.0784816" lon="13.5399771"><ele>734.6666666666667</ele><time>2026-05-02T13:23:57.077Z</time></trkpt><trkpt lat="42.0785595" lon="13.5399695"><ele>736.3333333333334</ele><time>2026-05-02T13:24:15.08Z</time></trkpt><trkpt lat="42.0786384" lon="13.5399819"><ele>738.0</ele><time>2026-05-02T13:24:17.089Z</time></trkpt><trkpt lat="42.0787014" lon="13.5399813"><ele>739.6666666666666</ele><time>2026-05-02T13:24:18.082Z</time></trkpt><trkpt lat="42.0788158" lon="13.539979"><ele>741.3333333333333</ele><time>2026-05-02T13:24:20.076Z</time></trkpt><trkpt lat="42.0789082" lon="13.5399781"><ele>743.0</ele><time>2026-05-02T13:24:22.083Z</time></trkpt><trkpt lat="42.0789824" lon="13.5399726"><ele>743.0</ele><time>2026-05-02T13:24:24.074Z</time></trkpt><trkpt lat="42.0790554" lon="13.5400144"><ele>743.0</ele><time>2026-05-02T13:24:26.068Z</time></trkpt><trkpt lat="42.0790898" lon="13.5400891"><ele>743.0</ele><time>2026-05-02T13:24:27.075Z</time></trkpt><trkpt lat="42.0791111" lon="13.5401865"><ele>743.0</ele><time>2026-05-02T13:24:28.073Z</time></trkpt><trkpt lat="42.0791337" lon="13.540272"><ele>743.0</ele><time>2026-05-02T13:24:29.072Z</time></trkpt><trkpt lat="42.0791735" lon="13.540343"><ele>743.0</ele><time>2026-05-02T13:24:30.076Z</time></trkpt><trkpt lat="42.0792339" lon="13.5403758"><ele>743.0</ele><time>2026-05-02T13:24:31.073Z</time></trkpt><trkpt lat="42.0793525" lon="13.5403826"><ele>743.0</ele><time>2026-05-02T13:24:33.079Z</time></trkpt><trkpt lat="42.0794736" lon="13.5403672"><ele>743.0</ele><time>2026-05-02T13:24:35.076Z</time></trkpt><trkpt lat="42.0795515" lon="13.5404115"><ele>743.0</ele><time>2026-05-02T13:24:38.083Z</time></trkpt><trkpt lat="42.0795969" lon="13.5405554"><ele>743.0</ele><time>2026-05-02T13:24:40.077Z</time></trkpt><trkpt lat="42.0796244" lon="13.5406749"><ele>743.0</ele><time>2026-05-02T13:24:41.077Z</time></trkpt><trkpt lat="42.0796761" lon="13.5407972"><ele>743.0</ele><time>2026-05-02T13:24:42.078Z</time></trkpt><trkpt lat="42.0797441" lon="13.5409069"><ele>743.0</ele><time>2026-05-02T13:24:43.078Z</time></trkpt><trkpt lat="42.079826" lon="13.5409832"><ele>743.0</ele><time>2026-05-02T13:24:44.084Z</time></trkpt><trkpt lat="42.0799141" lon="13.5410424"><ele>743.0</ele><time>2026-05-02T13:24:45.079Z</time></trkpt><trkpt lat="42.0800197" lon="13.5410849"><ele>743.0</ele><time>2026-05-02T13:24:46.079Z</time></trkpt><trkpt lat="42.0801381" lon="13.5411217"><ele>743.25</ele><time>2026-05-02T13:24:47.081Z</time></trkpt><trkpt lat="42.0802692" lon="13.5411391"><ele>743.5</ele><time>2026-05-02T13:24:48.081Z</time></trkpt><trkpt lat="42.0804004" lon="13.5411419"><ele>743.75</ele><time>2026-05-02T13:24:49.083Z</time></trkpt><trkpt lat="42.0805362" lon="13.5411357"><ele>744.0</ele><time>2026-05-02T13:24:50.096Z</time></trkpt><trkpt lat="42.0806758" lon="13.541131"><ele>744.3333333333334</ele><time>2026-05-02T13:24:51.084Z</time></trkpt><trkpt lat="42.0808328" lon="13.5411297"><ele>744.6666666666667</ele><time>2026-05-02T13:24:52.087Z</time></trkpt><trkpt lat="42.081019" lon="13.5411176"><ele>745.0</ele><time>2026-05-02T13:24:53.078Z</time></trkpt><trkpt lat="42.0811784" lon="13.541083"><ele>745.0</ele><time>2026-05-02T13:24:54.085Z</time></trkpt><trkpt lat="42.0813118" lon="13.5410748"><ele>745.0</ele><time>2026-05-02T13:24:55.086Z</time></trkpt><trkpt lat="42.081419" lon="13.5410953"><ele>745.0</ele><time>2026-05-02T13:24:56.081Z</time></trkpt><trkpt lat="42.0815268" lon="13.5411134"><ele>745.0</ele><time>2026-05-02T13:24:57.085Z</time></trkpt><trkpt lat="42.0816355" lon="13.5411379"><ele>745.1666666666667</ele><time>2026-05-02T13:24:58.08Z</time></trkpt><trkpt lat="42.0817386" lon="13.5411419"><ele>745.3333333333334</ele><time>2026-05-02T13:24:59.086Z</time></trkpt><trkpt lat="42.0818265" lon="13.5411857"><ele>745.5</ele><time>2026-05-02T13:25:00.079Z</time></trkpt><trkpt lat="42.0818928" lon="13.5412444"><ele>745.6666666666666</ele><time>2026-05-02T13:25:01.077Z</time></trkpt><trkpt lat="42.0819426" lon="13.5413158"><ele>745.8333333333333</ele><time>2026-05-02T13:25:02.084Z</time></trkpt><trkpt lat="42.0819939" lon="13.5414314"><ele>746.0</ele><time>2026-05-02T13:25:04.087Z</time></trkpt><trkpt lat="42.0820273" lon="13.5415257"><ele>746.0</ele><time>2026-05-02T13:25:07.09Z</time></trkpt><trkpt lat="42.0821092" lon="13.54152"><ele>746.0</ele><time>2026-05-02T13:25:10.09Z</time></trkpt><trkpt lat="42.0821608" lon="13.5414589"><ele>746.0</ele><time>2026-05-02T13:25:12.088Z</time></trkpt><trkpt lat="42.0821276" lon="13.5415355"><ele>746.0</ele><time>2026-05-02T13:32:13.106Z</time></trkpt><trkpt lat="42.0821262" lon="13.5416409"><ele>746.0</ele><time>2026-05-02T13:32:23.099Z</time></trkpt><trkpt lat="42.0821573" lon="13.541718"><ele>746.0</ele><time>2026-05-02T13:32:24.106Z</time></trkpt><trkpt lat="42.082197" lon="13.5418217"><ele>746.0</ele><time>2026-05-02T13:32:25.106Z</time></trkpt><trkpt lat="42.0822334" lon="13.5419234"><ele>746.0</ele><time>2026-05-02T13:32:26.106Z</time></trkpt><trkpt lat="42.0822689" lon="13.5420212"><ele>746.0</ele><time>2026-05-02T13:32:27.112Z</time></trkpt><trkpt lat="42.0823021" lon="13.5421053"><ele>746.0</ele><time>2026-05-02T13:32:28.109Z</time></trkpt><trkpt lat="42.0823452" lon="13.5422289"><ele>746.0</ele><time>2026-05-02T13:32:30.112Z</time></trkpt><trkpt lat="42.0823844" lon="13.5423331"><ele>746.0</ele><time>2026-05-02T13:32:32.108Z</time></trkpt><trkpt lat="42.0824427" lon="13.5424502"><ele>746.0</ele><time>2026-05-02T13:32:34.109Z</time></trkpt><trkpt lat="42.0824665" lon="13.542542"><ele>746.1999999999999</ele><time>2026-05-02T13:32:37.104Z</time></trkpt><trkpt lat="42.0824122" lon="13.5426208"><ele>746.4</ele><time>2026-05-02T13:32:39.103Z</time></trkpt><trkpt lat="42.0823347" lon="13.5426966"><ele>746.6</ele><time>2026-05-02T13:32:41.108Z</time></trkpt><trkpt lat="42.0822938" lon="13.5428143"><ele>746.8</ele><time>2026-05-02T13:32:43.102Z</time></trkpt><trkpt lat="42.0822668" lon="13.542966"><ele>747.0</ele><time>2026-05-02T13:32:45.1Z</time></trkpt><trkpt lat="42.0822588" lon="13.5430771"><ele>747.8</ele><time>2026-05-02T13:32:47.104Z</time></trkpt><trkpt lat="42.0822535" lon="13.5431943"><ele>748.6</ele><time>2026-05-02T13:32:49.108Z</time></trkpt><trkpt lat="42.082285" lon="13.5432909"><ele>749.4</ele><time>2026-05-02T13:32:51.106Z</time></trkpt><trkpt lat="42.0823602" lon="13.543281"><ele>750.1999999999999</ele><time>2026-05-02T13:32:53.097Z</time></trkpt><trkpt lat="42.0824528" lon="13.5431531"><ele>751.0</ele><time>2026-05-02T13:32:55.096Z</time></trkpt><trkpt lat="42.0825061" lon="13.5430619"><ele>752.6666666666667</ele><time>2026-05-02T13:32:56.096Z</time></trkpt><trkpt lat="42.0825696" lon="13.5429923"><ele>754.3333333333334</ele><time>2026-05-02T13:32:57.094Z</time></trkpt><trkpt lat="42.0826378" lon="13.542946"><ele>756.0</ele><time>2026-05-02T13:32:58.098Z</time></trkpt><trkpt lat="42.0827075" lon="13.5429381"><ele>757.6666666666666</ele><time>2026-05-02T13:32:59.095Z</time></trkpt><trkpt lat="42.0827823" lon="13.5429404"><ele>759.3333333333333</ele><time>2026-05-02T13:33:00.095Z</time></trkpt><trkpt lat="42.0828688" lon="13.5429619"><ele>761.0</ele><time>2026-05-02T13:33:01.095Z</time></trkpt><trkpt lat="42.0829676" lon="13.542999"><ele>761.0</ele><time>2026-05-02T13:33:02.098Z</time></trkpt><trkpt lat="42.0830716" lon="13.543019"><ele>761.0</ele><time>2026-05-02T13:33:03.09Z</time></trkpt><trkpt lat="42.0831889" lon="13.5430379"><ele>761.0</ele><time>2026-05-02T13:33:04.09Z</time></trkpt><trkpt lat="42.0833073" lon="13.5430606"><ele>761.0</ele><time>2026-05-02T13:33:05.097Z</time></trkpt><trkpt lat="42.0834308" lon="13.5430788"><ele>765.0</ele><time>2026-05-02T13:33:06.092Z</time></trkpt><trkpt lat="42.0835523" lon="13.5430859"><ele>769.0</ele><time>2026-05-02T13:33:07.098Z</time></trkpt><trkpt lat="42.0836694" lon="13.5430868"><ele>773.0</ele><time>2026-05-02T13:33:08.097Z</time></trkpt><trkpt lat="42.0837919" lon="13.5430767"><ele>777.0</ele><time>2026-05-02T13:33:09.096Z</time></trkpt><trkpt lat="42.0839125" lon="13.543045"><ele>777.0</ele><time>2026-05-02T13:33:10.093Z</time></trkpt><trkpt lat="42.0840348" lon="13.542999"><ele>777.0</ele><time>2026-05-02T13:33:11.095Z</time></trkpt><trkpt lat="42.0841561" lon="13.5429598"><ele>777.0</ele><time>2026-05-02T13:33:12.099Z</time></trkpt><trkpt lat="42.0842839" lon="13.5429355"><ele>777.0</ele><time>2026-05-02T13:33:13.094Z</time></trkpt><trkpt lat="42.084422" lon="13.542925"><ele>779.25</ele><time>2026-05-02T13:33:14.099Z</time></trkpt><trkpt lat="42.0845562" lon="13.5429425"><ele>781.5</ele><time>2026-05-02T13:33:15.092Z</time></trkpt><trkpt lat="42.0846825" lon="13.5429772"><ele>783.75</ele><time>2026-05-02T13:33:16.099Z</time></trkpt><trkpt lat="42.0848131" lon="13.5429883"><ele>786.0</ele><time>2026-05-02T13:33:17.094Z</time></trkpt><trkpt lat="42.0849342" lon="13.5429896"><ele>787.8</ele><time>2026-05-02T13:33:18.092Z</time></trkpt><trkpt lat="42.0850374" lon="13.5429859"><ele>789.5999999999999</ele><time>2026-05-02T13:33:19.096Z</time></trkpt><trkpt lat="42.0851246" lon="13.5429878"><ele>791.4</ele><time>2026-05-02T13:33:20.095Z</time></trkpt><trkpt lat="42.0852245" lon="13.5430178"><ele>793.2</ele><time>2026-05-02T13:33:21.088Z</time></trkpt><trkpt lat="42.0853075" lon="13.5430705"><ele>795.0</ele><time>2026-05-02T13:33:22.089Z</time></trkpt><trkpt lat="42.0854017" lon="13.5431089"><ele>795.0</ele><time>2026-05-02T13:33:23.084Z</time></trkpt><trkpt lat="42.0855177" lon="13.5431537"><ele>795.0</ele><time>2026-05-02T13:33:24.089Z</time></trkpt><trkpt lat="42.085631" lon="13.5432137"><ele>795.0</ele><time>2026-05-02T13:33:25.089Z</time></trkpt><trkpt lat="42.0857278" lon="13.5432816"><ele>795.0</ele><time>2026-05-02T13:33:26.094Z</time></trkpt><trkpt lat="42.0858244" lon="13.543342"><ele>794.8</ele><time>2026-05-02T13:33:27.091Z</time></trkpt><trkpt lat="42.0859222" lon="13.5433972"><ele>794.6</ele><time>2026-05-02T13:33:28.093Z</time></trkpt><trkpt lat="42.086014" lon="13.5434521"><ele>794.4000000000001</ele><time>2026-05-02T13:33:29.081Z</time></trkpt><trkpt lat="42.0861097" lon="13.5434985"><ele>794.2</ele><time>2026-05-02T13:33:30.092Z</time></trkpt><trkpt lat="42.0862093" lon="13.5435269"><ele>794.0</ele><time>2026-05-02T13:33:31.094Z</time></trkpt><trkpt lat="42.0863105" lon="13.5435456"><ele>794.0</ele><time>2026-05-02T13:33:32.097Z</time></trkpt><trkpt lat="42.0864094" lon="13.5435673"><ele>794.0</ele><time>2026-05-02T13:33:33.094Z</time></trkpt><trkpt lat="42.0865053" lon="13.5435907"><ele>794.0</ele><time>2026-05-02T13:33:34.096Z</time></trkpt><trkpt lat="42.0866001" lon="13.5436176"><ele>794.0</ele><time>2026-05-02T13:33:35.098Z</time></trkpt><trkpt lat="42.0866906" lon="13.543632"><ele>794.0</ele><time>2026-05-02T13:33:36.095Z</time></trkpt><trkpt lat="42.0867803" lon="13.5436326"><ele>793.6</ele><time>2026-05-02T13:33:37.091Z</time></trkpt><trkpt lat="42.08687" lon="13.5436208"><ele>793.2</ele><time>2026-05-02T13:33:38.086Z</time></trkpt><trkpt lat="42.0869648" lon="13.543606"><ele>792.8000000000001</ele><time>2026-05-02T13:33:39.09Z</time></trkpt><trkpt lat="42.0870613" lon="13.5435666"><ele>792.4000000000001</ele><time>2026-05-02T13:33:40.081Z</time></trkpt><trkpt lat="42.0871503" lon="13.5435041"><ele>792.0</ele><time>2026-05-02T13:33:41.085Z</time></trkpt><trkpt lat="42.0872275" lon="13.5434276"><ele>792.0</ele><time>2026-05-02T13:33:42.091Z</time></trkpt><trkpt lat="42.0873067" lon="13.5433471"><ele>792.0</ele><time>2026-05-02T13:33:43.084Z</time></trkpt><trkpt lat="42.0873618" lon="13.5432546"><ele>792.0</ele><time>2026-05-02T13:33:44.087Z</time></trkpt><trkpt lat="42.087399" lon="13.5431751"><ele>792.0</ele><time>2026-05-02T13:33:45.083Z</time></trkpt><trkpt lat="42.0874561" lon="13.5430506"><ele>792.0</ele><time>2026-05-02T13:33:47.089Z</time></trkpt><trkpt lat="42.0874951" lon="13.5429718"><ele>792.0</ele><time>2026-05-02T13:33:48.096Z</time></trkpt><trkpt lat="42.0875422" lon="13.5428708"><ele>792.0</ele><time>2026-05-02T13:33:49.085Z</time></trkpt><trkpt lat="42.0875884" lon="13.5427701"><ele>792.0</ele><time>2026-05-02T13:33:50.089Z</time></trkpt><trkpt lat="42.0876202" lon="13.5426835"><ele>792.0</ele><time>2026-05-02T13:33:51.1Z</time></trkpt><trkpt lat="42.0876567" lon="13.5425803"><ele>792.0</ele><time>2026-05-02T13:33:55.09Z</time></trkpt><trkpt lat="42.0877142" lon="13.5424846"><ele>792.0</ele><time>2026-05-02T13:33:57.094Z</time></trkpt><trkpt lat="42.0877535" lon="13.5423977"><ele>792.0</ele><time>2026-05-02T13:33:58.098Z</time></trkpt><trkpt lat="42.087799" lon="13.5423037"><ele>792.0</ele><time>2026-05-02T13:33:59.092Z</time></trkpt><trkpt lat="42.08787" lon="13.5422274"><ele>792.0</ele><time>2026-05-02T13:34:00.097Z</time></trkpt><trkpt lat="42.0879376" lon="13.5421635"><ele>792.0</ele><time>2026-05-02T13:34:01.098Z</time></trkpt><trkpt lat="42.0880202" lon="13.5421023"><ele>792.0</ele><time>2026-05-02T13:34:02.097Z</time></trkpt><trkpt lat="42.0881095" lon="13.5420455"><ele>792.0</ele><time>2026-05-02T13:34:03.09Z</time></trkpt><trkpt lat="42.0881977" lon="13.5419917"><ele>792.6666666666666</ele><time>2026-05-02T13:34:04.09Z</time></trkpt><trkpt lat="42.0882863" lon="13.5419439"><ele>793.3333333333333</ele><time>2026-05-02T13:34:05.091Z</time></trkpt><trkpt lat="42.0883746" lon="13.5418935"><ele>794.0</ele><time>2026-05-02T13:34:06.089Z</time></trkpt><trkpt lat="42.0884545" lon="13.5418415"><ele>794.6666666666666</ele><time>2026-05-02T13:34:07.09Z</time></trkpt><trkpt lat="42.0885285" lon="13.5418008"><ele>795.3333333333333</ele><time>2026-05-02T13:34:08.094Z</time></trkpt><trkpt lat="42.0885967" lon="13.5417537"><ele>796.0</ele><time>2026-05-02T13:34:09.081Z</time></trkpt><trkpt lat="42.0886551" lon="13.5416889"><ele>795.9999999999999</ele><time>2026-05-02T13:34:10.08Z</time></trkpt><trkpt lat="42.0886967" lon="13.5416079"><ele>796.0</ele><time>2026-05-02T13:34:11.079Z</time></trkpt><trkpt lat="42.0887187" lon="13.5415212"><ele>796.0</ele><time>2026-05-02T13:34:12.079Z</time></trkpt><trkpt lat="42.0887122" lon="13.5414118"><ele>796.0</ele><time>2026-05-02T13:34:13.091Z</time></trkpt><trkpt lat="42.0886798" lon="13.5412838"><ele>795.9999999999999</ele><time>2026-05-02T13:34:14.086Z</time></trkpt><trkpt lat="42.0886359" lon="13.541129"><ele>796.0</ele><time>2026-05-02T13:34:15.079Z</time></trkpt><trkpt lat="42.088576" lon="13.5409741"><ele>795.75</ele><time>2026-05-02T13:34:16.085Z</time></trkpt><trkpt lat="42.0884908" lon="13.5408204"><ele>795.5</ele><time>2026-05-02T13:34:17.079Z</time></trkpt><trkpt lat="42.0884044" lon="13.5406833"><ele>795.25</ele><time>2026-05-02T13:34:18.083Z</time></trkpt><trkpt lat="42.0883377" lon="13.5405497"><ele>795.0</ele><time>2026-05-02T13:34:19.084Z</time></trkpt><trkpt lat="42.0882975" lon="13.5404176"><ele>794.75</ele><time>2026-05-02T13:34:20.081Z</time></trkpt><trkpt lat="42.0882808" lon="13.5402771"><ele>794.5</ele><time>2026-05-02T13:34:21.081Z</time></trkpt><trkpt lat="42.0882743" lon="13.5401162"><ele>794.25</ele><time>2026-05-02T13:34:22.085Z</time></trkpt><trkpt lat="42.0882781" lon="13.5399488"><ele>794.0</ele><time>2026-05-02T13:34:23.082Z</time></trkpt><trkpt lat="42.0882823" lon="13.5397842"><ele>794.0</ele><time>2026-05-02T13:34:24.087Z</time></trkpt><trkpt lat="42.0882912" lon="13.539611"><ele>794.0</ele><time>2026-05-02T13:34:25.084Z</time></trkpt><trkpt lat="42.0883151" lon="13.5394402"><ele>794.0</ele><time>2026-05-02T13:34:26.087Z</time></trkpt><trkpt lat="42.0883445" lon="13.5392788"><ele>794.0</ele><time>2026-05-02T13:34:27.087Z</time></trkpt><trkpt lat="42.0883704" lon="13.5391325"><ele>794.0</ele><time>2026-05-02T13:34:28.087Z</time></trkpt><trkpt lat="42.0883841" lon="13.5389974"><ele>794.0</ele><time>2026-05-02T13:34:29.086Z</time></trkpt><trkpt lat="42.0883817" lon="13.5388781"><ele>794.0</ele><time>2026-05-02T13:34:30.089Z</time></trkpt><trkpt lat="42.0883721" lon="13.5387712"><ele>794.0</ele><time>2026-05-02T13:34:31.082Z</time></trkpt><trkpt lat="42.0883502" lon="13.5386361"><ele>794.0</ele><time>2026-05-02T13:34:33.085Z</time></trkpt><trkpt lat="42.0884182" lon="13.5385569"><ele>794.0</ele><time>2026-05-02T13:34:36.088Z</time></trkpt><trkpt lat="42.0884929" lon="13.5385319"><ele>794.0</ele><time>2026-05-02T13:34:37.094Z</time></trkpt><trkpt lat="42.0885744" lon="13.53849"><ele>794.0</ele><time>2026-05-02T13:34:38.094Z</time></trkpt><trkpt lat="42.0886677" lon="13.5384556"><ele>794.0</ele><time>2026-05-02T13:34:39.085Z</time></trkpt><trkpt lat="42.0887648" lon="13.53842"><ele>794.0</ele><time>2026-05-02T13:34:40.085Z</time></trkpt><trkpt lat="42.0888501" lon="13.5383675"><ele>794.0</ele><time>2026-05-02T13:34:41.086Z</time></trkpt><trkpt lat="42.0889198" lon="13.5383013"><ele>794.0</ele><time>2026-05-02T13:34:42.083Z</time></trkpt><trkpt lat="42.0889759" lon="13.5382056"><ele>794.0</ele><time>2026-05-02T13:34:43.085Z</time></trkpt><trkpt lat="42.0890236" lon="13.5380915"><ele>794.0</ele><time>2026-05-02T13:34:44.097Z</time></trkpt><trkpt lat="42.08908" lon="13.5379728"><ele>794.0</ele><time>2026-05-02T13:34:45.093Z</time></trkpt><trkpt lat="42.0891387" lon="13.5378486"><ele>796.25</ele><time>2026-05-02T13:34:46.086Z</time></trkpt><trkpt lat="42.0892062" lon="13.5377109"><ele>798.5</ele><time>2026-05-02T13:34:47.096Z</time></trkpt><trkpt lat="42.0892812" lon="13.5375806"><ele>800.75</ele><time>2026-05-02T13:34:48.092Z</time></trkpt><trkpt lat="42.0893676" lon="13.5374676"><ele>803.0</ele><time>2026-05-02T13:34:49.089Z</time></trkpt><trkpt lat="42.089464" lon="13.5373656"><ele>803.0</ele><time>2026-05-02T13:34:50.092Z</time></trkpt><trkpt lat="42.089559" lon="13.5372739"><ele>803.0</ele><time>2026-05-02T13:34:51.094Z</time></trkpt><trkpt lat="42.0896464" lon="13.5371888"><ele>803.0</ele><time>2026-05-02T13:34:52.094Z</time></trkpt><trkpt lat="42.0897192" lon="13.5370911"><ele>803.0</ele><time>2026-05-02T13:34:53.1Z</time></trkpt><trkpt lat="42.0897988" lon="13.5370192"><ele>803.0</ele><time>2026-05-02T13:34:54.095Z</time></trkpt><trkpt lat="42.0898743" lon="13.5369438"><ele>804.8</ele><time>2026-05-02T13:34:55.098Z</time></trkpt><trkpt lat="42.0899397" lon="13.5368656"><ele>806.5999999999999</ele><time>2026-05-02T13:34:56.099Z</time></trkpt><trkpt lat="42.0900034" lon="13.5367805"><ele>808.4000000000001</ele><time>2026-05-02T13:34:57.089Z</time></trkpt><trkpt lat="42.0900749" lon="13.536698"><ele>810.2</ele><time>2026-05-02T13:34:58.097Z</time></trkpt><trkpt lat="42.0901449" lon="13.5366066"><ele>812.0</ele><time>2026-05-02T13:34:59.097Z</time></trkpt><trkpt lat="42.0902058" lon="13.5365286"><ele>812.0000000000001</ele><time>2026-05-02T13:35:00.088Z</time></trkpt><trkpt lat="42.0902618" lon="13.5364755"><ele>812.0</ele><time>2026-05-02T13:35:01.09Z</time></trkpt><trkpt lat="42.0903496" lon="13.5363714"><ele>812.0</ele><time>2026-05-02T13:35:03.088Z</time></trkpt><trkpt lat="42.0903618" lon="13.5362795"><ele>812.0</ele><time>2026-05-02T13:35:04.084Z</time></trkpt><trkpt lat="42.0903513" lon="13.5361686"><ele>812.0000000000001</ele><time>2026-05-02T13:35:05.09Z</time></trkpt><trkpt lat="42.0903204" lon="13.5360638"><ele>812.0</ele><time>2026-05-02T13:35:06.09Z</time></trkpt><trkpt lat="42.0902913" lon="13.5359419"><ele>811.2</ele><time>2026-05-02T13:35:07.091Z</time></trkpt><trkpt lat="42.0902698" lon="13.5358141"><ele>810.4000000000001</ele><time>2026-05-02T13:35:08.102Z</time></trkpt><trkpt lat="42.0902419" lon="13.5356754"><ele>809.5999999999999</ele><time>2026-05-02T13:35:09.097Z</time></trkpt><trkpt lat="42.0902144" lon="13.535543"><ele>808.8</ele><time>2026-05-02T13:35:10.098Z</time></trkpt><trkpt lat="42.0902011" lon="13.5354241"><ele>808.0</ele><time>2026-05-02T13:35:11.093Z</time></trkpt><trkpt lat="42.090211" lon="13.5353042"><ele>807.9999999999999</ele><time>2026-05-02T13:35:12.098Z</time></trkpt><trkpt lat="42.0902279" lon="13.5351778"><ele>808.0</ele><time>2026-05-02T13:35:13.092Z</time></trkpt><trkpt lat="42.0902447" lon="13.5350653"><ele>808.0</ele><time>2026-05-02T13:35:14.097Z</time></trkpt><trkpt lat="42.0902579" lon="13.5349748"><ele>808.0</ele><time>2026-05-02T13:35:15.098Z</time></trkpt><trkpt lat="42.090271" lon="13.5348881"><ele>807.9999999999999</ele><time>2026-05-02T13:35:16.099Z</time></trkpt><trkpt lat="42.0902793" lon="13.5347929"><ele>808.0</ele><time>2026-05-02T13:35:17.094Z</time></trkpt><trkpt lat="42.0902907" lon="13.5346751"><ele>808.0</ele><time>2026-05-02T13:35:18.094Z</time></trkpt><trkpt lat="42.0903071" lon="13.53456"><ele>808.0</ele><time>2026-05-02T13:35:19.093Z</time></trkpt><trkpt lat="42.0903406" lon="13.5344499"><ele>808.0</ele><time>2026-05-02T13:35:20.094Z</time></trkpt><trkpt lat="42.090395" lon="13.5343414"><ele>808.0</ele><time>2026-05-02T13:35:21.093Z</time></trkpt><trkpt lat="42.0904656" lon="13.5342214"><ele>808.0</ele><time>2026-05-02T13:35:22.087Z</time></trkpt><trkpt lat="42.0905521" lon="13.5341051"><ele>808.0</ele><time>2026-05-02T13:35:23.096Z</time></trkpt><trkpt lat="42.0906394" lon="13.5339741"><ele>808.0</ele><time>2026-05-02T13:35:24.098Z</time></trkpt><trkpt lat="42.090726" lon="13.5338355"><ele>808.0</ele><time>2026-05-02T13:35:25.1Z</time></trkpt><trkpt lat="42.0908162" lon="13.5336855"><ele>808.0</ele><time>2026-05-02T13:35:26.102Z</time></trkpt><trkpt lat="42.0908986" lon="13.5335099"><ele>809.5</ele><time>2026-05-02T13:35:27.105Z</time></trkpt><trkpt lat="42.090976" lon="13.5333516"><ele>811.0</ele><time>2026-05-02T13:35:28.1Z</time></trkpt><trkpt lat="42.0910391" lon="13.5331889"><ele>812.5</ele><time>2026-05-02T13:35:29.105Z</time></trkpt><trkpt lat="42.0910905" lon="13.5330544"><ele>814.0</ele><time>2026-05-02T13:35:30.103Z</time></trkpt><trkpt lat="42.0911537" lon="13.5329345"><ele>814.2</ele><time>2026-05-02T13:35:31.103Z</time></trkpt><trkpt lat="42.0912205" lon="13.5328133"><ele>814.4000000000001</ele><time>2026-05-02T13:35:32.099Z</time></trkpt><trkpt lat="42.0912971" lon="13.5327175"><ele>814.6</ele><time>2026-05-02T13:35:33.092Z</time></trkpt><trkpt lat="42.0913768" lon="13.5326354"><ele>814.8</ele><time>2026-05-02T13:35:34.099Z</time></trkpt><trkpt lat="42.0914713" lon="13.5325405"><ele>815.0</ele><time>2026-05-02T13:35:35.097Z</time></trkpt><trkpt lat="42.0915628" lon="13.5324281"><ele>816.25</ele><time>2026-05-02T13:35:36.104Z</time></trkpt><trkpt lat="42.0916581" lon="13.5323034"><ele>817.5</ele><time>2026-05-02T13:35:37.097Z</time></trkpt><trkpt lat="42.0917563" lon="13.532167"><ele>818.75</ele><time>2026-05-02T13:35:38.096Z</time></trkpt><trkpt lat="42.0918418" lon="13.5320234"><ele>820.0</ele><time>2026-05-02T13:35:39.096Z</time></trkpt><trkpt lat="42.0919146" lon="13.5318814"><ele>820.0</ele><time>2026-05-02T13:35:40.101Z</time></trkpt><trkpt lat="42.0919829" lon="13.531727"><ele>820.0</ele><time>2026-05-02T13:35:41.1Z</time></trkpt><trkpt lat="42.092034" lon="13.5315598"><ele>820.0</ele><time>2026-05-02T13:35:42.103Z</time></trkpt><trkpt lat="42.0920728" lon="13.5313838"><ele>820.0</ele><time>2026-05-02T13:35:43.102Z</time></trkpt><trkpt lat="42.0921105" lon="13.5311997"><ele>819.5</ele><time>2026-05-02T13:35:44.104Z</time></trkpt><trkpt lat="42.0921321" lon="13.5310033"><ele>819.0</ele><time>2026-05-02T13:35:45.102Z</time></trkpt><trkpt lat="42.0921564" lon="13.5308106"><ele>818.5</ele><time>2026-05-02T13:35:46.104Z</time></trkpt><trkpt lat="42.0922108" lon="13.5306291"><ele>818.0</ele><time>2026-05-02T13:35:47.1Z</time></trkpt><trkpt lat="42.09226" lon="13.5304635"><ele>817.75</ele><time>2026-05-02T13:35:48.102Z</time></trkpt><trkpt lat="42.0923241" lon="13.5303105"><ele>817.5</ele><time>2026-05-02T13:35:49.097Z</time></trkpt><trkpt lat="42.0923805" lon="13.5301457"><ele>817.25</ele><time>2026-05-02T13:35:50.103Z</time></trkpt><trkpt lat="42.0924352" lon="13.5299771"><ele>817.0</ele><time>2026-05-02T13:35:51.101Z</time></trkpt><trkpt lat="42.0924892" lon="13.5298389"><ele>819.0</ele><time>2026-05-02T13:35:52.098Z</time></trkpt><trkpt lat="42.0925509" lon="13.5296716"><ele>821.0</ele><time>2026-05-02T13:35:53.1Z</time></trkpt><trkpt lat="42.0926123" lon="13.5295349"><ele>823.0</ele><time>2026-05-02T13:35:54.107Z</time></trkpt><trkpt lat="42.0926811" lon="13.529393"><ele>825.0</ele><time>2026-05-02T13:35:55.1Z</time></trkpt><trkpt lat="42.0927403" lon="13.5292319"><ele>825.0</ele><time>2026-05-02T13:35:56.1Z</time></trkpt><trkpt lat="42.0927928" lon="13.5290702"><ele>825.0</ele><time>2026-05-02T13:35:57.105Z</time></trkpt><trkpt lat="42.0928474" lon="13.5289051"><ele>825.0</ele><time>2026-05-02T13:35:58.106Z</time></trkpt><trkpt lat="42.0928973" lon="13.5287508"><ele>825.0</ele><time>2026-05-02T13:35:59.1Z</time></trkpt><trkpt lat="42.0929496" lon="13.5286115"><ele>824.2</ele><time>2026-05-02T13:36:00.104Z</time></trkpt><trkpt lat="42.0929965" lon="13.5284773"><ele>823.4</ele><time>2026-05-02T13:36:01.102Z</time></trkpt><trkpt lat="42.0930413" lon="13.5283598"><ele>822.5999999999999</ele><time>2026-05-02T13:36:02.098Z</time></trkpt><trkpt lat="42.0930813" lon="13.528248"><ele>821.8</ele><time>2026-05-02T13:36:03.099Z</time></trkpt><trkpt lat="42.0931269" lon="13.5281512"><ele>821.0</ele><time>2026-05-02T13:36:04.101Z</time></trkpt><trkpt lat="42.0931842" lon="13.5280538"><ele>821.0</ele><time>2026-05-02T13:36:05.1Z</time></trkpt><trkpt lat="42.0932437" lon="13.5279471"><ele>821.0</ele><time>2026-05-02T13:36:06.099Z</time></trkpt><trkpt lat="42.0933197" lon="13.527856"><ele>821.0</ele><time>2026-05-02T13:36:07.1Z</time></trkpt><trkpt lat="42.0934025" lon="13.5277778"><ele>821.0</ele><time>2026-05-02T13:36:08.098Z</time></trkpt><trkpt lat="42.0934857" lon="13.5277191"><ele>821.0</ele><time>2026-05-02T13:36:09.102Z</time></trkpt><trkpt lat="42.0935654" lon="13.5276687"><ele>822.1666666666667</ele><time>2026-05-02T13:36:10.096Z</time></trkpt><trkpt lat="42.0936455" lon="13.5276233"><ele>823.3333333333334</ele><time>2026-05-02T13:36:11.095Z</time></trkpt><trkpt lat="42.0937279" lon="13.5275947"><ele>824.5</ele><time>2026-05-02T13:36:12.101Z</time></trkpt><trkpt lat="42.0937951" lon="13.5275703"><ele>825.6666666666667</ele><time>2026-05-02T13:36:13.094Z</time></trkpt><trkpt lat="42.0938712" lon="13.5275081"><ele>826.8333333333334</ele><time>2026-05-02T13:36:15.094Z</time></trkpt><trkpt lat="42.0938821" lon="13.5273965"><ele>828.0</ele><time>2026-05-02T13:36:18.103Z</time></trkpt><trkpt lat="42.0939008" lon="13.5272576"><ele>828.0</ele><time>2026-05-02T13:36:20.096Z</time></trkpt><trkpt lat="42.0939075" lon="13.5270935"><ele>828.0</ele><time>2026-05-02T13:36:22.101Z</time></trkpt><trkpt lat="42.0939059" lon="13.5270063"><ele>828.0</ele><time>2026-05-02T13:36:23.101Z</time></trkpt><trkpt lat="42.0939098" lon="13.5269101"><ele>828.0</ele><time>2026-05-02T13:36:24.099Z</time></trkpt><trkpt lat="42.0939205" lon="13.5268056"><ele>828.0</ele><time>2026-05-02T13:36:25.098Z</time></trkpt><trkpt lat="42.0939482" lon="13.5266888"><ele>828.0</ele><time>2026-05-02T13:36:26.102Z</time></trkpt><trkpt lat="42.0939812" lon="13.5265698"><ele>827.6666666666666</ele><time>2026-05-02T13:36:27.102Z</time></trkpt><trkpt lat="42.0940074" lon="13.5264644"><ele>827.3333333333333</ele><time>2026-05-02T13:36:28.1Z</time></trkpt><trkpt lat="42.0940362" lon="13.5263517"><ele>827.0</ele><time>2026-05-02T13:36:29.1Z</time></trkpt><trkpt lat="42.094056" lon="13.5262318"><ele>826.6666666666666</ele><time>2026-05-02T13:36:30.098Z</time></trkpt><trkpt lat="42.0940701" lon="13.5261214"><ele>826.3333333333333</ele><time>2026-05-02T13:36:31.104Z</time></trkpt><trkpt lat="42.0940843" lon="13.5260191"><ele>826.0</ele><time>2026-05-02T13:36:32.097Z</time></trkpt><trkpt lat="42.0941028" lon="13.5259203"><ele>827.0</ele><time>2026-05-02T13:36:33.099Z</time></trkpt><trkpt lat="42.0941288" lon="13.5258287"><ele>828.0</ele><time>2026-05-02T13:36:34.097Z</time></trkpt><trkpt lat="42.0941595" lon="13.5257438"><ele>829.0</ele><time>2026-05-02T13:36:35.099Z</time></trkpt><trkpt lat="42.0942042" lon="13.5255985"><ele>830.0</ele><time>2026-05-02T13:36:37.097Z</time></trkpt><trkpt lat="42.094244" lon="13.5254509"><ele>831.0</ele><time>2026-05-02T13:36:39.098Z</time></trkpt><trkpt lat="42.0942537" lon="13.5253512"><ele>828.6666666666666</ele><time>2026-05-02T13:36:40.099Z</time></trkpt><trkpt lat="42.09428" lon="13.525258"><ele>826.3333333333333</ele><time>2026-05-02T13:36:41.1Z</time></trkpt><trkpt lat="42.0943253" lon="13.5251668"><ele>824.0</ele><time>2026-05-02T13:36:42.096Z</time></trkpt><trkpt lat="42.0943917" lon="13.5250837"><ele>821.6666666666666</ele><time>2026-05-02T13:36:43.096Z</time></trkpt><trkpt lat="42.0944625" lon="13.5250182"><ele>819.3333333333333</ele><time>2026-05-02T13:36:44.099Z</time></trkpt><trkpt lat="42.0945228" lon="13.5249444"><ele>817.0</ele><time>2026-05-02T13:36:45.097Z</time></trkpt><trkpt lat="42.0945755" lon="13.5248719"><ele>816.9999999999999</ele><time>2026-05-02T13:36:46.096Z</time></trkpt><trkpt lat="42.0946351" lon="13.5248112"><ele>817.0</ele><time>2026-05-02T13:36:47.093Z</time></trkpt><trkpt lat="42.0946962" lon="13.5247454"><ele>817.0</ele><time>2026-05-02T13:36:48.095Z</time></trkpt><trkpt lat="42.0947538" lon="13.5246849"><ele>817.0</ele><time>2026-05-02T13:36:49.095Z</time></trkpt><trkpt lat="42.0948063" lon="13.5246203"><ele>817.0</ele><time>2026-05-02T13:36:50.097Z</time></trkpt><trkpt lat="42.0948556" lon="13.5245628"><ele>816.9999999999999</ele><time>2026-05-02T13:36:51.095Z</time></trkpt><trkpt lat="42.0948999" lon="13.5245001"><ele>817.0</ele><time>2026-05-02T13:36:52.087Z</time></trkpt><trkpt lat="42.094945" lon="13.5244368"><ele>817.6666666666666</ele><time>2026-05-02T13:36:53.096Z</time></trkpt><trkpt lat="42.0950117" lon="13.5243817"><ele>818.3333333333333</ele><time>2026-05-02T13:36:54.094Z</time></trkpt><trkpt lat="42.0950905" lon="13.5243192"><ele>819.0</ele><time>2026-05-02T13:36:55.086Z</time></trkpt><trkpt lat="42.0951656" lon="13.5242606"><ele>819.6666666666667</ele><time>2026-05-02T13:36:56.091Z</time></trkpt><trkpt lat="42.0952441" lon="13.5241967"><ele>820.3333333333334</ele><time>2026-05-02T13:36:57.092Z</time></trkpt><trkpt lat="42.0953276" lon="13.5241195"><ele>821.0</ele><time>2026-05-02T13:36:58.094Z</time></trkpt><trkpt lat="42.095403" lon="13.5240275"><ele>821.0</ele><time>2026-05-02T13:36:59.086Z</time></trkpt><trkpt lat="42.0954815" lon="13.523943"><ele>821.0</ele><time>2026-05-02T13:37:00.09Z</time></trkpt><trkpt lat="42.0955625" lon="13.5238614"><ele>821.0</ele><time>2026-05-02T13:37:01.084Z</time></trkpt><trkpt lat="42.0956286" lon="13.523803"><ele>821.0</ele><time>2026-05-02T13:37:02.085Z</time></trkpt><trkpt lat="42.0956781" lon="13.5237402"><ele>821.0</ele><time>2026-05-02T13:37:03.088Z</time></trkpt><trkpt lat="42.0957457" lon="13.5236152"><ele>822.3333333333334</ele><time>2026-05-02T13:37:05.09Z</time></trkpt><trkpt lat="42.0957766" lon="13.5235226"><ele>823.6666666666667</ele><time>2026-05-02T13:37:06.082Z</time></trkpt><trkpt lat="42.0958004" lon="13.5234047"><ele>825.0</ele><time>2026-05-02T13:37:07.082Z</time></trkpt><trkpt lat="42.0958167" lon="13.5233033"><ele>826.3333333333333</ele><time>2026-05-02T13:37:08.089Z</time></trkpt><trkpt lat="42.0958345" lon="13.523208"><ele>827.6666666666666</ele><time>2026-05-02T13:37:09.087Z</time></trkpt><trkpt lat="42.0958559" lon="13.5231228"><ele>829.0</ele><time>2026-05-02T13:37:10.086Z</time></trkpt><trkpt lat="42.0958888" lon="13.5230221"><ele>829.0</ele><time>2026-05-02T13:37:11.085Z</time></trkpt><trkpt lat="42.0959317" lon="13.5228996"><ele>829.0</ele><time>2026-05-02T13:37:12.083Z</time></trkpt><trkpt lat="42.0959731" lon="13.5227917"><ele>829.0</ele><time>2026-05-02T13:37:13.084Z</time></trkpt><trkpt lat="42.0960072" lon="13.5227049"><ele>829.0</ele><time>2026-05-02T13:37:14.083Z</time></trkpt><trkpt lat="42.0960292" lon="13.5226189"><ele>829.0</ele><time>2026-05-02T13:37:15.085Z</time></trkpt><trkpt lat="42.0960861" lon="13.5224681"><ele>829.8000000000001</ele><time>2026-05-02T13:37:17.088Z</time></trkpt><trkpt lat="42.0961425" lon="13.522344"><ele>830.6</ele><time>2026-05-02T13:37:19.087Z</time></trkpt><trkpt lat="42.0961943" lon="13.522209"><ele>831.4</ele><time>2026-05-02T13:37:21.087Z</time></trkpt><trkpt lat="42.0962835" lon="13.5220956"><ele>832.2</ele><time>2026-05-02T13:37:23.096Z</time></trkpt><trkpt lat="42.0963282" lon="13.5220286"><ele>833.0</ele><time>2026-05-02T13:37:24.09Z</time></trkpt><trkpt lat="42.0964208" lon="13.5219234"><ele>833.3333333333334</ele><time>2026-05-02T13:37:26.084Z</time></trkpt><trkpt lat="42.0964644" lon="13.5218487"><ele>833.6666666666667</ele><time>2026-05-02T13:37:28.091Z</time></trkpt><trkpt lat="42.0963967" lon="13.5218286"><ele>834.0</ele><time>2026-05-02T13:37:30.098Z</time></trkpt><trkpt lat="42.0963318" lon="13.5218137"><ele>834.3333333333333</ele><time>2026-05-02T13:37:32.09Z</time></trkpt><trkpt lat="42.0963305" lon="13.5217098"><ele>834.6666666666666</ele><time>2026-05-02T13:37:35.084Z</time></trkpt><trkpt lat="42.0963593" lon="13.5216151"><ele>835.0</ele><time>2026-05-02T13:37:37.084Z</time></trkpt><trkpt lat="42.0963976" lon="13.521492"><ele>834.9999999999999</ele><time>2026-05-02T13:37:39.089Z</time></trkpt><trkpt lat="42.0964008" lon="13.5213515"><ele>835.0</ele><time>2026-05-02T13:37:41.087Z</time></trkpt><trkpt lat="42.0964079" lon="13.5212442"><ele>835.0</ele><time>2026-05-02T13:37:43.097Z</time></trkpt><trkpt lat="42.0964371" lon="13.5211571"><ele>835.0</ele><time>2026-05-02T13:37:56.096Z</time></trkpt><trkpt lat="42.0964776" lon="13.5210705"><ele>834.9999999999999</ele><time>2026-05-02T13:37:58.098Z</time></trkpt><trkpt lat="42.0965398" lon="13.5209737"><ele>835.0</ele><time>2026-05-02T13:38:00.099Z</time></trkpt><trkpt lat="42.0966168" lon="13.5208467"><ele>836.1666666666666</ele><time>2026-05-02T13:38:02.092Z</time></trkpt><trkpt lat="42.0966717" lon="13.5207713"><ele>837.3333333333333</ele><time>2026-05-02T13:38:03.097Z</time></trkpt><trkpt lat="42.0967254" lon="13.5206918"><ele>838.5</ele><time>2026-05-02T13:38:04.095Z</time></trkpt><trkpt lat="42.0967718" lon="13.5206018"><ele>839.6666666666667</ele><time>2026-05-02T13:38:05.098Z</time></trkpt><trkpt lat="42.0968145" lon="13.52052"><ele>840.8333333333334</ele><time>2026-05-02T13:38:06.096Z</time></trkpt><trkpt lat="42.0968575" lon="13.5204442"><ele>842.0</ele><time>2026-05-02T13:38:07.094Z</time></trkpt><trkpt lat="42.0969069" lon="13.5203744"><ele>842.0000000000001</ele><time>2026-05-02T13:38:08.09Z</time></trkpt><trkpt lat="42.0969528" lon="13.5203051"><ele>842.0</ele><time>2026-05-02T13:38:09.092Z</time></trkpt><trkpt lat="42.0969966" lon="13.5202384"><ele>842.0</ele><time>2026-05-02T13:38:10.088Z</time></trkpt><trkpt lat="42.0970931" lon="13.5201619"><ele>842.0</ele><time>2026-05-02T13:38:12.082Z</time></trkpt><trkpt lat="42.097159" lon="13.5201315"><ele>842.0000000000001</ele><time>2026-05-02T13:38:13.086Z</time></trkpt><trkpt lat="42.0972317" lon="13.5200971"><ele>842.0</ele><time>2026-05-02T13:38:14.089Z</time></trkpt><trkpt lat="42.0972981" lon="13.5200708"><ele>842.0000000000001</ele><time>2026-05-02T13:38:15.086Z</time></trkpt><trkpt lat="42.097393" lon="13.5200336"><ele>842.0</ele><time>2026-05-02T13:38:17.077Z</time></trkpt><trkpt lat="42.0974408" lon="13.5199746"><ele>842.0</ele><time>2026-05-02T13:38:19.084Z</time></trkpt><trkpt lat="42.0974541" lon="13.5198522"><ele>842.0</ele><time>2026-05-02T13:38:22.08Z</time></trkpt><trkpt lat="42.0974078" lon="13.5197491"><ele>842.0000000000001</ele><time>2026-05-02T13:38:24.089Z</time></trkpt><trkpt lat="42.0973803" lon="13.5196214"><ele>842.0</ele><time>2026-05-02T13:38:26.093Z</time></trkpt><trkpt lat="42.0973701" lon="13.5194955"><ele>844.6</ele><time>2026-05-02T13:38:28.092Z</time></trkpt><trkpt lat="42.0973692" lon="13.5193991"><ele>847.2</ele><time>2026-05-02T13:38:30.091Z</time></trkpt><trkpt lat="42.0973141" lon="13.519322"><ele>849.8</ele><time>2026-05-02T13:38:32.091Z</time></trkpt><trkpt lat="42.0972441" lon="13.5192131"><ele>852.4</ele><time>2026-05-02T13:38:34.095Z</time></trkpt><trkpt lat="42.0971963" lon="13.5190709"><ele>855.0</ele><time>2026-05-02T13:38:36.088Z</time></trkpt><trkpt lat="42.0971991" lon="13.5189382"><ele>855.0</ele><time>2026-05-02T13:38:38.094Z</time></trkpt><trkpt lat="42.0972522" lon="13.5187644"><ele>855.0</ele><time>2026-05-02T13:38:40.092Z</time></trkpt><trkpt lat="42.0972872" lon="13.5186445"><ele>855.0</ele><time>2026-05-02T13:38:41.09Z</time></trkpt><trkpt lat="42.0973243" lon="13.5185193"><ele>855.0</ele><time>2026-05-02T13:38:42.091Z</time></trkpt><trkpt lat="42.0973662" lon="13.518399"><ele>855.0</ele><time>2026-05-02T13:38:43.09Z</time></trkpt><trkpt lat="42.0974055" lon="13.5182943"><ele>859.2</ele><time>2026-05-02T13:38:44.101Z</time></trkpt><trkpt lat="42.0974477" lon="13.5181803"><ele>863.4</ele><time>2026-05-02T13:38:45.099Z</time></trkpt><trkpt lat="42.0974931" lon="13.5180588"><ele>867.5999999999999</ele><time>2026-05-02T13:38:46.096Z</time></trkpt><trkpt lat="42.0975499" lon="13.5179366"><ele>871.8</ele><time>2026-05-02T13:38:47.091Z</time></trkpt><trkpt lat="42.0976114" lon="13.5178127"><ele>876.0</ele><time>2026-05-02T13:38:48.095Z</time></trkpt><trkpt lat="42.0976679" lon="13.5177037"><ele>876.0</ele><time>2026-05-02T13:38:49.09Z</time></trkpt><trkpt lat="42.0977214" lon="13.5175975"><ele>875.9999999999999</ele><time>2026-05-02T13:38:50.095Z</time></trkpt><trkpt lat="42.0977705" lon="13.5174903"><ele>875.9999999999999</ele><time>2026-05-02T13:38:51.089Z</time></trkpt><trkpt lat="42.0978228" lon="13.5173867"><ele>876.0</ele><time>2026-05-02T13:38:52.095Z</time></trkpt><trkpt lat="42.0978754" lon="13.517272"><ele>876.0</ele><time>2026-05-02T13:38:53.095Z</time></trkpt><trkpt lat="42.0979228" lon="13.5171574"><ele>876.0</ele><time>2026-05-02T13:38:54.097Z</time></trkpt><trkpt lat="42.0979654" lon="13.5170406"><ele>876.0</ele><time>2026-05-02T13:38:55.092Z</time></trkpt><trkpt lat="42.0980008" lon="13.5169373"><ele>876.0</ele><time>2026-05-02T13:38:56.092Z</time></trkpt><trkpt lat="42.0980263" lon="13.5168382"><ele>876.0</ele><time>2026-05-02T13:38:57.087Z</time></trkpt><trkpt lat="42.0980524" lon="13.5167353"><ele>876.0</ele><time>2026-05-02T13:38:58.096Z</time></trkpt><trkpt lat="42.0980725" lon="13.516611"><ele>876.0</ele><time>2026-05-02T13:38:59.096Z</time></trkpt><trkpt lat="42.0980974" lon="13.5164938"><ele>876.0</ele><time>2026-05-02T13:39:00.102Z</time></trkpt><trkpt lat="42.0981184" lon="13.5163774"><ele>876.0</ele><time>2026-05-02T13:39:01.103Z</time></trkpt><trkpt lat="42.098136" lon="13.5162651"><ele>876.0</ele><time>2026-05-02T13:39:02.099Z</time></trkpt><trkpt lat="42.0981551" lon="13.5161556"><ele>876.0</ele><time>2026-05-02T13:39:03.095Z</time></trkpt><trkpt lat="42.0981797" lon="13.5160479"><ele>876.0</ele><time>2026-05-02T13:39:04.097Z</time></trkpt><trkpt lat="42.0982126" lon="13.5159424"><ele>876.0</ele><time>2026-05-02T13:39:05.1Z</time></trkpt><trkpt lat="42.0982524" lon="13.5158552"><ele>880.0</ele><time>2026-05-02T13:39:06.094Z</time></trkpt><trkpt lat="42.0982977" lon="13.5157772"><ele>884.0</ele><time>2026-05-02T13:39:07.098Z</time></trkpt><trkpt lat="42.0983593" lon="13.5156945"><ele>888.0</ele><time>2026-05-02T13:39:08.101Z</time></trkpt><trkpt lat="42.098429" lon="13.5156039"><ele>892.0</ele><time>2026-05-02T13:39:09.095Z</time></trkpt><trkpt lat="42.098488" lon="13.5155132"><ele>896.0</ele><time>2026-05-02T13:39:10.09Z</time></trkpt><trkpt lat="42.0985323" lon="13.5154322"><ele>900.0</ele><time>2026-05-02T13:39:11.1Z</time></trkpt><trkpt lat="42.0985688" lon="13.5153516"><ele>900.8333333333334</ele><time>2026-05-02T13:39:12.089Z</time></trkpt><trkpt lat="42.0986258" lon="13.5152416"><ele>901.6666666666667</ele><time>2026-05-02T13:39:14.097Z</time></trkpt><trkpt lat="42.0986765" lon="13.5151722"><ele>902.5</ele><time>2026-05-02T13:39:16.095Z</time></trkpt><trkpt lat="42.0987064" lon="13.5150769"><ele>903.3333333333334</ele><time>2026-05-02T13:39:19.091Z</time></trkpt><trkpt lat="42.0987524" lon="13.5149531"><ele>904.1666666666667</ele><time>2026-05-02T13:49:25.11Z</time></trkpt><trkpt lat="42.0987933" lon="13.5148736"><ele>905.0</ele><time>2026-05-02T13:49:26.118Z</time></trkpt><trkpt lat="42.0988451" lon="13.5147732"><ele>905.0</ele><time>2026-05-02T13:49:27.122Z</time></trkpt><trkpt lat="42.0989069" lon="13.5146548"><ele>905.0</ele><time>2026-05-02T13:49:28.117Z</time></trkpt><trkpt lat="42.098954" lon="13.5145311"><ele>905.0</ele><time>2026-05-02T13:49:29.126Z</time></trkpt><trkpt lat="42.0989846" lon="13.5144372"><ele>905.0</ele><time>2026-05-02T13:49:30.126Z</time></trkpt><trkpt lat="42.0990188" lon="13.5143189"><ele>905.0</ele><time>2026-05-02T13:49:32.12Z</time></trkpt><trkpt lat="42.0989556" lon="13.5142368"><ele>906.0</ele><time>2026-05-02T13:49:35.124Z</time></trkpt><trkpt lat="42.0988725" lon="13.5141552"><ele>907.0</ele><time>2026-05-02T13:49:37.12Z</time></trkpt><trkpt lat="42.0988385" lon="13.5140675"><ele>908.0</ele><time>2026-05-02T13:49:38.128Z</time></trkpt><trkpt lat="42.0988022" lon="13.5139449"><ele>909.0</ele><time>2026-05-02T13:49:39.115Z</time></trkpt><trkpt lat="42.0987664" lon="13.5138114"><ele>910.0</ele><time>2026-05-02T13:49:40.119Z</time></trkpt><trkpt lat="42.098723" lon="13.5136704"><ele>912.2</ele><time>2026-05-02T13:49:41.118Z</time></trkpt><trkpt lat="42.0986741" lon="13.5135258"><ele>914.4</ele><time>2026-05-02T13:49:42.113Z</time></trkpt><trkpt lat="42.0986316" lon="13.5133926"><ele>916.5999999999999</ele><time>2026-05-02T13:49:43.106Z</time></trkpt><trkpt lat="42.0985953" lon="13.5132817"><ele>918.8</ele><time>2026-05-02T13:49:44.11Z</time></trkpt><trkpt lat="42.0985771" lon="13.5131858"><ele>921.0</ele><time>2026-05-02T13:49:45.101Z</time></trkpt><trkpt lat="42.0985709" lon="13.5131005"><ele>921.0</ele><time>2026-05-02T13:49:46.108Z</time></trkpt><trkpt lat="42.0985692" lon="13.5129588"><ele>921.0</ele><time>2026-05-02T13:49:48.117Z</time></trkpt><trkpt lat="42.0985314" lon="13.5127966"><ele>921.0</ele><time>2026-05-02T13:49:50.106Z</time></trkpt><trkpt lat="42.0985039" lon="13.5127175"><ele>921.0</ele><time>2026-05-02T13:49:51.111Z</time></trkpt><trkpt lat="42.0984704" lon="13.5126376"><ele>921.0</ele><time>2026-05-02T13:49:52.117Z</time></trkpt><trkpt lat="42.0984493" lon="13.5125337"><ele>921.0</ele><time>2026-05-02T13:49:53.112Z</time></trkpt><trkpt lat="42.0984413" lon="13.5124072"><ele>921.8</ele><time>2026-05-02T13:49:54.107Z</time></trkpt><trkpt lat="42.0984375" lon="13.5122637"><ele>922.5999999999999</ele><time>2026-05-02T13:49:55.11Z</time></trkpt><trkpt lat="42.0984335" lon="13.5121331"><ele>923.4</ele><time>2026-05-02T13:49:56.114Z</time></trkpt><trkpt lat="42.0984316" lon="13.5119998"><ele>924.2</ele><time>2026-05-02T13:49:57.112Z</time></trkpt><trkpt lat="42.0984397" lon="13.5118713"><ele>925.0</ele><time>2026-05-02T13:49:58.109Z</time></trkpt><trkpt lat="42.0984661" lon="13.5117321"><ele>925.6666666666666</ele><time>2026-05-02T13:49:59.113Z</time></trkpt><trkpt lat="42.0984954" lon="13.5115964"><ele>926.3333333333333</ele><time>2026-05-02T13:50:00.116Z</time></trkpt><trkpt lat="42.0985031" lon="13.5114784"><ele>927.0</ele><time>2026-05-02T13:50:01.119Z</time></trkpt><trkpt lat="42.0984939" lon="13.5113633"><ele>927.6666666666667</ele><time>2026-05-02T13:50:02.12Z</time></trkpt><trkpt lat="42.0984718" lon="13.511259"><ele>928.3333333333334</ele><time>2026-05-02T13:50:03.115Z</time></trkpt><trkpt lat="42.0984343" lon="13.5111641"><ele>929.0</ele><time>2026-05-02T13:50:04.12Z</time></trkpt><trkpt lat="42.0983789" lon="13.5110668"><ele>930.4000000000001</ele><time>2026-05-02T13:50:05.121Z</time></trkpt><trkpt lat="42.098311" lon="13.5109799"><ele>931.8000000000001</ele><time>2026-05-02T13:50:06.119Z</time></trkpt><trkpt lat="42.0982436" lon="13.510893"><ele>933.1999999999999</ele><time>2026-05-02T13:50:07.123Z</time></trkpt><trkpt lat="42.0981876" lon="13.5108031"><ele>934.5999999999999</ele><time>2026-05-02T13:50:08.12Z</time></trkpt><trkpt lat="42.0981386" lon="13.5106945"><ele>936.0</ele><time>2026-05-02T13:50:09.117Z</time></trkpt><trkpt lat="42.098095" lon="13.510567"><ele>931.1999999999999</ele><time>2026-05-02T13:50:10.115Z</time></trkpt><trkpt lat="42.0980622" lon="13.51044"><ele>926.3999999999999</ele><time>2026-05-02T13:50:11.112Z</time></trkpt><trkpt lat="42.0980202" lon="13.510324"><ele>921.6</ele><time>2026-05-02T13:50:12.121Z</time></trkpt><trkpt lat="42.0979664" lon="13.510198"><ele>916.8</ele><time>2026-05-02T13:50:13.115Z</time></trkpt><trkpt lat="42.0979026" lon="13.5100748"><ele>912.0</ele><time>2026-05-02T13:50:14.125Z</time></trkpt><trkpt lat="42.0978386" lon="13.5099618"><ele>912.0</ele><time>2026-05-02T13:50:15.115Z</time></trkpt><trkpt lat="42.0977768" lon="13.509855"><ele>912.0</ele><time>2026-05-02T13:50:16.116Z</time></trkpt><trkpt lat="42.0977281" lon="13.5097551"><ele>912.0</ele><time>2026-05-02T13:50:17.117Z</time></trkpt><trkpt lat="42.0976919" lon="13.5096596"><ele>912.0</ele><time>2026-05-02T13:50:18.119Z</time></trkpt><trkpt lat="42.0976664" lon="13.509557"><ele>912.0</ele><time>2026-05-02T13:50:19.117Z</time></trkpt><trkpt lat="42.0976438" lon="13.5094558"><ele>912.0</ele><time>2026-05-02T13:50:20.121Z</time></trkpt><trkpt lat="42.0976255" lon="13.5093611"><ele>912.0</ele><time>2026-05-02T13:50:21.112Z</time></trkpt><trkpt lat="42.0976268" lon="13.5092749"><ele>912.0</ele><time>2026-05-02T13:50:22.117Z</time></trkpt><trkpt lat="42.0976513" lon="13.5091821"><ele>912.0</ele><time>2026-05-02T13:50:23.11Z</time></trkpt><trkpt lat="42.0976873" lon="13.5090785"><ele>912.0</ele><time>2026-05-02T13:50:24.108Z</time></trkpt><trkpt lat="42.0977327" lon="13.5089411"><ele>912.0</ele><time>2026-05-02T13:50:25.105Z</time></trkpt><trkpt lat="42.0977747" lon="13.5087892"><ele>912.0</ele><time>2026-05-02T13:50:26.102Z</time></trkpt><trkpt lat="42.0978129" lon="13.5086291"><ele>912.0</ele><time>2026-05-02T13:50:27.096Z</time></trkpt><trkpt lat="42.0978377" lon="13.5084585"><ele>912.0</ele><time>2026-05-02T13:50:28.1Z</time></trkpt><trkpt lat="42.0978497" lon="13.5082948"><ele>912.0</ele><time>2026-05-02T13:50:29.097Z</time></trkpt><trkpt lat="42.0978603" lon="13.5081321"><ele>912.0</ele><time>2026-05-02T13:50:30.108Z</time></trkpt><trkpt lat="42.0978767" lon="13.507976"><ele>912.0</ele><time>2026-05-02T13:50:31.101Z</time></trkpt><trkpt lat="42.0979032" lon="13.507824"><ele>912.0</ele><time>2026-05-02T13:50:32.11Z</time></trkpt><trkpt lat="42.0979256" lon="13.5076805"><ele>912.0</ele><time>2026-05-02T13:50:33.113Z</time></trkpt><trkpt lat="42.0979495" lon="13.5075518"><ele>912.0</ele><time>2026-05-02T13:50:34.112Z</time></trkpt><trkpt lat="42.0979727" lon="13.5074362"><ele>912.1666666666666</ele><time>2026-05-02T13:50:35.107Z</time></trkpt><trkpt lat="42.0979972" lon="13.5073364"><ele>912.3333333333333</ele><time>2026-05-02T13:50:36.11Z</time></trkpt><trkpt lat="42.0980362" lon="13.5072536"><ele>912.5</ele><time>2026-05-02T13:50:37.111Z</time></trkpt><trkpt lat="42.0980933" lon="13.5071797"><ele>912.6666666666666</ele><time>2026-05-02T13:50:38.113Z</time></trkpt><trkpt lat="42.0981604" lon="13.5071146"><ele>912.8333333333333</ele><time>2026-05-02T13:50:39.109Z</time></trkpt><trkpt lat="42.0982339" lon="13.5070514"><ele>913.0</ele><time>2026-05-02T13:50:40.115Z</time></trkpt><trkpt lat="42.098313" lon="13.5069795"><ele>913.3333333333333</ele><time>2026-05-02T13:50:41.117Z</time></trkpt><trkpt lat="42.0983877" lon="13.5068913"><ele>913.6666666666666</ele><time>2026-05-02T13:50:42.118Z</time></trkpt><trkpt lat="42.0984524" lon="13.5068048"><ele>914.0</ele><time>2026-05-02T13:50:43.118Z</time></trkpt><trkpt lat="42.0985095" lon="13.506728"><ele>914.3333333333333</ele><time>2026-05-02T13:50:44.116Z</time></trkpt><trkpt lat="42.0985549" lon="13.5066466"><ele>914.6666666666666</ele><time>2026-05-02T13:50:45.117Z</time></trkpt><trkpt lat="42.0985941" lon="13.5065466"><ele>915.0</ele><time>2026-05-02T13:50:46.112Z</time></trkpt><trkpt lat="42.0986233" lon="13.5064246"><ele>915.0</ele><time>2026-05-02T13:50:47.113Z</time></trkpt><trkpt lat="42.098658" lon="13.5062893"><ele>915.0</ele><time>2026-05-02T13:50:48.11Z</time></trkpt><trkpt lat="42.0986978" lon="13.5061391"><ele>915.0</ele><time>2026-05-02T13:50:49.11Z</time></trkpt><trkpt lat="42.0987443" lon="13.5059971"><ele>915.0</ele><time>2026-05-02T13:50:50.117Z</time></trkpt><trkpt lat="42.0987934" lon="13.5058628"><ele>915.0</ele><time>2026-05-02T13:50:51.123Z</time></trkpt><trkpt lat="42.0988361" lon="13.5057444"><ele>915.0</ele><time>2026-05-02T13:50:52.117Z</time></trkpt><trkpt lat="42.0988713" lon="13.5056347"><ele>915.0</ele><time>2026-05-02T13:50:53.116Z</time></trkpt><trkpt lat="42.0989054" lon="13.5055267"><ele>915.0</ele><time>2026-05-02T13:50:54.115Z</time></trkpt><trkpt lat="42.0989402" lon="13.5054267"><ele>915.0</ele><time>2026-05-02T13:50:55.114Z</time></trkpt><trkpt lat="42.0989869" lon="13.5053348"><ele>915.0</ele><time>2026-05-02T13:50:56.113Z</time></trkpt><trkpt lat="42.0990415" lon="13.505243"><ele>917.2</ele><time>2026-05-02T13:50:57.118Z</time></trkpt><trkpt lat="42.0990988" lon="13.5051452"><ele>919.4</ele><time>2026-05-02T13:50:58.124Z</time></trkpt><trkpt lat="42.0991696" lon="13.5050538"><ele>921.5999999999999</ele><time>2026-05-02T13:50:59.121Z</time></trkpt><trkpt lat="42.0992397" lon="13.5049697"><ele>923.8</ele><time>2026-05-02T13:51:00.122Z</time></trkpt><trkpt lat="42.0993148" lon="13.5048719"><ele>926.0</ele><time>2026-05-02T13:51:01.12Z</time></trkpt><trkpt lat="42.0993844" lon="13.5047763"><ele>926.0</ele><time>2026-05-02T13:51:02.12Z</time></trkpt><trkpt lat="42.0994466" lon="13.50467"><ele>925.9999999999999</ele><time>2026-05-02T13:51:03.121Z</time></trkpt><trkpt lat="42.0995121" lon="13.5045521"><ele>925.9999999999999</ele><time>2026-05-02T13:51:04.122Z</time></trkpt><trkpt lat="42.0995765" lon="13.5044205"><ele>926.0</ele><time>2026-05-02T13:51:05.117Z</time></trkpt><trkpt lat="42.099645" lon="13.5042972"><ele>926.0</ele><time>2026-05-02T13:51:06.119Z</time></trkpt><trkpt lat="42.0997044" lon="13.5041736"><ele>927.0</ele><time>2026-05-02T13:51:07.121Z</time></trkpt><trkpt lat="42.099759" lon="13.5040502"><ele>927.9999999999999</ele><time>2026-05-02T13:51:08.12Z</time></trkpt><trkpt lat="42.0998187" lon="13.5039244"><ele>928.9999999999999</ele><time>2026-05-02T13:51:09.114Z</time></trkpt><trkpt lat="42.0998737" lon="13.5038005"><ele>930.0</ele><time>2026-05-02T13:51:10.12Z</time></trkpt><trkpt lat="42.0999296" lon="13.503673"><ele>931.0</ele><time>2026-05-02T13:51:11.116Z</time></trkpt><trkpt lat="42.0999877" lon="13.5035415"><ele>931.5</ele><time>2026-05-02T13:51:12.12Z</time></trkpt><trkpt lat="42.1000493" lon="13.5034049"><ele>932.0</ele><time>2026-05-02T13:51:13.116Z</time></trkpt><trkpt lat="42.1001097" lon="13.5032681"><ele>932.5</ele><time>2026-05-02T13:51:14.129Z</time></trkpt><trkpt lat="42.1001649" lon="13.5031381"><ele>933.0</ele><time>2026-05-02T13:51:15.118Z</time></trkpt><trkpt lat="42.1002235" lon="13.5030162"><ele>935.0</ele><time>2026-05-02T13:51:16.131Z</time></trkpt><trkpt lat="42.100284" lon="13.5028974"><ele>937.0</ele><time>2026-05-02T13:51:17.124Z</time></trkpt><trkpt lat="42.1003468" lon="13.5027701"><ele>939.0</ele><time>2026-05-02T13:51:18.125Z</time></trkpt><trkpt lat="42.1004168" lon="13.5026463"><ele>941.0</ele><time>2026-05-02T13:51:19.126Z</time></trkpt><trkpt lat="42.1004761" lon="13.5025375"><ele>943.0</ele><time>2026-05-02T13:51:20.127Z</time></trkpt><trkpt lat="42.1005365" lon="13.502433"><ele>943.0</ele><time>2026-05-02T13:51:21.126Z</time></trkpt><trkpt lat="42.1005956" lon="13.5023339"><ele>943.0</ele><time>2026-05-02T13:51:22.128Z</time></trkpt><trkpt lat="42.1006623" lon="13.5022345"><ele>943.0</ele><time>2026-05-02T13:51:23.126Z</time></trkpt><trkpt lat="42.1007308" lon="13.5021358"><ele>943.0</ele><time>2026-05-02T13:51:24.125Z</time></trkpt><trkpt lat="42.100799" lon="13.5020446"><ele>943.0</ele><time>2026-05-02T13:51:25.117Z</time></trkpt><trkpt lat="42.100862" lon="13.5019626"><ele>944.0</ele><time>2026-05-02T13:51:26.123Z</time></trkpt><trkpt lat="42.100932" lon="13.5018837"><ele>945.0</ele><time>2026-05-02T13:51:27.117Z</time></trkpt><trkpt lat="42.1010082" lon="13.5018018"><ele>946.0</ele><time>2026-05-02T13:51:28.12Z</time></trkpt><trkpt lat="42.1010876" lon="13.5017274"><ele>947.0</ele><time>2026-05-02T13:51:29.128Z</time></trkpt><trkpt lat="42.101165" lon="13.5016404"><ele>948.0</ele><time>2026-05-02T13:51:30.126Z</time></trkpt><trkpt lat="42.101238" lon="13.5015434"><ele>948.0</ele><time>2026-05-02T13:51:31.124Z</time></trkpt><trkpt lat="42.1013031" lon="13.5014368"><ele>948.0</ele><time>2026-05-02T13:51:32.115Z</time></trkpt><trkpt lat="42.1013673" lon="13.5013341"><ele>948.0</ele><time>2026-05-02T13:51:33.118Z</time></trkpt><trkpt lat="42.1014213" lon="13.5012508"><ele>948.0</ele><time>2026-05-02T13:51:34.115Z</time></trkpt><trkpt lat="42.1014656" lon="13.5011748"><ele>948.0</ele><time>2026-05-02T13:51:35.118Z</time></trkpt><trkpt lat="42.1015077" lon="13.5011052"><ele>948.0</ele><time>2026-05-02T13:51:36.116Z</time></trkpt><trkpt lat="42.1015764" lon="13.5010761"><ele>948.8333333333334</ele><time>2026-05-02T13:51:38.113Z</time></trkpt><trkpt lat="42.1016072" lon="13.5011765"><ele>949.6666666666667</ele><time>2026-05-02T13:51:40.116Z</time></trkpt><trkpt lat="42.1016222" lon="13.5013376"><ele>950.5</ele><time>2026-05-02T13:51:42.118Z</time></trkpt><trkpt lat="42.101621" lon="13.5014258"><ele>951.3333333333334</ele><time>2026-05-02T13:51:43.117Z</time></trkpt><trkpt lat="42.1016283" lon="13.5015142"><ele>952.1666666666667</ele><time>2026-05-02T13:51:44.122Z</time></trkpt><trkpt lat="42.1016375" lon="13.5016274"><ele>953.0</ele><time>2026-05-02T13:51:45.117Z</time></trkpt><trkpt lat="42.1016505" lon="13.5017562"><ele>953.0</ele><time>2026-05-02T13:51:46.121Z</time></trkpt><trkpt lat="42.1016733" lon="13.5019019"><ele>953.0</ele><time>2026-05-02T13:51:47.121Z</time></trkpt><trkpt lat="42.1017047" lon="13.5020557"><ele>953.0</ele><time>2026-05-02T13:51:48.119Z</time></trkpt><trkpt lat="42.1017431" lon="13.5022174"><ele>953.0</ele><time>2026-05-02T13:51:49.123Z</time></trkpt><trkpt lat="42.1017831" lon="13.5023748"><ele>951.4</ele><time>2026-05-02T13:51:50.119Z</time></trkpt><trkpt lat="42.1018219" lon="13.5025217"><ele>949.8</ele><time>2026-05-02T13:51:51.126Z</time></trkpt><trkpt lat="42.1018562" lon="13.5026636"><ele>948.2</ele><time>2026-05-02T13:51:52.127Z</time></trkpt><trkpt lat="42.1019103" lon="13.5027956"><ele>946.6</ele><time>2026-05-02T13:51:53.121Z</time></trkpt><trkpt lat="42.1019789" lon="13.5029126"><ele>945.0</ele><time>2026-05-02T13:51:54.118Z</time></trkpt><trkpt lat="42.1020443" lon="13.5030105"><ele>944.0</ele><time>2026-05-02T13:51:55.124Z</time></trkpt><trkpt lat="42.1021021" lon="13.5030958"><ele>943.0</ele><time>2026-05-02T13:51:56.119Z</time></trkpt><trkpt lat="42.1021492" lon="13.5031666"><ele>942.0</ele><time>2026-05-02T13:51:57.119Z</time></trkpt><trkpt lat="42.1021798" lon="13.5033004"><ele>941.0</ele><time>2026-05-02T13:51:59.111Z</time></trkpt><trkpt lat="42.1021378" lon="13.5034365"><ele>940.0</ele><time>2026-05-02T13:52:01.117Z</time></trkpt><trkpt lat="42.1020921" lon="13.503531"><ele>940.0</ele><time>2026-05-02T13:52:02.113Z</time></trkpt><trkpt lat="42.1020428" lon="13.5036309"><ele>940.0</ele><time>2026-05-02T13:52:03.115Z</time></trkpt><trkpt lat="42.1019886" lon="13.5037467"><ele>940.0</ele><time>2026-05-02T13:52:04.108Z</time></trkpt><trkpt lat="42.1019232" lon="13.5038821"><ele>940.0</ele><time>2026-05-02T13:52:05.119Z</time></trkpt><trkpt lat="42.1018545" lon="13.5040232"><ele>940.0</ele><time>2026-05-02T13:52:06.118Z</time></trkpt><trkpt lat="42.1017802" lon="13.5041739"><ele>938.75</ele><time>2026-05-02T13:52:07.117Z</time></trkpt><trkpt lat="42.1017057" lon="13.5043277"><ele>937.5</ele><time>2026-05-02T13:52:08.115Z</time></trkpt><trkpt lat="42.1016326" lon="13.504488"><ele>936.25</ele><time>2026-05-02T13:52:09.121Z</time></trkpt><trkpt lat="42.1015265" lon="13.5046276"><ele>935.0</ele><time>2026-05-02T13:52:10.119Z</time></trkpt><trkpt lat="42.1014101" lon="13.5048199"><ele>934.0</ele><time>2026-05-02T13:52:11.118Z</time></trkpt><trkpt lat="42.1013493" lon="13.5049708"><ele>933.0</ele><time>2026-05-02T13:52:12.12Z</time></trkpt><trkpt lat="42.1013127" lon="13.5051486"><ele>932.0</ele><time>2026-05-02T13:52:13.12Z</time></trkpt><trkpt lat="42.1012855" lon="13.5053683"><ele>931.0</ele><time>2026-05-02T13:52:14.125Z</time></trkpt><trkpt lat="42.1012609" lon="13.5055686"><ele>931.0</ele><time>2026-05-02T13:52:15.119Z</time></trkpt><trkpt lat="42.1012313" lon="13.5057555"><ele>931.0</ele><time>2026-05-02T13:52:16.125Z</time></trkpt><trkpt lat="42.1011993" lon="13.5059301"><ele>931.0</ele><time>2026-05-02T13:52:17.13Z</time></trkpt><trkpt lat="42.1011546" lon="13.5061139"><ele>931.0</ele><time>2026-05-02T13:52:18.129Z</time></trkpt><trkpt lat="42.1011328" lon="13.5063164"><ele>931.0</ele><time>2026-05-02T13:52:19.127Z</time></trkpt><trkpt lat="42.1011234" lon="13.5065359"><ele>931.0</ele><time>2026-05-02T13:52:20.127Z</time></trkpt><trkpt lat="42.1011153" lon="13.5067447"><ele>931.0</ele><time>2026-05-02T13:52:21.126Z</time></trkpt><trkpt lat="42.1011073" lon="13.506941"><ele>933.0</ele><time>2026-05-02T13:52:22.121Z</time></trkpt><trkpt lat="42.1010941" lon="13.5071073"><ele>935.0</ele><time>2026-05-02T13:52:23.127Z</time></trkpt><trkpt lat="42.1011068" lon="13.5072772"><ele>937.0</ele><time>2026-05-02T13:52:24.125Z</time></trkpt><trkpt lat="42.101137" lon="13.5074618"><ele>939.0</ele><time>2026-05-02T13:52:25.125Z</time></trkpt><trkpt lat="42.1011483" lon="13.5076113"><ele>939.0</ele><time>2026-05-02T13:52:26.122Z</time></trkpt><trkpt lat="42.1011491" lon="13.5077741"><ele>939.0</ele><time>2026-05-02T13:52:27.123Z</time></trkpt><trkpt lat="42.1011139" lon="13.5079604"><ele>939.0</ele><time>2026-05-02T13:52:28.124Z</time></trkpt><trkpt lat="42.1010801" lon="13.5081385"><ele>939.0</ele><time>2026-05-02T13:52:29.127Z</time></trkpt><trkpt lat="42.1010544" lon="13.5083128"><ele>940.75</ele><time>2026-05-02T13:52:30.115Z</time></trkpt><trkpt lat="42.101033" lon="13.5085022"><ele>942.5</ele><time>2026-05-02T13:52:31.119Z</time></trkpt><trkpt lat="42.1010182" lon="13.5087025"><ele>944.25</ele><time>2026-05-02T13:52:32.114Z</time></trkpt><trkpt lat="42.1009861" lon="13.5088574"><ele>946.0</ele><time>2026-05-02T13:52:33.116Z</time></trkpt><trkpt lat="42.1009529" lon="13.5089792"><ele>948.0</ele><time>2026-05-02T13:52:34.126Z</time></trkpt><trkpt lat="42.1009164" lon="13.5090795"><ele>949.9999999999999</ele><time>2026-05-02T13:52:35.123Z</time></trkpt><trkpt lat="42.1008568" lon="13.5092036"><ele>951.9999999999999</ele><time>2026-05-02T13:52:36.112Z</time></trkpt><trkpt lat="42.1008111" lon="13.5093299"><ele>954.0</ele><time>2026-05-02T13:52:37.123Z</time></trkpt><trkpt lat="42.1007393" lon="13.5094673"><ele>956.0</ele><time>2026-05-02T13:52:39.119Z</time></trkpt><trkpt lat="42.1006921" lon="13.5095979"><ele>956.0000000000001</ele><time>2026-05-02T13:52:41.121Z</time></trkpt><trkpt lat="42.1007074" lon="13.5097241"><ele>956.0</ele><time>2026-05-02T13:52:44.123Z</time></trkpt><trkpt lat="42.1007796" lon="13.50975"><ele>956.0</ele><time>2026-05-02T13:52:46.119Z</time></trkpt><trkpt lat="42.1008052" lon="13.5096391"><ele>956.0</ele><time>2026-05-02T13:52:49.12Z</time></trkpt><trkpt lat="42.1008461" lon="13.5095193"><ele>956.0000000000001</ele><time>2026-05-02T13:52:51.126Z</time></trkpt><trkpt lat="42.1009039" lon="13.509425"><ele>956.0</ele><time>2026-05-02T13:52:52.115Z</time></trkpt><trkpt lat="42.1009777" lon="13.5093119"><ele>956.0</ele><time>2026-05-02T13:52:53.123Z</time></trkpt><trkpt lat="42.1010622" lon="13.5091867"><ele>956.0</ele><time>2026-05-02T13:52:54.12Z</time></trkpt><trkpt lat="42.1011505" lon="13.5090614"><ele>956.0</ele><time>2026-05-02T13:52:55.127Z</time></trkpt><trkpt lat="42.1012483" lon="13.5089267"><ele>956.0</ele><time>2026-05-02T13:52:56.11Z</time></trkpt><trkpt lat="42.1013605" lon="13.5087871"><ele>955.0</ele><time>2026-05-02T13:52:57.12Z</time></trkpt><trkpt lat="42.1015221" lon="13.5086169"><ele>954.0</ele><time>2026-05-02T13:52:58.12Z</time></trkpt><trkpt lat="42.1016474" lon="13.5084471"><ele>953.0</ele><time>2026-05-02T13:52:59.119Z</time></trkpt><trkpt lat="42.1017847" lon="13.5082756"><ele>953.0</ele><time>2026-05-02T13:53:00.127Z</time></trkpt><trkpt lat="42.1018894" lon="13.5081213"><ele>953.0</ele><time>2026-05-02T13:53:01.122Z</time></trkpt><trkpt lat="42.1020047" lon="13.5079532"><ele>953.0</ele><time>2026-05-02T13:53:02.121Z</time></trkpt><trkpt lat="42.1021154" lon="13.5077778"><ele>951.0</ele><time>2026-05-02T13:53:03.12Z</time></trkpt><trkpt lat="42.1022304" lon="13.5075788"><ele>949.0</ele><time>2026-05-02T13:53:04.12Z</time></trkpt><trkpt lat="42.1023364" lon="13.5073848"><ele>947.0</ele><time>2026-05-02T13:53:05.115Z</time></trkpt><trkpt lat="42.1024104" lon="13.507191"><ele>951.0</ele><time>2026-05-02T13:53:06.119Z</time></trkpt><trkpt lat="42.1024942" lon="13.507001"><ele>955.0</ele><time>2026-05-02T13:53:07.109Z</time></trkpt><trkpt lat="42.1025783" lon="13.5067953"><ele>959.0</ele><time>2026-05-02T13:53:08.109Z</time></trkpt><trkpt lat="42.1026612" lon="13.5066015"><ele>959.0</ele><time>2026-05-02T13:53:09.114Z</time></trkpt><trkpt lat="42.1027306" lon="13.5063992"><ele>959.0</ele><time>2026-05-02T13:53:10.113Z</time></trkpt><trkpt lat="42.1027997" lon="13.5061852"><ele>959.0</ele><time>2026-05-02T13:53:11.115Z</time></trkpt><trkpt lat="42.1028522" lon="13.5059584"><ele>956.3333333333334</ele><time>2026-05-02T13:53:12.115Z</time></trkpt><trkpt lat="42.1029053" lon="13.5057464"><ele>953.6666666666667</ele><time>2026-05-02T13:53:13.111Z</time></trkpt><trkpt lat="42.1029669" lon="13.5055207"><ele>951.0</ele><time>2026-05-02T13:53:14.114Z</time></trkpt><trkpt lat="42.1030282" lon="13.5053445"><ele>949.3333333333333</ele><time>2026-05-02T13:53:15.113Z</time></trkpt><trkpt lat="42.1030939" lon="13.5051723"><ele>947.6666666666666</ele><time>2026-05-02T13:53:16.114Z</time></trkpt><trkpt lat="42.1031939" lon="13.5050191"><ele>946.0</ele><time>2026-05-02T13:53:17.11Z</time></trkpt><trkpt lat="42.1033229" lon="13.5048769"><ele>953.0</ele><time>2026-05-02T13:53:18.113Z</time></trkpt><trkpt lat="42.1034736" lon="13.5047631"><ele>960.0</ele><time>2026-05-02T13:53:19.108Z</time></trkpt><trkpt lat="42.1036549" lon="13.5046863"><ele>967.0</ele><time>2026-05-02T13:53:20.108Z</time></trkpt><trkpt lat="42.1038202" lon="13.5046099"><ele>968.3333333333333</ele><time>2026-05-02T13:53:21.112Z</time></trkpt><trkpt lat="42.1039777" lon="13.5044903"><ele>969.6666666666667</ele><time>2026-05-02T13:53:22.11Z</time></trkpt><trkpt lat="42.1041259" lon="13.5044004"><ele>971.0</ele><time>2026-05-02T13:53:23.109Z</time></trkpt><trkpt lat="42.1042582" lon="13.5042279"><ele>971.0</ele><time>2026-05-02T13:53:24.111Z</time></trkpt><trkpt lat="42.1043729" lon="13.5040496"><ele>971.0</ele><time>2026-05-02T13:53:25.108Z</time></trkpt><trkpt lat="42.1044725" lon="13.5038593"><ele>971.0</ele><time>2026-05-02T13:53:26.118Z</time></trkpt><trkpt lat="42.104574" lon="13.5036496"><ele>970.0</ele><time>2026-05-02T13:53:27.118Z</time></trkpt><trkpt lat="42.1046698" lon="13.5034305"><ele>969.0</ele><time>2026-05-02T13:53:28.117Z</time></trkpt><trkpt lat="42.1047518" lon="13.5032058"><ele>968.0</ele><time>2026-05-02T13:53:29.119Z</time></trkpt><trkpt lat="42.1048334" lon="13.5029751"><ele>974.6666666666667</ele><time>2026-05-02T13:53:30.125Z</time></trkpt><trkpt lat="42.1049272" lon="13.5027666"><ele>981.3333333333333</ele><time>2026-05-02T13:53:31.123Z</time></trkpt><trkpt lat="42.1050082" lon="13.5025256"><ele>988.0</ele><time>2026-05-02T13:53:32.118Z</time></trkpt><trkpt lat="42.1050707" lon="13.5022953"><ele>987.0</ele><time>2026-05-02T13:53:33.121Z</time></trkpt><trkpt lat="42.1051395" lon="13.5020527"><ele>986.0</ele><time>2026-05-02T13:53:34.121Z</time></trkpt><trkpt lat="42.1051938" lon="13.5018171"><ele>985.0</ele><time>2026-05-02T13:53:35.122Z</time></trkpt><trkpt lat="42.1052568" lon="13.5016088"><ele>985.0</ele><time>2026-05-02T13:53:36.114Z</time></trkpt><trkpt lat="42.1053169" lon="13.5014168"><ele>985.0</ele><time>2026-05-02T13:53:37.115Z</time></trkpt><trkpt lat="42.105359" lon="13.5012631"><ele>985.0</ele><time>2026-05-02T13:53:38.113Z</time></trkpt><trkpt lat="42.1053863" lon="13.5010896"><ele>985.0</ele><time>2026-05-02T13:53:39.12Z</time></trkpt><trkpt lat="42.105415" lon="13.5009397"><ele>984.75</ele><time>2026-05-02T13:53:40.121Z</time></trkpt><trkpt lat="42.1054374" lon="13.5007682"><ele>984.5</ele><time>2026-05-02T13:53:41.119Z</time></trkpt><trkpt lat="42.1054303" lon="13.5006054"><ele>984.25</ele><time>2026-05-02T13:53:42.121Z</time></trkpt><trkpt lat="42.105442" lon="13.5004666"><ele>984.0</ele><time>2026-05-02T13:53:43.122Z</time></trkpt><trkpt lat="42.1054575" lon="13.500311"><ele>986.0</ele><time>2026-05-02T13:53:44.123Z</time></trkpt><trkpt lat="42.105457" lon="13.5001646"><ele>988.0</ele><time>2026-05-02T13:53:45.124Z</time></trkpt><trkpt lat="42.1054515" lon="13.5000117"><ele>990.0</ele><time>2026-05-02T13:53:46.117Z</time></trkpt><trkpt lat="42.1054307" lon="13.4998469"><ele>992.0</ele><time>2026-05-02T13:53:47.117Z</time></trkpt><trkpt lat="42.1053837" lon="13.4996877"><ele>994.75</ele><time>2026-05-02T13:53:48.116Z</time></trkpt><trkpt lat="42.105312" lon="13.499544"><ele>997.5</ele><time>2026-05-02T13:53:49.117Z</time></trkpt><trkpt lat="42.1052078" lon="13.4994173"><ele>1000.25</ele><time>2026-05-02T13:53:50.112Z</time></trkpt><trkpt lat="42.1050992" lon="13.4992985"><ele>1003.0</ele><time>2026-05-02T13:53:51.118Z</time></trkpt><trkpt lat="42.1049693" lon="13.4991983"><ele>1001.75</ele><time>2026-05-02T13:53:52.117Z</time></trkpt><trkpt lat="42.1048693" lon="13.4991044"><ele>1000.5</ele><time>2026-05-02T13:53:53.116Z</time></trkpt><trkpt lat="42.1047842" lon="13.4989805"><ele>999.25</ele><time>2026-05-02T13:53:54.119Z</time></trkpt><trkpt lat="42.1047047" lon="13.4988701"><ele>998.0</ele><time>2026-05-02T13:53:55.114Z</time></trkpt><trkpt lat="42.1046333" lon="13.4987417"><ele>998.0</ele><time>2026-05-02T13:53:56.119Z</time></trkpt><trkpt lat="42.1045879" lon="13.4985919"><ele>998.0</ele><time>2026-05-02T13:53:57.122Z</time></trkpt><trkpt lat="42.1045598" lon="13.4984346"><ele>998.0</ele><time>2026-05-02T13:53:58.117Z</time></trkpt><trkpt lat="42.1045493" lon="13.4982707"><ele>998.0</ele><time>2026-05-02T13:53:59.112Z</time></trkpt><trkpt lat="42.1045589" lon="13.4981051"><ele>998.0</ele><time>2026-05-02T13:54:00.117Z</time></trkpt><trkpt lat="42.1045897" lon="13.4979475"><ele>998.0</ele><time>2026-05-02T13:54:01.122Z</time></trkpt><trkpt lat="42.1046494" lon="13.4978113"><ele>998.0</ele><time>2026-05-02T13:54:02.117Z</time></trkpt><trkpt lat="42.1047366" lon="13.4976827"><ele>998.0</ele><time>2026-05-02T13:54:03.122Z</time></trkpt><trkpt lat="42.1048439" lon="13.4975676"><ele>1001.0</ele><time>2026-05-02T13:54:04.119Z</time></trkpt><trkpt lat="42.1049714" lon="13.4974503"><ele>1004.0</ele><time>2026-05-02T13:54:05.122Z</time></trkpt><trkpt lat="42.1051517" lon="13.4973428"><ele>1007.0</ele><time>2026-05-02T13:54:06.12Z</time></trkpt><trkpt lat="42.1053181" lon="13.4972253"><ele>1007.0</ele><time>2026-05-02T13:54:07.119Z</time></trkpt><trkpt lat="42.105494" lon="13.4971115"><ele>1007.0</ele><time>2026-05-02T13:54:08.118Z</time></trkpt><trkpt lat="42.1056717" lon="13.4969641"><ele>1007.0</ele><time>2026-05-02T13:54:09.12Z</time></trkpt><trkpt lat="42.1058601" lon="13.4968187"><ele>1008.0</ele><time>2026-05-02T13:54:10.127Z</time></trkpt><trkpt lat="42.1060432" lon="13.4966658"><ele>1009.0</ele><time>2026-05-02T13:54:11.12Z</time></trkpt><trkpt lat="42.1062204" lon="13.4964987"><ele>1010.0</ele><time>2026-05-02T13:54:12.119Z</time></trkpt><trkpt lat="42.1063775" lon="13.4963397"><ele>1009.0</ele><time>2026-05-02T13:54:13.12Z</time></trkpt><trkpt lat="42.1065132" lon="13.4961436"><ele>1008.0</ele><time>2026-05-02T13:54:14.118Z</time></trkpt><trkpt lat="42.1066514" lon="13.4959246"><ele>1007.0</ele><time>2026-05-02T13:54:15.119Z</time></trkpt><trkpt lat="42.1067259" lon="13.495669"><ele>1010.6666666666667</ele><time>2026-05-02T13:54:16.113Z</time></trkpt><trkpt lat="42.1067688" lon="13.4954018"><ele>1014.3333333333333</ele><time>2026-05-02T13:54:17.114Z</time></trkpt><trkpt lat="42.1068211" lon="13.4951488"><ele>1018.0</ele><time>2026-05-02T13:54:18.116Z</time></trkpt><trkpt lat="42.1068863" lon="13.4949141"><ele>1018.0</ele><time>2026-05-02T13:54:19.117Z</time></trkpt><trkpt lat="42.1069213" lon="13.4947002"><ele>1018.0</ele><time>2026-05-02T13:54:20.124Z</time></trkpt><trkpt lat="42.1069583" lon="13.49448"><ele>1018.0</ele><time>2026-05-02T13:54:21.113Z</time></trkpt><trkpt lat="42.1070392" lon="13.4942686"><ele>1017.3333333333333</ele><time>2026-05-02T13:54:22.123Z</time></trkpt><trkpt lat="42.1071332" lon="13.4940815"><ele>1016.6666666666667</ele><time>2026-05-02T13:54:23.122Z</time></trkpt><trkpt lat="42.1072669" lon="13.4938901"><ele>1016.0</ele><time>2026-05-02T13:54:24.12Z</time></trkpt><trkpt lat="42.1073952" lon="13.4936987"><ele>1019.5</ele><time>2026-05-02T13:54:25.116Z</time></trkpt><trkpt lat="42.1074878" lon="13.4935416"><ele>1023.0</ele><time>2026-05-02T13:54:26.116Z</time></trkpt><trkpt lat="42.1075858" lon="13.4934129"><ele>1026.5</ele><time>2026-05-02T13:54:27.116Z</time></trkpt><trkpt lat="42.1076647" lon="13.4932874"><ele>1030.0</ele><time>2026-05-02T13:54:28.121Z</time></trkpt><trkpt lat="42.1077311" lon="13.4931686"><ele>1030.0</ele><time>2026-05-02T13:54:29.115Z</time></trkpt><trkpt lat="42.1077593" lon="13.4929513"><ele>1030.0</ele><time>2026-05-02T13:54:30.122Z</time></trkpt><trkpt lat="42.107738" lon="13.4927334"><ele>1030.0</ele><time>2026-05-02T13:54:31.113Z</time></trkpt><trkpt lat="42.1076934" lon="13.4925198"><ele>1032.0</ele><time>2026-05-02T13:54:32.118Z</time></trkpt><trkpt lat="42.1076527" lon="13.4922891"><ele>1034.0</ele><time>2026-05-02T13:54:33.112Z</time></trkpt><trkpt lat="42.1075793" lon="13.4920844"><ele>1036.0</ele><time>2026-05-02T13:54:34.111Z</time></trkpt><trkpt lat="42.1075072" lon="13.4918928"><ele>1039.3333333333333</ele><time>2026-05-02T13:54:35.104Z</time></trkpt><trkpt lat="42.1074396" lon="13.4917147"><ele>1042.6666666666667</ele><time>2026-05-02T13:54:36.104Z</time></trkpt><trkpt lat="42.1073447" lon="13.4915449"><ele>1046.0</ele><time>2026-05-02T13:54:37.116Z</time></trkpt><trkpt lat="42.1072346" lon="13.4913913"><ele>1041.75</ele><time>2026-05-02T13:54:38.119Z</time></trkpt><trkpt lat="42.1071385" lon="13.4912334"><ele>1037.5</ele><time>2026-05-02T13:54:39.113Z</time></trkpt><trkpt lat="42.1071178" lon="13.4910508"><ele>1033.25</ele><time>2026-05-02T13:54:40.12Z</time></trkpt><trkpt lat="42.1071394" lon="13.4908662"><ele>1029.0</ele><time>2026-05-02T13:54:41.114Z</time></trkpt><trkpt lat="42.1071822" lon="13.4906549"><ele>1029.0</ele><time>2026-05-02T13:54:42.11Z</time></trkpt><trkpt lat="42.1072159" lon="13.4904322"><ele>1029.0</ele><time>2026-05-02T13:54:43.115Z</time></trkpt><trkpt lat="42.1072429" lon="13.4902312"><ele>1029.0</ele><time>2026-05-02T13:54:44.116Z</time></trkpt><trkpt lat="42.1072723" lon="13.4900031"><ele>1030.0</ele><time>2026-05-02T13:54:45.118Z</time></trkpt><trkpt lat="42.1072948" lon="13.4897896"><ele>1031.0</ele><time>2026-05-02T13:54:46.118Z</time></trkpt><trkpt lat="42.1073169" lon="13.4896003"><ele>1032.0</ele><time>2026-05-02T13:54:47.123Z</time></trkpt><trkpt lat="42.1073341" lon="13.4894429"><ele>1033.0</ele><time>2026-05-02T13:54:48.121Z</time></trkpt><trkpt lat="42.1073599" lon="13.4892855"><ele>1034.5</ele><time>2026-05-02T13:54:49.12Z</time></trkpt><trkpt lat="42.1074094" lon="13.4891072"><ele>1036.0</ele><time>2026-05-02T13:54:50.124Z</time></trkpt><trkpt lat="42.1074773" lon="13.4889565"><ele>1037.5</ele><time>2026-05-02T13:54:51.124Z</time></trkpt><trkpt lat="42.1075539" lon="13.4888081"><ele>1039.0</ele><time>2026-05-02T13:54:52.115Z</time></trkpt><trkpt lat="42.1076667" lon="13.4886886"><ele>1041.6666666666665</ele><time>2026-05-02T13:54:53.126Z</time></trkpt><trkpt lat="42.107781" lon="13.4885858"><ele>1044.3333333333333</ele><time>2026-05-02T13:54:54.12Z</time></trkpt><trkpt lat="42.1079181" lon="13.4885167"><ele>1047.0</ele><time>2026-05-02T13:54:55.11Z</time></trkpt><trkpt lat="42.1080843" lon="13.48847"><ele>1052.6666666666667</ele><time>2026-05-02T13:54:56.116Z</time></trkpt><trkpt lat="42.1082687" lon="13.4884273"><ele>1058.3333333333335</ele><time>2026-05-02T13:54:57.125Z</time></trkpt><trkpt lat="42.1084182" lon="13.4883527"><ele>1064.0</ele><time>2026-05-02T13:54:58.124Z</time></trkpt><trkpt lat="42.1085624" lon="13.4882429"><ele>1064.0</ele><time>2026-05-02T13:54:59.118Z</time></trkpt><trkpt lat="42.1086912" lon="13.4881002"><ele>1064.0</ele><time>2026-05-02T13:55:00.119Z</time></trkpt><trkpt lat="42.1088155" lon="13.4879289"><ele>1064.0</ele><time>2026-05-02T13:55:01.124Z</time></trkpt><trkpt lat="42.1089288" lon="13.4877542"><ele>1061.6666666666667</ele><time>2026-05-02T13:55:02.12Z</time></trkpt><trkpt lat="42.1090435" lon="13.4875667"><ele>1059.3333333333333</ele><time>2026-05-02T13:55:03.116Z</time></trkpt><trkpt lat="42.1091296" lon="13.4873887"><ele>1057.0</ele><time>2026-05-02T13:55:04.12Z</time></trkpt><trkpt lat="42.1092177" lon="13.4871907"><ele>1061.0</ele><time>2026-05-02T13:55:05.114Z</time></trkpt><trkpt lat="42.1093095" lon="13.4869986"><ele>1065.0</ele><time>2026-05-02T13:55:06.12Z</time></trkpt><trkpt lat="42.1094089" lon="13.4868056"><ele>1069.0</ele><time>2026-05-02T13:55:07.119Z</time></trkpt><trkpt lat="42.1094936" lon="13.4866121"><ele>1069.0</ele><time>2026-05-02T13:55:08.122Z</time></trkpt><trkpt lat="42.1095958" lon="13.4864049"><ele>1069.0</ele><time>2026-05-02T13:55:09.119Z</time></trkpt><trkpt lat="42.1097193" lon="13.4861976"><ele>1069.0</ele><time>2026-05-02T13:55:10.117Z</time></trkpt><trkpt lat="42.1098078" lon="13.4860053"><ele>1067.3333333333333</ele><time>2026-05-02T13:55:11.122Z</time></trkpt><trkpt lat="42.1098936" lon="13.4858412"><ele>1065.6666666666667</ele><time>2026-05-02T13:55:12.121Z</time></trkpt><trkpt lat="42.1099709" lon="13.4856579"><ele>1064.0</ele><time>2026-05-02T13:55:13.123Z</time></trkpt><trkpt lat="42.1100224" lon="13.4854604"><ele>1070.3333333333335</ele><time>2026-05-02T13:55:14.121Z</time></trkpt><trkpt lat="42.1100551" lon="13.4852476"><ele>1076.6666666666667</ele><time>2026-05-02T13:55:15.117Z</time></trkpt><trkpt lat="42.110059" lon="13.4850071"><ele>1083.0</ele><time>2026-05-02T13:55:16.118Z</time></trkpt><trkpt lat="42.1100439" lon="13.4847501"><ele>1085.0</ele><time>2026-05-02T13:55:17.123Z</time></trkpt><trkpt lat="42.1100001" lon="13.4844927"><ele>1087.0</ele><time>2026-05-02T13:55:18.123Z</time></trkpt><trkpt lat="42.1099615" lon="13.4842622"><ele>1089.0</ele><time>2026-05-02T13:55:19.124Z</time></trkpt><trkpt lat="42.1099507" lon="13.4840316"><ele>1089.0</ele><time>2026-05-02T13:55:20.119Z</time></trkpt><trkpt lat="42.109971" lon="13.4838079"><ele>1089.0</ele><time>2026-05-02T13:55:21.122Z</time></trkpt><trkpt lat="42.1100223" lon="13.4835806"><ele>1089.0</ele><time>2026-05-02T13:55:22.121Z</time></trkpt><trkpt lat="42.1100875" lon="13.4833554"><ele>1088.6666666666667</ele><time>2026-05-02T13:55:23.114Z</time></trkpt><trkpt lat="42.1101705" lon="13.4831487"><ele>1088.3333333333335</ele><time>2026-05-02T13:55:24.119Z</time></trkpt><trkpt lat="42.1102729" lon="13.4829478"><ele>1088.0</ele><time>2026-05-02T13:55:25.12Z</time></trkpt><trkpt lat="42.1104042" lon="13.4827695"><ele>1085.6666666666667</ele><time>2026-05-02T13:55:26.112Z</time></trkpt><trkpt lat="42.1105434" lon="13.4826016"><ele>1083.3333333333333</ele><time>2026-05-02T13:55:27.116Z</time></trkpt><trkpt lat="42.1106833" lon="13.4824265"><ele>1081.0</ele><time>2026-05-02T13:55:28.111Z</time></trkpt><trkpt lat="42.1108375" lon="13.482273"><ele>1086.0</ele><time>2026-05-02T13:55:29.112Z</time></trkpt><trkpt lat="42.11096" lon="13.4820974"><ele>1091.0</ele><time>2026-05-02T13:55:30.109Z</time></trkpt><trkpt lat="42.1110816" lon="13.4819278"><ele>1096.0</ele><time>2026-05-02T13:55:31.109Z</time></trkpt><trkpt lat="42.1112101" lon="13.4817096"><ele>1096.0</ele><time>2026-05-02T13:55:32.104Z</time></trkpt><trkpt lat="42.1112665" lon="13.4814612"><ele>1096.0</ele><time>2026-05-02T13:55:33.104Z</time></trkpt><trkpt lat="42.1112933" lon="13.4811979"><ele>1096.0</ele><time>2026-05-02T13:55:34.106Z</time></trkpt><trkpt lat="42.1113241" lon="13.4809581"><ele>1096.3333333333333</ele><time>2026-05-02T13:55:35.111Z</time></trkpt><trkpt lat="42.1113402" lon="13.4807131"><ele>1096.6666666666667</ele><time>2026-05-02T13:55:36.118Z</time></trkpt><trkpt lat="42.1113632" lon="13.4804573"><ele>1097.0</ele><time>2026-05-02T13:55:37.115Z</time></trkpt><trkpt lat="42.111376" lon="13.4802315"><ele>1097.6666666666667</ele><time>2026-05-02T13:55:38.118Z</time></trkpt><trkpt lat="42.1113536" lon="13.4799913"><ele>1098.3333333333333</ele><time>2026-05-02T13:55:39.113Z</time></trkpt><trkpt lat="42.1113324" lon="13.4797464"><ele>1099.0</ele><time>2026-05-02T13:55:40.113Z</time></trkpt><trkpt lat="42.1112915" lon="13.4795004"><ele>1102.0</ele><time>2026-05-02T13:55:41.12Z</time></trkpt><trkpt lat="42.1112523" lon="13.4792714"><ele>1105.0</ele><time>2026-05-02T13:55:42.119Z</time></trkpt><trkpt lat="42.1111992" lon="13.4790781"><ele>1108.0</ele><time>2026-05-02T13:55:43.118Z</time></trkpt><trkpt lat="42.1111567" lon="13.4788823"><ele>1108.75</ele><time>2026-05-02T13:55:44.124Z</time></trkpt><trkpt lat="42.111106" lon="13.478695"><ele>1109.5</ele><time>2026-05-02T13:55:45.121Z</time></trkpt><trkpt lat="42.1110577" lon="13.4785064"><ele>1110.25</ele><time>2026-05-02T13:55:46.121Z</time></trkpt><trkpt lat="42.1110088" lon="13.4783316"><ele>1111.0</ele><time>2026-05-02T13:55:47.124Z</time></trkpt><trkpt lat="42.1109888" lon="13.4781584"><ele>1111.0</ele><time>2026-05-02T13:55:48.122Z</time></trkpt><trkpt lat="42.1109742" lon="13.4779791"><ele>1111.0</ele><time>2026-05-02T13:55:49.121Z</time></trkpt><trkpt lat="42.1109623" lon="13.4777752"><ele>1111.0</ele><time>2026-05-02T13:55:50.124Z</time></trkpt><trkpt lat="42.1109545" lon="13.4775983"><ele>1111.0</ele><time>2026-05-02T13:55:51.119Z</time></trkpt><trkpt lat="42.1109503" lon="13.4774071"><ele>1110.75</ele><time>2026-05-02T13:55:52.124Z</time></trkpt><trkpt lat="42.1109243" lon="13.4772422"><ele>1110.5</ele><time>2026-05-02T13:55:53.12Z</time></trkpt><trkpt lat="42.1108596" lon="13.4770961"><ele>1110.25</ele><time>2026-05-02T13:55:54.12Z</time></trkpt><trkpt lat="42.1107985" lon="13.4769546"><ele>1110.0</ele><time>2026-05-02T13:55:55.126Z</time></trkpt><trkpt lat="42.1107153" lon="13.4767951"><ele>1108.0</ele><time>2026-05-02T13:55:56.122Z</time></trkpt><trkpt lat="42.1106325" lon="13.4766298"><ele>1106.0</ele><time>2026-05-02T13:55:57.125Z</time></trkpt><trkpt lat="42.1105392" lon="13.4764768"><ele>1104.0</ele><time>2026-05-02T13:55:58.12Z</time></trkpt><trkpt lat="42.1104462" lon="13.47633"><ele>1102.0</ele><time>2026-05-02T13:55:59.123Z</time></trkpt><trkpt lat="42.1103543" lon="13.4761711"><ele>1102.0</ele><time>2026-05-02T13:56:00.128Z</time></trkpt><trkpt lat="42.1103039" lon="13.4759812"><ele>1102.0</ele><time>2026-05-02T13:56:01.123Z</time></trkpt><trkpt lat="42.1102448" lon="13.4757921"><ele>1102.0</ele><time>2026-05-02T13:56:02.125Z</time></trkpt><trkpt lat="42.1102082" lon="13.4756206"><ele>1102.0</ele><time>2026-05-02T13:56:03.121Z</time></trkpt><trkpt lat="42.1101833" lon="13.4754313"><ele>1101.75</ele><time>2026-05-02T13:56:04.121Z</time></trkpt><trkpt lat="42.1101629" lon="13.4752465"><ele>1101.5</ele><time>2026-05-02T13:56:05.127Z</time></trkpt><trkpt lat="42.1101231" lon="13.4750492"><ele>1101.25</ele><time>2026-05-02T13:56:06.127Z</time></trkpt><trkpt lat="42.1100982" lon="13.4748536"><ele>1101.0</ele><time>2026-05-02T13:56:07.122Z</time></trkpt><trkpt lat="42.1100343" lon="13.474669"><ele>1101.75</ele><time>2026-05-02T13:56:08.121Z</time></trkpt><trkpt lat="42.1099697" lon="13.4744642"><ele>1102.5</ele><time>2026-05-02T13:56:09.123Z</time></trkpt><trkpt lat="42.1099" lon="13.4743023"><ele>1103.25</ele><time>2026-05-02T13:56:10.125Z</time></trkpt><trkpt lat="42.1098424" lon="13.4741351"><ele>1104.0</ele><time>2026-05-02T13:56:11.12Z</time></trkpt><trkpt lat="42.1097571" lon="13.4739541"><ele>1100.6666666666667</ele><time>2026-05-02T13:56:12.117Z</time></trkpt><trkpt lat="42.109671" lon="13.4737731"><ele>1097.3333333333335</ele><time>2026-05-02T13:56:13.12Z</time></trkpt><trkpt lat="42.1095942" lon="13.4735887"><ele>1094.0</ele><time>2026-05-02T13:56:14.124Z</time></trkpt><trkpt lat="42.1095031" lon="13.4733991"><ele>1094.0</ele><time>2026-05-02T13:56:15.124Z</time></trkpt><trkpt lat="42.1094347" lon="13.4732066"><ele>1094.0</ele><time>2026-05-02T13:56:16.126Z</time></trkpt><trkpt lat="42.1093592" lon="13.4729775"><ele>1094.0</ele><time>2026-05-02T13:56:17.124Z</time></trkpt><trkpt lat="42.1092734" lon="13.4727771"><ele>1095.0</ele><time>2026-05-02T13:56:18.124Z</time></trkpt><trkpt lat="42.1092192" lon="13.4725741"><ele>1096.0</ele><time>2026-05-02T13:56:19.127Z</time></trkpt><trkpt lat="42.1091367" lon="13.4723494"><ele>1097.0</ele><time>2026-05-02T13:56:20.127Z</time></trkpt><trkpt lat="42.1090784" lon="13.4721262"><ele>1094.6666666666667</ele><time>2026-05-02T13:56:21.128Z</time></trkpt><trkpt lat="42.1090489" lon="13.4719016"><ele>1092.3333333333333</ele><time>2026-05-02T13:56:22.128Z</time></trkpt><trkpt lat="42.1090052" lon="13.4716812"><ele>1090.0</ele><time>2026-05-02T13:56:23.131Z</time></trkpt><trkpt lat="42.1089364" lon="13.4714909"><ele>1090.0</ele><time>2026-05-02T13:56:24.13Z</time></trkpt><trkpt lat="42.1088878" lon="13.4712778"><ele>1090.0</ele><time>2026-05-02T13:56:25.126Z</time></trkpt><trkpt lat="42.108865" lon="13.4710469"><ele>1090.0</ele><time>2026-05-02T13:56:26.128Z</time></trkpt><trkpt lat="42.1088412" lon="13.4708177"><ele>1090.3333333333333</ele><time>2026-05-02T13:56:27.129Z</time></trkpt><trkpt lat="42.1088421" lon="13.4706102"><ele>1090.6666666666667</ele><time>2026-05-02T13:56:28.13Z</time></trkpt><trkpt lat="42.1088608" lon="13.4703851"><ele>1091.0</ele><time>2026-05-02T13:56:29.133Z</time></trkpt><trkpt lat="42.1088823" lon="13.4701535"><ele>1089.6666666666667</ele><time>2026-05-02T13:56:30.126Z</time></trkpt><trkpt lat="42.1088663" lon="13.4699308"><ele>1088.3333333333333</ele><time>2026-05-02T13:56:31.135Z</time></trkpt><trkpt lat="42.1088185" lon="13.4697"><ele>1087.0</ele><time>2026-05-02T13:56:32.12Z</time></trkpt><trkpt lat="42.1087508" lon="13.4694383"><ele>1086.6666666666665</ele><time>2026-05-02T13:56:33.126Z</time></trkpt><trkpt lat="42.1086659" lon="13.4691742"><ele>1086.3333333333333</ele><time>2026-05-02T13:56:34.119Z</time></trkpt><trkpt lat="42.1085956" lon="13.4689128"><ele>1086.0</ele><time>2026-05-02T13:56:35.126Z</time></trkpt><trkpt lat="42.1085063" lon="13.4686698"><ele>1086.6666666666667</ele><time>2026-05-02T13:56:36.119Z</time></trkpt><trkpt lat="42.1084261" lon="13.4684235"><ele>1087.3333333333335</ele><time>2026-05-02T13:56:37.128Z</time></trkpt><trkpt lat="42.1083283" lon="13.4681637"><ele>1088.0</ele><time>2026-05-02T13:56:38.119Z</time></trkpt><trkpt lat="42.10824" lon="13.4679089"><ele>1088.0</ele><time>2026-05-02T13:56:39.13Z</time></trkpt><trkpt lat="42.1081459" lon="13.4676373"><ele>1088.0</ele><time>2026-05-02T13:56:40.131Z</time></trkpt><trkpt lat="42.1080367" lon="13.4674093"><ele>1088.0</ele><time>2026-05-02T13:56:41.133Z</time></trkpt><trkpt lat="42.1079394" lon="13.4671789"><ele>1089.6666666666667</ele><time>2026-05-02T13:56:42.126Z</time></trkpt><trkpt lat="42.1078621" lon="13.4669453"><ele>1091.3333333333333</ele><time>2026-05-02T13:56:43.132Z</time></trkpt><trkpt lat="42.1077768" lon="13.4667363"><ele>1093.0</ele><time>2026-05-02T13:56:44.135Z</time></trkpt><trkpt lat="42.1077042" lon="13.466517"><ele>1093.0</ele><time>2026-05-02T13:56:45.126Z</time></trkpt><trkpt lat="42.1076308" lon="13.4663322"><ele>1093.0</ele><time>2026-05-02T13:56:46.125Z</time></trkpt><trkpt lat="42.1075565" lon="13.4661462"><ele>1093.0</ele><time>2026-05-02T13:56:47.129Z</time></trkpt><trkpt lat="42.1074831" lon="13.4659684"><ele>1093.75</ele><time>2026-05-02T13:56:48.125Z</time></trkpt><trkpt lat="42.1074405" lon="13.4657718"><ele>1094.5</ele><time>2026-05-02T13:56:49.126Z</time></trkpt><trkpt lat="42.1074174" lon="13.4655897"><ele>1095.25</ele><time>2026-05-02T13:56:50.126Z</time></trkpt><trkpt lat="42.1074056" lon="13.4654178"><ele>1096.0</ele><time>2026-05-02T13:56:51.13Z</time></trkpt><trkpt lat="42.1074191" lon="13.4652093"><ele>1098.6666666666665</ele><time>2026-05-02T13:56:52.123Z</time></trkpt><trkpt lat="42.1074421" lon="13.4650148"><ele>1101.3333333333333</ele><time>2026-05-02T13:56:53.128Z</time></trkpt><trkpt lat="42.1075153" lon="13.464832"><ele>1104.0</ele><time>2026-05-02T13:56:54.12Z</time></trkpt><trkpt lat="42.1075881" lon="13.4646556"><ele>1102.3333333333333</ele><time>2026-05-02T13:56:55.122Z</time></trkpt><trkpt lat="42.1076965" lon="13.464447"><ele>1100.6666666666665</ele><time>2026-05-02T13:56:56.126Z</time></trkpt><trkpt lat="42.1078094" lon="13.4642328"><ele>1099.0</ele><time>2026-05-02T13:56:57.13Z</time></trkpt><trkpt lat="42.1079238" lon="13.4639881"><ele>1099.0</ele><time>2026-05-02T13:56:58.132Z</time></trkpt><trkpt lat="42.1080688" lon="13.463761"><ele>1099.0</ele><time>2026-05-02T13:56:59.129Z</time></trkpt><trkpt lat="42.1082171" lon="13.4635231"><ele>1101.6666666666665</ele><time>2026-05-02T13:57:00.134Z</time></trkpt><trkpt lat="42.1083417" lon="13.4633155"><ele>1104.3333333333333</ele><time>2026-05-02T13:57:01.131Z</time></trkpt><trkpt lat="42.1084443" lon="13.463088"><ele>1107.0</ele><time>2026-05-02T13:57:02.136Z</time></trkpt><trkpt lat="42.1085265" lon="13.4628686"><ele>1108.3333333333333</ele><time>2026-05-02T13:57:03.126Z</time></trkpt><trkpt lat="42.108597" lon="13.4626556"><ele>1109.6666666666665</ele><time>2026-05-02T13:57:04.129Z</time></trkpt><trkpt lat="42.1086635" lon="13.4624567"><ele>1111.0</ele><time>2026-05-02T13:57:05.137Z</time></trkpt><trkpt lat="42.1086863" lon="13.4622553"><ele>1111.2</ele><time>2026-05-02T13:57:06.13Z</time></trkpt><trkpt lat="42.1087393" lon="13.4620931"><ele>1111.3999999999999</ele><time>2026-05-02T13:57:07.13Z</time></trkpt><trkpt lat="42.1087554" lon="13.4619526"><ele>1111.6</ele><time>2026-05-02T13:57:08.129Z</time></trkpt><trkpt lat="42.1087723" lon="13.4618309"><ele>1111.8</ele><time>2026-05-02T13:57:09.133Z</time></trkpt><trkpt lat="42.1087852" lon="13.4617424"><ele>1112.0</ele><time>2026-05-02T13:57:10.134Z</time></trkpt><trkpt lat="42.1087833" lon="13.4616502"><ele>1112.0</ele><time>2026-05-02T13:57:11.136Z</time></trkpt><trkpt lat="42.1087643" lon="13.4615425"><ele>1112.0</ele><time>2026-05-02T13:57:13.139Z</time></trkpt><trkpt lat="42.1087376" lon="13.461432"><ele>1112.0</ele><time>2026-05-02T13:57:15.14Z</time></trkpt><trkpt lat="42.1087289" lon="13.4613298"><ele>1112.0</ele><time>2026-05-02T13:57:17.142Z</time></trkpt><trkpt lat="42.1087091" lon="13.4611964"><ele>1112.0</ele><time>2026-05-02T13:57:52.142Z</time></trkpt><trkpt lat="42.1086676" lon="13.46104"><ele>1110.8333333333335</ele><time>2026-05-02T13:57:54.136Z</time></trkpt><trkpt lat="42.1086488" lon="13.4609483"><ele>1109.6666666666667</ele><time>2026-05-02T13:57:55.134Z</time></trkpt><trkpt lat="42.1086322" lon="13.4608575"><ele>1108.5</ele><time>2026-05-02T13:57:56.138Z</time></trkpt><trkpt lat="42.108614" lon="13.4607517"><ele>1107.3333333333333</ele><time>2026-05-02T13:57:57.138Z</time></trkpt><trkpt lat="42.1085909" lon="13.4606393"><ele>1106.1666666666665</ele><time>2026-05-02T13:57:58.147Z</time></trkpt><trkpt lat="42.1085703" lon="13.4605281"><ele>1105.0</ele><time>2026-05-02T13:57:59.137Z</time></trkpt><trkpt lat="42.1085543" lon="13.4604203"><ele>1103.0</ele><time>2026-05-02T13:58:00.141Z</time></trkpt><trkpt lat="42.1085305" lon="13.4603284"><ele>1101.0</ele><time>2026-05-02T13:58:01.14Z</time></trkpt><trkpt lat="42.108502" lon="13.460249"><ele>1099.0</ele><time>2026-05-02T13:58:02.143Z</time></trkpt><trkpt lat="42.1084742" lon="13.460171"><ele>1097.0</ele><time>2026-05-02T13:58:03.136Z</time></trkpt><trkpt lat="42.1084488" lon="13.4600369"><ele>1095.0</ele><time>2026-05-02T13:58:05.125Z</time></trkpt><trkpt lat="42.1084987" lon="13.4599404"><ele>1093.0</ele><time>2026-05-02T13:58:07.131Z</time></trkpt><trkpt lat="42.1085807" lon="13.4598219"><ele>1093.0</ele><time>2026-05-02T13:58:09.136Z</time></trkpt><trkpt lat="42.1086127" lon="13.4597039"><ele>1093.0</ele><time>2026-05-02T13:58:11.132Z</time></trkpt><trkpt lat="42.1085821" lon="13.4595527"><ele>1093.0</ele><time>2026-05-02T13:58:13.135Z</time></trkpt><trkpt lat="42.1085575" lon="13.4594451"><ele>1093.0</ele><time>2026-05-02T13:58:14.136Z</time></trkpt><trkpt lat="42.1085403" lon="13.4593281"><ele>1093.0</ele><time>2026-05-02T13:58:15.137Z</time></trkpt><trkpt lat="42.1085288" lon="13.4592162"><ele>1091.1666666666665</ele><time>2026-05-02T13:58:16.136Z</time></trkpt><trkpt lat="42.108521" lon="13.4591164"><ele>1089.3333333333333</ele><time>2026-05-02T13:58:17.14Z</time></trkpt><trkpt lat="42.1085161" lon="13.4590179"><ele>1087.5</ele><time>2026-05-02T13:58:18.145Z</time></trkpt><trkpt lat="42.1085176" lon="13.4589146"><ele>1085.6666666666667</ele><time>2026-05-02T13:58:19.138Z</time></trkpt><trkpt lat="42.1085214" lon="13.4588187"><ele>1083.8333333333335</ele><time>2026-05-02T13:58:20.142Z</time></trkpt><trkpt lat="42.1085311" lon="13.4587282"><ele>1082.0</ele><time>2026-05-02T13:58:21.138Z</time></trkpt><trkpt lat="42.1085673" lon="13.4585865"><ele>1080.2</ele><time>2026-05-02T13:58:23.135Z</time></trkpt><trkpt lat="42.1085872" lon="13.4584604"><ele>1078.4</ele><time>2026-05-02T13:58:25.136Z</time></trkpt><trkpt lat="42.1086003" lon="13.4583232"><ele>1076.6</ele><time>2026-05-02T13:58:27.141Z</time></trkpt><trkpt lat="42.1086084" lon="13.4581688"><ele>1074.8</ele><time>2026-05-02T13:58:29.142Z</time></trkpt><trkpt lat="42.1086111" lon="13.4580792"><ele>1073.0</ele><time>2026-05-02T13:58:30.143Z</time></trkpt><trkpt lat="42.1086117" lon="13.4579806"><ele>1071.5</ele><time>2026-05-02T13:58:31.14Z</time></trkpt><trkpt lat="42.1086232" lon="13.4578815"><ele>1070.0</ele><time>2026-05-02T13:58:32.131Z</time></trkpt><trkpt lat="42.1086482" lon="13.4577809"><ele>1068.5</ele><time>2026-05-02T13:58:33.136Z</time></trkpt><trkpt lat="42.108682" lon="13.4576837"><ele>1067.0</ele><time>2026-05-02T13:58:34.136Z</time></trkpt><trkpt lat="42.1087165" lon="13.4575798"><ele>1065.5</ele><time>2026-05-02T13:58:35.146Z</time></trkpt><trkpt lat="42.1087345" lon="13.4574714"><ele>1064.0</ele><time>2026-05-02T13:58:36.133Z</time></trkpt><trkpt lat="42.1087339" lon="13.4573553"><ele>1064.0</ele><time>2026-05-02T13:58:37.137Z</time></trkpt><trkpt lat="42.1087263" lon="13.4572389"><ele>1064.0</ele><time>2026-05-02T13:58:38.133Z</time></trkpt><trkpt lat="42.1087211" lon="13.4571179"><ele>1064.0</ele><time>2026-05-02T13:58:39.131Z</time></trkpt><trkpt lat="42.1087146" lon="13.4570044"><ele>1064.0</ele><time>2026-05-02T13:58:40.136Z</time></trkpt><trkpt lat="42.1087101" lon="13.4568987"><ele>1064.0</ele><time>2026-05-02T13:58:41.139Z</time></trkpt><trkpt lat="42.1087079" lon="13.4567893"><ele>1064.0</ele><time>2026-05-02T13:58:42.138Z</time></trkpt><trkpt lat="42.1087131" lon="13.4566796"><ele>1062.3333333333335</ele><time>2026-05-02T13:58:43.136Z</time></trkpt><trkpt lat="42.1087139" lon="13.4565553"><ele>1060.6666666666667</ele><time>2026-05-02T13:58:44.139Z</time></trkpt><trkpt lat="42.1087026" lon="13.4564373"><ele>1059.0</ele><time>2026-05-02T13:58:45.133Z</time></trkpt><trkpt lat="42.1086847" lon="13.4563282"><ele>1057.3333333333333</ele><time>2026-05-02T13:58:46.141Z</time></trkpt><trkpt lat="42.1086705" lon="13.4562223"><ele>1055.6666666666665</ele><time>2026-05-02T13:58:47.139Z</time></trkpt><trkpt lat="42.1086583" lon="13.4561172"><ele>1054.0</ele><time>2026-05-02T13:58:48.136Z</time></trkpt><trkpt lat="42.1086394" lon="13.4560279"><ele>1053.0000000000002</ele><time>2026-05-02T13:58:49.137Z</time></trkpt><trkpt lat="42.1086122" lon="13.4559416"><ele>1052.0</ele><time>2026-05-02T13:58:50.133Z</time></trkpt><trkpt lat="42.1085823" lon="13.4558545"><ele>1051.0</ele><time>2026-05-02T13:58:51.136Z</time></trkpt><trkpt lat="42.1085476" lon="13.4557685"><ele>1050.0</ele><time>2026-05-02T13:58:52.139Z</time></trkpt><trkpt lat="42.1085218" lon="13.4556781"><ele>1049.0</ele><time>2026-05-02T13:58:53.131Z</time></trkpt><trkpt lat="42.1085055" lon="13.4555874"><ele>1048.0000000000002</ele><time>2026-05-02T13:58:54.136Z</time></trkpt><trkpt lat="42.1084925" lon="13.4554894"><ele>1047.0</ele><time>2026-05-02T13:58:55.136Z</time></trkpt><trkpt lat="42.1084777" lon="13.4553886"><ele>1046.0</ele><time>2026-05-02T13:58:56.141Z</time></trkpt><trkpt lat="42.1084653" lon="13.4552891"><ele>1045.0</ele><time>2026-05-02T13:58:57.133Z</time></trkpt><trkpt lat="42.1084454" lon="13.4552017"><ele>1044.0</ele><time>2026-05-02T13:58:58.131Z</time></trkpt><trkpt lat="42.1084205" lon="13.4550286"><ele>1043.0</ele><time>2026-05-02T13:59:00.148Z</time></trkpt><trkpt lat="42.1084021" lon="13.4549289"><ele>1042.0</ele><time>2026-05-02T13:59:01.138Z</time></trkpt><trkpt lat="42.1083825" lon="13.4548231"><ele>1041.0</ele><time>2026-05-02T13:59:02.146Z</time></trkpt><trkpt lat="42.1083613" lon="13.454714"><ele>1040.1666666666667</ele><time>2026-05-02T13:59:03.136Z</time></trkpt><trkpt lat="42.1083392" lon="13.4546019"><ele>1039.3333333333333</ele><time>2026-05-02T13:59:04.144Z</time></trkpt><trkpt lat="42.1083218" lon="13.4544881"><ele>1038.5</ele><time>2026-05-02T13:59:05.133Z</time></trkpt><trkpt lat="42.1083124" lon="13.454371"><ele>1037.6666666666665</ele><time>2026-05-02T13:59:06.147Z</time></trkpt><trkpt lat="42.1083033" lon="13.4542476"><ele>1036.8333333333333</ele><time>2026-05-02T13:59:07.14Z</time></trkpt><trkpt lat="42.1082888" lon="13.4541207"><ele>1036.0</ele><time>2026-05-02T13:59:08.141Z</time></trkpt><trkpt lat="42.1082828" lon="13.4539919"><ele>1036.0</ele><time>2026-05-02T13:59:09.134Z</time></trkpt><trkpt lat="42.108281" lon="13.4538716"><ele>1036.0</ele><time>2026-05-02T13:59:10.138Z</time></trkpt><trkpt lat="42.1082781" lon="13.453747"><ele>1036.0</ele><time>2026-05-02T13:59:11.133Z</time></trkpt><trkpt lat="42.1082739" lon="13.4536268"><ele>1036.0</ele><time>2026-05-02T13:59:12.134Z</time></trkpt><trkpt lat="42.1082612" lon="13.4535094"><ele>1036.0</ele><time>2026-05-02T13:59:13.14Z</time></trkpt><trkpt lat="42.1082448" lon="13.4533927"><ele>1036.0</ele><time>2026-05-02T13:59:14.143Z</time></trkpt><trkpt lat="42.1082177" lon="13.4532666"><ele>1032.8</ele><time>2026-05-02T13:59:15.131Z</time></trkpt><trkpt lat="42.1081756" lon="13.453137"><ele>1029.6</ele><time>2026-05-02T13:59:16.142Z</time></trkpt><trkpt lat="42.1081325" lon="13.4530133"><ele>1026.4</ele><time>2026-05-02T13:59:17.13Z</time></trkpt><trkpt lat="42.1080993" lon="13.4528978"><ele>1023.2</ele><time>2026-05-02T13:59:18.137Z</time></trkpt><trkpt lat="42.1080803" lon="13.4527856"><ele>1020.0</ele><time>2026-05-02T13:59:19.142Z</time></trkpt><trkpt lat="42.108067" lon="13.4526705"><ele>1019.0</ele><time>2026-05-02T13:59:20.148Z</time></trkpt><trkpt lat="42.1080579" lon="13.4525492"><ele>1018.0</ele><time>2026-05-02T13:59:21.139Z</time></trkpt><trkpt lat="42.1080581" lon="13.4524231"><ele>1017.0</ele><time>2026-05-02T13:59:22.15Z</time></trkpt><trkpt lat="42.1080569" lon="13.4523033"><ele>1016.0</ele><time>2026-05-02T13:59:23.144Z</time></trkpt><trkpt lat="42.1080546" lon="13.4521866"><ele>1015.0</ele><time>2026-05-02T13:59:24.143Z</time></trkpt><trkpt lat="42.1080563" lon="13.4520707"><ele>1014.0</ele><time>2026-05-02T13:59:25.144Z</time></trkpt><trkpt lat="42.108058" lon="13.4519621"><ele>1014.0</ele><time>2026-05-02T13:59:26.14Z</time></trkpt><trkpt lat="42.1080474" lon="13.4518674"><ele>1014.0</ele><time>2026-05-02T13:59:27.141Z</time></trkpt><trkpt lat="42.1080232" lon="13.4517614"><ele>1014.0</ele><time>2026-05-02T13:59:28.14Z</time></trkpt><trkpt lat="42.1079936" lon="13.4516545"><ele>1014.0</ele><time>2026-05-02T13:59:29.136Z</time></trkpt><trkpt lat="42.1079748" lon="13.4515518"><ele>1014.0</ele><time>2026-05-02T13:59:30.131Z</time></trkpt><trkpt lat="42.1079749" lon="13.4514129"><ele>1014.0</ele><time>2026-05-02T13:59:32.141Z</time></trkpt><trkpt lat="42.1079416" lon="13.4513359"><ele>1013.8000000000001</ele><time>2026-05-02T13:59:36.142Z</time></trkpt><trkpt lat="42.1078983" lon="13.4511871"><ele>1013.6000000000001</ele><time>2026-05-02T13:59:44.131Z</time></trkpt><trkpt lat="42.1078674" lon="13.4510951"><ele>1013.4</ele><time>2026-05-02T13:59:45.12Z</time></trkpt><trkpt lat="42.1078248" lon="13.4509867"><ele>1013.2</ele><time>2026-05-02T13:59:46.119Z</time></trkpt><trkpt lat="42.1077844" lon="13.4508765"><ele>1013.0</ele><time>2026-05-02T13:59:47.127Z</time></trkpt><trkpt lat="42.1077365" lon="13.4507734"><ele>1013.0</ele><time>2026-05-02T13:59:48.124Z</time></trkpt><trkpt lat="42.1076847" lon="13.4506597"><ele>1013.0</ele><time>2026-05-02T13:59:49.12Z</time></trkpt><trkpt lat="42.1076363" lon="13.4505467"><ele>1013.0</ele><time>2026-05-02T13:59:50.128Z</time></trkpt><trkpt lat="42.1075911" lon="13.4504374"><ele>1013.0</ele><time>2026-05-02T13:59:51.129Z</time></trkpt><trkpt lat="42.1075489" lon="13.4503381"><ele>1013.0</ele><time>2026-05-02T13:59:52.139Z</time></trkpt><trkpt lat="42.1075036" lon="13.4502476"><ele>1012.3333333333334</ele><time>2026-05-02T13:59:53.126Z</time></trkpt><trkpt lat="42.1074608" lon="13.4501655"><ele>1011.6666666666667</ele><time>2026-05-02T13:59:54.136Z</time></trkpt><trkpt lat="42.1074078" lon="13.4500789"><ele>1011.0</ele><time>2026-05-02T13:59:55.136Z</time></trkpt><trkpt lat="42.1073595" lon="13.4499875"><ele>1010.3333333333333</ele><time>2026-05-02T13:59:56.125Z</time></trkpt><trkpt lat="42.1073115" lon="13.4498927"><ele>1009.6666666666666</ele><time>2026-05-02T13:59:57.13Z</time></trkpt><trkpt lat="42.1072578" lon="13.4497926"><ele>1009.0</ele><time>2026-05-02T13:59:58.137Z</time></trkpt><trkpt lat="42.1072028" lon="13.4496975"><ele>1007.8333333333333</ele><time>2026-05-02T13:59:59.13Z</time></trkpt><trkpt lat="42.1071515" lon="13.449603"><ele>1006.6666666666666</ele><time>2026-05-02T14:00:00.13Z</time></trkpt><trkpt lat="42.1071114" lon="13.4495164"><ele>1005.5</ele><time>2026-05-02T14:00:01.128Z</time></trkpt><trkpt lat="42.1070698" lon="13.4494317"><ele>1004.3333333333333</ele><time>2026-05-02T14:00:02.125Z</time></trkpt><trkpt lat="42.1070287" lon="13.4493453"><ele>1003.1666666666666</ele><time>2026-05-02T14:00:03.117Z</time></trkpt><trkpt lat="42.106986" lon="13.4492525"><ele>1002.0</ele><time>2026-05-02T14:00:04.117Z</time></trkpt><trkpt lat="42.1069515" lon="13.4491489"><ele>1002.0</ele><time>2026-05-02T14:00:05.116Z</time></trkpt><trkpt lat="42.1069118" lon="13.4490309"><ele>1002.0</ele><time>2026-05-02T14:00:06.115Z</time></trkpt><trkpt lat="42.1068703" lon="13.4489087"><ele>1002.0</ele><time>2026-05-02T14:00:07.112Z</time></trkpt><trkpt lat="42.1068306" lon="13.4487869"><ele>1002.0</ele><time>2026-05-02T14:00:08.118Z</time></trkpt><trkpt lat="42.1067857" lon="13.4486587"><ele>1002.0</ele><time>2026-05-02T14:00:09.123Z</time></trkpt><trkpt lat="42.1067413" lon="13.4485313"><ele>1001.6666666666666</ele><time>2026-05-02T14:00:10.124Z</time></trkpt><trkpt lat="42.1066963" lon="13.4484135"><ele>1001.3333333333333</ele><time>2026-05-02T14:00:11.119Z</time></trkpt><trkpt lat="42.1066531" lon="13.4483017"><ele>1001.0</ele><time>2026-05-02T14:00:12.12Z</time></trkpt><trkpt lat="42.1066134" lon="13.4482037"><ele>1000.6666666666666</ele><time>2026-05-02T14:00:13.132Z</time></trkpt><trkpt lat="42.1065728" lon="13.4481169"><ele>1000.3333333333333</ele><time>2026-05-02T14:00:14.127Z</time></trkpt><trkpt lat="42.1065283" lon="13.4480512"><ele>1000.0</ele><time>2026-05-02T14:00:15.118Z</time></trkpt><trkpt lat="42.1064049" lon="13.4479767"><ele>998.9999999999999</ele><time>2026-05-02T14:00:17.119Z</time></trkpt><trkpt lat="42.1063206" lon="13.4479679"><ele>998.0</ele><time>2026-05-02T14:00:18.125Z</time></trkpt><trkpt lat="42.1062394" lon="13.4479588"><ele>997.0</ele><time>2026-05-02T14:00:19.128Z</time></trkpt><trkpt lat="42.1061624" lon="13.4479482"><ele>996.0</ele><time>2026-05-02T14:00:20.138Z</time></trkpt><trkpt lat="42.1060931" lon="13.447935"><ele>994.9999999999999</ele><time>2026-05-02T14:00:21.139Z</time></trkpt><trkpt lat="42.1060309" lon="13.4479173"><ele>994.0</ele><time>2026-05-02T14:00:22.142Z</time></trkpt><trkpt lat="42.1059392" lon="13.4478453"><ele>993.6666666666666</ele><time>2026-05-02T14:00:24.132Z</time></trkpt><trkpt lat="42.1058851" lon="13.4477119"><ele>993.3333333333333</ele><time>2026-05-02T14:00:26.137Z</time></trkpt><trkpt lat="42.105859" lon="13.4476311"><ele>993.0</ele><time>2026-05-02T14:00:27.138Z</time></trkpt><trkpt lat="42.1058327" lon="13.4475358"><ele>992.6666666666667</ele><time>2026-05-02T14:00:28.136Z</time></trkpt><trkpt lat="42.1058069" lon="13.4474295"><ele>992.3333333333334</ele><time>2026-05-02T14:00:29.137Z</time></trkpt><trkpt lat="42.1057872" lon="13.4473227"><ele>992.0</ele><time>2026-05-02T14:00:30.147Z</time></trkpt><trkpt lat="42.1057705" lon="13.4472224"><ele>990.8</ele><time>2026-05-02T14:00:31.139Z</time></trkpt><trkpt lat="42.1057583" lon="13.4471271"><ele>989.6</ele><time>2026-05-02T14:00:32.14Z</time></trkpt><trkpt lat="42.1057402" lon="13.4469733"><ele>988.3999999999999</ele><time>2026-05-02T14:00:34.141Z</time></trkpt><trkpt lat="42.1057527" lon="13.4468372"><ele>987.1999999999999</ele><time>2026-05-02T14:00:36.14Z</time></trkpt><trkpt lat="42.1057879" lon="13.4467078"><ele>986.0</ele><time>2026-05-02T14:00:38.145Z</time></trkpt><trkpt lat="42.1058482" lon="13.4465726"><ele>986.0000000000001</ele><time>2026-05-02T14:00:40.135Z</time></trkpt><trkpt lat="42.1058789" lon="13.4464424"><ele>986.0</ele><time>2026-05-02T14:00:42.135Z</time></trkpt><trkpt lat="42.1058581" lon="13.4462991"><ele>986.0</ele><time>2026-05-02T14:00:44.134Z</time></trkpt><trkpt lat="42.1058279" lon="13.4462224"><ele>986.0</ele><time>2026-05-02T14:00:45.133Z</time></trkpt><trkpt lat="42.1057808" lon="13.4461509"><ele>986.0000000000001</ele><time>2026-05-02T14:00:46.123Z</time></trkpt><trkpt lat="42.1057404" lon="13.4460806"><ele>986.0</ele><time>2026-05-02T14:00:47.133Z</time></trkpt><trkpt lat="42.1056764" lon="13.4459362"><ele>984.5000000000001</ele><time>2026-05-02T14:00:49.123Z</time></trkpt><trkpt lat="42.1056457" lon="13.4458608"><ele>983.0</ele><time>2026-05-02T14:00:50.129Z</time></trkpt><trkpt lat="42.1056123" lon="13.4457795"><ele>981.5</ele><time>2026-05-02T14:00:51.117Z</time></trkpt><trkpt lat="42.1055729" lon="13.4456775"><ele>980.0</ele><time>2026-05-02T14:00:52.13Z</time></trkpt><trkpt lat="42.1055222" lon="13.4455659"><ele>978.5000000000001</ele><time>2026-05-02T14:00:53.128Z</time></trkpt><trkpt lat="42.1054698" lon="13.4454664"><ele>977.0</ele><time>2026-05-02T14:00:54.122Z</time></trkpt><trkpt lat="42.1054267" lon="13.4453564"><ele>977.0</ele><time>2026-05-02T14:00:55.125Z</time></trkpt><trkpt lat="42.1053871" lon="13.4452325"><ele>977.0</ele><time>2026-05-02T14:00:56.135Z</time></trkpt><trkpt lat="42.1053475" lon="13.4451086"><ele>977.0</ele><time>2026-05-02T14:00:57.131Z</time></trkpt><trkpt lat="42.1053039" lon="13.4449801"><ele>977.0</ele><time>2026-05-02T14:00:58.132Z</time></trkpt><trkpt lat="42.1052619" lon="13.4448521"><ele>977.0</ele><time>2026-05-02T14:00:59.129Z</time></trkpt><trkpt lat="42.1052261" lon="13.4447386"><ele>977.0</ele><time>2026-05-02T14:01:00.14Z</time></trkpt><trkpt lat="42.105191" lon="13.4446359"><ele>977.0</ele><time>2026-05-02T14:01:01.132Z</time></trkpt><trkpt lat="42.1051515" lon="13.4445236"><ele>977.0</ele><time>2026-05-02T14:01:02.133Z</time></trkpt><trkpt lat="42.1051107" lon="13.4444024"><ele>977.0</ele><time>2026-05-02T14:01:03.119Z</time></trkpt><trkpt lat="42.1050562" lon="13.444271"><ele>977.0</ele><time>2026-05-02T14:01:04.135Z</time></trkpt><trkpt lat="42.105005" lon="13.4441294"><ele>976.6</ele><time>2026-05-02T14:01:05.13Z</time></trkpt><trkpt lat="42.1049558" lon="13.443998"><ele>976.2</ele><time>2026-05-02T14:01:06.13Z</time></trkpt><trkpt lat="42.1049062" lon="13.4438824"><ele>975.8</ele><time>2026-05-02T14:01:07.13Z</time></trkpt><trkpt lat="42.1048498" lon="13.4437807"><ele>975.4</ele><time>2026-05-02T14:01:08.136Z</time></trkpt><trkpt lat="42.1047899" lon="13.4436937"><ele>975.0</ele><time>2026-05-02T14:01:09.133Z</time></trkpt><trkpt lat="42.1047301" lon="13.4436108"><ele>974.6</ele><time>2026-05-02T14:01:10.13Z</time></trkpt><trkpt lat="42.1046805" lon="13.4435117"><ele>974.2</ele><time>2026-05-02T14:01:11.13Z</time></trkpt><trkpt lat="42.1046331" lon="13.4433853"><ele>973.8</ele><time>2026-05-02T14:01:12.123Z</time></trkpt><trkpt lat="42.1045937" lon="13.4432369"><ele>973.4</ele><time>2026-05-02T14:01:13.121Z</time></trkpt><trkpt lat="42.10454" lon="13.4431081"><ele>973.0</ele><time>2026-05-02T14:01:14.136Z</time></trkpt><trkpt lat="42.1044684" lon="13.442977"><ele>973.0</ele><time>2026-05-02T14:01:15.127Z</time></trkpt><trkpt lat="42.1043884" lon="13.442864"><ele>973.0</ele><time>2026-05-02T14:01:16.133Z</time></trkpt><trkpt lat="42.1043088" lon="13.4427516"><ele>973.0</ele><time>2026-05-02T14:01:17.133Z</time></trkpt><trkpt lat="42.1042312" lon="13.4426377"><ele>973.0</ele><time>2026-05-02T14:01:18.131Z</time></trkpt><trkpt lat="42.1041688" lon="13.4425128"><ele>973.0</ele><time>2026-05-02T14:01:19.138Z</time></trkpt><trkpt lat="42.1041065" lon="13.4423729"><ele>973.0</ele><time>2026-05-02T14:01:20.133Z</time></trkpt><trkpt lat="42.1040464" lon="13.4422172"><ele>973.0</ele><time>2026-05-02T14:01:21.123Z</time></trkpt><trkpt lat="42.1039867" lon="13.4420539"><ele>973.0</ele><time>2026-05-02T14:01:22.14Z</time></trkpt><trkpt lat="42.1039302" lon="13.4418857"><ele>973.0</ele><time>2026-05-02T14:01:23.133Z</time></trkpt><trkpt lat="42.1038663" lon="13.4417026"><ele>973.0</ele><time>2026-05-02T14:01:24.128Z</time></trkpt><trkpt lat="42.1038025" lon="13.4415421"><ele>973.0</ele><time>2026-05-02T14:01:25.13Z</time></trkpt><trkpt lat="42.1037144" lon="13.4414062"><ele>973.0</ele><time>2026-05-02T14:01:26.136Z</time></trkpt><trkpt lat="42.1036254" lon="13.4412698"><ele>973.0</ele><time>2026-05-02T14:01:27.131Z</time></trkpt><trkpt lat="42.1035402" lon="13.4411555"><ele>973.0</ele><time>2026-05-02T14:01:28.134Z</time></trkpt><trkpt lat="42.1034519" lon="13.441042"><ele>973.0</ele><time>2026-05-02T14:01:29.132Z</time></trkpt><trkpt lat="42.1033869" lon="13.4409219"><ele>973.0</ele><time>2026-05-02T14:01:30.128Z</time></trkpt><trkpt lat="42.103337" lon="13.4408121"><ele>973.0</ele><time>2026-05-02T14:01:31.134Z</time></trkpt><trkpt lat="42.1032957" lon="13.4407104"><ele>972.9999999999999</ele><time>2026-05-02T14:01:32.124Z</time></trkpt><trkpt lat="42.1032685" lon="13.4406263"><ele>973.0</ele><time>2026-05-02T14:01:33.135Z</time></trkpt><trkpt lat="42.1032032" lon="13.4404837"><ele>973.0</ele><time>2026-05-02T14:01:35.128Z</time></trkpt><trkpt lat="42.1031569" lon="13.4404196"><ele>973.0</ele><time>2026-05-02T14:01:36.131Z</time></trkpt><trkpt lat="42.1031113" lon="13.4403565"><ele>972.9999999999999</ele><time>2026-05-02T14:01:37.12Z</time></trkpt><trkpt lat="42.1030531" lon="13.4402818"><ele>973.0</ele><time>2026-05-02T14:01:38.13Z</time></trkpt><trkpt lat="42.1029831" lon="13.4402002"><ele>972.8</ele><time>2026-05-02T14:01:39.128Z</time></trkpt><trkpt lat="42.1029076" lon="13.440116"><ele>972.5999999999999</ele><time>2026-05-02T14:01:40.13Z</time></trkpt><trkpt lat="42.1028181" lon="13.4400482"><ele>972.4000000000001</ele><time>2026-05-02T14:01:41.123Z</time></trkpt><trkpt lat="42.1027169" lon="13.4399993"><ele>972.2</ele><time>2026-05-02T14:01:42.128Z</time></trkpt><trkpt lat="42.1026115" lon="13.4399647"><ele>972.0</ele><time>2026-05-02T14:01:43.128Z</time></trkpt><trkpt lat="42.102518" lon="13.4399339"><ele>972.0</ele><time>2026-05-02T14:01:44.127Z</time></trkpt><trkpt lat="42.1024327" lon="13.4398815"><ele>972.0</ele><time>2026-05-02T14:01:45.125Z</time></trkpt><trkpt lat="42.1023537" lon="13.4398078"><ele>972.0</ele><time>2026-05-02T14:01:46.129Z</time></trkpt><trkpt lat="42.1022784" lon="13.4397147"><ele>972.0</ele><time>2026-05-02T14:01:47.122Z</time></trkpt><trkpt lat="42.1021939" lon="13.439601"><ele>972.0</ele><time>2026-05-02T14:01:48.127Z</time></trkpt><trkpt lat="42.10211" lon="13.4394731"><ele>973.0</ele><time>2026-05-02T14:01:49.126Z</time></trkpt><trkpt lat="42.1020263" lon="13.4393338"><ele>974.0</ele><time>2026-05-02T14:01:50.132Z</time></trkpt><trkpt lat="42.1019466" lon="13.4392041"><ele>975.0</ele><time>2026-05-02T14:01:51.121Z</time></trkpt><trkpt lat="42.1018629" lon="13.4390865"><ele>976.0</ele><time>2026-05-02T14:01:52.142Z</time></trkpt><trkpt lat="42.1017688" lon="13.4389686"><ele>976.0</ele><time>2026-05-02T14:01:53.131Z</time></trkpt><trkpt lat="42.101672" lon="13.4388432"><ele>976.0</ele><time>2026-05-02T14:01:54.127Z</time></trkpt><trkpt lat="42.1015782" lon="13.4387061"><ele>976.0</ele><time>2026-05-02T14:01:55.13Z</time></trkpt><trkpt lat="42.1014915" lon="13.4385709"><ele>976.0</ele><time>2026-05-02T14:01:56.126Z</time></trkpt><trkpt lat="42.1014073" lon="13.4384287"><ele>975.75</ele><time>2026-05-02T14:01:57.126Z</time></trkpt><trkpt lat="42.101326" lon="13.4382793"><ele>975.5</ele><time>2026-05-02T14:01:58.119Z</time></trkpt><trkpt lat="42.1012404" lon="13.4381272"><ele>975.25</ele><time>2026-05-02T14:01:59.129Z</time></trkpt><trkpt lat="42.101148" lon="13.4379645"><ele>975.0</ele><time>2026-05-02T14:02:00.129Z</time></trkpt><trkpt lat="42.1010486" lon="13.437821"><ele>975.0</ele><time>2026-05-02T14:02:01.123Z</time></trkpt><trkpt lat="42.1009835" lon="13.4376643"><ele>975.0</ele><time>2026-05-02T14:02:02.133Z</time></trkpt><trkpt lat="42.1008893" lon="13.4375379"><ele>975.0</ele><time>2026-05-02T14:02:03.126Z</time></trkpt><trkpt lat="42.1008246" lon="13.437428"><ele>975.0</ele><time>2026-05-02T14:02:04.135Z</time></trkpt><trkpt lat="42.1007798" lon="13.4373452"><ele>975.0</ele><time>2026-05-02T14:02:05.124Z</time></trkpt><trkpt lat="42.1007199" lon="13.4372396"><ele>974.4</ele><time>2026-05-02T14:02:07.118Z</time></trkpt><trkpt lat="42.1006623" lon="13.4371436"><ele>973.8</ele><time>2026-05-02T14:02:10.123Z</time></trkpt><trkpt lat="42.1006305" lon="13.4370687"><ele>973.2</ele><time>2026-05-02T14:02:11.125Z</time></trkpt><trkpt lat="42.1005876" lon="13.436963"><ele>972.6</ele><time>2026-05-02T14:02:12.123Z</time></trkpt><trkpt lat="42.1005268" lon="13.4368244"><ele>972.0</ele><time>2026-05-02T14:02:13.124Z</time></trkpt><trkpt lat="42.1004611" lon="13.4366788"><ele>972.0</ele><time>2026-05-02T14:02:14.127Z</time></trkpt><trkpt lat="42.1003909" lon="13.4365407"><ele>972.0</ele><time>2026-05-02T14:02:15.127Z</time></trkpt><trkpt lat="42.1003232" lon="13.4364085"><ele>972.0</ele><time>2026-05-02T14:02:16.134Z</time></trkpt><trkpt lat="42.100249" lon="13.4362751"><ele>972.0</ele><time>2026-05-02T14:02:17.13Z</time></trkpt><trkpt lat="42.1001772" lon="13.4361333"><ele>972.75</ele><time>2026-05-02T14:02:18.13Z</time></trkpt><trkpt lat="42.1001151" lon="13.4359766"><ele>973.5</ele><time>2026-05-02T14:02:19.137Z</time></trkpt><trkpt lat="42.1000561" lon="13.4358221"><ele>974.25</ele><time>2026-05-02T14:02:20.128Z</time></trkpt><trkpt lat="42.0999994" lon="13.4356859"><ele>975.0</ele><time>2026-05-02T14:02:21.128Z</time></trkpt><trkpt lat="42.099948" lon="13.4355617"><ele>974.8</ele><time>2026-05-02T14:02:22.136Z</time></trkpt><trkpt lat="42.0999076" lon="13.4354453"><ele>974.6</ele><time>2026-05-02T14:02:23.134Z</time></trkpt><trkpt lat="42.0998667" lon="13.4353256"><ele>974.4000000000001</ele><time>2026-05-02T14:02:24.128Z</time></trkpt><trkpt lat="42.0998304" lon="13.4352062"><ele>974.2</ele><time>2026-05-02T14:02:25.128Z</time></trkpt><trkpt lat="42.0997944" lon="13.4351016"><ele>974.0</ele><time>2026-05-02T14:02:26.135Z</time></trkpt><trkpt lat="42.0997688" lon="13.4350031"><ele>974.0</ele><time>2026-05-02T14:02:27.129Z</time></trkpt><trkpt lat="42.0997382" lon="13.4348971"><ele>974.0000000000001</ele><time>2026-05-02T14:02:28.135Z</time></trkpt><trkpt lat="42.0997" lon="13.434779"><ele>974.0000000000001</ele><time>2026-05-02T14:02:29.128Z</time></trkpt><trkpt lat="42.0996522" lon="13.4346561"><ele>974.0</ele><time>2026-05-02T14:02:30.132Z</time></trkpt><trkpt lat="42.0995965" lon="13.4345325"><ele>974.0</ele><time>2026-05-02T14:02:31.126Z</time></trkpt><trkpt lat="42.0995442" lon="13.4344222"><ele>974.1666666666667</ele><time>2026-05-02T14:02:32.129Z</time></trkpt><trkpt lat="42.0995031" lon="13.4343212"><ele>974.3333333333334</ele><time>2026-05-02T14:02:33.129Z</time></trkpt><trkpt lat="42.0994597" lon="13.4342201"><ele>974.5</ele><time>2026-05-02T14:02:34.129Z</time></trkpt><trkpt lat="42.0994301" lon="13.4341251"><ele>974.6666666666667</ele><time>2026-05-02T14:02:35.129Z</time></trkpt><trkpt lat="42.0994142" lon="13.4340419"><ele>974.8333333333334</ele><time>2026-05-02T14:02:36.131Z</time></trkpt><trkpt lat="42.0994048" lon="13.4339387"><ele>975.0</ele><time>2026-05-02T14:02:38.123Z</time></trkpt><trkpt lat="42.099376" lon="13.4338251"><ele>974.4</ele><time>2026-05-02T14:02:41.114Z</time></trkpt><trkpt lat="42.0993331" lon="13.433755"><ele>973.8</ele><time>2026-05-02T14:02:42.133Z</time></trkpt><trkpt lat="42.0992596" lon="13.4336842"><ele>973.2</ele><time>2026-05-02T14:02:43.119Z</time></trkpt><trkpt lat="42.099168" lon="13.4336106"><ele>972.6</ele><time>2026-05-02T14:02:44.127Z</time></trkpt><trkpt lat="42.0990713" lon="13.4335247"><ele>972.0</ele><time>2026-05-02T14:02:45.126Z</time></trkpt><trkpt lat="42.0989716" lon="13.4334242"><ele>972.0</ele><time>2026-05-02T14:02:46.124Z</time></trkpt><trkpt lat="42.0988713" lon="13.4333336"><ele>972.0</ele><time>2026-05-02T14:02:47.126Z</time></trkpt><trkpt lat="42.0987729" lon="13.4332451"><ele>972.0</ele><time>2026-05-02T14:02:48.122Z</time></trkpt><trkpt lat="42.0986852" lon="13.4331625"><ele>972.0</ele><time>2026-05-02T14:02:49.132Z</time></trkpt><trkpt lat="42.0986024" lon="13.4330883"><ele>972.0</ele><time>2026-05-02T14:02:50.125Z</time></trkpt><trkpt lat="42.0985363" lon="13.4330167"><ele>971.5</ele><time>2026-05-02T14:02:51.128Z</time></trkpt><trkpt lat="42.0984698" lon="13.4329496"><ele>971.0</ele><time>2026-05-02T14:02:52.131Z</time></trkpt><trkpt lat="42.0984081" lon="13.4328774"><ele>970.5</ele><time>2026-05-02T14:02:53.128Z</time></trkpt><trkpt lat="42.0983465" lon="13.4328048"><ele>970.0</ele><time>2026-05-02T14:02:54.13Z</time></trkpt><trkpt lat="42.0982861" lon="13.4327474"><ele>969.5</ele><time>2026-05-02T14:02:55.137Z</time></trkpt><trkpt lat="42.0982252" lon="13.4326876"><ele>969.0</ele><time>2026-05-02T14:02:56.127Z</time></trkpt><trkpt lat="42.098161" lon="13.4326275"><ele>969.0</ele><time>2026-05-02T14:02:57.134Z</time></trkpt><trkpt lat="42.098097" lon="13.4325635"><ele>969.0</ele><time>2026-05-02T14:02:58.133Z</time></trkpt><trkpt lat="42.0980316" lon="13.4325115"><ele>969.0</ele><time>2026-05-02T14:02:59.137Z</time></trkpt><trkpt lat="42.0979762" lon="13.4324603"><ele>969.0</ele><time>2026-05-02T14:03:00.128Z</time></trkpt><trkpt lat="42.0978959" lon="13.4323759"><ele>969.0</ele><time>2026-05-02T14:03:02.125Z</time></trkpt><trkpt lat="42.0979328" lon="13.4322974"><ele>969.0</ele><time>2026-05-02T14:03:06.137Z</time></trkpt><trkpt lat="42.0980313" lon="13.4322658"><ele>969.0</ele><time>2026-05-02T14:03:09.124Z</time></trkpt><trkpt lat="42.0981473" lon="13.4323278"><ele>969.0</ele><time>2026-05-02T14:03:11.132Z</time></trkpt><trkpt lat="42.0982139" lon="13.4323802"><ele>969.0</ele><time>2026-05-02T14:03:12.136Z</time></trkpt><trkpt lat="42.0982861" lon="13.4324314"><ele>969.0</ele><time>2026-05-02T14:03:13.135Z</time></trkpt><trkpt lat="42.0983569" lon="13.4324924"><ele>969.0</ele><time>2026-05-02T14:03:14.139Z</time></trkpt><trkpt lat="42.0984217" lon="13.4325545"><ele>969.0</ele><time>2026-05-02T14:03:15.139Z</time></trkpt><trkpt lat="42.0984819" lon="13.4326112"><ele>968.0</ele><time>2026-05-02T14:03:16.14Z</time></trkpt><trkpt lat="42.0985396" lon="13.4326747"><ele>967.0</ele><time>2026-05-02T14:03:17.133Z</time></trkpt><trkpt lat="42.0986006" lon="13.4327355"><ele>966.0</ele><time>2026-05-02T14:03:18.138Z</time></trkpt><trkpt lat="42.0986588" lon="13.4327944"><ele>965.0</ele><time>2026-05-02T14:03:19.135Z</time></trkpt><trkpt lat="42.098721" lon="13.432855"><ele>964.0</ele><time>2026-05-02T14:03:20.138Z</time></trkpt><trkpt lat="42.0987899" lon="13.4329064"><ele>963.0</ele><time>2026-05-02T14:03:21.138Z</time></trkpt><trkpt lat="42.0988671" lon="13.4329543"><ele>964.0</ele><time>2026-05-02T14:03:22.134Z</time></trkpt><trkpt lat="42.0989532" lon="13.4329921"><ele>965.0</ele><time>2026-05-02T14:03:23.132Z</time></trkpt><trkpt lat="42.0990405" lon="13.4330276"><ele>966.0</ele><time>2026-05-02T14:03:24.135Z</time></trkpt><trkpt lat="42.0991219" lon="13.4330486"><ele>967.0</ele><time>2026-05-02T14:03:25.13Z</time></trkpt><trkpt lat="42.0991985" lon="13.4330579"><ele>968.0</ele><time>2026-05-02T14:03:26.123Z</time></trkpt><trkpt lat="42.0992637" lon="13.4330779"><ele>969.0</ele><time>2026-05-02T14:03:27.135Z</time></trkpt><trkpt lat="42.0993222" lon="13.4331114"><ele>969.0</ele><time>2026-05-02T14:03:28.134Z</time></trkpt><trkpt lat="42.0994195" lon="13.4331758"><ele>969.0000000000001</ele><time>2026-05-02T14:03:30.133Z</time></trkpt><trkpt lat="42.0994866" lon="13.433152"><ele>969.0000000000001</ele><time>2026-05-02T14:03:32.132Z</time></trkpt><trkpt lat="42.099572" lon="13.4330925"><ele>969.0</ele><time>2026-05-02T14:03:34.132Z</time></trkpt><trkpt lat="42.0996662" lon="13.4330351"><ele>969.0</ele><time>2026-05-02T14:03:36.128Z</time></trkpt><trkpt lat="42.0997674" lon="13.4329803"><ele>965.8333333333334</ele><time>2026-05-02T14:03:38.131Z</time></trkpt><trkpt lat="42.0998565" lon="13.4329255"><ele>962.6666666666667</ele><time>2026-05-02T14:03:40.132Z</time></trkpt><trkpt lat="42.0999627" lon="13.4328349"><ele>959.5</ele><time>2026-05-02T14:03:42.129Z</time></trkpt><trkpt lat="42.1000116" lon="13.4327741"><ele>956.3333333333334</ele><time>2026-05-02T14:03:43.125Z</time></trkpt><trkpt lat="42.1000545" lon="13.4327048"><ele>953.1666666666667</ele><time>2026-05-02T14:03:44.144Z</time></trkpt><trkpt lat="42.1001013" lon="13.4326387"><ele>950.0</ele><time>2026-05-02T14:03:45.13Z</time></trkpt><trkpt lat="42.1001444" lon="13.4325682"><ele>950.0000000000001</ele><time>2026-05-02T14:03:46.128Z</time></trkpt><trkpt lat="42.10018" lon="13.4324928"><ele>950.0</ele><time>2026-05-02T14:03:47.133Z</time></trkpt><trkpt lat="42.100208" lon="13.4324145"><ele>950.0</ele><time>2026-05-02T14:03:48.13Z</time></trkpt><trkpt lat="42.1002381" lon="13.4323307"><ele>950.0</ele><time>2026-05-02T14:03:49.129Z</time></trkpt><trkpt lat="42.1002751" lon="13.4322494"><ele>950.0000000000001</ele><time>2026-05-02T14:03:50.132Z</time></trkpt><trkpt lat="42.1003141" lon="13.4321739"><ele>950.0</ele><time>2026-05-02T14:03:51.138Z</time></trkpt><trkpt lat="42.100391" lon="13.4320517"><ele>950.1666666666667</ele><time>2026-05-02T14:03:53.136Z</time></trkpt><trkpt lat="42.1004493" lon="13.431992"><ele>950.3333333333334</ele><time>2026-05-02T14:03:54.117Z</time></trkpt><trkpt lat="42.100517" lon="13.4319196"><ele>950.5</ele><time>2026-05-02T14:03:55.124Z</time></trkpt><trkpt lat="42.1005923" lon="13.4318428"><ele>950.6666666666667</ele><time>2026-05-02T14:03:56.13Z</time></trkpt><trkpt lat="42.1006674" lon="13.4317844"><ele>950.8333333333334</ele><time>2026-05-02T14:03:57.123Z</time></trkpt><trkpt lat="42.1007288" lon="13.4317388"><ele>951.0</ele><time>2026-05-02T14:03:58.12Z</time></trkpt><trkpt lat="42.1007958" lon="13.431699"><ele>951.0</ele><time>2026-05-02T14:03:59.129Z</time></trkpt><trkpt lat="42.1008619" lon="13.4316656"><ele>951.0</ele><time>2026-05-02T14:04:00.118Z</time></trkpt><trkpt lat="42.1009296" lon="13.4316363"><ele>951.0</ele><time>2026-05-02T14:04:01.128Z</time></trkpt><trkpt lat="42.1010104" lon="13.4316143"><ele>951.0</ele><time>2026-05-02T14:04:02.117Z</time></trkpt><trkpt lat="42.1010928" lon="13.4315849"><ele>951.0</ele><time>2026-05-02T14:04:03.125Z</time></trkpt><trkpt lat="42.1011798" lon="13.4315441"><ele>951.0</ele><time>2026-05-02T14:04:04.12Z</time></trkpt><trkpt lat="42.1012671" lon="13.4314979"><ele>951.0</ele><time>2026-05-02T14:04:05.118Z</time></trkpt><trkpt lat="42.1013469" lon="13.4314509"><ele>951.0</ele><time>2026-05-02T14:04:06.119Z</time></trkpt><trkpt lat="42.1014192" lon="13.4313909"><ele>951.0</ele><time>2026-05-02T14:04:07.124Z</time></trkpt><trkpt lat="42.1014797" lon="13.4313272"><ele>951.0</ele><time>2026-05-02T14:04:08.122Z</time></trkpt><trkpt lat="42.1015393" lon="13.4312635"><ele>951.0</ele><time>2026-05-02T14:04:09.119Z</time></trkpt><trkpt lat="42.1015993" lon="13.4311986"><ele>951.0</ele><time>2026-05-02T14:04:10.121Z</time></trkpt><trkpt lat="42.1016487" lon="13.4311419"><ele>951.5999999999999</ele><time>2026-05-02T14:04:11.122Z</time></trkpt><trkpt lat="42.101722" lon="13.4310294"><ele>952.1999999999999</ele><time>2026-05-02T14:04:13.121Z</time></trkpt><trkpt lat="42.1017957" lon="13.4308985"><ele>952.8000000000001</ele><time>2026-05-02T14:04:15.123Z</time></trkpt><trkpt lat="42.1018526" lon="13.4307933"><ele>953.4000000000001</ele><time>2026-05-02T14:04:17.129Z</time></trkpt><trkpt lat="42.1018829" lon="13.430673"><ele>954.0</ele><time>2026-05-02T14:04:20.126Z</time></trkpt><trkpt lat="42.1018203" lon="13.430799"><ele>954.0</ele><time>2026-05-02T14:04:30.119Z</time></trkpt><trkpt lat="42.1017789" lon="13.4308692"><ele>954.0</ele><time>2026-05-02T14:04:31.116Z</time></trkpt><trkpt lat="42.1017371" lon="13.4309529"><ele>954.0</ele><time>2026-05-02T14:04:32.119Z</time></trkpt><trkpt lat="42.1016798" lon="13.431044"><ele>954.0</ele><time>2026-05-02T14:04:33.115Z</time></trkpt><trkpt lat="42.1016194" lon="13.4311306"><ele>954.0</ele><time>2026-05-02T14:04:34.11Z</time></trkpt><trkpt lat="42.1015616" lon="13.4312019"><ele>954.0</ele><time>2026-05-02T14:04:35.11Z</time></trkpt><trkpt lat="42.1014984" lon="13.4312619"><ele>953.4000000000001</ele><time>2026-05-02T14:04:40.133Z</time></trkpt><trkpt lat="42.101439" lon="13.431311"><ele>952.8000000000001</ele><time>2026-05-02T14:04:45.113Z</time></trkpt><trkpt lat="42.1013456" lon="13.4313895"><ele>952.1999999999999</ele><time>2026-05-02T14:04:48.11Z</time></trkpt><trkpt lat="42.1012736" lon="13.4314424"><ele>951.5999999999999</ele><time>2026-05-02T14:04:49.109Z</time></trkpt><trkpt lat="42.1011835" lon="13.4314965"><ele>951.0</ele><time>2026-05-02T14:04:50.114Z</time></trkpt><trkpt lat="42.1010925" lon="13.4315406"><ele>951.0</ele><time>2026-05-02T14:04:51.107Z</time></trkpt><trkpt lat="42.1010169" lon="13.431565"><ele>951.0</ele><time>2026-05-02T14:04:52.113Z</time></trkpt><trkpt lat="42.1009538" lon="13.4315851"><ele>951.0</ele><time>2026-05-02T14:04:53.123Z</time></trkpt><trkpt lat="42.1008926" lon="13.4316111"><ele>951.0</ele><time>2026-05-02T14:04:54.114Z</time></trkpt><trkpt lat="42.1008297" lon="13.4316334"><ele>951.0</ele><time>2026-05-02T14:04:55.115Z</time></trkpt><trkpt lat="42.1007673" lon="13.4316489"><ele>951.0</ele><time>2026-05-02T14:04:56.118Z</time></trkpt><trkpt lat="42.1006612" lon="13.4317093"><ele>950.1666666666666</ele><time>2026-05-02T14:04:58.113Z</time></trkpt><trkpt lat="42.1005726" lon="13.431785"><ele>949.3333333333333</ele><time>2026-05-02T14:05:00.113Z</time></trkpt><trkpt lat="42.1004917" lon="13.4318634"><ele>948.5</ele><time>2026-05-02T14:05:02.116Z</time></trkpt><trkpt lat="42.1004445" lon="13.4319205"><ele>947.6666666666666</ele><time>2026-05-02T14:05:03.111Z</time></trkpt><trkpt lat="42.1003962" lon="13.4319793"><ele>946.8333333333333</ele><time>2026-05-02T14:05:04.111Z</time></trkpt><trkpt lat="42.1003255" lon="13.4320599"><ele>946.0</ele><time>2026-05-02T14:05:06.107Z</time></trkpt><trkpt lat="42.1002644" lon="13.432017"><ele>945.9999999999999</ele><time>2026-05-02T14:05:43.112Z</time></trkpt><trkpt lat="42.1002054" lon="13.4319636"><ele>946.0</ele><time>2026-05-02T14:05:47.115Z</time></trkpt><trkpt lat="42.1001539" lon="13.4318802"><ele>946.0</ele><time>2026-05-02T14:05:50.11Z</time></trkpt><trkpt lat="42.1000874" lon="13.4318291"><ele>946.0</ele><time>2026-05-02T14:06:09.12Z</time></trkpt><trkpt lat="42.1000224" lon="13.4318641"><ele>945.9999999999999</ele><time>2026-05-02T14:06:12.114Z</time></trkpt><trkpt lat="42.0999467" lon="13.4319097"><ele>946.0</ele><time>2026-05-02T14:06:14.114Z</time></trkpt><trkpt lat="42.0998322" lon="13.4319909"><ele>944.8333333333333</ele><time>2026-05-02T14:06:16.119Z</time></trkpt><trkpt lat="42.0997678" lon="13.4320178"><ele>943.6666666666666</ele><time>2026-05-02T14:06:17.118Z</time></trkpt><trkpt lat="42.0996807" lon="13.4320628"><ele>942.5</ele><time>2026-05-02T14:06:19.114Z</time></trkpt><trkpt lat="42.0995952" lon="13.4320774"><ele>941.3333333333333</ele><time>2026-05-02T14:06:29.111Z</time></trkpt><trkpt lat="42.0994986" lon="13.4320667"><ele>940.1666666666666</ele><time>2026-05-02T14:06:31.112Z</time></trkpt><trkpt lat="42.0994109" lon="13.4320298"><ele>939.0</ele><time>2026-05-02T14:06:33.108Z</time></trkpt><trkpt lat="42.0993498" lon="13.4319936"><ele>939.0</ele><time>2026-05-02T14:06:34.115Z</time></trkpt><trkpt lat="42.0992759" lon="13.4319564"><ele>939.0</ele><time>2026-05-02T14:06:35.107Z</time></trkpt><trkpt lat="42.0991886" lon="13.4319303"><ele>939.0</ele><time>2026-05-02T14:06:36.109Z</time></trkpt><trkpt lat="42.0991115" lon="13.431887"><ele>939.0</ele><time>2026-05-02T14:06:37.109Z</time></trkpt><trkpt lat="42.0990526" lon="13.4318303"><ele>939.0</ele><time>2026-05-02T14:06:38.108Z</time></trkpt><trkpt lat="42.0989927" lon="13.4317611"><ele>939.0</ele><time>2026-05-02T14:06:39.109Z</time></trkpt><trkpt lat="42.0989224" lon="13.431683"><ele>938.6666666666666</ele><time>2026-05-02T14:06:40.109Z</time></trkpt><trkpt lat="42.0988491" lon="13.431596"><ele>938.3333333333333</ele><time>2026-05-02T14:06:41.109Z</time></trkpt><trkpt lat="42.0987861" lon="13.4315124"><ele>938.0</ele><time>2026-05-02T14:06:42.107Z</time></trkpt><trkpt lat="42.0987343" lon="13.431436"><ele>937.6666666666666</ele><time>2026-05-02T14:06:43.104Z</time></trkpt><trkpt lat="42.098682" lon="13.4313613"><ele>937.3333333333333</ele><time>2026-05-02T14:06:44.118Z</time></trkpt><trkpt lat="42.0986225" lon="13.4312733"><ele>937.0</ele><time>2026-05-02T14:06:45.107Z</time></trkpt><trkpt lat="42.0985515" lon="13.43118"><ele>936.9999999999999</ele><time>2026-05-02T14:06:46.11Z</time></trkpt><trkpt lat="42.098477" lon="13.4310951"><ele>937.0</ele><time>2026-05-02T14:06:47.111Z</time></trkpt><trkpt lat="42.0984047" lon="13.4310216"><ele>937.0</ele><time>2026-05-02T14:06:48.108Z</time></trkpt><trkpt lat="42.0983386" lon="13.4309581"><ele>937.0</ele><time>2026-05-02T14:06:49.105Z</time></trkpt><trkpt lat="42.0982817" lon="13.4308866"><ele>936.9999999999999</ele><time>2026-05-02T14:06:50.105Z</time></trkpt><trkpt lat="42.0982295" lon="13.4308002"><ele>937.0</ele><time>2026-05-02T14:06:51.106Z</time></trkpt><trkpt lat="42.0981804" lon="13.4307155"><ele>937.4999999999999</ele><time>2026-05-02T14:06:52.107Z</time></trkpt><trkpt lat="42.0981312" lon="13.4306327"><ele>938.0</ele><time>2026-05-02T14:06:53.105Z</time></trkpt><trkpt lat="42.0980746" lon="13.4305525"><ele>938.5</ele><time>2026-05-02T14:06:54.102Z</time></trkpt><trkpt lat="42.0980191" lon="13.4304614"><ele>939.0</ele><time>2026-05-02T14:06:55.109Z</time></trkpt><trkpt lat="42.0979717" lon="13.4303785"><ele>939.4999999999999</ele><time>2026-05-02T14:06:56.105Z</time></trkpt><trkpt lat="42.0979249" lon="13.4302812"><ele>940.0</ele><time>2026-05-02T14:06:57.104Z</time></trkpt><trkpt lat="42.0978726" lon="13.4301746"><ele>940.0</ele><time>2026-05-02T14:06:58.104Z</time></trkpt><trkpt lat="42.0978187" lon="13.4300619"><ele>940.0</ele><time>2026-05-02T14:06:59.106Z</time></trkpt><trkpt lat="42.0977712" lon="13.4299451"><ele>940.0</ele><time>2026-05-02T14:07:00.107Z</time></trkpt><trkpt lat="42.0977253" lon="13.4298191"><ele>940.0</ele><time>2026-05-02T14:07:01.105Z</time></trkpt><trkpt lat="42.0976839" lon="13.429692"><ele>940.0</ele><time>2026-05-02T14:07:02.108Z</time></trkpt><trkpt lat="42.097645" lon="13.429567"><ele>938.6</ele><time>2026-05-02T14:07:03.103Z</time></trkpt><trkpt lat="42.0976182" lon="13.4294404"><ele>937.2</ele><time>2026-05-02T14:07:04.106Z</time></trkpt><trkpt lat="42.0975904" lon="13.4293163"><ele>935.8</ele><time>2026-05-02T14:07:05.105Z</time></trkpt><trkpt lat="42.0975678" lon="13.4291795"><ele>934.4</ele><time>2026-05-02T14:07:06.105Z</time></trkpt><trkpt lat="42.0975399" lon="13.4290346"><ele>933.0</ele><time>2026-05-02T14:07:07.103Z</time></trkpt><trkpt lat="42.0975056" lon="13.4288874"><ele>933.0</ele><time>2026-05-02T14:07:08.107Z</time></trkpt><trkpt lat="42.0974726" lon="13.4287447"><ele>933.0</ele><time>2026-05-02T14:07:09.101Z</time></trkpt><trkpt lat="42.0974447" lon="13.4286159"><ele>933.0</ele><time>2026-05-02T14:07:10.107Z</time></trkpt><trkpt lat="42.0974111" lon="13.4284967"><ele>933.0</ele><time>2026-05-02T14:07:11.104Z</time></trkpt><trkpt lat="42.0973777" lon="13.4283793"><ele>933.0</ele><time>2026-05-02T14:07:12.106Z</time></trkpt><trkpt lat="42.0973433" lon="13.428275"><ele>933.2</ele><time>2026-05-02T14:07:13.102Z</time></trkpt><trkpt lat="42.0973183" lon="13.4281801"><ele>933.4</ele><time>2026-05-02T14:07:14.11Z</time></trkpt><trkpt lat="42.0972698" lon="13.4280336"><ele>933.6000000000001</ele><time>2026-05-02T14:07:16.104Z</time></trkpt><trkpt lat="42.0972352" lon="13.427865"><ele>933.8000000000001</ele><time>2026-05-02T14:07:18.105Z</time></trkpt><trkpt lat="42.0972131" lon="13.4277652"><ele>934.0</ele><time>2026-05-02T14:07:19.109Z</time></trkpt><trkpt lat="42.0971883" lon="13.427669"><ele>933.9999999999999</ele><time>2026-05-02T14:07:20.115Z</time></trkpt><trkpt lat="42.0971716" lon="13.427573"><ele>934.0</ele><time>2026-05-02T14:07:21.107Z</time></trkpt><trkpt lat="42.097161" lon="13.4274791"><ele>934.0</ele><time>2026-05-02T14:07:22.113Z</time></trkpt><trkpt lat="42.0971432" lon="13.4273668"><ele>934.0</ele><time>2026-05-02T14:07:23.108Z</time></trkpt><trkpt lat="42.0971178" lon="13.4272455"><ele>933.9999999999999</ele><time>2026-05-02T14:07:24.109Z</time></trkpt><trkpt lat="42.0970914" lon="13.4271182"><ele>934.0</ele><time>2026-05-02T14:07:25.105Z</time></trkpt><trkpt lat="42.0970629" lon="13.426979"><ele>932.6</ele><time>2026-05-02T14:07:26.109Z</time></trkpt><trkpt lat="42.0970411" lon="13.4268416"><ele>931.2</ele><time>2026-05-02T14:07:27.106Z</time></trkpt><trkpt lat="42.0970192" lon="13.4267214"><ele>929.8000000000001</ele><time>2026-05-02T14:07:28.112Z</time></trkpt><trkpt lat="42.0970036" lon="13.4265931"><ele>928.4000000000001</ele><time>2026-05-02T14:07:29.104Z</time></trkpt><trkpt lat="42.0969855" lon="13.4264637"><ele>927.0</ele><time>2026-05-02T14:07:30.108Z</time></trkpt><trkpt lat="42.0969687" lon="13.4263425"><ele>926.3333333333334</ele><time>2026-05-02T14:07:31.104Z</time></trkpt><trkpt lat="42.0969632" lon="13.426236"><ele>925.6666666666667</ele><time>2026-05-02T14:07:32.109Z</time></trkpt><trkpt lat="42.0969597" lon="13.4261309"><ele>925.0</ele><time>2026-05-02T14:07:33.111Z</time></trkpt><trkpt lat="42.0969397" lon="13.4260213"><ele>924.3333333333334</ele><time>2026-05-02T14:07:34.108Z</time></trkpt><trkpt lat="42.096921" lon="13.4258997"><ele>923.6666666666667</ele><time>2026-05-02T14:07:35.106Z</time></trkpt><trkpt lat="42.0968986" lon="13.4257758"><ele>923.0</ele><time>2026-05-02T14:07:36.106Z</time></trkpt><trkpt lat="42.0968768" lon="13.4256476"><ele>923.0</ele><time>2026-05-02T14:07:37.104Z</time></trkpt><trkpt lat="42.0968584" lon="13.4255348"><ele>923.0</ele><time>2026-05-02T14:07:38.11Z</time></trkpt><trkpt lat="42.0968386" lon="13.4254295"><ele>923.0</ele><time>2026-05-02T14:07:39.103Z</time></trkpt><trkpt lat="42.0968092" lon="13.4253147"><ele>923.0</ele><time>2026-05-02T14:07:40.106Z</time></trkpt><trkpt lat="42.0967769" lon="13.4251852"><ele>923.0</ele><time>2026-05-02T14:07:41.108Z</time></trkpt><trkpt lat="42.0967376" lon="13.4250513"><ele>922.5999999999999</ele><time>2026-05-02T14:07:42.113Z</time></trkpt><trkpt lat="42.0966987" lon="13.4249153"><ele>922.1999999999999</ele><time>2026-05-02T14:07:43.107Z</time></trkpt><trkpt lat="42.0966618" lon="13.424782"><ele>921.8</ele><time>2026-05-02T14:07:44.112Z</time></trkpt><trkpt lat="42.0966205" lon="13.4246537"><ele>921.4</ele><time>2026-05-02T14:07:45.112Z</time></trkpt><trkpt lat="42.0965655" lon="13.4245312"><ele>921.0</ele><time>2026-05-02T14:07:46.112Z</time></trkpt><trkpt lat="42.0965074" lon="13.4244092"><ele>921.0</ele><time>2026-05-02T14:07:47.111Z</time></trkpt><trkpt lat="42.0964521" lon="13.4242972"><ele>920.9999999999999</ele><time>2026-05-02T14:07:48.106Z</time></trkpt><trkpt lat="42.0964026" lon="13.4241966"><ele>920.9999999999999</ele><time>2026-05-02T14:07:49.109Z</time></trkpt><trkpt lat="42.0963409" lon="13.424097"><ele>921.0</ele><time>2026-05-02T14:07:50.105Z</time></trkpt><trkpt lat="42.0962687" lon="13.4239912"><ele>921.0</ele><time>2026-05-02T14:07:51.111Z</time></trkpt><trkpt lat="42.0961987" lon="13.4238854"><ele>919.4</ele><time>2026-05-02T14:07:52.105Z</time></trkpt><trkpt lat="42.0961259" lon="13.4237835"><ele>917.8</ele><time>2026-05-02T14:07:53.108Z</time></trkpt><trkpt lat="42.0960568" lon="13.4236774"><ele>916.1999999999999</ele><time>2026-05-02T14:07:54.105Z</time></trkpt><trkpt lat="42.0959959" lon="13.4235636"><ele>914.5999999999999</ele><time>2026-05-02T14:07:55.109Z</time></trkpt><trkpt lat="42.0959396" lon="13.4234482"><ele>913.0</ele><time>2026-05-02T14:07:56.111Z</time></trkpt><trkpt lat="42.0958839" lon="13.4233293"><ele>913.0</ele><time>2026-05-02T14:07:57.109Z</time></trkpt><trkpt lat="42.0958342" lon="13.4232095"><ele>913.0</ele><time>2026-05-02T14:07:58.112Z</time></trkpt><trkpt lat="42.0957931" lon="13.42309"><ele>913.0</ele><time>2026-05-02T14:07:59.111Z</time></trkpt><trkpt lat="42.0957607" lon="13.4229659"><ele>913.0</ele><time>2026-05-02T14:08:00.108Z</time></trkpt><trkpt lat="42.0957231" lon="13.4228434"><ele>913.0</ele><time>2026-05-02T14:08:01.102Z</time></trkpt><trkpt lat="42.0956876" lon="13.4227197"><ele>914.8</ele><time>2026-05-02T14:08:02.108Z</time></trkpt><trkpt lat="42.0956658" lon="13.4225979"><ele>916.5999999999999</ele><time>2026-05-02T14:08:03.108Z</time></trkpt><trkpt lat="42.095656" lon="13.4224762"><ele>918.4000000000001</ele><time>2026-05-02T14:08:04.106Z</time></trkpt><trkpt lat="42.0956426" lon="13.4223422"><ele>920.2</ele><time>2026-05-02T14:08:05.106Z</time></trkpt><trkpt lat="42.0956329" lon="13.4221965"><ele>922.0</ele><time>2026-05-02T14:08:06.113Z</time></trkpt><trkpt lat="42.0956238" lon="13.4220351"><ele>922.0</ele><time>2026-05-02T14:08:07.105Z</time></trkpt><trkpt lat="42.0956196" lon="13.4218761"><ele>922.0</ele><time>2026-05-02T14:08:08.11Z</time></trkpt><trkpt lat="42.0956105" lon="13.4217225"><ele>922.0</ele><time>2026-05-02T14:08:09.109Z</time></trkpt><trkpt lat="42.0956088" lon="13.4215684"><ele>922.0</ele><time>2026-05-02T14:08:10.111Z</time></trkpt><trkpt lat="42.0956055" lon="13.4214163"><ele>920.0</ele><time>2026-05-02T14:08:11.105Z</time></trkpt><trkpt lat="42.0955977" lon="13.4212641"><ele>918.0</ele><time>2026-05-02T14:08:12.109Z</time></trkpt><trkpt lat="42.0955889" lon="13.4211125"><ele>916.0</ele><time>2026-05-02T14:08:13.11Z</time></trkpt><trkpt lat="42.0955816" lon="13.4209555"><ele>914.0</ele><time>2026-05-02T14:08:14.108Z</time></trkpt><trkpt lat="42.0955825" lon="13.4208002"><ele>914.0</ele><time>2026-05-02T14:08:15.108Z</time></trkpt><trkpt lat="42.0955758" lon="13.4206654"><ele>914.0000000000001</ele><time>2026-05-02T14:08:16.115Z</time></trkpt><trkpt lat="42.0955813" lon="13.4205234"><ele>914.0000000000001</ele><time>2026-05-02T14:08:17.107Z</time></trkpt><trkpt lat="42.0955881" lon="13.4203877"><ele>914.0</ele><time>2026-05-02T14:08:18.107Z</time></trkpt><trkpt lat="42.0955896" lon="13.4202536"><ele>914.0</ele><time>2026-05-02T14:08:19.108Z</time></trkpt><trkpt lat="42.0955752" lon="13.4201095"><ele>913.8333333333334</ele><time>2026-05-02T14:08:20.109Z</time></trkpt><trkpt lat="42.0955574" lon="13.4199858"><ele>913.6666666666667</ele><time>2026-05-02T14:08:21.106Z</time></trkpt><trkpt lat="42.09554" lon="13.4198836"><ele>913.5</ele><time>2026-05-02T14:08:22.116Z</time></trkpt><trkpt lat="42.0955281" lon="13.419795"><ele>913.3333333333333</ele><time>2026-05-02T14:08:23.107Z</time></trkpt><trkpt lat="42.0955217" lon="13.4197076"><ele>913.1666666666666</ele><time>2026-05-02T14:08:24.113Z</time></trkpt><trkpt lat="42.0955208" lon="13.419612"><ele>913.0</ele><time>2026-05-02T14:08:25.106Z</time></trkpt><trkpt lat="42.095517" lon="13.4195097"><ele>912.2</ele><time>2026-05-02T14:08:26.106Z</time></trkpt><trkpt lat="42.0955129" lon="13.4194104"><ele>911.4</ele><time>2026-05-02T14:08:27.107Z</time></trkpt><trkpt lat="42.0955156" lon="13.4192919"><ele>910.6000000000001</ele><time>2026-05-02T14:08:28.107Z</time></trkpt><trkpt lat="42.0955143" lon="13.4191648"><ele>909.8000000000001</ele><time>2026-05-02T14:08:29.116Z</time></trkpt><trkpt lat="42.0955195" lon="13.4190266"><ele>909.0</ele><time>2026-05-02T14:08:30.118Z</time></trkpt><trkpt lat="42.095518" lon="13.4188926"><ele>908.1666666666666</ele><time>2026-05-02T14:08:31.114Z</time></trkpt><trkpt lat="42.0955168" lon="13.418763"><ele>907.3333333333333</ele><time>2026-05-02T14:08:32.114Z</time></trkpt><trkpt lat="42.0955206" lon="13.4186456"><ele>906.5</ele><time>2026-05-02T14:08:33.109Z</time></trkpt><trkpt lat="42.0955245" lon="13.4185396"><ele>905.6666666666666</ele><time>2026-05-02T14:08:34.112Z</time></trkpt><trkpt lat="42.0955211" lon="13.4184451"><ele>904.8333333333333</ele><time>2026-05-02T14:08:35.108Z</time></trkpt><trkpt lat="42.0955201" lon="13.4183524"><ele>904.0</ele><time>2026-05-02T14:08:36.109Z</time></trkpt><trkpt lat="42.0955215" lon="13.4182448"><ele>903.9999999999999</ele><time>2026-05-02T14:08:37.107Z</time></trkpt><trkpt lat="42.0955213" lon="13.4181209"><ele>904.0</ele><time>2026-05-02T14:08:38.105Z</time></trkpt><trkpt lat="42.0955163" lon="13.4180014"><ele>904.0</ele><time>2026-05-02T14:08:39.115Z</time></trkpt><trkpt lat="42.0955158" lon="13.4178907"><ele>904.0</ele><time>2026-05-02T14:08:40.11Z</time></trkpt><trkpt lat="42.0955144" lon="13.4177856"><ele>903.9999999999999</ele><time>2026-05-02T14:08:41.105Z</time></trkpt><trkpt lat="42.0954981" lon="13.4176818"><ele>904.0</ele><time>2026-05-02T14:08:42.113Z</time></trkpt><trkpt lat="42.0954749" lon="13.4175782"><ele>903.1666666666666</ele><time>2026-05-02T14:08:43.112Z</time></trkpt><trkpt lat="42.0954426" lon="13.4174784"><ele>902.3333333333333</ele><time>2026-05-02T14:08:44.119Z</time></trkpt><trkpt lat="42.0954149" lon="13.4173713"><ele>901.5</ele><time>2026-05-02T14:08:45.115Z</time></trkpt><trkpt lat="42.0953869" lon="13.417258"><ele>900.6666666666667</ele><time>2026-05-02T14:08:46.121Z</time></trkpt><trkpt lat="42.095362" lon="13.4171382"><ele>899.8333333333334</ele><time>2026-05-02T14:08:47.12Z</time></trkpt><trkpt lat="42.0953396" lon="13.4170138"><ele>899.0</ele><time>2026-05-02T14:08:48.117Z</time></trkpt><trkpt lat="42.095316" lon="13.4168963"><ele>898.0000000000001</ele><time>2026-05-02T14:08:49.114Z</time></trkpt><trkpt lat="42.0952931" lon="13.4167863"><ele>897.0</ele><time>2026-05-02T14:08:50.114Z</time></trkpt><trkpt lat="42.0952783" lon="13.4166951"><ele>896.0</ele><time>2026-05-02T14:08:51.119Z</time></trkpt><trkpt lat="42.0952466" lon="13.4165613"><ele>895.0</ele><time>2026-05-02T14:08:53.121Z</time></trkpt><trkpt lat="42.0952291" lon="13.4164786"><ele>894.0000000000001</ele><time>2026-05-02T14:08:56.12Z</time></trkpt><trkpt lat="42.0952919" lon="13.416468"><ele>893.0</ele><time>2026-05-02T14:09:14.124Z</time></trkpt><trkpt lat="42.0953865" lon="13.4164504"><ele>893.0</ele><time>2026-05-02T14:10:07.125Z</time></trkpt><trkpt lat="42.0954624" lon="13.4163711"><ele>893.0</ele><time>2026-05-02T14:10:09.125Z</time></trkpt><trkpt lat="42.095535" lon="13.4162626"><ele>893.0</ele><time>2026-05-02T14:10:11.124Z</time></trkpt><trkpt lat="42.0955896" lon="13.4161562"><ele>893.0</ele><time>2026-05-02T14:10:13.116Z</time></trkpt><trkpt lat="42.0956483" lon="13.416051"><ele>893.0</ele><time>2026-05-02T14:10:15.121Z</time></trkpt><trkpt lat="42.0956734" lon="13.4159095"><ele>893.4</ele><time>2026-05-02T14:10:17.122Z</time></trkpt><trkpt lat="42.0956836" lon="13.4157747"><ele>893.8</ele><time>2026-05-02T14:10:19.125Z</time></trkpt><trkpt lat="42.0956961" lon="13.4156441"><ele>894.2</ele><time>2026-05-02T14:10:21.121Z</time></trkpt><trkpt lat="42.0957138" lon="13.4155175"><ele>894.6</ele><time>2026-05-02T14:10:23.126Z</time></trkpt><trkpt lat="42.0957669" lon="13.415408"><ele>895.0</ele><time>2026-05-02T14:10:25.126Z</time></trkpt><trkpt lat="42.0958461" lon="13.4153016"><ele>895.0</ele><time>2026-05-02T14:10:27.125Z</time></trkpt><trkpt lat="42.0958919" lon="13.4152412"><ele>895.0</ele><time>2026-05-02T14:10:28.136Z</time></trkpt><trkpt lat="42.095944" lon="13.4151721"><ele>895.0</ele><time>2026-05-02T14:10:29.126Z</time></trkpt><trkpt lat="42.0959964" lon="13.4151073"><ele>895.0</ele><time>2026-05-02T14:10:30.131Z</time></trkpt><trkpt lat="42.0960486" lon="13.415045"><ele>895.0</ele><time>2026-05-02T14:10:31.128Z</time></trkpt><trkpt lat="42.0961049" lon="13.4149818"><ele>895.0</ele><time>2026-05-02T14:10:32.134Z</time></trkpt><trkpt lat="42.0961572" lon="13.4149319"><ele>895.0</ele><time>2026-05-02T14:10:33.132Z</time></trkpt><trkpt lat="42.0962527" lon="13.4148583"><ele>895.0</ele><time>2026-05-02T14:10:35.132Z</time></trkpt><trkpt lat="42.096345" lon="13.4147829"><ele>895.0</ele><time>2026-05-02T14:10:37.131Z</time></trkpt><trkpt lat="42.0964174" lon="13.4147279"><ele>895.0</ele><time>2026-05-02T14:10:39.126Z</time></trkpt><trkpt lat="42.0964776" lon="13.4146887"><ele>895.0</ele><time>2026-05-02T14:11:18.128Z</time></trkpt><trkpt lat="42.0965778" lon="13.4146283"><ele>895.0</ele><time>2026-05-02T14:11:20.133Z</time></trkpt><trkpt lat="42.0966548" lon="13.414577"><ele>895.6666666666666</ele><time>2026-05-02T14:11:21.139Z</time></trkpt><trkpt lat="42.0967308" lon="13.4145262"><ele>896.3333333333333</ele><time>2026-05-02T14:11:22.138Z</time></trkpt><trkpt lat="42.0968083" lon="13.4144851"><ele>897.0</ele><time>2026-05-02T14:11:23.139Z</time></trkpt><trkpt lat="42.0968869" lon="13.4144461"><ele>897.6666666666667</ele><time>2026-05-02T14:11:24.135Z</time></trkpt><trkpt lat="42.0969746" lon="13.4144053"><ele>898.3333333333334</ele><time>2026-05-02T14:11:25.135Z</time></trkpt><trkpt lat="42.0970653" lon="13.414366"><ele>899.0</ele><time>2026-05-02T14:11:26.137Z</time></trkpt><trkpt lat="42.0971527" lon="13.4143285"><ele>899.0</ele><time>2026-05-02T14:11:27.136Z</time></trkpt><trkpt lat="42.0972344" lon="13.4142741"><ele>899.0000000000001</ele><time>2026-05-02T14:11:28.141Z</time></trkpt><trkpt lat="42.0973109" lon="13.4142007"><ele>899.0000000000001</ele><time>2026-05-02T14:11:29.132Z</time></trkpt><trkpt lat="42.0973825" lon="13.4141014"><ele>899.0</ele><time>2026-05-02T14:11:30.141Z</time></trkpt><trkpt lat="42.0974495" lon="13.4140075"><ele>899.0</ele><time>2026-05-02T14:11:31.133Z</time></trkpt><trkpt lat="42.097519" lon="13.4139298"><ele>898.6666666666667</ele><time>2026-05-02T14:11:32.133Z</time></trkpt><trkpt lat="42.0976024" lon="13.4138678"><ele>898.3333333333334</ele><time>2026-05-02T14:11:33.129Z</time></trkpt><trkpt lat="42.0976873" lon="13.4138241"><ele>898.0</ele><time>2026-05-02T14:11:34.135Z</time></trkpt><trkpt lat="42.0977715" lon="13.4137956"><ele>897.6666666666667</ele><time>2026-05-02T14:11:35.138Z</time></trkpt><trkpt lat="42.0978575" lon="13.4137737"><ele>897.3333333333334</ele><time>2026-05-02T14:11:36.137Z</time></trkpt><trkpt lat="42.0979443" lon="13.4137597"><ele>897.0</ele><time>2026-05-02T14:11:37.136Z</time></trkpt><trkpt lat="42.0980313" lon="13.4137462"><ele>897.0</ele><time>2026-05-02T14:11:38.136Z</time></trkpt><trkpt lat="42.098107" lon="13.4137354"><ele>897.0</ele><time>2026-05-02T14:11:39.136Z</time></trkpt><trkpt lat="42.0981816" lon="13.4137375"><ele>897.0</ele><time>2026-05-02T14:11:40.141Z</time></trkpt><trkpt lat="42.0982524" lon="13.4137471"><ele>897.0</ele><time>2026-05-02T14:11:41.134Z</time></trkpt><trkpt lat="42.098323" lon="13.4137778"><ele>897.0</ele><time>2026-05-02T14:11:42.135Z</time></trkpt><trkpt lat="42.098407" lon="13.4138234"><ele>897.0</ele><time>2026-05-02T14:11:43.135Z</time></trkpt><trkpt lat="42.0984985" lon="13.4138857"><ele>898.0</ele><time>2026-05-02T14:11:44.138Z</time></trkpt><trkpt lat="42.0985903" lon="13.4139522"><ele>899.0</ele><time>2026-05-02T14:11:45.136Z</time></trkpt><trkpt lat="42.0986794" lon="13.4140096"><ele>900.0</ele><time>2026-05-02T14:11:46.138Z</time></trkpt><trkpt lat="42.0987595" lon="13.4140661"><ele>901.0</ele><time>2026-05-02T14:11:47.137Z</time></trkpt><trkpt lat="42.0988248" lon="13.4141158"><ele>902.0</ele><time>2026-05-02T14:11:48.137Z</time></trkpt><trkpt lat="42.0989193" lon="13.4141958"><ele>902.0</ele><time>2026-05-02T14:11:50.135Z</time></trkpt><trkpt lat="42.0989753" lon="13.4142521"><ele>902.0</ele><time>2026-05-02T14:11:52.131Z</time></trkpt><trkpt lat="42.0990679" lon="13.4143297"><ele>902.0</ele><time>2026-05-02T14:11:57.127Z</time></trkpt><trkpt lat="42.0991228" lon="13.4144345"><ele>902.0</ele><time>2026-05-02T14:11:59.133Z</time></trkpt><trkpt lat="42.0991794" lon="13.4145772"><ele>902.0</ele><time>2026-05-02T14:12:01.125Z</time></trkpt><trkpt lat="42.0992191" lon="13.4146806"><ele>902.0</ele><time>2026-05-02T14:12:03.126Z</time></trkpt><trkpt lat="42.0992272" lon="13.4147978"><ele>902.0</ele><time>2026-05-02T14:12:06.123Z</time></trkpt><trkpt lat="42.099297" lon="13.4147564"><ele>902.0</ele><time>2026-05-02T14:12:10.122Z</time></trkpt><trkpt lat="42.0992756" lon="13.4146453"><ele>902.0</ele><time>2026-05-02T14:12:12.125Z</time></trkpt><trkpt lat="42.0991968" lon="13.4145191"><ele>902.0</ele><time>2026-05-02T14:12:14.128Z</time></trkpt><trkpt lat="42.0991447" lon="13.4144375"><ele>902.0</ele><time>2026-05-02T14:12:15.127Z</time></trkpt><trkpt lat="42.0990893" lon="13.4143497"><ele>902.0</ele><time>2026-05-02T14:12:16.129Z</time></trkpt><trkpt lat="42.0990295" lon="13.4142616"><ele>902.0</ele><time>2026-05-02T14:12:17.127Z</time></trkpt><trkpt lat="42.0989602" lon="13.414186"><ele>902.0</ele><time>2026-05-02T14:12:18.125Z</time></trkpt><trkpt lat="42.0988848" lon="13.4141132"><ele>902.0</ele><time>2026-05-02T14:12:19.124Z</time></trkpt><trkpt lat="42.0988011" lon="13.4140474"><ele>902.0</ele><time>2026-05-02T14:12:20.123Z</time></trkpt><trkpt lat="42.0987136" lon="13.4139817"><ele>902.0</ele><time>2026-05-02T14:12:21.123Z</time></trkpt><trkpt lat="42.0986229" lon="13.4139238"><ele>902.0</ele><time>2026-05-02T14:12:22.125Z</time></trkpt><trkpt lat="42.0985375" lon="13.4138641"><ele>902.0</ele><time>2026-05-02T14:12:23.126Z</time></trkpt><trkpt lat="42.0984565" lon="13.4138135"><ele>902.0</ele><time>2026-05-02T14:12:24.135Z</time></trkpt><trkpt lat="42.0983781" lon="13.4137656"><ele>901.3333333333334</ele><time>2026-05-02T14:12:25.132Z</time></trkpt><trkpt lat="42.098306" lon="13.4137256"><ele>900.6666666666667</ele><time>2026-05-02T14:12:26.13Z</time></trkpt><trkpt lat="42.0982433" lon="13.4136888"><ele>900.0</ele><time>2026-05-02T14:12:27.129Z</time></trkpt><trkpt lat="42.0981602" lon="13.4136472"><ele>899.3333333333333</ele><time>2026-05-02T14:12:29.127Z</time></trkpt><trkpt lat="42.0981705" lon="13.4135586"><ele>898.6666666666666</ele><time>2026-05-02T14:12:32.126Z</time></trkpt><trkpt lat="42.0982541" lon="13.4135044"><ele>898.0</ele><time>2026-05-02T14:12:34.13Z</time></trkpt><trkpt lat="42.0983246" lon="13.4134643"><ele>898.0</ele><time>2026-05-02T14:12:35.129Z</time></trkpt><trkpt lat="42.0984103" lon="13.4134056"><ele>898.0</ele><time>2026-05-02T14:12:36.131Z</time></trkpt><trkpt lat="42.0985014" lon="13.4133389"><ele>898.0</ele><time>2026-05-02T14:12:37.129Z</time></trkpt><trkpt lat="42.0985921" lon="13.4132599"><ele>898.0</ele><time>2026-05-02T14:12:38.131Z</time></trkpt><trkpt lat="42.0986774" lon="13.4131795"><ele>898.0</ele><time>2026-05-02T14:12:39.129Z</time></trkpt><trkpt lat="42.0987521" lon="13.4130984"><ele>897.9999999999999</ele><time>2026-05-02T14:12:40.128Z</time></trkpt><trkpt lat="42.0988191" lon="13.4130184"><ele>898.0</ele><time>2026-05-02T14:12:41.13Z</time></trkpt><trkpt lat="42.0988801" lon="13.412939"><ele>898.0</ele><time>2026-05-02T14:12:42.129Z</time></trkpt><trkpt lat="42.0989349" lon="13.4128602"><ele>898.0</ele><time>2026-05-02T14:12:43.13Z</time></trkpt><trkpt lat="42.0989856" lon="13.4127895"><ele>897.9999999999999</ele><time>2026-05-02T14:12:44.135Z</time></trkpt><trkpt lat="42.0990361" lon="13.4127205"><ele>898.0</ele><time>2026-05-02T14:12:45.128Z</time></trkpt><trkpt lat="42.0990879" lon="13.4126494"><ele>897.3333333333333</ele><time>2026-05-02T14:12:46.132Z</time></trkpt><trkpt lat="42.0991365" lon="13.4125667"><ele>896.6666666666666</ele><time>2026-05-02T14:12:47.13Z</time></trkpt><trkpt lat="42.099188" lon="13.4124843"><ele>896.0</ele><time>2026-05-02T14:12:48.136Z</time></trkpt><trkpt lat="42.0992362" lon="13.4123929"><ele>895.3333333333333</ele><time>2026-05-02T14:12:49.133Z</time></trkpt><trkpt lat="42.0992861" lon="13.4122883"><ele>894.6666666666666</ele><time>2026-05-02T14:12:50.136Z</time></trkpt><trkpt lat="42.0993303" lon="13.4121759"><ele>894.0</ele><time>2026-05-02T14:12:51.128Z</time></trkpt><trkpt lat="42.0993674" lon="13.4120597"><ele>893.0</ele><time>2026-05-02T14:12:52.135Z</time></trkpt><trkpt lat="42.0994058" lon="13.4119461"><ele>892.0000000000001</ele><time>2026-05-02T14:12:53.133Z</time></trkpt><trkpt lat="42.0994586" lon="13.4118433"><ele>891.0000000000001</ele><time>2026-05-02T14:12:54.131Z</time></trkpt><trkpt lat="42.099522" lon="13.4117526"><ele>890.0</ele><time>2026-05-02T14:12:55.135Z</time></trkpt><trkpt lat="42.0995809" lon="13.4116603"><ele>889.0</ele><time>2026-05-02T14:12:56.13Z</time></trkpt><trkpt lat="42.0996407" lon="13.4115707"><ele>888.9999999999999</ele><time>2026-05-02T14:12:57.126Z</time></trkpt><trkpt lat="42.0996999" lon="13.4114924"><ele>889.0</ele><time>2026-05-02T14:12:58.125Z</time></trkpt><trkpt lat="42.099751" lon="13.4114314"><ele>889.0</ele><time>2026-05-02T14:12:59.128Z</time></trkpt><trkpt lat="42.099843" lon="13.411398"><ele>889.0</ele><time>2026-05-02T14:13:01.142Z</time></trkpt><trkpt lat="42.0999064" lon="13.4113812"><ele>888.9999999999999</ele><time>2026-05-02T14:13:02.131Z</time></trkpt><trkpt lat="42.1000147" lon="13.4113028"><ele>889.0</ele><time>2026-05-02T14:13:04.125Z</time></trkpt><trkpt lat="42.1000631" lon="13.4112314"><ele>888.2</ele><time>2026-05-02T14:13:05.125Z</time></trkpt><trkpt lat="42.1001183" lon="13.4111369"><ele>887.4000000000001</ele><time>2026-05-02T14:13:06.125Z</time></trkpt><trkpt lat="42.100186" lon="13.4110299"><ele>886.6</ele><time>2026-05-02T14:13:07.129Z</time></trkpt><trkpt lat="42.1002552" lon="13.4109146"><ele>885.8</ele><time>2026-05-02T14:13:08.129Z</time></trkpt><trkpt lat="42.1003242" lon="13.4108021"><ele>885.0</ele><time>2026-05-02T14:13:09.129Z</time></trkpt><trkpt lat="42.1003931" lon="13.4106873"><ele>885.0</ele><time>2026-05-02T14:13:10.132Z</time></trkpt><trkpt lat="42.1004612" lon="13.4105671"><ele>885.0</ele><time>2026-05-02T14:13:11.131Z</time></trkpt><trkpt lat="42.1005269" lon="13.4104541"><ele>885.0</ele><time>2026-05-02T14:13:12.132Z</time></trkpt><trkpt lat="42.1005903" lon="13.4103384"><ele>885.0</ele><time>2026-05-02T14:13:13.126Z</time></trkpt><trkpt lat="42.1006557" lon="13.4102227"><ele>885.0</ele><time>2026-05-02T14:13:14.129Z</time></trkpt><trkpt lat="42.1007102" lon="13.4100987"><ele>884.0</ele><time>2026-05-02T14:13:15.13Z</time></trkpt><trkpt lat="42.1007572" lon="13.409966"><ele>883.0</ele><time>2026-05-02T14:13:16.125Z</time></trkpt><trkpt lat="42.1008005" lon="13.4098314"><ele>882.0</ele><time>2026-05-02T14:13:17.127Z</time></trkpt><trkpt lat="42.1008421" lon="13.4096957"><ele>881.0</ele><time>2026-05-02T14:13:18.133Z</time></trkpt><trkpt lat="42.1008873" lon="13.4095609"><ele>880.0</ele><time>2026-05-02T14:13:19.127Z</time></trkpt><trkpt lat="42.1009298" lon="13.4094256"><ele>879.0</ele><time>2026-05-02T14:13:20.128Z</time></trkpt><trkpt lat="42.1009715" lon="13.4093012"><ele>878.0</ele><time>2026-05-02T14:13:21.125Z</time></trkpt><trkpt lat="42.1010208" lon="13.4091811"><ele>877.0</ele><time>2026-05-02T14:13:22.128Z</time></trkpt><trkpt lat="42.1010686" lon="13.4090547"><ele>876.0</ele><time>2026-05-02T14:13:23.129Z</time></trkpt><trkpt lat="42.1011167" lon="13.4089307"><ele>875.0</ele><time>2026-05-02T14:13:24.128Z</time></trkpt><trkpt lat="42.1011678" lon="13.408806"><ele>874.0</ele><time>2026-05-02T14:13:25.127Z</time></trkpt><trkpt lat="42.1012205" lon="13.4086848"><ele>873.0</ele><time>2026-05-02T14:13:26.131Z</time></trkpt><trkpt lat="42.1012692" lon="13.4085605"><ele>872.0</ele><time>2026-05-02T14:13:27.126Z</time></trkpt><trkpt lat="42.101314" lon="13.4084322"><ele>871.0</ele><time>2026-05-02T14:13:28.132Z</time></trkpt><trkpt lat="42.1013509" lon="13.408306"><ele>870.0</ele><time>2026-05-02T14:13:29.128Z</time></trkpt><trkpt lat="42.1013882" lon="13.4081827"><ele>870.0</ele><time>2026-05-02T14:13:30.133Z</time></trkpt><trkpt lat="42.1014213" lon="13.4080638"><ele>870.0</ele><time>2026-05-02T14:13:31.133Z</time></trkpt><trkpt lat="42.1014442" lon="13.4079524"><ele>870.0</ele><time>2026-05-02T14:13:32.127Z</time></trkpt><trkpt lat="42.1014613" lon="13.4078367"><ele>870.0</ele><time>2026-05-02T14:13:33.13Z</time></trkpt><trkpt lat="42.1014797" lon="13.4077189"><ele>870.0</ele><time>2026-05-02T14:13:34.124Z</time></trkpt><trkpt lat="42.1015124" lon="13.4076021"><ele>870.0</ele><time>2026-05-02T14:13:35.129Z</time></trkpt><trkpt lat="42.1015564" lon="13.4074973"><ele>869.3333333333334</ele><time>2026-05-02T14:13:36.131Z</time></trkpt><trkpt lat="42.1015998" lon="13.4073926"><ele>868.6666666666667</ele><time>2026-05-02T14:13:37.131Z</time></trkpt><trkpt lat="42.1016418" lon="13.4072899"><ele>868.0</ele><time>2026-05-02T14:13:38.128Z</time></trkpt><trkpt lat="42.1016867" lon="13.407192"><ele>867.3333333333334</ele><time>2026-05-02T14:13:39.129Z</time></trkpt><trkpt lat="42.1017314" lon="13.4070995"><ele>866.6666666666667</ele><time>2026-05-02T14:13:40.128Z</time></trkpt><trkpt lat="42.101774" lon="13.4070046"><ele>866.0</ele><time>2026-05-02T14:13:41.128Z</time></trkpt><trkpt lat="42.1018123" lon="13.4069133"><ele>865.1428571428571</ele><time>2026-05-02T14:13:42.125Z</time></trkpt><trkpt lat="42.1018521" lon="13.4068249"><ele>864.2857142857142</ele><time>2026-05-02T14:13:43.128Z</time></trkpt><trkpt lat="42.1018895" lon="13.4067447"><ele>863.4285714285713</ele><time>2026-05-02T14:13:44.131Z</time></trkpt><trkpt lat="42.1019295" lon="13.4066672"><ele>862.5714285714286</ele><time>2026-05-02T14:13:45.128Z</time></trkpt><trkpt lat="42.1019741" lon="13.4066066"><ele>861.7142857142858</ele><time>2026-05-02T14:13:46.131Z</time></trkpt><trkpt lat="42.102035" lon="13.4065492"><ele>860.8571428571428</ele><time>2026-05-02T14:13:47.128Z</time></trkpt><trkpt lat="42.1020988" lon="13.4064814"><ele>860.0</ele><time>2026-05-02T14:13:48.133Z</time></trkpt><trkpt lat="42.102172" lon="13.4064207"><ele>860.0</ele><time>2026-05-02T14:13:49.131Z</time></trkpt><trkpt lat="42.1022487" lon="13.4063511"><ele>860.0</ele><time>2026-05-02T14:13:50.126Z</time></trkpt><trkpt lat="42.1023314" lon="13.4062781"><ele>860.0</ele><time>2026-05-02T14:13:51.128Z</time></trkpt><trkpt lat="42.1024025" lon="13.4061991"><ele>860.0</ele><time>2026-05-02T14:13:52.125Z</time></trkpt><trkpt lat="42.1024573" lon="13.4061049"><ele>860.0</ele><time>2026-05-02T14:13:53.127Z</time></trkpt><trkpt lat="42.1025068" lon="13.4060182"><ele>859.0000000000001</ele><time>2026-05-02T14:13:54.129Z</time></trkpt><trkpt lat="42.102558" lon="13.4059389"><ele>858.0</ele><time>2026-05-02T14:13:55.133Z</time></trkpt><trkpt lat="42.1026058" lon="13.405857"><ele>857.0</ele><time>2026-05-02T14:13:56.132Z</time></trkpt><trkpt lat="42.1026383" lon="13.4057718"><ele>856.0</ele><time>2026-05-02T14:13:57.133Z</time></trkpt><trkpt lat="42.1026637" lon="13.4056816"><ele>855.0000000000001</ele><time>2026-05-02T14:13:58.133Z</time></trkpt><trkpt lat="42.1026901" lon="13.4055765"><ele>854.0</ele><time>2026-05-02T14:13:59.126Z</time></trkpt><trkpt lat="42.1027111" lon="13.4054563"><ele>853.4000000000001</ele><time>2026-05-02T14:14:00.129Z</time></trkpt><trkpt lat="42.1027406" lon="13.4053351"><ele>852.8000000000001</ele><time>2026-05-02T14:14:01.131Z</time></trkpt><trkpt lat="42.1027777" lon="13.4052005"><ele>852.2</ele><time>2026-05-02T14:14:02.134Z</time></trkpt><trkpt lat="42.1028223" lon="13.4050681"><ele>851.5999999999999</ele><time>2026-05-02T14:14:03.134Z</time></trkpt><trkpt lat="42.1028671" lon="13.4049363"><ele>851.0</ele><time>2026-05-02T14:14:04.132Z</time></trkpt><trkpt lat="42.1029093" lon="13.4048184"><ele>851.0000000000001</ele><time>2026-05-02T14:14:05.132Z</time></trkpt><trkpt lat="42.1029532" lon="13.404703"><ele>851.0</ele><time>2026-05-02T14:14:06.131Z</time></trkpt><trkpt lat="42.102989" lon="13.4045912"><ele>851.0</ele><time>2026-05-02T14:14:07.128Z</time></trkpt><trkpt lat="42.1030187" lon="13.4044801"><ele>851.0</ele><time>2026-05-02T14:14:08.126Z</time></trkpt><trkpt lat="42.1030436" lon="13.4043757"><ele>851.0000000000001</ele><time>2026-05-02T14:14:09.127Z</time></trkpt><trkpt lat="42.1030733" lon="13.4042768"><ele>851.0</ele><time>2026-05-02T14:14:10.128Z</time></trkpt><trkpt lat="42.1031048" lon="13.404182"><ele>850.5000000000001</ele><time>2026-05-02T14:14:11.128Z</time></trkpt><trkpt lat="42.1031393" lon="13.4040926"><ele>850.0</ele><time>2026-05-02T14:14:12.126Z</time></trkpt><trkpt lat="42.1031738" lon="13.404007"><ele>849.5</ele><time>2026-05-02T14:14:13.125Z</time></trkpt><trkpt lat="42.1032118" lon="13.4039253"><ele>849.0</ele><time>2026-05-02T14:14:14.126Z</time></trkpt><trkpt lat="42.1032488" lon="13.4038327"><ele>848.5000000000001</ele><time>2026-05-02T14:14:15.126Z</time></trkpt><trkpt lat="42.1032951" lon="13.4037377"><ele>848.0</ele><time>2026-05-02T14:14:16.129Z</time></trkpt><trkpt lat="42.1033459" lon="13.4036357"><ele>847.2</ele><time>2026-05-02T14:14:17.129Z</time></trkpt><trkpt lat="42.1034046" lon="13.4035209"><ele>846.4</ele><time>2026-05-02T14:14:18.128Z</time></trkpt><trkpt lat="42.1034696" lon="13.4034015"><ele>845.6</ele><time>2026-05-02T14:14:19.127Z</time></trkpt><trkpt lat="42.1035346" lon="13.4032796"><ele>844.8000000000001</ele><time>2026-05-02T14:14:20.127Z</time></trkpt><trkpt lat="42.103593" lon="13.4031517"><ele>844.0</ele><time>2026-05-02T14:14:21.127Z</time></trkpt><trkpt lat="42.1036451" lon="13.4030255"><ele>843.2</ele><time>2026-05-02T14:14:22.128Z</time></trkpt><trkpt lat="42.1036958" lon="13.4029149"><ele>842.4000000000001</ele><time>2026-05-02T14:14:23.128Z</time></trkpt><trkpt lat="42.103747" lon="13.4028099"><ele>841.6</ele><time>2026-05-02T14:14:24.128Z</time></trkpt><trkpt lat="42.1038019" lon="13.4027148"><ele>840.8</ele><time>2026-05-02T14:14:25.128Z</time></trkpt><trkpt lat="42.1038517" lon="13.4026165"><ele>840.0</ele><time>2026-05-02T14:14:26.124Z</time></trkpt><trkpt lat="42.1039077" lon="13.402516"><ele>840.0</ele><time>2026-05-02T14:14:27.13Z</time></trkpt><trkpt lat="42.1039726" lon="13.4024211"><ele>840.0</ele><time>2026-05-02T14:14:28.129Z</time></trkpt><trkpt lat="42.1040407" lon="13.4023284"><ele>840.0</ele><time>2026-05-02T14:14:29.131Z</time></trkpt><trkpt lat="42.1041174" lon="13.4022337"><ele>840.0</ele><time>2026-05-02T14:14:30.125Z</time></trkpt><trkpt lat="42.1041975" lon="13.4021448"><ele>840.0</ele><time>2026-05-02T14:14:31.121Z</time></trkpt><trkpt lat="42.1042767" lon="13.4020404"><ele>839.75</ele><time>2026-05-02T14:14:32.126Z</time></trkpt><trkpt lat="42.1043553" lon="13.4019205"><ele>839.5</ele><time>2026-05-02T14:14:33.126Z</time></trkpt><trkpt lat="42.1044237" lon="13.4017981"><ele>839.25</ele><time>2026-05-02T14:14:34.124Z</time></trkpt><trkpt lat="42.104488" lon="13.4016685"><ele>839.0</ele><time>2026-05-02T14:14:35.124Z</time></trkpt><trkpt lat="42.1045565" lon="13.4015406"><ele>839.0</ele><time>2026-05-02T14:14:36.13Z</time></trkpt><trkpt lat="42.1046282" lon="13.4014193"><ele>839.0</ele><time>2026-05-02T14:14:37.119Z</time></trkpt><trkpt lat="42.1047012" lon="13.4012891"><ele>839.0</ele><time>2026-05-02T14:14:38.121Z</time></trkpt><trkpt lat="42.1047736" lon="13.4011687"><ele>839.0</ele><time>2026-05-02T14:14:39.126Z</time></trkpt><trkpt lat="42.1048413" lon="13.401046"><ele>838.8000000000001</ele><time>2026-05-02T14:14:40.125Z</time></trkpt><trkpt lat="42.1049108" lon="13.4009226"><ele>838.6</ele><time>2026-05-02T14:14:41.127Z</time></trkpt><trkpt lat="42.1049806" lon="13.4008018"><ele>838.4</ele><time>2026-05-02T14:14:42.12Z</time></trkpt><trkpt lat="42.1050496" lon="13.4006787"><ele>838.2</ele><time>2026-05-02T14:14:43.124Z</time></trkpt><trkpt lat="42.1051039" lon="13.4005665"><ele>838.0</ele><time>2026-05-02T14:14:44.114Z</time></trkpt><trkpt lat="42.1051512" lon="13.4004573"><ele>837.2</ele><time>2026-05-02T14:14:45.119Z</time></trkpt><trkpt lat="42.1052024" lon="13.4003606"><ele>836.4</ele><time>2026-05-02T14:14:46.124Z</time></trkpt><trkpt lat="42.1052602" lon="13.4002574"><ele>835.6</ele><time>2026-05-02T14:14:47.124Z</time></trkpt><trkpt lat="42.1053234" lon="13.400142"><ele>834.8000000000001</ele><time>2026-05-02T14:14:48.126Z</time></trkpt><trkpt lat="42.1053922" lon="13.4000202"><ele>834.0</ele><time>2026-05-02T14:14:49.125Z</time></trkpt><trkpt lat="42.1054616" lon="13.3998933"><ele>834.0</ele><time>2026-05-02T14:14:50.121Z</time></trkpt><trkpt lat="42.1055226" lon="13.3997713"><ele>834.0</ele><time>2026-05-02T14:14:51.119Z</time></trkpt><trkpt lat="42.1055728" lon="13.399656"><ele>834.0</ele><time>2026-05-02T14:14:52.118Z</time></trkpt><trkpt lat="42.1056157" lon="13.399542"><ele>834.0</ele><time>2026-05-02T14:14:53.121Z</time></trkpt><trkpt lat="42.1056502" lon="13.3994419"><ele>834.0</ele><time>2026-05-02T14:14:54.118Z</time></trkpt><trkpt lat="42.1056817" lon="13.3993556"><ele>833.8333333333334</ele><time>2026-05-02T14:14:55.125Z</time></trkpt><trkpt lat="42.105705" lon="13.3992658"><ele>833.6666666666667</ele><time>2026-05-02T14:14:56.122Z</time></trkpt><trkpt lat="42.1057171" lon="13.399169"><ele>833.5</ele><time>2026-05-02T14:14:57.122Z</time></trkpt><trkpt lat="42.105722" lon="13.3990479"><ele>833.3333333333334</ele><time>2026-05-02T14:14:58.124Z</time></trkpt><trkpt lat="42.1057232" lon="13.3989363"><ele>833.1666666666667</ele><time>2026-05-02T14:14:59.125Z</time></trkpt><trkpt lat="42.105718" lon="13.3988511"><ele>833.0</ele><time>2026-05-02T14:15:00.12Z</time></trkpt><trkpt lat="42.1057188" lon="13.3987412"><ele>833.0000000000001</ele><time>2026-05-02T14:15:02.114Z</time></trkpt><trkpt lat="42.1057606" lon="13.3986342"><ele>833.0</ele><time>2026-05-02T14:15:04.117Z</time></trkpt><trkpt lat="42.1057975" lon="13.3985562"><ele>833.0</ele><time>2026-05-02T14:15:05.115Z</time></trkpt><trkpt lat="42.1058561" lon="13.3984801"><ele>833.0</ele><time>2026-05-02T14:15:06.113Z</time></trkpt><trkpt lat="42.1059332" lon="13.3984056"><ele>833.0000000000001</ele><time>2026-05-02T14:15:07.116Z</time></trkpt><trkpt lat="42.1060299" lon="13.3983337"><ele>833.0</ele><time>2026-05-02T14:15:08.115Z</time></trkpt><trkpt lat="42.1061398" lon="13.3982731"><ele>833.0</ele><time>2026-05-02T14:15:09.119Z</time></trkpt><trkpt lat="42.1062429" lon="13.3982038"><ele>833.0</ele><time>2026-05-02T14:15:10.12Z</time></trkpt><trkpt lat="42.1063454" lon="13.3981415"><ele>833.0</ele><time>2026-05-02T14:15:11.117Z</time></trkpt><trkpt lat="42.1064317" lon="13.3980841"><ele>833.0</ele><time>2026-05-02T14:15:12.121Z</time></trkpt><trkpt lat="42.1065174" lon="13.3980321"><ele>833.0</ele><time>2026-05-02T14:15:13.122Z</time></trkpt><trkpt lat="42.1065997" lon="13.3979763"><ele>833.8</ele><time>2026-05-02T14:15:14.119Z</time></trkpt><trkpt lat="42.1066763" lon="13.3979047"><ele>834.5999999999999</ele><time>2026-05-02T14:15:15.117Z</time></trkpt><trkpt lat="42.1067482" lon="13.3978175"><ele>835.4000000000001</ele><time>2026-05-02T14:15:16.117Z</time></trkpt><trkpt lat="42.1068251" lon="13.3977089"><ele>836.2</ele><time>2026-05-02T14:15:17.128Z</time></trkpt><trkpt lat="42.1069019" lon="13.3975828"><ele>837.0</ele><time>2026-05-02T14:15:18.121Z</time></trkpt><trkpt lat="42.1069776" lon="13.3974537"><ele>837.0</ele><time>2026-05-02T14:15:19.123Z</time></trkpt><trkpt lat="42.1070527" lon="13.3973173"><ele>837.0</ele><time>2026-05-02T14:15:20.119Z</time></trkpt><trkpt lat="42.1071217" lon="13.3971809"><ele>837.0</ele><time>2026-05-02T14:15:21.118Z</time></trkpt><trkpt lat="42.107183" lon="13.3970503"><ele>837.0</ele><time>2026-05-02T14:15:22.121Z</time></trkpt><trkpt lat="42.1072267" lon="13.3969585"><ele>837.0</ele><time>2026-05-02T14:15:23.122Z</time></trkpt><trkpt lat="42.1072919" lon="13.3968426"><ele>837.4000000000001</ele><time>2026-05-02T14:15:25.114Z</time></trkpt><trkpt lat="42.1072792" lon="13.3967253"><ele>837.8000000000001</ele><time>2026-05-02T14:15:28.122Z</time></trkpt><trkpt lat="42.1072112" lon="13.3966063"><ele>838.2</ele><time>2026-05-02T14:15:30.127Z</time></trkpt><trkpt lat="42.1071532" lon="13.3965015"><ele>838.6</ele><time>2026-05-02T14:15:31.108Z</time></trkpt><trkpt lat="42.107087" lon="13.3963704"><ele>839.0</ele><time>2026-05-02T14:15:32.117Z</time></trkpt><trkpt lat="42.1070152" lon="13.3962122"><ele>840.3333333333334</ele><time>2026-05-02T14:15:33.115Z</time></trkpt><trkpt lat="42.1069408" lon="13.3960499"><ele>841.6666666666667</ele><time>2026-05-02T14:15:34.11Z</time></trkpt><trkpt lat="42.1068424" lon="13.3958755"><ele>843.0</ele><time>2026-05-02T14:15:35.116Z</time></trkpt><trkpt lat="42.106746" lon="13.3956657"><ele>842.6666666666667</ele><time>2026-05-02T14:15:36.111Z</time></trkpt><trkpt lat="42.1066759" lon="13.3954664"><ele>842.3333333333334</ele><time>2026-05-02T14:15:37.109Z</time></trkpt><trkpt lat="42.1065721" lon="13.3952623"><ele>842.0</ele><time>2026-05-02T14:15:38.108Z</time></trkpt><trkpt lat="42.1064966" lon="13.3951095"><ele>842.0</ele><time>2026-05-02T14:15:39.109Z</time></trkpt><trkpt lat="42.1064209" lon="13.3949475"><ele>842.0</ele><time>2026-05-02T14:15:40.108Z</time></trkpt><trkpt lat="42.1063418" lon="13.394818"><ele>842.0</ele><time>2026-05-02T14:15:41.109Z</time></trkpt><trkpt lat="42.1062877" lon="13.3946811"><ele>842.0</ele><time>2026-05-02T14:15:42.11Z</time></trkpt><trkpt lat="42.1062444" lon="13.3945626"><ele>842.2</ele><time>2026-05-02T14:15:43.113Z</time></trkpt><trkpt lat="42.1061945" lon="13.3944274"><ele>842.4000000000001</ele><time>2026-05-02T14:15:44.11Z</time></trkpt><trkpt lat="42.10612" lon="13.3943499"><ele>842.5999999999999</ele><time>2026-05-02T14:15:45.106Z</time></trkpt><trkpt lat="42.1060708" lon="13.3942252"><ele>842.8</ele><time>2026-05-02T14:15:47.109Z</time></trkpt><trkpt lat="42.1060022" lon="13.3941532"><ele>843.0</ele><time>2026-05-02T14:15:49.105Z</time></trkpt><trkpt lat="42.1059304" lon="13.3941119"><ele>843.0</ele><time>2026-05-02T14:15:50.108Z</time></trkpt><trkpt lat="42.1058371" lon="13.3940761"><ele>843.0</ele><time>2026-05-02T14:15:51.103Z</time></trkpt><trkpt lat="42.1057346" lon="13.3940438"><ele>843.0</ele><time>2026-05-02T14:15:52.108Z</time></trkpt><trkpt lat="42.105649" lon="13.3940055"><ele>843.0</ele><time>2026-05-02T14:15:53.107Z</time></trkpt><trkpt lat="42.1055825" lon="13.393971"><ele>843.0</ele><time>2026-05-02T14:15:54.115Z</time></trkpt><trkpt lat="42.1055098" lon="13.3939271"><ele>843.0</ele><time>2026-05-02T14:15:56.116Z</time></trkpt><trkpt lat="42.1054295" lon="13.3938849"><ele>842.8333333333334</ele><time>2026-05-02T14:15:58.118Z</time></trkpt><trkpt lat="42.1054052" lon="13.3938016"><ele>842.6666666666667</ele><time>2026-05-02T14:16:00.118Z</time></trkpt><trkpt lat="42.1054834" lon="13.3936926"><ele>842.5</ele><time>2026-05-02T14:16:02.122Z</time></trkpt><trkpt lat="42.1055531" lon="13.3936262"><ele>842.3333333333334</ele><time>2026-05-02T14:16:03.118Z</time></trkpt><trkpt lat="42.1056158" lon="13.3935481"><ele>842.1666666666667</ele><time>2026-05-02T14:16:04.113Z</time></trkpt><trkpt lat="42.1056812" lon="13.3934853"><ele>842.0</ele><time>2026-05-02T14:16:05.112Z</time></trkpt><trkpt lat="42.1057638" lon="13.3934019"><ele>842.0000000000001</ele><time>2026-05-02T14:16:07.106Z</time></trkpt><trkpt lat="42.1058161" lon="13.3933346"><ele>842.0</ele><time>2026-05-02T14:16:09.113Z</time></trkpt><trkpt lat="42.1057431" lon="13.3933757"><ele>842.0</ele><time>2026-05-02T14:16:20.121Z</time></trkpt><trkpt lat="42.1056916" lon="13.3934335"><ele>842.0</ele><time>2026-05-02T14:16:21.113Z</time></trkpt><trkpt lat="42.1056263" lon="13.3935174"><ele>842.0000000000001</ele><time>2026-05-02T14:16:22.113Z</time></trkpt><trkpt lat="42.1055645" lon="13.3936016"><ele>842.0</ele><time>2026-05-02T14:16:23.114Z</time></trkpt><trkpt lat="42.1055049" lon="13.3936807"><ele>840.6666666666667</ele><time>2026-05-02T14:16:24.111Z</time></trkpt><trkpt lat="42.1054557" lon="13.3937524"><ele>839.3333333333334</ele><time>2026-05-02T14:16:25.115Z</time></trkpt><trkpt lat="42.1053828" lon="13.3938617"><ele>838.0</ele><time>2026-05-02T14:16:27.114Z</time></trkpt><trkpt lat="42.1053517" lon="13.393936"><ele>836.6666666666667</ele><time>2026-05-02T14:16:29.116Z</time></trkpt><trkpt lat="42.1053243" lon="13.3940231"><ele>835.3333333333334</ele><time>2026-05-02T14:16:32.111Z</time></trkpt><trkpt lat="42.1052762" lon="13.3940826"><ele>834.0</ele><time>2026-05-02T14:16:34.11Z</time></trkpt><trkpt lat="42.1051959" lon="13.3941797"><ele>834.0</ele><time>2026-05-02T14:16:36.106Z</time></trkpt><trkpt lat="42.1051188" lon="13.3942711"><ele>834.0</ele><time>2026-05-02T14:16:38.102Z</time></trkpt><trkpt lat="42.1050394" lon="13.3943401"><ele>834.0</ele><time>2026-05-02T14:16:40.105Z</time></trkpt><trkpt lat="42.1049737" lon="13.3943106"><ele>834.0</ele><time>2026-05-02T14:16:42.102Z</time></trkpt><trkpt lat="42.1049486" lon="13.3941395"><ele>834.0</ele><time>2026-05-02T14:16:44.113Z</time></trkpt><trkpt lat="42.1049566" lon="13.3939828"><ele>833.0</ele><time>2026-05-02T14:16:45.103Z</time></trkpt><trkpt lat="42.1049853" lon="13.393818"><ele>832.0</ele><time>2026-05-02T14:16:46.103Z</time></trkpt><trkpt lat="42.1050182" lon="13.3936414"><ele>831.0</ele><time>2026-05-02T14:16:47.101Z</time></trkpt><trkpt lat="42.10506" lon="13.3934719"><ele>830.0</ele><time>2026-05-02T14:16:48.111Z</time></trkpt><trkpt lat="42.105115" lon="13.3932969"><ele>830.0</ele><time>2026-05-02T14:16:49.115Z</time></trkpt><trkpt lat="42.1051808" lon="13.3931394"><ele>830.0</ele><time>2026-05-02T14:16:50.114Z</time></trkpt><trkpt lat="42.1052383" lon="13.3929808"><ele>830.0</ele><time>2026-05-02T14:16:51.114Z</time></trkpt><trkpt lat="42.1052761" lon="13.392824"><ele>830.0</ele><time>2026-05-02T14:16:52.112Z</time></trkpt><trkpt lat="42.1052949" lon="13.3926688"><ele>829.0</ele><time>2026-05-02T14:16:53.114Z</time></trkpt><trkpt lat="42.1052809" lon="13.3925245"><ele>828.0</ele><time>2026-05-02T14:16:54.108Z</time></trkpt><trkpt lat="42.1052406" lon="13.3923758"><ele>827.0</ele><time>2026-05-02T14:16:55.108Z</time></trkpt><trkpt lat="42.1051756" lon="13.3922272"><ele>826.0</ele><time>2026-05-02T14:16:56.114Z</time></trkpt><trkpt lat="42.105097" lon="13.3920759"><ele>826.0</ele><time>2026-05-02T14:16:57.117Z</time></trkpt><trkpt lat="42.1050209" lon="13.3919153"><ele>826.0</ele><time>2026-05-02T14:16:58.118Z</time></trkpt><trkpt lat="42.1049124" lon="13.3917468"><ele>826.0</ele><time>2026-05-02T14:16:59.118Z</time></trkpt><trkpt lat="42.1048289" lon="13.3915615"><ele>826.5</ele><time>2026-05-02T14:17:00.12Z</time></trkpt><trkpt lat="42.1047858" lon="13.3914043"><ele>827.0</ele><time>2026-05-02T14:17:01.115Z</time></trkpt><trkpt lat="42.1047511" lon="13.3912077"><ele>827.5</ele><time>2026-05-02T14:17:02.124Z</time></trkpt><trkpt lat="42.1047053" lon="13.3910286"><ele>828.0</ele><time>2026-05-02T14:17:03.119Z</time></trkpt><trkpt lat="42.1046603" lon="13.3908534"><ele>828.0</ele><time>2026-05-02T14:17:04.123Z</time></trkpt><trkpt lat="42.1045999" lon="13.3906616"><ele>828.0</ele><time>2026-05-02T14:17:05.119Z</time></trkpt><trkpt lat="42.1045619" lon="13.3904923"><ele>828.0</ele><time>2026-05-02T14:17:06.118Z</time></trkpt><trkpt lat="42.1045209" lon="13.3903165"><ele>828.0</ele><time>2026-05-02T14:17:07.122Z</time></trkpt><trkpt lat="42.1044871" lon="13.3901475"><ele>828.5999999999999</ele><time>2026-05-02T14:17:08.124Z</time></trkpt><trkpt lat="42.1044399" lon="13.39001"><ele>829.1999999999999</ele><time>2026-05-02T14:17:09.12Z</time></trkpt><trkpt lat="42.1044286" lon="13.3898717"><ele>829.8</ele><time>2026-05-02T14:17:10.12Z</time></trkpt><trkpt lat="42.1044675" lon="13.3897348"><ele>830.4</ele><time>2026-05-02T14:17:12.122Z</time></trkpt><trkpt lat="42.1044328" lon="13.3896302"><ele>831.0</ele><time>2026-05-02T14:17:14.115Z</time></trkpt><trkpt lat="42.104346" lon="13.3895638"><ele>831.1666666666666</ele><time>2026-05-02T14:17:16.12Z</time></trkpt><trkpt lat="42.1042873" lon="13.3895264"><ele>831.3333333333333</ele><time>2026-05-02T14:17:17.119Z</time></trkpt><trkpt lat="42.1042115" lon="13.3895035"><ele>831.5</ele><time>2026-05-02T14:17:18.114Z</time></trkpt><trkpt lat="42.1041209" lon="13.3894889"><ele>831.6666666666666</ele><time>2026-05-02T14:17:19.121Z</time></trkpt><trkpt lat="42.1040261" lon="13.3894834"><ele>831.8333333333333</ele><time>2026-05-02T14:17:20.122Z</time></trkpt><trkpt lat="42.1039379" lon="13.3894696"><ele>832.0</ele><time>2026-05-02T14:17:21.121Z</time></trkpt><trkpt lat="42.1038559" lon="13.3894549"><ele>831.4000000000001</ele><time>2026-05-02T14:17:22.123Z</time></trkpt><trkpt lat="42.1037819" lon="13.3894455"><ele>830.8000000000001</ele><time>2026-05-02T14:17:23.121Z</time></trkpt><trkpt lat="42.1037152" lon="13.3894327"><ele>830.2</ele><time>2026-05-02T14:17:24.114Z</time></trkpt><trkpt lat="42.1036072" lon="13.3893306"><ele>829.6</ele><time>2026-05-02T14:17:26.125Z</time></trkpt><trkpt lat="42.1035645" lon="13.3892267"><ele>829.0</ele><time>2026-05-02T14:17:27.113Z</time></trkpt><trkpt lat="42.1035189" lon="13.3890891"><ele>829.0</ele><time>2026-05-02T14:17:28.119Z</time></trkpt><trkpt lat="42.1034723" lon="13.3889405"><ele>829.0</ele><time>2026-05-02T14:17:29.121Z</time></trkpt><trkpt lat="42.1034189" lon="13.3888062"><ele>829.0</ele><time>2026-05-02T14:17:30.121Z</time></trkpt><trkpt lat="42.1033688" lon="13.3886773"><ele>829.0</ele><time>2026-05-02T14:17:31.112Z</time></trkpt><trkpt lat="42.103324" lon="13.3885491"><ele>829.0</ele><time>2026-05-02T14:17:32.11Z</time></trkpt><trkpt lat="42.1032738" lon="13.3884276"><ele>828.2</ele><time>2026-05-02T14:17:33.119Z</time></trkpt><trkpt lat="42.1032216" lon="13.3883192"><ele>827.4000000000001</ele><time>2026-05-02T14:17:34.108Z</time></trkpt><trkpt lat="42.1031723" lon="13.3882234"><ele>826.6</ele><time>2026-05-02T14:17:35.115Z</time></trkpt><trkpt lat="42.1031464" lon="13.3880909"><ele>825.8</ele><time>2026-05-02T14:17:37.113Z</time></trkpt><trkpt lat="42.1032084" lon="13.3879661"><ele>825.0</ele><time>2026-05-02T14:17:39.127Z</time></trkpt><trkpt lat="42.1032436" lon="13.3878111"><ele>825.0</ele><time>2026-05-02T14:17:41.119Z</time></trkpt><trkpt lat="42.1032268" lon="13.3877221"><ele>825.0</ele><time>2026-05-02T14:17:42.113Z</time></trkpt><trkpt lat="42.1031923" lon="13.3876279"><ele>825.0</ele><time>2026-05-02T14:17:43.123Z</time></trkpt><trkpt lat="42.1031494" lon="13.3875399"><ele>825.0</ele><time>2026-05-02T14:17:44.122Z</time></trkpt><trkpt lat="42.1031007" lon="13.3874695"><ele>825.0</ele><time>2026-05-02T14:17:45.132Z</time></trkpt><trkpt lat="42.1030326" lon="13.3873382"><ele>825.0</ele><time>2026-05-02T14:17:47.127Z</time></trkpt><trkpt lat="42.1029786" lon="13.3871797"><ele>825.0</ele><time>2026-05-02T14:17:49.128Z</time></trkpt><trkpt lat="42.1029508" lon="13.387093"><ele>825.0</ele><time>2026-05-02T14:17:50.118Z</time></trkpt><trkpt lat="42.1029351" lon="13.3870107"><ele>825.0</ele><time>2026-05-02T14:17:51.118Z</time></trkpt><trkpt lat="42.1029554" lon="13.3869037"><ele>825.0</ele><time>2026-05-02T14:17:53.125Z</time></trkpt><trkpt lat="42.1030061" lon="13.3868041"><ele>825.0</ele><time>2026-05-02T14:17:55.123Z</time></trkpt><trkpt lat="42.1029786" lon="13.3866496"><ele>825.0</ele><time>2026-05-02T14:17:57.116Z</time></trkpt><trkpt lat="42.1029342" lon="13.3865646"><ele>825.0</ele><time>2026-05-02T14:17:58.122Z</time></trkpt><trkpt lat="42.1028877" lon="13.3864745"><ele>825.0</ele><time>2026-05-02T14:17:59.122Z</time></trkpt><trkpt lat="42.1028471" lon="13.3863927"><ele>825.0</ele><time>2026-05-02T14:18:00.12Z</time></trkpt><trkpt lat="42.1028063" lon="13.3863098"><ele>825.0</ele><time>2026-05-02T14:18:01.11Z</time></trkpt><trkpt lat="42.1027637" lon="13.3862121"><ele>825.0</ele><time>2026-05-02T14:18:02.118Z</time></trkpt><trkpt lat="42.1027068" lon="13.3860969"><ele>825.0</ele><time>2026-05-02T14:18:03.123Z</time></trkpt><trkpt lat="42.1026476" lon="13.3859762"><ele>825.1666666666666</ele><time>2026-05-02T14:18:04.12Z</time></trkpt><trkpt lat="42.1025921" lon="13.3858729"><ele>825.3333333333333</ele><time>2026-05-02T14:18:05.117Z</time></trkpt><trkpt lat="42.102538" lon="13.3857729"><ele>825.5</ele><time>2026-05-02T14:18:06.118Z</time></trkpt><trkpt lat="42.1024832" lon="13.3856799"><ele>825.6666666666666</ele><time>2026-05-02T14:18:07.121Z</time></trkpt><trkpt lat="42.1024331" lon="13.3855989"><ele>825.8333333333333</ele><time>2026-05-02T14:18:08.12Z</time></trkpt><trkpt lat="42.1023856" lon="13.3855271"><ele>826.0</ele><time>2026-05-02T14:18:09.121Z</time></trkpt><trkpt lat="42.1023233" lon="13.3854457"><ele>825.4285714285714</ele><time>2026-05-02T14:18:11.119Z</time></trkpt><trkpt lat="42.1022614" lon="13.3853754"><ele>824.8571428571429</ele><time>2026-05-02T14:18:14.125Z</time></trkpt><trkpt lat="42.1022243" lon="13.3852962"><ele>824.2857142857142</ele><time>2026-05-02T14:18:16.126Z</time></trkpt><trkpt lat="42.102197" lon="13.3852024"><ele>823.7142857142858</ele><time>2026-05-02T14:18:21.125Z</time></trkpt><trkpt lat="42.1021335" lon="13.3852358"><ele>823.1428571428571</ele><time>2026-05-02T14:18:29.122Z</time></trkpt><trkpt lat="42.102103" lon="13.3853148"><ele>822.5714285714286</ele><time>2026-05-02T14:18:31.125Z</time></trkpt><trkpt lat="42.1021519" lon="13.3852394"><ele>822.0</ele><time>2026-05-02T14:18:39.118Z</time></trkpt><trkpt lat="42.1022126" lon="13.3853179"><ele>822.0</ele><time>2026-05-02T14:18:44.129Z</time></trkpt><trkpt lat="42.1022451" lon="13.385444"><ele>822.0</ele><time>2026-05-02T14:18:46.122Z</time></trkpt><trkpt lat="42.1022694" lon="13.3855672"><ele>822.0</ele><time>2026-05-02T14:18:52.126Z</time></trkpt><trkpt lat="42.1022968" lon="13.3854463"><ele>822.0</ele><time>2026-05-02T14:19:01.122Z</time></trkpt><trkpt lat="42.1023301" lon="13.3853051"><ele>822.0</ele><time>2026-05-02T14:19:03.115Z</time></trkpt><trkpt lat="42.1023701" lon="13.3852311"><ele>823.2</ele><time>2026-05-02T14:19:04.121Z</time></trkpt><trkpt lat="42.102423" lon="13.3851524"><ele>824.4000000000001</ele><time>2026-05-02T14:19:05.12Z</time></trkpt><trkpt lat="42.1024814" lon="13.385064"><ele>825.5999999999999</ele><time>2026-05-02T14:19:06.123Z</time></trkpt><trkpt lat="42.1025463" lon="13.3849777"><ele>826.8</ele><time>2026-05-02T14:19:07.117Z</time></trkpt><trkpt lat="42.1026201" lon="13.3848854"><ele>828.0</ele><time>2026-05-02T14:19:08.122Z</time></trkpt><trkpt lat="42.1026929" lon="13.3847985"><ele>828.0</ele><time>2026-05-02T14:19:09.119Z</time></trkpt><trkpt lat="42.1027545" lon="13.3847402"><ele>828.0</ele><time>2026-05-02T14:19:10.121Z</time></trkpt><trkpt lat="42.1028767" lon="13.3846732"><ele>828.0</ele><time>2026-05-02T14:19:12.125Z</time></trkpt><trkpt lat="42.1029335" lon="13.3846198"><ele>828.0</ele><time>2026-05-02T14:19:13.122Z</time></trkpt><trkpt lat="42.1029858" lon="13.3845537"><ele>828.0</ele><time>2026-05-02T14:19:14.123Z</time></trkpt><trkpt lat="42.1030366" lon="13.3844791"><ele>828.0</ele><time>2026-05-02T14:19:15.119Z</time></trkpt><trkpt lat="42.1030992" lon="13.3843971"><ele>828.2</ele><time>2026-05-02T14:19:16.117Z</time></trkpt><trkpt lat="42.103174" lon="13.3842944"><ele>828.4</ele><time>2026-05-02T14:19:17.123Z</time></trkpt><trkpt lat="42.1032434" lon="13.3842"><ele>828.6</ele><time>2026-05-02T14:19:18.122Z</time></trkpt><trkpt lat="42.1033033" lon="13.3841056"><ele>828.8000000000001</ele><time>2026-05-02T14:19:19.124Z</time></trkpt><trkpt lat="42.1033612" lon="13.3839996"><ele>829.0</ele><time>2026-05-02T14:19:20.123Z</time></trkpt><trkpt lat="42.1034198" lon="13.3838819"><ele>829.9999999999999</ele><time>2026-05-02T14:19:21.122Z</time></trkpt><trkpt lat="42.1034756" lon="13.3837773"><ele>831.0</ele><time>2026-05-02T14:19:22.113Z</time></trkpt><trkpt lat="42.1035225" lon="13.3836949"><ele>832.0</ele><time>2026-05-02T14:19:23.121Z</time></trkpt><trkpt lat="42.1035686" lon="13.3836286"><ele>833.0</ele><time>2026-05-02T14:19:24.122Z</time></trkpt><trkpt lat="42.103633" lon="13.383569"><ele>833.9999999999999</ele><time>2026-05-02T14:19:25.123Z</time></trkpt><trkpt lat="42.1037074" lon="13.3835073"><ele>835.0</ele><time>2026-05-02T14:19:26.121Z</time></trkpt><trkpt lat="42.1037907" lon="13.3834363"><ele>834.9999999999999</ele><time>2026-05-02T14:19:27.118Z</time></trkpt><trkpt lat="42.1038744" lon="13.3833626"><ele>835.0</ele><time>2026-05-02T14:19:28.127Z</time></trkpt><trkpt lat="42.1039495" lon="13.3832912"><ele>835.0</ele><time>2026-05-02T14:19:29.124Z</time></trkpt><trkpt lat="42.1040169" lon="13.3832276"><ele>835.0</ele><time>2026-05-02T14:19:30.122Z</time></trkpt><trkpt lat="42.1040872" lon="13.383173"><ele>834.9999999999999</ele><time>2026-05-02T14:19:31.118Z</time></trkpt><trkpt lat="42.1041565" lon="13.383132"><ele>835.0</ele><time>2026-05-02T14:19:32.12Z</time></trkpt><trkpt lat="42.104227" lon="13.3831065"><ele>836.4999999999999</ele><time>2026-05-02T14:19:33.12Z</time></trkpt><trkpt lat="42.1042964" lon="13.3830771"><ele>838.0</ele><time>2026-05-02T14:19:34.122Z</time></trkpt><trkpt lat="42.1043742" lon="13.383034"><ele>839.5</ele><time>2026-05-02T14:19:35.123Z</time></trkpt><trkpt lat="42.1044525" lon="13.3829839"><ele>841.0</ele><time>2026-05-02T14:19:36.123Z</time></trkpt><trkpt lat="42.1045379" lon="13.3829404"><ele>842.4999999999999</ele><time>2026-05-02T14:19:37.127Z</time></trkpt><trkpt lat="42.1046259" lon="13.3829003"><ele>844.0</ele><time>2026-05-02T14:19:38.122Z</time></trkpt><trkpt lat="42.1047161" lon="13.3828698"><ele>843.9999999999999</ele><time>2026-05-02T14:19:39.123Z</time></trkpt><trkpt lat="42.1048079" lon="13.3828302"><ele>844.0</ele><time>2026-05-02T14:19:40.121Z</time></trkpt><trkpt lat="42.104888" lon="13.3827932"><ele>844.0</ele><time>2026-05-02T14:19:41.123Z</time></trkpt><trkpt lat="42.104963" lon="13.3827676"><ele>844.0</ele><time>2026-05-02T14:19:42.124Z</time></trkpt><trkpt lat="42.1050345" lon="13.3827504"><ele>843.9999999999999</ele><time>2026-05-02T14:19:43.123Z</time></trkpt><trkpt lat="42.1051047" lon="13.3827425"><ele>844.0</ele><time>2026-05-02T14:19:44.117Z</time></trkpt><trkpt lat="42.1051942" lon="13.3827527"><ele>845.2</ele><time>2026-05-02T14:19:45.119Z</time></trkpt><trkpt lat="42.105294" lon="13.3827766"><ele>846.4000000000001</ele><time>2026-05-02T14:19:46.122Z</time></trkpt><trkpt lat="42.1054032" lon="13.3828055"><ele>847.6</ele><time>2026-05-02T14:19:47.123Z</time></trkpt><trkpt lat="42.1055103" lon="13.3828186"><ele>848.8</ele><time>2026-05-02T14:19:48.12Z</time></trkpt><trkpt lat="42.1056095" lon="13.3828247"><ele>850.0</ele><time>2026-05-02T14:19:49.119Z</time></trkpt><trkpt lat="42.1056948" lon="13.3828307"><ele>851.4</ele><time>2026-05-02T14:19:50.126Z</time></trkpt><trkpt lat="42.1057821" lon="13.3828512"><ele>852.8</ele><time>2026-05-02T14:19:51.123Z</time></trkpt><trkpt lat="42.1058775" lon="13.3828736"><ele>854.2</ele><time>2026-05-02T14:19:52.128Z</time></trkpt><trkpt lat="42.1059736" lon="13.3828795"><ele>855.6</ele><time>2026-05-02T14:19:53.125Z</time></trkpt><trkpt lat="42.1060771" lon="13.3828744"><ele>857.0</ele><time>2026-05-02T14:19:54.125Z</time></trkpt><trkpt lat="42.1061731" lon="13.3828659"><ele>857.0</ele><time>2026-05-02T14:19:55.125Z</time></trkpt><trkpt lat="42.1062591" lon="13.3828621"><ele>857.0</ele><time>2026-05-02T14:19:56.125Z</time></trkpt><trkpt lat="42.1063458" lon="13.3828632"><ele>857.0</ele><time>2026-05-02T14:19:57.119Z</time></trkpt><trkpt lat="42.106434" lon="13.3828769"><ele>857.0</ele><time>2026-05-02T14:19:58.123Z</time></trkpt><trkpt lat="42.1065119" lon="13.3828901"><ele>857.0</ele><time>2026-05-02T14:19:59.121Z</time></trkpt><trkpt lat="42.1066183" lon="13.3829518"><ele>858.6</ele><time>2026-05-02T14:20:01.119Z</time></trkpt><trkpt lat="42.1067111" lon="13.3830933"><ele>860.2</ele><time>2026-05-02T14:20:03.115Z</time></trkpt><trkpt lat="42.1067543" lon="13.3831717"><ele>861.8</ele><time>2026-05-02T14:20:04.11Z</time></trkpt><trkpt lat="42.1068386" lon="13.3832345"><ele>863.4</ele><time>2026-05-02T14:20:06.119Z</time></trkpt><trkpt lat="42.1069131" lon="13.3832959"><ele>865.0</ele><time>2026-05-02T14:20:08.116Z</time></trkpt><trkpt lat="42.1069502" lon="13.3834629"><ele>865.0</ele><time>2026-05-02T14:20:10.121Z</time></trkpt><trkpt lat="42.1070016" lon="13.3835493"><ele>865.0</ele><time>2026-05-02T14:20:12.116Z</time></trkpt><trkpt lat="42.107065" lon="13.3834869"><ele>865.0</ele><time>2026-05-02T14:20:14.121Z</time></trkpt><trkpt lat="42.1071456" lon="13.3833775"><ele>865.0</ele><time>2026-05-02T14:20:16.123Z</time></trkpt><trkpt lat="42.1072141" lon="13.3832973"><ele>865.0</ele><time>2026-05-02T14:20:17.12Z</time></trkpt><trkpt lat="42.1072921" lon="13.3832221"><ele>865.0</ele><time>2026-05-02T14:20:18.121Z</time></trkpt><trkpt lat="42.1073627" lon="13.3831531"><ele>865.0</ele><time>2026-05-02T14:20:19.123Z</time></trkpt><trkpt lat="42.1074265" lon="13.3831022"><ele>865.0</ele><time>2026-05-02T14:20:20.116Z</time></trkpt><trkpt lat="42.1074959" lon="13.383058"><ele>865.0</ele><time>2026-05-02T14:20:21.11Z</time></trkpt><trkpt lat="42.1075478" lon="13.383008"><ele>865.0</ele><time>2026-05-02T14:20:22.122Z</time></trkpt><trkpt lat="42.1075991" lon="13.3829395"><ele>865.0</ele><time>2026-05-02T14:20:23.124Z</time></trkpt><trkpt lat="42.107658" lon="13.3828951"><ele>865.0</ele><time>2026-05-02T14:20:24.116Z</time></trkpt><trkpt lat="42.1077213" lon="13.3828768"><ele>867.0</ele><time>2026-05-02T14:20:25.117Z</time></trkpt><trkpt lat="42.107802" lon="13.3828812"><ele>869.0</ele><time>2026-05-02T14:20:26.125Z</time></trkpt><trkpt lat="42.1078904" lon="13.3828706"><ele>871.0</ele><time>2026-05-02T14:20:27.123Z</time></trkpt><trkpt lat="42.1079897" lon="13.3828417"><ele>873.0</ele><time>2026-05-02T14:20:28.124Z</time></trkpt><trkpt lat="42.1080869" lon="13.3828179"><ele>875.0</ele><time>2026-05-02T14:20:29.125Z</time></trkpt><trkpt lat="42.1081725" lon="13.3828039"><ele>875.6666666666667</ele><time>2026-05-02T14:20:30.122Z</time></trkpt><trkpt lat="42.1082593" lon="13.3828084"><ele>876.3333333333334</ele><time>2026-05-02T14:20:31.128Z</time></trkpt><trkpt lat="42.108349" lon="13.3827983"><ele>877.0</ele><time>2026-05-02T14:20:32.118Z</time></trkpt><trkpt lat="42.1084345" lon="13.3827758"><ele>877.6666666666667</ele><time>2026-05-02T14:20:33.12Z</time></trkpt><trkpt lat="42.1085173" lon="13.3827609"><ele>878.3333333333334</ele><time>2026-05-02T14:20:34.116Z</time></trkpt><trkpt lat="42.1086025" lon="13.3827543"><ele>879.0</ele><time>2026-05-02T14:20:35.122Z</time></trkpt><trkpt lat="42.1086836" lon="13.382739"><ele>879.0</ele><time>2026-05-02T14:20:36.128Z</time></trkpt><trkpt lat="42.1087632" lon="13.3826973"><ele>879.0</ele><time>2026-05-02T14:20:37.123Z</time></trkpt><trkpt lat="42.1088506" lon="13.382645"><ele>879.0</ele><time>2026-05-02T14:20:38.123Z</time></trkpt><trkpt lat="42.1089346" lon="13.3826055"><ele>879.0</ele><time>2026-05-02T14:20:39.132Z</time></trkpt><trkpt lat="42.1090127" lon="13.3825651"><ele>879.0</ele><time>2026-05-02T14:20:40.125Z</time></trkpt><trkpt lat="42.1090843" lon="13.3825092"><ele>879.0</ele><time>2026-05-02T14:20:41.128Z</time></trkpt><trkpt lat="42.1091579" lon="13.3824594"><ele>880.2</ele><time>2026-05-02T14:20:42.125Z</time></trkpt><trkpt lat="42.1092379" lon="13.3824155"><ele>881.4000000000001</ele><time>2026-05-02T14:20:43.126Z</time></trkpt><trkpt lat="42.1093234" lon="13.3823762"><ele>882.6</ele><time>2026-05-02T14:20:44.139Z</time></trkpt><trkpt lat="42.1094137" lon="13.382326"><ele>883.8</ele><time>2026-05-02T14:20:45.132Z</time></trkpt><trkpt lat="42.1095012" lon="13.3822768"><ele>885.0</ele><time>2026-05-02T14:20:46.129Z</time></trkpt><trkpt lat="42.1095899" lon="13.3822304"><ele>885.0</ele><time>2026-05-02T14:20:47.131Z</time></trkpt><trkpt lat="42.1096681" lon="13.3821893"><ele>885.0</ele><time>2026-05-02T14:20:48.126Z</time></trkpt><trkpt lat="42.1097275" lon="13.3821447"><ele>885.0</ele><time>2026-05-02T14:20:49.129Z</time></trkpt><trkpt lat="42.1098003" lon="13.3820569"><ele>885.0</ele><time>2026-05-02T14:20:51.128Z</time></trkpt><trkpt lat="42.1098413" lon="13.3819642"><ele>885.0</ele><time>2026-05-02T14:20:54.124Z</time></trkpt><trkpt lat="42.1098034" lon="13.3818743"><ele>885.0</ele><time>2026-05-02T14:20:56.127Z</time></trkpt><trkpt lat="42.1097359" lon="13.3817672"><ele>885.1666666666666</ele><time>2026-05-02T14:20:58.131Z</time></trkpt><trkpt lat="42.1096723" lon="13.3816786"><ele>885.3333333333333</ele><time>2026-05-02T14:21:00.124Z</time></trkpt><trkpt lat="42.1096454" lon="13.3815896"><ele>885.5</ele><time>2026-05-02T14:21:02.116Z</time></trkpt><trkpt lat="42.1096133" lon="13.3814987"><ele>885.6666666666666</ele><time>2026-05-02T14:21:04.111Z</time></trkpt><trkpt lat="42.10955" lon="13.381527"><ele>885.8333333333333</ele><time>2026-05-02T14:21:08.122Z</time></trkpt><trkpt lat="42.1095826" lon="13.38165"><ele>886.0</ele><time>2026-05-02T14:21:11.118Z</time></trkpt><trkpt lat="42.1096149" lon="13.3817261"><ele>885.9999999999999</ele><time>2026-05-02T14:21:12.12Z</time></trkpt><trkpt lat="42.1096622" lon="13.3818082"><ele>886.0</ele><time>2026-05-02T14:21:13.119Z</time></trkpt><trkpt lat="42.1097172" lon="13.3818919"><ele>886.0</ele><time>2026-05-02T14:21:14.123Z</time></trkpt><trkpt lat="42.1097655" lon="13.3819688"><ele>886.0</ele><time>2026-05-02T14:21:15.126Z</time></trkpt><trkpt lat="42.109809" lon="13.3820329"><ele>885.9999999999999</ele><time>2026-05-02T14:21:16.122Z</time></trkpt><trkpt lat="42.1099127" lon="13.3821309"><ele>886.0</ele><time>2026-05-02T14:21:18.12Z</time></trkpt><trkpt lat="42.1099792" lon="13.3821701"><ele>886.7142857142858</ele><time>2026-05-02T14:21:19.12Z</time></trkpt><trkpt lat="42.110045" lon="13.3821849"><ele>887.4285714285714</ele><time>2026-05-02T14:21:20.122Z</time></trkpt><trkpt lat="42.1101091" lon="13.3821817"><ele>888.1428571428571</ele><time>2026-05-02T14:21:21.119Z</time></trkpt><trkpt lat="42.1101792" lon="13.3821756"><ele>888.8571428571429</ele><time>2026-05-02T14:21:22.117Z</time></trkpt><trkpt lat="42.1102624" lon="13.3821575"><ele>889.5714285714286</ele><time>2026-05-02T14:21:23.12Z</time></trkpt><trkpt lat="42.1103416" lon="13.3821334"><ele>890.2857142857143</ele><time>2026-05-02T14:21:24.117Z</time></trkpt><trkpt lat="42.1104088" lon="13.3821065"><ele>891.0</ele><time>2026-05-02T14:21:25.117Z</time></trkpt><trkpt lat="42.1105003" lon="13.3820687"><ele>891.1999999999999</ele><time>2026-05-02T14:21:27.118Z</time></trkpt><trkpt lat="42.1105578" lon="13.3820082"><ele>891.3999999999999</ele><time>2026-05-02T14:21:30.119Z</time></trkpt><trkpt lat="42.1105554" lon="13.3818826"><ele>891.6</ele><time>2026-05-02T14:21:32.117Z</time></trkpt><trkpt lat="42.1105451" lon="13.381768"><ele>891.8</ele><time>2026-05-02T14:21:33.119Z</time></trkpt><trkpt lat="42.1105455" lon="13.3816352"><ele>892.0</ele><time>2026-05-02T14:21:34.115Z</time></trkpt><trkpt lat="42.1105443" lon="13.3814825"><ele>892.4000000000001</ele><time>2026-05-02T14:21:35.116Z</time></trkpt><trkpt lat="42.1105448" lon="13.3813346"><ele>892.8000000000001</ele><time>2026-05-02T14:21:36.116Z</time></trkpt><trkpt lat="42.1105438" lon="13.3811925"><ele>893.2</ele><time>2026-05-02T14:21:37.118Z</time></trkpt><trkpt lat="42.1105467" lon="13.3810554"><ele>893.6</ele><time>2026-05-02T14:21:38.113Z</time></trkpt><trkpt lat="42.1105522" lon="13.3809259"><ele>894.0</ele><time>2026-05-02T14:21:39.115Z</time></trkpt><trkpt lat="42.1105584" lon="13.3807944"><ele>894.0</ele><time>2026-05-02T14:21:40.12Z</time></trkpt><trkpt lat="42.1105533" lon="13.3806628"><ele>894.0</ele><time>2026-05-02T14:21:41.118Z</time></trkpt><trkpt lat="42.1105482" lon="13.3805358"><ele>894.0</ele><time>2026-05-02T14:21:42.117Z</time></trkpt><trkpt lat="42.1105424" lon="13.3804182"><ele>894.0</ele><time>2026-05-02T14:21:43.115Z</time></trkpt><trkpt lat="42.1105349" lon="13.3803263"><ele>894.0</ele><time>2026-05-02T14:21:44.117Z</time></trkpt><trkpt lat="42.1105297" lon="13.3802037"><ele>894.0</ele><time>2026-05-02T14:21:46.116Z</time></trkpt><trkpt lat="42.1105619" lon="13.3800904"><ele>894.1666666666666</ele><time>2026-05-02T14:21:49.097Z</time></trkpt><trkpt lat="42.1106132" lon="13.3800075"><ele>894.3333333333333</ele><time>2026-05-02T14:21:51.111Z</time></trkpt><trkpt lat="42.1106279" lon="13.3798519"><ele>894.5</ele><time>2026-05-02T14:21:53.108Z</time></trkpt><trkpt lat="42.1106023" lon="13.3797586"><ele>894.6666666666666</ele><time>2026-05-02T14:21:54.103Z</time></trkpt><trkpt lat="42.1105601" lon="13.3796627"><ele>894.8333333333333</ele><time>2026-05-02T14:21:55.112Z</time></trkpt><trkpt lat="42.110501" lon="13.3795614"><ele>895.0</ele><time>2026-05-02T14:21:56.103Z</time></trkpt><trkpt lat="42.1104301" lon="13.3794673"><ele>896.6</ele><time>2026-05-02T14:21:57.105Z</time></trkpt><trkpt lat="42.1103594" lon="13.3793861"><ele>898.2</ele><time>2026-05-02T14:21:58.108Z</time></trkpt><trkpt lat="42.1102907" lon="13.3793136"><ele>899.8</ele><time>2026-05-02T14:21:59.108Z</time></trkpt><trkpt lat="42.1102156" lon="13.3792752"><ele>901.4</ele><time>2026-05-02T14:22:00.111Z</time></trkpt><trkpt lat="42.1101294" lon="13.3792465"><ele>903.0</ele><time>2026-05-02T14:22:01.103Z</time></trkpt><trkpt lat="42.1100248" lon="13.3792506"><ele>903.0</ele><time>2026-05-02T14:22:02.103Z</time></trkpt><trkpt lat="42.1099214" lon="13.3792627"><ele>903.0</ele><time>2026-05-02T14:22:03.104Z</time></trkpt><trkpt lat="42.1098118" lon="13.3792653"><ele>903.0</ele><time>2026-05-02T14:22:04.104Z</time></trkpt><trkpt lat="42.1097043" lon="13.3792534"><ele>903.0</ele><time>2026-05-02T14:22:05.107Z</time></trkpt><trkpt lat="42.1096054" lon="13.3792287"><ele>903.0</ele><time>2026-05-02T14:22:06.105Z</time></trkpt><trkpt lat="42.109516" lon="13.3792094"><ele>903.2</ele><time>2026-05-02T14:22:07.11Z</time></trkpt><trkpt lat="42.1094314" lon="13.3791803"><ele>903.4</ele><time>2026-05-02T14:22:08.109Z</time></trkpt><trkpt lat="42.1093534" lon="13.3791537"><ele>903.6000000000001</ele><time>2026-05-02T14:22:09.112Z</time></trkpt><trkpt lat="42.1092618" lon="13.3790961"><ele>903.8000000000001</ele><time>2026-05-02T14:22:11.108Z</time></trkpt><trkpt lat="42.1092381" lon="13.3789993"><ele>904.0</ele><time>2026-05-02T14:22:13.11Z</time></trkpt><trkpt lat="42.1092383" lon="13.3788097"><ele>904.0</ele><time>2026-05-02T14:22:15.108Z</time></trkpt><trkpt lat="42.1092173" lon="13.3786891"><ele>904.0000000000001</ele><time>2026-05-02T14:22:16.105Z</time></trkpt><trkpt lat="42.109179" lon="13.3785676"><ele>904.0000000000001</ele><time>2026-05-02T14:22:17.115Z</time></trkpt><trkpt lat="42.1091303" lon="13.3784533"><ele>904.0</ele><time>2026-05-02T14:22:18.109Z</time></trkpt><trkpt lat="42.1090703" lon="13.3783296"><ele>904.0</ele><time>2026-05-02T14:22:19.11Z</time></trkpt><trkpt lat="42.1090205" lon="13.3782097"><ele>903.0</ele><time>2026-05-02T14:22:20.104Z</time></trkpt><trkpt lat="42.1089636" lon="13.3781016"><ele>902.0000000000001</ele><time>2026-05-02T14:22:21.108Z</time></trkpt><trkpt lat="42.1089022" lon="13.3780036"><ele>901.0000000000001</ele><time>2026-05-02T14:22:22.102Z</time></trkpt><trkpt lat="42.1088335" lon="13.3779192"><ele>900.0</ele><time>2026-05-02T14:22:23.101Z</time></trkpt><trkpt lat="42.1087638" lon="13.3778344"><ele>899.0</ele><time>2026-05-02T14:22:24.103Z</time></trkpt><trkpt lat="42.1086776" lon="13.3777585"><ele>901.4000000000001</ele><time>2026-05-02T14:22:25.108Z</time></trkpt><trkpt lat="42.1085817" lon="13.3776874"><ele>903.8000000000001</ele><time>2026-05-02T14:22:26.109Z</time></trkpt><trkpt lat="42.1084916" lon="13.3776279"><ele>906.1999999999999</ele><time>2026-05-02T14:22:27.097Z</time></trkpt><trkpt lat="42.1083961" lon="13.3775836"><ele>908.5999999999999</ele><time>2026-05-02T14:22:28.106Z</time></trkpt><trkpt lat="42.1082984" lon="13.3775485"><ele>911.0</ele><time>2026-05-02T14:22:29.104Z</time></trkpt><trkpt lat="42.1082177" lon="13.3775245"><ele>911.0000000000001</ele><time>2026-05-02T14:22:30.102Z</time></trkpt><trkpt lat="42.1081468" lon="13.3775058"><ele>911.0</ele><time>2026-05-02T14:22:31.097Z</time></trkpt><trkpt lat="42.1080509" lon="13.3775099"><ele>911.0</ele><time>2026-05-02T14:22:33.097Z</time></trkpt><trkpt lat="42.1079574" lon="13.3774984"><ele>911.0</ele><time>2026-05-02T14:22:35.092Z</time></trkpt><trkpt lat="42.1078678" lon="13.3774679"><ele>911.0000000000001</ele><time>2026-05-02T14:22:37.103Z</time></trkpt><trkpt lat="42.1078006" lon="13.3774036"><ele>911.0</ele><time>2026-05-02T14:22:39.107Z</time></trkpt><trkpt lat="42.1077254" lon="13.3773331"><ele>911.0000000000001</ele><time>2026-05-02T14:22:42.116Z</time></trkpt><trkpt lat="42.1076653" lon="13.3772436"><ele>911.0</ele><time>2026-05-02T14:22:44.11Z</time></trkpt><trkpt lat="42.1076122" lon="13.3771749"><ele>911.0</ele><time>2026-05-02T14:22:46.118Z</time></trkpt><trkpt lat="42.1075398" lon="13.3771337"><ele>911.0</ele><time>2026-05-02T14:22:48.108Z</time></trkpt><trkpt lat="42.107471" lon="13.3771149"><ele>911.0000000000001</ele><time>2026-05-02T14:22:51.112Z</time></trkpt><trkpt lat="42.107401" lon="13.3770818"><ele>911.0</ele><time>2026-05-02T14:22:55.116Z</time></trkpt><trkpt lat="42.1073302" lon="13.377085"><ele>911.0000000000001</ele><time>2026-05-02T14:23:22.112Z</time></trkpt><trkpt lat="42.1072569" lon="13.3771777"><ele>911.0</ele><time>2026-05-02T14:23:24.116Z</time></trkpt><trkpt lat="42.1071947" lon="13.377219"><ele>911.0</ele><time>2026-05-02T14:23:25.116Z</time></trkpt><trkpt lat="42.1071259" lon="13.3772285"><ele>911.0</ele><time>2026-05-02T14:23:26.111Z</time></trkpt><trkpt lat="42.1070435" lon="13.3772171"><ele>911.0000000000001</ele><time>2026-05-02T14:23:27.11Z</time></trkpt><trkpt lat="42.106959" lon="13.3771752"><ele>911.0</ele><time>2026-05-02T14:23:28.109Z</time></trkpt><trkpt lat="42.106873" lon="13.3771302"><ele>910.3333333333334</ele><time>2026-05-02T14:23:29.127Z</time></trkpt><trkpt lat="42.1068153" lon="13.3770554"><ele>909.6666666666667</ele><time>2026-05-02T14:23:30.125Z</time></trkpt><trkpt lat="42.1067606" lon="13.3769775"><ele>909.0</ele><time>2026-05-02T14:23:31.123Z</time></trkpt><trkpt lat="42.1066962" lon="13.3769033"><ele>908.3333333333333</ele><time>2026-05-02T14:23:32.12Z</time></trkpt><trkpt lat="42.1066402" lon="13.3768413"><ele>907.6666666666666</ele><time>2026-05-02T14:23:33.12Z</time></trkpt><trkpt lat="42.1065843" lon="13.3767929"><ele>907.0</ele><time>2026-05-02T14:23:34.125Z</time></trkpt><trkpt lat="42.1064836" lon="13.3767334"><ele>905.0</ele><time>2026-05-02T14:23:36.125Z</time></trkpt><trkpt lat="42.1063991" lon="13.3766904"><ele>903.0</ele><time>2026-05-02T14:23:38.115Z</time></trkpt><trkpt lat="42.1063004" lon="13.3766773"><ele>901.0</ele><time>2026-05-02T14:23:40.126Z</time></trkpt><trkpt lat="42.106197" lon="13.3766981"><ele>899.0</ele><time>2026-05-02T14:23:42.115Z</time></trkpt><trkpt lat="42.106123" lon="13.376689"><ele>897.0</ele><time>2026-05-02T14:23:44.108Z</time></trkpt><trkpt lat="42.1060328" lon="13.3766058"><ele>897.0</ele><time>2026-05-02T14:23:46.11Z</time></trkpt><trkpt lat="42.1059685" lon="13.3765351"><ele>897.0</ele><time>2026-05-02T14:23:48.116Z</time></trkpt><trkpt lat="42.1059191" lon="13.3764734"><ele>897.0</ele><time>2026-05-02T14:23:52.112Z</time></trkpt><trkpt lat="42.1058582" lon="13.376436"><ele>897.0</ele><time>2026-05-02T14:24:04.12Z</time></trkpt><trkpt lat="42.105786" lon="13.3764378"><ele>897.0</ele><time>2026-05-02T14:24:20.118Z</time></trkpt><trkpt lat="42.1058622" lon="13.3764514"><ele>897.0</ele><time>2026-05-02T14:24:29.118Z</time></trkpt><trkpt lat="42.1059478" lon="13.3763882"><ele>895.8</ele><time>2026-05-02T14:24:32.113Z</time></trkpt><trkpt lat="42.1059464" lon="13.3762843"><ele>894.6</ele><time>2026-05-02T14:24:35.116Z</time></trkpt><trkpt lat="42.1058883" lon="13.3762259"><ele>893.3999999999999</ele><time>2026-05-02T14:24:37.114Z</time></trkpt><trkpt lat="42.1058109" lon="13.3761077"><ele>892.1999999999999</ele><time>2026-05-02T14:24:39.108Z</time></trkpt><trkpt lat="42.1057273" lon="13.37598"><ele>891.0</ele><time>2026-05-02T14:24:41.117Z</time></trkpt><trkpt lat="42.1056828" lon="13.3759151"><ele>889.4</ele><time>2026-05-02T14:24:42.114Z</time></trkpt><trkpt lat="42.105589" lon="13.3758156"><ele>887.8</ele><time>2026-05-02T14:24:44.122Z</time></trkpt><trkpt lat="42.1055072" lon="13.375724"><ele>886.1999999999999</ele><time>2026-05-02T14:24:46.119Z</time></trkpt><trkpt lat="42.1054645" lon="13.3756576"><ele>884.5999999999999</ele><time>2026-05-02T14:24:47.111Z</time></trkpt><trkpt lat="42.1053915" lon="13.3755658"><ele>883.0</ele><time>2026-05-02T14:24:49.118Z</time></trkpt><trkpt lat="42.1053325" lon="13.3754685"><ele>882.9999999999999</ele><time>2026-05-02T14:24:51.126Z</time></trkpt><trkpt lat="42.1052749" lon="13.3753728"><ele>883.0</ele><time>2026-05-02T14:24:53.121Z</time></trkpt><trkpt lat="42.1052159" lon="13.3752716"><ele>883.0</ele><time>2026-05-02T14:24:55.12Z</time></trkpt><trkpt lat="42.1051487" lon="13.3751962"><ele>883.0</ele><time>2026-05-02T14:24:57.118Z</time></trkpt><trkpt lat="42.105082" lon="13.3751573"><ele>882.9999999999999</ele><time>2026-05-02T14:24:59.122Z</time></trkpt><trkpt lat="42.1050816" lon="13.3750692"><ele>883.0</ele><time>2026-05-02T14:25:01.121Z</time></trkpt><trkpt lat="42.1050723" lon="13.3749743"><ele>883.0</ele><time>2026-05-02T14:25:04.115Z</time></trkpt><trkpt lat="42.1050314" lon="13.3748903"><ele>883.0</ele><time>2026-05-02T14:25:06.115Z</time></trkpt><trkpt lat="42.1049568" lon="13.3747976"><ele>883.0</ele><time>2026-05-02T14:25:08.107Z</time></trkpt><trkpt lat="42.1049004" lon="13.3746366"><ele>883.0</ele><time>2026-05-02T14:25:10.118Z</time></trkpt><trkpt lat="42.1048503" lon="13.3744896"><ele>883.0</ele><time>2026-05-02T14:25:12.115Z</time></trkpt><trkpt lat="42.1047982" lon="13.3743852"><ele>881.1666666666666</ele><time>2026-05-02T14:25:14.117Z</time></trkpt><trkpt lat="42.1047208" lon="13.3743289"><ele>879.3333333333333</ele><time>2026-05-02T14:25:16.117Z</time></trkpt><trkpt lat="42.1046439" lon="13.3743235"><ele>877.5</ele><time>2026-05-02T14:25:18.119Z</time></trkpt><trkpt lat="42.1045689" lon="13.3742908"><ele>875.6666666666667</ele><time>2026-05-02T14:25:20.114Z</time></trkpt><trkpt lat="42.1045103" lon="13.3741801"><ele>873.8333333333334</ele><time>2026-05-02T14:25:22.118Z</time></trkpt><trkpt lat="42.1044614" lon="13.3740704"><ele>872.0</ele><time>2026-05-02T14:25:24.114Z</time></trkpt><trkpt lat="42.1044014" lon="13.3739507"><ele>872.8333333333334</ele><time>2026-05-02T14:25:26.113Z</time></trkpt><trkpt lat="42.1043321" lon="13.3738253"><ele>873.6666666666667</ele><time>2026-05-02T14:25:28.116Z</time></trkpt><trkpt lat="42.1042842" lon="13.3737651"><ele>874.5</ele><time>2026-05-02T14:25:29.121Z</time></trkpt><trkpt lat="42.1042301" lon="13.3737001"><ele>875.3333333333333</ele><time>2026-05-02T14:25:30.118Z</time></trkpt><trkpt lat="42.104166" lon="13.3736187"><ele>876.1666666666666</ele><time>2026-05-02T14:25:31.122Z</time></trkpt><trkpt lat="42.1041133" lon="13.3735422"><ele>877.0</ele><time>2026-05-02T14:25:32.122Z</time></trkpt><trkpt lat="42.1040569" lon="13.3734682"><ele>877.0000000000001</ele><time>2026-05-02T14:25:33.12Z</time></trkpt><trkpt lat="42.1040079" lon="13.3733852"><ele>877.0</ele><time>2026-05-02T14:25:34.117Z</time></trkpt><trkpt lat="42.1039685" lon="13.3733049"><ele>877.0</ele><time>2026-05-02T14:25:35.12Z</time></trkpt><trkpt lat="42.1039197" lon="13.3732448"><ele>877.0</ele><time>2026-05-02T14:25:36.119Z</time></trkpt><trkpt lat="42.103867" lon="13.3731915"><ele>877.0</ele><time>2026-05-02T14:25:37.122Z</time></trkpt><trkpt lat="42.1038077" lon="13.3731342"><ele>877.0000000000001</ele><time>2026-05-02T14:25:38.121Z</time></trkpt><trkpt lat="42.1037416" lon="13.3730654"><ele>877.0</ele><time>2026-05-02T14:25:39.124Z</time></trkpt><trkpt lat="42.1036691" lon="13.3729885"><ele>876.9999999999999</ele><time>2026-05-02T14:25:40.12Z</time></trkpt><trkpt lat="42.1036067" lon="13.3729144"><ele>877.0</ele><time>2026-05-02T14:25:41.116Z</time></trkpt><trkpt lat="42.1035481" lon="13.372828"><ele>877.0</ele><time>2026-05-02T14:25:42.109Z</time></trkpt><trkpt lat="42.103503" lon="13.3727539"><ele>877.0</ele><time>2026-05-02T14:25:43.117Z</time></trkpt><trkpt lat="42.1034422" lon="13.3726434"><ele>876.9999999999999</ele><time>2026-05-02T14:25:45.116Z</time></trkpt><trkpt lat="42.103373" lon="13.372545"><ele>877.0</ele><time>2026-05-02T14:25:47.119Z</time></trkpt><trkpt lat="42.1033156" lon="13.3724491"><ele>876.9999999999999</ele><time>2026-05-02T14:25:49.117Z</time></trkpt><trkpt lat="42.1033104" lon="13.3723301"><ele>877.0</ele><time>2026-05-02T14:25:51.114Z</time></trkpt><trkpt lat="42.1032932" lon="13.3722255"><ele>877.0</ele><time>2026-05-02T14:25:53.112Z</time></trkpt><trkpt lat="42.1032236" lon="13.372122"><ele>877.0</ele><time>2026-05-02T14:25:55.12Z</time></trkpt><trkpt lat="42.103145" lon="13.3720576"><ele>876.9999999999999</ele><time>2026-05-02T14:25:57.117Z</time></trkpt><trkpt lat="42.103083" lon="13.3719882"><ele>877.0</ele><time>2026-05-02T14:25:59.122Z</time></trkpt><trkpt lat="42.1030132" lon="13.3719143"><ele>875.1666666666666</ele><time>2026-05-02T14:26:01.116Z</time></trkpt><trkpt lat="42.1029372" lon="13.3718492"><ele>873.3333333333333</ele><time>2026-05-02T14:26:03.114Z</time></trkpt><trkpt lat="42.1028736" lon="13.3717796"><ele>871.5</ele><time>2026-05-02T14:26:05.109Z</time></trkpt><trkpt lat="42.1028177" lon="13.3717076"><ele>869.6666666666667</ele><time>2026-05-02T14:26:07.116Z</time></trkpt><trkpt lat="42.102749" lon="13.3716166"><ele>867.8333333333334</ele><time>2026-05-02T14:26:09.12Z</time></trkpt><trkpt lat="42.102697" lon="13.3714973"><ele>866.0</ele><time>2026-05-02T14:26:11.123Z</time></trkpt><trkpt lat="42.1026408" lon="13.371396"><ele>864.5999999999999</ele><time>2026-05-02T14:26:13.118Z</time></trkpt><trkpt lat="42.1025617" lon="13.3713115"><ele>863.1999999999999</ele><time>2026-05-02T14:26:15.12Z</time></trkpt><trkpt lat="42.1024655" lon="13.3712288"><ele>861.8000000000001</ele><time>2026-05-02T14:26:17.123Z</time></trkpt><trkpt lat="42.1023795" lon="13.3711403"><ele>860.4000000000001</ele><time>2026-05-02T14:26:19.12Z</time></trkpt><trkpt lat="42.1022986" lon="13.3710485"><ele>859.0</ele><time>2026-05-02T14:26:21.119Z</time></trkpt><trkpt lat="42.1022096" lon="13.3709945"><ele>857.4999999999999</ele><time>2026-05-02T14:26:23.121Z</time></trkpt><trkpt lat="42.1021353" lon="13.3709184"><ele>856.0</ele><time>2026-05-02T14:26:25.112Z</time></trkpt><trkpt lat="42.1020555" lon="13.3708482"><ele>854.5</ele><time>2026-05-02T14:26:27.121Z</time></trkpt><trkpt lat="42.101983" lon="13.3708141"><ele>853.0</ele><time>2026-05-02T14:26:29.124Z</time></trkpt><trkpt lat="42.101927" lon="13.3707534"><ele>851.4999999999999</ele><time>2026-05-02T14:26:31.118Z</time></trkpt><trkpt lat="42.1018739" lon="13.3706941"><ele>850.0</ele><time>2026-05-02T14:26:33.117Z</time></trkpt><trkpt lat="42.1018014" lon="13.3706533"><ele>849.9999999999999</ele><time>2026-05-02T14:26:35.116Z</time></trkpt><trkpt lat="42.101736" lon="13.3706282"><ele>850.0</ele><time>2026-05-02T14:26:37.118Z</time></trkpt><trkpt lat="42.1016767" lon="13.370555"><ele>850.0</ele><time>2026-05-02T14:26:39.121Z</time></trkpt><trkpt lat="42.1016155" lon="13.3704908"><ele>850.0</ele><time>2026-05-02T14:26:41.121Z</time></trkpt><trkpt lat="42.1015451" lon="13.3704675"><ele>849.9999999999999</ele><time>2026-05-02T14:26:43.117Z</time></trkpt><trkpt lat="42.101478" lon="13.3705004"><ele>850.0</ele><time>2026-05-02T14:26:45.115Z</time></trkpt><trkpt lat="42.1013946" lon="13.3704832"><ele>846.3333333333333</ele><time>2026-05-02T14:26:47.115Z</time></trkpt><trkpt lat="42.1013069" lon="13.37045"><ele>842.6666666666666</ele><time>2026-05-02T14:26:49.113Z</time></trkpt><trkpt lat="42.101229" lon="13.3704524"><ele>839.0</ele><time>2026-05-02T14:26:51.114Z</time></trkpt><trkpt lat="42.1011406" lon="13.3704735"><ele>835.3333333333333</ele><time>2026-05-02T14:26:54.113Z</time></trkpt><trkpt lat="42.1010845" lon="13.370531"><ele>831.6666666666666</ele><time>2026-05-02T14:26:56.113Z</time></trkpt><trkpt lat="42.1009974" lon="13.3705967"><ele>828.0</ele><time>2026-05-02T14:26:59.115Z</time></trkpt><trkpt lat="42.1009423" lon="13.3706386"><ele>828.0</ele><time>2026-05-02T14:27:01.11Z</time></trkpt><trkpt lat="42.1008572" lon="13.3706682"><ele>828.0</ele><time>2026-05-02T14:27:04.104Z</time></trkpt><trkpt lat="42.1007866" lon="13.3706198"><ele>828.0</ele><time>2026-05-02T14:27:06.111Z</time></trkpt><trkpt lat="42.1006974" lon="13.3705397"><ele>828.0</ele><time>2026-05-02T14:27:08.108Z</time></trkpt><trkpt lat="42.1006106" lon="13.3704709"><ele>828.0</ele><time>2026-05-02T14:27:10.107Z</time></trkpt><trkpt lat="42.1005264" lon="13.3704262"><ele>826.1666666666666</ele><time>2026-05-02T14:27:12.115Z</time></trkpt><trkpt lat="42.1004451" lon="13.3704232"><ele>824.3333333333333</ele><time>2026-05-02T14:27:14.115Z</time></trkpt><trkpt lat="42.1003604" lon="13.3704595"><ele>822.5</ele><time>2026-05-02T14:27:16.113Z</time></trkpt><trkpt lat="42.1003074" lon="13.3705094"><ele>820.6666666666666</ele><time>2026-05-02T14:27:18.113Z</time></trkpt><trkpt lat="42.1002527" lon="13.3705536"><ele>818.8333333333333</ele><time>2026-05-02T14:27:21.113Z</time></trkpt><trkpt lat="42.1001586" lon="13.3705377"><ele>817.0</ele><time>2026-05-02T14:27:24.113Z</time></trkpt><trkpt lat="42.1000642" lon="13.3704598"><ele>817.0</ele><time>2026-05-02T14:27:26.116Z</time></trkpt><trkpt lat="42.0999617" lon="13.3703682"><ele>817.0</ele><time>2026-05-02T14:27:28.119Z</time></trkpt><trkpt lat="42.099858" lon="13.3702795"><ele>817.0</ele><time>2026-05-02T14:27:30.119Z</time></trkpt><trkpt lat="42.0998006" lon="13.37022"><ele>817.0</ele><time>2026-05-02T14:27:31.122Z</time></trkpt><trkpt lat="42.0997344" lon="13.370164"><ele>817.0</ele><time>2026-05-02T14:27:32.118Z</time></trkpt><trkpt lat="42.0996719" lon="13.3701136"><ele>814.4999999999999</ele><time>2026-05-02T14:27:33.116Z</time></trkpt><trkpt lat="42.0996165" lon="13.370061"><ele>812.0</ele><time>2026-05-02T14:27:34.116Z</time></trkpt><trkpt lat="42.0995269" lon="13.3699597"><ele>809.5</ele><time>2026-05-02T14:27:36.117Z</time></trkpt><trkpt lat="42.0994573" lon="13.3698699"><ele>807.0</ele><time>2026-05-02T14:27:38.117Z</time></trkpt><trkpt lat="42.0994023" lon="13.3697865"><ele>804.4999999999999</ele><time>2026-05-02T14:27:40.113Z</time></trkpt><trkpt lat="42.0993466" lon="13.3697019"><ele>802.0</ele><time>2026-05-02T14:27:42.122Z</time></trkpt><trkpt lat="42.0992699" lon="13.369584"><ele>801.9999999999999</ele><time>2026-05-02T14:27:44.125Z</time></trkpt><trkpt lat="42.0992224" lon="13.3695132"><ele>802.0</ele><time>2026-05-02T14:27:45.123Z</time></trkpt><trkpt lat="42.0991654" lon="13.3694489"><ele>802.0</ele><time>2026-05-02T14:27:46.119Z</time></trkpt><trkpt lat="42.0991099" lon="13.3693809"><ele>802.0</ele><time>2026-05-02T14:27:47.12Z</time></trkpt><trkpt lat="42.0990568" lon="13.3693144"><ele>801.9999999999999</ele><time>2026-05-02T14:27:48.12Z</time></trkpt><trkpt lat="42.0989641" lon="13.3691948"><ele>802.0</ele><time>2026-05-02T14:27:50.124Z</time></trkpt><trkpt lat="42.0989127" lon="13.3691301"><ele>801.6</ele><time>2026-05-02T14:27:51.122Z</time></trkpt><trkpt lat="42.0988143" lon="13.3690318"><ele>801.2</ele><time>2026-05-02T14:27:53.122Z</time></trkpt><trkpt lat="42.0987126" lon="13.3689362"><ele>800.8</ele><time>2026-05-02T14:27:55.121Z</time></trkpt><trkpt lat="42.0986459" lon="13.3688952"><ele>800.4</ele><time>2026-05-02T14:27:56.117Z</time></trkpt><trkpt lat="42.0985699" lon="13.368853"><ele>800.0</ele><time>2026-05-02T14:27:57.117Z</time></trkpt><trkpt lat="42.0984898" lon="13.3688023"><ele>800.0000000000001</ele><time>2026-05-02T14:27:58.118Z</time></trkpt><trkpt lat="42.0984158" lon="13.3687594"><ele>800.0</ele><time>2026-05-02T14:27:59.116Z</time></trkpt><trkpt lat="42.0983421" lon="13.3687214"><ele>800.0</ele><time>2026-05-02T14:28:00.117Z</time></trkpt><trkpt lat="42.0982709" lon="13.3686838"><ele>800.0</ele><time>2026-05-02T14:28:01.119Z</time></trkpt><trkpt lat="42.0982076" lon="13.3686514"><ele>800.0</ele><time>2026-05-02T14:28:02.113Z</time></trkpt><trkpt lat="42.0981479" lon="13.3686153"><ele>800.0000000000001</ele><time>2026-05-02T14:28:03.117Z</time></trkpt><trkpt lat="42.0980834" lon="13.3685877"><ele>800.0</ele><time>2026-05-02T14:28:04.114Z</time></trkpt><trkpt lat="42.0980186" lon="13.3685538"><ele>797.6666666666667</ele><time>2026-05-02T14:28:05.119Z</time></trkpt><trkpt lat="42.0979518" lon="13.3685203"><ele>795.3333333333334</ele><time>2026-05-02T14:28:06.115Z</time></trkpt><trkpt lat="42.0978836" lon="13.3684862"><ele>793.0</ele><time>2026-05-02T14:28:07.117Z</time></trkpt><trkpt lat="42.0978218" lon="13.3684539"><ele>790.6666666666667</ele><time>2026-05-02T14:28:08.119Z</time></trkpt><trkpt lat="42.0977239" lon="13.3684021"><ele>788.3333333333334</ele><time>2026-05-02T14:28:10.126Z</time></trkpt><trkpt lat="42.0976267" lon="13.3683775"><ele>786.0</ele><time>2026-05-02T14:28:12.123Z</time></trkpt><trkpt lat="42.0975339" lon="13.3683568"><ele>786.0</ele><time>2026-05-02T14:28:14.125Z</time></trkpt><trkpt lat="42.0974379" lon="13.3683344"><ele>786.0</ele><time>2026-05-02T14:28:16.125Z</time></trkpt><trkpt lat="42.0973438" lon="13.3683075"><ele>786.0</ele><time>2026-05-02T14:28:18.125Z</time></trkpt><trkpt lat="42.0972613" lon="13.3682779"><ele>786.0</ele><time>2026-05-02T14:28:20.129Z</time></trkpt><trkpt lat="42.0971829" lon="13.3682432"><ele>786.0</ele><time>2026-05-02T14:28:22.132Z</time></trkpt><trkpt lat="42.0970973" lon="13.3682007"><ele>782.0</ele><time>2026-05-02T14:28:24.126Z</time></trkpt><trkpt lat="42.0969973" lon="13.368149"><ele>778.0</ele><time>2026-05-02T14:28:26.13Z</time></trkpt><trkpt lat="42.0968906" lon="13.368071"><ele>774.0</ele><time>2026-05-02T14:28:28.13Z</time></trkpt><trkpt lat="42.0967889" lon="13.367986"><ele>770.0</ele><time>2026-05-02T14:28:30.128Z</time></trkpt><trkpt lat="42.0967115" lon="13.3678944"><ele>769.0000000000001</ele><time>2026-05-02T14:28:32.124Z</time></trkpt><trkpt lat="42.0966342" lon="13.3678129"><ele>768.0</ele><time>2026-05-02T14:28:34.123Z</time></trkpt><trkpt lat="42.0965491" lon="13.3677264"><ele>767.0</ele><time>2026-05-02T14:28:36.12Z</time></trkpt><trkpt lat="42.0964951" lon="13.3676744"><ele>766.0</ele><time>2026-05-02T14:28:37.122Z</time></trkpt><trkpt lat="42.0964438" lon="13.3676225"><ele>765.0</ele><time>2026-05-02T14:28:38.119Z</time></trkpt><trkpt lat="42.0963731" lon="13.3675094"><ele>764.0</ele><time>2026-05-02T14:28:40.118Z</time></trkpt><trkpt lat="42.0962997" lon="13.3674266"><ele>761.8000000000001</ele><time>2026-05-02T14:28:42.123Z</time></trkpt><trkpt lat="42.0962271" lon="13.3673286"><ele>759.6</ele><time>2026-05-02T14:28:44.124Z</time></trkpt><trkpt lat="42.0961523" lon="13.3672521"><ele>757.4</ele><time>2026-05-02T14:28:46.116Z</time></trkpt><trkpt lat="42.0960665" lon="13.3671954"><ele>755.2</ele><time>2026-05-02T14:28:48.113Z</time></trkpt><trkpt lat="42.0959813" lon="13.3671448"><ele>753.0</ele><time>2026-05-02T14:28:50.115Z</time></trkpt><trkpt lat="42.0958804" lon="13.3671122"><ele>750.8333333333334</ele><time>2026-05-02T14:28:52.111Z</time></trkpt><trkpt lat="42.0957596" lon="13.3670866"><ele>748.6666666666666</ele><time>2026-05-02T14:28:54.117Z</time></trkpt><trkpt lat="42.0956995" lon="13.36706"><ele>746.5</ele><time>2026-05-02T14:28:55.119Z</time></trkpt><trkpt lat="42.0956302" lon="13.3670302"><ele>744.3333333333333</ele><time>2026-05-02T14:28:56.113Z</time></trkpt><trkpt lat="42.0955564" lon="13.3669962"><ele>742.1666666666666</ele><time>2026-05-02T14:28:57.115Z</time></trkpt><trkpt lat="42.0954838" lon="13.366956"><ele>740.0</ele><time>2026-05-02T14:28:58.124Z</time></trkpt><trkpt lat="42.0954027" lon="13.3669192"><ele>739.1666666666666</ele><time>2026-05-02T14:28:59.119Z</time></trkpt><trkpt lat="42.0953213" lon="13.3668787"><ele>738.3333333333333</ele><time>2026-05-02T14:29:00.12Z</time></trkpt><trkpt lat="42.0952372" lon="13.366836"><ele>737.5</ele><time>2026-05-02T14:29:01.121Z</time></trkpt><trkpt lat="42.0951606" lon="13.3667902"><ele>736.6666666666666</ele><time>2026-05-02T14:29:02.121Z</time></trkpt><trkpt lat="42.0950835" lon="13.3667446"><ele>735.8333333333334</ele><time>2026-05-02T14:29:03.12Z</time></trkpt><trkpt lat="42.0950077" lon="13.366702"><ele>735.0</ele><time>2026-05-02T14:29:04.124Z</time></trkpt><trkpt lat="42.0949287" lon="13.3666626"><ele>734.8333333333334</ele><time>2026-05-02T14:29:05.129Z</time></trkpt><trkpt lat="42.0948525" lon="13.3666329"><ele>734.6666666666666</ele><time>2026-05-02T14:29:06.118Z</time></trkpt><trkpt lat="42.0947757" lon="13.3666116"><ele>734.5</ele><time>2026-05-02T14:29:07.122Z</time></trkpt><trkpt lat="42.0947039" lon="13.3666055"><ele>734.3333333333333</ele><time>2026-05-02T14:29:08.122Z</time></trkpt><trkpt lat="42.0946075" lon="13.3665979"><ele>734.1666666666666</ele><time>2026-05-02T14:29:10.114Z</time></trkpt><trkpt lat="42.0945274" lon="13.3665571"><ele>734.0</ele><time>2026-05-02T14:29:17.111Z</time></trkpt><trkpt lat="42.0944706" lon="13.3665139"><ele>734.0</ele><time>2026-05-02T14:29:19.112Z</time></trkpt><trkpt lat="42.0943784" lon="13.3664243"><ele>734.0</ele><time>2026-05-02T14:29:21.109Z</time></trkpt><trkpt lat="42.0943415" lon="13.3663477"><ele>734.0</ele><time>2026-05-02T14:29:22.116Z</time></trkpt><trkpt lat="42.0942978" lon="13.3662052"><ele>734.0</ele><time>2026-05-02T14:29:24.109Z</time></trkpt><trkpt lat="42.0943688" lon="13.3660484"><ele>734.0</ele><time>2026-05-02T14:29:26.111Z</time></trkpt><trkpt lat="42.0944364" lon="13.3659681"><ele>734.4000000000001</ele><time>2026-05-02T14:29:27.103Z</time></trkpt><trkpt lat="42.0945111" lon="13.3658865"><ele>734.8</ele><time>2026-05-02T14:29:28.113Z</time></trkpt><trkpt lat="42.0945914" lon="13.3657988"><ele>735.2</ele><time>2026-05-02T14:29:29.113Z</time></trkpt><trkpt lat="42.0946778" lon="13.3657044"><ele>735.5999999999999</ele><time>2026-05-02T14:29:30.12Z</time></trkpt><trkpt lat="42.0947625" lon="13.3655963"><ele>736.0</ele><time>2026-05-02T14:29:31.119Z</time></trkpt><trkpt lat="42.0948486" lon="13.3654749"><ele>734.25</ele><time>2026-05-02T14:29:32.116Z</time></trkpt><trkpt lat="42.0949325" lon="13.3653533"><ele>732.5</ele><time>2026-05-02T14:29:33.113Z</time></trkpt><trkpt lat="42.0950182" lon="13.365234"><ele>730.75</ele><time>2026-05-02T14:29:34.116Z</time></trkpt><trkpt lat="42.0950961" lon="13.3651194"><ele>729.0</ele><time>2026-05-02T14:29:35.113Z</time></trkpt><trkpt lat="42.095165" lon="13.3650086"><ele>729.0</ele><time>2026-05-02T14:29:36.111Z</time></trkpt><trkpt lat="42.0952337" lon="13.3649021"><ele>729.0</ele><time>2026-05-02T14:29:37.109Z</time></trkpt><trkpt lat="42.0953018" lon="13.364809"><ele>729.0</ele><time>2026-05-02T14:29:38.107Z</time></trkpt><trkpt lat="42.095367" lon="13.3647207"><ele>729.0</ele><time>2026-05-02T14:29:39.114Z</time></trkpt><trkpt lat="42.095429" lon="13.3646265"><ele>729.0</ele><time>2026-05-02T14:29:40.114Z</time></trkpt><trkpt lat="42.09549" lon="13.3645445"><ele>728.8000000000001</ele><time>2026-05-02T14:29:41.111Z</time></trkpt><trkpt lat="42.0955607" lon="13.3644725"><ele>728.6</ele><time>2026-05-02T14:29:42.112Z</time></trkpt><trkpt lat="42.0956285" lon="13.3644013"><ele>728.4</ele><time>2026-05-02T14:29:43.11Z</time></trkpt><trkpt lat="42.0956985" lon="13.3643246"><ele>728.2</ele><time>2026-05-02T14:29:44.116Z</time></trkpt><trkpt lat="42.0957699" lon="13.3642372"><ele>728.0</ele><time>2026-05-02T14:29:45.112Z</time></trkpt><trkpt lat="42.0958408" lon="13.3641269"><ele>727.25</ele><time>2026-05-02T14:29:46.111Z</time></trkpt><trkpt lat="42.0959148" lon="13.3640119"><ele>726.5</ele><time>2026-05-02T14:29:47.11Z</time></trkpt><trkpt lat="42.0960012" lon="13.3638845"><ele>725.75</ele><time>2026-05-02T14:29:48.11Z</time></trkpt><trkpt lat="42.0960942" lon="13.3637438"><ele>725.0</ele><time>2026-05-02T14:29:49.111Z</time></trkpt><trkpt lat="42.0961934" lon="13.3635962"><ele>724.0</ele><time>2026-05-02T14:29:50.11Z</time></trkpt><trkpt lat="42.0963" lon="13.3634186"><ele>723.0</ele><time>2026-05-02T14:29:51.11Z</time></trkpt><trkpt lat="42.096414" lon="13.3632582"><ele>722.0</ele><time>2026-05-02T14:29:52.111Z</time></trkpt><trkpt lat="42.0965265" lon="13.3631011"><ele>720.0</ele><time>2026-05-02T14:29:53.113Z</time></trkpt><trkpt lat="42.0966481" lon="13.3629496"><ele>718.0</ele><time>2026-05-02T14:29:54.111Z</time></trkpt><trkpt lat="42.0967438" lon="13.3627862"><ele>716.0</ele><time>2026-05-02T14:29:55.123Z</time></trkpt><trkpt lat="42.0968448" lon="13.3626292"><ele>716.0</ele><time>2026-05-02T14:29:56.116Z</time></trkpt><trkpt lat="42.0969434" lon="13.3624795"><ele>716.0</ele><time>2026-05-02T14:29:57.11Z</time></trkpt><trkpt lat="42.0970555" lon="13.3623135"><ele>716.0</ele><time>2026-05-02T14:29:58.116Z</time></trkpt><trkpt lat="42.0971616" lon="13.3621373"><ele>715.6666666666666</ele><time>2026-05-02T14:29:59.112Z</time></trkpt><trkpt lat="42.0972629" lon="13.3619895"><ele>715.3333333333334</ele><time>2026-05-02T14:30:00.12Z</time></trkpt><trkpt lat="42.0973529" lon="13.3618348"><ele>715.0</ele><time>2026-05-02T14:30:01.113Z</time></trkpt><trkpt lat="42.0974678" lon="13.3616787"><ele>714.6666666666667</ele><time>2026-05-02T14:30:02.118Z</time></trkpt><trkpt lat="42.0975694" lon="13.3615135"><ele>714.3333333333334</ele><time>2026-05-02T14:30:03.11Z</time></trkpt><trkpt lat="42.0976758" lon="13.3613577"><ele>714.0</ele><time>2026-05-02T14:30:04.114Z</time></trkpt><trkpt lat="42.0977757" lon="13.361216"><ele>714.0</ele><time>2026-05-02T14:30:05.113Z</time></trkpt><trkpt lat="42.0978661" lon="13.3610737"><ele>714.0</ele><time>2026-05-02T14:30:06.114Z</time></trkpt><trkpt lat="42.0979418" lon="13.3609265"><ele>714.0</ele><time>2026-05-02T14:30:07.114Z</time></trkpt><trkpt lat="42.0980216" lon="13.360796"><ele>714.0</ele><time>2026-05-02T14:30:08.114Z</time></trkpt><trkpt lat="42.0981004" lon="13.3606831"><ele>714.0</ele><time>2026-05-02T14:30:09.12Z</time></trkpt><trkpt lat="42.0982002" lon="13.3605746"><ele>714.0</ele><time>2026-05-02T14:30:10.115Z</time></trkpt><trkpt lat="42.0982942" lon="13.3604564"><ele>714.0</ele><time>2026-05-02T14:30:11.117Z</time></trkpt><trkpt lat="42.0983748" lon="13.360335"><ele>714.0</ele><time>2026-05-02T14:30:12.114Z</time></trkpt><trkpt lat="42.0984685" lon="13.3602103"><ele>712.75</ele><time>2026-05-02T14:30:13.115Z</time></trkpt><trkpt lat="42.0985725" lon="13.3600945"><ele>711.5</ele><time>2026-05-02T14:30:14.118Z</time></trkpt><trkpt lat="42.0986728" lon="13.3599709"><ele>710.25</ele><time>2026-05-02T14:30:15.116Z</time></trkpt><trkpt lat="42.0987702" lon="13.3598763"><ele>709.0</ele><time>2026-05-02T14:30:16.117Z</time></trkpt><trkpt lat="42.098889" lon="13.3597535"><ele>708.6666666666667</ele><time>2026-05-02T14:30:17.114Z</time></trkpt><trkpt lat="42.0990076" lon="13.3596177"><ele>708.3333333333334</ele><time>2026-05-02T14:30:18.117Z</time></trkpt><trkpt lat="42.0991341" lon="13.3594922"><ele>708.0</ele><time>2026-05-02T14:30:19.12Z</time></trkpt><trkpt lat="42.0992366" lon="13.3593647"><ele>708.0</ele><time>2026-05-02T14:30:20.117Z</time></trkpt><trkpt lat="42.0993432" lon="13.3592196"><ele>708.0</ele><time>2026-05-02T14:30:21.116Z</time></trkpt><trkpt lat="42.0994493" lon="13.3590878"><ele>708.0</ele><time>2026-05-02T14:30:22.116Z</time></trkpt><trkpt lat="42.0995594" lon="13.3589498"><ele>708.0</ele><time>2026-05-02T14:30:23.118Z</time></trkpt><trkpt lat="42.0996565" lon="13.3588081"><ele>708.0</ele><time>2026-05-02T14:30:24.116Z</time></trkpt><trkpt lat="42.0997413" lon="13.3586816"><ele>708.0</ele><time>2026-05-02T14:30:25.12Z</time></trkpt><trkpt lat="42.0998305" lon="13.3585509"><ele>708.0</ele><time>2026-05-02T14:30:26.115Z</time></trkpt><trkpt lat="42.0998958" lon="13.3584158"><ele>708.0</ele><time>2026-05-02T14:30:27.113Z</time></trkpt><trkpt lat="42.0999912" lon="13.3583013"><ele>708.25</ele><time>2026-05-02T14:30:28.119Z</time></trkpt><trkpt lat="42.1001071" lon="13.3581896"><ele>708.5</ele><time>2026-05-02T14:30:29.113Z</time></trkpt><trkpt lat="42.1002214" lon="13.3580579"><ele>708.75</ele><time>2026-05-02T14:30:30.118Z</time></trkpt><trkpt lat="42.1003328" lon="13.3579445"><ele>709.0</ele><time>2026-05-02T14:30:31.112Z</time></trkpt><trkpt lat="42.1004567" lon="13.3578138"><ele>709.0</ele><time>2026-05-02T14:30:32.11Z</time></trkpt><trkpt lat="42.1005646" lon="13.3576955"><ele>709.0</ele><time>2026-05-02T14:30:33.113Z</time></trkpt><trkpt lat="42.1006977" lon="13.3575697"><ele>709.0</ele><time>2026-05-02T14:30:34.116Z</time></trkpt><trkpt lat="42.1007979" lon="13.3574376"><ele>709.0</ele><time>2026-05-02T14:30:35.107Z</time></trkpt><trkpt lat="42.1009114" lon="13.3573216"><ele>709.25</ele><time>2026-05-02T14:30:36.114Z</time></trkpt><trkpt lat="42.1010062" lon="13.3571666"><ele>709.5</ele><time>2026-05-02T14:30:37.106Z</time></trkpt><trkpt lat="42.1010882" lon="13.357058"><ele>709.75</ele><time>2026-05-02T14:30:38.106Z</time></trkpt><trkpt lat="42.1012347" lon="13.3569975"><ele>710.0</ele><time>2026-05-02T14:30:39.108Z</time></trkpt><trkpt lat="42.1013707" lon="13.3569199"><ele>710.0</ele><time>2026-05-02T14:30:40.105Z</time></trkpt><trkpt lat="42.1015154" lon="13.3568416"><ele>710.0</ele><time>2026-05-02T14:30:41.111Z</time></trkpt><trkpt lat="42.1016497" lon="13.3567084"><ele>710.0</ele><time>2026-05-02T14:30:42.111Z</time></trkpt><trkpt lat="42.1017616" lon="13.3565697"><ele>710.75</ele><time>2026-05-02T14:30:43.117Z</time></trkpt><trkpt lat="42.1018666" lon="13.3564328"><ele>711.5</ele><time>2026-05-02T14:30:44.12Z</time></trkpt><trkpt lat="42.101955" lon="13.3562872"><ele>712.25</ele><time>2026-05-02T14:30:45.115Z</time></trkpt><trkpt lat="42.1020611" lon="13.3561454"><ele>713.0</ele><time>2026-05-02T14:30:46.117Z</time></trkpt><trkpt lat="42.1021668" lon="13.3559913"><ele>713.0</ele><time>2026-05-02T14:30:47.112Z</time></trkpt><trkpt lat="42.1022779" lon="13.3558716"><ele>713.0</ele><time>2026-05-02T14:30:48.11Z</time></trkpt><trkpt lat="42.1023807" lon="13.3557633"><ele>713.0</ele><time>2026-05-02T14:30:49.112Z</time></trkpt><trkpt lat="42.1024831" lon="13.355617"><ele>713.0</ele><time>2026-05-02T14:30:50.111Z</time></trkpt><trkpt lat="42.1026021" lon="13.3554737"><ele>713.0</ele><time>2026-05-02T14:30:51.108Z</time></trkpt><trkpt lat="42.1027038" lon="13.355353"><ele>713.0</ele><time>2026-05-02T14:30:52.114Z</time></trkpt><trkpt lat="42.1028148" lon="13.3552277"><ele>713.0</ele><time>2026-05-02T14:30:53.111Z</time></trkpt><trkpt lat="42.1029311" lon="13.3550801"><ele>713.0</ele><time>2026-05-02T14:30:54.111Z</time></trkpt><trkpt lat="42.1030284" lon="13.3549309"><ele>713.0</ele><time>2026-05-02T14:30:55.112Z</time></trkpt><trkpt lat="42.1031476" lon="13.3548059"><ele>713.0</ele><time>2026-05-02T14:30:56.121Z</time></trkpt><trkpt lat="42.1032639" lon="13.3546589"><ele>713.0</ele><time>2026-05-02T14:30:57.119Z</time></trkpt><trkpt lat="42.1033814" lon="13.3545144"><ele>716.3333333333333</ele><time>2026-05-02T14:30:58.121Z</time></trkpt><trkpt lat="42.1034951" lon="13.3543655"><ele>719.6666666666666</ele><time>2026-05-02T14:30:59.123Z</time></trkpt><trkpt lat="42.1036067" lon="13.3542156"><ele>723.0</ele><time>2026-05-02T14:31:00.125Z</time></trkpt><trkpt lat="42.1037209" lon="13.354064"><ele>723.0</ele><time>2026-05-02T14:31:01.122Z</time></trkpt><trkpt lat="42.1038321" lon="13.3539247"><ele>723.0</ele><time>2026-05-02T14:31:02.128Z</time></trkpt><trkpt lat="42.1039373" lon="13.3537684"><ele>723.0</ele><time>2026-05-02T14:31:03.121Z</time></trkpt><trkpt lat="42.1040419" lon="13.3536308"><ele>725.3333333333334</ele><time>2026-05-02T14:31:04.126Z</time></trkpt><trkpt lat="42.1041406" lon="13.3534862"><ele>727.6666666666667</ele><time>2026-05-02T14:31:05.12Z</time></trkpt><trkpt lat="42.1042591" lon="13.3533363"><ele>730.0</ele><time>2026-05-02T14:31:06.121Z</time></trkpt><trkpt lat="42.104389" lon="13.3532253"><ele>730.0</ele><time>2026-05-02T14:31:07.114Z</time></trkpt><trkpt lat="42.1045122" lon="13.353112"><ele>730.0</ele><time>2026-05-02T14:31:08.116Z</time></trkpt><trkpt lat="42.1046593" lon="13.353024"><ele>730.0</ele><time>2026-05-02T14:31:09.116Z</time></trkpt><trkpt lat="42.1047999" lon="13.3529389"><ele>733.3333333333334</ele><time>2026-05-02T14:31:10.117Z</time></trkpt><trkpt lat="42.1049575" lon="13.3528249"><ele>736.6666666666666</ele><time>2026-05-02T14:31:11.115Z</time></trkpt><trkpt lat="42.105091" lon="13.3527263"><ele>740.0</ele><time>2026-05-02T14:31:12.117Z</time></trkpt><trkpt lat="42.1052258" lon="13.3526189"><ele>740.0</ele><time>2026-05-02T14:31:13.112Z</time></trkpt><trkpt lat="42.1053514" lon="13.3525149"><ele>740.0</ele><time>2026-05-02T14:31:14.118Z</time></trkpt><trkpt lat="42.1054451" lon="13.3524336"><ele>740.0</ele><time>2026-05-02T14:31:15.113Z</time></trkpt><trkpt lat="42.1055406" lon="13.3523271"><ele>740.0</ele><time>2026-05-02T14:31:16.117Z</time></trkpt><trkpt lat="42.1056497" lon="13.3522284"><ele>741.0</ele><time>2026-05-02T14:31:17.119Z</time></trkpt><trkpt lat="42.1057509" lon="13.3521455"><ele>742.0</ele><time>2026-05-02T14:31:18.114Z</time></trkpt><trkpt lat="42.1058617" lon="13.3520477"><ele>743.0</ele><time>2026-05-02T14:31:19.115Z</time></trkpt><trkpt lat="42.1059749" lon="13.3519539"><ele>744.0</ele><time>2026-05-02T14:31:20.117Z</time></trkpt><trkpt lat="42.1060748" lon="13.3518682"><ele>744.0</ele><time>2026-05-02T14:31:21.113Z</time></trkpt><trkpt lat="42.1061714" lon="13.3517893"><ele>744.0</ele><time>2026-05-02T14:31:22.118Z</time></trkpt><trkpt lat="42.1062612" lon="13.3517122"><ele>744.0</ele><time>2026-05-02T14:31:23.113Z</time></trkpt><trkpt lat="42.1063473" lon="13.3516434"><ele>744.0</ele><time>2026-05-02T14:31:24.114Z</time></trkpt><trkpt lat="42.1064301" lon="13.3515802"><ele>744.0</ele><time>2026-05-02T14:31:25.119Z</time></trkpt><trkpt lat="42.1065" lon="13.3515189"><ele>744.0</ele><time>2026-05-02T14:31:26.117Z</time></trkpt><trkpt lat="42.1065745" lon="13.3514717"><ele>744.0</ele><time>2026-05-02T14:31:27.116Z</time></trkpt><trkpt lat="42.1066539" lon="13.3514351"><ele>744.0</ele><time>2026-05-02T14:31:28.121Z</time></trkpt><trkpt lat="42.1067473" lon="13.3514039"><ele>744.0</ele><time>2026-05-02T14:31:29.114Z</time></trkpt><trkpt lat="42.1068348" lon="13.3513755"><ele>744.0</ele><time>2026-05-02T14:31:30.111Z</time></trkpt><trkpt lat="42.1069147" lon="13.3513496"><ele>744.0</ele><time>2026-05-02T14:31:31.114Z</time></trkpt><trkpt lat="42.1069769" lon="13.3513269"><ele>744.6</ele><time>2026-05-02T14:31:32.113Z</time></trkpt><trkpt lat="42.107055" lon="13.3512185"><ele>745.2</ele><time>2026-05-02T14:31:34.109Z</time></trkpt><trkpt lat="42.1070817" lon="13.3511291"><ele>745.8000000000001</ele><time>2026-05-02T14:31:35.113Z</time></trkpt><trkpt lat="42.1071041" lon="13.3510132"><ele>746.4000000000001</ele><time>2026-05-02T14:31:36.105Z</time></trkpt><trkpt lat="42.1071196" lon="13.350885"><ele>747.0</ele><time>2026-05-02T14:31:37.113Z</time></trkpt><trkpt lat="42.1071387" lon="13.3507532"><ele>747.0</ele><time>2026-05-02T14:31:38.108Z</time></trkpt><trkpt lat="42.107159" lon="13.3506255"><ele>747.0</ele><time>2026-05-02T14:31:39.109Z</time></trkpt><trkpt lat="42.1071785" lon="13.3505009"><ele>747.0</ele><time>2026-05-02T14:31:40.106Z</time></trkpt><trkpt lat="42.1071902" lon="13.3503878"><ele>747.0</ele><time>2026-05-02T14:31:41.105Z</time></trkpt><trkpt lat="42.1071989" lon="13.3502855"><ele>747.0</ele><time>2026-05-02T14:31:42.11Z</time></trkpt><trkpt lat="42.1072154" lon="13.3501862"><ele>747.0</ele><time>2026-05-02T14:31:43.112Z</time></trkpt><trkpt lat="42.1072459" lon="13.3500792"><ele>747.4000000000001</ele><time>2026-05-02T14:31:44.105Z</time></trkpt><trkpt lat="42.107291" lon="13.3499725"><ele>747.8000000000001</ele><time>2026-05-02T14:31:45.104Z</time></trkpt><trkpt lat="42.1073654" lon="13.349855"><ele>748.2</ele><time>2026-05-02T14:31:46.112Z</time></trkpt><trkpt lat="42.1074394" lon="13.3497343"><ele>748.6</ele><time>2026-05-02T14:31:47.106Z</time></trkpt><trkpt lat="42.1075219" lon="13.3496205"><ele>749.0</ele><time>2026-05-02T14:31:48.108Z</time></trkpt><trkpt lat="42.1076085" lon="13.3495064"><ele>749.4000000000001</ele><time>2026-05-02T14:31:49.106Z</time></trkpt><trkpt lat="42.1076907" lon="13.3493991"><ele>749.8</ele><time>2026-05-02T14:31:50.11Z</time></trkpt><trkpt lat="42.1077687" lon="13.3493105"><ele>750.2</ele><time>2026-05-02T14:31:51.112Z</time></trkpt><trkpt lat="42.1078276" lon="13.3492268"><ele>750.5999999999999</ele><time>2026-05-02T14:31:52.111Z</time></trkpt><trkpt lat="42.107864" lon="13.3491253"><ele>751.0</ele><time>2026-05-02T14:31:53.11Z</time></trkpt><trkpt lat="42.10788" lon="13.3490002"><ele>751.0</ele><time>2026-05-02T14:31:54.106Z</time></trkpt><trkpt lat="42.1078911" lon="13.3488561"><ele>751.0</ele><time>2026-05-02T14:31:55.106Z</time></trkpt><trkpt lat="42.1079018" lon="13.3486953"><ele>751.0</ele><time>2026-05-02T14:31:56.108Z</time></trkpt><trkpt lat="42.1079238" lon="13.3485368"><ele>751.0</ele><time>2026-05-02T14:31:57.101Z</time></trkpt><trkpt lat="42.107949" lon="13.3483908"><ele>751.0</ele><time>2026-05-02T14:31:58.115Z</time></trkpt><trkpt lat="42.1079666" lon="13.3482603"><ele>751.0</ele><time>2026-05-02T14:31:59.104Z</time></trkpt><trkpt lat="42.107987" lon="13.3481358"><ele>751.0</ele><time>2026-05-02T14:32:00.117Z</time></trkpt><trkpt lat="42.1079991" lon="13.3480279"><ele>751.0</ele><time>2026-05-02T14:32:01.108Z</time></trkpt><trkpt lat="42.1080137" lon="13.3479364"><ele>751.0</ele><time>2026-05-02T14:32:02.107Z</time></trkpt><trkpt lat="42.1080167" lon="13.3478203"><ele>751.0</ele><time>2026-05-02T14:32:04.109Z</time></trkpt><trkpt lat="42.1080546" lon="13.3477183"><ele>751.4</ele><time>2026-05-02T14:32:13.109Z</time></trkpt><trkpt lat="42.1081785" lon="13.3476847"><ele>751.8</ele><time>2026-05-02T14:32:15.105Z</time></trkpt><trkpt lat="42.1082662" lon="13.3476505"><ele>752.1999999999999</ele><time>2026-05-02T14:32:16.109Z</time></trkpt><trkpt lat="42.1083642" lon="13.3475915"><ele>752.5999999999999</ele><time>2026-05-02T14:32:17.106Z</time></trkpt><trkpt lat="42.1084701" lon="13.3475298"><ele>753.0</ele><time>2026-05-02T14:32:18.108Z</time></trkpt><trkpt lat="42.1085787" lon="13.3474709"><ele>754.25</ele><time>2026-05-02T14:32:19.108Z</time></trkpt><trkpt lat="42.108692" lon="13.347415"><ele>755.5</ele><time>2026-05-02T14:32:20.102Z</time></trkpt><trkpt lat="42.1088139" lon="13.3473615"><ele>756.75</ele><time>2026-05-02T14:32:21.106Z</time></trkpt><trkpt lat="42.1089404" lon="13.3473154"><ele>758.0</ele><time>2026-05-02T14:32:22.109Z</time></trkpt><trkpt lat="42.1090746" lon="13.3472794"><ele>759.75</ele><time>2026-05-02T14:32:23.113Z</time></trkpt><trkpt lat="42.1092155" lon="13.3472374"><ele>761.5</ele><time>2026-05-02T14:32:24.109Z</time></trkpt><trkpt lat="42.1093512" lon="13.3472282"><ele>763.25</ele><time>2026-05-02T14:32:25.112Z</time></trkpt><trkpt lat="42.1094942" lon="13.3471763"><ele>765.0</ele><time>2026-05-02T14:32:26.11Z</time></trkpt><trkpt lat="42.109631" lon="13.3471391"><ele>765.0</ele><time>2026-05-02T14:32:27.112Z</time></trkpt><trkpt lat="42.1097565" lon="13.3471135"><ele>765.0</ele><time>2026-05-02T14:32:28.109Z</time></trkpt><trkpt lat="42.1098964" lon="13.3470925"><ele>765.0</ele><time>2026-05-02T14:32:29.116Z</time></trkpt><trkpt lat="42.1100301" lon="13.3470683"><ele>765.0</ele><time>2026-05-02T14:32:30.114Z</time></trkpt><trkpt lat="42.1101556" lon="13.347015"><ele>767.0</ele><time>2026-05-02T14:32:31.119Z</time></trkpt><trkpt lat="42.1102943" lon="13.3469683"><ele>769.0</ele><time>2026-05-02T14:32:32.115Z</time></trkpt><trkpt lat="42.1104345" lon="13.3469182"><ele>771.0</ele><time>2026-05-02T14:32:33.115Z</time></trkpt><trkpt lat="42.1105727" lon="13.3468807"><ele>773.0</ele><time>2026-05-02T14:32:34.122Z</time></trkpt><trkpt lat="42.1107342" lon="13.3468229"><ele>774.6666666666667</ele><time>2026-05-02T14:32:35.12Z</time></trkpt><trkpt lat="42.1108954" lon="13.3467679"><ele>776.3333333333333</ele><time>2026-05-02T14:32:36.115Z</time></trkpt><trkpt lat="42.1110445" lon="13.3466916"><ele>778.0</ele><time>2026-05-02T14:32:37.117Z</time></trkpt><trkpt lat="42.1111941" lon="13.3466149"><ele>778.0</ele><time>2026-05-02T14:32:38.117Z</time></trkpt><trkpt lat="42.111346" lon="13.3465433"><ele>778.0</ele><time>2026-05-02T14:32:39.116Z</time></trkpt><trkpt lat="42.1115036" lon="13.3464774"><ele>778.0</ele><time>2026-05-02T14:32:40.121Z</time></trkpt><trkpt lat="42.1116474" lon="13.3463766"><ele>780.3333333333333</ele><time>2026-05-02T14:32:41.115Z</time></trkpt><trkpt lat="42.1118078" lon="13.3463012"><ele>782.6666666666667</ele><time>2026-05-02T14:32:42.118Z</time></trkpt><trkpt lat="42.1119756" lon="13.3462179"><ele>785.0</ele><time>2026-05-02T14:32:43.115Z</time></trkpt><trkpt lat="42.1121236" lon="13.3461431"><ele>785.0</ele><time>2026-05-02T14:32:44.118Z</time></trkpt><trkpt lat="42.1122815" lon="13.3460553"><ele>785.0</ele><time>2026-05-02T14:32:45.114Z</time></trkpt><trkpt lat="42.1124419" lon="13.3459751"><ele>785.0</ele><time>2026-05-02T14:32:46.116Z</time></trkpt><trkpt lat="42.1126065" lon="13.3458707"><ele>787.6666666666667</ele><time>2026-05-02T14:32:47.116Z</time></trkpt><trkpt lat="42.1127632" lon="13.3457572"><ele>790.3333333333333</ele><time>2026-05-02T14:32:48.116Z</time></trkpt><trkpt lat="42.1129092" lon="13.3456564"><ele>793.0</ele><time>2026-05-02T14:32:49.116Z</time></trkpt><trkpt lat="42.1130763" lon="13.3455644"><ele>791.3333333333333</ele><time>2026-05-02T14:32:50.115Z</time></trkpt><trkpt lat="42.1132272" lon="13.3454418"><ele>789.6666666666667</ele><time>2026-05-02T14:32:51.112Z</time></trkpt><trkpt lat="42.1134004" lon="13.3453418"><ele>788.0</ele><time>2026-05-02T14:32:52.115Z</time></trkpt><trkpt lat="42.1135465" lon="13.3452195"><ele>791.3333333333334</ele><time>2026-05-02T14:32:53.116Z</time></trkpt><trkpt lat="42.1136824" lon="13.3451075"><ele>794.6666666666667</ele><time>2026-05-02T14:32:54.117Z</time></trkpt><trkpt lat="42.1138309" lon="13.345012"><ele>798.0</ele><time>2026-05-02T14:32:55.12Z</time></trkpt><trkpt lat="42.1139767" lon="13.3448991"><ele>800.0</ele><time>2026-05-02T14:32:56.115Z</time></trkpt><trkpt lat="42.1141277" lon="13.344792"><ele>802.0</ele><time>2026-05-02T14:32:57.118Z</time></trkpt><trkpt lat="42.1142755" lon="13.3446892"><ele>804.0</ele><time>2026-05-02T14:32:58.124Z</time></trkpt><trkpt lat="42.114383" lon="13.3446432"><ele>804.0</ele><time>2026-05-02T14:32:59.119Z</time></trkpt><trkpt lat="42.1145226" lon="13.3445679"><ele>804.0</ele><time>2026-05-02T14:33:00.127Z</time></trkpt><trkpt lat="42.1146649" lon="13.3445414"><ele>804.0</ele><time>2026-05-02T14:33:01.119Z</time></trkpt><trkpt lat="42.114824" lon="13.3445476"><ele>805.3333333333333</ele><time>2026-05-02T14:33:02.117Z</time></trkpt><trkpt lat="42.1149931" lon="13.3445638"><ele>806.6666666666666</ele><time>2026-05-02T14:33:03.119Z</time></trkpt><trkpt lat="42.1151594" lon="13.3445542"><ele>808.0</ele><time>2026-05-02T14:33:04.119Z</time></trkpt><trkpt lat="42.1153405" lon="13.3445363"><ele>808.0</ele><time>2026-05-02T14:33:05.12Z</time></trkpt><trkpt lat="42.1155141" lon="13.3445157"><ele>808.0</ele><time>2026-05-02T14:33:06.119Z</time></trkpt><trkpt lat="42.115698" lon="13.3444866"><ele>808.0</ele><time>2026-05-02T14:33:07.118Z</time></trkpt><trkpt lat="42.1158899" lon="13.3444625"><ele>808.6666666666666</ele><time>2026-05-02T14:33:08.119Z</time></trkpt><trkpt lat="42.1160647" lon="13.3444421"><ele>809.3333333333333</ele><time>2026-05-02T14:33:09.115Z</time></trkpt><trkpt lat="42.1162437" lon="13.3444172"><ele>810.0</ele><time>2026-05-02T14:33:10.114Z</time></trkpt><trkpt lat="42.1164244" lon="13.344411"><ele>813.0</ele><time>2026-05-02T14:33:11.114Z</time></trkpt><trkpt lat="42.1165974" lon="13.3443838"><ele>816.0</ele><time>2026-05-02T14:33:12.114Z</time></trkpt><trkpt lat="42.1167531" lon="13.3443417"><ele>819.0</ele><time>2026-05-02T14:33:13.114Z</time></trkpt><trkpt lat="42.1169169" lon="13.3443078"><ele>819.0</ele><time>2026-05-02T14:33:14.117Z</time></trkpt><trkpt lat="42.1171114" lon="13.344276"><ele>819.0</ele><time>2026-05-02T14:33:15.111Z</time></trkpt><trkpt lat="42.1172657" lon="13.3442511"><ele>819.0</ele><time>2026-05-02T14:33:16.113Z</time></trkpt><trkpt lat="42.1174465" lon="13.3442375"><ele>821.3333333333333</ele><time>2026-05-02T14:33:17.11Z</time></trkpt><trkpt lat="42.1176242" lon="13.3441947"><ele>823.6666666666666</ele><time>2026-05-02T14:33:18.11Z</time></trkpt><trkpt lat="42.1177781" lon="13.3441832"><ele>826.0</ele><time>2026-05-02T14:33:19.108Z</time></trkpt><trkpt lat="42.1179344" lon="13.3441773"><ele>826.0</ele><time>2026-05-02T14:33:20.113Z</time></trkpt><trkpt lat="42.1180901" lon="13.3441563"><ele>826.0</ele><time>2026-05-02T14:33:21.109Z</time></trkpt><trkpt lat="42.1182544" lon="13.3441877"><ele>826.0</ele><time>2026-05-02T14:33:22.11Z</time></trkpt><trkpt lat="42.1184063" lon="13.3441987"><ele>827.3333333333333</ele><time>2026-05-02T14:33:23.111Z</time></trkpt><trkpt lat="42.1185679" lon="13.344233"><ele>828.6666666666667</ele><time>2026-05-02T14:33:24.113Z</time></trkpt><trkpt lat="42.1187184" lon="13.3442595"><ele>830.0</ele><time>2026-05-02T14:33:25.114Z</time></trkpt><trkpt lat="42.1188777" lon="13.3442972"><ele>830.0</ele><time>2026-05-02T14:33:26.109Z</time></trkpt><trkpt lat="42.1190201" lon="13.3443286"><ele>830.0</ele><time>2026-05-02T14:33:27.113Z</time></trkpt><trkpt lat="42.1191334" lon="13.3443429"><ele>830.0</ele><time>2026-05-02T14:33:28.117Z</time></trkpt><trkpt lat="42.1192719" lon="13.3443511"><ele>830.0</ele><time>2026-05-02T14:33:29.116Z</time></trkpt><trkpt lat="42.1194065" lon="13.34435"><ele>832.25</ele><time>2026-05-02T14:33:30.117Z</time></trkpt><trkpt lat="42.1195381" lon="13.3443445"><ele>834.5</ele><time>2026-05-02T14:33:31.118Z</time></trkpt><trkpt lat="42.1196857" lon="13.3443542"><ele>836.75</ele><time>2026-05-02T14:33:32.115Z</time></trkpt><trkpt lat="42.1198325" lon="13.3443327"><ele>839.0</ele><time>2026-05-02T14:33:33.113Z</time></trkpt><trkpt lat="42.1199729" lon="13.3442637"><ele>840.75</ele><time>2026-05-02T14:33:34.112Z</time></trkpt><trkpt lat="42.120108" lon="13.3442023"><ele>842.5</ele><time>2026-05-02T14:33:35.118Z</time></trkpt><trkpt lat="42.1202627" lon="13.3441601"><ele>844.25</ele><time>2026-05-02T14:33:36.117Z</time></trkpt><trkpt lat="42.1204008" lon="13.3441023"><ele>846.0</ele><time>2026-05-02T14:33:37.108Z</time></trkpt><trkpt lat="42.1205396" lon="13.3440785"><ele>846.0</ele><time>2026-05-02T14:33:38.115Z</time></trkpt><trkpt lat="42.120684" lon="13.3440107"><ele>846.0</ele><time>2026-05-02T14:33:39.107Z</time></trkpt><trkpt lat="42.1208317" lon="13.343962"><ele>846.0</ele><time>2026-05-02T14:33:40.107Z</time></trkpt><trkpt lat="42.1209613" lon="13.3439171"><ele>846.0</ele><time>2026-05-02T14:33:41.107Z</time></trkpt><trkpt lat="42.1211016" lon="13.3438621"><ele>848.25</ele><time>2026-05-02T14:33:42.112Z</time></trkpt><trkpt lat="42.121227" lon="13.3438066"><ele>850.5</ele><time>2026-05-02T14:33:43.111Z</time></trkpt><trkpt lat="42.1213556" lon="13.3437386"><ele>852.75</ele><time>2026-05-02T14:33:44.113Z</time></trkpt><trkpt lat="42.1214791" lon="13.3436405"><ele>855.0</ele><time>2026-05-02T14:33:45.104Z</time></trkpt><trkpt lat="42.1215799" lon="13.3435433"><ele>857.5</ele><time>2026-05-02T14:33:46.105Z</time></trkpt><trkpt lat="42.1216756" lon="13.3434592"><ele>860.0</ele><time>2026-05-02T14:33:47.108Z</time></trkpt><trkpt lat="42.1217281" lon="13.3432976"><ele>862.5</ele><time>2026-05-02T14:33:48.102Z</time></trkpt><trkpt lat="42.1217521" lon="13.3431497"><ele>865.0</ele><time>2026-05-02T14:33:49.104Z</time></trkpt><trkpt lat="42.1217403" lon="13.3429772"><ele>866.5</ele><time>2026-05-02T14:33:50.102Z</time></trkpt><trkpt lat="42.1217234" lon="13.3428084"><ele>868.0</ele><time>2026-05-02T14:33:51.102Z</time></trkpt><trkpt lat="42.1217102" lon="13.3426406"><ele>869.5</ele><time>2026-05-02T14:33:52.108Z</time></trkpt><trkpt lat="42.1216881" lon="13.3424717"><ele>871.0</ele><time>2026-05-02T14:33:53.105Z</time></trkpt><trkpt lat="42.1216592" lon="13.3422947"><ele>873.25</ele><time>2026-05-02T14:33:54.108Z</time></trkpt><trkpt lat="42.1216278" lon="13.3421248"><ele>875.5</ele><time>2026-05-02T14:33:55.107Z</time></trkpt><trkpt lat="42.1215872" lon="13.3419566"><ele>877.75</ele><time>2026-05-02T14:33:56.102Z</time></trkpt><trkpt lat="42.1215479" lon="13.3417878"><ele>880.0</ele><time>2026-05-02T14:33:57.106Z</time></trkpt><trkpt lat="42.1215101" lon="13.3416045"><ele>876.25</ele><time>2026-05-02T14:33:58.11Z</time></trkpt><trkpt lat="42.1214889" lon="13.3414207"><ele>872.5</ele><time>2026-05-02T14:33:59.105Z</time></trkpt><trkpt lat="42.1214996" lon="13.3412361"><ele>868.75</ele><time>2026-05-02T14:34:00.109Z</time></trkpt><trkpt lat="42.1214987" lon="13.3410406"><ele>865.0</ele><time>2026-05-02T14:34:01.1Z</time></trkpt><trkpt lat="42.1214937" lon="13.3408598"><ele>865.0</ele><time>2026-05-02T14:34:02.112Z</time></trkpt><trkpt lat="42.1214916" lon="13.3406676"><ele>865.0</ele><time>2026-05-02T14:34:03.104Z</time></trkpt><trkpt lat="42.1214947" lon="13.3405018"><ele>865.0</ele><time>2026-05-02T14:34:04.106Z</time></trkpt><trkpt lat="42.1214764" lon="13.3403243"><ele>865.0</ele><time>2026-05-02T14:34:05.105Z</time></trkpt><trkpt lat="42.1214617" lon="13.3401761"><ele>867.0</ele><time>2026-05-02T14:34:06.101Z</time></trkpt><trkpt lat="42.1214515" lon="13.3400174"><ele>869.0</ele><time>2026-05-02T14:34:07.112Z</time></trkpt><trkpt lat="42.1214569" lon="13.3398669"><ele>871.0</ele><time>2026-05-02T14:34:08.106Z</time></trkpt><trkpt lat="42.1214101" lon="13.3397398"><ele>873.0</ele><time>2026-05-02T14:34:09.112Z</time></trkpt><trkpt lat="42.1213865" lon="13.3396019"><ele>875.0</ele><time>2026-05-02T14:34:10.107Z</time></trkpt><trkpt lat="42.1213342" lon="13.3394717"><ele>878.75</ele><time>2026-05-02T14:34:11.113Z</time></trkpt><trkpt lat="42.1212763" lon="13.3393298"><ele>882.5</ele><time>2026-05-02T14:34:12.11Z</time></trkpt><trkpt lat="42.1212059" lon="13.3391778"><ele>886.25</ele><time>2026-05-02T14:34:13.106Z</time></trkpt><trkpt lat="42.1211382" lon="13.3390357"><ele>890.0</ele><time>2026-05-02T14:34:14.114Z</time></trkpt><trkpt lat="42.1210783" lon="13.3388871"><ele>892.8</ele><time>2026-05-02T14:34:15.104Z</time></trkpt><trkpt lat="42.1210163" lon="13.3387535"><ele>895.6</ele><time>2026-05-02T14:34:16.108Z</time></trkpt><trkpt lat="42.120958" lon="13.3386309"><ele>898.4000000000001</ele><time>2026-05-02T14:34:17.103Z</time></trkpt><trkpt lat="42.120912" lon="13.3385295"><ele>901.2</ele><time>2026-05-02T14:34:18.106Z</time></trkpt><trkpt lat="42.1208501" lon="13.3384663"><ele>904.0</ele><time>2026-05-02T14:34:19.102Z</time></trkpt><trkpt lat="42.1207764" lon="13.3384505"><ele>903.0</ele><time>2026-05-02T14:34:20.102Z</time></trkpt><trkpt lat="42.1207042" lon="13.3384952"><ele>902.0000000000001</ele><time>2026-05-02T14:34:21.093Z</time></trkpt><trkpt lat="42.1206319" lon="13.338579"><ele>901.0000000000001</ele><time>2026-05-02T14:34:22.101Z</time></trkpt><trkpt lat="42.1205708" lon="13.3386912"><ele>900.0</ele><time>2026-05-02T14:34:23.093Z</time></trkpt><trkpt lat="42.1205037" lon="13.3388095"><ele>899.0</ele><time>2026-05-02T14:34:24.084Z</time></trkpt><trkpt lat="42.1204254" lon="13.3389149"><ele>899.0</ele><time>2026-05-02T14:34:25.093Z</time></trkpt><trkpt lat="42.1203328" lon="13.3390153"><ele>899.0000000000001</ele><time>2026-05-02T14:34:26.093Z</time></trkpt><trkpt lat="42.1202418" lon="13.3391118"><ele>899.0000000000001</ele><time>2026-05-02T14:34:27.1Z</time></trkpt><trkpt lat="42.1201593" lon="13.3391831"><ele>899.0</ele><time>2026-05-02T14:34:28.097Z</time></trkpt><trkpt lat="42.1200738" lon="13.3392345"><ele>899.0</ele><time>2026-05-02T14:34:29.097Z</time></trkpt><trkpt lat="42.1199857" lon="13.3392651"><ele>899.8000000000001</ele><time>2026-05-02T14:34:30.099Z</time></trkpt><trkpt lat="42.1198924" lon="13.3392611"><ele>900.6000000000001</ele><time>2026-05-02T14:34:31.098Z</time></trkpt><trkpt lat="42.119788" lon="13.3392401"><ele>901.4</ele><time>2026-05-02T14:34:32.098Z</time></trkpt><trkpt lat="42.1196768" lon="13.3392128"><ele>902.2</ele><time>2026-05-02T14:34:33.103Z</time></trkpt><trkpt lat="42.1195609" lon="13.3391866"><ele>903.0</ele><time>2026-05-02T14:34:34.092Z</time></trkpt><trkpt lat="42.1194432" lon="13.3391637"><ele>903.0</ele><time>2026-05-02T14:34:35.095Z</time></trkpt><trkpt lat="42.1193245" lon="13.339148"><ele>903.0</ele><time>2026-05-02T14:34:36.096Z</time></trkpt><trkpt lat="42.1191976" lon="13.3391287"><ele>903.0</ele><time>2026-05-02T14:34:37.096Z</time></trkpt><trkpt lat="42.1190655" lon="13.3391128"><ele>903.0</ele><time>2026-05-02T14:34:38.088Z</time></trkpt><trkpt lat="42.1189322" lon="13.3391164"><ele>903.5999999999999</ele><time>2026-05-02T14:34:39.083Z</time></trkpt><trkpt lat="42.118807" lon="13.3391136"><ele>904.1999999999999</ele><time>2026-05-02T14:34:40.087Z</time></trkpt><trkpt lat="42.1186921" lon="13.3391132"><ele>904.8</ele><time>2026-05-02T14:34:41.072Z</time></trkpt><trkpt lat="42.1185822" lon="13.3391118"><ele>905.4</ele><time>2026-05-02T14:34:42.079Z</time></trkpt><trkpt lat="42.1184857" lon="13.3391124"><ele>906.0</ele><time>2026-05-02T14:34:43.081Z</time></trkpt><trkpt lat="42.1184039" lon="13.3391226"><ele>906.0</ele><time>2026-05-02T14:34:44.085Z</time></trkpt><trkpt lat="42.1183356" lon="13.3391514"><ele>906.0</ele><time>2026-05-02T14:34:45.083Z</time></trkpt><trkpt lat="42.1182734" lon="13.339173"><ele>906.0</ele><time>2026-05-02T14:34:46.095Z</time></trkpt><trkpt lat="42.1181761" lon="13.3391549"><ele>906.0</ele><time>2026-05-02T14:34:48.088Z</time></trkpt><trkpt lat="42.1181096" lon="13.3391414"><ele>906.0</ele><time>2026-05-02T14:34:50.083Z</time></trkpt><trkpt lat="42.1181042" lon="13.3390261"><ele>906.0</ele><time>2026-05-02T14:34:54.102Z</time></trkpt><trkpt lat="42.1181211" lon="13.3389273"><ele>903.4</ele><time>2026-05-02T14:34:57.106Z</time></trkpt><trkpt lat="42.1181508" lon="13.3388294"><ele>900.8</ele><time>2026-05-02T14:35:09.113Z</time></trkpt><trkpt lat="42.1181773" lon="13.3386794"><ele>898.1999999999999</ele><time>2026-05-02T14:35:11.099Z</time></trkpt><trkpt lat="42.1182073" lon="13.3385199"><ele>895.5999999999999</ele><time>2026-05-02T14:35:13.1Z</time></trkpt><trkpt lat="42.1182061" lon="13.3383791"><ele>893.0</ele><time>2026-05-02T14:35:15.101Z</time></trkpt><trkpt lat="42.1182163" lon="13.3382558"><ele>896.5999999999999</ele><time>2026-05-02T14:35:17.094Z</time></trkpt><trkpt lat="42.1182793" lon="13.338114"><ele>900.1999999999999</ele><time>2026-05-02T14:35:19.095Z</time></trkpt><trkpt lat="42.11833" lon="13.3380391"><ele>903.8</ele><time>2026-05-02T14:35:20.1Z</time></trkpt><trkpt lat="42.1183817" lon="13.3379509"><ele>907.4</ele><time>2026-05-02T14:35:21.098Z</time></trkpt><trkpt lat="42.1184341" lon="13.3378464"><ele>911.0</ele><time>2026-05-02T14:35:22.102Z</time></trkpt><trkpt lat="42.1184776" lon="13.3377505"><ele>911.0</ele><time>2026-05-02T14:35:23.107Z</time></trkpt><trkpt lat="42.1185317" lon="13.3376566"><ele>910.9999999999999</ele><time>2026-05-02T14:35:24.109Z</time></trkpt><trkpt lat="42.1185925" lon="13.3375602"><ele>910.9999999999999</ele><time>2026-05-02T14:35:25.114Z</time></trkpt><trkpt lat="42.118663" lon="13.3374601"><ele>911.0</ele><time>2026-05-02T14:35:26.108Z</time></trkpt><trkpt lat="42.1187493" lon="13.3373515"><ele>911.0</ele><time>2026-05-02T14:35:27.106Z</time></trkpt><trkpt lat="42.1188326" lon="13.3372368"><ele>913.75</ele><time>2026-05-02T14:35:28.11Z</time></trkpt><trkpt lat="42.1189236" lon="13.3371148"><ele>916.5</ele><time>2026-05-02T14:35:29.111Z</time></trkpt><trkpt lat="42.1190144" lon="13.337005"><ele>919.25</ele><time>2026-05-02T14:35:30.112Z</time></trkpt><trkpt lat="42.1191124" lon="13.3369008"><ele>922.0</ele><time>2026-05-02T14:35:31.105Z</time></trkpt><trkpt lat="42.1192093" lon="13.3367898"><ele>922.0</ele><time>2026-05-02T14:35:32.107Z</time></trkpt><trkpt lat="42.119298" lon="13.3366771"><ele>922.0</ele><time>2026-05-02T14:35:33.105Z</time></trkpt><trkpt lat="42.1193815" lon="13.33656"><ele>922.0</ele><time>2026-05-02T14:35:34.112Z</time></trkpt><trkpt lat="42.1194583" lon="13.3364488"><ele>922.0</ele><time>2026-05-02T14:35:35.109Z</time></trkpt><trkpt lat="42.1195342" lon="13.3363437"><ele>924.4000000000001</ele><time>2026-05-02T14:35:36.105Z</time></trkpt><trkpt lat="42.1196129" lon="13.336254"><ele>926.8000000000001</ele><time>2026-05-02T14:35:37.112Z</time></trkpt><trkpt lat="42.11969" lon="13.3361793"><ele>929.2</ele><time>2026-05-02T14:35:38.107Z</time></trkpt><trkpt lat="42.1197768" lon="13.3361187"><ele>931.6</ele><time>2026-05-02T14:35:39.108Z</time></trkpt><trkpt lat="42.1198765" lon="13.3360582"><ele>934.0</ele><time>2026-05-02T14:35:40.115Z</time></trkpt><trkpt lat="42.1199843" lon="13.335999"><ele>934.0</ele><time>2026-05-02T14:35:41.108Z</time></trkpt><trkpt lat="42.1200933" lon="13.33592"><ele>934.0000000000001</ele><time>2026-05-02T14:35:42.103Z</time></trkpt><trkpt lat="42.1201926" lon="13.3358226"><ele>934.0000000000001</ele><time>2026-05-02T14:35:43.102Z</time></trkpt><trkpt lat="42.1202732" lon="13.335728"><ele>934.0</ele><time>2026-05-02T14:35:44.105Z</time></trkpt><trkpt lat="42.1203395" lon="13.3356346"><ele>934.0</ele><time>2026-05-02T14:35:45.108Z</time></trkpt><trkpt lat="42.120412" lon="13.3355529"><ele>931.9999999999999</ele><time>2026-05-02T14:35:46.109Z</time></trkpt><trkpt lat="42.1204968" lon="13.3354901"><ele>930.0</ele><time>2026-05-02T14:35:47.105Z</time></trkpt><trkpt lat="42.1205798" lon="13.3354447"><ele>928.0</ele><time>2026-05-02T14:35:48.104Z</time></trkpt><trkpt lat="42.1206463" lon="13.3354141"><ele>926.0</ele><time>2026-05-02T14:35:49.107Z</time></trkpt><trkpt lat="42.1207473" lon="13.3353315"><ele>923.9999999999999</ele><time>2026-05-02T14:35:51.11Z</time></trkpt><trkpt lat="42.1207892" lon="13.3352553"><ele>922.0</ele><time>2026-05-02T14:35:52.109Z</time></trkpt><trkpt lat="42.1208381" lon="13.335163"><ele>927.6</ele><time>2026-05-02T14:35:53.111Z</time></trkpt><trkpt lat="42.1208908" lon="13.3350515"><ele>933.2</ele><time>2026-05-02T14:35:54.106Z</time></trkpt><trkpt lat="42.1209459" lon="13.3349333"><ele>938.8</ele><time>2026-05-02T14:35:55.118Z</time></trkpt><trkpt lat="42.1210025" lon="13.3348073"><ele>944.4</ele><time>2026-05-02T14:35:56.105Z</time></trkpt><trkpt lat="42.1210582" lon="13.3346869"><ele>950.0</ele><time>2026-05-02T14:35:57.116Z</time></trkpt><trkpt lat="42.1211118" lon="13.33457"><ele>950.0000000000001</ele><time>2026-05-02T14:35:58.116Z</time></trkpt><trkpt lat="42.1211632" lon="13.3344555"><ele>950.0</ele><time>2026-05-02T14:35:59.117Z</time></trkpt><trkpt lat="42.1212142" lon="13.3343429"><ele>950.0</ele><time>2026-05-02T14:36:00.112Z</time></trkpt><trkpt lat="42.1212576" lon="13.3342306"><ele>950.0</ele><time>2026-05-02T14:36:01.109Z</time></trkpt><trkpt lat="42.1212781" lon="13.3341318"><ele>950.0000000000001</ele><time>2026-05-02T14:36:02.102Z</time></trkpt><trkpt lat="42.1212885" lon="13.3340413"><ele>950.0</ele><time>2026-05-02T14:36:03.105Z</time></trkpt><trkpt lat="42.1212899" lon="13.3338895"><ele>952.2</ele><time>2026-05-02T14:36:05.111Z</time></trkpt><trkpt lat="42.1212412" lon="13.3337244"><ele>954.4</ele><time>2026-05-02T14:36:07.108Z</time></trkpt><trkpt lat="42.1211925" lon="13.3336515"><ele>956.5999999999999</ele><time>2026-05-02T14:36:08.105Z</time></trkpt><trkpt lat="42.1211227" lon="13.3335761"><ele>958.8</ele><time>2026-05-02T14:36:09.108Z</time></trkpt><trkpt lat="42.121044" lon="13.3335086"><ele>961.0</ele><time>2026-05-02T14:36:10.104Z</time></trkpt><trkpt lat="42.1209653" lon="13.3334611"><ele>961.0</ele><time>2026-05-02T14:36:11.103Z</time></trkpt><trkpt lat="42.1208799" lon="13.33344"><ele>960.9999999999999</ele><time>2026-05-02T14:36:12.1Z</time></trkpt><trkpt lat="42.1207833" lon="13.3334423"><ele>960.9999999999999</ele><time>2026-05-02T14:36:13.095Z</time></trkpt><trkpt lat="42.1206799" lon="13.3334835"><ele>961.0</ele><time>2026-05-02T14:36:14.098Z</time></trkpt><trkpt lat="42.1205761" lon="13.3335421"><ele>961.0</ele><time>2026-05-02T14:36:15.092Z</time></trkpt><trkpt lat="42.1204812" lon="13.3335875"><ele>958.5999999999999</ele><time>2026-05-02T14:36:16.091Z</time></trkpt><trkpt lat="42.1204021" lon="13.3336235"><ele>956.1999999999999</ele><time>2026-05-02T14:36:17.098Z</time></trkpt><trkpt lat="42.1203114" lon="13.3335332"><ele>953.8000000000001</ele><time>2026-05-02T14:36:19.104Z</time></trkpt><trkpt lat="42.1203072" lon="13.333431"><ele>951.4000000000001</ele><time>2026-05-02T14:36:20.096Z</time></trkpt><trkpt lat="42.1203239" lon="13.3333065"><ele>949.0</ele><time>2026-05-02T14:36:21.096Z</time></trkpt><trkpt lat="42.1203423" lon="13.3331492"><ele>953.0</ele><time>2026-05-02T14:36:22.111Z</time></trkpt><trkpt lat="42.1203547" lon="13.3329801"><ele>957.0</ele><time>2026-05-02T14:36:23.114Z</time></trkpt><trkpt lat="42.1203669" lon="13.3327938"><ele>961.0</ele><time>2026-05-02T14:36:24.113Z</time></trkpt><trkpt lat="42.1203767" lon="13.3326207"><ele>965.0</ele><time>2026-05-02T14:36:25.112Z</time></trkpt><trkpt lat="42.1203747" lon="13.3324662"><ele>965.0</ele><time>2026-05-02T14:36:26.11Z</time></trkpt><trkpt lat="42.1203629" lon="13.3323328"><ele>965.0</ele><time>2026-05-02T14:36:27.112Z</time></trkpt><trkpt lat="42.1203436" lon="13.3321987"><ele>965.0</ele><time>2026-05-02T14:36:28.115Z</time></trkpt><trkpt lat="42.1203115" lon="13.3320767"><ele>965.0</ele><time>2026-05-02T14:36:29.111Z</time></trkpt><trkpt lat="42.1202666" lon="13.3319613"><ele>965.0</ele><time>2026-05-02T14:36:30.11Z</time></trkpt><trkpt lat="42.1202172" lon="13.3318421"><ele>966.8</ele><time>2026-05-02T14:36:31.103Z</time></trkpt><trkpt lat="42.1201726" lon="13.3317115"><ele>968.6</ele><time>2026-05-02T14:36:32.103Z</time></trkpt><trkpt lat="42.1201471" lon="13.3315926"><ele>970.4000000000001</ele><time>2026-05-02T14:36:33.104Z</time></trkpt><trkpt lat="42.1201472" lon="13.3315057"><ele>972.2</ele><time>2026-05-02T14:36:34.105Z</time></trkpt><trkpt lat="42.1202245" lon="13.3313948"><ele>974.0</ele><time>2026-05-02T14:36:36.105Z</time></trkpt><trkpt lat="42.120295" lon="13.3313649"><ele>974.4000000000001</ele><time>2026-05-02T14:36:37.104Z</time></trkpt><trkpt lat="42.1203869" lon="13.3313464"><ele>974.8000000000001</ele><time>2026-05-02T14:36:38.104Z</time></trkpt><trkpt lat="42.1204943" lon="13.3313233"><ele>975.1999999999999</ele><time>2026-05-02T14:36:39.104Z</time></trkpt><trkpt lat="42.1206025" lon="13.3312926"><ele>975.5999999999999</ele><time>2026-05-02T14:36:40.106Z</time></trkpt><trkpt lat="42.120704" lon="13.3312642"><ele>976.0</ele><time>2026-05-02T14:36:41.104Z</time></trkpt><trkpt lat="42.1208059" lon="13.3312346"><ele>977.5</ele><time>2026-05-02T14:36:42.113Z</time></trkpt><trkpt lat="42.1209116" lon="13.3311972"><ele>979.0</ele><time>2026-05-02T14:36:43.106Z</time></trkpt><trkpt lat="42.121023" lon="13.3311525"><ele>980.5</ele><time>2026-05-02T14:36:44.117Z</time></trkpt><trkpt lat="42.1211399" lon="13.3310988"><ele>982.0</ele><time>2026-05-02T14:36:45.108Z</time></trkpt><trkpt lat="42.121255" lon="13.3310386"><ele>982.0</ele><time>2026-05-02T14:36:46.109Z</time></trkpt><trkpt lat="42.1213734" lon="13.3309894"><ele>982.0</ele><time>2026-05-02T14:36:47.11Z</time></trkpt><trkpt lat="42.1214926" lon="13.3309453"><ele>982.0</ele><time>2026-05-02T14:36:48.112Z</time></trkpt><trkpt lat="42.1216018" lon="13.3308947"><ele>982.0</ele><time>2026-05-02T14:36:49.116Z</time></trkpt><trkpt lat="42.1217078" lon="13.3308546"><ele>983.6</ele><time>2026-05-02T14:36:50.113Z</time></trkpt><trkpt lat="42.1218119" lon="13.3308253"><ele>985.2</ele><time>2026-05-02T14:36:51.112Z</time></trkpt><trkpt lat="42.1219196" lon="13.3308122"><ele>986.8</ele><time>2026-05-02T14:36:52.117Z</time></trkpt><trkpt lat="42.1220342" lon="13.3308041"><ele>988.4</ele><time>2026-05-02T14:36:53.118Z</time></trkpt><trkpt lat="42.1221486" lon="13.3307964"><ele>990.0</ele><time>2026-05-02T14:36:54.114Z</time></trkpt><trkpt lat="42.1222531" lon="13.3307981"><ele>990.0</ele><time>2026-05-02T14:36:55.119Z</time></trkpt><trkpt lat="42.1223505" lon="13.3307888"><ele>990.0</ele><time>2026-05-02T14:36:56.115Z</time></trkpt><trkpt lat="42.1224519" lon="13.3307514"><ele>990.0</ele><time>2026-05-02T14:36:57.114Z</time></trkpt><trkpt lat="42.1225515" lon="13.3307063"><ele>990.0</ele><time>2026-05-02T14:36:58.115Z</time></trkpt><trkpt lat="42.1226337" lon="13.3306531"><ele>990.0</ele><time>2026-05-02T14:36:59.114Z</time></trkpt><trkpt lat="42.1227098" lon="13.3305804"><ele>992.0</ele><time>2026-05-02T14:37:00.117Z</time></trkpt><trkpt lat="42.1227865" lon="13.3304921"><ele>994.0</ele><time>2026-05-02T14:37:01.118Z</time></trkpt><trkpt lat="42.122869" lon="13.3304043"><ele>996.0</ele><time>2026-05-02T14:37:02.116Z</time></trkpt><trkpt lat="42.122959" lon="13.3303141"><ele>998.0</ele><time>2026-05-02T14:37:03.113Z</time></trkpt><trkpt lat="42.123058" lon="13.3302289"><ele>1000.0</ele><time>2026-05-02T14:37:04.111Z</time></trkpt><trkpt lat="42.1231566" lon="13.3301518"><ele>1001.6</ele><time>2026-05-02T14:37:05.109Z</time></trkpt><trkpt lat="42.1232449" lon="13.3300873"><ele>1003.2</ele><time>2026-05-02T14:37:06.112Z</time></trkpt><trkpt lat="42.1233379" lon="13.3300468"><ele>1004.8</ele><time>2026-05-02T14:37:07.115Z</time></trkpt><trkpt lat="42.1234332" lon="13.3300066"><ele>1006.4</ele><time>2026-05-02T14:37:08.109Z</time></trkpt><trkpt lat="42.1235322" lon="13.3299728"><ele>1008.0</ele><time>2026-05-02T14:37:09.119Z</time></trkpt><trkpt lat="42.1236322" lon="13.3299414"><ele>1008.0</ele><time>2026-05-02T14:37:10.118Z</time></trkpt><trkpt lat="42.1237349" lon="13.3299028"><ele>1008.0</ele><time>2026-05-02T14:37:11.119Z</time></trkpt><trkpt lat="42.1238299" lon="13.3298584"><ele>1008.0</ele><time>2026-05-02T14:37:12.115Z</time></trkpt><trkpt lat="42.1239228" lon="13.3297995"><ele>1008.0</ele><time>2026-05-02T14:37:13.122Z</time></trkpt><trkpt lat="42.1240122" lon="13.3297406"><ele>1008.0</ele><time>2026-05-02T14:37:14.12Z</time></trkpt><trkpt lat="42.1240965" lon="13.3296873"><ele>1009.5</ele><time>2026-05-02T14:37:15.117Z</time></trkpt><trkpt lat="42.1241667" lon="13.3296324"><ele>1011.0</ele><time>2026-05-02T14:37:16.116Z</time></trkpt><trkpt lat="42.1242287" lon="13.3295703"><ele>1012.5</ele><time>2026-05-02T14:37:17.118Z</time></trkpt><trkpt lat="42.1242857" lon="13.3294998"><ele>1014.0</ele><time>2026-05-02T14:37:18.115Z</time></trkpt><trkpt lat="42.1243504" lon="13.3294165"><ele>1015.5</ele><time>2026-05-02T14:37:19.118Z</time></trkpt><trkpt lat="42.1244068" lon="13.3293347"><ele>1017.0</ele><time>2026-05-02T14:37:20.116Z</time></trkpt><trkpt lat="42.1244602" lon="13.3292478"><ele>1017.0</ele><time>2026-05-02T14:37:21.116Z</time></trkpt><trkpt lat="42.1245142" lon="13.3291731"><ele>1016.9999999999999</ele><time>2026-05-02T14:37:22.113Z</time></trkpt><trkpt lat="42.1245752" lon="13.3291124"><ele>1017.0</ele><time>2026-05-02T14:37:23.112Z</time></trkpt><trkpt lat="42.1246391" lon="13.3290715"><ele>1017.0</ele><time>2026-05-02T14:37:24.119Z</time></trkpt><trkpt lat="42.124704" lon="13.3290403"><ele>1016.9999999999999</ele><time>2026-05-02T14:37:25.117Z</time></trkpt><trkpt lat="42.124769" lon="13.3290158"><ele>1017.0</ele><time>2026-05-02T14:37:26.115Z</time></trkpt><trkpt lat="42.1248404" lon="13.3290024"><ele>1017.0</ele><time>2026-05-02T14:37:27.117Z</time></trkpt><trkpt lat="42.124919" lon="13.329008"><ele>1019.3333333333334</ele><time>2026-05-02T14:37:28.118Z</time></trkpt><trkpt lat="42.1249928" lon="13.3290316"><ele>1021.6666666666667</ele><time>2026-05-02T14:37:29.111Z</time></trkpt><trkpt lat="42.1250552" lon="13.3290713"><ele>1024.0</ele><time>2026-05-02T14:37:30.116Z</time></trkpt><trkpt lat="42.1251169" lon="13.3290943"><ele>1026.3333333333335</ele><time>2026-05-02T14:37:31.109Z</time></trkpt><trkpt lat="42.1252391" lon="13.3291236"><ele>1028.6666666666667</ele><time>2026-05-02T14:37:33.111Z</time></trkpt><trkpt lat="42.12534" lon="13.3291813"><ele>1031.0</ele><time>2026-05-02T14:37:35.105Z</time></trkpt><trkpt lat="42.1254473" lon="13.3292369"><ele>1031.0</ele><time>2026-05-02T14:37:37.105Z</time></trkpt><trkpt lat="42.1255042" lon="13.3292787"><ele>1031.0</ele><time>2026-05-02T14:37:38.108Z</time></trkpt><trkpt lat="42.1255631" lon="13.3293259"><ele>1031.0</ele><time>2026-05-02T14:37:39.107Z</time></trkpt><trkpt lat="42.1256226" lon="13.3293594"><ele>1031.0</ele><time>2026-05-02T14:37:40.104Z</time></trkpt><trkpt lat="42.1256885" lon="13.3294096"><ele>1031.0</ele><time>2026-05-02T14:37:41.108Z</time></trkpt><trkpt lat="42.1257538" lon="13.3294669"><ele>1031.0</ele><time>2026-05-02T14:37:42.106Z</time></trkpt><trkpt lat="42.12582" lon="13.3295162"><ele>1031.0</ele><time>2026-05-02T14:37:43.108Z</time></trkpt><trkpt lat="42.1258853" lon="13.3295629"><ele>1033.142857142857</ele><time>2026-05-02T14:37:44.116Z</time></trkpt><trkpt lat="42.125943" lon="13.3296108"><ele>1035.2857142857142</ele><time>2026-05-02T14:37:45.108Z</time></trkpt><trkpt lat="42.125997" lon="13.3296553"><ele>1037.4285714285713</ele><time>2026-05-02T14:37:46.105Z</time></trkpt><trkpt lat="42.1260483" lon="13.3297057"><ele>1039.5714285714284</ele><time>2026-05-02T14:37:47.105Z</time></trkpt><trkpt lat="42.1261123" lon="13.3297477"><ele>1041.7142857142858</ele><time>2026-05-02T14:37:48.096Z</time></trkpt><trkpt lat="42.1261844" lon="13.3297814"><ele>1043.8571428571427</ele><time>2026-05-02T14:37:49.101Z</time></trkpt><trkpt lat="42.1262592" lon="13.3298017"><ele>1046.0</ele><time>2026-05-02T14:37:50.111Z</time></trkpt><trkpt lat="42.126335" lon="13.3298012"><ele>1047.3333333333335</ele><time>2026-05-02T14:37:51.104Z</time></trkpt><trkpt lat="42.1264096" lon="13.3298004"><ele>1048.6666666666667</ele><time>2026-05-02T14:37:52.104Z</time></trkpt><trkpt lat="42.1264923" lon="13.3297967"><ele>1050.0</ele><time>2026-05-02T14:37:53.103Z</time></trkpt><trkpt lat="42.1265682" lon="13.329796"><ele>1051.3333333333333</ele><time>2026-05-02T14:37:54.102Z</time></trkpt><trkpt lat="42.1266415" lon="13.3297917"><ele>1052.6666666666665</ele><time>2026-05-02T14:37:55.107Z</time></trkpt><trkpt lat="42.1267204" lon="13.3297928"><ele>1054.0</ele><time>2026-05-02T14:37:56.107Z</time></trkpt><trkpt lat="42.1267883" lon="13.3298146"><ele>1055.6666666666665</ele><time>2026-05-02T14:37:57.103Z</time></trkpt><trkpt lat="42.1268584" lon="13.3298371"><ele>1057.3333333333333</ele><time>2026-05-02T14:37:58.112Z</time></trkpt><trkpt lat="42.1269321" lon="13.3298528"><ele>1059.0</ele><time>2026-05-02T14:37:59.109Z</time></trkpt><trkpt lat="42.1270066" lon="13.3298788"><ele>1060.6666666666667</ele><time>2026-05-02T14:38:00.105Z</time></trkpt><trkpt lat="42.1270891" lon="13.3299134"><ele>1062.3333333333335</ele><time>2026-05-02T14:38:01.106Z</time></trkpt><trkpt lat="42.1271723" lon="13.329951"><ele>1064.0</ele><time>2026-05-02T14:38:02.106Z</time></trkpt><trkpt lat="42.1272611" lon="13.3299961"><ele>1064.0</ele><time>2026-05-02T14:38:03.102Z</time></trkpt><trkpt lat="42.1273471" lon="13.3300394"><ele>1064.0</ele><time>2026-05-02T14:38:04.108Z</time></trkpt><trkpt lat="42.1274187" lon="13.3300928"><ele>1064.0</ele><time>2026-05-02T14:38:05.107Z</time></trkpt><trkpt lat="42.1274839" lon="13.3301366"><ele>1064.0</ele><time>2026-05-02T14:38:06.103Z</time></trkpt><trkpt lat="42.1275986" lon="13.3302037"><ele>1064.0</ele><time>2026-05-02T14:38:08.111Z</time></trkpt><trkpt lat="42.1277046" lon="13.3302599"><ele>1064.6666666666667</ele><time>2026-05-02T14:38:10.115Z</time></trkpt><trkpt lat="42.1277825" lon="13.3302758"><ele>1065.3333333333335</ele><time>2026-05-02T14:38:12.118Z</time></trkpt><trkpt lat="42.1278877" lon="13.3302762"><ele>1066.0</ele><time>2026-05-02T14:39:34.116Z</time></trkpt><trkpt lat="42.127955" lon="13.3302677"><ele>1066.6666666666667</ele><time>2026-05-02T14:39:35.11Z</time></trkpt><trkpt lat="42.1280451" lon="13.3302422"><ele>1067.3333333333333</ele><time>2026-05-02T14:39:36.115Z</time></trkpt><trkpt lat="42.1281372" lon="13.3302024"><ele>1068.0</ele><time>2026-05-02T14:39:37.11Z</time></trkpt><trkpt lat="42.1282299" lon="13.3301515"><ele>1068.0</ele><time>2026-05-02T14:39:38.108Z</time></trkpt><trkpt lat="42.1283295" lon="13.3300843"><ele>1068.0</ele><time>2026-05-02T14:39:39.11Z</time></trkpt><trkpt lat="42.1284344" lon="13.3300168"><ele>1068.0</ele><time>2026-05-02T14:39:40.109Z</time></trkpt><trkpt lat="42.1285411" lon="13.3299503"><ele>1068.0</ele><time>2026-05-02T14:39:41.108Z</time></trkpt><trkpt lat="42.128642" lon="13.3298907"><ele>1068.0</ele><time>2026-05-02T14:39:42.112Z</time></trkpt><trkpt lat="42.1287416" lon="13.3298345"><ele>1068.0</ele><time>2026-05-02T14:39:43.109Z</time></trkpt><trkpt lat="42.1288421" lon="13.3297637"><ele>1068.0</ele><time>2026-05-02T14:39:44.115Z</time></trkpt><trkpt lat="42.1289465" lon="13.3296902"><ele>1068.0</ele><time>2026-05-02T14:39:45.108Z</time></trkpt><trkpt lat="42.1290524" lon="13.3296249"><ele>1067.2</ele><time>2026-05-02T14:39:46.116Z</time></trkpt><trkpt lat="42.1291495" lon="13.3295543"><ele>1066.4</ele><time>2026-05-02T14:39:47.111Z</time></trkpt><trkpt lat="42.129242" lon="13.3294958"><ele>1065.6000000000001</ele><time>2026-05-02T14:39:48.115Z</time></trkpt><trkpt lat="42.1293296" lon="13.3294277"><ele>1064.8</ele><time>2026-05-02T14:39:49.112Z</time></trkpt><trkpt lat="42.1294211" lon="13.3293478"><ele>1064.0</ele><time>2026-05-02T14:39:50.113Z</time></trkpt><trkpt lat="42.1295073" lon="13.3292628"><ele>1064.0</ele><time>2026-05-02T14:39:51.111Z</time></trkpt><trkpt lat="42.1295894" lon="13.3291737"><ele>1064.0</ele><time>2026-05-02T14:39:52.113Z</time></trkpt><trkpt lat="42.1296698" lon="13.3290835"><ele>1064.0</ele><time>2026-05-02T14:39:53.112Z</time></trkpt><trkpt lat="42.1297502" lon="13.3289855"><ele>1064.0</ele><time>2026-05-02T14:39:54.113Z</time></trkpt><trkpt lat="42.1298188" lon="13.3288875"><ele>1064.0</ele><time>2026-05-02T14:39:55.112Z</time></trkpt><trkpt lat="42.1298802" lon="13.3287912"><ele>1063.6666666666667</ele><time>2026-05-02T14:39:56.111Z</time></trkpt><trkpt lat="42.1299391" lon="13.3286874"><ele>1063.3333333333335</ele><time>2026-05-02T14:39:57.109Z</time></trkpt><trkpt lat="42.129995" lon="13.3285952"><ele>1063.0</ele><time>2026-05-02T14:39:58.115Z</time></trkpt><trkpt lat="42.1300501" lon="13.3285044"><ele>1062.6666666666667</ele><time>2026-05-02T14:39:59.114Z</time></trkpt><trkpt lat="42.1301078" lon="13.3284248"><ele>1062.3333333333333</ele><time>2026-05-02T14:40:00.116Z</time></trkpt><trkpt lat="42.1301728" lon="13.3283508"><ele>1062.0</ele><time>2026-05-02T14:40:01.11Z</time></trkpt><trkpt lat="42.1302395" lon="13.3282872"><ele>1062.0</ele><time>2026-05-02T14:40:02.111Z</time></trkpt><trkpt lat="42.1303003" lon="13.3282485"><ele>1062.0</ele><time>2026-05-02T14:40:03.106Z</time></trkpt><trkpt lat="42.1303797" lon="13.3282117"><ele>1062.0</ele><time>2026-05-02T14:40:05.11Z</time></trkpt><trkpt lat="42.1303481" lon="13.3280912"><ele>1062.0</ele><time>2026-05-02T14:40:22.11Z</time></trkpt><trkpt lat="42.1303435" lon="13.3279805"><ele>1062.0</ele><time>2026-05-02T14:40:24.111Z</time></trkpt><trkpt lat="42.1303815" lon="13.3278843"><ele>1062.0</ele><time>2026-05-02T14:40:25.106Z</time></trkpt><trkpt lat="42.1304233" lon="13.3277809"><ele>1062.4</ele><time>2026-05-02T14:40:26.109Z</time></trkpt><trkpt lat="42.1304632" lon="13.3276544"><ele>1062.8000000000002</ele><time>2026-05-02T14:40:27.107Z</time></trkpt><trkpt lat="42.1304858" lon="13.327513"><ele>1063.2</ele><time>2026-05-02T14:40:28.113Z</time></trkpt><trkpt lat="42.1304998" lon="13.3273601"><ele>1063.6000000000001</ele><time>2026-05-02T14:40:29.113Z</time></trkpt><trkpt lat="42.1304947" lon="13.3272056"><ele>1064.0</ele><time>2026-05-02T14:40:30.115Z</time></trkpt><trkpt lat="42.1304943" lon="13.3270527"><ele>1065.2</ele><time>2026-05-02T14:40:31.11Z</time></trkpt><trkpt lat="42.1305087" lon="13.3269075"><ele>1066.4</ele><time>2026-05-02T14:40:32.106Z</time></trkpt><trkpt lat="42.1305347" lon="13.3267718"><ele>1067.6</ele><time>2026-05-02T14:40:33.113Z</time></trkpt><trkpt lat="42.1305659" lon="13.3266338"><ele>1068.8</ele><time>2026-05-02T14:40:34.112Z</time></trkpt><trkpt lat="42.1305876" lon="13.3265099"><ele>1070.0</ele><time>2026-05-02T14:40:35.112Z</time></trkpt><trkpt lat="42.1306007" lon="13.3263807"><ele>1071.8</ele><time>2026-05-02T14:40:36.11Z</time></trkpt><trkpt lat="42.130604" lon="13.3262474"><ele>1073.6</ele><time>2026-05-02T14:40:37.112Z</time></trkpt><trkpt lat="42.1306094" lon="13.3261162"><ele>1075.4</ele><time>2026-05-02T14:40:38.107Z</time></trkpt><trkpt lat="42.1306138" lon="13.3259818"><ele>1077.2</ele><time>2026-05-02T14:40:39.111Z</time></trkpt><trkpt lat="42.1306162" lon="13.3258438"><ele>1079.0</ele><time>2026-05-02T14:40:40.107Z</time></trkpt><trkpt lat="42.1306158" lon="13.3257103"><ele>1079.0</ele><time>2026-05-02T14:40:41.111Z</time></trkpt><trkpt lat="42.1306061" lon="13.3255843"><ele>1079.0</ele><time>2026-05-02T14:40:42.108Z</time></trkpt><trkpt lat="42.1306079" lon="13.3254608"><ele>1079.0</ele><time>2026-05-02T14:40:43.107Z</time></trkpt><trkpt lat="42.1306228" lon="13.3253432"><ele>1079.0</ele><time>2026-05-02T14:40:44.108Z</time></trkpt><trkpt lat="42.1306458" lon="13.3252466"><ele>1079.0</ele><time>2026-05-02T14:40:45.104Z</time></trkpt><trkpt lat="42.1306498" lon="13.3250898"><ele>1080.0</ele><time>2026-05-02T14:40:47.105Z</time></trkpt><trkpt lat="42.130628" lon="13.3250023"><ele>1081.0</ele><time>2026-05-02T14:40:48.106Z</time></trkpt><trkpt lat="42.1306033" lon="13.3249052"><ele>1082.0</ele><time>2026-05-02T14:40:49.106Z</time></trkpt><trkpt lat="42.1305773" lon="13.3248199"><ele>1083.0</ele><time>2026-05-02T14:40:50.113Z</time></trkpt><trkpt lat="42.130549" lon="13.3246664"><ele>1084.0</ele><time>2026-05-02T14:40:52.099Z</time></trkpt><trkpt lat="42.130599" lon="13.3245199"><ele>1084.0</ele><time>2026-05-02T14:40:54.105Z</time></trkpt><trkpt lat="42.1306358" lon="13.3244454"><ele>1084.0</ele><time>2026-05-02T14:40:55.104Z</time></trkpt><trkpt lat="42.1307342" lon="13.3243589"><ele>1084.0</ele><time>2026-05-02T14:40:57.103Z</time></trkpt><trkpt lat="42.1307913" lon="13.3242803"><ele>1084.0</ele><time>2026-05-02T14:40:59.107Z</time></trkpt><trkpt lat="42.1308141" lon="13.3241393"><ele>1084.0</ele><time>2026-05-02T14:41:01.104Z</time></trkpt><trkpt lat="42.1308075" lon="13.3240499"><ele>1084.0</ele><time>2026-05-02T14:41:02.103Z</time></trkpt><trkpt lat="42.1307975" lon="13.3239589"><ele>1082.6666666666665</ele><time>2026-05-02T14:41:03.104Z</time></trkpt><trkpt lat="42.1307837" lon="13.323875"><ele>1081.3333333333333</ele><time>2026-05-02T14:41:04.108Z</time></trkpt><trkpt lat="42.1307783" lon="13.3237799"><ele>1080.0</ele><time>2026-05-02T14:41:05.098Z</time></trkpt><trkpt lat="42.1307761" lon="13.3236811"><ele>1078.6666666666667</ele><time>2026-05-02T14:41:06.102Z</time></trkpt><trkpt lat="42.1307803" lon="13.3235657"><ele>1077.3333333333335</ele><time>2026-05-02T14:41:07.102Z</time></trkpt><trkpt lat="42.1307942" lon="13.3234436"><ele>1076.0</ele><time>2026-05-02T14:41:08.114Z</time></trkpt><trkpt lat="42.1308137" lon="13.3233137"><ele>1076.0</ele><time>2026-05-02T14:41:09.112Z</time></trkpt><trkpt lat="42.1308423" lon="13.3231792"><ele>1076.0</ele><time>2026-05-02T14:41:10.112Z</time></trkpt><trkpt lat="42.130869" lon="13.3230629"><ele>1076.0</ele><time>2026-05-02T14:41:11.114Z</time></trkpt><trkpt lat="42.1308887" lon="13.3229661"><ele>1076.0</ele><time>2026-05-02T14:41:12.116Z</time></trkpt><trkpt lat="42.1309071" lon="13.322879"><ele>1076.0</ele><time>2026-05-02T14:41:13.111Z</time></trkpt><trkpt lat="42.1309272" lon="13.3227869"><ele>1076.0</ele><time>2026-05-02T14:41:14.118Z</time></trkpt><trkpt lat="42.1309426" lon="13.3226966"><ele>1076.1666666666667</ele><time>2026-05-02T14:41:15.114Z</time></trkpt><trkpt lat="42.1309811" lon="13.3225727"><ele>1076.3333333333335</ele><time>2026-05-02T14:41:17.115Z</time></trkpt><trkpt lat="42.131024" lon="13.3224475"><ele>1076.5</ele><time>2026-05-02T14:41:19.115Z</time></trkpt><trkpt lat="42.1310398" lon="13.3223005"><ele>1076.6666666666667</ele><time>2026-05-02T14:41:21.114Z</time></trkpt><trkpt lat="42.1310364" lon="13.3222125"><ele>1076.8333333333333</ele><time>2026-05-02T14:41:22.116Z</time></trkpt><trkpt lat="42.131025" lon="13.3221273"><ele>1077.0</ele><time>2026-05-02T14:41:23.121Z</time></trkpt><trkpt lat="42.1310098" lon="13.3220399"><ele>1077.0</ele><time>2026-05-02T14:41:24.116Z</time></trkpt><trkpt lat="42.130994" lon="13.321943"><ele>1077.0</ele><time>2026-05-02T14:41:25.12Z</time></trkpt><trkpt lat="42.1309755" lon="13.321839"><ele>1077.0</ele><time>2026-05-02T14:41:26.114Z</time></trkpt><trkpt lat="42.130963" lon="13.3217108"><ele>1077.0</ele><time>2026-05-02T14:41:27.113Z</time></trkpt><trkpt lat="42.130953" lon="13.3215799"><ele>1077.0</ele><time>2026-05-02T14:41:28.121Z</time></trkpt><trkpt lat="42.1309443" lon="13.3214473"><ele>1077.0</ele><time>2026-05-02T14:41:29.117Z</time></trkpt><trkpt lat="42.1309391" lon="13.3213156"><ele>1076.2</ele><time>2026-05-02T14:41:30.119Z</time></trkpt><trkpt lat="42.1309335" lon="13.3211871"><ele>1075.4</ele><time>2026-05-02T14:41:31.115Z</time></trkpt><trkpt lat="42.1309346" lon="13.3210521"><ele>1074.6</ele><time>2026-05-02T14:41:32.115Z</time></trkpt><trkpt lat="42.1309297" lon="13.3209311"><ele>1073.8</ele><time>2026-05-02T14:41:33.118Z</time></trkpt><trkpt lat="42.1309248" lon="13.3208097"><ele>1073.0</ele><time>2026-05-02T14:41:34.119Z</time></trkpt><trkpt lat="42.1309152" lon="13.3206909"><ele>1073.0</ele><time>2026-05-02T14:41:35.117Z</time></trkpt><trkpt lat="42.1309084" lon="13.3205759"><ele>1073.0</ele><time>2026-05-02T14:41:36.117Z</time></trkpt><trkpt lat="42.1309014" lon="13.3204785"><ele>1073.0</ele><time>2026-05-02T14:41:37.11Z</time></trkpt><trkpt lat="42.1308968" lon="13.3203846"><ele>1073.0</ele><time>2026-05-02T14:41:38.118Z</time></trkpt><trkpt lat="42.1309174" lon="13.3202462"><ele>1073.0</ele><time>2026-05-02T14:41:40.12Z</time></trkpt><trkpt lat="42.1309863" lon="13.3201769"><ele>1073.0</ele><time>2026-05-02T14:41:42.124Z</time></trkpt><trkpt lat="42.1310451" lon="13.3200824"><ele>1073.3333333333335</ele><time>2026-05-02T14:41:44.114Z</time></trkpt><trkpt lat="42.131031" lon="13.319988"><ele>1073.6666666666667</ele><time>2026-05-02T14:41:46.12Z</time></trkpt><trkpt lat="42.1310102" lon="13.3199009"><ele>1074.0</ele><time>2026-05-02T14:41:48.108Z</time></trkpt><trkpt lat="42.1310565" lon="13.3197861"><ele>1074.3333333333333</ele><time>2026-05-02T14:41:50.102Z</time></trkpt><trkpt lat="42.1311136" lon="13.3196775"><ele>1074.6666666666665</ele><time>2026-05-02T14:41:52.103Z</time></trkpt><trkpt lat="42.1311531" lon="13.3195649"><ele>1075.0</ele><time>2026-05-02T14:41:54.096Z</time></trkpt><trkpt lat="42.1311908" lon="13.3194538"><ele>1075.3333333333333</ele><time>2026-05-02T14:41:56.104Z</time></trkpt><trkpt lat="42.1312417" lon="13.3193626"><ele>1075.6666666666665</ele><time>2026-05-02T14:41:58.111Z</time></trkpt><trkpt lat="42.1313217" lon="13.3192646"><ele>1076.0</ele><time>2026-05-02T14:42:00.095Z</time></trkpt><trkpt lat="42.1313675" lon="13.319194"><ele>1076.3333333333333</ele><time>2026-05-02T14:42:01.094Z</time></trkpt><trkpt lat="42.1314146" lon="13.3190947"><ele>1076.6666666666667</ele><time>2026-05-02T14:42:02.097Z</time></trkpt><trkpt lat="42.1314604" lon="13.3189767"><ele>1077.0</ele><time>2026-05-02T14:42:03.101Z</time></trkpt><trkpt lat="42.1314934" lon="13.3188721"><ele>1076.142857142857</ele><time>2026-05-02T14:42:04.097Z</time></trkpt><trkpt lat="42.131525" lon="13.3187814"><ele>1075.2857142857142</ele><time>2026-05-02T14:42:05.107Z</time></trkpt><trkpt lat="42.1315412" lon="13.3186973"><ele>1074.4285714285716</ele><time>2026-05-02T14:42:06.105Z</time></trkpt><trkpt lat="42.1315628" lon="13.3186126"><ele>1073.5714285714284</ele><time>2026-05-02T14:42:07.107Z</time></trkpt><trkpt lat="42.1315965" lon="13.3185201"><ele>1072.7142857142858</ele><time>2026-05-02T14:42:08.113Z</time></trkpt><trkpt lat="42.1316261" lon="13.3184378"><ele>1071.857142857143</ele><time>2026-05-02T14:42:09.115Z</time></trkpt><trkpt lat="42.1316602" lon="13.3183565"><ele>1071.0</ele><time>2026-05-02T14:42:10.108Z</time></trkpt><trkpt lat="42.13171" lon="13.318282"><ele>1069.5</ele><time>2026-05-02T14:42:11.103Z</time></trkpt><trkpt lat="42.1317733" lon="13.3182206"><ele>1068.0</ele><time>2026-05-02T14:42:12.105Z</time></trkpt><trkpt lat="42.1318482" lon="13.3181443"><ele>1066.5</ele><time>2026-05-02T14:42:13.112Z</time></trkpt><trkpt lat="42.1319104" lon="13.3180637"><ele>1065.0</ele><time>2026-05-02T14:42:14.119Z</time></trkpt><trkpt lat="42.1319576" lon="13.3179898"><ele>1063.5</ele><time>2026-05-02T14:42:15.108Z</time></trkpt><trkpt lat="42.1319886" lon="13.3179157"><ele>1062.0</ele><time>2026-05-02T14:42:16.114Z</time></trkpt><trkpt lat="42.1320097" lon="13.3178252"><ele>1061.0</ele><time>2026-05-02T14:42:17.118Z</time></trkpt><trkpt lat="42.132026" lon="13.3177188"><ele>1060.0</ele><time>2026-05-02T14:42:18.113Z</time></trkpt><trkpt lat="42.1320401" lon="13.3176206"><ele>1059.0</ele><time>2026-05-02T14:42:19.115Z</time></trkpt><trkpt lat="42.1320823" lon="13.3174678"><ele>1058.0</ele><time>2026-05-02T14:42:21.115Z</time></trkpt><trkpt lat="42.1321218" lon="13.3173822"><ele>1057.0</ele><time>2026-05-02T14:42:22.113Z</time></trkpt><trkpt lat="42.1321605" lon="13.3172957"><ele>1056.0</ele><time>2026-05-02T14:42:23.118Z</time></trkpt><trkpt lat="42.132209" lon="13.3172106"><ele>1055.6666666666667</ele><time>2026-05-02T14:42:24.121Z</time></trkpt><trkpt lat="42.1322724" lon="13.3171374"><ele>1055.3333333333333</ele><time>2026-05-02T14:42:25.112Z</time></trkpt><trkpt lat="42.1323251" lon="13.3170612"><ele>1055.0</ele><time>2026-05-02T14:42:26.12Z</time></trkpt><trkpt lat="42.1323812" lon="13.3169747"><ele>1054.6666666666665</ele><time>2026-05-02T14:42:27.114Z</time></trkpt><trkpt lat="42.1324378" lon="13.31689"><ele>1054.3333333333333</ele><time>2026-05-02T14:42:28.124Z</time></trkpt><trkpt lat="42.1325001" lon="13.3168157"><ele>1054.0</ele><time>2026-05-02T14:42:29.122Z</time></trkpt><trkpt lat="42.132565" lon="13.3167582"><ele>1054.0</ele><time>2026-05-02T14:42:30.117Z</time></trkpt><trkpt lat="42.1326211" lon="13.3166917"><ele>1054.0</ele><time>2026-05-02T14:42:31.118Z</time></trkpt><trkpt lat="42.1326827" lon="13.3166147"><ele>1054.0</ele><time>2026-05-02T14:42:32.123Z</time></trkpt><trkpt lat="42.1327421" lon="13.3165355"><ele>1054.0</ele><time>2026-05-02T14:42:33.12Z</time></trkpt><trkpt lat="42.1328" lon="13.3164619"><ele>1054.0</ele><time>2026-05-02T14:42:34.123Z</time></trkpt><trkpt lat="42.1328526" lon="13.3163867"><ele>1054.0</ele><time>2026-05-02T14:42:35.126Z</time></trkpt><trkpt lat="42.1329018" lon="13.3163146"><ele>1053.2</ele><time>2026-05-02T14:42:36.121Z</time></trkpt><trkpt lat="42.1329482" lon="13.316244"><ele>1052.4</ele><time>2026-05-02T14:42:37.121Z</time></trkpt><trkpt lat="42.1329893" lon="13.3161757"><ele>1051.6</ele><time>2026-05-02T14:42:38.124Z</time></trkpt><trkpt lat="42.133056" lon="13.3160492"><ele>1050.8</ele><time>2026-05-02T14:42:40.124Z</time></trkpt><trkpt lat="42.133107" lon="13.315948"><ele>1050.0</ele><time>2026-05-02T14:42:42.123Z</time></trkpt><trkpt lat="42.1331234" lon="13.3157991"><ele>1050.0</ele><time>2026-05-02T14:42:44.128Z</time></trkpt><trkpt lat="42.1331104" lon="13.3156455"><ele>1050.0</ele><time>2026-05-02T14:42:46.119Z</time></trkpt><trkpt lat="42.1330744" lon="13.3155722"><ele>1050.0</ele><time>2026-05-02T14:42:47.126Z</time></trkpt><trkpt lat="42.1330193" lon="13.3155223"><ele>1050.0</ele><time>2026-05-02T14:42:48.118Z</time></trkpt><trkpt lat="42.1329087" lon="13.3154843"><ele>1050.0</ele><time>2026-05-02T14:42:50.117Z</time></trkpt><trkpt lat="42.1328085" lon="13.3154494"><ele>1049.6666666666667</ele><time>2026-05-02T14:42:52.124Z</time></trkpt><trkpt lat="42.1327188" lon="13.3153937"><ele>1049.3333333333333</ele><time>2026-05-02T14:42:54.117Z</time></trkpt><trkpt lat="42.132677" lon="13.3153212"><ele>1049.0</ele><time>2026-05-02T14:44:20.133Z</time></trkpt><trkpt lat="42.1326314" lon="13.3152495"><ele>1048.6666666666665</ele><time>2026-05-02T14:44:22.123Z</time></trkpt><trkpt lat="42.1325823" lon="13.3151145"><ele>1048.3333333333333</ele><time>2026-05-02T14:44:24.127Z</time></trkpt><trkpt lat="42.132564" lon="13.3150232"><ele>1048.0</ele><time>2026-05-02T14:44:25.125Z</time></trkpt><trkpt lat="42.1325412" lon="13.3149324"><ele>1048.0</ele><time>2026-05-02T14:44:26.128Z</time></trkpt><trkpt lat="42.1325083" lon="13.3148344"><ele>1048.0</ele><time>2026-05-02T14:44:27.119Z</time></trkpt><trkpt lat="42.1324783" lon="13.3147357"><ele>1048.0</ele><time>2026-05-02T14:44:28.128Z</time></trkpt><trkpt lat="42.1324519" lon="13.3146462"><ele>1048.0</ele><time>2026-05-02T14:44:29.123Z</time></trkpt><trkpt lat="42.1324249" lon="13.3145637"><ele>1048.0</ele><time>2026-05-02T14:44:30.119Z</time></trkpt><trkpt lat="42.1323482" lon="13.3144348"><ele>1048.0</ele><time>2026-05-02T14:44:32.123Z</time></trkpt><trkpt lat="42.1322968" lon="13.3143647"><ele>1048.1666666666665</ele><time>2026-05-02T14:44:33.116Z</time></trkpt><trkpt lat="42.1322329" lon="13.3142851"><ele>1048.3333333333333</ele><time>2026-05-02T14:44:34.122Z</time></trkpt><trkpt lat="42.1321658" lon="13.3142041"><ele>1048.5</ele><time>2026-05-02T14:44:35.118Z</time></trkpt><trkpt lat="42.1320928" lon="13.3141256"><ele>1048.6666666666667</ele><time>2026-05-02T14:44:36.122Z</time></trkpt><trkpt lat="42.1320239" lon="13.3140445"><ele>1048.8333333333335</ele><time>2026-05-02T14:44:37.121Z</time></trkpt><trkpt lat="42.1319607" lon="13.3139761"><ele>1049.0</ele><time>2026-05-02T14:44:38.123Z</time></trkpt><trkpt lat="42.1319014" lon="13.3139166"><ele>1049.6000000000001</ele><time>2026-05-02T14:44:39.124Z</time></trkpt><trkpt lat="42.1318389" lon="13.3137808"><ele>1050.2</ele><time>2026-05-02T14:44:41.124Z</time></trkpt><trkpt lat="42.1318217" lon="13.3136034"><ele>1050.8000000000002</ele><time>2026-05-02T14:44:43.125Z</time></trkpt><trkpt lat="42.1318272" lon="13.3134947"><ele>1051.4</ele><time>2026-05-02T14:44:44.124Z</time></trkpt><trkpt lat="42.1318284" lon="13.3133897"><ele>1052.0</ele><time>2026-05-02T14:44:45.123Z</time></trkpt><trkpt lat="42.1318344" lon="13.3132825"><ele>1052.0</ele><time>2026-05-02T14:44:46.124Z</time></trkpt><trkpt lat="42.1318424" lon="13.3131738"><ele>1052.0</ele><time>2026-05-02T14:44:47.126Z</time></trkpt><trkpt lat="42.1318482" lon="13.3130747"><ele>1052.0</ele><time>2026-05-02T14:44:48.121Z</time></trkpt><trkpt lat="42.1318522" lon="13.3129825"><ele>1052.0</ele><time>2026-05-02T14:44:49.129Z</time></trkpt><trkpt lat="42.1318659" lon="13.3128928"><ele>1052.0</ele><time>2026-05-02T14:44:50.127Z</time></trkpt><trkpt lat="42.1318836" lon="13.3127959"><ele>1052.0</ele><time>2026-05-02T14:44:51.124Z</time></trkpt><trkpt lat="42.1319085" lon="13.3127008"><ele>1052.0</ele><time>2026-05-02T14:44:52.122Z</time></trkpt><trkpt lat="42.1319383" lon="13.3126189"><ele>1052.6</ele><time>2026-05-02T14:44:53.124Z</time></trkpt><trkpt lat="42.1319757" lon="13.3125476"><ele>1053.2</ele><time>2026-05-02T14:44:54.121Z</time></trkpt><trkpt lat="42.1320579" lon="13.312427"><ele>1053.8</ele><time>2026-05-02T14:44:56.117Z</time></trkpt><trkpt lat="42.1321562" lon="13.3123329"><ele>1054.4</ele><time>2026-05-02T14:44:58.114Z</time></trkpt><trkpt lat="42.1322235" lon="13.3122371"><ele>1055.0</ele><time>2026-05-02T14:45:00.114Z</time></trkpt><trkpt lat="42.1322492" lon="13.3121316"><ele>1057.0</ele><time>2026-05-02T14:45:02.113Z</time></trkpt><trkpt lat="42.1322887" lon="13.3120648"><ele>1059.0</ele><time>2026-05-02T14:45:04.111Z</time></trkpt><trkpt lat="42.1323631" lon="13.3120076"><ele>1061.0</ele><time>2026-05-02T14:45:06.108Z</time></trkpt><trkpt lat="42.1324302" lon="13.3119144"><ele>1063.0</ele><time>2026-05-02T14:45:08.112Z</time></trkpt><trkpt lat="42.1324855" lon="13.311798"><ele>1065.0</ele><time>2026-05-02T14:45:10.113Z</time></trkpt><trkpt lat="42.1325819" lon="13.3117176"><ele>1061.8</ele><time>2026-05-02T14:45:12.107Z</time></trkpt><trkpt lat="42.1326454" lon="13.3116848"><ele>1058.6</ele><time>2026-05-02T14:45:13.111Z</time></trkpt><trkpt lat="42.1327121" lon="13.3116581"><ele>1055.4</ele><time>2026-05-02T14:45:14.112Z</time></trkpt><trkpt lat="42.1327989" lon="13.3115712"><ele>1052.2</ele><time>2026-05-02T14:45:16.115Z</time></trkpt><trkpt lat="42.1328712" lon="13.3114521"><ele>1049.0</ele><time>2026-05-02T14:45:18.108Z</time></trkpt><trkpt lat="42.1329391" lon="13.3113283"><ele>1049.0</ele><time>2026-05-02T14:45:20.11Z</time></trkpt><trkpt lat="42.1329897" lon="13.311275"><ele>1049.0</ele><time>2026-05-02T14:45:21.107Z</time></trkpt><trkpt lat="42.1331065" lon="13.3112089"><ele>1049.0</ele><time>2026-05-02T14:45:23.106Z</time></trkpt><trkpt lat="42.1331759" lon="13.3111812"><ele>1049.0</ele><time>2026-05-02T14:45:24.104Z</time></trkpt><trkpt lat="42.133269" lon="13.3111522"><ele>1049.0</ele><time>2026-05-02T14:45:26.106Z</time></trkpt><trkpt lat="42.1333152" lon="13.3110849"><ele>1049.0</ele><time>2026-05-02T14:45:28.122Z</time></trkpt><trkpt lat="42.1333156" lon="13.3109919"><ele>1047.3333333333335</ele><time>2026-05-02T14:45:30.111Z</time></trkpt><trkpt lat="42.1333269" lon="13.3108847"><ele>1045.6666666666667</ele><time>2026-05-02T14:45:32.102Z</time></trkpt><trkpt lat="42.1333751" lon="13.310746"><ele>1044.0</ele><time>2026-05-02T14:45:34.105Z</time></trkpt><trkpt lat="42.1334568" lon="13.3106396"><ele>1042.3333333333333</ele><time>2026-05-02T14:45:36.109Z</time></trkpt><trkpt lat="42.1335092" lon="13.3105823"><ele>1040.6666666666665</ele><time>2026-05-02T14:45:37.113Z</time></trkpt><trkpt lat="42.1335557" lon="13.3105201"><ele>1039.0</ele><time>2026-05-02T14:45:38.111Z</time></trkpt><trkpt lat="42.133603" lon="13.3104636"><ele>1039.0</ele><time>2026-05-02T14:45:39.109Z</time></trkpt><trkpt lat="42.133677" lon="13.3103856"><ele>1039.0</ele><time>2026-05-02T14:45:41.108Z</time></trkpt><trkpt lat="42.1337294" lon="13.3103062"><ele>1039.0</ele><time>2026-05-02T14:47:11.111Z</time></trkpt><trkpt lat="42.1337855" lon="13.3101924"><ele>1039.0</ele><time>2026-05-02T14:47:13.112Z</time></trkpt><trkpt lat="42.1338448" lon="13.31011"><ele>1039.0</ele><time>2026-05-02T14:47:15.109Z</time></trkpt><trkpt lat="42.1339342" lon="13.3100643"><ele>1039.0</ele><time>2026-05-02T14:47:18.114Z</time></trkpt><trkpt lat="42.1340269" lon="13.3100468"><ele>1039.0</ele><time>2026-05-02T14:47:20.107Z</time></trkpt><trkpt lat="42.1340885" lon="13.310015"><ele>1039.0</ele><time>2026-05-02T14:47:22.116Z</time></trkpt><trkpt lat="42.1341507" lon="13.3098952"><ele>1039.0</ele><time>2026-05-02T14:47:24.117Z</time></trkpt><trkpt lat="42.1342029" lon="13.3097734"><ele>1039.0</ele><time>2026-05-02T14:47:26.119Z</time></trkpt><trkpt lat="42.1342135" lon="13.3096634"><ele>1034.6000000000001</ele><time>2026-05-02T14:47:28.116Z</time></trkpt><trkpt lat="42.134209" lon="13.3095515"><ele>1030.2</ele><time>2026-05-02T14:47:30.113Z</time></trkpt><trkpt lat="42.1342477" lon="13.309448"><ele>1025.8000000000002</ele><time>2026-05-02T14:47:32.11Z</time></trkpt><trkpt lat="42.1343298" lon="13.3093414"><ele>1021.4000000000001</ele><time>2026-05-02T14:47:34.11Z</time></trkpt><trkpt lat="42.134393" lon="13.309207"><ele>1017.0</ele><time>2026-05-02T14:47:36.104Z</time></trkpt><trkpt lat="42.1344386" lon="13.3090885"><ele>1017.0</ele><time>2026-05-02T14:47:38.104Z</time></trkpt><trkpt lat="42.1345035" lon="13.3090153"><ele>1017.0</ele><time>2026-05-02T14:47:40.11Z</time></trkpt><trkpt lat="42.134579" lon="13.3089257"><ele>1017.0</ele><time>2026-05-02T14:47:42.103Z</time></trkpt><trkpt lat="42.1346261" lon="13.3088685"><ele>1017.0</ele><time>2026-05-02T14:47:43.104Z</time></trkpt><trkpt lat="42.1347105" lon="13.3087718"><ele>1017.0</ele><time>2026-05-02T14:47:45.108Z</time></trkpt><trkpt lat="42.1347849" lon="13.308714"><ele>1017.0</ele><time>2026-05-02T14:47:47.105Z</time></trkpt><trkpt lat="42.1347822" lon="13.3085725"><ele>1017.0</ele><time>2026-05-02T14:47:50.105Z</time></trkpt><trkpt lat="42.134786" lon="13.3084876"><ele>1016.9999999999999</ele><time>2026-05-02T14:47:51.111Z</time></trkpt><trkpt lat="42.1347935" lon="13.3084026"><ele>1017.0</ele><time>2026-05-02T14:47:52.105Z</time></trkpt><trkpt lat="42.1348021" lon="13.3083147"><ele>1017.0</ele><time>2026-05-02T14:47:53.11Z</time></trkpt><trkpt lat="42.1348047" lon="13.3082198"><ele>1016.9999999999999</ele><time>2026-05-02T14:47:54.11Z</time></trkpt><trkpt lat="42.1348174" lon="13.3081299"><ele>1017.0</ele><time>2026-05-02T14:47:55.115Z</time></trkpt><trkpt lat="42.1348268" lon="13.3080447"><ele>1017.0</ele><time>2026-05-02T14:47:56.116Z</time></trkpt><trkpt lat="42.13486" lon="13.3078836"><ele>1015.0</ele><time>2026-05-02T14:47:58.12Z</time></trkpt><trkpt lat="42.134894" lon="13.3077436"><ele>1013.0</ele><time>2026-05-02T14:48:00.113Z</time></trkpt><trkpt lat="42.1349679" lon="13.3076409"><ele>1011.0</ele><time>2026-05-02T14:48:02.116Z</time></trkpt><trkpt lat="42.1349808" lon="13.3075221"><ele>1009.0</ele><time>2026-05-02T14:48:04.112Z</time></trkpt><trkpt lat="42.1348956" lon="13.3073887"><ele>1007.0</ele><time>2026-05-02T14:48:06.115Z</time></trkpt><trkpt lat="42.1348405" lon="13.3073079"><ele>1004.5000000000001</ele><time>2026-05-02T14:48:07.118Z</time></trkpt><trkpt lat="42.1347845" lon="13.3072356"><ele>1002.0</ele><time>2026-05-02T14:48:08.117Z</time></trkpt><trkpt lat="42.1347358" lon="13.3071561"><ele>999.5</ele><time>2026-05-02T14:48:09.115Z</time></trkpt><trkpt lat="42.1346869" lon="13.3070825"><ele>997.0</ele><time>2026-05-02T14:48:10.116Z</time></trkpt><trkpt lat="42.1346255" lon="13.3069572"><ele>994.5000000000001</ele><time>2026-05-02T14:48:12.119Z</time></trkpt><trkpt lat="42.1345976" lon="13.3068492"><ele>992.0</ele><time>2026-05-02T14:48:14.12Z</time></trkpt><trkpt lat="42.1345789" lon="13.3067598"><ele>992.0</ele><time>2026-05-02T14:48:17.117Z</time></trkpt><trkpt lat="42.1345751" lon="13.3066438"><ele>992.0</ele><time>2026-05-02T14:48:19.115Z</time></trkpt><trkpt lat="42.1345576" lon="13.3064861"><ele>992.0</ele><time>2026-05-02T14:48:21.111Z</time></trkpt><trkpt lat="42.1345654" lon="13.3063989"><ele>992.0</ele><time>2026-05-02T14:48:22.117Z</time></trkpt><trkpt lat="42.1345801" lon="13.3062668"><ele>992.0</ele><time>2026-05-02T14:48:24.118Z</time></trkpt><trkpt lat="42.1345781" lon="13.3061515"><ele>989.8333333333334</ele><time>2026-05-02T14:48:26.117Z</time></trkpt><trkpt lat="42.1345326" lon="13.3060773"><ele>987.6666666666667</ele><time>2026-05-02T14:48:28.135Z</time></trkpt><trkpt lat="42.1344703" lon="13.3060315"><ele>985.5</ele><time>2026-05-02T14:48:30.122Z</time></trkpt><trkpt lat="42.134438" lon="13.3059232"><ele>983.3333333333333</ele><time>2026-05-02T14:48:32.116Z</time></trkpt><trkpt lat="42.1344426" lon="13.3057682"><ele>981.1666666666666</ele><time>2026-05-02T14:48:34.124Z</time></trkpt><trkpt lat="42.1344329" lon="13.3056742"><ele>979.0</ele><time>2026-05-02T14:48:35.126Z</time></trkpt><trkpt lat="42.1344187" lon="13.3055749"><ele>977.4999999999999</ele><time>2026-05-02T14:48:36.122Z</time></trkpt><trkpt lat="42.1344045" lon="13.3054708"><ele>976.0</ele><time>2026-05-02T14:48:37.12Z</time></trkpt><trkpt lat="42.1343926" lon="13.3053659"><ele>974.5</ele><time>2026-05-02T14:48:38.12Z</time></trkpt><trkpt lat="42.1343809" lon="13.3052473"><ele>973.0</ele><time>2026-05-02T14:48:39.124Z</time></trkpt><trkpt lat="42.1343635" lon="13.3051229"><ele>971.4999999999999</ele><time>2026-05-02T14:48:40.121Z</time></trkpt><trkpt lat="42.1343391" lon="13.3050086"><ele>970.0</ele><time>2026-05-02T14:48:41.123Z</time></trkpt><trkpt lat="42.1343176" lon="13.3049018"><ele>970.0</ele><time>2026-05-02T14:48:42.122Z</time></trkpt><trkpt lat="42.1342973" lon="13.3048137"><ele>970.0</ele><time>2026-05-02T14:48:43.116Z</time></trkpt><trkpt lat="42.1342663" lon="13.3046868"><ele>970.0</ele><time>2026-05-02T14:48:45.125Z</time></trkpt><trkpt lat="42.1342716" lon="13.3045234"><ele>970.0</ele><time>2026-05-02T14:48:47.124Z</time></trkpt><trkpt lat="42.1342726" lon="13.3044134"><ele>970.0</ele><time>2026-05-02T14:48:48.124Z</time></trkpt><trkpt lat="42.1342703" lon="13.3042943"><ele>968.6666666666666</ele><time>2026-05-02T14:48:49.121Z</time></trkpt><trkpt lat="42.1342625" lon="13.3041729"><ele>967.3333333333333</ele><time>2026-05-02T14:48:50.125Z</time></trkpt><trkpt lat="42.1342503" lon="13.3040602"><ele>966.0</ele><time>2026-05-02T14:48:51.126Z</time></trkpt><trkpt lat="42.1342349" lon="13.303956"><ele>964.6666666666667</ele><time>2026-05-02T14:48:52.128Z</time></trkpt><trkpt lat="42.1342156" lon="13.3038574"><ele>963.3333333333334</ele><time>2026-05-02T14:48:53.125Z</time></trkpt><trkpt lat="42.1341846" lon="13.3037086"><ele>962.0</ele><time>2026-05-02T14:48:55.122Z</time></trkpt><trkpt lat="42.1341587" lon="13.3035507"><ele>961.6</ele><time>2026-05-02T14:48:57.121Z</time></trkpt><trkpt lat="42.1341761" lon="13.303402"><ele>961.2</ele><time>2026-05-02T14:48:59.118Z</time></trkpt><trkpt lat="42.134235" lon="13.3032477"><ele>960.8</ele><time>2026-05-02T14:49:01.117Z</time></trkpt><trkpt lat="42.1342789" lon="13.3031483"><ele>960.4</ele><time>2026-05-02T14:49:02.118Z</time></trkpt><trkpt lat="42.134326" lon="13.3030469"><ele>960.0</ele><time>2026-05-02T14:49:03.118Z</time></trkpt><trkpt lat="42.1343731" lon="13.302949"><ele>960.8333333333334</ele><time>2026-05-02T14:49:04.119Z</time></trkpt><trkpt lat="42.1344287" lon="13.3028484"><ele>961.6666666666667</ele><time>2026-05-02T14:49:05.113Z</time></trkpt><trkpt lat="42.1344807" lon="13.3027451"><ele>962.5</ele><time>2026-05-02T14:49:06.111Z</time></trkpt><trkpt lat="42.1345315" lon="13.3026486"><ele>963.3333333333334</ele><time>2026-05-02T14:49:07.113Z</time></trkpt><trkpt lat="42.134573" lon="13.3025543"><ele>964.1666666666667</ele><time>2026-05-02T14:49:08.108Z</time></trkpt><trkpt lat="42.1346043" lon="13.3024645"><ele>965.0</ele><time>2026-05-02T14:49:09.108Z</time></trkpt><trkpt lat="42.1346309" lon="13.3023829"><ele>965.0000000000001</ele><time>2026-05-02T14:49:10.116Z</time></trkpt><trkpt lat="42.134653" lon="13.302253"><ele>965.0</ele><time>2026-05-02T14:49:12.108Z</time></trkpt><trkpt lat="42.1346249" lon="13.3021688"><ele>965.0</ele><time>2026-05-02T14:49:14.109Z</time></trkpt><trkpt lat="42.1346154" lon="13.3020638"><ele>965.0</ele><time>2026-05-02T14:49:17.11Z</time></trkpt><trkpt lat="42.1346673" lon="13.3020104"><ele>965.0000000000001</ele><time>2026-05-02T14:49:19.103Z</time></trkpt><trkpt lat="42.1347351" lon="13.3019242"><ele>965.0</ele><time>2026-05-02T14:49:21.108Z</time></trkpt><trkpt lat="42.1347817" lon="13.3018006"><ele>966.0000000000001</ele><time>2026-05-02T14:49:23.117Z</time></trkpt><trkpt lat="42.1348022" lon="13.3017188"><ele>967.0</ele><time>2026-05-02T14:49:24.11Z</time></trkpt><trkpt lat="42.1348398" lon="13.3016353"><ele>968.0</ele><time>2026-05-02T14:49:25.118Z</time></trkpt><trkpt lat="42.1348865" lon="13.3015541"><ele>969.0</ele><time>2026-05-02T14:49:26.11Z</time></trkpt><trkpt lat="42.134947" lon="13.3014739"><ele>970.0000000000001</ele><time>2026-05-02T14:49:27.115Z</time></trkpt><trkpt lat="42.1350185" lon="13.3014063"><ele>971.0</ele><time>2026-05-02T14:49:28.114Z</time></trkpt><trkpt lat="42.135091" lon="13.3013408"><ele>966.6666666666667</ele><time>2026-05-02T14:49:29.125Z</time></trkpt><trkpt lat="42.1351586" lon="13.3012757"><ele>962.3333333333334</ele><time>2026-05-02T14:49:30.12Z</time></trkpt><trkpt lat="42.1352212" lon="13.3011922"><ele>958.0</ele><time>2026-05-02T14:49:31.121Z</time></trkpt><trkpt lat="42.1352765" lon="13.3011123"><ele>953.6666666666667</ele><time>2026-05-02T14:49:32.115Z</time></trkpt><trkpt lat="42.1353226" lon="13.3010422"><ele>949.3333333333334</ele><time>2026-05-02T14:49:33.113Z</time></trkpt><trkpt lat="42.1353725" lon="13.3009739"><ele>945.0</ele><time>2026-05-02T14:49:34.113Z</time></trkpt><trkpt lat="42.135426" lon="13.3009149"><ele>945.0</ele><time>2026-05-02T14:49:35.117Z</time></trkpt><trkpt lat="42.135482" lon="13.3008687"><ele>945.0</ele><time>2026-05-02T14:49:36.112Z</time></trkpt><trkpt lat="42.1356003" lon="13.3008271"><ele>945.0</ele><time>2026-05-02T14:49:38.115Z</time></trkpt><trkpt lat="42.1356859" lon="13.3007569"><ele>945.0</ele><time>2026-05-02T14:49:40.113Z</time></trkpt><trkpt lat="42.1357483" lon="13.3006591"><ele>945.0</ele><time>2026-05-02T14:49:42.113Z</time></trkpt><trkpt lat="42.1358486" lon="13.3006414"><ele>944.8333333333334</ele><time>2026-05-02T14:49:44.121Z</time></trkpt><trkpt lat="42.1359806" lon="13.3006735"><ele>944.6666666666667</ele><time>2026-05-02T14:49:46.124Z</time></trkpt><trkpt lat="42.1360564" lon="13.3006713"><ele>944.5</ele><time>2026-05-02T14:49:47.118Z</time></trkpt><trkpt lat="42.1361371" lon="13.3006492"><ele>944.3333333333334</ele><time>2026-05-02T14:49:48.119Z</time></trkpt><trkpt lat="42.1362094" lon="13.300611"><ele>944.1666666666667</ele><time>2026-05-02T14:49:49.116Z</time></trkpt><trkpt lat="42.1362695" lon="13.3005649"><ele>944.0</ele><time>2026-05-02T14:49:50.124Z</time></trkpt><trkpt lat="42.136353" lon="13.3004797"><ele>943.5000000000001</ele><time>2026-05-02T14:49:52.116Z</time></trkpt><trkpt lat="42.1364019" lon="13.3003856"><ele>943.0</ele><time>2026-05-02T14:49:54.119Z</time></trkpt><trkpt lat="42.136441" lon="13.3003178"><ele>942.5</ele><time>2026-05-02T14:49:55.123Z</time></trkpt><trkpt lat="42.1364915" lon="13.3002395"><ele>942.0</ele><time>2026-05-02T14:49:56.124Z</time></trkpt><trkpt lat="42.1365479" lon="13.3001549"><ele>941.5000000000001</ele><time>2026-05-02T14:49:57.12Z</time></trkpt><trkpt lat="42.1366055" lon="13.3000671"><ele>941.0</ele><time>2026-05-02T14:49:58.127Z</time></trkpt><trkpt lat="42.1366582" lon="13.2999816"><ele>941.0000000000001</ele><time>2026-05-02T14:49:59.125Z</time></trkpt><trkpt lat="42.1367078" lon="13.2998891"><ele>941.0</ele><time>2026-05-02T14:50:00.129Z</time></trkpt><trkpt lat="42.1367527" lon="13.2997913"><ele>941.0</ele><time>2026-05-02T14:50:01.12Z</time></trkpt><trkpt lat="42.1367879" lon="13.2996951"><ele>941.0</ele><time>2026-05-02T14:50:02.123Z</time></trkpt><trkpt lat="42.1368152" lon="13.2995797"><ele>941.0000000000001</ele><time>2026-05-02T14:50:03.12Z</time></trkpt><trkpt lat="42.1368365" lon="13.2994544"><ele>941.0</ele><time>2026-05-02T14:50:04.124Z</time></trkpt><trkpt lat="42.1368577" lon="13.2993214"><ele>939.1999999999999</ele><time>2026-05-02T14:50:05.118Z</time></trkpt><trkpt lat="42.1368709" lon="13.2991871"><ele>937.3999999999999</ele><time>2026-05-02T14:50:06.123Z</time></trkpt><trkpt lat="42.1368863" lon="13.2990578"><ele>935.6</ele><time>2026-05-02T14:50:07.124Z</time></trkpt><trkpt lat="42.1369058" lon="13.2989344"><ele>933.8</ele><time>2026-05-02T14:50:08.124Z</time></trkpt><trkpt lat="42.1369266" lon="13.2988132"><ele>932.0</ele><time>2026-05-02T14:50:09.123Z</time></trkpt><trkpt lat="42.1369489" lon="13.2986912"><ele>931.3333333333334</ele><time>2026-05-02T14:50:10.124Z</time></trkpt><trkpt lat="42.1369719" lon="13.2985683"><ele>930.6666666666667</ele><time>2026-05-02T14:50:11.121Z</time></trkpt><trkpt lat="42.1369989" lon="13.2984586"><ele>930.0</ele><time>2026-05-02T14:50:12.124Z</time></trkpt><trkpt lat="42.1370267" lon="13.2983652"><ele>929.3333333333333</ele><time>2026-05-02T14:50:13.121Z</time></trkpt><trkpt lat="42.1370503" lon="13.2982136"><ele>928.6666666666666</ele><time>2026-05-02T14:50:15.12Z</time></trkpt><trkpt lat="42.137013" lon="13.2981184"><ele>928.0</ele><time>2026-05-02T14:50:17.118Z</time></trkpt><trkpt lat="42.1368978" lon="13.2980903"><ele>927.9999999999999</ele><time>2026-05-02T14:50:19.125Z</time></trkpt><trkpt lat="42.1368177" lon="13.2980895"><ele>928.0</ele><time>2026-05-02T14:50:20.122Z</time></trkpt><trkpt lat="42.1367456" lon="13.2980853"><ele>928.0</ele><time>2026-05-02T14:50:21.117Z</time></trkpt><trkpt lat="42.1366843" lon="13.2980655"><ele>928.0</ele><time>2026-05-02T14:50:22.12Z</time></trkpt><trkpt lat="42.1365916" lon="13.2979744"><ele>927.9999999999999</ele><time>2026-05-02T14:50:24.125Z</time></trkpt><trkpt lat="42.136552" lon="13.2978404"><ele>928.0</ele><time>2026-05-02T14:50:26.118Z</time></trkpt><trkpt lat="42.1365583" lon="13.2977538"><ele>928.0000000000001</ele><time>2026-05-02T14:50:27.118Z</time></trkpt><trkpt lat="42.1365906" lon="13.297669"><ele>928.0</ele><time>2026-05-02T14:50:28.122Z</time></trkpt><trkpt lat="42.1366428" lon="13.2975829"><ele>928.0000000000001</ele><time>2026-05-02T14:50:29.126Z</time></trkpt><trkpt lat="42.1366927" lon="13.2975053"><ele>928.0000000000001</ele><time>2026-05-02T14:50:30.127Z</time></trkpt><trkpt lat="42.1367206" lon="13.2974266"><ele>928.0</ele><time>2026-05-02T14:50:31.126Z</time></trkpt><trkpt lat="42.1367369" lon="13.2973353"><ele>928.0000000000001</ele><time>2026-05-02T14:50:32.118Z</time></trkpt><trkpt lat="42.1367398" lon="13.2972359"><ele>928.0000000000001</ele><time>2026-05-02T14:50:33.124Z</time></trkpt><trkpt lat="42.1367363" lon="13.2971312"><ele>927.9999999999999</ele><time>2026-05-02T14:50:34.121Z</time></trkpt><trkpt lat="42.1367361" lon="13.2970245"><ele>928.0</ele><time>2026-05-02T14:50:35.12Z</time></trkpt><trkpt lat="42.1367412" lon="13.2969162"><ele>928.0</ele><time>2026-05-02T14:50:36.122Z</time></trkpt><trkpt lat="42.1367493" lon="13.2968012"><ele>928.0</ele><time>2026-05-02T14:50:37.119Z</time></trkpt><trkpt lat="42.1367644" lon="13.296684"><ele>927.9999999999999</ele><time>2026-05-02T14:50:38.123Z</time></trkpt><trkpt lat="42.1367862" lon="13.2965628"><ele>928.0</ele><time>2026-05-02T14:50:39.128Z</time></trkpt><trkpt lat="42.1367869" lon="13.2964456"><ele>927.0</ele><time>2026-05-02T14:50:40.119Z</time></trkpt><trkpt lat="42.1367789" lon="13.2963231"><ele>926.0</ele><time>2026-05-02T14:50:41.122Z</time></trkpt><trkpt lat="42.1367564" lon="13.2961993"><ele>925.0</ele><time>2026-05-02T14:50:42.125Z</time></trkpt><trkpt lat="42.1367369" lon="13.2960781"><ele>924.0</ele><time>2026-05-02T14:50:43.119Z</time></trkpt><trkpt lat="42.1367276" lon="13.2959588"><ele>923.0</ele><time>2026-05-02T14:50:44.126Z</time></trkpt><trkpt lat="42.1367176" lon="13.2958435"><ele>923.0000000000001</ele><time>2026-05-02T14:50:45.116Z</time></trkpt><trkpt lat="42.1367161" lon="13.2957259"><ele>923.0</ele><time>2026-05-02T14:50:46.122Z</time></trkpt><trkpt lat="42.1367108" lon="13.2956157"><ele>923.0</ele><time>2026-05-02T14:50:47.123Z</time></trkpt><trkpt lat="42.1367139" lon="13.2955161"><ele>923.0</ele><time>2026-05-02T14:50:48.123Z</time></trkpt><trkpt lat="42.1367209" lon="13.2954148"><ele>923.0000000000001</ele><time>2026-05-02T14:50:49.118Z</time></trkpt><trkpt lat="42.1367279" lon="13.2952974"><ele>923.0</ele><time>2026-05-02T14:50:50.116Z</time></trkpt><trkpt lat="42.1367281" lon="13.2951707"><ele>922.0</ele><time>2026-05-02T14:50:51.116Z</time></trkpt><trkpt lat="42.1367109" lon="13.2950451"><ele>921.0</ele><time>2026-05-02T14:50:52.125Z</time></trkpt><trkpt lat="42.1366899" lon="13.2949132"><ele>920.0</ele><time>2026-05-02T14:50:53.117Z</time></trkpt><trkpt lat="42.1366635" lon="13.2947847"><ele>919.0</ele><time>2026-05-02T14:50:54.117Z</time></trkpt><trkpt lat="42.1366341" lon="13.2946591"><ele>918.0</ele><time>2026-05-02T14:50:55.124Z</time></trkpt><trkpt lat="42.136613" lon="13.2945363"><ele>917.8333333333334</ele><time>2026-05-02T14:50:56.12Z</time></trkpt><trkpt lat="42.1365917" lon="13.2944128"><ele>917.6666666666667</ele><time>2026-05-02T14:50:57.119Z</time></trkpt><trkpt lat="42.1365671" lon="13.2942982"><ele>917.5</ele><time>2026-05-02T14:50:58.122Z</time></trkpt><trkpt lat="42.1365454" lon="13.2941923"><ele>917.3333333333334</ele><time>2026-05-02T14:50:59.131Z</time></trkpt><trkpt lat="42.1365283" lon="13.2940824"><ele>917.1666666666667</ele><time>2026-05-02T14:51:00.122Z</time></trkpt><trkpt lat="42.1365301" lon="13.2939841"><ele>917.0</ele><time>2026-05-02T14:51:01.121Z</time></trkpt><trkpt lat="42.1365675" lon="13.2938335"><ele>915.6666666666667</ele><time>2026-05-02T14:51:03.115Z</time></trkpt><trkpt lat="42.1365343" lon="13.2937196"><ele>914.3333333333334</ele><time>2026-05-02T14:51:05.112Z</time></trkpt><trkpt lat="42.1364322" lon="13.293614"><ele>913.0</ele><time>2026-05-02T14:51:07.113Z</time></trkpt><trkpt lat="42.1363904" lon="13.2935365"><ele>911.6666666666667</ele><time>2026-05-02T14:51:08.115Z</time></trkpt><trkpt lat="42.1363625" lon="13.2934508"><ele>910.3333333333334</ele><time>2026-05-02T14:51:09.114Z</time></trkpt><trkpt lat="42.1363569" lon="13.2933648"><ele>909.0</ele><time>2026-05-02T14:51:10.122Z</time></trkpt><trkpt lat="42.1363475" lon="13.2931928"><ele>909.0</ele><time>2026-05-02T14:51:12.12Z</time></trkpt><trkpt lat="42.1363228" lon="13.2931061"><ele>909.0</ele><time>2026-05-02T14:51:13.122Z</time></trkpt><trkpt lat="42.136288" lon="13.2930118"><ele>909.0</ele><time>2026-05-02T14:51:14.123Z</time></trkpt><trkpt lat="42.1362571" lon="13.2929113"><ele>909.0</ele><time>2026-05-02T14:51:15.119Z</time></trkpt><trkpt lat="42.1362345" lon="13.292812"><ele>909.0</ele><time>2026-05-02T14:51:16.129Z</time></trkpt><trkpt lat="42.1362207" lon="13.2927021"><ele>909.0</ele><time>2026-05-02T14:51:17.116Z</time></trkpt><trkpt lat="42.1362227" lon="13.2925867"><ele>908.6666666666666</ele><time>2026-05-02T14:51:18.123Z</time></trkpt><trkpt lat="42.1362384" lon="13.2924603"><ele>908.3333333333333</ele><time>2026-05-02T14:51:19.12Z</time></trkpt><trkpt lat="42.1362504" lon="13.292346"><ele>908.0</ele><time>2026-05-02T14:51:20.121Z</time></trkpt><trkpt lat="42.1362678" lon="13.2922324"><ele>907.6666666666666</ele><time>2026-05-02T14:51:21.121Z</time></trkpt><trkpt lat="42.1362873" lon="13.2921176"><ele>907.3333333333333</ele><time>2026-05-02T14:51:22.122Z</time></trkpt><trkpt lat="42.1363074" lon="13.292001"><ele>907.0</ele><time>2026-05-02T14:51:23.12Z</time></trkpt><trkpt lat="42.13632" lon="13.2918885"><ele>905.4999999999999</ele><time>2026-05-02T14:51:24.125Z</time></trkpt><trkpt lat="42.1363276" lon="13.2917732"><ele>904.0</ele><time>2026-05-02T14:51:25.122Z</time></trkpt><trkpt lat="42.1363335" lon="13.2916654"><ele>902.5</ele><time>2026-05-02T14:51:26.119Z</time></trkpt><trkpt lat="42.1363321" lon="13.2915734"><ele>901.0</ele><time>2026-05-02T14:51:27.11Z</time></trkpt><trkpt lat="42.1363299" lon="13.2914654"><ele>899.4999999999999</ele><time>2026-05-02T14:51:29.12Z</time></trkpt><trkpt lat="42.1363606" lon="13.2913896"><ele>898.0</ele><time>2026-05-02T14:51:31.126Z</time></trkpt><trkpt lat="42.1364486" lon="13.2913247"><ele>897.1428571428571</ele><time>2026-05-02T14:51:33.12Z</time></trkpt><trkpt lat="42.1364902" lon="13.2912605"><ele>896.2857142857142</ele><time>2026-05-02T14:51:34.121Z</time></trkpt><trkpt lat="42.1365172" lon="13.2911779"><ele>895.4285714285713</ele><time>2026-05-02T14:51:35.112Z</time></trkpt><trkpt lat="42.136526" lon="13.2910822"><ele>894.5714285714286</ele><time>2026-05-02T14:51:36.123Z</time></trkpt><trkpt lat="42.1365379" lon="13.2909854"><ele>893.7142857142857</ele><time>2026-05-02T14:51:37.119Z</time></trkpt><trkpt lat="42.1365595" lon="13.2909021"><ele>892.8571428571429</ele><time>2026-05-02T14:51:38.122Z</time></trkpt><trkpt lat="42.1365952" lon="13.2908278"><ele>892.0</ele><time>2026-05-02T14:51:39.124Z</time></trkpt><trkpt lat="42.1366889" lon="13.2907484"><ele>892.0</ele><time>2026-05-02T14:51:41.117Z</time></trkpt><trkpt lat="42.1367597" lon="13.2907479"><ele>892.0</ele><time>2026-05-02T14:51:42.117Z</time></trkpt><trkpt lat="42.1368555" lon="13.2907443"><ele>892.0</ele><time>2026-05-02T14:51:43.12Z</time></trkpt><trkpt lat="42.1369552" lon="13.2907454"><ele>892.0</ele><time>2026-05-02T14:51:44.134Z</time></trkpt><trkpt lat="42.1370593" lon="13.2907464"><ele>892.0</ele><time>2026-05-02T14:51:45.122Z</time></trkpt><trkpt lat="42.1371428" lon="13.2907429"><ele>892.0</ele><time>2026-05-02T14:51:46.123Z</time></trkpt><trkpt lat="42.1372471" lon="13.2907192"><ele>892.0</ele><time>2026-05-02T14:51:48.126Z</time></trkpt><trkpt lat="42.1372696" lon="13.2906364"><ele>892.0</ele><time>2026-05-02T14:51:50.127Z</time></trkpt><trkpt lat="42.1372656" lon="13.2905473"><ele>892.0</ele><time>2026-05-02T14:51:52.129Z</time></trkpt><trkpt lat="42.1372607" lon="13.2904559"><ele>892.0</ele><time>2026-05-02T14:52:00.124Z</time></trkpt><trkpt lat="42.1372073" lon="13.2903975"><ele>892.0</ele><time>2026-05-02T14:52:02.128Z</time></trkpt><trkpt lat="42.1371409" lon="13.2903938"><ele>892.0</ele><time>2026-05-02T14:52:03.123Z</time></trkpt><trkpt lat="42.1370171" lon="13.290382"><ele>889.0</ele><time>2026-05-02T14:52:05.119Z</time></trkpt><trkpt lat="42.1369149" lon="13.2903453"><ele>886.0</ele><time>2026-05-02T14:52:07.119Z</time></trkpt><trkpt lat="42.1368581" lon="13.2902615"><ele>883.0</ele><time>2026-05-02T14:52:09.119Z</time></trkpt><trkpt lat="42.136875" lon="13.2901719"><ele>880.0</ele><time>2026-05-02T14:52:11.117Z</time></trkpt><trkpt lat="42.1369814" lon="13.2900508"><ele>877.0</ele><time>2026-05-02T14:52:13.12Z</time></trkpt><trkpt lat="42.1370455" lon="13.2899758"><ele>876.9999999999999</ele><time>2026-05-02T14:52:14.124Z</time></trkpt><trkpt lat="42.137099" lon="13.289902"><ele>877.0</ele><time>2026-05-02T14:52:15.125Z</time></trkpt><trkpt lat="42.1371404" lon="13.2898228"><ele>877.0</ele><time>2026-05-02T14:52:16.118Z</time></trkpt><trkpt lat="42.1371714" lon="13.2897332"><ele>877.0</ele><time>2026-05-02T14:52:17.122Z</time></trkpt><trkpt lat="42.1371959" lon="13.2896371"><ele>876.9999999999999</ele><time>2026-05-02T14:52:18.124Z</time></trkpt><trkpt lat="42.1372118" lon="13.2895457"><ele>877.0</ele><time>2026-05-02T14:52:19.121Z</time></trkpt><trkpt lat="42.137209" lon="13.2894049"><ele>874.2</ele><time>2026-05-02T14:52:21.114Z</time></trkpt><trkpt lat="42.1371468" lon="13.2892998"><ele>871.4000000000001</ele><time>2026-05-02T14:52:23.126Z</time></trkpt><trkpt lat="42.1370978" lon="13.2891795"><ele>868.5999999999999</ele><time>2026-05-02T14:52:25.123Z</time></trkpt><trkpt lat="42.1371032" lon="13.2890688"><ele>865.8</ele><time>2026-05-02T14:52:27.112Z</time></trkpt><trkpt lat="42.1371897" lon="13.2889928"><ele>863.0</ele><time>2026-05-02T14:52:29.123Z</time></trkpt><trkpt lat="42.1372578" lon="13.2889033"><ele>861.4</ele><time>2026-05-02T14:52:31.111Z</time></trkpt><trkpt lat="42.1372154" lon="13.2887403"><ele>859.8</ele><time>2026-05-02T14:52:33.114Z</time></trkpt><trkpt lat="42.1371717" lon="13.2886299"><ele>858.2</ele><time>2026-05-02T14:52:34.116Z</time></trkpt><trkpt lat="42.1371258" lon="13.2884962"><ele>856.6</ele><time>2026-05-02T14:52:35.13Z</time></trkpt><trkpt lat="42.137083" lon="13.2883634"><ele>855.0</ele><time>2026-05-02T14:52:36.119Z</time></trkpt><trkpt lat="42.1370531" lon="13.2882495"><ele>855.0</ele><time>2026-05-02T14:52:37.114Z</time></trkpt><trkpt lat="42.1370544" lon="13.2881035"><ele>855.0</ele><time>2026-05-02T14:52:39.113Z</time></trkpt><trkpt lat="42.1371184" lon="13.2880319"><ele>855.0</ele><time>2026-05-02T14:52:41.113Z</time></trkpt><trkpt lat="42.1371943" lon="13.288062"><ele>855.0</ele><time>2026-05-02T14:52:43.113Z</time></trkpt><trkpt lat="42.1372367" lon="13.2881557"><ele>855.0</ele><time>2026-05-02T14:52:45.114Z</time></trkpt><trkpt lat="42.1372855" lon="13.2882509"><ele>855.0</ele><time>2026-05-02T14:52:47.117Z</time></trkpt><trkpt lat="42.1373783" lon="13.288353"><ele>855.3333333333334</ele><time>2026-05-02T14:52:49.114Z</time></trkpt><trkpt lat="42.1374569" lon="13.2884064"><ele>855.6666666666667</ele><time>2026-05-02T14:52:50.12Z</time></trkpt><trkpt lat="42.1375392" lon="13.2884702"><ele>856.0</ele><time>2026-05-02T14:52:51.122Z</time></trkpt><trkpt lat="42.1376176" lon="13.2885329"><ele>856.3333333333334</ele><time>2026-05-02T14:52:52.124Z</time></trkpt><trkpt lat="42.1376792" lon="13.288586"><ele>856.6666666666667</ele><time>2026-05-02T14:52:53.117Z</time></trkpt><trkpt lat="42.137743" lon="13.2886178"><ele>857.0</ele><time>2026-05-02T14:52:54.117Z</time></trkpt><trkpt lat="42.1378058" lon="13.2886253"><ele>857.0000000000001</ele><time>2026-05-02T14:52:55.115Z</time></trkpt><trkpt lat="42.1379056" lon="13.2885569"><ele>857.0</ele><time>2026-05-02T14:52:57.119Z</time></trkpt><trkpt lat="42.1379455" lon="13.2884863"><ele>857.0</ele><time>2026-05-02T14:52:58.118Z</time></trkpt><trkpt lat="42.1379663" lon="13.2883976"><ele>857.0</ele><time>2026-05-02T14:52:59.112Z</time></trkpt><trkpt lat="42.137975" lon="13.2882891"><ele>857.0000000000001</ele><time>2026-05-02T14:53:00.12Z</time></trkpt><trkpt lat="42.1379646" lon="13.2881607"><ele>857.0</ele><time>2026-05-02T14:53:01.116Z</time></trkpt><trkpt lat="42.1379446" lon="13.2880229"><ele>855.4000000000001</ele><time>2026-05-02T14:53:02.12Z</time></trkpt><trkpt lat="42.1379136" lon="13.2878784"><ele>853.8000000000001</ele><time>2026-05-02T14:53:03.118Z</time></trkpt><trkpt lat="42.1378842" lon="13.2877458"><ele>852.2</ele><time>2026-05-02T14:53:04.124Z</time></trkpt><trkpt lat="42.1378576" lon="13.287624"><ele>850.6</ele><time>2026-05-02T14:53:05.118Z</time></trkpt><trkpt lat="42.1378323" lon="13.2875059"><ele>849.0</ele><time>2026-05-02T14:53:06.13Z</time></trkpt><trkpt lat="42.1378072" lon="13.2873945"><ele>849.0</ele><time>2026-05-02T14:53:07.119Z</time></trkpt><trkpt lat="42.1377829" lon="13.2872863"><ele>849.0</ele><time>2026-05-02T14:53:08.119Z</time></trkpt><trkpt lat="42.1377704" lon="13.2871715"><ele>849.0</ele><time>2026-05-02T14:53:09.121Z</time></trkpt><trkpt lat="42.1377611" lon="13.2870643"><ele>849.0</ele><time>2026-05-02T14:53:10.119Z</time></trkpt><trkpt lat="42.1377637" lon="13.2869686"><ele>849.0</ele><time>2026-05-02T14:53:11.12Z</time></trkpt><trkpt lat="42.1377568" lon="13.2868149"><ele>849.0</ele><time>2026-05-02T14:53:13.119Z</time></trkpt><trkpt lat="42.1377372" lon="13.2866394"><ele>847.6666666666666</ele><time>2026-05-02T14:53:15.118Z</time></trkpt><trkpt lat="42.1377265" lon="13.2865268"><ele>846.3333333333333</ele><time>2026-05-02T14:53:16.119Z</time></trkpt><trkpt lat="42.1377167" lon="13.286413"><ele>845.0</ele><time>2026-05-02T14:53:17.113Z</time></trkpt><trkpt lat="42.137708" lon="13.2862999"><ele>843.6666666666666</ele><time>2026-05-02T14:53:18.115Z</time></trkpt><trkpt lat="42.1376914" lon="13.2861922"><ele>842.3333333333333</ele><time>2026-05-02T14:53:19.118Z</time></trkpt><trkpt lat="42.1376752" lon="13.2860875"><ele>841.0</ele><time>2026-05-02T14:53:20.117Z</time></trkpt><trkpt lat="42.137653" lon="13.2859954"><ele>840.5999999999999</ele><time>2026-05-02T14:53:21.117Z</time></trkpt><trkpt lat="42.137634" lon="13.2858578"><ele>840.2</ele><time>2026-05-02T14:53:23.118Z</time></trkpt><trkpt lat="42.1376393" lon="13.2857501"><ele>839.8</ele><time>2026-05-02T14:53:25.126Z</time></trkpt><trkpt lat="42.1377317" lon="13.2856929"><ele>839.4000000000001</ele><time>2026-05-02T14:53:28.117Z</time></trkpt><trkpt lat="42.1378579" lon="13.2857222"><ele>839.0</ele><time>2026-05-02T14:53:30.113Z</time></trkpt><trkpt lat="42.1379362" lon="13.2857566"><ele>839.0000000000001</ele><time>2026-05-02T14:53:31.118Z</time></trkpt><trkpt lat="42.1380179" lon="13.2857904"><ele>839.0</ele><time>2026-05-02T14:53:32.118Z</time></trkpt><trkpt lat="42.1380973" lon="13.2858178"><ele>839.0</ele><time>2026-05-02T14:53:33.118Z</time></trkpt><trkpt lat="42.1381699" lon="13.2858432"><ele>839.0</ele><time>2026-05-02T14:53:34.114Z</time></trkpt><trkpt lat="42.1382401" lon="13.2858746"><ele>839.0000000000001</ele><time>2026-05-02T14:53:35.116Z</time></trkpt><trkpt lat="42.138334" lon="13.2859397"><ele>839.0</ele><time>2026-05-02T14:53:37.115Z</time></trkpt><trkpt lat="42.1384042" lon="13.2860133"><ele>839.1666666666667</ele><time>2026-05-02T14:53:39.118Z</time></trkpt><trkpt lat="42.1384871" lon="13.2859805"><ele>839.3333333333334</ele><time>2026-05-02T14:53:41.117Z</time></trkpt><trkpt lat="42.1386047" lon="13.285947"><ele>839.5</ele><time>2026-05-02T14:53:43.114Z</time></trkpt><trkpt lat="42.1386749" lon="13.2859353"><ele>839.6666666666667</ele><time>2026-05-02T14:53:44.111Z</time></trkpt><trkpt lat="42.1387579" lon="13.2859238"><ele>839.8333333333334</ele><time>2026-05-02T14:53:45.117Z</time></trkpt><trkpt lat="42.1388257" lon="13.2859103"><ele>840.0</ele><time>2026-05-02T14:53:46.111Z</time></trkpt><trkpt lat="42.1388929" lon="13.285906"><ele>840.0</ele><time>2026-05-02T14:53:47.107Z</time></trkpt><trkpt lat="42.1389756" lon="13.2859322"><ele>840.0</ele><time>2026-05-02T14:53:49.104Z</time></trkpt><trkpt lat="42.139087" lon="13.2859788"><ele>840.0</ele><time>2026-05-02T14:53:51.109Z</time></trkpt><trkpt lat="42.1391595" lon="13.2859857"><ele>840.0</ele><time>2026-05-02T14:53:52.104Z</time></trkpt><trkpt lat="42.1392309" lon="13.2859795"><ele>840.0</ele><time>2026-05-02T14:53:53.116Z</time></trkpt><trkpt lat="42.1392988" lon="13.2859682"><ele>840.0</ele><time>2026-05-02T14:53:54.103Z</time></trkpt><trkpt lat="42.1393691" lon="13.2859585"><ele>839.5</ele><time>2026-05-02T14:53:55.119Z</time></trkpt><trkpt lat="42.1394419" lon="13.285951"><ele>839.0</ele><time>2026-05-02T14:53:56.109Z</time></trkpt><trkpt lat="42.1395235" lon="13.2859634"><ele>838.5</ele><time>2026-05-02T14:53:57.105Z</time></trkpt><trkpt lat="42.1396037" lon="13.2859759"><ele>838.0</ele><time>2026-05-02T14:53:58.118Z</time></trkpt><trkpt lat="42.1396842" lon="13.2859739"><ele>837.5</ele><time>2026-05-02T14:53:59.115Z</time></trkpt><trkpt lat="42.1397663" lon="13.2859616"><ele>837.0</ele><time>2026-05-02T14:54:00.115Z</time></trkpt><trkpt lat="42.1398459" lon="13.2859551"><ele>835.3333333333334</ele><time>2026-05-02T14:54:01.113Z</time></trkpt><trkpt lat="42.139928" lon="13.2859512"><ele>833.6666666666667</ele><time>2026-05-02T14:54:02.108Z</time></trkpt><trkpt lat="42.1400152" lon="13.2859524"><ele>832.0</ele><time>2026-05-02T14:54:03.111Z</time></trkpt><trkpt lat="42.1400964" lon="13.2859531"><ele>830.3333333333334</ele><time>2026-05-02T14:54:04.103Z</time></trkpt><trkpt lat="42.1401736" lon="13.2859578"><ele>828.6666666666667</ele><time>2026-05-02T14:54:05.107Z</time></trkpt><trkpt lat="42.1402515" lon="13.2859684"><ele>827.0</ele><time>2026-05-02T14:54:06.11Z</time></trkpt><trkpt lat="42.1403231" lon="13.2859787"><ele>827.0000000000001</ele><time>2026-05-02T14:54:07.112Z</time></trkpt><trkpt lat="42.1403924" lon="13.2859851"><ele>827.0</ele><time>2026-05-02T14:54:08.104Z</time></trkpt><trkpt lat="42.1404712" lon="13.2859982"><ele>827.0</ele><time>2026-05-02T14:54:09.111Z</time></trkpt><trkpt lat="42.1405362" lon="13.2860192"><ele>827.0</ele><time>2026-05-02T14:54:10.108Z</time></trkpt><trkpt lat="42.1406539" lon="13.2860361"><ele>827.0000000000001</ele><time>2026-05-02T14:54:12.11Z</time></trkpt><trkpt lat="42.1407685" lon="13.2860395"><ele>827.0</ele><time>2026-05-02T14:54:14.111Z</time></trkpt><trkpt lat="42.1408647" lon="13.2860363"><ele>825.6666666666667</ele><time>2026-05-02T14:54:16.109Z</time></trkpt><trkpt lat="42.1409446" lon="13.2860295"><ele>824.3333333333334</ele><time>2026-05-02T14:54:18.107Z</time></trkpt><trkpt lat="42.1410284" lon="13.2860729"><ele>823.0</ele><time>2026-05-02T14:54:20.105Z</time></trkpt><trkpt lat="42.1410867" lon="13.286115"><ele>821.6666666666667</ele><time>2026-05-02T14:54:21.104Z</time></trkpt><trkpt lat="42.141155" lon="13.2861595"><ele>820.3333333333334</ele><time>2026-05-02T14:54:22.101Z</time></trkpt><trkpt lat="42.1412269" lon="13.2861711"><ele>819.0</ele><time>2026-05-02T14:54:23.105Z</time></trkpt><trkpt lat="42.1412977" lon="13.286166"><ele>819.0</ele><time>2026-05-02T14:54:24.107Z</time></trkpt><trkpt lat="42.1413742" lon="13.2861371"><ele>819.0</ele><time>2026-05-02T14:54:25.104Z</time></trkpt><trkpt lat="42.1414539" lon="13.2860911"><ele>819.0</ele><time>2026-05-02T14:54:26.105Z</time></trkpt><trkpt lat="42.1415318" lon="13.2860546"><ele>819.0</ele><time>2026-05-02T14:54:27.107Z</time></trkpt><trkpt lat="42.1416087" lon="13.2860233"><ele>819.0</ele><time>2026-05-02T14:54:28.113Z</time></trkpt><trkpt lat="42.1416851" lon="13.2860021"><ele>819.0</ele><time>2026-05-02T14:54:29.116Z</time></trkpt><trkpt lat="42.1417655" lon="13.2859946"><ele>815.6666666666666</ele><time>2026-05-02T14:54:30.111Z</time></trkpt><trkpt lat="42.1418495" lon="13.2860037"><ele>812.3333333333333</ele><time>2026-05-02T14:54:31.111Z</time></trkpt><trkpt lat="42.1419322" lon="13.2860132"><ele>809.0</ele><time>2026-05-02T14:54:32.112Z</time></trkpt><trkpt lat="42.1420139" lon="13.2860181"><ele>805.6666666666666</ele><time>2026-05-02T14:54:33.113Z</time></trkpt><trkpt lat="42.1420915" lon="13.28602"><ele>802.3333333333333</ele><time>2026-05-02T14:54:34.119Z</time></trkpt><trkpt lat="42.1421609" lon="13.2860231"><ele>799.0</ele><time>2026-05-02T14:54:35.112Z</time></trkpt><trkpt lat="42.1422758" lon="13.2860412"><ele>798.9999999999999</ele><time>2026-05-02T14:54:37.111Z</time></trkpt><trkpt lat="42.1423669" lon="13.2860176"><ele>799.0</ele><time>2026-05-02T14:54:39.113Z</time></trkpt><trkpt lat="42.142445" lon="13.2859735"><ele>799.0</ele><time>2026-05-02T14:54:41.114Z</time></trkpt><trkpt lat="42.1425198" lon="13.2859753"><ele>799.0</ele><time>2026-05-02T14:54:43.117Z</time></trkpt><trkpt lat="42.1425783" lon="13.286051"><ele>798.9999999999999</ele><time>2026-05-02T14:54:46.124Z</time></trkpt><trkpt lat="42.1426035" lon="13.286163"><ele>799.0</ele><time>2026-05-02T14:54:49.114Z</time></trkpt><trkpt lat="42.1426617" lon="13.2862675"><ele>798.6</ele><time>2026-05-02T14:54:51.114Z</time></trkpt><trkpt lat="42.1427409" lon="13.2863643"><ele>798.2</ele><time>2026-05-02T14:54:53.111Z</time></trkpt><trkpt lat="42.1428327" lon="13.2864299"><ele>797.8000000000001</ele><time>2026-05-02T14:54:55.116Z</time></trkpt><trkpt lat="42.1429422" lon="13.2864931"><ele>797.4000000000001</ele><time>2026-05-02T14:54:57.113Z</time></trkpt><trkpt lat="42.142992" lon="13.286546"><ele>797.0</ele><time>2026-05-02T14:54:58.117Z</time></trkpt><trkpt lat="42.1430503" lon="13.286622"><ele>797.0</ele><time>2026-05-02T14:54:59.117Z</time></trkpt><trkpt lat="42.1431077" lon="13.2867069"><ele>797.0</ele><time>2026-05-02T14:55:00.11Z</time></trkpt><trkpt lat="42.1431666" lon="13.2868043"><ele>797.0</ele><time>2026-05-02T14:55:01.115Z</time></trkpt><trkpt lat="42.1432168" lon="13.2869068"><ele>797.0</ele><time>2026-05-02T14:55:02.114Z</time></trkpt><trkpt lat="42.1432591" lon="13.2870202"><ele>797.0</ele><time>2026-05-02T14:55:03.11Z</time></trkpt><trkpt lat="42.143296" lon="13.287133"><ele>794.5000000000001</ele><time>2026-05-02T14:55:04.109Z</time></trkpt><trkpt lat="42.1433187" lon="13.2872358"><ele>792.0</ele><time>2026-05-02T14:55:05.104Z</time></trkpt><trkpt lat="42.1433235" lon="13.2873298"><ele>789.5</ele><time>2026-05-02T14:55:06.103Z</time></trkpt><trkpt lat="42.1433135" lon="13.2874353"><ele>787.0</ele><time>2026-05-02T14:55:07.102Z</time></trkpt><trkpt lat="42.1433082" lon="13.2875516"><ele>784.5000000000001</ele><time>2026-05-02T14:55:08.107Z</time></trkpt><trkpt lat="42.1433114" lon="13.2876583"><ele>782.0</ele><time>2026-05-02T14:55:09.109Z</time></trkpt><trkpt lat="42.1433563" lon="13.2877908"><ele>782.0000000000001</ele><time>2026-05-02T14:55:11.1Z</time></trkpt><trkpt lat="42.1434469" lon="13.2878604"><ele>782.0</ele><time>2026-05-02T14:55:13.101Z</time></trkpt><trkpt lat="42.1435219" lon="13.2878673"><ele>782.0</ele><time>2026-05-02T14:55:15.105Z</time></trkpt><trkpt lat="42.1436291" lon="13.2879095"><ele>782.0</ele><time>2026-05-02T14:55:17.111Z</time></trkpt><trkpt lat="42.1437003" lon="13.2879311"><ele>782.0000000000001</ele><time>2026-05-02T14:55:18.108Z</time></trkpt><trkpt lat="42.1437621" lon="13.2879146"><ele>782.0</ele><time>2026-05-02T14:55:19.108Z</time></trkpt><trkpt lat="42.1438246" lon="13.2878662"><ele>782.0000000000001</ele><time>2026-05-02T14:55:20.106Z</time></trkpt><trkpt lat="42.1438825" lon="13.2877941"><ele>782.0</ele><time>2026-05-02T14:55:21.11Z</time></trkpt><trkpt lat="42.1439333" lon="13.287696"><ele>782.0</ele><time>2026-05-02T14:55:22.103Z</time></trkpt><trkpt lat="42.1439806" lon="13.2876073"><ele>782.0</ele><time>2026-05-02T14:55:23.109Z</time></trkpt><trkpt lat="42.1440323" lon="13.2875346"><ele>782.0000000000001</ele><time>2026-05-02T14:55:24.118Z</time></trkpt><trkpt lat="42.1440908" lon="13.2874789"><ele>782.0</ele><time>2026-05-02T14:55:25.12Z</time></trkpt><trkpt lat="42.1441544" lon="13.2874336"><ele>783.0000000000001</ele><time>2026-05-02T14:55:26.117Z</time></trkpt><trkpt lat="42.1442235" lon="13.2874046"><ele>784.0</ele><time>2026-05-02T14:55:27.116Z</time></trkpt><trkpt lat="42.1442988" lon="13.2873957"><ele>785.0</ele><time>2026-05-02T14:55:28.12Z</time></trkpt><trkpt lat="42.1443841" lon="13.2874033"><ele>786.0</ele><time>2026-05-02T14:55:29.119Z</time></trkpt><trkpt lat="42.144473" lon="13.2874182"><ele>787.0000000000001</ele><time>2026-05-02T14:55:30.117Z</time></trkpt><trkpt lat="42.1445512" lon="13.2874234"><ele>788.0</ele><time>2026-05-02T14:55:31.117Z</time></trkpt><trkpt lat="42.1446253" lon="13.2874156"><ele>788.0000000000001</ele><time>2026-05-02T14:55:32.114Z</time></trkpt><trkpt lat="42.1447049" lon="13.2873987"><ele>788.0</ele><time>2026-05-02T14:55:33.12Z</time></trkpt><trkpt lat="42.1447888" lon="13.2873825"><ele>788.0</ele><time>2026-05-02T14:55:34.12Z</time></trkpt><trkpt lat="42.1448647" lon="13.2873807"><ele>788.0</ele><time>2026-05-02T14:55:35.114Z</time></trkpt><trkpt lat="42.1449264" lon="13.2874015"><ele>788.0000000000001</ele><time>2026-05-02T14:55:36.115Z</time></trkpt><trkpt lat="42.1450227" lon="13.2874739"><ele>788.0</ele><time>2026-05-02T14:55:38.12Z</time></trkpt><trkpt lat="42.1450774" lon="13.2875962"><ele>789.3333333333334</ele><time>2026-05-02T14:55:40.125Z</time></trkpt><trkpt lat="42.1450946" lon="13.2877178"><ele>790.6666666666667</ele><time>2026-05-02T14:55:42.119Z</time></trkpt><trkpt lat="42.1450859" lon="13.2878318"><ele>792.0</ele><time>2026-05-02T14:55:44.117Z</time></trkpt><trkpt lat="42.1450632" lon="13.2879909"><ele>793.3333333333333</ele><time>2026-05-02T14:55:46.124Z</time></trkpt><trkpt lat="42.1450396" lon="13.288087"><ele>794.6666666666666</ele><time>2026-05-02T14:55:47.119Z</time></trkpt><trkpt lat="42.1450126" lon="13.288182"><ele>796.0</ele><time>2026-05-02T14:55:48.118Z</time></trkpt><trkpt lat="42.1449896" lon="13.2883451"><ele>796.1999999999999</ele><time>2026-05-02T14:55:50.115Z</time></trkpt><trkpt lat="42.1449913" lon="13.2885075"><ele>796.4</ele><time>2026-05-02T14:55:52.12Z</time></trkpt><trkpt lat="42.144989" lon="13.2886738"><ele>796.6</ele><time>2026-05-02T14:55:54.121Z</time></trkpt><trkpt lat="42.1449735" lon="13.2888346"><ele>796.8</ele><time>2026-05-02T14:55:56.122Z</time></trkpt><trkpt lat="42.1449705" lon="13.2889258"><ele>797.0</ele><time>2026-05-02T14:55:57.116Z</time></trkpt><trkpt lat="42.1449656" lon="13.289018"><ele>796.4000000000001</ele><time>2026-05-02T14:55:58.12Z</time></trkpt><trkpt lat="42.1449759" lon="13.2891788"><ele>795.8000000000001</ele><time>2026-05-02T14:56:00.117Z</time></trkpt><trkpt lat="42.1449863" lon="13.2893286"><ele>795.2</ele><time>2026-05-02T14:56:02.118Z</time></trkpt><trkpt lat="42.1449952" lon="13.2895094"><ele>794.6</ele><time>2026-05-02T14:56:04.119Z</time></trkpt><trkpt lat="42.1450133" lon="13.2896031"><ele>794.0</ele><time>2026-05-02T14:56:05.115Z</time></trkpt><trkpt lat="42.1450347" lon="13.2896965"><ele>794.6666666666667</ele><time>2026-05-02T14:56:06.115Z</time></trkpt><trkpt lat="42.1450551" lon="13.2897872"><ele>795.3333333333334</ele><time>2026-05-02T14:56:07.121Z</time></trkpt><trkpt lat="42.1450853" lon="13.2898732"><ele>796.0</ele><time>2026-05-02T14:56:08.121Z</time></trkpt><trkpt lat="42.1451286" lon="13.2899539"><ele>796.6666666666667</ele><time>2026-05-02T14:56:09.119Z</time></trkpt><trkpt lat="42.1451745" lon="13.2900406"><ele>797.3333333333334</ele><time>2026-05-02T14:56:10.118Z</time></trkpt><trkpt lat="42.145214" lon="13.2901313"><ele>798.0</ele><time>2026-05-02T14:56:11.122Z</time></trkpt><trkpt lat="42.1452587" lon="13.2902193"><ele>798.0</ele><time>2026-05-02T14:56:12.117Z</time></trkpt><trkpt lat="42.1452988" lon="13.2902991"><ele>798.0</ele><time>2026-05-02T14:56:13.119Z</time></trkpt><trkpt lat="42.145343" lon="13.2903742"><ele>798.0</ele><time>2026-05-02T14:56:14.121Z</time></trkpt><trkpt lat="42.1453938" lon="13.2904495"><ele>798.0</ele><time>2026-05-02T14:56:15.118Z</time></trkpt><trkpt lat="42.1454426" lon="13.2905215"><ele>798.0</ele><time>2026-05-02T14:56:16.119Z</time></trkpt><trkpt lat="42.1454953" lon="13.2905849"><ele>798.0</ele><time>2026-05-02T14:56:17.122Z</time></trkpt><trkpt lat="42.1455493" lon="13.2906459"><ele>798.0</ele><time>2026-05-02T14:56:18.115Z</time></trkpt><trkpt lat="42.1456002" lon="13.2907022"><ele>799.0</ele><time>2026-05-02T14:56:19.117Z</time></trkpt><trkpt lat="42.1456527" lon="13.2907572"><ele>800.0</ele><time>2026-05-02T14:56:20.113Z</time></trkpt><trkpt lat="42.1457515" lon="13.2908208"><ele>801.0</ele><time>2026-05-02T14:56:22.117Z</time></trkpt><trkpt lat="42.1458579" lon="13.2909069"><ele>802.0</ele><time>2026-05-02T14:56:24.117Z</time></trkpt><trkpt lat="42.1459588" lon="13.291002"><ele>803.0</ele><time>2026-05-02T14:56:26.122Z</time></trkpt><trkpt lat="42.1460501" lon="13.2910896"><ele>801.2</ele><time>2026-05-02T14:56:28.12Z</time></trkpt><trkpt lat="42.1461165" lon="13.2911741"><ele>799.4</ele><time>2026-05-02T14:56:30.116Z</time></trkpt><trkpt lat="42.1461589" lon="13.2912549"><ele>797.6</ele><time>2026-05-02T14:57:55.129Z</time></trkpt><trkpt lat="42.1462237" lon="13.2913541"><ele>795.8000000000001</ele><time>2026-05-02T14:57:58.118Z</time></trkpt><trkpt lat="42.1463122" lon="13.2914852"><ele>794.0</ele><time>2026-05-02T14:58:00.12Z</time></trkpt><trkpt lat="42.1463585" lon="13.2915643"><ele>794.0000000000001</ele><time>2026-05-02T14:58:01.12Z</time></trkpt><trkpt lat="42.1464176" lon="13.2916438"><ele>794.0</ele><time>2026-05-02T14:58:02.123Z</time></trkpt><trkpt lat="42.1464764" lon="13.291722"><ele>794.0</ele><time>2026-05-02T14:58:03.122Z</time></trkpt><trkpt lat="42.146539" lon="13.2917963"><ele>794.0</ele><time>2026-05-02T14:58:04.121Z</time></trkpt><trkpt lat="42.1465956" lon="13.2918676"><ele>794.0000000000001</ele><time>2026-05-02T14:58:05.11Z</time></trkpt><trkpt lat="42.1466472" lon="13.2919286"><ele>794.0</ele><time>2026-05-02T14:58:06.117Z</time></trkpt><trkpt lat="42.1467034" lon="13.2919734"><ele>791.6666666666667</ele><time>2026-05-02T14:58:07.123Z</time></trkpt><trkpt lat="42.1468038" lon="13.2919622"><ele>789.3333333333334</ele><time>2026-05-02T14:58:09.126Z</time></trkpt><trkpt lat="42.1468542" lon="13.2919006"><ele>787.0</ele><time>2026-05-02T14:58:10.124Z</time></trkpt><trkpt lat="42.1469134" lon="13.2918231"><ele>784.6666666666667</ele><time>2026-05-02T14:58:11.116Z</time></trkpt><trkpt lat="42.1469791" lon="13.2917352"><ele>782.3333333333334</ele><time>2026-05-02T14:58:12.119Z</time></trkpt><trkpt lat="42.1470384" lon="13.2916514"><ele>780.0</ele><time>2026-05-02T14:58:13.115Z</time></trkpt><trkpt lat="42.1470932" lon="13.2915803"><ele>780.0</ele><time>2026-05-02T14:58:14.123Z</time></trkpt><trkpt lat="42.1472111" lon="13.2915091"><ele>780.0</ele><time>2026-05-02T14:58:16.118Z</time></trkpt><trkpt lat="42.1472794" lon="13.2914987"><ele>780.0</ele><time>2026-05-02T14:58:17.116Z</time></trkpt><trkpt lat="42.1473446" lon="13.2915028"><ele>780.0</ele><time>2026-05-02T14:58:18.114Z</time></trkpt><trkpt lat="42.1474107" lon="13.291523"><ele>780.0</ele><time>2026-05-02T14:58:19.114Z</time></trkpt><trkpt lat="42.147504" lon="13.2916009"><ele>780.0</ele><time>2026-05-02T14:58:21.109Z</time></trkpt><trkpt lat="42.1475594" lon="13.2916433"><ele>777.1666666666666</ele><time>2026-05-02T14:58:23.111Z</time></trkpt><trkpt lat="42.1476438" lon="13.2916951"><ele>774.3333333333334</ele><time>2026-05-02T14:58:28.134Z</time></trkpt><trkpt lat="42.1476315" lon="13.2915531"><ele>771.5</ele><time>2026-05-02T14:58:31.122Z</time></trkpt><trkpt lat="42.147584" lon="13.2914546"><ele>768.6666666666667</ele><time>2026-05-02T14:58:32.122Z</time></trkpt><trkpt lat="42.147542" lon="13.2913576"><ele>765.8333333333334</ele><time>2026-05-02T14:58:33.118Z</time></trkpt><trkpt lat="42.1475131" lon="13.2912705"><ele>763.0</ele><time>2026-05-02T14:58:34.119Z</time></trkpt><trkpt lat="42.1474827" lon="13.2911234"><ele>760.0</ele><time>2026-05-02T14:58:36.123Z</time></trkpt><trkpt lat="42.1475381" lon="13.2909496"><ele>757.0</ele><time>2026-05-02T14:58:38.132Z</time></trkpt><trkpt lat="42.1475938" lon="13.2908281"><ele>754.0</ele><time>2026-05-02T14:58:39.134Z</time></trkpt><trkpt lat="42.1476541" lon="13.2907088"><ele>751.0</ele><time>2026-05-02T14:58:40.13Z</time></trkpt><trkpt lat="42.147707" lon="13.2905915"><ele>751.3333333333334</ele><time>2026-05-02T14:58:41.136Z</time></trkpt><trkpt lat="42.1477595" lon="13.2904945"><ele>751.6666666666667</ele><time>2026-05-02T14:58:42.125Z</time></trkpt><trkpt lat="42.1478196" lon="13.2904178"><ele>752.0</ele><time>2026-05-02T14:58:43.132Z</time></trkpt><trkpt lat="42.1478849" lon="13.2903651"><ele>752.3333333333334</ele><time>2026-05-02T14:58:44.136Z</time></trkpt><trkpt lat="42.1479644" lon="13.2903198"><ele>752.6666666666666</ele><time>2026-05-02T14:58:45.129Z</time></trkpt><trkpt lat="42.148061" lon="13.2902683"><ele>753.0</ele><time>2026-05-02T14:58:46.147Z</time></trkpt><trkpt lat="42.1481631" lon="13.2902075"><ele>750.2</ele><time>2026-05-02T14:58:47.133Z</time></trkpt><trkpt lat="42.1482614" lon="13.2901456"><ele>747.4</ele><time>2026-05-02T14:58:48.136Z</time></trkpt><trkpt lat="42.1483647" lon="13.290081"><ele>744.6</ele><time>2026-05-02T14:58:49.132Z</time></trkpt><trkpt lat="42.1484612" lon="13.2900178"><ele>741.8000000000001</ele><time>2026-05-02T14:58:50.132Z</time></trkpt><trkpt lat="42.1485505" lon="13.2899511"><ele>739.0</ele><time>2026-05-02T14:58:51.135Z</time></trkpt><trkpt lat="42.1486318" lon="13.2898706"><ele>739.0</ele><time>2026-05-02T14:58:52.137Z</time></trkpt><trkpt lat="42.1487181" lon="13.2897951"><ele>739.0</ele><time>2026-05-02T14:58:53.135Z</time></trkpt><trkpt lat="42.1488122" lon="13.2897214"><ele>739.0</ele><time>2026-05-02T14:58:54.14Z</time></trkpt><trkpt lat="42.1489077" lon="13.2896467"><ele>739.0</ele><time>2026-05-02T14:58:55.135Z</time></trkpt><trkpt lat="42.1489934" lon="13.2895669"><ele>739.0</ele><time>2026-05-02T14:58:56.125Z</time></trkpt><trkpt lat="42.1490665" lon="13.2894935"><ele>739.2</ele><time>2026-05-02T14:58:57.132Z</time></trkpt><trkpt lat="42.149125" lon="13.2894084"><ele>739.4000000000001</ele><time>2026-05-02T14:58:58.142Z</time></trkpt><trkpt lat="42.1491912" lon="13.2893141"><ele>739.6</ele><time>2026-05-02T14:58:59.135Z</time></trkpt><trkpt lat="42.1492498" lon="13.2892018"><ele>739.8</ele><time>2026-05-02T14:59:00.139Z</time></trkpt><trkpt lat="42.1493075" lon="13.2890921"><ele>740.0</ele><time>2026-05-02T14:59:01.139Z</time></trkpt><trkpt lat="42.1493625" lon="13.2889911"><ele>740.6</ele><time>2026-05-02T14:59:02.139Z</time></trkpt><trkpt lat="42.149423" lon="13.2889107"><ele>741.2</ele><time>2026-05-02T14:59:03.137Z</time></trkpt><trkpt lat="42.1494854" lon="13.2888492"><ele>741.8</ele><time>2026-05-02T14:59:04.142Z</time></trkpt><trkpt lat="42.1495462" lon="13.2888015"><ele>742.4</ele><time>2026-05-02T14:59:05.139Z</time></trkpt><trkpt lat="42.1496514" lon="13.2886831"><ele>743.0</ele><time>2026-05-02T14:59:07.133Z</time></trkpt><trkpt lat="42.1497169" lon="13.2885995"><ele>743.0</ele><time>2026-05-02T14:59:08.133Z</time></trkpt><trkpt lat="42.1498008" lon="13.2885018"><ele>743.0</ele><time>2026-05-02T14:59:09.13Z</time></trkpt><trkpt lat="42.1498878" lon="13.2883999"><ele>743.0</ele><time>2026-05-02T14:59:10.134Z</time></trkpt><trkpt lat="42.149968" lon="13.2882877"><ele>743.0</ele><time>2026-05-02T14:59:11.139Z</time></trkpt><trkpt lat="42.1500408" lon="13.2881738"><ele>741.0</ele><time>2026-05-02T14:59:12.14Z</time></trkpt><trkpt lat="42.1501108" lon="13.2880514"><ele>739.0</ele><time>2026-05-02T14:59:13.135Z</time></trkpt><trkpt lat="42.1501737" lon="13.2879276"><ele>737.0</ele><time>2026-05-02T14:59:14.138Z</time></trkpt><trkpt lat="42.150234" lon="13.2878106"><ele>735.0</ele><time>2026-05-02T14:59:15.137Z</time></trkpt><trkpt lat="42.150291" lon="13.2877143"><ele>733.0</ele><time>2026-05-02T14:59:16.123Z</time></trkpt><trkpt lat="42.1503342" lon="13.2876338"><ele>733.0</ele><time>2026-05-02T14:59:17.135Z</time></trkpt><trkpt lat="42.1504015" lon="13.2875235"><ele>733.0</ele><time>2026-05-02T14:59:19.137Z</time></trkpt><trkpt lat="42.150452" lon="13.2874305"><ele>733.0</ele><time>2026-05-02T14:59:21.139Z</time></trkpt><trkpt lat="42.150517" lon="13.2873011"><ele>733.0</ele><time>2026-05-02T14:59:23.14Z</time></trkpt><trkpt lat="42.1505634" lon="13.2872181"><ele>733.0</ele><time>2026-05-02T14:59:24.139Z</time></trkpt><trkpt lat="42.1506206" lon="13.2871275"><ele>732.8</ele><time>2026-05-02T14:59:25.137Z</time></trkpt><trkpt lat="42.1506772" lon="13.2870485"><ele>732.5999999999999</ele><time>2026-05-02T14:59:26.137Z</time></trkpt><trkpt lat="42.1507271" lon="13.2869799"><ele>732.4000000000001</ele><time>2026-05-02T14:59:27.134Z</time></trkpt><trkpt lat="42.1508089" lon="13.2869059"><ele>732.2</ele><time>2026-05-02T14:59:29.142Z</time></trkpt><trkpt lat="42.1509061" lon="13.2868824"><ele>732.0</ele><time>2026-05-02T14:59:32.133Z</time></trkpt><trkpt lat="42.1510063" lon="13.2867554"><ele>731.6</ele><time>2026-05-02T14:59:34.139Z</time></trkpt><trkpt lat="42.1510717" lon="13.2866688"><ele>731.2</ele><time>2026-05-02T14:59:35.137Z</time></trkpt><trkpt lat="42.1511424" lon="13.2865804"><ele>730.8</ele><time>2026-05-02T14:59:36.143Z</time></trkpt><trkpt lat="42.1512062" lon="13.2864897"><ele>730.4</ele><time>2026-05-02T14:59:37.139Z</time></trkpt><trkpt lat="42.1512746" lon="13.2863837"><ele>730.0</ele><time>2026-05-02T14:59:38.142Z</time></trkpt><trkpt lat="42.1513395" lon="13.2862838"><ele>729.6</ele><time>2026-05-02T14:59:39.145Z</time></trkpt><trkpt lat="42.151404" lon="13.2861775"><ele>729.2</ele><time>2026-05-02T14:59:40.152Z</time></trkpt><trkpt lat="42.1514669" lon="13.2860717"><ele>728.8</ele><time>2026-05-02T14:59:41.143Z</time></trkpt><trkpt lat="42.1515301" lon="13.2859739"><ele>728.4</ele><time>2026-05-02T14:59:42.133Z</time></trkpt><trkpt lat="42.1515983" lon="13.2858777"><ele>728.0</ele><time>2026-05-02T14:59:43.137Z</time></trkpt><trkpt lat="42.1516762" lon="13.2857929"><ele>727.5999999999999</ele><time>2026-05-02T14:59:44.132Z</time></trkpt><trkpt lat="42.1517571" lon="13.2857262"><ele>727.1999999999999</ele><time>2026-05-02T14:59:45.131Z</time></trkpt><trkpt lat="42.151843" lon="13.2856543"><ele>726.8</ele><time>2026-05-02T14:59:46.137Z</time></trkpt><trkpt lat="42.1519271" lon="13.2855656"><ele>726.4</ele><time>2026-05-02T14:59:47.134Z</time></trkpt><trkpt lat="42.1520143" lon="13.2854582"><ele>726.0</ele><time>2026-05-02T14:59:48.13Z</time></trkpt><trkpt lat="42.1521169" lon="13.2853393"><ele>726.0</ele><time>2026-05-02T14:59:49.128Z</time></trkpt><trkpt lat="42.1522205" lon="13.2852123"><ele>726.0</ele><time>2026-05-02T14:59:50.125Z</time></trkpt><trkpt lat="42.1523315" lon="13.2850772"><ele>726.0</ele><time>2026-05-02T14:59:51.137Z</time></trkpt><trkpt lat="42.1524324" lon="13.2849651"><ele>726.0</ele><time>2026-05-02T14:59:52.127Z</time></trkpt><trkpt lat="42.1525273" lon="13.2848857"><ele>726.0</ele><time>2026-05-02T14:59:53.138Z</time></trkpt><trkpt lat="42.1526302" lon="13.284767"><ele>726.0</ele><time>2026-05-02T14:59:54.125Z</time></trkpt><trkpt lat="42.1527324" lon="13.2846625"><ele>726.0</ele><time>2026-05-02T14:59:55.131Z</time></trkpt><trkpt lat="42.1528234" lon="13.2845665"><ele>726.0</ele><time>2026-05-02T14:59:56.129Z</time></trkpt><trkpt lat="42.152913" lon="13.2844725"><ele>726.1999999999999</ele><time>2026-05-02T14:59:57.118Z</time></trkpt><trkpt lat="42.1529826" lon="13.2843837"><ele>726.4</ele><time>2026-05-02T14:59:58.136Z</time></trkpt><trkpt lat="42.1530422" lon="13.2842839"><ele>726.6</ele><time>2026-05-02T14:59:59.133Z</time></trkpt><trkpt lat="42.1531031" lon="13.2841845"><ele>726.8</ele><time>2026-05-02T15:00:00.131Z</time></trkpt><trkpt lat="42.1531666" lon="13.2840966"><ele>727.0</ele><time>2026-05-02T15:00:01.125Z</time></trkpt><trkpt lat="42.1532246" lon="13.28401"><ele>727.0</ele><time>2026-05-02T15:00:02.125Z</time></trkpt><trkpt lat="42.1532804" lon="13.2839187"><ele>727.0</ele><time>2026-05-02T15:00:03.132Z</time></trkpt><trkpt lat="42.1533365" lon="13.2838307"><ele>727.0</ele><time>2026-05-02T15:00:04.126Z</time></trkpt><trkpt lat="42.1533977" lon="13.2837356"><ele>727.0</ele><time>2026-05-02T15:00:05.13Z</time></trkpt><trkpt lat="42.1534617" lon="13.2836213"><ele>727.0</ele><time>2026-05-02T15:00:06.132Z</time></trkpt><trkpt lat="42.1535315" lon="13.283499"><ele>727.0</ele><time>2026-05-02T15:00:07.131Z</time></trkpt><trkpt lat="42.1536068" lon="13.2833694"><ele>727.0</ele><time>2026-05-02T15:00:08.126Z</time></trkpt><trkpt lat="42.1536892" lon="13.2832331"><ele>727.0</ele><time>2026-05-02T15:00:09.133Z</time></trkpt><trkpt lat="42.1537797" lon="13.2830921"><ele>727.0</ele><time>2026-05-02T15:00:10.125Z</time></trkpt><trkpt lat="42.1538915" lon="13.2829289"><ele>727.0</ele><time>2026-05-02T15:00:11.129Z</time></trkpt><trkpt lat="42.154012" lon="13.2827742"><ele>727.0</ele><time>2026-05-02T15:00:12.126Z</time></trkpt><trkpt lat="42.1541161" lon="13.2826584"><ele>727.0</ele><time>2026-05-02T15:00:13.125Z</time></trkpt><trkpt lat="42.1541934" lon="13.2825287"><ele>727.0</ele><time>2026-05-02T15:00:14.13Z</time></trkpt><trkpt lat="42.1542759" lon="13.2824186"><ele>727.25</ele><time>2026-05-02T15:00:15.13Z</time></trkpt><trkpt lat="42.1543641" lon="13.2823124"><ele>727.5</ele><time>2026-05-02T15:00:16.123Z</time></trkpt><trkpt lat="42.1544573" lon="13.2821897"><ele>727.75</ele><time>2026-05-02T15:00:17.132Z</time></trkpt><trkpt lat="42.1545411" lon="13.2820934"><ele>728.0</ele><time>2026-05-02T15:00:18.117Z</time></trkpt><trkpt lat="42.1546299" lon="13.2820007"><ele>728.25</ele><time>2026-05-02T15:00:19.13Z</time></trkpt><trkpt lat="42.1547258" lon="13.2819158"><ele>728.5</ele><time>2026-05-02T15:00:20.126Z</time></trkpt><trkpt lat="42.1548293" lon="13.2818426"><ele>728.75</ele><time>2026-05-02T15:00:21.131Z</time></trkpt><trkpt lat="42.1549442" lon="13.2817657"><ele>729.0</ele><time>2026-05-02T15:00:22.127Z</time></trkpt><trkpt lat="42.1550622" lon="13.2816891"><ele>729.25</ele><time>2026-05-02T15:00:23.129Z</time></trkpt><trkpt lat="42.1551786" lon="13.2816102"><ele>729.5</ele><time>2026-05-02T15:00:24.132Z</time></trkpt><trkpt lat="42.1552909" lon="13.2815247"><ele>729.75</ele><time>2026-05-02T15:00:25.137Z</time></trkpt><trkpt lat="42.1554043" lon="13.2814255"><ele>730.0</ele><time>2026-05-02T15:00:26.125Z</time></trkpt><trkpt lat="42.1555155" lon="13.2813166"><ele>730.0</ele><time>2026-05-02T15:00:27.129Z</time></trkpt><trkpt lat="42.1556211" lon="13.2811926"><ele>730.0</ele><time>2026-05-02T15:00:28.134Z</time></trkpt><trkpt lat="42.1557243" lon="13.2811032"><ele>730.0</ele><time>2026-05-02T15:00:29.144Z</time></trkpt><trkpt lat="42.1558471" lon="13.2810064"><ele>730.0</ele><time>2026-05-02T15:00:30.14Z</time></trkpt><trkpt lat="42.1559581" lon="13.2809023"><ele>731.0</ele><time>2026-05-02T15:00:31.133Z</time></trkpt><trkpt lat="42.1560724" lon="13.2808076"><ele>732.0</ele><time>2026-05-02T15:00:32.134Z</time></trkpt><trkpt lat="42.1561902" lon="13.2807066"><ele>733.0</ele><time>2026-05-02T15:00:33.133Z</time></trkpt><trkpt lat="42.1563033" lon="13.2806228"><ele>734.0</ele><time>2026-05-02T15:00:34.132Z</time></trkpt><trkpt lat="42.1564137" lon="13.2805335"><ele>734.25</ele><time>2026-05-02T15:00:35.131Z</time></trkpt><trkpt lat="42.1565208" lon="13.2804462"><ele>734.5</ele><time>2026-05-02T15:00:36.134Z</time></trkpt><trkpt lat="42.1566247" lon="13.2803554"><ele>734.75</ele><time>2026-05-02T15:00:37.132Z</time></trkpt><trkpt lat="42.1567192" lon="13.28027"><ele>735.0</ele><time>2026-05-02T15:00:38.135Z</time></trkpt><trkpt lat="42.1568124" lon="13.2801854"><ele>735.75</ele><time>2026-05-02T15:00:39.13Z</time></trkpt><trkpt lat="42.1569125" lon="13.2801048"><ele>736.5</ele><time>2026-05-02T15:00:40.135Z</time></trkpt><trkpt lat="42.1570201" lon="13.2800261"><ele>737.25</ele><time>2026-05-02T15:00:41.127Z</time></trkpt><trkpt lat="42.1571402" lon="13.2799447"><ele>738.0</ele><time>2026-05-02T15:00:42.137Z</time></trkpt><trkpt lat="42.1572704" lon="13.2798639"><ele>738.25</ele><time>2026-05-02T15:00:43.129Z</time></trkpt><trkpt lat="42.1574135" lon="13.279785"><ele>738.5</ele><time>2026-05-02T15:00:44.128Z</time></trkpt><trkpt lat="42.1575672" lon="13.2797517"><ele>738.75</ele><time>2026-05-02T15:00:45.133Z</time></trkpt><trkpt lat="42.1576962" lon="13.2797026"><ele>739.0</ele><time>2026-05-02T15:00:46.125Z</time></trkpt><trkpt lat="42.1578173" lon="13.2796671"><ele>739.0</ele><time>2026-05-02T15:00:47.135Z</time></trkpt><trkpt lat="42.1579717" lon="13.2796208"><ele>739.0</ele><time>2026-05-02T15:00:48.135Z</time></trkpt><trkpt lat="42.1581132" lon="13.2795913"><ele>739.0</ele><time>2026-05-02T15:00:49.129Z</time></trkpt><trkpt lat="42.1582427" lon="13.2795571"><ele>739.0</ele><time>2026-05-02T15:00:50.136Z</time></trkpt><trkpt lat="42.1583818" lon="13.279528"><ele>740.0</ele><time>2026-05-02T15:00:51.136Z</time></trkpt><trkpt lat="42.1585127" lon="13.2795114"><ele>741.0</ele><time>2026-05-02T15:00:52.137Z</time></trkpt><trkpt lat="42.1586479" lon="13.2794942"><ele>742.0</ele><time>2026-05-02T15:00:53.138Z</time></trkpt><trkpt lat="42.1587603" lon="13.2794885"><ele>743.0</ele><time>2026-05-02T15:00:54.131Z</time></trkpt><trkpt lat="42.1588808" lon="13.2794719"><ele>743.0</ele><time>2026-05-02T15:00:55.134Z</time></trkpt><trkpt lat="42.1589891" lon="13.2794604"><ele>743.0</ele><time>2026-05-02T15:00:56.126Z</time></trkpt><trkpt lat="42.1591202" lon="13.2794301"><ele>743.0</ele><time>2026-05-02T15:00:57.134Z</time></trkpt><trkpt lat="42.1592535" lon="13.2793904"><ele>743.0</ele><time>2026-05-02T15:00:58.131Z</time></trkpt><trkpt lat="42.1593804" lon="13.2793587"><ele>744.25</ele><time>2026-05-02T15:00:59.135Z</time></trkpt><trkpt lat="42.1595133" lon="13.2793245"><ele>745.5</ele><time>2026-05-02T15:01:00.136Z</time></trkpt><trkpt lat="42.1596501" lon="13.2792771"><ele>746.75</ele><time>2026-05-02T15:01:01.133Z</time></trkpt><trkpt lat="42.1597879" lon="13.2792436"><ele>748.0</ele><time>2026-05-02T15:01:02.13Z</time></trkpt><trkpt lat="42.1599198" lon="13.2792196"><ele>748.75</ele><time>2026-05-02T15:01:03.123Z</time></trkpt><trkpt lat="42.1600447" lon="13.279216"><ele>749.5</ele><time>2026-05-02T15:01:04.131Z</time></trkpt><trkpt lat="42.1601736" lon="13.279191"><ele>750.25</ele><time>2026-05-02T15:01:05.128Z</time></trkpt><trkpt lat="42.1602992" lon="13.2791538"><ele>751.0</ele><time>2026-05-02T15:01:06.132Z</time></trkpt><trkpt lat="42.1604135" lon="13.2791223"><ele>751.0</ele><time>2026-05-02T15:01:07.133Z</time></trkpt><trkpt lat="42.1605331" lon="13.279083"><ele>751.0</ele><time>2026-05-02T15:01:08.133Z</time></trkpt><trkpt lat="42.1606545" lon="13.279038"><ele>751.0</ele><time>2026-05-02T15:01:09.137Z</time></trkpt><trkpt lat="42.1607771" lon="13.2789886"><ele>751.0</ele><time>2026-05-02T15:01:10.146Z</time></trkpt><trkpt lat="42.1608946" lon="13.2789378"><ele>751.75</ele><time>2026-05-02T15:01:11.139Z</time></trkpt><trkpt lat="42.1610117" lon="13.2788874"><ele>752.5</ele><time>2026-05-02T15:01:12.138Z</time></trkpt><trkpt lat="42.1611356" lon="13.2788403"><ele>753.25</ele><time>2026-05-02T15:01:13.144Z</time></trkpt><trkpt lat="42.1612594" lon="13.2787967"><ele>754.0</ele><time>2026-05-02T15:01:14.144Z</time></trkpt><trkpt lat="42.1613874" lon="13.2787547"><ele>754.0</ele><time>2026-05-02T15:01:15.144Z</time></trkpt><trkpt lat="42.1615083" lon="13.2787153"><ele>754.0</ele><time>2026-05-02T15:01:16.146Z</time></trkpt><trkpt lat="42.161632" lon="13.2786795"><ele>754.0</ele><time>2026-05-02T15:01:17.15Z</time></trkpt><trkpt lat="42.1617604" lon="13.2786441"><ele>754.0</ele><time>2026-05-02T15:01:18.145Z</time></trkpt><trkpt lat="42.1618865" lon="13.2786035"><ele>754.75</ele><time>2026-05-02T15:01:19.147Z</time></trkpt><trkpt lat="42.1620102" lon="13.2785629"><ele>755.5</ele><time>2026-05-02T15:01:20.144Z</time></trkpt><trkpt lat="42.1621324" lon="13.27852"><ele>756.25</ele><time>2026-05-02T15:01:21.142Z</time></trkpt><trkpt lat="42.1622566" lon="13.2784727"><ele>757.0</ele><time>2026-05-02T15:01:22.144Z</time></trkpt><trkpt lat="42.1623813" lon="13.2784255"><ele>758.0</ele><time>2026-05-02T15:01:23.141Z</time></trkpt><trkpt lat="42.1625064" lon="13.2783802"><ele>759.0</ele><time>2026-05-02T15:01:24.144Z</time></trkpt><trkpt lat="42.1626332" lon="13.2783375"><ele>760.0</ele><time>2026-05-02T15:01:25.145Z</time></trkpt><trkpt lat="42.1627615" lon="13.2782975"><ele>761.0</ele><time>2026-05-02T15:01:26.145Z</time></trkpt><trkpt lat="42.1628867" lon="13.2782589"><ele>761.0</ele><time>2026-05-02T15:01:27.144Z</time></trkpt><trkpt lat="42.1630119" lon="13.2782248"><ele>761.0</ele><time>2026-05-02T15:01:28.146Z</time></trkpt><trkpt lat="42.1631354" lon="13.2781928"><ele>761.0</ele><time>2026-05-02T15:01:29.141Z</time></trkpt><trkpt lat="42.1632566" lon="13.2781586"><ele>761.0</ele><time>2026-05-02T15:01:30.145Z</time></trkpt><trkpt lat="42.163379" lon="13.2781195"><ele>762.0</ele><time>2026-05-02T15:01:31.139Z</time></trkpt><trkpt lat="42.1634976" lon="13.2780701"><ele>763.0</ele><time>2026-05-02T15:01:32.145Z</time></trkpt><trkpt lat="42.1636077" lon="13.2780132"><ele>764.0</ele><time>2026-05-02T15:01:33.139Z</time></trkpt><trkpt lat="42.1637155" lon="13.2779488"><ele>765.0</ele><time>2026-05-02T15:01:34.143Z</time></trkpt><trkpt lat="42.1638214" lon="13.2778686"><ele>765.0</ele><time>2026-05-02T15:01:35.142Z</time></trkpt><trkpt lat="42.163916" lon="13.2777868"><ele>765.0</ele><time>2026-05-02T15:01:36.145Z</time></trkpt><trkpt lat="42.1640025" lon="13.2777053"><ele>765.0</ele><time>2026-05-02T15:01:37.141Z</time></trkpt><trkpt lat="42.1640897" lon="13.2776302"><ele>765.0</ele><time>2026-05-02T15:01:38.144Z</time></trkpt><trkpt lat="42.1641749" lon="13.2775665"><ele>765.0</ele><time>2026-05-02T15:01:39.141Z</time></trkpt><trkpt lat="42.1642578" lon="13.277522"><ele>765.0</ele><time>2026-05-02T15:01:40.143Z</time></trkpt><trkpt lat="42.164338" lon="13.277488"><ele>765.0</ele><time>2026-05-02T15:01:41.143Z</time></trkpt><trkpt lat="42.1644195" lon="13.2774741"><ele>765.0</ele><time>2026-05-02T15:01:42.141Z</time></trkpt><trkpt lat="42.1645114" lon="13.2774732"><ele>765.0</ele><time>2026-05-02T15:01:43.138Z</time></trkpt><trkpt lat="42.164617" lon="13.2774777"><ele>765.0</ele><time>2026-05-02T15:01:44.145Z</time></trkpt><trkpt lat="42.164725" lon="13.2774864"><ele>765.0</ele><time>2026-05-02T15:01:45.143Z</time></trkpt><trkpt lat="42.164834" lon="13.277495"><ele>765.0</ele><time>2026-05-02T15:01:46.144Z</time></trkpt><trkpt lat="42.1649334" lon="13.2775037"><ele>765.0</ele><time>2026-05-02T15:01:47.145Z</time></trkpt><trkpt lat="42.1650354" lon="13.2775017"><ele>765.0</ele><time>2026-05-02T15:01:48.141Z</time></trkpt><trkpt lat="42.1651341" lon="13.2775"><ele>765.0</ele><time>2026-05-02T15:01:49.14Z</time></trkpt><trkpt lat="42.1652293" lon="13.2774947"><ele>764.6</ele><time>2026-05-02T15:01:50.146Z</time></trkpt><trkpt lat="42.1653318" lon="13.2774892"><ele>764.2</ele><time>2026-05-02T15:01:51.143Z</time></trkpt><trkpt lat="42.1654359" lon="13.2774816"><ele>763.8</ele><time>2026-05-02T15:01:52.145Z</time></trkpt><trkpt lat="42.1655391" lon="13.2774846"><ele>763.4</ele><time>2026-05-02T15:01:53.144Z</time></trkpt><trkpt lat="42.1656368" lon="13.2774913"><ele>763.0</ele><time>2026-05-02T15:01:54.145Z</time></trkpt><trkpt lat="42.1657294" lon="13.2774986"><ele>762.5</ele><time>2026-05-02T15:01:55.146Z</time></trkpt><trkpt lat="42.1658334" lon="13.2774966"><ele>762.0</ele><time>2026-05-02T15:01:56.147Z</time></trkpt><trkpt lat="42.1659431" lon="13.277475"><ele>761.5</ele><time>2026-05-02T15:01:57.148Z</time></trkpt><trkpt lat="42.166055" lon="13.277438"><ele>761.0</ele><time>2026-05-02T15:01:58.143Z</time></trkpt><trkpt lat="42.1661758" lon="13.2773853"><ele>761.0</ele><time>2026-05-02T15:01:59.144Z</time></trkpt><trkpt lat="42.1662957" lon="13.2773347"><ele>761.0</ele><time>2026-05-02T15:02:00.144Z</time></trkpt><trkpt lat="42.1664186" lon="13.2772825"><ele>761.0</ele><time>2026-05-02T15:02:01.147Z</time></trkpt><trkpt lat="42.1665392" lon="13.2772339"><ele>761.0</ele><time>2026-05-02T15:02:02.148Z</time></trkpt><trkpt lat="42.1666522" lon="13.277177"><ele>762.0</ele><time>2026-05-02T15:02:03.145Z</time></trkpt><trkpt lat="42.1667561" lon="13.277117"><ele>763.0</ele><time>2026-05-02T15:02:04.148Z</time></trkpt><trkpt lat="42.1668473" lon="13.2770529"><ele>764.0</ele><time>2026-05-02T15:02:05.141Z</time></trkpt><trkpt lat="42.1669322" lon="13.2770008"><ele>765.0</ele><time>2026-05-02T15:02:06.135Z</time></trkpt><trkpt lat="42.1670151" lon="13.2769629"><ele>766.0</ele><time>2026-05-02T15:02:07.125Z</time></trkpt><trkpt lat="42.1670973" lon="13.2769469"><ele>766.0</ele><time>2026-05-02T15:02:08.121Z</time></trkpt><trkpt lat="42.1671725" lon="13.2769501"><ele>766.0</ele><time>2026-05-02T15:02:09.123Z</time></trkpt><trkpt lat="42.1672434" lon="13.2769628"><ele>766.0</ele><time>2026-05-02T15:02:10.128Z</time></trkpt><trkpt lat="42.1673154" lon="13.2769709"><ele>766.0</ele><time>2026-05-02T15:02:11.128Z</time></trkpt><trkpt lat="42.1673926" lon="13.2769742"><ele>766.0</ele><time>2026-05-02T15:02:12.129Z</time></trkpt><trkpt lat="42.1674894" lon="13.2769767"><ele>766.0</ele><time>2026-05-02T15:02:14.13Z</time></trkpt><trkpt lat="42.1675428" lon="13.2769275"><ele>768.1999999999999</ele><time>2026-05-02T15:02:16.131Z</time></trkpt><trkpt lat="42.1675801" lon="13.2768135"><ele>770.4</ele><time>2026-05-02T15:02:18.117Z</time></trkpt><trkpt lat="42.1676198" lon="13.2766699"><ele>772.6</ele><time>2026-05-02T15:02:20.106Z</time></trkpt><trkpt lat="42.1677229" lon="13.2765199"><ele>774.8</ele><time>2026-05-02T15:02:22.105Z</time></trkpt><trkpt lat="42.1677653" lon="13.2764255"><ele>777.0</ele><time>2026-05-02T15:02:23.126Z</time></trkpt><trkpt lat="42.167786" lon="13.2763374"><ele>777.8333333333334</ele><time>2026-05-02T15:02:24.125Z</time></trkpt><trkpt lat="42.1678353" lon="13.2762773"><ele>778.6666666666667</ele><time>2026-05-02T15:02:25.118Z</time></trkpt><trkpt lat="42.1678897" lon="13.2762344"><ele>779.5</ele><time>2026-05-02T15:02:26.116Z</time></trkpt><trkpt lat="42.1680228" lon="13.2762663"><ele>780.3333333333334</ele><time>2026-05-02T15:02:28.126Z</time></trkpt><trkpt lat="42.1681055" lon="13.2762978"><ele>781.1666666666667</ele><time>2026-05-02T15:02:29.144Z</time></trkpt><trkpt lat="42.1681912" lon="13.276328"><ele>782.0</ele><time>2026-05-02T15:02:30.135Z</time></trkpt><trkpt lat="42.16828" lon="13.2763484"><ele>782.0</ele><time>2026-05-02T15:02:31.138Z</time></trkpt><trkpt lat="42.1683667" lon="13.2763513"><ele>782.0</ele><time>2026-05-02T15:02:32.131Z</time></trkpt><trkpt lat="42.1684618" lon="13.2763426"><ele>782.0</ele><time>2026-05-02T15:02:33.141Z</time></trkpt><trkpt lat="42.1685677" lon="13.276313"><ele>782.0</ele><time>2026-05-02T15:02:34.134Z</time></trkpt><trkpt lat="42.1686843" lon="13.2762734"><ele>782.0</ele><time>2026-05-02T15:02:35.129Z</time></trkpt><trkpt lat="42.1688053" lon="13.2762344"><ele>782.0</ele><time>2026-05-02T15:02:36.132Z</time></trkpt><trkpt lat="42.1689379" lon="13.276192"><ele>782.0</ele><time>2026-05-02T15:02:37.13Z</time></trkpt><trkpt lat="42.1690792" lon="13.2761406"><ele>782.0</ele><time>2026-05-02T15:02:38.133Z</time></trkpt><trkpt lat="42.1692368" lon="13.2760887"><ele>782.0</ele><time>2026-05-02T15:02:39.136Z</time></trkpt><trkpt lat="42.1693829" lon="13.2760513"><ele>783.75</ele><time>2026-05-02T15:02:40.138Z</time></trkpt><trkpt lat="42.1695366" lon="13.2760048"><ele>785.5</ele><time>2026-05-02T15:02:41.134Z</time></trkpt><trkpt lat="42.1696655" lon="13.2759607"><ele>787.25</ele><time>2026-05-02T15:02:42.132Z</time></trkpt><trkpt lat="42.1697861" lon="13.2759156"><ele>789.0</ele><time>2026-05-02T15:02:43.139Z</time></trkpt><trkpt lat="42.1699122" lon="13.2758847"><ele>790.25</ele><time>2026-05-02T15:02:44.134Z</time></trkpt><trkpt lat="42.1700424" lon="13.2758487"><ele>791.5</ele><time>2026-05-02T15:02:45.131Z</time></trkpt><trkpt lat="42.1701675" lon="13.2758153"><ele>792.75</ele><time>2026-05-02T15:02:46.128Z</time></trkpt><trkpt lat="42.1702698" lon="13.2757942"><ele>794.0</ele><time>2026-05-02T15:02:47.14Z</time></trkpt><trkpt lat="42.1703678" lon="13.2757754"><ele>794.0000000000001</ele><time>2026-05-02T15:02:48.128Z</time></trkpt><trkpt lat="42.1704524" lon="13.2757628"><ele>794.0</ele><time>2026-05-02T15:02:49.133Z</time></trkpt><trkpt lat="42.1705278" lon="13.2757611"><ele>794.0</ele><time>2026-05-02T15:02:50.126Z</time></trkpt><trkpt lat="42.1706079" lon="13.2757544"><ele>794.0</ele><time>2026-05-02T15:02:51.138Z</time></trkpt><trkpt lat="42.1707218" lon="13.2757422"><ele>794.0000000000001</ele><time>2026-05-02T15:02:53.143Z</time></trkpt><trkpt lat="42.1708001" lon="13.2757312"><ele>794.0</ele><time>2026-05-02T15:02:55.146Z</time></trkpt><trkpt lat="42.1708638" lon="13.2757092"><ele>795.2</ele><time>2026-05-02T15:02:58.135Z</time></trkpt><trkpt lat="42.1709375" lon="13.2756944"><ele>796.4000000000001</ele><time>2026-05-02T15:03:00.127Z</time></trkpt><trkpt lat="42.1710168" lon="13.2756784"><ele>797.6</ele><time>2026-05-02T15:03:01.122Z</time></trkpt><trkpt lat="42.1711162" lon="13.2756781"><ele>798.8</ele><time>2026-05-02T15:03:02.128Z</time></trkpt><trkpt lat="42.1712212" lon="13.2756936"><ele>800.0</ele><time>2026-05-02T15:03:03.133Z</time></trkpt><trkpt lat="42.1713461" lon="13.2757145"><ele>800.0</ele><time>2026-05-02T15:03:04.136Z</time></trkpt><trkpt lat="42.1714659" lon="13.2757392"><ele>800.0</ele><time>2026-05-02T15:03:05.13Z</time></trkpt><trkpt lat="42.1715842" lon="13.2757798"><ele>800.0</ele><time>2026-05-02T15:03:06.126Z</time></trkpt><trkpt lat="42.1717015" lon="13.2758423"><ele>800.0</ele><time>2026-05-02T15:03:07.136Z</time></trkpt><trkpt lat="42.1718055" lon="13.2759152"><ele>800.1666666666667</ele><time>2026-05-02T15:03:08.129Z</time></trkpt><trkpt lat="42.1718957" lon="13.2759791"><ele>800.3333333333334</ele><time>2026-05-02T15:03:09.14Z</time></trkpt><trkpt lat="42.1719777" lon="13.2760275"><ele>800.5</ele><time>2026-05-02T15:03:10.126Z</time></trkpt><trkpt lat="42.1720573" lon="13.2760634"><ele>800.6666666666667</ele><time>2026-05-02T15:03:11.138Z</time></trkpt><trkpt lat="42.1721273" lon="13.2760891"><ele>800.8333333333334</ele><time>2026-05-02T15:03:12.13Z</time></trkpt><trkpt lat="42.1721909" lon="13.2761096"><ele>801.0</ele><time>2026-05-02T15:03:13.139Z</time></trkpt><trkpt lat="42.1723148" lon="13.2761575"><ele>801.1999999999999</ele><time>2026-05-02T15:03:15.138Z</time></trkpt><trkpt lat="42.1724245" lon="13.2762004"><ele>801.4</ele><time>2026-05-02T15:03:17.141Z</time></trkpt><trkpt lat="42.1725394" lon="13.2762408"><ele>801.6</ele><time>2026-05-02T15:03:19.135Z</time></trkpt><trkpt lat="42.1726109" lon="13.2762699"><ele>801.8</ele><time>2026-05-02T15:03:20.133Z</time></trkpt><trkpt lat="42.1726944" lon="13.2763053"><ele>802.0</ele><time>2026-05-02T15:03:21.126Z</time></trkpt><trkpt lat="42.1727908" lon="13.2763453"><ele>802.0</ele><time>2026-05-02T15:03:22.134Z</time></trkpt><trkpt lat="42.1728876" lon="13.276383"><ele>802.0</ele><time>2026-05-02T15:03:23.121Z</time></trkpt><trkpt lat="42.1729902" lon="13.2764141"><ele>802.0</ele><time>2026-05-02T15:03:24.139Z</time></trkpt><trkpt lat="42.1730869" lon="13.27643"><ele>802.0</ele><time>2026-05-02T15:03:25.133Z</time></trkpt><trkpt lat="42.1731683" lon="13.2764425"><ele>802.0</ele><time>2026-05-02T15:03:26.125Z</time></trkpt><trkpt lat="42.1732452" lon="13.2764416"><ele>803.6666666666666</ele><time>2026-05-02T15:03:27.13Z</time></trkpt><trkpt lat="42.1733173" lon="13.2764021"><ele>805.3333333333333</ele><time>2026-05-02T15:03:28.136Z</time></trkpt><trkpt lat="42.1733925" lon="13.2763472"><ele>807.0</ele><time>2026-05-02T15:03:29.141Z</time></trkpt><trkpt lat="42.173459" lon="13.2762926"><ele>808.6666666666667</ele><time>2026-05-02T15:03:30.125Z</time></trkpt><trkpt lat="42.1735369" lon="13.2762478"><ele>810.3333333333334</ele><time>2026-05-02T15:03:31.128Z</time></trkpt><trkpt lat="42.1736274" lon="13.2762228"><ele>812.0</ele><time>2026-05-02T15:03:32.139Z</time></trkpt><trkpt lat="42.1737296" lon="13.2761854"><ele>812.0000000000001</ele><time>2026-05-02T15:03:33.132Z</time></trkpt><trkpt lat="42.17383" lon="13.2761478"><ele>812.0</ele><time>2026-05-02T15:03:34.139Z</time></trkpt><trkpt lat="42.1739204" lon="13.2761256"><ele>812.0</ele><time>2026-05-02T15:03:35.128Z</time></trkpt><trkpt lat="42.1740004" lon="13.2761153"><ele>812.0</ele><time>2026-05-02T15:03:36.131Z</time></trkpt><trkpt lat="42.1740642" lon="13.2761168"><ele>812.0000000000001</ele><time>2026-05-02T15:03:37.132Z</time></trkpt><trkpt lat="42.1741474" lon="13.2761532"><ele>812.0</ele><time>2026-05-02T15:03:39.132Z</time></trkpt><trkpt lat="42.1742653" lon="13.2762647"><ele>814.75</ele><time>2026-05-02T15:03:41.134Z</time></trkpt><trkpt lat="42.1743509" lon="13.2763667"><ele>817.5</ele><time>2026-05-02T15:03:42.13Z</time></trkpt><trkpt lat="42.174452" lon="13.2764816"><ele>820.25</ele><time>2026-05-02T15:03:43.128Z</time></trkpt><trkpt lat="42.1745642" lon="13.2765825"><ele>823.0</ele><time>2026-05-02T15:03:44.13Z</time></trkpt><trkpt lat="42.1746897" lon="13.276661"><ele>823.5</ele><time>2026-05-02T15:03:45.136Z</time></trkpt><trkpt lat="42.1748107" lon="13.2767164"><ele>824.0</ele><time>2026-05-02T15:03:46.135Z</time></trkpt><trkpt lat="42.1749345" lon="13.2767136"><ele>824.5</ele><time>2026-05-02T15:03:47.138Z</time></trkpt><trkpt lat="42.1750551" lon="13.276667"><ele>825.0</ele><time>2026-05-02T15:03:48.135Z</time></trkpt><trkpt lat="42.1751582" lon="13.2765729"><ele>826.0</ele><time>2026-05-02T15:03:49.133Z</time></trkpt><trkpt lat="42.1752468" lon="13.2764629"><ele>827.0</ele><time>2026-05-02T15:03:50.13Z</time></trkpt><trkpt lat="42.1753203" lon="13.2763369"><ele>828.0</ele><time>2026-05-02T15:03:51.133Z</time></trkpt><trkpt lat="42.1753889" lon="13.2761892"><ele>829.0</ele><time>2026-05-02T15:03:52.131Z</time></trkpt><trkpt lat="42.1754526" lon="13.2760324"><ele>829.2</ele><time>2026-05-02T15:03:53.13Z</time></trkpt><trkpt lat="42.1755179" lon="13.2758773"><ele>829.4000000000001</ele><time>2026-05-02T15:03:54.127Z</time></trkpt><trkpt lat="42.1755817" lon="13.2757357"><ele>829.6</ele><time>2026-05-02T15:03:55.131Z</time></trkpt><trkpt lat="42.1756377" lon="13.2756125"><ele>829.8</ele><time>2026-05-02T15:03:56.116Z</time></trkpt><trkpt lat="42.1756836" lon="13.2755144"><ele>830.0</ele><time>2026-05-02T15:03:57.13Z</time></trkpt><trkpt lat="42.17573" lon="13.2754437"><ele>830.0000000000001</ele><time>2026-05-02T15:03:58.13Z</time></trkpt><trkpt lat="42.1757883" lon="13.2753964"><ele>830.0</ele><time>2026-05-02T15:03:59.137Z</time></trkpt><trkpt lat="42.175855" lon="13.2753686"><ele>830.0</ele><time>2026-05-02T15:04:00.129Z</time></trkpt><trkpt lat="42.1759272" lon="13.2753562"><ele>830.0</ele><time>2026-05-02T15:04:01.135Z</time></trkpt><trkpt lat="42.1760106" lon="13.2753442"><ele>830.0000000000001</ele><time>2026-05-02T15:04:02.14Z</time></trkpt><trkpt lat="42.1760976" lon="13.2753239"><ele>830.0</ele><time>2026-05-02T15:04:03.134Z</time></trkpt><trkpt lat="42.1761897" lon="13.2753003"><ele>830.0</ele><time>2026-05-02T15:04:04.136Z</time></trkpt><trkpt lat="42.1762838" lon="13.2752772"><ele>830.0</ele><time>2026-05-02T15:04:05.135Z</time></trkpt><trkpt lat="42.176385" lon="13.2752506"><ele>830.0</ele><time>2026-05-02T15:04:06.134Z</time></trkpt><trkpt lat="42.1764914" lon="13.2752249"><ele>830.0</ele><time>2026-05-02T15:04:07.137Z</time></trkpt><trkpt lat="42.1766047" lon="13.2751962"><ele>830.0</ele><time>2026-05-02T15:04:08.136Z</time></trkpt><trkpt lat="42.1767123" lon="13.2751678"><ele>828.4</ele><time>2026-05-02T15:04:09.133Z</time></trkpt><trkpt lat="42.1768167" lon="13.2751402"><ele>826.8</ele><time>2026-05-02T15:04:10.133Z</time></trkpt><trkpt lat="42.1769159" lon="13.2751064"><ele>825.2</ele><time>2026-05-02T15:04:11.141Z</time></trkpt><trkpt lat="42.1770113" lon="13.275076"><ele>823.6</ele><time>2026-05-02T15:04:12.136Z</time></trkpt><trkpt lat="42.1771013" lon="13.2750463"><ele>822.0</ele><time>2026-05-02T15:04:13.135Z</time></trkpt><trkpt lat="42.1771821" lon="13.2750259"><ele>822.0</ele><time>2026-05-02T15:04:14.135Z</time></trkpt><trkpt lat="42.17725" lon="13.2750266"><ele>822.0</ele><time>2026-05-02T15:04:15.13Z</time></trkpt><trkpt lat="42.1773114" lon="13.2750712"><ele>822.0</ele><time>2026-05-02T15:04:16.134Z</time></trkpt><trkpt lat="42.177353" lon="13.2751361"><ele>822.0</ele><time>2026-05-02T15:04:17.127Z</time></trkpt><trkpt lat="42.1773714" lon="13.2752746"><ele>822.0</ele><time>2026-05-02T15:04:19.132Z</time></trkpt><trkpt lat="42.1773774" lon="13.275371"><ele>822.0</ele><time>2026-05-02T15:04:21.134Z</time></trkpt><trkpt lat="42.1774471" lon="13.2752917"><ele>821.4000000000001</ele><time>2026-05-02T15:04:24.136Z</time></trkpt><trkpt lat="42.1774503" lon="13.2751793"><ele>820.8000000000001</ele><time>2026-05-02T15:04:26.142Z</time></trkpt><trkpt lat="42.1775158" lon="13.2751235"><ele>820.2</ele><time>2026-05-02T15:04:29.144Z</time></trkpt><trkpt lat="42.1775463" lon="13.2752214"><ele>819.6</ele><time>2026-05-02T15:04:32.128Z</time></trkpt><trkpt lat="42.1775351" lon="13.2754205"><ele>819.0</ele><time>2026-05-02T15:04:34.126Z</time></trkpt><trkpt lat="42.177524" lon="13.2755546"><ele>819.2</ele><time>2026-05-02T15:04:35.128Z</time></trkpt><trkpt lat="42.1775253" lon="13.2756966"><ele>819.4000000000001</ele><time>2026-05-02T15:04:36.13Z</time></trkpt><trkpt lat="42.1775467" lon="13.2758281"><ele>819.6</ele><time>2026-05-02T15:04:37.127Z</time></trkpt><trkpt lat="42.177567" lon="13.2759283"><ele>819.8</ele><time>2026-05-02T15:04:38.124Z</time></trkpt><trkpt lat="42.1776027" lon="13.2760499"><ele>820.0</ele><time>2026-05-02T15:04:40.122Z</time></trkpt><trkpt lat="42.1776623" lon="13.2761935"><ele>819.9999999999999</ele><time>2026-05-02T15:04:42.131Z</time></trkpt><trkpt lat="42.1776734" lon="13.2762793"><ele>820.0</ele><time>2026-05-02T15:04:43.124Z</time></trkpt><trkpt lat="42.1776817" lon="13.276376"><ele>820.0</ele><time>2026-05-02T15:04:44.124Z</time></trkpt><trkpt lat="42.177678" lon="13.2764807"><ele>820.0</ele><time>2026-05-02T15:04:45.126Z</time></trkpt><trkpt lat="42.1776614" lon="13.2765907"><ele>819.9999999999999</ele><time>2026-05-02T15:04:46.124Z</time></trkpt><trkpt lat="42.1776357" lon="13.2767106"><ele>820.0</ele><time>2026-05-02T15:04:47.126Z</time></trkpt><trkpt lat="42.1776068" lon="13.2768369"><ele>820.4</ele><time>2026-05-02T15:04:48.122Z</time></trkpt><trkpt lat="42.1775924" lon="13.2769715"><ele>820.8</ele><time>2026-05-02T15:04:49.126Z</time></trkpt><trkpt lat="42.1775839" lon="13.2771025"><ele>821.2</ele><time>2026-05-02T15:04:50.132Z</time></trkpt><trkpt lat="42.1775733" lon="13.2772489"><ele>821.6</ele><time>2026-05-02T15:04:51.125Z</time></trkpt><trkpt lat="42.1775622" lon="13.2774051"><ele>822.0</ele><time>2026-05-02T15:04:52.126Z</time></trkpt><trkpt lat="42.1775547" lon="13.277558"><ele>822.4000000000001</ele><time>2026-05-02T15:04:53.127Z</time></trkpt><trkpt lat="42.1775485" lon="13.2777001"><ele>822.8000000000001</ele><time>2026-05-02T15:04:54.125Z</time></trkpt><trkpt lat="42.1775407" lon="13.2778399"><ele>823.2</ele><time>2026-05-02T15:04:55.126Z</time></trkpt><trkpt lat="42.1775241" lon="13.2779623"><ele>823.6</ele><time>2026-05-02T15:04:56.122Z</time></trkpt><trkpt lat="42.1774934" lon="13.2780751"><ele>824.0</ele><time>2026-05-02T15:04:57.128Z</time></trkpt><trkpt lat="42.1774646" lon="13.2781722"><ele>824.4000000000001</ele><time>2026-05-02T15:04:58.124Z</time></trkpt><trkpt lat="42.1774258" lon="13.2782651"><ele>824.8</ele><time>2026-05-02T15:04:59.127Z</time></trkpt><trkpt lat="42.1773728" lon="13.278356"><ele>825.2</ele><time>2026-05-02T15:05:00.127Z</time></trkpt><trkpt lat="42.1772973" lon="13.2784355"><ele>825.5999999999999</ele><time>2026-05-02T15:05:01.13Z</time></trkpt><trkpt lat="42.177215" lon="13.2785208"><ele>826.0</ele><time>2026-05-02T15:05:02.125Z</time></trkpt><trkpt lat="42.1771503" lon="13.2786282"><ele>827.1666666666666</ele><time>2026-05-02T15:05:03.127Z</time></trkpt><trkpt lat="42.1771034" lon="13.2787517"><ele>828.3333333333333</ele><time>2026-05-02T15:05:04.126Z</time></trkpt><trkpt lat="42.1770599" lon="13.2788592"><ele>829.5</ele><time>2026-05-02T15:05:05.124Z</time></trkpt><trkpt lat="42.1770018" lon="13.2789468"><ele>830.6666666666667</ele><time>2026-05-02T15:05:06.127Z</time></trkpt><trkpt lat="42.1769488" lon="13.2790001"><ele>831.8333333333334</ele><time>2026-05-02T15:05:07.131Z</time></trkpt><trkpt lat="42.1769285" lon="13.2790987"><ele>833.0</ele><time>2026-05-02T15:05:10.126Z</time></trkpt><trkpt lat="42.1769784" lon="13.2791959"><ele>833.3333333333334</ele><time>2026-05-02T15:05:12.126Z</time></trkpt><trkpt lat="42.1770435" lon="13.2793281"><ele>833.6666666666667</ele><time>2026-05-02T15:05:14.126Z</time></trkpt><trkpt lat="42.1770845" lon="13.2794173"><ele>834.0</ele><time>2026-05-02T15:05:15.124Z</time></trkpt><trkpt lat="42.1771192" lon="13.2795065"><ele>834.3333333333333</ele><time>2026-05-02T15:05:16.119Z</time></trkpt><trkpt lat="42.1771467" lon="13.2796053"><ele>834.6666666666666</ele><time>2026-05-02T15:05:17.123Z</time></trkpt><trkpt lat="42.1771858" lon="13.279723"><ele>835.0</ele><time>2026-05-02T15:05:18.125Z</time></trkpt><trkpt lat="42.177232" lon="13.2798429"><ele>835.2</ele><time>2026-05-02T15:05:19.128Z</time></trkpt><trkpt lat="42.1772953" lon="13.2799534"><ele>835.4</ele><time>2026-05-02T15:05:20.133Z</time></trkpt><trkpt lat="42.1773697" lon="13.2800645"><ele>835.5999999999999</ele><time>2026-05-02T15:05:21.125Z</time></trkpt><trkpt lat="42.1774334" lon="13.2801854"><ele>835.8</ele><time>2026-05-02T15:05:22.123Z</time></trkpt><trkpt lat="42.1774979" lon="13.2803071"><ele>836.0</ele><time>2026-05-02T15:05:23.127Z</time></trkpt><trkpt lat="42.1775613" lon="13.2804334"><ele>836.0</ele><time>2026-05-02T15:05:24.133Z</time></trkpt><trkpt lat="42.1776316" lon="13.2805556"><ele>836.0</ele><time>2026-05-02T15:05:25.127Z</time></trkpt><trkpt lat="42.177704" lon="13.2806765"><ele>836.0</ele><time>2026-05-02T15:05:26.131Z</time></trkpt><trkpt lat="42.1777735" lon="13.2807956"><ele>836.0</ele><time>2026-05-02T15:05:27.127Z</time></trkpt><trkpt lat="42.1778335" lon="13.280916"><ele>836.5999999999999</ele><time>2026-05-02T15:05:28.133Z</time></trkpt><trkpt lat="42.1778902" lon="13.2810337"><ele>837.2</ele><time>2026-05-02T15:05:29.13Z</time></trkpt><trkpt lat="42.1779413" lon="13.2811416"><ele>837.8</ele><time>2026-05-02T15:05:30.131Z</time></trkpt><trkpt lat="42.1779885" lon="13.2812418"><ele>838.4000000000001</ele><time>2026-05-02T15:05:31.128Z</time></trkpt><trkpt lat="42.1780272" lon="13.2813446"><ele>839.0</ele><time>2026-05-02T15:05:32.126Z</time></trkpt><trkpt lat="42.1780611" lon="13.2814432"><ele>839.2</ele><time>2026-05-02T15:05:33.122Z</time></trkpt><trkpt lat="42.1781117" lon="13.281531"><ele>839.4000000000001</ele><time>2026-05-02T15:05:34.126Z</time></trkpt><trkpt lat="42.1781838" lon="13.2816094"><ele>839.6</ele><time>2026-05-02T15:05:35.121Z</time></trkpt><trkpt lat="42.178268" lon="13.2816841"><ele>839.8</ele><time>2026-05-02T15:05:36.124Z</time></trkpt><trkpt lat="42.1783598" lon="13.2817533"><ele>840.0</ele><time>2026-05-02T15:05:37.128Z</time></trkpt><trkpt lat="42.1784421" lon="13.2818138"><ele>840.2</ele><time>2026-05-02T15:05:38.124Z</time></trkpt><trkpt lat="42.1785139" lon="13.2818545"><ele>840.4</ele><time>2026-05-02T15:05:39.125Z</time></trkpt><trkpt lat="42.1785827" lon="13.2818765"><ele>840.5999999999999</ele><time>2026-05-02T15:05:40.132Z</time></trkpt><trkpt lat="42.17865" lon="13.281876"><ele>840.8</ele><time>2026-05-02T15:05:41.124Z</time></trkpt><trkpt lat="42.1787645" lon="13.2818248"><ele>841.0</ele><time>2026-05-02T15:05:43.132Z</time></trkpt><trkpt lat="42.1788666" lon="13.2817374"><ele>841.0</ele><time>2026-05-02T15:05:45.127Z</time></trkpt><trkpt lat="42.1789216" lon="13.2816805"><ele>841.0</ele><time>2026-05-02T15:05:46.131Z</time></trkpt><trkpt lat="42.1789767" lon="13.2816278"><ele>841.0</ele><time>2026-05-02T15:05:47.128Z</time></trkpt><trkpt lat="42.179088" lon="13.2815592"><ele>841.0</ele><time>2026-05-02T15:05:49.131Z</time></trkpt><trkpt lat="42.1791871" lon="13.2815623"><ele>841.0</ele><time>2026-05-02T15:05:51.126Z</time></trkpt><trkpt lat="42.1792414" lon="13.2816699"><ele>839.5999999999999</ele><time>2026-05-02T15:05:53.125Z</time></trkpt><trkpt lat="42.1792908" lon="13.2818146"><ele>838.2</ele><time>2026-05-02T15:05:55.124Z</time></trkpt><trkpt lat="42.1793575" lon="13.2818737"><ele>836.8</ele><time>2026-05-02T15:05:57.123Z</time></trkpt><trkpt lat="42.1794057" lon="13.281819"><ele>835.4000000000001</ele><time>2026-05-02T15:05:59.134Z</time></trkpt><trkpt lat="42.1794426" lon="13.2816662"><ele>834.0</ele><time>2026-05-02T15:06:01.129Z</time></trkpt><trkpt lat="42.179485" lon="13.2815709"><ele>834.0</ele><time>2026-05-02T15:06:02.127Z</time></trkpt><trkpt lat="42.1795278" lon="13.2814908"><ele>834.0</ele><time>2026-05-02T15:06:03.13Z</time></trkpt><trkpt lat="42.1796052" lon="13.2813877"><ele>834.0</ele><time>2026-05-02T15:06:05.13Z</time></trkpt><trkpt lat="42.1796868" lon="13.2812302"><ele>834.0</ele><time>2026-05-02T15:06:07.13Z</time></trkpt><trkpt lat="42.1797498" lon="13.2810932"><ele>834.0</ele><time>2026-05-02T15:06:08.126Z</time></trkpt><trkpt lat="42.1798125" lon="13.2809362"><ele>831.0</ele><time>2026-05-02T15:06:09.12Z</time></trkpt><trkpt lat="42.1798896" lon="13.2807622"><ele>828.0</ele><time>2026-05-02T15:06:10.127Z</time></trkpt><trkpt lat="42.1799809" lon="13.2805807"><ele>825.0</ele><time>2026-05-02T15:06:11.124Z</time></trkpt><trkpt lat="42.1800888" lon="13.2803864"><ele>825.0</ele><time>2026-05-02T15:06:12.124Z</time></trkpt><trkpt lat="42.1802023" lon="13.2802027"><ele>825.0</ele><time>2026-05-02T15:06:13.117Z</time></trkpt><trkpt lat="42.1803285" lon="13.2800682"><ele>825.0</ele><time>2026-05-02T15:06:14.127Z</time></trkpt><trkpt lat="42.1804443" lon="13.2799322"><ele>825.0</ele><time>2026-05-02T15:06:15.125Z</time></trkpt><trkpt lat="42.180552" lon="13.279829"><ele>825.0</ele><time>2026-05-02T15:06:16.122Z</time></trkpt><trkpt lat="42.1806311" lon="13.2797455"><ele>825.0</ele><time>2026-05-02T15:06:17.126Z</time></trkpt><trkpt lat="42.1807035" lon="13.2796441"><ele>825.0</ele><time>2026-05-02T15:06:18.122Z</time></trkpt><trkpt lat="42.1807358" lon="13.2795309"><ele>825.0</ele><time>2026-05-02T15:06:19.12Z</time></trkpt><trkpt lat="42.1807477" lon="13.2793849"><ele>824.0</ele><time>2026-05-02T15:06:20.121Z</time></trkpt><trkpt lat="42.180713" lon="13.2792306"><ele>823.0</ele><time>2026-05-02T15:06:21.118Z</time></trkpt><trkpt lat="42.1806671" lon="13.2790923"><ele>822.0</ele><time>2026-05-02T15:06:22.129Z</time></trkpt><trkpt lat="42.1806285" lon="13.2789322"><ele>821.0</ele><time>2026-05-02T15:06:23.127Z</time></trkpt><trkpt lat="42.1805987" lon="13.2787633"><ele>820.5</ele><time>2026-05-02T15:06:24.122Z</time></trkpt><trkpt lat="42.1805971" lon="13.2786014"><ele>820.0</ele><time>2026-05-02T15:06:25.124Z</time></trkpt><trkpt lat="42.1806211" lon="13.27844"><ele>819.5</ele><time>2026-05-02T15:06:26.128Z</time></trkpt><trkpt lat="42.1806469" lon="13.2782663"><ele>819.0</ele><time>2026-05-02T15:06:27.125Z</time></trkpt><trkpt lat="42.1806747" lon="13.2780802"><ele>817.6666666666667</ele><time>2026-05-02T15:06:28.131Z</time></trkpt><trkpt lat="42.1807088" lon="13.2778791"><ele>816.3333333333334</ele><time>2026-05-02T15:06:29.132Z</time></trkpt><trkpt lat="42.1807451" lon="13.277673"><ele>815.0</ele><time>2026-05-02T15:06:30.132Z</time></trkpt><trkpt lat="42.1807773" lon="13.2774739"><ele>814.3333333333334</ele><time>2026-05-02T15:06:31.129Z</time></trkpt><trkpt lat="42.1808082" lon="13.2772543"><ele>813.6666666666667</ele><time>2026-05-02T15:06:32.128Z</time></trkpt><trkpt lat="42.1808388" lon="13.2770406"><ele>813.0</ele><time>2026-05-02T15:06:33.127Z</time></trkpt><trkpt lat="42.1808881" lon="13.2768248"><ele>813.0</ele><time>2026-05-02T15:06:34.13Z</time></trkpt><trkpt lat="42.1809091" lon="13.2766204"><ele>813.0</ele><time>2026-05-02T15:06:35.127Z</time></trkpt><trkpt lat="42.1809271" lon="13.2764242"><ele>813.0</ele><time>2026-05-02T15:06:36.125Z</time></trkpt><trkpt lat="42.1809614" lon="13.2762322"><ele>813.0</ele><time>2026-05-02T15:06:37.13Z</time></trkpt><trkpt lat="42.181004" lon="13.276035"><ele>812.3333333333333</ele><time>2026-05-02T15:06:38.123Z</time></trkpt><trkpt lat="42.1810476" lon="13.2758364"><ele>811.6666666666666</ele><time>2026-05-02T15:06:39.127Z</time></trkpt><trkpt lat="42.1810868" lon="13.2756336"><ele>811.0</ele><time>2026-05-02T15:06:40.126Z</time></trkpt><trkpt lat="42.1811139" lon="13.2754345"><ele>810.5</ele><time>2026-05-02T15:06:41.129Z</time></trkpt><trkpt lat="42.1811555" lon="13.2752374"><ele>810.0</ele><time>2026-05-02T15:06:42.129Z</time></trkpt><trkpt lat="42.181197" lon="13.2750392"><ele>809.5</ele><time>2026-05-02T15:06:43.133Z</time></trkpt><trkpt lat="42.1812416" lon="13.2748641"><ele>809.0</ele><time>2026-05-02T15:06:44.132Z</time></trkpt><trkpt lat="42.1812687" lon="13.2746982"><ele>808.2</ele><time>2026-05-02T15:06:45.133Z</time></trkpt><trkpt lat="42.1812953" lon="13.2745345"><ele>807.4000000000001</ele><time>2026-05-02T15:06:46.128Z</time></trkpt><trkpt lat="42.1813444" lon="13.2743841"><ele>806.6</ele><time>2026-05-02T15:06:47.135Z</time></trkpt><trkpt lat="42.1813813" lon="13.2742442"><ele>805.8</ele><time>2026-05-02T15:06:48.123Z</time></trkpt><trkpt lat="42.1814223" lon="13.2741311"><ele>805.0</ele><time>2026-05-02T15:06:49.122Z</time></trkpt><trkpt lat="42.1814573" lon="13.2740043"><ele>804.6</ele><time>2026-05-02T15:06:51.122Z</time></trkpt><trkpt lat="42.1814849" lon="13.2739149"><ele>804.2</ele><time>2026-05-02T15:06:53.128Z</time></trkpt><trkpt lat="42.1815207" lon="13.2738238"><ele>803.8</ele><time>2026-05-02T15:07:02.123Z</time></trkpt><trkpt lat="42.1815559" lon="13.2737225"><ele>803.4</ele><time>2026-05-02T15:07:04.124Z</time></trkpt><trkpt lat="42.1816696" lon="13.2736173"><ele>803.0</ele><time>2026-05-02T15:07:06.124Z</time></trkpt><trkpt lat="42.1817556" lon="13.2735323"><ele>803.0</ele><time>2026-05-02T15:07:07.127Z</time></trkpt><trkpt lat="42.1818347" lon="13.2734218"><ele>803.0</ele><time>2026-05-02T15:07:08.124Z</time></trkpt><trkpt lat="42.1819061" lon="13.2733086"><ele>803.0</ele><time>2026-05-02T15:07:09.12Z</time></trkpt><trkpt lat="42.1819809" lon="13.2731972"><ele>803.0</ele><time>2026-05-02T15:07:10.129Z</time></trkpt><trkpt lat="42.1820488" lon="13.273098"><ele>803.0</ele><time>2026-05-02T15:07:11.127Z</time></trkpt><trkpt lat="42.1821079" lon="13.2730098"><ele>802.8</ele><time>2026-05-02T15:07:12.129Z</time></trkpt><trkpt lat="42.1821521" lon="13.2729184"><ele>802.5999999999999</ele><time>2026-05-02T15:07:13.127Z</time></trkpt><trkpt lat="42.1822102" lon="13.272831"><ele>802.4000000000001</ele><time>2026-05-02T15:07:14.132Z</time></trkpt><trkpt lat="42.182281" lon="13.2727469"><ele>802.2</ele><time>2026-05-02T15:07:15.125Z</time></trkpt><trkpt lat="42.1823609" lon="13.2726656"><ele>802.0</ele><time>2026-05-02T15:07:16.122Z</time></trkpt><trkpt lat="42.1824525" lon="13.2725912"><ele>802.0</ele><time>2026-05-02T15:07:17.133Z</time></trkpt><trkpt lat="42.1825414" lon="13.2725106"><ele>802.0</ele><time>2026-05-02T15:07:18.13Z</time></trkpt><trkpt lat="42.1826282" lon="13.2724137"><ele>802.0</ele><time>2026-05-02T15:07:19.125Z</time></trkpt><trkpt lat="42.1827017" lon="13.2722904"><ele>802.0</ele><time>2026-05-02T15:07:20.133Z</time></trkpt><trkpt lat="42.1827788" lon="13.2721578"><ele>802.0</ele><time>2026-05-02T15:07:21.128Z</time></trkpt><trkpt lat="42.1828651" lon="13.2720292"><ele>802.0</ele><time>2026-05-02T15:07:22.131Z</time></trkpt><trkpt lat="42.1829533" lon="13.2718928"><ele>802.0</ele><time>2026-05-02T15:07:23.127Z</time></trkpt><trkpt lat="42.1830254" lon="13.2717697"><ele>802.0</ele><time>2026-05-02T15:07:24.127Z</time></trkpt><trkpt lat="42.1830831" lon="13.2716674"><ele>802.0</ele><time>2026-05-02T15:07:25.124Z</time></trkpt><trkpt lat="42.183134" lon="13.2715618"><ele>802.0</ele><time>2026-05-02T15:07:26.128Z</time></trkpt><trkpt lat="42.1831717" lon="13.2714403"><ele>802.0</ele><time>2026-05-02T15:07:27.126Z</time></trkpt><trkpt lat="42.1832123" lon="13.2713104"><ele>802.0</ele><time>2026-05-02T15:07:28.125Z</time></trkpt><trkpt lat="42.1832622" lon="13.2711954"><ele>802.0</ele><time>2026-05-02T15:07:29.124Z</time></trkpt><trkpt lat="42.1833199" lon="13.2710958"><ele>801.6666666666666</ele><time>2026-05-02T15:07:30.128Z</time></trkpt><trkpt lat="42.1833794" lon="13.2710134"><ele>801.3333333333333</ele><time>2026-05-02T15:07:31.123Z</time></trkpt><trkpt lat="42.1834363" lon="13.2709441"><ele>801.0</ele><time>2026-05-02T15:07:32.118Z</time></trkpt><trkpt lat="42.1835014" lon="13.2709042"><ele>800.6666666666667</ele><time>2026-05-02T15:07:33.117Z</time></trkpt><trkpt lat="42.1835775" lon="13.270885"><ele>800.3333333333334</ele><time>2026-05-02T15:07:34.122Z</time></trkpt><trkpt lat="42.1836808" lon="13.2708992"><ele>800.0</ele><time>2026-05-02T15:07:35.117Z</time></trkpt><trkpt lat="42.1837943" lon="13.2709147"><ele>800.0</ele><time>2026-05-02T15:07:36.128Z</time></trkpt><trkpt lat="42.1839137" lon="13.2709271"><ele>800.0</ele><time>2026-05-02T15:07:37.123Z</time></trkpt><trkpt lat="42.1840326" lon="13.2709206"><ele>800.0</ele><time>2026-05-02T15:07:38.121Z</time></trkpt><trkpt lat="42.1841396" lon="13.2709086"><ele>800.0</ele><time>2026-05-02T15:07:39.124Z</time></trkpt><trkpt lat="42.1842449" lon="13.2709006"><ele>800.0</ele><time>2026-05-02T15:07:40.128Z</time></trkpt><trkpt lat="42.184345" lon="13.2708765"><ele>800.0</ele><time>2026-05-02T15:07:41.124Z</time></trkpt><trkpt lat="42.1844353" lon="13.270838"><ele>800.0</ele><time>2026-05-02T15:07:42.127Z</time></trkpt><trkpt lat="42.1845229" lon="13.2707856"><ele>800.0</ele><time>2026-05-02T15:07:43.124Z</time></trkpt><trkpt lat="42.1846145" lon="13.2707123"><ele>800.0</ele><time>2026-05-02T15:07:44.133Z</time></trkpt><trkpt lat="42.1847176" lon="13.2706259"><ele>799.5</ele><time>2026-05-02T15:07:45.129Z</time></trkpt><trkpt lat="42.18482" lon="13.2705252"><ele>799.0</ele><time>2026-05-02T15:07:46.13Z</time></trkpt><trkpt lat="42.1849262" lon="13.2704158"><ele>798.5</ele><time>2026-05-02T15:07:47.132Z</time></trkpt><trkpt lat="42.1850343" lon="13.2703027"><ele>798.0</ele><time>2026-05-02T15:07:48.131Z</time></trkpt><trkpt lat="42.1851398" lon="13.2701938"><ele>799.0</ele><time>2026-05-02T15:07:49.127Z</time></trkpt><trkpt lat="42.1852456" lon="13.270091"><ele>800.0</ele><time>2026-05-02T15:07:50.129Z</time></trkpt><trkpt lat="42.1853599" lon="13.2699947"><ele>801.0</ele><time>2026-05-02T15:07:51.131Z</time></trkpt><trkpt lat="42.1854905" lon="13.26993"><ele>802.0</ele><time>2026-05-02T15:07:52.128Z</time></trkpt><trkpt lat="42.1855986" lon="13.2698529"><ele>802.25</ele><time>2026-05-02T15:07:53.131Z</time></trkpt><trkpt lat="42.1857165" lon="13.2697641"><ele>802.5</ele><time>2026-05-02T15:07:54.132Z</time></trkpt><trkpt lat="42.1858333" lon="13.2696802"><ele>802.75</ele><time>2026-05-02T15:07:55.137Z</time></trkpt><trkpt lat="42.1859451" lon="13.2696143"><ele>803.0</ele><time>2026-05-02T15:07:56.132Z</time></trkpt><trkpt lat="42.1860611" lon="13.2695399"><ele>803.0</ele><time>2026-05-02T15:07:57.128Z</time></trkpt><trkpt lat="42.1861761" lon="13.2694628"><ele>803.0</ele><time>2026-05-02T15:07:58.132Z</time></trkpt><trkpt lat="42.1862929" lon="13.2693909"><ele>803.0</ele><time>2026-05-02T15:07:59.138Z</time></trkpt><trkpt lat="42.1863997" lon="13.2693199"><ele>803.0</ele><time>2026-05-02T15:08:00.135Z</time></trkpt><trkpt lat="42.1865288" lon="13.2692587"><ele>803.0</ele><time>2026-05-02T15:08:01.132Z</time></trkpt><trkpt lat="42.1866327" lon="13.2692069"><ele>803.0</ele><time>2026-05-02T15:08:02.136Z</time></trkpt><trkpt lat="42.1867288" lon="13.2691566"><ele>803.0</ele><time>2026-05-02T15:08:03.131Z</time></trkpt><trkpt lat="42.1868259" lon="13.2690931"><ele>803.0</ele><time>2026-05-02T15:08:04.13Z</time></trkpt><trkpt lat="42.1869315" lon="13.269005"><ele>803.0</ele><time>2026-05-02T15:08:05.132Z</time></trkpt><trkpt lat="42.1870373" lon="13.2689028"><ele>802.75</ele><time>2026-05-02T15:08:06.133Z</time></trkpt><trkpt lat="42.1871394" lon="13.2688062"><ele>802.5</ele><time>2026-05-02T15:08:07.137Z</time></trkpt><trkpt lat="42.1872392" lon="13.26871"><ele>802.25</ele><time>2026-05-02T15:08:08.133Z</time></trkpt><trkpt lat="42.1873417" lon="13.2686167"><ele>802.0</ele><time>2026-05-02T15:08:09.133Z</time></trkpt><trkpt lat="42.1874504" lon="13.2685298"><ele>802.0</ele><time>2026-05-02T15:08:10.138Z</time></trkpt><trkpt lat="42.187559" lon="13.2684483"><ele>802.0</ele><time>2026-05-02T15:08:11.131Z</time></trkpt><trkpt lat="42.1876608" lon="13.2683649"><ele>802.0</ele><time>2026-05-02T15:08:12.135Z</time></trkpt><trkpt lat="42.1877502" lon="13.2682899"><ele>802.0</ele><time>2026-05-02T15:08:13.128Z</time></trkpt><trkpt lat="42.1878375" lon="13.268214"><ele>801.9999999999999</ele><time>2026-05-02T15:08:14.134Z</time></trkpt><trkpt lat="42.187921" lon="13.2681414"><ele>802.0</ele><time>2026-05-02T15:08:15.128Z</time></trkpt><trkpt lat="42.1879959" lon="13.2680772"><ele>802.0</ele><time>2026-05-02T15:08:16.132Z</time></trkpt><trkpt lat="42.1880654" lon="13.2680128"><ele>802.0</ele><time>2026-05-02T15:08:17.132Z</time></trkpt><trkpt lat="42.1881246" lon="13.2679581"><ele>801.9999999999999</ele><time>2026-05-02T15:08:18.132Z</time></trkpt><trkpt lat="42.1881812" lon="13.2679156"><ele>802.0</ele><time>2026-05-02T15:08:19.131Z</time></trkpt><trkpt lat="42.1883069" lon="13.2678913"><ele>802.6</ele><time>2026-05-02T15:08:21.125Z</time></trkpt><trkpt lat="42.1883883" lon="13.2678773"><ele>803.2</ele><time>2026-05-02T15:08:22.127Z</time></trkpt><trkpt lat="42.1884822" lon="13.2678523"><ele>803.8</ele><time>2026-05-02T15:08:23.137Z</time></trkpt><trkpt lat="42.1885855" lon="13.267813"><ele>804.4</ele><time>2026-05-02T15:08:24.135Z</time></trkpt><trkpt lat="42.1886845" lon="13.2677733"><ele>805.0</ele><time>2026-05-02T15:08:25.137Z</time></trkpt><trkpt lat="42.1887738" lon="13.267735"><ele>804.9999999999999</ele><time>2026-05-02T15:08:26.135Z</time></trkpt><trkpt lat="42.1888563" lon="13.2676904"><ele>805.0</ele><time>2026-05-02T15:08:27.134Z</time></trkpt><trkpt lat="42.1889236" lon="13.2676362"><ele>805.0</ele><time>2026-05-02T15:08:28.133Z</time></trkpt><trkpt lat="42.1889831" lon="13.2675784"><ele>805.0</ele><time>2026-05-02T15:08:29.138Z</time></trkpt><trkpt lat="42.1890453" lon="13.2675239"><ele>804.9999999999999</ele><time>2026-05-02T15:08:30.135Z</time></trkpt><trkpt lat="42.1891147" lon="13.267479"><ele>805.0</ele><time>2026-05-02T15:08:31.137Z</time></trkpt><trkpt lat="42.1891862" lon="13.2674307"><ele>805.1666666666666</ele><time>2026-05-02T15:08:32.136Z</time></trkpt><trkpt lat="42.1892542" lon="13.2673864"><ele>805.3333333333333</ele><time>2026-05-02T15:08:33.138Z</time></trkpt><trkpt lat="42.1893121" lon="13.2673385"><ele>805.5</ele><time>2026-05-02T15:08:34.137Z</time></trkpt><trkpt lat="42.1894182" lon="13.2672522"><ele>805.6666666666667</ele><time>2026-05-02T15:08:36.134Z</time></trkpt><trkpt lat="42.1894946" lon="13.267181"><ele>805.8333333333334</ele><time>2026-05-02T15:08:38.131Z</time></trkpt><trkpt lat="42.1895453" lon="13.2671211"><ele>806.0</ele><time>2026-05-02T15:08:41.131Z</time></trkpt><trkpt lat="42.1896304" lon="13.2670308"><ele>805.5999999999999</ele><time>2026-05-02T15:08:43.133Z</time></trkpt><trkpt lat="42.1896885" lon="13.2669727"><ele>805.2</ele><time>2026-05-02T15:08:44.132Z</time></trkpt><trkpt lat="42.1897569" lon="13.2668985"><ele>804.8</ele><time>2026-05-02T15:08:45.127Z</time></trkpt><trkpt lat="42.1898394" lon="13.2668216"><ele>804.4000000000001</ele><time>2026-05-02T15:08:46.134Z</time></trkpt><trkpt lat="42.1899206" lon="13.2667548"><ele>804.0</ele><time>2026-05-02T15:08:47.13Z</time></trkpt><trkpt lat="42.1900043" lon="13.2666896"><ele>804.4000000000001</ele><time>2026-05-02T15:08:48.134Z</time></trkpt><trkpt lat="42.1900961" lon="13.266626"><ele>804.8</ele><time>2026-05-02T15:08:49.131Z</time></trkpt><trkpt lat="42.1901929" lon="13.2665726"><ele>805.2</ele><time>2026-05-02T15:08:50.128Z</time></trkpt><trkpt lat="42.1902815" lon="13.2665276"><ele>805.5999999999999</ele><time>2026-05-02T15:08:51.127Z</time></trkpt><trkpt lat="42.1903582" lon="13.2664828"><ele>806.0</ele><time>2026-05-02T15:08:52.127Z</time></trkpt><trkpt lat="42.190423" lon="13.2664258"><ele>806.0</ele><time>2026-05-02T15:08:53.129Z</time></trkpt><trkpt lat="42.1904831" lon="13.2663475"><ele>806.0</ele><time>2026-05-02T15:08:54.132Z</time></trkpt><trkpt lat="42.1905513" lon="13.2662613"><ele>806.0</ele><time>2026-05-02T15:08:55.136Z</time></trkpt><trkpt lat="42.1906295" lon="13.2661779"><ele>806.0</ele><time>2026-05-02T15:08:56.131Z</time></trkpt><trkpt lat="42.1907196" lon="13.2660866"><ele>806.0</ele><time>2026-05-02T15:08:57.135Z</time></trkpt><trkpt lat="42.1908101" lon="13.2659931"><ele>806.1666666666667</ele><time>2026-05-02T15:08:58.133Z</time></trkpt><trkpt lat="42.1908932" lon="13.265898"><ele>806.3333333333334</ele><time>2026-05-02T15:08:59.133Z</time></trkpt><trkpt lat="42.1909583" lon="13.2658077"><ele>806.5</ele><time>2026-05-02T15:09:00.135Z</time></trkpt><trkpt lat="42.1910182" lon="13.2657228"><ele>806.6666666666667</ele><time>2026-05-02T15:09:01.135Z</time></trkpt><trkpt lat="42.1910707" lon="13.2656502"><ele>806.8333333333334</ele><time>2026-05-02T15:09:02.136Z</time></trkpt><trkpt lat="42.1911217" lon="13.2655799"><ele>807.0</ele><time>2026-05-02T15:09:03.132Z</time></trkpt><trkpt lat="42.1911787" lon="13.265505"><ele>807.0</ele><time>2026-05-02T15:09:04.138Z</time></trkpt><trkpt lat="42.191244" lon="13.2654328"><ele>807.0</ele><time>2026-05-02T15:09:05.129Z</time></trkpt><trkpt lat="42.1913065" lon="13.2653629"><ele>807.0</ele><time>2026-05-02T15:09:06.129Z</time></trkpt><trkpt lat="42.1913686" lon="13.2652895"><ele>807.0</ele><time>2026-05-02T15:09:07.132Z</time></trkpt><trkpt lat="42.1914363" lon="13.2651981"><ele>807.0</ele><time>2026-05-02T15:09:08.129Z</time></trkpt><trkpt lat="42.1914965" lon="13.2650981"><ele>807.0</ele><time>2026-05-02T15:09:09.133Z</time></trkpt><trkpt lat="42.1915483" lon="13.265001"><ele>807.3333333333334</ele><time>2026-05-02T15:09:10.136Z</time></trkpt><trkpt lat="42.1915984" lon="13.264913"><ele>807.6666666666667</ele><time>2026-05-02T15:09:11.134Z</time></trkpt><trkpt lat="42.1916487" lon="13.2648287"><ele>808.0</ele><time>2026-05-02T15:09:12.137Z</time></trkpt><trkpt lat="42.1916988" lon="13.2647541"><ele>808.3333333333334</ele><time>2026-05-02T15:09:13.134Z</time></trkpt><trkpt lat="42.1917592" lon="13.2646841"><ele>808.6666666666667</ele><time>2026-05-02T15:09:14.134Z</time></trkpt><trkpt lat="42.1918259" lon="13.2646293"><ele>809.0</ele><time>2026-05-02T15:09:15.131Z</time></trkpt><trkpt lat="42.1918943" lon="13.2645835"><ele>809.0000000000001</ele><time>2026-05-02T15:09:16.134Z</time></trkpt><trkpt lat="42.1919652" lon="13.2645364"><ele>809.0</ele><time>2026-05-02T15:09:17.134Z</time></trkpt><trkpt lat="42.1920337" lon="13.2644884"><ele>809.0</ele><time>2026-05-02T15:09:18.133Z</time></trkpt><trkpt lat="42.1920992" lon="13.2644444"><ele>809.0</ele><time>2026-05-02T15:09:19.128Z</time></trkpt><trkpt lat="42.1921766" lon="13.2643991"><ele>809.0000000000001</ele><time>2026-05-02T15:09:20.131Z</time></trkpt><trkpt lat="42.1922633" lon="13.2643682"><ele>809.0</ele><time>2026-05-02T15:09:21.133Z</time></trkpt><trkpt lat="42.192356" lon="13.2643325"><ele>809.6666666666667</ele><time>2026-05-02T15:09:22.137Z</time></trkpt><trkpt lat="42.1924361" lon="13.2642955"><ele>810.3333333333334</ele><time>2026-05-02T15:09:23.132Z</time></trkpt><trkpt lat="42.1925086" lon="13.2642667"><ele>811.0</ele><time>2026-05-02T15:09:24.14Z</time></trkpt><trkpt lat="42.1925828" lon="13.2642369"><ele>811.6666666666667</ele><time>2026-05-02T15:09:25.134Z</time></trkpt><trkpt lat="42.1926579" lon="13.2641958"><ele>812.3333333333334</ele><time>2026-05-02T15:09:26.133Z</time></trkpt><trkpt lat="42.1927339" lon="13.2641482"><ele>813.0</ele><time>2026-05-02T15:09:27.125Z</time></trkpt><trkpt lat="42.1928127" lon="13.264104"><ele>813.0</ele><time>2026-05-02T15:09:28.138Z</time></trkpt><trkpt lat="42.1928926" lon="13.2640619"><ele>813.0</ele><time>2026-05-02T15:09:29.133Z</time></trkpt><trkpt lat="42.1929662" lon="13.2640296"><ele>813.0</ele><time>2026-05-02T15:09:30.125Z</time></trkpt><trkpt lat="42.1930321" lon="13.263999"><ele>813.0</ele><time>2026-05-02T15:09:31.13Z</time></trkpt><trkpt lat="42.1931011" lon="13.2639649"><ele>813.0</ele><time>2026-05-02T15:09:32.132Z</time></trkpt><trkpt lat="42.1931777" lon="13.2639237"><ele>813.0</ele><time>2026-05-02T15:09:33.13Z</time></trkpt><trkpt lat="42.1932538" lon="13.2638746"><ele>813.1666666666666</ele><time>2026-05-02T15:09:34.133Z</time></trkpt><trkpt lat="42.193332" lon="13.2638216"><ele>813.3333333333333</ele><time>2026-05-02T15:09:35.135Z</time></trkpt><trkpt lat="42.1934056" lon="13.2637613"><ele>813.5</ele><time>2026-05-02T15:09:36.131Z</time></trkpt><trkpt lat="42.1934787" lon="13.2637045"><ele>813.6666666666666</ele><time>2026-05-02T15:09:37.132Z</time></trkpt><trkpt lat="42.1935549" lon="13.2636393"><ele>813.8333333333333</ele><time>2026-05-02T15:09:38.136Z</time></trkpt><trkpt lat="42.193629" lon="13.2635779"><ele>814.0</ele><time>2026-05-02T15:09:39.134Z</time></trkpt><trkpt lat="42.1937" lon="13.2635138"><ele>813.9999999999999</ele><time>2026-05-02T15:09:40.136Z</time></trkpt><trkpt lat="42.1937744" lon="13.2634525"><ele>814.0</ele><time>2026-05-02T15:09:41.131Z</time></trkpt><trkpt lat="42.1938483" lon="13.2633934"><ele>814.0</ele><time>2026-05-02T15:09:42.133Z</time></trkpt><trkpt lat="42.1939182" lon="13.2633382"><ele>814.0</ele><time>2026-05-02T15:09:43.132Z</time></trkpt><trkpt lat="42.1939876" lon="13.2632841"><ele>813.9999999999999</ele><time>2026-05-02T15:09:44.136Z</time></trkpt><trkpt lat="42.1940594" lon="13.2632333"><ele>814.0</ele><time>2026-05-02T15:09:45.122Z</time></trkpt><trkpt lat="42.1941254" lon="13.2631771"><ele>814.1666666666666</ele><time>2026-05-02T15:09:46.135Z</time></trkpt><trkpt lat="42.1941983" lon="13.2631128"><ele>814.3333333333333</ele><time>2026-05-02T15:09:47.134Z</time></trkpt><trkpt lat="42.1942696" lon="13.2630602"><ele>814.5</ele><time>2026-05-02T15:09:48.13Z</time></trkpt><trkpt lat="42.194338" lon="13.2630173"><ele>814.6666666666667</ele><time>2026-05-02T15:09:49.128Z</time></trkpt><trkpt lat="42.1944111" lon="13.2629938"><ele>814.8333333333334</ele><time>2026-05-02T15:09:50.127Z</time></trkpt><trkpt lat="42.1944861" lon="13.2629877"><ele>815.0</ele><time>2026-05-02T15:09:51.129Z</time></trkpt><trkpt lat="42.1945691" lon="13.2629785"><ele>815.0000000000001</ele><time>2026-05-02T15:09:52.132Z</time></trkpt><trkpt lat="42.1946531" lon="13.2629543"><ele>815.0</ele><time>2026-05-02T15:09:53.127Z</time></trkpt><trkpt lat="42.1947405" lon="13.2629137"><ele>815.0</ele><time>2026-05-02T15:09:54.137Z</time></trkpt><trkpt lat="42.1948291" lon="13.2628775"><ele>815.0</ele><time>2026-05-02T15:09:55.135Z</time></trkpt><trkpt lat="42.1949134" lon="13.262849"><ele>815.0000000000001</ele><time>2026-05-02T15:09:56.127Z</time></trkpt><trkpt lat="42.1949968" lon="13.262837"><ele>815.0</ele><time>2026-05-02T15:09:57.126Z</time></trkpt><trkpt lat="42.1950803" lon="13.2628475"><ele>815.0</ele><time>2026-05-02T15:09:58.129Z</time></trkpt><trkpt lat="42.1951687" lon="13.2628771"><ele>815.0</ele><time>2026-05-02T15:09:59.131Z</time></trkpt><trkpt lat="42.1952588" lon="13.2629227"><ele>815.0</ele><time>2026-05-02T15:10:00.121Z</time></trkpt><trkpt lat="42.1953301" lon="13.2629629"><ele>815.0</ele><time>2026-05-02T15:10:01.126Z</time></trkpt><trkpt lat="42.1954222" lon="13.2630239"><ele>815.0</ele><time>2026-05-02T15:10:03.122Z</time></trkpt><trkpt lat="42.195511" lon="13.2629755"><ele>815.0</ele><time>2026-05-02T15:10:05.129Z</time></trkpt><trkpt lat="42.195596" lon="13.2628281"><ele>815.0</ele><time>2026-05-02T15:10:07.121Z</time></trkpt><trkpt lat="42.1956428" lon="13.2627225"><ele>815.0</ele><time>2026-05-02T15:10:08.128Z</time></trkpt><trkpt lat="42.1956898" lon="13.2625895"><ele>815.0</ele><time>2026-05-02T15:10:09.123Z</time></trkpt><trkpt lat="42.1957413" lon="13.2624477"><ele>815.0</ele><time>2026-05-02T15:10:10.123Z</time></trkpt><trkpt lat="42.1957927" lon="13.2623016"><ele>815.0</ele><time>2026-05-02T15:10:11.12Z</time></trkpt><trkpt lat="42.1958437" lon="13.2621586"><ele>815.0</ele><time>2026-05-02T15:10:12.122Z</time></trkpt><trkpt lat="42.1959029" lon="13.2620237"><ele>815.0</ele><time>2026-05-02T15:10:13.131Z</time></trkpt><trkpt lat="42.1959635" lon="13.2618877"><ele>815.0</ele><time>2026-05-02T15:10:14.136Z</time></trkpt><trkpt lat="42.1960125" lon="13.2617484"><ele>815.0</ele><time>2026-05-02T15:10:15.127Z</time></trkpt><trkpt lat="42.1960546" lon="13.2616195"><ele>815.0</ele><time>2026-05-02T15:10:16.131Z</time></trkpt><trkpt lat="42.1960848" lon="13.2615006"><ele>815.0</ele><time>2026-05-02T15:10:17.134Z</time></trkpt><trkpt lat="42.196121" lon="13.2613793"><ele>815.0</ele><time>2026-05-02T15:10:18.131Z</time></trkpt><trkpt lat="42.1961612" lon="13.2612557"><ele>814.8</ele><time>2026-05-02T15:10:19.132Z</time></trkpt><trkpt lat="42.1961963" lon="13.2611297"><ele>814.6</ele><time>2026-05-02T15:10:20.129Z</time></trkpt><trkpt lat="42.1962251" lon="13.2610057"><ele>814.4000000000001</ele><time>2026-05-02T15:10:21.132Z</time></trkpt><trkpt lat="42.1962464" lon="13.2608779"><ele>814.2</ele><time>2026-05-02T15:10:22.135Z</time></trkpt><trkpt lat="42.1962599" lon="13.2607513"><ele>814.0</ele><time>2026-05-02T15:10:23.132Z</time></trkpt><trkpt lat="42.1962762" lon="13.2606356"><ele>813.4000000000001</ele><time>2026-05-02T15:10:24.132Z</time></trkpt><trkpt lat="42.1962966" lon="13.260539"><ele>812.8</ele><time>2026-05-02T15:10:25.132Z</time></trkpt><trkpt lat="42.1963484" lon="13.2604224"><ele>812.2</ele><time>2026-05-02T15:10:27.135Z</time></trkpt><trkpt lat="42.1964352" lon="13.2603755"><ele>811.5999999999999</ele><time>2026-05-02T15:10:29.139Z</time></trkpt><trkpt lat="42.196563" lon="13.2603601"><ele>811.0</ele><time>2026-05-02T15:10:31.126Z</time></trkpt><trkpt lat="42.1966345" lon="13.2603628"><ele>810.5999999999999</ele><time>2026-05-02T15:10:32.126Z</time></trkpt><trkpt lat="42.1967122" lon="13.2603715"><ele>810.2</ele><time>2026-05-02T15:10:33.128Z</time></trkpt><trkpt lat="42.1968019" lon="13.2603802"><ele>809.8</ele><time>2026-05-02T15:10:34.129Z</time></trkpt><trkpt lat="42.1969071" lon="13.2603641"><ele>809.4000000000001</ele><time>2026-05-02T15:10:35.129Z</time></trkpt><trkpt lat="42.1970249" lon="13.2603349"><ele>809.0</ele><time>2026-05-02T15:10:36.127Z</time></trkpt><trkpt lat="42.1971499" lon="13.2602866"><ele>809.0</ele><time>2026-05-02T15:10:37.125Z</time></trkpt><trkpt lat="42.1972697" lon="13.2602387"><ele>809.0</ele><time>2026-05-02T15:10:38.121Z</time></trkpt><trkpt lat="42.1973794" lon="13.2601898"><ele>809.0</ele><time>2026-05-02T15:10:39.125Z</time></trkpt><trkpt lat="42.1974846" lon="13.2601373"><ele>809.0</ele><time>2026-05-02T15:10:40.128Z</time></trkpt><trkpt lat="42.1975824" lon="13.2600662"><ele>808.75</ele><time>2026-05-02T15:10:41.126Z</time></trkpt><trkpt lat="42.19768" lon="13.2599775"><ele>808.5</ele><time>2026-05-02T15:10:42.131Z</time></trkpt><trkpt lat="42.1977802" lon="13.2598755"><ele>808.25</ele><time>2026-05-02T15:10:43.123Z</time></trkpt><trkpt lat="42.1978716" lon="13.2597761"><ele>808.0</ele><time>2026-05-02T15:10:44.133Z</time></trkpt><trkpt lat="42.1979564" lon="13.2596895"><ele>807.9999999999999</ele><time>2026-05-02T15:10:45.124Z</time></trkpt><trkpt lat="42.1980322" lon="13.2596176"><ele>808.0</ele><time>2026-05-02T15:10:46.124Z</time></trkpt><trkpt lat="42.1981053" lon="13.2595479"><ele>808.0</ele><time>2026-05-02T15:10:47.13Z</time></trkpt><trkpt lat="42.198171" lon="13.2594849"><ele>808.0</ele><time>2026-05-02T15:10:48.12Z</time></trkpt><trkpt lat="42.1982279" lon="13.2594398"><ele>807.9999999999999</ele><time>2026-05-02T15:10:49.12Z</time></trkpt><trkpt lat="42.1983351" lon="13.2593841"><ele>808.0</ele><time>2026-05-02T15:10:51.124Z</time></trkpt><trkpt lat="42.1984122" lon="13.2594209"><ele>809.25</ele><time>2026-05-02T15:10:52.114Z</time></trkpt><trkpt lat="42.1985106" lon="13.259446"><ele>810.5</ele><time>2026-05-02T15:10:53.122Z</time></trkpt><trkpt lat="42.1986209" lon="13.2594438"><ele>811.75</ele><time>2026-05-02T15:10:54.125Z</time></trkpt><trkpt lat="42.198736" lon="13.2593996"><ele>813.0</ele><time>2026-05-02T15:10:55.125Z</time></trkpt><trkpt lat="42.1988518" lon="13.2593409"><ele>813.0</ele><time>2026-05-02T15:10:56.127Z</time></trkpt><trkpt lat="42.1989733" lon="13.2592741"><ele>813.0</ele><time>2026-05-02T15:10:57.127Z</time></trkpt><trkpt lat="42.199084" lon="13.2592094"><ele>813.0</ele><time>2026-05-02T15:10:58.125Z</time></trkpt><trkpt lat="42.1991788" lon="13.2591362"><ele>813.0</ele><time>2026-05-02T15:10:59.126Z</time></trkpt><trkpt lat="42.199262" lon="13.2590703"><ele>813.5</ele><time>2026-05-02T15:11:00.124Z</time></trkpt><trkpt lat="42.199339" lon="13.2590203"><ele>814.0</ele><time>2026-05-02T15:11:01.122Z</time></trkpt><trkpt lat="42.1994205" lon="13.2589962"><ele>814.5</ele><time>2026-05-02T15:11:02.119Z</time></trkpt><trkpt lat="42.1995108" lon="13.2590087"><ele>815.0</ele><time>2026-05-02T15:11:03.113Z</time></trkpt><trkpt lat="42.1996049" lon="13.2590392"><ele>815.5</ele><time>2026-05-02T15:11:04.119Z</time></trkpt><trkpt lat="42.1996885" lon="13.259083"><ele>816.0</ele><time>2026-05-02T15:11:05.115Z</time></trkpt><trkpt lat="42.1997594" lon="13.2591277"><ele>816.0</ele><time>2026-05-02T15:11:06.115Z</time></trkpt><trkpt lat="42.19982" lon="13.2591806"><ele>816.0</ele><time>2026-05-02T15:11:07.116Z</time></trkpt><trkpt lat="42.1998983" lon="13.2592817"><ele>816.0</ele><time>2026-05-02T15:11:09.117Z</time></trkpt><trkpt lat="42.1999678" lon="13.2591947"><ele>816.0</ele><time>2026-05-02T15:11:13.123Z</time></trkpt><trkpt lat="42.1999656" lon="13.2590435"><ele>816.0</ele><time>2026-05-02T15:11:15.116Z</time></trkpt><trkpt lat="42.1999282" lon="13.2589252"><ele>815.75</ele><time>2026-05-02T15:11:16.118Z</time></trkpt><trkpt lat="42.1998855" lon="13.2587907"><ele>815.5</ele><time>2026-05-02T15:11:17.122Z</time></trkpt><trkpt lat="42.199842" lon="13.2586393"><ele>815.25</ele><time>2026-05-02T15:11:18.118Z</time></trkpt><trkpt lat="42.1997929" lon="13.2584894"><ele>815.0</ele><time>2026-05-02T15:11:19.121Z</time></trkpt><trkpt lat="42.1997443" lon="13.258356"><ele>815.0000000000001</ele><time>2026-05-02T15:11:20.115Z</time></trkpt><trkpt lat="42.1997059" lon="13.2582441"><ele>815.0</ele><time>2026-05-02T15:11:21.123Z</time></trkpt><trkpt lat="42.1996707" lon="13.2581482"><ele>815.0</ele><time>2026-05-02T15:11:22.116Z</time></trkpt><trkpt lat="42.1996426" lon="13.2580621"><ele>815.0</ele><time>2026-05-02T15:11:23.122Z</time></trkpt><trkpt lat="42.1996016" lon="13.2579087"><ele>815.0000000000001</ele><time>2026-05-02T15:11:25.119Z</time></trkpt><trkpt lat="42.199615" lon="13.2578105"><ele>815.0</ele><time>2026-05-02T15:11:27.127Z</time></trkpt><trkpt lat="42.1996407" lon="13.2576924"><ele>815.3333333333334</ele><time>2026-05-02T15:11:29.126Z</time></trkpt><trkpt lat="42.1996697" lon="13.2575754"><ele>815.6666666666667</ele><time>2026-05-02T15:11:30.121Z</time></trkpt><trkpt lat="42.1997041" lon="13.257451"><ele>816.0</ele><time>2026-05-02T15:11:31.129Z</time></trkpt><trkpt lat="42.199743" lon="13.2573518"><ele>816.3333333333333</ele><time>2026-05-02T15:11:32.116Z</time></trkpt><trkpt lat="42.1997981" lon="13.2572874"><ele>816.6666666666666</ele><time>2026-05-02T15:11:33.126Z</time></trkpt><trkpt lat="42.199854" lon="13.2572397"><ele>817.0</ele><time>2026-05-02T15:11:34.115Z</time></trkpt><trkpt lat="42.1999258" lon="13.2571699"><ele>817.7142857142857</ele><time>2026-05-02T15:12:00.124Z</time></trkpt><trkpt lat="42.1999044" lon="13.2570747"><ele>818.4285714285714</ele><time>2026-05-02T15:12:02.122Z</time></trkpt><trkpt lat="42.1998651" lon="13.2570024"><ele>819.1428571428571</ele><time>2026-05-02T15:12:03.109Z</time></trkpt><trkpt lat="42.1998067" lon="13.2569238"><ele>819.8571428571429</ele><time>2026-05-02T15:12:04.12Z</time></trkpt><trkpt lat="42.1997646" lon="13.2568546"><ele>820.5714285714286</ele><time>2026-05-02T15:12:05.113Z</time></trkpt><trkpt lat="42.1997074" lon="13.25675"><ele>821.2857142857142</ele><time>2026-05-02T15:12:07.122Z</time></trkpt><trkpt lat="42.1997369" lon="13.2566735"><ele>822.0</ele><time>2026-05-02T15:12:09.117Z</time></trkpt><trkpt lat="42.1998304" lon="13.256716"><ele>825.0</ele><time>2026-05-02T15:12:11.116Z</time></trkpt><trkpt lat="42.1999048" lon="13.2567962"><ele>828.0</ele><time>2026-05-02T15:12:12.117Z</time></trkpt><trkpt lat="42.1999812" lon="13.2568757"><ele>831.0</ele><time>2026-05-02T15:12:13.121Z</time></trkpt><trkpt lat="42.200064" lon="13.2569321"><ele>834.0</ele><time>2026-05-02T15:12:14.123Z</time></trkpt><trkpt lat="42.2001548" lon="13.256983"><ele>837.0</ele><time>2026-05-02T15:12:15.118Z</time></trkpt><trkpt lat="42.2002543" lon="13.2570132"><ele>837.0</ele><time>2026-05-02T15:12:16.124Z</time></trkpt><trkpt lat="42.2003549" lon="13.257034"><ele>837.0</ele><time>2026-05-02T15:12:17.127Z</time></trkpt><trkpt lat="42.2004505" lon="13.2570479"><ele>837.0</ele><time>2026-05-02T15:12:18.127Z</time></trkpt><trkpt lat="42.200544" lon="13.2570662"><ele>837.0</ele><time>2026-05-02T15:12:19.125Z</time></trkpt><trkpt lat="42.2006276" lon="13.2570865"><ele>837.0</ele><time>2026-05-02T15:12:20.127Z</time></trkpt><trkpt lat="42.2007051" lon="13.2570978"><ele>839.2857142857143</ele><time>2026-05-02T15:12:21.122Z</time></trkpt><trkpt lat="42.2007743" lon="13.2570989"><ele>841.5714285714287</ele><time>2026-05-02T15:12:22.121Z</time></trkpt><trkpt lat="42.2008842" lon="13.2571053"><ele>843.8571428571429</ele><time>2026-05-02T15:12:24.117Z</time></trkpt><trkpt lat="42.2009451" lon="13.2571338"><ele>846.1428571428571</ele><time>2026-05-02T15:12:26.117Z</time></trkpt><trkpt lat="42.2010108" lon="13.2571637"><ele>848.4285714285714</ele><time>2026-05-02T15:12:40.132Z</time></trkpt><trkpt lat="42.2010769" lon="13.2571796"><ele>850.7142857142857</ele><time>2026-05-02T15:12:48.129Z</time></trkpt><trkpt lat="42.2010734" lon="13.2570912"><ele>853.0</ele><time>2026-05-02T15:12:51.115Z</time></trkpt><trkpt lat="42.201142" lon="13.2570416"><ele>853.0</ele><time>2026-05-02T15:12:54.112Z</time></trkpt><trkpt lat="42.201198" lon="13.2569982"><ele>853.0</ele><time>2026-05-02T15:12:55.12Z</time></trkpt><trkpt lat="42.201277" lon="13.2569915"><ele>853.0</ele><time>2026-05-02T15:12:56.105Z</time></trkpt><trkpt lat="42.2013553" lon="13.25696"><ele>853.0</ele><time>2026-05-02T15:12:57.126Z</time></trkpt><trkpt lat="42.201426" lon="13.2569415"><ele>853.0</ele><time>2026-05-02T15:12:58.128Z</time></trkpt><trkpt lat="42.2014929" lon="13.2569312"><ele>853.0</ele><time>2026-05-02T15:12:59.128Z</time></trkpt><trkpt lat="42.2015651" lon="13.2569261"><ele>853.0</ele><time>2026-05-02T15:13:00.122Z</time></trkpt><trkpt lat="42.2016496" lon="13.2569189"><ele>855.8333333333333</ele><time>2026-05-02T15:13:01.13Z</time></trkpt><trkpt lat="42.2017388" lon="13.2569171"><ele>858.6666666666666</ele><time>2026-05-02T15:13:02.128Z</time></trkpt><trkpt lat="42.2018205" lon="13.2569073"><ele>861.5</ele><time>2026-05-02T15:13:03.127Z</time></trkpt><trkpt lat="42.2019006" lon="13.2569087"><ele>864.3333333333333</ele><time>2026-05-02T15:13:04.13Z</time></trkpt><trkpt lat="42.2019846" lon="13.2569141"><ele>867.1666666666666</ele><time>2026-05-02T15:13:05.124Z</time></trkpt><trkpt lat="42.2020661" lon="13.2569081"><ele>870.0</ele><time>2026-05-02T15:13:06.13Z</time></trkpt><trkpt lat="42.202146" lon="13.2568965"><ele>870.0</ele><time>2026-05-02T15:13:07.121Z</time></trkpt><trkpt lat="42.20222" lon="13.25689"><ele>870.0</ele><time>2026-05-02T15:13:08.125Z</time></trkpt><trkpt lat="42.2022841" lon="13.2568787"><ele>870.0</ele><time>2026-05-02T15:13:09.122Z</time></trkpt><trkpt lat="42.2023507" lon="13.2568669"><ele>870.0</ele><time>2026-05-02T15:13:10.126Z</time></trkpt><trkpt lat="42.2024697" lon="13.2568304"><ele>870.0</ele><time>2026-05-02T15:13:12.124Z</time></trkpt><trkpt lat="42.2025785" lon="13.2567595"><ele>870.0</ele><time>2026-05-02T15:13:14.127Z</time></trkpt><trkpt lat="42.2026415" lon="13.2567435"><ele>871.1666666666666</ele><time>2026-05-02T15:13:15.125Z</time></trkpt><trkpt lat="42.2027074" lon="13.2567211"><ele>872.3333333333333</ele><time>2026-05-02T15:13:16.118Z</time></trkpt><trkpt lat="42.2028244" lon="13.2566833"><ele>873.5</ele><time>2026-05-02T15:13:18.125Z</time></trkpt><trkpt lat="42.2028873" lon="13.2566476"><ele>874.6666666666666</ele><time>2026-05-02T15:13:20.125Z</time></trkpt><trkpt lat="42.2029373" lon="13.2565638"><ele>875.8333333333333</ele><time>2026-05-02T15:13:22.126Z</time></trkpt><trkpt lat="42.2029846" lon="13.2564687"><ele>877.0</ele><time>2026-05-02T15:13:24.12Z</time></trkpt><trkpt lat="42.2030319" lon="13.2563546"><ele>878.2</ele><time>2026-05-02T15:13:26.119Z</time></trkpt><trkpt lat="42.2030719" lon="13.2562378"><ele>879.4000000000001</ele><time>2026-05-02T15:13:28.12Z</time></trkpt><trkpt lat="42.2031128" lon="13.2561293"><ele>880.5999999999999</ele><time>2026-05-02T15:13:30.116Z</time></trkpt><trkpt lat="42.20316" lon="13.2560171"><ele>881.8</ele><time>2026-05-02T15:13:32.115Z</time></trkpt><trkpt lat="42.2032405" lon="13.255886"><ele>883.0</ele><time>2026-05-02T15:13:34.12Z</time></trkpt><trkpt lat="42.2032871" lon="13.2558187"><ele>883.0</ele><time>2026-05-02T15:13:35.12Z</time></trkpt><trkpt lat="42.2033361" lon="13.2557584"><ele>883.0</ele><time>2026-05-02T15:13:36.123Z</time></trkpt><trkpt lat="42.2034017" lon="13.2556205"><ele>883.0</ele><time>2026-05-02T15:13:38.123Z</time></trkpt><trkpt lat="42.2033851" lon="13.2554749"><ele>883.0</ele><time>2026-05-02T15:13:40.119Z</time></trkpt><trkpt lat="42.203334" lon="13.2553073"><ele>883.0</ele><time>2026-05-02T15:13:42.126Z</time></trkpt><trkpt lat="42.2033098" lon="13.2552031"><ele>884.8333333333333</ele><time>2026-05-02T15:13:43.124Z</time></trkpt><trkpt lat="42.203293" lon="13.2550973"><ele>886.6666666666666</ele><time>2026-05-02T15:13:44.127Z</time></trkpt><trkpt lat="42.2032902" lon="13.2549979"><ele>888.5</ele><time>2026-05-02T15:13:45.123Z</time></trkpt><trkpt lat="42.2032991" lon="13.254888"><ele>890.3333333333333</ele><time>2026-05-02T15:13:47.127Z</time></trkpt><trkpt lat="42.2033651" lon="13.2549183"><ele>892.1666666666666</ele><time>2026-05-02T15:13:50.125Z</time></trkpt><trkpt lat="42.2033931" lon="13.2550235"><ele>894.0</ele><time>2026-05-02T15:14:03.126Z</time></trkpt><trkpt lat="42.2034395" lon="13.2550834"><ele>894.0</ele><time>2026-05-02T15:18:00.13Z</time></trkpt><trkpt lat="42.2035411" lon="13.2551409"><ele>894.0000000000001</ele><time>2026-05-02T15:18:03.131Z</time></trkpt><trkpt lat="42.2036449" lon="13.2552374"><ele>894.0000000000001</ele><time>2026-05-02T15:18:05.129Z</time></trkpt><trkpt lat="42.2037148" lon="13.2553034"><ele>894.0</ele><time>2026-05-02T15:18:06.129Z</time></trkpt><trkpt lat="42.2037917" lon="13.2553716"><ele>894.0</ele><time>2026-05-02T15:18:07.132Z</time></trkpt><trkpt lat="42.2038726" lon="13.2554506"><ele>894.0</ele><time>2026-05-02T15:18:08.13Z</time></trkpt><trkpt lat="42.2039548" lon="13.2555382"><ele>894.0000000000001</ele><time>2026-05-02T15:18:09.13Z</time></trkpt><trkpt lat="42.2040324" lon="13.2556332"><ele>894.0000000000001</ele><time>2026-05-02T15:18:10.126Z</time></trkpt><trkpt lat="42.204108" lon="13.2557511"><ele>894.0</ele><time>2026-05-02T15:18:11.136Z</time></trkpt><trkpt lat="42.2041888" lon="13.2558639"><ele>894.0</ele><time>2026-05-02T15:18:12.132Z</time></trkpt><trkpt lat="42.2042765" lon="13.2559649"><ele>895.5</ele><time>2026-05-02T15:18:13.134Z</time></trkpt><trkpt lat="42.2043757" lon="13.2560532"><ele>897.0</ele><time>2026-05-02T15:18:14.132Z</time></trkpt><trkpt lat="42.2044834" lon="13.2561288"><ele>898.5</ele><time>2026-05-02T15:18:15.125Z</time></trkpt><trkpt lat="42.2045989" lon="13.2562041"><ele>900.0</ele><time>2026-05-02T15:18:16.128Z</time></trkpt><trkpt lat="42.2047145" lon="13.2562778"><ele>900.0</ele><time>2026-05-02T15:18:17.129Z</time></trkpt><trkpt lat="42.2048266" lon="13.2563551"><ele>900.0</ele><time>2026-05-02T15:18:18.128Z</time></trkpt><trkpt lat="42.204928" lon="13.2564503"><ele>900.0</ele><time>2026-05-02T15:18:19.123Z</time></trkpt><trkpt lat="42.2050154" lon="13.2565701"><ele>900.0</ele><time>2026-05-02T15:18:20.13Z</time></trkpt><trkpt lat="42.2050875" lon="13.2567041"><ele>899.5</ele><time>2026-05-02T15:18:21.122Z</time></trkpt><trkpt lat="42.2051556" lon="13.2568512"><ele>899.0</ele><time>2026-05-02T15:18:22.118Z</time></trkpt><trkpt lat="42.2052238" lon="13.2569989"><ele>898.5</ele><time>2026-05-02T15:18:23.117Z</time></trkpt><trkpt lat="42.2052988" lon="13.2571429"><ele>898.0</ele><time>2026-05-02T15:18:24.128Z</time></trkpt><trkpt lat="42.205364" lon="13.2573007"><ele>898.0</ele><time>2026-05-02T15:18:25.13Z</time></trkpt><trkpt lat="42.2053853" lon="13.2574666"><ele>898.0</ele><time>2026-05-02T15:18:26.127Z</time></trkpt><trkpt lat="42.2054266" lon="13.2576294"><ele>898.0</ele><time>2026-05-02T15:18:27.126Z</time></trkpt><trkpt lat="42.2054972" lon="13.2577639"><ele>898.0</ele><time>2026-05-02T15:18:28.127Z</time></trkpt><trkpt lat="42.2055782" lon="13.2578438"><ele>905.2</ele><time>2026-05-02T15:18:29.13Z</time></trkpt><trkpt lat="42.2056917" lon="13.2579183"><ele>912.4</ele><time>2026-05-02T15:18:31.125Z</time></trkpt><trkpt lat="42.2057551" lon="13.257926"><ele>919.6000000000001</ele><time>2026-05-02T15:18:32.128Z</time></trkpt><trkpt lat="42.205881" lon="13.2579865"><ele>926.8000000000001</ele><time>2026-05-02T15:18:34.124Z</time></trkpt><trkpt lat="42.2059687" lon="13.2580452"><ele>934.0</ele><time>2026-05-02T15:18:35.124Z</time></trkpt><trkpt lat="42.2060609" lon="13.2581087"><ele>930.6</ele><time>2026-05-02T15:18:36.123Z</time></trkpt><trkpt lat="42.2061382" lon="13.2581722"><ele>927.2</ele><time>2026-05-02T15:18:37.113Z</time></trkpt><trkpt lat="42.2061826" lon="13.258267"><ele>923.8000000000001</ele><time>2026-05-02T15:18:38.118Z</time></trkpt><trkpt lat="42.2061986" lon="13.2583851"><ele>920.4000000000001</ele><time>2026-05-02T15:18:39.113Z</time></trkpt><trkpt lat="42.2061978" lon="13.2585297"><ele>917.0</ele><time>2026-05-02T15:18:40.114Z</time></trkpt><trkpt lat="42.2061846" lon="13.2586952"><ele>917.0</ele><time>2026-05-02T15:18:41.119Z</time></trkpt><trkpt lat="42.2061677" lon="13.2588822"><ele>917.0</ele><time>2026-05-02T15:18:42.122Z</time></trkpt><trkpt lat="42.206151" lon="13.259075"><ele>917.0</ele><time>2026-05-02T15:18:43.122Z</time></trkpt><trkpt lat="42.206116" lon="13.2592636"><ele>917.0</ele><time>2026-05-02T15:18:44.137Z</time></trkpt><trkpt lat="42.2061139" lon="13.259433"><ele>915.5</ele><time>2026-05-02T15:18:45.12Z</time></trkpt><trkpt lat="42.2061263" lon="13.2595732"><ele>914.0</ele><time>2026-05-02T15:18:46.117Z</time></trkpt><trkpt lat="42.2061481" lon="13.2597186"><ele>912.5</ele><time>2026-05-02T15:18:47.115Z</time></trkpt><trkpt lat="42.2062022" lon="13.2598394"><ele>911.0</ele><time>2026-05-02T15:18:48.126Z</time></trkpt><trkpt lat="42.2062879" lon="13.2599827"><ele>909.5</ele><time>2026-05-02T15:18:49.122Z</time></trkpt><trkpt lat="42.2064038" lon="13.2600694"><ele>908.0</ele><time>2026-05-02T15:18:50.123Z</time></trkpt><trkpt lat="42.206491" lon="13.2602027"><ele>906.5</ele><time>2026-05-02T15:18:51.127Z</time></trkpt><trkpt lat="42.2065824" lon="13.2603384"><ele>905.0</ele><time>2026-05-02T15:18:52.128Z</time></trkpt><trkpt lat="42.2066783" lon="13.2604728"><ele>910.25</ele><time>2026-05-02T15:18:53.127Z</time></trkpt><trkpt lat="42.2067739" lon="13.2606144"><ele>915.5</ele><time>2026-05-02T15:18:54.122Z</time></trkpt><trkpt lat="42.206861" lon="13.2607427"><ele>920.75</ele><time>2026-05-02T15:18:55.132Z</time></trkpt><trkpt lat="42.2069358" lon="13.260856"><ele>926.0</ele><time>2026-05-02T15:18:56.125Z</time></trkpt><trkpt lat="42.2069999" lon="13.2609659"><ele>926.0</ele><time>2026-05-02T15:18:57.128Z</time></trkpt><trkpt lat="42.2070469" lon="13.2610819"><ele>925.9999999999999</ele><time>2026-05-02T15:18:58.124Z</time></trkpt><trkpt lat="42.2071019" lon="13.2611923"><ele>925.9999999999999</ele><time>2026-05-02T15:18:59.132Z</time></trkpt><trkpt lat="42.2071677" lon="13.2613108"><ele>926.0</ele><time>2026-05-02T15:19:00.122Z</time></trkpt><trkpt lat="42.2072342" lon="13.2614307"><ele>926.0</ele><time>2026-05-02T15:19:01.129Z</time></trkpt><trkpt lat="42.2073024" lon="13.2615604"><ele>929.4</ele><time>2026-05-02T15:19:02.125Z</time></trkpt><trkpt lat="42.2073762" lon="13.261697"><ele>932.8</ele><time>2026-05-02T15:19:03.127Z</time></trkpt><trkpt lat="42.2074476" lon="13.2618154"><ele>936.1999999999999</ele><time>2026-05-02T15:19:04.119Z</time></trkpt><trkpt lat="42.2075192" lon="13.2619049"><ele>939.5999999999999</ele><time>2026-05-02T15:19:05.12Z</time></trkpt><trkpt lat="42.207586" lon="13.2619661"><ele>943.0</ele><time>2026-05-02T15:19:06.126Z</time></trkpt><trkpt lat="42.2076517" lon="13.2619799"><ele>942.9999999999999</ele><time>2026-05-02T15:19:07.125Z</time></trkpt><trkpt lat="42.2077164" lon="13.2619694"><ele>943.0</ele><time>2026-05-02T15:19:08.133Z</time></trkpt><trkpt lat="42.207779" lon="13.2619194"><ele>943.0</ele><time>2026-05-02T15:19:09.128Z</time></trkpt><trkpt lat="42.2078463" lon="13.2618394"><ele>943.0</ele><time>2026-05-02T15:19:10.134Z</time></trkpt><trkpt lat="42.2079039" lon="13.2617642"><ele>942.9999999999999</ele><time>2026-05-02T15:19:11.128Z</time></trkpt><trkpt lat="42.2079465" lon="13.2616906"><ele>943.0</ele><time>2026-05-02T15:19:12.127Z</time></trkpt><trkpt lat="42.2079145" lon="13.261569"><ele>943.0</ele><time>2026-05-02T15:19:14.141Z</time></trkpt><trkpt lat="42.2077949" lon="13.261581"><ele>943.0</ele><time>2026-05-02T15:19:16.139Z</time></trkpt><trkpt lat="42.2077305" lon="13.261603"><ele>943.0</ele><time>2026-05-02T15:19:17.136Z</time></trkpt><trkpt lat="42.2076386" lon="13.2615322"><ele>943.0</ele><time>2026-05-02T15:19:19.138Z</time></trkpt><trkpt lat="42.2076259" lon="13.2614204"><ele>943.0</ele><time>2026-05-02T15:19:20.134Z</time></trkpt><trkpt lat="42.2075976" lon="13.2612905"><ele>948.5</ele><time>2026-05-02T15:19:21.125Z</time></trkpt><trkpt lat="42.2075522" lon="13.2611448"><ele>954.0</ele><time>2026-05-02T15:19:22.137Z</time></trkpt><trkpt lat="42.2074836" lon="13.2609972"><ele>959.5</ele><time>2026-05-02T15:19:23.135Z</time></trkpt><trkpt lat="42.2074086" lon="13.2608492"><ele>965.0</ele><time>2026-05-02T15:19:24.128Z</time></trkpt><trkpt lat="42.207328" lon="13.2606881"><ele>957.6666666666667</ele><time>2026-05-02T15:19:25.133Z</time></trkpt><trkpt lat="42.2072493" lon="13.260517"><ele>950.3333333333333</ele><time>2026-05-02T15:19:26.128Z</time></trkpt><trkpt lat="42.2071778" lon="13.2603195"><ele>943.0</ele><time>2026-05-02T15:19:27.128Z</time></trkpt><trkpt lat="42.207122" lon="13.2601339"><ele>943.0</ele><time>2026-05-02T15:19:28.125Z</time></trkpt><trkpt lat="42.2070593" lon="13.2599749"><ele>943.0</ele><time>2026-05-02T15:19:29.128Z</time></trkpt><trkpt lat="42.2070232" lon="13.259829"><ele>943.0</ele><time>2026-05-02T15:19:30.127Z</time></trkpt><trkpt lat="42.2069849" lon="13.2596953"><ele>943.0</ele><time>2026-05-02T15:19:31.132Z</time></trkpt><trkpt lat="42.2069692" lon="13.2595624"><ele>944.5999999999999</ele><time>2026-05-02T15:19:32.128Z</time></trkpt><trkpt lat="42.2069661" lon="13.2594475"><ele>946.1999999999999</ele><time>2026-05-02T15:19:33.129Z</time></trkpt><trkpt lat="42.2069733" lon="13.2593304"><ele>947.8</ele><time>2026-05-02T15:19:34.135Z</time></trkpt><trkpt lat="42.2070069" lon="13.2592019"><ele>949.4</ele><time>2026-05-02T15:19:35.137Z</time></trkpt><trkpt lat="42.2070621" lon="13.2590502"><ele>951.0</ele><time>2026-05-02T15:19:36.132Z</time></trkpt><trkpt lat="42.207129" lon="13.2588937"><ele>951.0</ele><time>2026-05-02T15:19:37.13Z</time></trkpt><trkpt lat="42.2072018" lon="13.2587441"><ele>951.0</ele><time>2026-05-02T15:19:38.129Z</time></trkpt><trkpt lat="42.20726" lon="13.2585849"><ele>951.0</ele><time>2026-05-02T15:19:39.132Z</time></trkpt><trkpt lat="42.207303" lon="13.2584099"><ele>951.0</ele><time>2026-05-02T15:19:40.131Z</time></trkpt><trkpt lat="42.2073377" lon="13.2582301"><ele>954.0</ele><time>2026-05-02T15:19:41.131Z</time></trkpt><trkpt lat="42.2073434" lon="13.2580621"><ele>956.9999999999999</ele><time>2026-05-02T15:19:42.125Z</time></trkpt><trkpt lat="42.2073416" lon="13.2579147"><ele>959.9999999999999</ele><time>2026-05-02T15:19:43.125Z</time></trkpt><trkpt lat="42.2073361" lon="13.2577729"><ele>963.0</ele><time>2026-05-02T15:19:44.131Z</time></trkpt><trkpt lat="42.2073054" lon="13.2576376"><ele>966.0</ele><time>2026-05-02T15:19:45.126Z</time></trkpt><trkpt lat="42.2072295" lon="13.2575129"><ele>966.0</ele><time>2026-05-02T15:19:46.125Z</time></trkpt><trkpt lat="42.2071236" lon="13.257392"><ele>966.0</ele><time>2026-05-02T15:19:47.117Z</time></trkpt><trkpt lat="42.2070449" lon="13.257285"><ele>966.0</ele><time>2026-05-02T15:19:48.113Z</time></trkpt><trkpt lat="42.2069369" lon="13.2571546"><ele>966.0</ele><time>2026-05-02T15:19:49.118Z</time></trkpt><trkpt lat="42.2068126" lon="13.2570051"><ele>971.25</ele><time>2026-05-02T15:19:50.128Z</time></trkpt><trkpt lat="42.2067174" lon="13.2568761"><ele>976.5</ele><time>2026-05-02T15:19:51.124Z</time></trkpt><trkpt lat="42.2066617" lon="13.2567122"><ele>981.75</ele><time>2026-05-02T15:19:52.124Z</time></trkpt><trkpt lat="42.2066224" lon="13.2565818"><ele>987.0</ele><time>2026-05-02T15:19:53.128Z</time></trkpt><trkpt lat="42.2065802" lon="13.2564496"><ele>990.5</ele><time>2026-05-02T15:19:54.128Z</time></trkpt><trkpt lat="42.2065135" lon="13.2562908"><ele>994.0</ele><time>2026-05-02T15:19:55.122Z</time></trkpt><trkpt lat="42.2064859" lon="13.2561132"><ele>997.5</ele><time>2026-05-02T15:19:56.123Z</time></trkpt><trkpt lat="42.2064578" lon="13.2559415"><ele>1001.0</ele><time>2026-05-02T15:19:57.124Z</time></trkpt><trkpt lat="42.206446" lon="13.2557618"><ele>1002.25</ele><time>2026-05-02T15:19:58.129Z</time></trkpt><trkpt lat="42.206451" lon="13.2555808"><ele>1003.5</ele><time>2026-05-02T15:19:59.129Z</time></trkpt><trkpt lat="42.2064634" lon="13.2553903"><ele>1004.75</ele><time>2026-05-02T15:20:00.127Z</time></trkpt><trkpt lat="42.2064971" lon="13.255205"><ele>1006.0</ele><time>2026-05-02T15:20:01.123Z</time></trkpt><trkpt lat="42.2065151" lon="13.2550371"><ele>1006.0</ele><time>2026-05-02T15:20:02.125Z</time></trkpt><trkpt lat="42.2065166" lon="13.2548639"><ele>1006.0</ele><time>2026-05-02T15:20:03.131Z</time></trkpt><trkpt lat="42.2064824" lon="13.2546805"><ele>1006.0</ele><time>2026-05-02T15:20:04.124Z</time></trkpt><trkpt lat="42.2064434" lon="13.2544807"><ele>1006.0</ele><time>2026-05-02T15:20:05.123Z</time></trkpt><trkpt lat="42.2064333" lon="13.2542954"><ele>1006.5</ele><time>2026-05-02T15:20:06.124Z</time></trkpt><trkpt lat="42.2064466" lon="13.2541227"><ele>1007.0</ele><time>2026-05-02T15:20:07.125Z</time></trkpt><trkpt lat="42.2064571" lon="13.253938"><ele>1007.5</ele><time>2026-05-02T15:20:08.128Z</time></trkpt><trkpt lat="42.2065006" lon="13.2537615"><ele>1008.0</ele><time>2026-05-02T15:20:09.123Z</time></trkpt><trkpt lat="42.2065477" lon="13.2535961"><ele>1008.0</ele><time>2026-05-02T15:20:10.121Z</time></trkpt><trkpt lat="42.2065921" lon="13.2534248"><ele>1008.0</ele><time>2026-05-02T15:20:11.129Z</time></trkpt><trkpt lat="42.2066605" lon="13.2532535"><ele>1008.0</ele><time>2026-05-02T15:20:12.131Z</time></trkpt><trkpt lat="42.2067395" lon="13.2531047"><ele>1008.0</ele><time>2026-05-02T15:20:13.123Z</time></trkpt><trkpt lat="42.2067826" lon="13.252969"><ele>1007.0</ele><time>2026-05-02T15:20:14.129Z</time></trkpt><trkpt lat="42.2068215" lon="13.2528482"><ele>1006.0</ele><time>2026-05-02T15:20:15.122Z</time></trkpt><trkpt lat="42.2068461" lon="13.2527434"><ele>1005.0</ele><time>2026-05-02T15:20:16.127Z</time></trkpt><trkpt lat="42.2068616" lon="13.2526199"><ele>1004.0</ele><time>2026-05-02T15:20:18.126Z</time></trkpt><trkpt lat="42.2069109" lon="13.2527121"><ele>1003.0</ele><time>2026-05-02T15:20:21.124Z</time></trkpt><trkpt lat="42.2068724" lon="13.2528872"><ele>1003.0</ele><time>2026-05-02T15:20:23.12Z</time></trkpt><trkpt lat="42.2068459" lon="13.2530096"><ele>1003.0</ele><time>2026-05-02T15:20:24.124Z</time></trkpt><trkpt lat="42.2068257" lon="13.2531559"><ele>1003.0</ele><time>2026-05-02T15:20:25.128Z</time></trkpt><trkpt lat="42.2068111" lon="13.2533129"><ele>1003.0</ele><time>2026-05-02T15:20:26.122Z</time></trkpt><trkpt lat="42.2068061" lon="13.2534523"><ele>1003.0</ele><time>2026-05-02T15:20:27.121Z</time></trkpt><trkpt lat="42.2068105" lon="13.2535836"><ele>1003.8333333333333</ele><time>2026-05-02T15:20:28.128Z</time></trkpt><trkpt lat="42.2068252" lon="13.2537095"><ele>1004.6666666666666</ele><time>2026-05-02T15:20:29.13Z</time></trkpt><trkpt lat="42.2068382" lon="13.2538193"><ele>1005.5</ele><time>2026-05-02T15:20:30.121Z</time></trkpt><trkpt lat="42.2068499" lon="13.2539179"><ele>1006.3333333333333</ele><time>2026-05-02T15:20:31.127Z</time></trkpt><trkpt lat="42.2069049" lon="13.2540663"><ele>1007.1666666666666</ele><time>2026-05-02T15:20:33.129Z</time></trkpt><trkpt lat="42.2069429" lon="13.2541407"><ele>1008.0</ele><time>2026-05-02T15:20:34.132Z</time></trkpt><trkpt lat="42.206982" lon="13.2542144"><ele>1007.5999999999999</ele><time>2026-05-02T15:20:35.121Z</time></trkpt><trkpt lat="42.207015" lon="13.2542957"><ele>1007.1999999999999</ele><time>2026-05-02T15:20:36.122Z</time></trkpt><trkpt lat="42.2070416" lon="13.2544033"><ele>1006.8</ele><time>2026-05-02T15:20:37.125Z</time></trkpt><trkpt lat="42.2070642" lon="13.2545216"><ele>1006.4</ele><time>2026-05-02T15:20:38.129Z</time></trkpt><trkpt lat="42.2070859" lon="13.2546589"><ele>1006.0</ele><time>2026-05-02T15:20:39.13Z</time></trkpt><trkpt lat="42.2071179" lon="13.2547925"><ele>1006.0</ele><time>2026-05-02T15:20:40.128Z</time></trkpt><trkpt lat="42.2071517" lon="13.2549229"><ele>1005.9999999999999</ele><time>2026-05-02T15:20:41.129Z</time></trkpt><trkpt lat="42.2071903" lon="13.2550524"><ele>1005.9999999999999</ele><time>2026-05-02T15:20:42.13Z</time></trkpt><trkpt lat="42.2072237" lon="13.2551878"><ele>1006.0</ele><time>2026-05-02T15:20:43.128Z</time></trkpt><trkpt lat="42.2072492" lon="13.25533"><ele>1006.0</ele><time>2026-05-02T15:20:44.13Z</time></trkpt><trkpt lat="42.2072748" lon="13.2554754"><ele>1004.75</ele><time>2026-05-02T15:20:45.129Z</time></trkpt><trkpt lat="42.2073035" lon="13.2556211"><ele>1003.5</ele><time>2026-05-02T15:20:46.135Z</time></trkpt><trkpt lat="42.2073421" lon="13.2557785"><ele>1002.25</ele><time>2026-05-02T15:20:47.138Z</time></trkpt><trkpt lat="42.2073815" lon="13.2559342"><ele>1001.0</ele><time>2026-05-02T15:20:48.133Z</time></trkpt><trkpt lat="42.207419" lon="13.2560707"><ele>1005.1999999999999</ele><time>2026-05-02T15:20:49.13Z</time></trkpt><trkpt lat="42.2074518" lon="13.2561933"><ele>1009.3999999999999</ele><time>2026-05-02T15:20:50.128Z</time></trkpt><trkpt lat="42.2074922" lon="13.2563173"><ele>1013.6</ele><time>2026-05-02T15:20:51.132Z</time></trkpt><trkpt lat="42.207541" lon="13.256425"><ele>1017.8</ele><time>2026-05-02T15:20:52.135Z</time></trkpt><trkpt lat="42.2076037" lon="13.2565203"><ele>1022.0</ele><time>2026-05-02T15:20:53.13Z</time></trkpt><trkpt lat="42.2076803" lon="13.2566056"><ele>1022.0</ele><time>2026-05-02T15:20:54.134Z</time></trkpt><trkpt lat="42.2077601" lon="13.2566892"><ele>1022.0</ele><time>2026-05-02T15:20:55.14Z</time></trkpt><trkpt lat="42.20784" lon="13.2567666"><ele>1022.0</ele><time>2026-05-02T15:20:56.134Z</time></trkpt><trkpt lat="42.2079189" lon="13.2568389"><ele>1022.0</ele><time>2026-05-02T15:20:57.131Z</time></trkpt><trkpt lat="42.2079878" lon="13.256919"><ele>1022.0</ele><time>2026-05-02T15:20:58.136Z</time></trkpt><trkpt lat="42.2080517" lon="13.2570065"><ele>1022.0</ele><time>2026-05-02T15:20:59.142Z</time></trkpt><trkpt lat="42.2081169" lon="13.2571051"><ele>1022.0</ele><time>2026-05-02T15:21:00.132Z</time></trkpt><trkpt lat="42.2081819" lon="13.2572116"><ele>1022.0</ele><time>2026-05-02T15:21:01.132Z</time></trkpt><trkpt lat="42.2082433" lon="13.2573339"><ele>1022.0</ele><time>2026-05-02T15:21:02.127Z</time></trkpt><trkpt lat="42.2082969" lon="13.257447"><ele>1022.0</ele><time>2026-05-02T15:21:03.124Z</time></trkpt><trkpt lat="42.2083376" lon="13.2575471"><ele>1025.4</ele><time>2026-05-02T15:21:04.129Z</time></trkpt><trkpt lat="42.2083673" lon="13.2576542"><ele>1028.8000000000002</ele><time>2026-05-02T15:21:05.12Z</time></trkpt><trkpt lat="42.2083918" lon="13.2577724"><ele>1032.2</ele><time>2026-05-02T15:21:06.119Z</time></trkpt><trkpt lat="42.2084092" lon="13.2579048"><ele>1035.6000000000001</ele><time>2026-05-02T15:21:07.125Z</time></trkpt><trkpt lat="42.2084176" lon="13.2580442"><ele>1039.0</ele><time>2026-05-02T15:21:08.128Z</time></trkpt><trkpt lat="42.2084195" lon="13.2581921"><ele>1039.0</ele><time>2026-05-02T15:21:09.125Z</time></trkpt><trkpt lat="42.208422" lon="13.2583383"><ele>1039.0</ele><time>2026-05-02T15:21:10.119Z</time></trkpt><trkpt lat="42.2084314" lon="13.2584797"><ele>1039.0</ele><time>2026-05-02T15:21:11.126Z</time></trkpt><trkpt lat="42.2084488" lon="13.258609"><ele>1039.0</ele><time>2026-05-02T15:21:12.124Z</time></trkpt><trkpt lat="42.2084723" lon="13.2587293"><ele>1039.0</ele><time>2026-05-02T15:21:13.132Z</time></trkpt><trkpt lat="42.2084962" lon="13.258843"><ele>1039.0</ele><time>2026-05-02T15:21:14.129Z</time></trkpt><trkpt lat="42.2085236" lon="13.2589429"><ele>1039.0</ele><time>2026-05-02T15:21:15.133Z</time></trkpt><trkpt lat="42.2085561" lon="13.259023"><ele>1039.0</ele><time>2026-05-02T15:21:16.124Z</time></trkpt><trkpt lat="42.2086462" lon="13.2591183"><ele>1039.0</ele><time>2026-05-02T15:21:18.137Z</time></trkpt><trkpt lat="42.2087645" lon="13.2591606"><ele>1039.0</ele><time>2026-05-02T15:21:20.128Z</time></trkpt><trkpt lat="42.2088309" lon="13.2591793"><ele>1037.8333333333333</ele><time>2026-05-02T15:21:21.128Z</time></trkpt><trkpt lat="42.2089028" lon="13.2591945"><ele>1036.6666666666665</ele><time>2026-05-02T15:21:22.131Z</time></trkpt><trkpt lat="42.2089804" lon="13.2592108"><ele>1035.5</ele><time>2026-05-02T15:21:23.126Z</time></trkpt><trkpt lat="42.2090637" lon="13.2592334"><ele>1034.3333333333333</ele><time>2026-05-02T15:21:24.13Z</time></trkpt><trkpt lat="42.2091559" lon="13.2592522"><ele>1033.1666666666667</ele><time>2026-05-02T15:21:25.128Z</time></trkpt><trkpt lat="42.2092502" lon="13.2592803"><ele>1032.0</ele><time>2026-05-02T15:21:26.13Z</time></trkpt><trkpt lat="42.2093471" lon="13.2593051"><ele>1037.6</ele><time>2026-05-02T15:21:27.124Z</time></trkpt><trkpt lat="42.2094474" lon="13.2593225"><ele>1043.2</ele><time>2026-05-02T15:21:28.125Z</time></trkpt><trkpt lat="42.2095446" lon="13.259347"><ele>1048.8</ele><time>2026-05-02T15:21:29.131Z</time></trkpt><trkpt lat="42.2096424" lon="13.2593733"><ele>1054.4</ele><time>2026-05-02T15:21:30.13Z</time></trkpt><trkpt lat="42.2097397" lon="13.2594025"><ele>1060.0</ele><time>2026-05-02T15:21:31.122Z</time></trkpt><trkpt lat="42.2098374" lon="13.2594348"><ele>1065.0</ele><time>2026-05-02T15:21:32.129Z</time></trkpt><trkpt lat="42.2099362" lon="13.2594782"><ele>1070.0</ele><time>2026-05-02T15:21:33.126Z</time></trkpt><trkpt lat="42.2100329" lon="13.2595413"><ele>1075.0</ele><time>2026-05-02T15:21:34.128Z</time></trkpt><trkpt lat="42.2101285" lon="13.2596042"><ele>1080.0</ele><time>2026-05-02T15:21:35.127Z</time></trkpt><trkpt lat="42.2102163" lon="13.2596719"><ele>1085.0</ele><time>2026-05-02T15:21:36.124Z</time></trkpt><trkpt lat="42.2103013" lon="13.2597474"><ele>1079.0</ele><time>2026-05-02T15:21:37.119Z</time></trkpt><trkpt lat="42.2103816" lon="13.259833"><ele>1073.0</ele><time>2026-05-02T15:21:38.124Z</time></trkpt><trkpt lat="42.210455" lon="13.2599158"><ele>1067.0</ele><time>2026-05-02T15:21:39.121Z</time></trkpt><trkpt lat="42.2105233" lon="13.2600053"><ele>1061.0</ele><time>2026-05-02T15:21:40.124Z</time></trkpt><trkpt lat="42.2105829" lon="13.2600907"><ele>1055.0</ele><time>2026-05-02T15:21:41.121Z</time></trkpt><trkpt lat="42.2106361" lon="13.2601898"><ele>1057.4</ele><time>2026-05-02T15:21:42.122Z</time></trkpt><trkpt lat="42.2106881" lon="13.2603009"><ele>1059.8</ele><time>2026-05-02T15:21:43.127Z</time></trkpt><trkpt lat="42.2107489" lon="13.2604215"><ele>1062.2</ele><time>2026-05-02T15:21:44.126Z</time></trkpt><trkpt lat="42.2108154" lon="13.2605338"><ele>1064.6</ele><time>2026-05-02T15:21:45.124Z</time></trkpt><trkpt lat="42.2108862" lon="13.2606275"><ele>1067.0</ele><time>2026-05-02T15:21:46.124Z</time></trkpt><trkpt lat="42.2109499" lon="13.2607047"><ele>1067.0</ele><time>2026-05-02T15:21:47.126Z</time></trkpt><trkpt lat="42.211013" lon="13.2607711"><ele>1067.0</ele><time>2026-05-02T15:21:48.129Z</time></trkpt><trkpt lat="42.2110771" lon="13.2608268"><ele>1067.0</ele><time>2026-05-02T15:21:49.129Z</time></trkpt><trkpt lat="42.2111434" lon="13.2608819"><ele>1067.0</ele><time>2026-05-02T15:21:50.126Z</time></trkpt><trkpt lat="42.2112214" lon="13.2609315"><ele>1067.0</ele><time>2026-05-02T15:21:51.129Z</time></trkpt><trkpt lat="42.2112938" lon="13.2609744"><ele>1067.0</ele><time>2026-05-02T15:21:52.126Z</time></trkpt><trkpt lat="42.2114071" lon="13.2610232"><ele>1072.6666666666667</ele><time>2026-05-02T15:21:54.13Z</time></trkpt><trkpt lat="42.2114908" lon="13.2610574"><ele>1078.3333333333335</ele><time>2026-05-02T15:21:56.127Z</time></trkpt><trkpt lat="42.2115667" lon="13.2610757"><ele>1084.0</ele><time>2026-05-02T15:21:59.128Z</time></trkpt><trkpt lat="42.2116349" lon="13.2611038"><ele>1089.6666666666667</ele><time>2026-05-02T15:22:14.125Z</time></trkpt><trkpt lat="42.2117443" lon="13.2611674"><ele>1095.3333333333333</ele><time>2026-05-02T15:22:16.121Z</time></trkpt><trkpt lat="42.2118067" lon="13.261209"><ele>1101.0</ele><time>2026-05-02T15:22:17.131Z</time></trkpt><trkpt lat="42.2118725" lon="13.2612576"><ele>1101.0</ele><time>2026-05-02T15:22:18.124Z</time></trkpt><trkpt lat="42.2119417" lon="13.2613067"><ele>1101.0</ele><time>2026-05-02T15:22:19.122Z</time></trkpt><trkpt lat="42.212019" lon="13.2613305"><ele>1101.0</ele><time>2026-05-02T15:22:20.124Z</time></trkpt><trkpt lat="42.212106" lon="13.2613319"><ele>1101.0</ele><time>2026-05-02T15:22:21.118Z</time></trkpt><trkpt lat="42.2121967" lon="13.2613366"><ele>1101.0</ele><time>2026-05-02T15:22:22.121Z</time></trkpt><trkpt lat="42.2122855" lon="13.2613222"><ele>1101.0</ele><time>2026-05-02T15:22:23.12Z</time></trkpt><trkpt lat="42.212378" lon="13.2613007"><ele>1100.6</ele><time>2026-05-02T15:22:24.123Z</time></trkpt><trkpt lat="42.2124629" lon="13.2612872"><ele>1100.1999999999998</ele><time>2026-05-02T15:22:25.123Z</time></trkpt><trkpt lat="42.2125343" lon="13.2612802"><ele>1099.8000000000002</ele><time>2026-05-02T15:22:26.13Z</time></trkpt><trkpt lat="42.2126412" lon="13.2613354"><ele>1099.4</ele><time>2026-05-02T15:22:28.126Z</time></trkpt><trkpt lat="42.2127029" lon="13.2614785"><ele>1099.0</ele><time>2026-05-02T15:22:30.124Z</time></trkpt><trkpt lat="42.2127333" lon="13.2615797"><ele>1099.0</ele><time>2026-05-02T15:22:31.125Z</time></trkpt><trkpt lat="42.2127736" lon="13.2616869"><ele>1099.0</ele><time>2026-05-02T15:22:32.119Z</time></trkpt><trkpt lat="42.21282" lon="13.2617923"><ele>1099.0</ele><time>2026-05-02T15:22:33.12Z</time></trkpt><trkpt lat="42.212876" lon="13.2618851"><ele>1099.0</ele><time>2026-05-02T15:22:34.115Z</time></trkpt><trkpt lat="42.2129439" lon="13.2619901"><ele>1099.0</ele><time>2026-05-02T15:22:35.117Z</time></trkpt><trkpt lat="42.2130188" lon="13.2620891"><ele>1099.0</ele><time>2026-05-02T15:22:36.119Z</time></trkpt><trkpt lat="42.213092" lon="13.2621762"><ele>1099.0</ele><time>2026-05-02T15:22:37.116Z</time></trkpt><trkpt lat="42.2131658" lon="13.2622659"><ele>1099.0</ele><time>2026-05-02T15:22:38.12Z</time></trkpt><trkpt lat="42.2132401" lon="13.2623615"><ele>1099.0</ele><time>2026-05-02T15:22:39.116Z</time></trkpt><trkpt lat="42.2133198" lon="13.2624595"><ele>1099.0</ele><time>2026-05-02T15:22:40.117Z</time></trkpt><trkpt lat="42.2133986" lon="13.2625457"><ele>1100.6000000000001</ele><time>2026-05-02T15:22:41.112Z</time></trkpt><trkpt lat="42.2134765" lon="13.2626304"><ele>1102.2</ele><time>2026-05-02T15:22:42.116Z</time></trkpt><trkpt lat="42.2135574" lon="13.2627135"><ele>1103.8000000000002</ele><time>2026-05-02T15:22:43.113Z</time></trkpt><trkpt lat="42.2136325" lon="13.262791"><ele>1105.4</ele><time>2026-05-02T15:22:44.129Z</time></trkpt><trkpt lat="42.2137095" lon="13.2628726"><ele>1107.0</ele><time>2026-05-02T15:22:45.124Z</time></trkpt><trkpt lat="42.2137866" lon="13.2629461"><ele>1107.0</ele><time>2026-05-02T15:22:46.12Z</time></trkpt><trkpt lat="42.2138562" lon="13.2630048"><ele>1107.0</ele><time>2026-05-02T15:22:47.13Z</time></trkpt><trkpt lat="42.2139286" lon="13.2630486"><ele>1107.0</ele><time>2026-05-02T15:22:48.126Z</time></trkpt><trkpt lat="42.2140019" lon="13.2630849"><ele>1107.0</ele><time>2026-05-02T15:22:49.123Z</time></trkpt><trkpt lat="42.2140829" lon="13.2631068"><ele>1107.0</ele><time>2026-05-02T15:22:50.123Z</time></trkpt><trkpt lat="42.2141687" lon="13.2631281"><ele>1107.0</ele><time>2026-05-02T15:22:51.129Z</time></trkpt><trkpt lat="42.2142485" lon="13.2631397"><ele>1106.0</ele><time>2026-05-02T15:22:52.122Z</time></trkpt><trkpt lat="42.2143258" lon="13.2631529"><ele>1105.0</ele><time>2026-05-02T15:22:53.128Z</time></trkpt><trkpt lat="42.2144148" lon="13.2631598"><ele>1104.0</ele><time>2026-05-02T15:22:54.121Z</time></trkpt><trkpt lat="42.2145015" lon="13.2631693"><ele>1103.0</ele><time>2026-05-02T15:22:55.124Z</time></trkpt><trkpt lat="42.2145842" lon="13.2631777"><ele>1102.0</ele><time>2026-05-02T15:22:56.118Z</time></trkpt><trkpt lat="42.2146638" lon="13.2631784"><ele>1101.0</ele><time>2026-05-02T15:22:57.122Z</time></trkpt><trkpt lat="42.2147432" lon="13.2631707"><ele>1100.3999999999999</ele><time>2026-05-02T15:22:58.118Z</time></trkpt><trkpt lat="42.2148323" lon="13.2631698"><ele>1099.8</ele><time>2026-05-02T15:22:59.121Z</time></trkpt><trkpt lat="42.2149239" lon="13.2631748"><ele>1099.1999999999998</ele><time>2026-05-02T15:23:00.126Z</time></trkpt><trkpt lat="42.2150131" lon="13.2631851"><ele>1098.6</ele><time>2026-05-02T15:23:01.116Z</time></trkpt><trkpt lat="42.2151082" lon="13.2632008"><ele>1098.0</ele><time>2026-05-02T15:23:02.115Z</time></trkpt><trkpt lat="42.2152024" lon="13.2632339"><ele>1098.0</ele><time>2026-05-02T15:23:03.118Z</time></trkpt><trkpt lat="42.2152832" lon="13.2632762"><ele>1098.0</ele><time>2026-05-02T15:23:04.113Z</time></trkpt><trkpt lat="42.2153579" lon="13.2633398"><ele>1098.0</ele><time>2026-05-02T15:23:05.117Z</time></trkpt><trkpt lat="42.2154223" lon="13.2634106"><ele>1098.0</ele><time>2026-05-02T15:23:06.117Z</time></trkpt><trkpt lat="42.2154777" lon="13.263488"><ele>1098.0</ele><time>2026-05-02T15:23:07.121Z</time></trkpt><trkpt lat="42.2155293" lon="13.2635598"><ele>1098.0</ele><time>2026-05-02T15:23:08.117Z</time></trkpt><trkpt lat="42.2155642" lon="13.2636399"><ele>1098.0</ele><time>2026-05-02T15:23:09.116Z</time></trkpt><trkpt lat="42.215598" lon="13.2637211"><ele>1098.0</ele><time>2026-05-02T15:23:10.112Z</time></trkpt><trkpt lat="42.215559" lon="13.2638433"><ele>1098.0</ele><time>2026-05-02T15:23:12.114Z</time></trkpt><trkpt lat="42.2155054" lon="13.2638954"><ele>1098.0</ele><time>2026-05-02T15:23:13.121Z</time></trkpt><trkpt lat="42.2154502" lon="13.2639417"><ele>1098.0</ele><time>2026-05-02T15:23:14.118Z</time></trkpt><trkpt lat="42.2153807" lon="13.2640158"><ele>1098.0</ele><time>2026-05-02T15:23:16.121Z</time></trkpt><trkpt lat="42.2154085" lon="13.2640935"><ele>1098.0</ele><time>2026-05-02T15:23:18.121Z</time></trkpt><trkpt lat="42.2155059" lon="13.2641537"><ele>1098.0</ele><time>2026-05-02T15:23:20.127Z</time></trkpt><trkpt lat="42.2155865" lon="13.2642049"><ele>1098.0</ele><time>2026-05-02T15:23:21.121Z</time></trkpt><trkpt lat="42.2156791" lon="13.2642455"><ele>1098.0</ele><time>2026-05-02T15:23:22.118Z</time></trkpt><trkpt lat="42.2157713" lon="13.2642726"><ele>1098.0</ele><time>2026-05-02T15:23:23.121Z</time></trkpt><trkpt lat="42.2158649" lon="13.2642825"><ele>1100.5</ele><time>2026-05-02T15:23:24.126Z</time></trkpt><trkpt lat="42.2159435" lon="13.2643015"><ele>1103.0</ele><time>2026-05-02T15:23:25.124Z</time></trkpt><trkpt lat="42.216014" lon="13.2643484"><ele>1105.5</ele><time>2026-05-02T15:23:26.121Z</time></trkpt><trkpt lat="42.2160717" lon="13.2644047"><ele>1108.0</ele><time>2026-05-02T15:23:27.123Z</time></trkpt><trkpt lat="42.2161288" lon="13.2644778"><ele>1110.5</ele><time>2026-05-02T15:23:28.117Z</time></trkpt><trkpt lat="42.2161802" lon="13.2645532"><ele>1113.0</ele><time>2026-05-02T15:23:29.123Z</time></trkpt><trkpt lat="42.2162082" lon="13.2646462"><ele>1113.0</ele><time>2026-05-02T15:23:30.117Z</time></trkpt><trkpt lat="42.2162251" lon="13.2647536"><ele>1113.0</ele><time>2026-05-02T15:23:31.121Z</time></trkpt><trkpt lat="42.2162252" lon="13.2648532"><ele>1113.0</ele><time>2026-05-02T15:23:32.122Z</time></trkpt><trkpt lat="42.2162141" lon="13.2649443"><ele>1113.0</ele><time>2026-05-02T15:23:33.12Z</time></trkpt><trkpt lat="42.2161899" lon="13.2650339"><ele>1113.0</ele><time>2026-05-02T15:23:34.118Z</time></trkpt><trkpt lat="42.2161763" lon="13.2651228"><ele>1113.0</ele><time>2026-05-02T15:23:35.117Z</time></trkpt><trkpt lat="42.2161905" lon="13.2652897"><ele>1114.1666666666667</ele><time>2026-05-02T15:23:37.115Z</time></trkpt><trkpt lat="42.2162587" lon="13.2654233"><ele>1115.3333333333333</ele><time>2026-05-02T15:23:39.12Z</time></trkpt><trkpt lat="42.2163144" lon="13.265478"><ele>1116.5</ele><time>2026-05-02T15:23:40.121Z</time></trkpt><trkpt lat="42.2163731" lon="13.2655388"><ele>1117.6666666666665</ele><time>2026-05-02T15:23:41.119Z</time></trkpt><trkpt lat="42.21643" lon="13.2656236"><ele>1118.8333333333333</ele><time>2026-05-02T15:23:42.119Z</time></trkpt><trkpt lat="42.2164779" lon="13.2657224"><ele>1120.0</ele><time>2026-05-02T15:23:43.123Z</time></trkpt><trkpt lat="42.2165306" lon="13.2658081"><ele>1120.0</ele><time>2026-05-02T15:23:44.118Z</time></trkpt><trkpt lat="42.2165924" lon="13.2658765"><ele>1120.0</ele><time>2026-05-02T15:23:45.113Z</time></trkpt><trkpt lat="42.2166637" lon="13.2659253"><ele>1120.0</ele><time>2026-05-02T15:23:46.12Z</time></trkpt><trkpt lat="42.2167532" lon="13.2659576"><ele>1120.0</ele><time>2026-05-02T15:23:47.12Z</time></trkpt><trkpt lat="42.2168503" lon="13.2660049"><ele>1120.0</ele><time>2026-05-02T15:23:48.116Z</time></trkpt><trkpt lat="42.2169548" lon="13.2660515"><ele>1120.0</ele><time>2026-05-02T15:23:49.119Z</time></trkpt><trkpt lat="42.217056" lon="13.2660815"><ele>1120.0</ele><time>2026-05-02T15:23:50.12Z</time></trkpt><trkpt lat="42.2171506" lon="13.2661"><ele>1120.0</ele><time>2026-05-02T15:23:51.118Z</time></trkpt><trkpt lat="42.2172371" lon="13.2661189"><ele>1120.0</ele><time>2026-05-02T15:23:52.116Z</time></trkpt><trkpt lat="42.2173187" lon="13.2661365"><ele>1120.0</ele><time>2026-05-02T15:23:53.12Z</time></trkpt><trkpt lat="42.2173818" lon="13.2661549"><ele>1120.0</ele><time>2026-05-02T15:23:54.115Z</time></trkpt><trkpt lat="42.2174872" lon="13.2661412"><ele>1118.3333333333333</ele><time>2026-05-02T15:23:56.116Z</time></trkpt><trkpt lat="42.2175574" lon="13.2661335"><ele>1116.6666666666665</ele><time>2026-05-02T15:23:57.121Z</time></trkpt><trkpt lat="42.2176621" lon="13.2661239"><ele>1115.0</ele><time>2026-05-02T15:23:59.124Z</time></trkpt><trkpt lat="42.2177652" lon="13.2661852"><ele>1113.3333333333333</ele><time>2026-05-02T15:24:01.114Z</time></trkpt><trkpt lat="42.217821" lon="13.2662311"><ele>1111.6666666666667</ele><time>2026-05-02T15:24:02.118Z</time></trkpt><trkpt lat="42.2178883" lon="13.2662711"><ele>1110.0</ele><time>2026-05-02T15:24:03.117Z</time></trkpt><trkpt lat="42.2179968" lon="13.2663071"><ele>1110.0</ele><time>2026-05-02T15:24:05.113Z</time></trkpt><trkpt lat="42.2180797" lon="13.2662447"><ele>1110.0</ele><time>2026-05-02T15:24:07.111Z</time></trkpt><trkpt lat="42.2181402" lon="13.266116"><ele>1110.0</ele><time>2026-05-02T15:24:09.112Z</time></trkpt><trkpt lat="42.2181698" lon="13.266038"><ele>1110.0</ele><time>2026-05-02T15:24:10.111Z</time></trkpt><trkpt lat="42.2182356" lon="13.2659147"><ele>1110.0</ele><time>2026-05-02T15:24:12.116Z</time></trkpt><trkpt lat="42.2183377" lon="13.2658508"><ele>1110.5</ele><time>2026-05-02T15:24:14.123Z</time></trkpt><trkpt lat="42.2184253" lon="13.2658449"><ele>1111.0</ele><time>2026-05-02T15:24:15.124Z</time></trkpt><trkpt lat="42.2185085" lon="13.2658366"><ele>1111.5</ele><time>2026-05-02T15:24:16.122Z</time></trkpt><trkpt lat="42.2185849" lon="13.2658183"><ele>1112.0</ele><time>2026-05-02T15:24:17.13Z</time></trkpt><trkpt lat="42.2186724" lon="13.2657979"><ele>1112.5</ele><time>2026-05-02T15:24:18.129Z</time></trkpt><trkpt lat="42.218755" lon="13.2657512"><ele>1113.0</ele><time>2026-05-02T15:24:19.131Z</time></trkpt><trkpt lat="42.218847" lon="13.2657041"><ele>1113.0</ele><time>2026-05-02T15:24:20.123Z</time></trkpt><trkpt lat="42.2189536" lon="13.2656654"><ele>1113.0</ele><time>2026-05-02T15:24:21.128Z</time></trkpt><trkpt lat="42.2190566" lon="13.2656407"><ele>1113.0</ele><time>2026-05-02T15:24:22.127Z</time></trkpt><trkpt lat="42.2191449" lon="13.2655927"><ele>1113.0</ele><time>2026-05-02T15:24:23.126Z</time></trkpt><trkpt lat="42.2192207" lon="13.2655416"><ele>1113.0</ele><time>2026-05-02T15:24:24.127Z</time></trkpt><trkpt lat="42.2192821" lon="13.2654807"><ele>1113.6</ele><time>2026-05-02T15:24:25.13Z</time></trkpt><trkpt lat="42.21934" lon="13.2654117"><ele>1114.1999999999998</ele><time>2026-05-02T15:24:26.124Z</time></trkpt><trkpt lat="42.2194066" lon="13.2653354"><ele>1114.8</ele><time>2026-05-02T15:24:27.123Z</time></trkpt><trkpt lat="42.2194823" lon="13.2652602"><ele>1115.3999999999999</ele><time>2026-05-02T15:24:28.122Z</time></trkpt><trkpt lat="42.219575" lon="13.2651852"><ele>1116.0</ele><time>2026-05-02T15:24:29.129Z</time></trkpt><trkpt lat="42.2196725" lon="13.2650976"><ele>1116.0</ele><time>2026-05-02T15:24:30.124Z</time></trkpt><trkpt lat="42.2197505" lon="13.2650061"><ele>1116.0</ele><time>2026-05-02T15:24:31.124Z</time></trkpt><trkpt lat="42.2198209" lon="13.2649024"><ele>1116.0</ele><time>2026-05-02T15:24:32.122Z</time></trkpt><trkpt lat="42.2198819" lon="13.2647957"><ele>1116.0</ele><time>2026-05-02T15:24:33.121Z</time></trkpt><trkpt lat="42.2199373" lon="13.2646902"><ele>1116.0</ele><time>2026-05-02T15:24:34.12Z</time></trkpt><trkpt lat="42.2199895" lon="13.2645941"><ele>1117.3999999999999</ele><time>2026-05-02T15:24:35.115Z</time></trkpt><trkpt lat="42.2200464" lon="13.2645218"><ele>1118.8</ele><time>2026-05-02T15:24:36.116Z</time></trkpt><trkpt lat="42.2201112" lon="13.2644709"><ele>1120.1999999999998</ele><time>2026-05-02T15:24:37.108Z</time></trkpt><trkpt lat="42.2202091" lon="13.2644308"><ele>1121.6</ele><time>2026-05-02T15:24:39.111Z</time></trkpt><trkpt lat="42.2202715" lon="13.2645228"><ele>1123.0</ele><time>2026-05-02T15:24:42.115Z</time></trkpt><trkpt lat="42.2203507" lon="13.2646259"><ele>1122.9999999999998</ele><time>2026-05-02T15:24:44.117Z</time></trkpt><trkpt lat="42.2204033" lon="13.2646788"><ele>1123.0</ele><time>2026-05-02T15:24:45.112Z</time></trkpt><trkpt lat="42.2204654" lon="13.264712"><ele>1123.0</ele><time>2026-05-02T15:24:46.109Z</time></trkpt><trkpt lat="42.2205343" lon="13.2647224"><ele>1123.0</ele><time>2026-05-02T15:24:47.115Z</time></trkpt><trkpt lat="42.2205972" lon="13.2647321"><ele>1123.0</ele><time>2026-05-02T15:24:48.114Z</time></trkpt><trkpt lat="42.2206824" lon="13.2647419"><ele>1122.9999999999998</ele><time>2026-05-02T15:24:49.107Z</time></trkpt><trkpt lat="42.2207756" lon="13.2647645"><ele>1123.0</ele><time>2026-05-02T15:24:50.109Z</time></trkpt><trkpt lat="42.2208623" lon="13.2647882"><ele>1124.2</ele><time>2026-05-02T15:24:51.105Z</time></trkpt><trkpt lat="42.2209397" lon="13.2648044"><ele>1125.4</ele><time>2026-05-02T15:24:52.106Z</time></trkpt><trkpt lat="42.2210219" lon="13.2648528"><ele>1126.6000000000001</ele><time>2026-05-02T15:24:53.108Z</time></trkpt><trkpt lat="42.2210962" lon="13.2649205"><ele>1127.8</ele><time>2026-05-02T15:24:54.107Z</time></trkpt><trkpt lat="42.2211806" lon="13.2650074"><ele>1129.0</ele><time>2026-05-02T15:24:55.112Z</time></trkpt><trkpt lat="42.2212608" lon="13.2650905"><ele>1129.0</ele><time>2026-05-02T15:24:56.107Z</time></trkpt><trkpt lat="42.2213306" lon="13.2651802"><ele>1129.0</ele><time>2026-05-02T15:24:57.106Z</time></trkpt><trkpt lat="42.2213881" lon="13.26525"><ele>1129.0</ele><time>2026-05-02T15:24:58.105Z</time></trkpt><trkpt lat="42.2214806" lon="13.2652852"><ele>1129.0</ele><time>2026-05-02T15:25:00.109Z</time></trkpt><trkpt lat="42.2215538" lon="13.2652045"><ele>1129.0</ele><time>2026-05-02T15:25:02.112Z</time></trkpt><trkpt lat="42.2216022" lon="13.2651354"><ele>1129.0</ele><time>2026-05-02T15:25:03.106Z</time></trkpt><trkpt lat="42.221665" lon="13.2650526"><ele>1128.0</ele><time>2026-05-02T15:25:04.108Z</time></trkpt><trkpt lat="42.2217442" lon="13.2649873"><ele>1127.0</ele><time>2026-05-02T15:25:05.108Z</time></trkpt><trkpt lat="42.2218252" lon="13.2649145"><ele>1126.0</ele><time>2026-05-02T15:25:06.112Z</time></trkpt><trkpt lat="42.221905" lon="13.2648286"><ele>1125.0</ele><time>2026-05-02T15:25:07.106Z</time></trkpt><trkpt lat="42.2219745" lon="13.2647394"><ele>1124.0</ele><time>2026-05-02T15:25:08.103Z</time></trkpt><trkpt lat="42.2220216" lon="13.264671"><ele>1124.5</ele><time>2026-05-02T15:25:09.102Z</time></trkpt><trkpt lat="42.2220788" lon="13.2646051"><ele>1125.0</ele><time>2026-05-02T15:25:11.115Z</time></trkpt><trkpt lat="42.2221412" lon="13.2645514"><ele>1125.5</ele><time>2026-05-02T15:25:25.119Z</time></trkpt><trkpt lat="42.2222193" lon="13.2645096"><ele>1126.0</ele><time>2026-05-02T15:25:27.116Z</time></trkpt><trkpt lat="42.2223205" lon="13.2644489"><ele>1126.5</ele><time>2026-05-02T15:25:29.112Z</time></trkpt><trkpt lat="42.2223727" lon="13.2643943"><ele>1127.0</ele><time>2026-05-02T15:25:30.111Z</time></trkpt><trkpt lat="42.2224279" lon="13.2643255"><ele>1127.0</ele><time>2026-05-02T15:25:31.114Z</time></trkpt><trkpt lat="42.2224851" lon="13.2642474"><ele>1127.0</ele><time>2026-05-02T15:25:32.113Z</time></trkpt><trkpt lat="42.2225391" lon="13.2641646"><ele>1127.0</ele><time>2026-05-02T15:25:33.122Z</time></trkpt><trkpt lat="42.2225946" lon="13.2641034"><ele>1127.0</ele><time>2026-05-02T15:25:34.115Z</time></trkpt><trkpt lat="42.2226646" lon="13.2640642"><ele>1127.0</ele><time>2026-05-02T15:25:36.119Z</time></trkpt><trkpt lat="42.2227502" lon="13.2640251"><ele>1127.0</ele><time>2026-05-02T15:25:38.114Z</time></trkpt><trkpt lat="42.2228203" lon="13.2639782"><ele>1127.0</ele><time>2026-05-02T15:25:39.115Z</time></trkpt><trkpt lat="42.2229011" lon="13.2639058"><ele>1127.0</ele><time>2026-05-02T15:25:40.119Z</time></trkpt><trkpt lat="42.2229808" lon="13.2638327"><ele>1127.0</ele><time>2026-05-02T15:25:41.116Z</time></trkpt><trkpt lat="42.223066" lon="13.2637709"><ele>1127.0</ele><time>2026-05-02T15:25:42.118Z</time></trkpt><trkpt lat="42.2231578" lon="13.2637222"><ele>1127.0</ele><time>2026-05-02T15:25:43.115Z</time></trkpt><trkpt lat="42.2232453" lon="13.2636639"><ele>1127.0</ele><time>2026-05-02T15:25:44.119Z</time></trkpt><trkpt lat="42.2233281" lon="13.2635922"><ele>1127.0</ele><time>2026-05-02T15:25:45.111Z</time></trkpt><trkpt lat="42.2234021" lon="13.2635325"><ele>1127.0</ele><time>2026-05-02T15:25:46.122Z</time></trkpt><trkpt lat="42.2234644" lon="13.2634681"><ele>1127.0</ele><time>2026-05-02T15:25:47.121Z</time></trkpt><trkpt lat="42.2235107" lon="13.2634028"><ele>1127.0</ele><time>2026-05-02T15:25:48.125Z</time></trkpt><trkpt lat="42.2235991" lon="13.2633336"><ele>1127.0</ele><time>2026-05-02T15:25:50.118Z</time></trkpt><trkpt lat="42.2236875" lon="13.2633449"><ele>1127.0</ele><time>2026-05-02T15:25:52.119Z</time></trkpt><trkpt lat="42.2238364" lon="13.2633957"><ele>1127.0</ele><time>2026-05-02T15:25:54.114Z</time></trkpt><trkpt lat="42.2239292" lon="13.2634268"><ele>1127.0</ele><time>2026-05-02T15:25:55.12Z</time></trkpt><trkpt lat="42.2240106" lon="13.2634464"><ele>1127.0</ele><time>2026-05-02T15:25:56.115Z</time></trkpt><trkpt lat="42.2241039" lon="13.2634538"><ele>1127.0</ele><time>2026-05-02T15:25:57.121Z</time></trkpt><trkpt lat="42.2241996" lon="13.2634531"><ele>1129.0</ele><time>2026-05-02T15:25:58.114Z</time></trkpt><trkpt lat="42.2243036" lon="13.2634448"><ele>1131.0</ele><time>2026-05-02T15:25:59.12Z</time></trkpt><trkpt lat="42.2244018" lon="13.2634295"><ele>1133.0</ele><time>2026-05-02T15:26:00.11Z</time></trkpt><trkpt lat="42.2245036" lon="13.26344"><ele>1135.0</ele><time>2026-05-02T15:26:01.117Z</time></trkpt><trkpt lat="42.2246049" lon="13.2634535"><ele>1137.0</ele><time>2026-05-02T15:26:02.115Z</time></trkpt><trkpt lat="42.224709" lon="13.263453"><ele>1137.0</ele><time>2026-05-02T15:26:03.118Z</time></trkpt><trkpt lat="42.2248096" lon="13.2634268"><ele>1137.0</ele><time>2026-05-02T15:26:04.115Z</time></trkpt><trkpt lat="42.2249139" lon="13.263398"><ele>1137.0</ele><time>2026-05-02T15:26:05.116Z</time></trkpt><trkpt lat="42.2250188" lon="13.2633652"><ele>1137.0</ele><time>2026-05-02T15:26:06.114Z</time></trkpt><trkpt lat="42.2251105" lon="13.2633276"><ele>1137.0</ele><time>2026-05-02T15:26:07.117Z</time></trkpt><trkpt lat="42.2251975" lon="13.2633032"><ele>1138.6</ele><time>2026-05-02T15:26:08.114Z</time></trkpt><trkpt lat="42.2252972" lon="13.2633058"><ele>1140.2</ele><time>2026-05-02T15:26:09.123Z</time></trkpt><trkpt lat="42.2253868" lon="13.2633171"><ele>1141.8</ele><time>2026-05-02T15:26:10.116Z</time></trkpt><trkpt lat="42.2254706" lon="13.263315"><ele>1143.4</ele><time>2026-05-02T15:26:11.116Z</time></trkpt><trkpt lat="42.2255646" lon="13.2633194"><ele>1145.0</ele><time>2026-05-02T15:26:12.115Z</time></trkpt><trkpt lat="42.2256554" lon="13.263282"><ele>1146.1666666666667</ele><time>2026-05-02T15:26:13.118Z</time></trkpt><trkpt lat="42.2257433" lon="13.2632368"><ele>1147.3333333333335</ele><time>2026-05-02T15:26:14.119Z</time></trkpt><trkpt lat="42.2258233" lon="13.2632056"><ele>1148.5</ele><time>2026-05-02T15:26:15.124Z</time></trkpt><trkpt lat="42.2259027" lon="13.263186"><ele>1149.6666666666667</ele><time>2026-05-02T15:26:16.127Z</time></trkpt><trkpt lat="42.2259807" lon="13.2631732"><ele>1150.8333333333333</ele><time>2026-05-02T15:26:17.129Z</time></trkpt><trkpt lat="42.2260637" lon="13.2631643"><ele>1152.0</ele><time>2026-05-02T15:26:18.122Z</time></trkpt><trkpt lat="42.2261489" lon="13.2631633"><ele>1152.0</ele><time>2026-05-02T15:26:19.128Z</time></trkpt><trkpt lat="42.2262377" lon="13.263169"><ele>1152.0</ele><time>2026-05-02T15:26:20.12Z</time></trkpt><trkpt lat="42.2263279" lon="13.2631851"><ele>1152.0</ele><time>2026-05-02T15:26:21.12Z</time></trkpt><trkpt lat="42.2264084" lon="13.2632138"><ele>1152.0</ele><time>2026-05-02T15:26:22.126Z</time></trkpt><trkpt lat="42.226472" lon="13.263239"><ele>1152.0</ele><time>2026-05-02T15:26:23.131Z</time></trkpt><trkpt lat="42.226536" lon="13.2632861"><ele>1152.0</ele><time>2026-05-02T15:26:24.122Z</time></trkpt><trkpt lat="42.2266064" lon="13.2633562"><ele>1152.0</ele><time>2026-05-02T15:26:25.124Z</time></trkpt><trkpt lat="42.2266677" lon="13.263443"><ele>1152.0</ele><time>2026-05-02T15:26:26.121Z</time></trkpt><trkpt lat="42.2267165" lon="13.2635525"><ele>1152.0</ele><time>2026-05-02T15:26:27.12Z</time></trkpt><trkpt lat="42.2267552" lon="13.2636777"><ele>1152.0</ele><time>2026-05-02T15:26:28.121Z</time></trkpt><trkpt lat="42.2267924" lon="13.2637917"><ele>1152.0</ele><time>2026-05-02T15:26:29.117Z</time></trkpt><trkpt lat="42.2268211" lon="13.2639147"><ele>1154.6</ele><time>2026-05-02T15:26:30.118Z</time></trkpt><trkpt lat="42.22684" lon="13.2640195"><ele>1157.2</ele><time>2026-05-02T15:26:31.111Z</time></trkpt><trkpt lat="42.226883" lon="13.2641572"><ele>1159.8</ele><time>2026-05-02T15:26:33.115Z</time></trkpt><trkpt lat="42.2269533" lon="13.2642804"><ele>1162.4</ele><time>2026-05-02T15:26:35.118Z</time></trkpt><trkpt lat="42.2270214" lon="13.2644173"><ele>1165.0</ele><time>2026-05-02T15:26:37.115Z</time></trkpt><trkpt lat="42.2270604" lon="13.2645031"><ele>1165.0</ele><time>2026-05-02T15:26:38.113Z</time></trkpt><trkpt lat="42.2271004" lon="13.2645771"><ele>1165.0</ele><time>2026-05-02T15:26:39.116Z</time></trkpt><trkpt lat="42.2271941" lon="13.2646721"><ele>1165.0</ele><time>2026-05-02T15:26:41.115Z</time></trkpt><trkpt lat="42.2273118" lon="13.2647058"><ele>1165.0</ele><time>2026-05-02T15:26:43.112Z</time></trkpt><trkpt lat="42.2273801" lon="13.2646964"><ele>1165.0</ele><time>2026-05-02T15:26:44.108Z</time></trkpt><trkpt lat="42.2274439" lon="13.2646724"><ele>1165.0</ele><time>2026-05-02T15:26:45.117Z</time></trkpt><trkpt lat="42.2275033" lon="13.2646399"><ele>1164.4</ele><time>2026-05-02T15:26:46.117Z</time></trkpt><trkpt lat="42.2276052" lon="13.2645887"><ele>1163.8</ele><time>2026-05-02T15:26:48.116Z</time></trkpt><trkpt lat="42.2276705" lon="13.2645614"><ele>1163.2</ele><time>2026-05-02T15:26:49.12Z</time></trkpt><trkpt lat="42.2277781" lon="13.2645293"><ele>1162.6</ele><time>2026-05-02T15:26:51.116Z</time></trkpt><trkpt lat="42.2278678" lon="13.2645042"><ele>1162.0</ele><time>2026-05-02T15:26:53.119Z</time></trkpt><trkpt lat="42.227975" lon="13.2644423"><ele>1162.0</ele><time>2026-05-02T15:26:55.121Z</time></trkpt><trkpt lat="42.2280424" lon="13.2644001"><ele>1162.0</ele><time>2026-05-02T15:26:56.117Z</time></trkpt><trkpt lat="42.2281276" lon="13.2643444"><ele>1162.0</ele><time>2026-05-02T15:26:57.113Z</time></trkpt><trkpt lat="42.2282097" lon="13.2642903"><ele>1162.0</ele><time>2026-05-02T15:26:58.111Z</time></trkpt><trkpt lat="42.2282937" lon="13.2642311"><ele>1162.0</ele><time>2026-05-02T15:26:59.126Z</time></trkpt><trkpt lat="42.2283677" lon="13.2641688"><ele>1162.0</ele><time>2026-05-02T15:27:00.116Z</time></trkpt><trkpt lat="42.2284337" lon="13.2640939"><ele>1162.2</ele><time>2026-05-02T15:27:01.116Z</time></trkpt><trkpt lat="42.228497" lon="13.2640067"><ele>1162.4</ele><time>2026-05-02T15:27:02.12Z</time></trkpt><trkpt lat="42.2285625" lon="13.2639065"><ele>1162.6</ele><time>2026-05-02T15:27:03.121Z</time></trkpt><trkpt lat="42.2286338" lon="13.2638116"><ele>1162.8</ele><time>2026-05-02T15:27:04.116Z</time></trkpt><trkpt lat="42.2287175" lon="13.2637164"><ele>1163.0</ele><time>2026-05-02T15:27:05.12Z</time></trkpt><trkpt lat="42.2288078" lon="13.2636208"><ele>1163.0</ele><time>2026-05-02T15:27:06.116Z</time></trkpt><trkpt lat="42.2288895" lon="13.2635324"><ele>1163.0</ele><time>2026-05-02T15:27:07.122Z</time></trkpt><trkpt lat="42.2289646" lon="13.2634522"><ele>1163.0</ele><time>2026-05-02T15:27:08.111Z</time></trkpt><trkpt lat="42.2290446" lon="13.263369"><ele>1163.0</ele><time>2026-05-02T15:27:09.123Z</time></trkpt><trkpt lat="42.2291323" lon="13.2632866"><ele>1163.0</ele><time>2026-05-02T15:27:10.123Z</time></trkpt><trkpt lat="42.2292218" lon="13.2632068"><ele>1166.4</ele><time>2026-05-02T15:27:11.121Z</time></trkpt><trkpt lat="42.2293051" lon="13.263126"><ele>1169.8</ele><time>2026-05-02T15:27:12.118Z</time></trkpt><trkpt lat="42.2293765" lon="13.263052"><ele>1173.2</ele><time>2026-05-02T15:27:13.121Z</time></trkpt><trkpt lat="42.2294358" lon="13.262989"><ele>1176.6</ele><time>2026-05-02T15:27:14.123Z</time></trkpt><trkpt lat="42.2295135" lon="13.262878"><ele>1180.0</ele><time>2026-05-02T15:27:16.126Z</time></trkpt><trkpt lat="42.2295282" lon="13.2627307"><ele>1180.0</ele><time>2026-05-02T15:27:18.118Z</time></trkpt><trkpt lat="42.2295062" lon="13.2626267"><ele>1180.0</ele><time>2026-05-02T15:27:19.121Z</time></trkpt><trkpt lat="42.2294704" lon="13.2625114"><ele>1180.0</ele><time>2026-05-02T15:27:20.123Z</time></trkpt><trkpt lat="42.2294356" lon="13.2624055"><ele>1180.0</ele><time>2026-05-02T15:27:21.12Z</time></trkpt><trkpt lat="42.2294153" lon="13.2623148"><ele>1180.0</ele><time>2026-05-02T15:27:22.115Z</time></trkpt><trkpt lat="42.2294106" lon="13.2621893"><ele>1180.0</ele><time>2026-05-02T15:27:24.118Z</time></trkpt><trkpt lat="42.2294617" lon="13.2620907"><ele>1179.6</ele><time>2026-05-02T15:27:26.118Z</time></trkpt><trkpt lat="42.2295171" lon="13.2620046"><ele>1179.2</ele><time>2026-05-02T15:27:27.121Z</time></trkpt><trkpt lat="42.2295742" lon="13.2619032"><ele>1178.8</ele><time>2026-05-02T15:27:28.121Z</time></trkpt><trkpt lat="42.2296394" lon="13.2617957"><ele>1178.4</ele><time>2026-05-02T15:27:29.12Z</time></trkpt><trkpt lat="42.2296937" lon="13.2616799"><ele>1178.0</ele><time>2026-05-02T15:27:30.119Z</time></trkpt><trkpt lat="42.2297268" lon="13.2615795"><ele>1177.2</ele><time>2026-05-02T15:27:31.118Z</time></trkpt><trkpt lat="42.229754" lon="13.2614418"><ele>1176.4</ele><time>2026-05-02T15:27:33.113Z</time></trkpt><trkpt lat="42.2297403" lon="13.2613158"><ele>1175.6000000000001</ele><time>2026-05-02T15:27:35.112Z</time></trkpt><trkpt lat="42.2296696" lon="13.2611537"><ele>1174.8</ele><time>2026-05-02T15:27:37.114Z</time></trkpt><trkpt lat="42.2296471" lon="13.2610461"><ele>1174.0</ele><time>2026-05-02T15:27:38.111Z</time></trkpt><trkpt lat="42.2296548" lon="13.2609273"><ele>1174.0</ele><time>2026-05-02T15:27:39.117Z</time></trkpt><trkpt lat="42.2296768" lon="13.2608229"><ele>1174.0</ele><time>2026-05-02T15:27:40.114Z</time></trkpt><trkpt lat="42.2296916" lon="13.2607344"><ele>1174.0</ele><time>2026-05-02T15:27:41.116Z</time></trkpt><trkpt lat="42.2297673" lon="13.2606348"><ele>1174.0</ele><time>2026-05-02T15:27:43.113Z</time></trkpt><trkpt lat="42.2298647" lon="13.2606451"><ele>1174.0</ele><time>2026-05-02T15:27:44.111Z</time></trkpt><trkpt lat="42.2299332" lon="13.2606547"><ele>1174.0</ele><time>2026-05-02T15:27:45.114Z</time></trkpt><trkpt lat="42.2300032" lon="13.2606701"><ele>1177.2857142857142</ele><time>2026-05-02T15:27:46.113Z</time></trkpt><trkpt lat="42.2300695" lon="13.2607039"><ele>1180.5714285714287</ele><time>2026-05-02T15:27:47.125Z</time></trkpt><trkpt lat="42.2301253" lon="13.2607491"><ele>1183.857142857143</ele><time>2026-05-02T15:27:48.123Z</time></trkpt><trkpt lat="42.2301947" lon="13.2608068"><ele>1187.142857142857</ele><time>2026-05-02T15:27:49.119Z</time></trkpt><trkpt lat="42.2302486" lon="13.2608532"><ele>1190.4285714285716</ele><time>2026-05-02T15:27:50.118Z</time></trkpt><trkpt lat="42.2303139" lon="13.2608744"><ele>1193.7142857142858</ele><time>2026-05-02T15:27:51.121Z</time></trkpt><trkpt lat="42.2303984" lon="13.2608842"><ele>1197.0</ele><time>2026-05-02T15:27:52.123Z</time></trkpt><trkpt lat="42.2304758" lon="13.2608448"><ele>1197.0</ele><time>2026-05-02T15:27:53.118Z</time></trkpt><trkpt lat="42.2305634" lon="13.2607655"><ele>1197.0</ele><time>2026-05-02T15:27:54.118Z</time></trkpt><trkpt lat="42.2306499" lon="13.2606623"><ele>1197.0</ele><time>2026-05-02T15:27:55.117Z</time></trkpt><trkpt lat="42.2307273" lon="13.2605508"><ele>1197.0</ele><time>2026-05-02T15:27:56.112Z</time></trkpt><trkpt lat="42.2307937" lon="13.2604553"><ele>1197.0</ele><time>2026-05-02T15:27:57.117Z</time></trkpt><trkpt lat="42.2308559" lon="13.2603714"><ele>1195.6</ele><time>2026-05-02T15:27:58.119Z</time></trkpt><trkpt lat="42.2309232" lon="13.2603305"><ele>1194.2</ele><time>2026-05-02T15:27:59.118Z</time></trkpt><trkpt lat="42.2310072" lon="13.2603136"><ele>1192.8</ele><time>2026-05-02T15:28:00.111Z</time></trkpt><trkpt lat="42.2311137" lon="13.2602966"><ele>1191.4</ele><time>2026-05-02T15:28:01.125Z</time></trkpt><trkpt lat="42.231229" lon="13.2602948"><ele>1190.0</ele><time>2026-05-02T15:28:02.119Z</time></trkpt><trkpt lat="42.2313287" lon="13.2602971"><ele>1190.0</ele><time>2026-05-02T15:28:03.121Z</time></trkpt><trkpt lat="42.2314171" lon="13.2603071"><ele>1190.0</ele><time>2026-05-02T15:28:04.123Z</time></trkpt><trkpt lat="42.2314932" lon="13.2603261"><ele>1190.0</ele><time>2026-05-02T15:28:05.116Z</time></trkpt><trkpt lat="42.2315986" lon="13.2603906"><ele>1190.0</ele><time>2026-05-02T15:28:06.118Z</time></trkpt><trkpt lat="42.231678" lon="13.2604636"><ele>1190.0</ele><time>2026-05-02T15:28:07.121Z</time></trkpt><trkpt lat="42.2317706" lon="13.2605592"><ele>1194.0</ele><time>2026-05-02T15:28:08.116Z</time></trkpt><trkpt lat="42.2318743" lon="13.2606459"><ele>1198.0</ele><time>2026-05-02T15:28:09.114Z</time></trkpt><trkpt lat="42.2319812" lon="13.2607301"><ele>1202.0</ele><time>2026-05-02T15:28:10.109Z</time></trkpt><trkpt lat="42.2320756" lon="13.2607889"><ele>1206.0</ele><time>2026-05-02T15:28:11.108Z</time></trkpt><trkpt lat="42.2321589" lon="13.2608242"><ele>1210.0</ele><time>2026-05-02T15:28:12.107Z</time></trkpt><trkpt lat="42.2322499" lon="13.2608674"><ele>1208.25</ele><time>2026-05-02T15:28:13.111Z</time></trkpt><trkpt lat="42.2323647" lon="13.2609379"><ele>1206.5</ele><time>2026-05-02T15:28:14.113Z</time></trkpt><trkpt lat="42.2324653" lon="13.2610154"><ele>1204.75</ele><time>2026-05-02T15:28:15.11Z</time></trkpt><trkpt lat="42.2325704" lon="13.2611081"><ele>1203.0</ele><time>2026-05-02T15:28:16.11Z</time></trkpt><trkpt lat="42.2326798" lon="13.2611941"><ele>1203.0</ele><time>2026-05-02T15:28:17.121Z</time></trkpt><trkpt lat="42.2327892" lon="13.2612814"><ele>1203.0</ele><time>2026-05-02T15:28:18.109Z</time></trkpt><trkpt lat="42.2328886" lon="13.2613496"><ele>1203.0</ele><time>2026-05-02T15:28:19.111Z</time></trkpt><trkpt lat="42.2329738" lon="13.261409"><ele>1203.0</ele><time>2026-05-02T15:28:20.108Z</time></trkpt><trkpt lat="42.2330425" lon="13.261472"><ele>1203.0</ele><time>2026-05-02T15:28:21.107Z</time></trkpt><trkpt lat="42.233115" lon="13.26154"><ele>1203.5</ele><time>2026-05-02T15:28:22.109Z</time></trkpt><trkpt lat="42.2331786" lon="13.2616134"><ele>1204.0</ele><time>2026-05-02T15:28:23.113Z</time></trkpt><trkpt lat="42.2332332" lon="13.2616817"><ele>1204.5</ele><time>2026-05-02T15:28:24.113Z</time></trkpt><trkpt lat="42.2332854" lon="13.2617581"><ele>1205.0</ele><time>2026-05-02T15:28:25.112Z</time></trkpt><trkpt lat="42.2333222" lon="13.2618418"><ele>1205.5</ele><time>2026-05-02T15:28:26.115Z</time></trkpt><trkpt lat="42.233374" lon="13.2619397"><ele>1206.0</ele><time>2026-05-02T15:28:27.111Z</time></trkpt><trkpt lat="42.233473" lon="13.2620331"><ele>1206.0</ele><time>2026-05-02T15:28:29.111Z</time></trkpt><trkpt lat="42.233539" lon="13.2620648"><ele>1206.0</ele><time>2026-05-02T15:28:30.104Z</time></trkpt><trkpt lat="42.2336266" lon="13.2620966"><ele>1206.0</ele><time>2026-05-02T15:28:31.11Z</time></trkpt><trkpt lat="42.2337013" lon="13.2621063"><ele>1206.0</ele><time>2026-05-02T15:28:32.104Z</time></trkpt><trkpt lat="42.2337861" lon="13.2621644"><ele>1206.0</ele><time>2026-05-02T15:28:33.11Z</time></trkpt><trkpt lat="42.2338765" lon="13.26222"><ele>1206.0</ele><time>2026-05-02T15:28:34.109Z</time></trkpt><trkpt lat="42.2339408" lon="13.2622598"><ele>1205.1666666666667</ele><time>2026-05-02T15:28:35.11Z</time></trkpt><trkpt lat="42.2340567" lon="13.2622877"><ele>1204.3333333333333</ele><time>2026-05-02T15:28:37.113Z</time></trkpt><trkpt lat="42.2341202" lon="13.2622423"><ele>1203.5</ele><time>2026-05-02T15:28:38.117Z</time></trkpt><trkpt lat="42.2341757" lon="13.2621871"><ele>1202.6666666666665</ele><time>2026-05-02T15:28:39.112Z</time></trkpt><trkpt lat="42.23425" lon="13.2621301"><ele>1201.8333333333333</ele><time>2026-05-02T15:28:40.108Z</time></trkpt><trkpt lat="42.2343332" lon="13.262078"><ele>1201.0</ele><time>2026-05-02T15:28:41.112Z</time></trkpt><trkpt lat="42.2344165" lon="13.2620178"><ele>1201.0</ele><time>2026-05-02T15:28:42.109Z</time></trkpt><trkpt lat="42.2345178" lon="13.2619337"><ele>1201.0</ele><time>2026-05-02T15:28:43.11Z</time></trkpt><trkpt lat="42.2346261" lon="13.261856"><ele>1201.0</ele><time>2026-05-02T15:28:44.114Z</time></trkpt><trkpt lat="42.2347275" lon="13.2617843"><ele>1201.0</ele><time>2026-05-02T15:28:45.12Z</time></trkpt><trkpt lat="42.2348293" lon="13.2617204"><ele>1203.8</ele><time>2026-05-02T15:28:46.118Z</time></trkpt><trkpt lat="42.2349243" lon="13.2616674"><ele>1206.6</ele><time>2026-05-02T15:28:47.121Z</time></trkpt><trkpt lat="42.2350199" lon="13.2616168"><ele>1209.4</ele><time>2026-05-02T15:28:48.118Z</time></trkpt><trkpt lat="42.2351182" lon="13.2615691"><ele>1212.2</ele><time>2026-05-02T15:28:49.113Z</time></trkpt><trkpt lat="42.235217" lon="13.2615325"><ele>1215.0</ele><time>2026-05-02T15:28:50.119Z</time></trkpt><trkpt lat="42.235294" lon="13.2615202"><ele>1215.0</ele><time>2026-05-02T15:28:51.113Z</time></trkpt><trkpt lat="42.2353626" lon="13.2615008"><ele>1215.0</ele><time>2026-05-02T15:28:52.113Z</time></trkpt><trkpt lat="42.2354275" lon="13.2614786"><ele>1215.0</ele><time>2026-05-02T15:28:53.119Z</time></trkpt><trkpt lat="42.2354923" lon="13.2614282"><ele>1215.0</ele><time>2026-05-02T15:28:54.116Z</time></trkpt><trkpt lat="42.2355557" lon="13.2613517"><ele>1215.0</ele><time>2026-05-02T15:28:55.119Z</time></trkpt><trkpt lat="42.2356215" lon="13.2612698"><ele>1215.0</ele><time>2026-05-02T15:28:56.116Z</time></trkpt><trkpt lat="42.2356932" lon="13.261182"><ele>1216.6</ele><time>2026-05-02T15:28:57.112Z</time></trkpt><trkpt lat="42.2357728" lon="13.2610916"><ele>1218.2</ele><time>2026-05-02T15:28:58.112Z</time></trkpt><trkpt lat="42.2358568" lon="13.2610142"><ele>1219.8</ele><time>2026-05-02T15:28:59.118Z</time></trkpt><trkpt lat="42.235943" lon="13.2609638"><ele>1221.4</ele><time>2026-05-02T15:29:00.113Z</time></trkpt><trkpt lat="42.2360308" lon="13.2609327"><ele>1223.0</ele><time>2026-05-02T15:29:01.12Z</time></trkpt><trkpt lat="42.236124" lon="13.2609254"><ele>1223.0</ele><time>2026-05-02T15:29:02.12Z</time></trkpt><trkpt lat="42.2362175" lon="13.2609021"><ele>1223.0</ele><time>2026-05-02T15:29:03.119Z</time></trkpt><trkpt lat="42.2363007" lon="13.2608844"><ele>1223.0</ele><time>2026-05-02T15:29:04.116Z</time></trkpt><trkpt lat="42.2363732" lon="13.2608739"><ele>1223.0</ele><time>2026-05-02T15:29:05.126Z</time></trkpt><trkpt lat="42.2364398" lon="13.2608658"><ele>1223.0</ele><time>2026-05-02T15:29:06.122Z</time></trkpt><trkpt lat="42.2365195" lon="13.2608574"><ele>1223.0</ele><time>2026-05-02T15:29:07.12Z</time></trkpt><trkpt lat="42.2365967" lon="13.2608271"><ele>1223.6666666666667</ele><time>2026-05-02T15:29:08.12Z</time></trkpt><trkpt lat="42.2366713" lon="13.2607798"><ele>1224.3333333333335</ele><time>2026-05-02T15:29:09.127Z</time></trkpt><trkpt lat="42.2367461" lon="13.260714"><ele>1225.0</ele><time>2026-05-02T15:29:10.117Z</time></trkpt><trkpt lat="42.2368165" lon="13.2606576"><ele>1225.6666666666667</ele><time>2026-05-02T15:29:11.115Z</time></trkpt><trkpt lat="42.2368881" lon="13.260607"><ele>1226.3333333333333</ele><time>2026-05-02T15:29:12.115Z</time></trkpt><trkpt lat="42.2369484" lon="13.26057"><ele>1227.0</ele><time>2026-05-02T15:29:13.117Z</time></trkpt><trkpt lat="42.2370682" lon="13.260561"><ele>1227.0</ele><time>2026-05-02T15:29:15.117Z</time></trkpt><trkpt lat="42.2371968" lon="13.2606117"><ele>1227.0</ele><time>2026-05-02T15:29:17.116Z</time></trkpt><trkpt lat="42.2372704" lon="13.2606485"><ele>1227.0</ele><time>2026-05-02T15:29:18.12Z</time></trkpt><trkpt lat="42.237342" lon="13.2606775"><ele>1227.0</ele><time>2026-05-02T15:29:19.114Z</time></trkpt><trkpt lat="42.2374171" lon="13.2606903"><ele>1227.0</ele><time>2026-05-02T15:29:20.115Z</time></trkpt><trkpt lat="42.2375021" lon="13.2606825"><ele>1227.0</ele><time>2026-05-02T15:29:21.116Z</time></trkpt><trkpt lat="42.2375966" lon="13.2606721"><ele>1226.8333333333333</ele><time>2026-05-02T15:29:22.111Z</time></trkpt><trkpt lat="42.2376849" lon="13.260666"><ele>1226.6666666666667</ele><time>2026-05-02T15:29:23.117Z</time></trkpt><trkpt lat="42.2377704" lon="13.2606586"><ele>1226.5</ele><time>2026-05-02T15:29:24.113Z</time></trkpt><trkpt lat="42.2378505" lon="13.2606385"><ele>1226.3333333333335</ele><time>2026-05-02T15:29:25.114Z</time></trkpt><trkpt lat="42.2379328" lon="13.2605988"><ele>1226.1666666666667</ele><time>2026-05-02T15:29:26.108Z</time></trkpt><trkpt lat="42.2380198" lon="13.2605492"><ele>1226.0</ele><time>2026-05-02T15:29:27.114Z</time></trkpt><trkpt lat="42.2380969" lon="13.2605112"><ele>1225.1666666666667</ele><time>2026-05-02T15:29:28.111Z</time></trkpt><trkpt lat="42.2381811" lon="13.2604934"><ele>1224.3333333333335</ele><time>2026-05-02T15:29:29.118Z</time></trkpt><trkpt lat="42.2382664" lon="13.2604837"><ele>1223.5</ele><time>2026-05-02T15:29:30.116Z</time></trkpt><trkpt lat="42.2383472" lon="13.2604738"><ele>1222.6666666666667</ele><time>2026-05-02T15:29:31.116Z</time></trkpt><trkpt lat="42.2384238" lon="13.2604565"><ele>1221.8333333333333</ele><time>2026-05-02T15:29:32.112Z</time></trkpt><trkpt lat="42.2384997" lon="13.2604244"><ele>1221.0</ele><time>2026-05-02T15:29:33.121Z</time></trkpt><trkpt lat="42.2385747" lon="13.2603775"><ele>1221.0</ele><time>2026-05-02T15:29:34.11Z</time></trkpt><trkpt lat="42.2386366" lon="13.2603136"><ele>1221.0</ele><time>2026-05-02T15:29:35.116Z</time></trkpt><trkpt lat="42.2386896" lon="13.2602405"><ele>1221.0</ele><time>2026-05-02T15:29:36.115Z</time></trkpt><trkpt lat="42.238752" lon="13.26017"><ele>1221.0</ele><time>2026-05-02T15:29:37.114Z</time></trkpt><trkpt lat="42.2388176" lon="13.2601163"><ele>1221.0</ele><time>2026-05-02T15:29:38.112Z</time></trkpt><trkpt lat="42.2388829" lon="13.2601061"><ele>1221.0</ele><time>2026-05-02T15:29:39.111Z</time></trkpt><trkpt lat="42.2389873" lon="13.2601549"><ele>1220.1666666666667</ele><time>2026-05-02T15:29:41.111Z</time></trkpt><trkpt lat="42.2390433" lon="13.2602029"><ele>1219.3333333333333</ele><time>2026-05-02T15:29:42.113Z</time></trkpt><trkpt lat="42.2391111" lon="13.2602688"><ele>1218.5</ele><time>2026-05-02T15:29:43.113Z</time></trkpt><trkpt lat="42.2391793" lon="13.2603465"><ele>1217.6666666666665</ele><time>2026-05-02T15:29:44.116Z</time></trkpt><trkpt lat="42.2392503" lon="13.2604118"><ele>1216.8333333333333</ele><time>2026-05-02T15:29:45.114Z</time></trkpt><trkpt lat="42.23931" lon="13.2604658"><ele>1216.0</ele><time>2026-05-02T15:29:46.112Z</time></trkpt><trkpt lat="42.2393755" lon="13.2605154"><ele>1216.0</ele><time>2026-05-02T15:29:47.12Z</time></trkpt><trkpt lat="42.2394491" lon="13.2605794"><ele>1216.0</ele><time>2026-05-02T15:29:48.111Z</time></trkpt><trkpt lat="42.2395319" lon="13.2606551"><ele>1216.0</ele><time>2026-05-02T15:29:49.109Z</time></trkpt><trkpt lat="42.2396243" lon="13.2607234"><ele>1216.0</ele><time>2026-05-02T15:29:50.112Z</time></trkpt><trkpt lat="42.2397132" lon="13.2607804"><ele>1216.0</ele><time>2026-05-02T15:29:51.113Z</time></trkpt><trkpt lat="42.2397922" lon="13.2608214"><ele>1218.1666666666665</ele><time>2026-05-02T15:29:52.112Z</time></trkpt><trkpt lat="42.2398677" lon="13.2608361"><ele>1220.3333333333333</ele><time>2026-05-02T15:29:53.114Z</time></trkpt><trkpt lat="42.2399337" lon="13.2608246"><ele>1222.5</ele><time>2026-05-02T15:29:54.114Z</time></trkpt><trkpt lat="42.2400156" lon="13.2608145"><ele>1224.6666666666667</ele><time>2026-05-02T15:29:55.118Z</time></trkpt><trkpt lat="42.2401083" lon="13.2607937"><ele>1226.8333333333335</ele><time>2026-05-02T15:29:56.114Z</time></trkpt><trkpt lat="42.2402023" lon="13.2607624"><ele>1229.0</ele><time>2026-05-02T15:29:57.108Z</time></trkpt><trkpt lat="42.2403013" lon="13.2607128"><ele>1229.0</ele><time>2026-05-02T15:29:58.107Z</time></trkpt><trkpt lat="42.2404078" lon="13.2606683"><ele>1229.0</ele><time>2026-05-02T15:29:59.116Z</time></trkpt><trkpt lat="42.2405166" lon="13.2606219"><ele>1229.0</ele><time>2026-05-02T15:30:00.112Z</time></trkpt><trkpt lat="42.240613" lon="13.2605786"><ele>1229.0</ele><time>2026-05-02T15:30:01.118Z</time></trkpt><trkpt lat="42.2406972" lon="13.2605393"><ele>1229.0</ele><time>2026-05-02T15:30:02.11Z</time></trkpt><trkpt lat="42.2407804" lon="13.2605202"><ele>1227.0</ele><time>2026-05-02T15:30:03.108Z</time></trkpt><trkpt lat="42.2408544" lon="13.2604951"><ele>1225.0</ele><time>2026-05-02T15:30:04.113Z</time></trkpt><trkpt lat="42.2409636" lon="13.2604478"><ele>1223.0</ele><time>2026-05-02T15:30:06.114Z</time></trkpt><trkpt lat="42.2410796" lon="13.2603801"><ele>1221.0</ele><time>2026-05-02T15:30:08.111Z</time></trkpt><trkpt lat="42.2411604" lon="13.2603517"><ele>1219.0</ele><time>2026-05-02T15:30:09.111Z</time></trkpt><trkpt lat="42.2412307" lon="13.2603026"><ele>1219.0</ele><time>2026-05-02T15:30:10.111Z</time></trkpt><trkpt lat="42.2412999" lon="13.2602427"><ele>1219.0</ele><time>2026-05-02T15:30:11.113Z</time></trkpt><trkpt lat="42.2413563" lon="13.2601778"><ele>1219.0</ele><time>2026-05-02T15:30:12.112Z</time></trkpt><trkpt lat="42.2414008" lon="13.2601037"><ele>1219.0</ele><time>2026-05-02T15:30:13.111Z</time></trkpt><trkpt lat="42.2414473" lon="13.2600401"><ele>1219.0</ele><time>2026-05-02T15:30:14.112Z</time></trkpt><trkpt lat="42.2415427" lon="13.2599798"><ele>1219.0</ele><time>2026-05-02T15:30:16.112Z</time></trkpt><trkpt lat="42.2416463" lon="13.25995"><ele>1221.3333333333333</ele><time>2026-05-02T15:30:18.117Z</time></trkpt><trkpt lat="42.2417128" lon="13.2599459"><ele>1223.6666666666665</ele><time>2026-05-02T15:30:19.116Z</time></trkpt><trkpt lat="42.2417988" lon="13.2599632"><ele>1226.0</ele><time>2026-05-02T15:30:20.117Z</time></trkpt><trkpt lat="42.2418834" lon="13.2599824"><ele>1228.3333333333333</ele><time>2026-05-02T15:30:21.118Z</time></trkpt><trkpt lat="42.2419696" lon="13.259971"><ele>1230.6666666666667</ele><time>2026-05-02T15:30:22.119Z</time></trkpt><trkpt lat="42.2420451" lon="13.2599333"><ele>1233.0</ele><time>2026-05-02T15:30:23.116Z</time></trkpt><trkpt lat="42.2421059" lon="13.2598912"><ele>1233.0</ele><time>2026-05-02T15:30:24.12Z</time></trkpt><trkpt lat="42.2421661" lon="13.2598565"><ele>1233.0</ele><time>2026-05-02T15:30:25.117Z</time></trkpt><trkpt lat="42.2422246" lon="13.2598181"><ele>1233.0</ele><time>2026-05-02T15:30:26.111Z</time></trkpt><trkpt lat="42.2422983" lon="13.2597871"><ele>1233.0</ele><time>2026-05-02T15:30:27.112Z</time></trkpt><trkpt lat="42.2423853" lon="13.2597619"><ele>1233.0</ele><time>2026-05-02T15:30:28.119Z</time></trkpt><trkpt lat="42.2424675" lon="13.2597394"><ele>1233.0</ele><time>2026-05-02T15:30:29.113Z</time></trkpt><trkpt lat="42.2425501" lon="13.2597157"><ele>1232.0</ele><time>2026-05-02T15:30:30.117Z</time></trkpt><trkpt lat="42.2426164" lon="13.2596857"><ele>1231.0</ele><time>2026-05-02T15:30:31.115Z</time></trkpt><trkpt lat="42.242681" lon="13.2596516"><ele>1230.0</ele><time>2026-05-02T15:30:32.115Z</time></trkpt><trkpt lat="42.2428102" lon="13.259618"><ele>1229.0</ele><time>2026-05-02T15:30:34.115Z</time></trkpt><trkpt lat="42.2428951" lon="13.2596085"><ele>1228.0</ele><time>2026-05-02T15:30:35.121Z</time></trkpt><trkpt lat="42.2429779" lon="13.2595812"><ele>1227.0</ele><time>2026-05-02T15:30:36.113Z</time></trkpt><trkpt lat="42.2430578" lon="13.2595599"><ele>1227.0</ele><time>2026-05-02T15:30:37.122Z</time></trkpt><trkpt lat="42.2431278" lon="13.2595347"><ele>1227.0</ele><time>2026-05-02T15:30:38.117Z</time></trkpt><trkpt lat="42.243188" lon="13.2594967"><ele>1227.0</ele><time>2026-05-02T15:30:39.117Z</time></trkpt><trkpt lat="42.2432502" lon="13.2594315"><ele>1227.0</ele><time>2026-05-02T15:30:40.116Z</time></trkpt><trkpt lat="42.2433168" lon="13.2593685"><ele>1227.0</ele><time>2026-05-02T15:30:41.119Z</time></trkpt><trkpt lat="42.2433821" lon="13.2593162"><ele>1227.0</ele><time>2026-05-02T15:30:42.119Z</time></trkpt><trkpt lat="42.2434336" lon="13.259263"><ele>1227.0</ele><time>2026-05-02T15:30:43.124Z</time></trkpt><trkpt lat="42.2435334" lon="13.2591701"><ele>1228.5</ele><time>2026-05-02T15:30:45.119Z</time></trkpt><trkpt lat="42.243594" lon="13.2591222"><ele>1230.0</ele><time>2026-05-02T15:30:46.119Z</time></trkpt><trkpt lat="42.2436766" lon="13.2590759"><ele>1231.5</ele><time>2026-05-02T15:30:47.123Z</time></trkpt><trkpt lat="42.2437564" lon="13.2590325"><ele>1233.0</ele><time>2026-05-02T15:30:48.116Z</time></trkpt><trkpt lat="42.2438486" lon="13.2589828"><ele>1234.5</ele><time>2026-05-02T15:30:49.12Z</time></trkpt><trkpt lat="42.2439227" lon="13.2589264"><ele>1236.0</ele><time>2026-05-02T15:30:50.119Z</time></trkpt><trkpt lat="42.2439905" lon="13.2588545"><ele>1238.5</ele><time>2026-05-02T15:30:51.119Z</time></trkpt><trkpt lat="42.2440494" lon="13.2587705"><ele>1241.0</ele><time>2026-05-02T15:30:52.123Z</time></trkpt><trkpt lat="42.2440939" lon="13.2586971"><ele>1243.5</ele><time>2026-05-02T15:30:53.118Z</time></trkpt><trkpt lat="42.2441396" lon="13.2586311"><ele>1246.0</ele><time>2026-05-02T15:30:54.114Z</time></trkpt><trkpt lat="42.2442077" lon="13.258589"><ele>1248.5</ele><time>2026-05-02T15:30:55.116Z</time></trkpt><trkpt lat="42.244282" lon="13.2585534"><ele>1251.0</ele><time>2026-05-02T15:30:56.115Z</time></trkpt><trkpt lat="42.2443664" lon="13.2585267"><ele>1251.0</ele><time>2026-05-02T15:30:57.112Z</time></trkpt><trkpt lat="42.24446" lon="13.2585184"><ele>1251.0</ele><time>2026-05-02T15:30:58.116Z</time></trkpt><trkpt lat="42.2445534" lon="13.2585181"><ele>1251.0</ele><time>2026-05-02T15:30:59.112Z</time></trkpt><trkpt lat="42.2446316" lon="13.2585401"><ele>1251.0</ele><time>2026-05-02T15:31:00.112Z</time></trkpt><trkpt lat="42.2446981" lon="13.2585694"><ele>1251.0</ele><time>2026-05-02T15:31:01.118Z</time></trkpt><trkpt lat="42.2447628" lon="13.2586192"><ele>1251.0</ele><time>2026-05-02T15:31:02.119Z</time></trkpt><trkpt lat="42.244849" lon="13.2587116"><ele>1250.3999999999999</ele><time>2026-05-02T15:31:04.11Z</time></trkpt><trkpt lat="42.24493" lon="13.2588008"><ele>1249.8</ele><time>2026-05-02T15:31:06.121Z</time></trkpt><trkpt lat="42.2449905" lon="13.2588549"><ele>1249.1999999999998</ele><time>2026-05-02T15:31:07.112Z</time></trkpt><trkpt lat="42.2450647" lon="13.2589221"><ele>1248.6</ele><time>2026-05-02T15:31:08.12Z</time></trkpt><trkpt lat="42.2451396" lon="13.2590043"><ele>1248.0</ele><time>2026-05-02T15:31:09.11Z</time></trkpt><trkpt lat="42.2452119" lon="13.259084"><ele>1247.0</ele><time>2026-05-02T15:31:10.116Z</time></trkpt><trkpt lat="42.2452915" lon="13.2591415"><ele>1246.0</ele><time>2026-05-02T15:31:11.113Z</time></trkpt><trkpt lat="42.2453853" lon="13.2591847"><ele>1245.0</ele><time>2026-05-02T15:31:12.12Z</time></trkpt><trkpt lat="42.2454793" lon="13.2592295"><ele>1244.0</ele><time>2026-05-02T15:31:13.111Z</time></trkpt><trkpt lat="42.2434336" lon="13.259263"><ele>1244.0</ele><time>2026-05-02T15:30:43.124Z</time></trkpt><trkpt lat="42.2435334" lon="13.2591701"><ele>1244.0</ele><time>2026-05-02T15:30:45.119Z</time></trkpt><trkpt lat="42.243594" lon="13.2591222"><ele>1244.0</ele><time>2026-05-02T15:30:46.119Z</time></trkpt><trkpt lat="42.2436766" lon="13.2590759"><ele>1244.0</ele><time>2026-05-02T15:30:47.123Z</time></trkpt><trkpt lat="42.2437564" lon="13.2590325"><ele>1244.0</ele><time>2026-05-02T15:30:48.116Z</time></trkpt><trkpt lat="42.2438486" lon="13.2589828"><ele>1245.1666666666667</ele><time>2026-05-02T15:30:49.12Z</time></trkpt><trkpt lat="42.2439227" lon="13.2589264"><ele>1246.3333333333335</ele><time>2026-05-02T15:30:50.119Z</time></trkpt><trkpt lat="42.2439905" lon="13.2588545"><ele>1247.5</ele><time>2026-05-02T15:30:51.119Z</time></trkpt><trkpt lat="42.2440494" lon="13.2587705"><ele>1248.6666666666667</ele><time>2026-05-02T15:30:52.123Z</time></trkpt><trkpt lat="42.2440939" lon="13.2586971"><ele>1249.8333333333333</ele><time>2026-05-02T15:30:53.118Z</time></trkpt><trkpt lat="42.2441396" lon="13.2586311"><ele>1251.0</ele><time>2026-05-02T15:30:54.114Z</time></trkpt><trkpt lat="42.2442077" lon="13.258589"><ele>1251.0</ele><time>2026-05-02T15:30:55.116Z</time></trkpt><trkpt lat="42.244282" lon="13.2585534"><ele>1251.0</ele><time>2026-05-02T15:30:56.115Z</time></trkpt><trkpt lat="42.2443664" lon="13.2585267"><ele>1251.0</ele><time>2026-05-02T15:30:57.112Z</time></trkpt><trkpt lat="42.24446" lon="13.2585184"><ele>1251.0</ele><time>2026-05-02T15:30:58.116Z</time></trkpt><trkpt lat="42.2445534" lon="13.2585181"><ele>1251.0</ele><time>2026-05-02T15:30:59.112Z</time></trkpt><trkpt lat="42.2446316" lon="13.2585401"><ele>1251.0</ele><time>2026-05-02T15:31:00.112Z</time></trkpt><trkpt lat="42.2446981" lon="13.2585694"><ele>1251.0</ele><time>2026-05-02T15:31:01.118Z</time></trkpt><trkpt lat="42.2447628" lon="13.2586192"><ele>1251.0</ele><time>2026-05-02T15:31:02.119Z</time></trkpt><trkpt lat="42.244849" lon="13.2587116"><ele>1251.0</ele><time>2026-05-02T15:31:04.11Z</time></trkpt><trkpt lat="42.24493" lon="13.2588008"><ele>1251.0</ele><time>2026-05-02T15:31:06.121Z</time></trkpt><trkpt lat="42.2449905" lon="13.2588549"><ele>1251.0</ele><time>2026-05-02T15:31:07.112Z</time></trkpt><trkpt lat="42.2450647" lon="13.2589221"><ele>1251.8</ele><time>2026-05-02T15:31:08.12Z</time></trkpt><trkpt lat="42.2451396" lon="13.2590043"><ele>1252.6</ele><time>2026-05-02T15:31:09.11Z</time></trkpt><trkpt lat="42.2452119" lon="13.259084"><ele>1253.4</ele><time>2026-05-02T15:31:10.116Z</time></trkpt><trkpt lat="42.2452915" lon="13.2591415"><ele>1254.2</ele><time>2026-05-02T15:31:11.113Z</time></trkpt><trkpt lat="42.2453853" lon="13.2591847"><ele>1255.0</ele><time>2026-05-02T15:31:12.12Z</time></trkpt><trkpt lat="42.2454793" lon="13.2592295"><ele>1255.0</ele><time>2026-05-02T15:31:13.111Z</time></trkpt><trkpt lat="42.245575" lon="13.2592589"><ele>1255.0</ele><time>2026-05-02T15:31:14.113Z</time></trkpt><trkpt lat="42.2456573" lon="13.2592877"><ele>1255.0</ele><time>2026-05-02T15:31:15.114Z</time></trkpt><trkpt lat="42.2457403" lon="13.2593062"><ele>1255.0</ele><time>2026-05-02T15:31:16.111Z</time></trkpt><trkpt lat="42.2458257" lon="13.2593199"><ele>1255.0</ele><time>2026-05-02T15:31:17.123Z</time></trkpt><trkpt lat="42.2459174" lon="13.259348"><ele>1255.0</ele><time>2026-05-02T15:31:18.109Z</time></trkpt><trkpt lat="42.2460088" lon="13.2593948"><ele>1254.8</ele><time>2026-05-02T15:31:19.111Z</time></trkpt><trkpt lat="42.2460898" lon="13.2594361"><ele>1254.6</ele><time>2026-05-02T15:31:20.104Z</time></trkpt><trkpt lat="42.2461604" lon="13.2594813"><ele>1254.4</ele><time>2026-05-02T15:31:21.11Z</time></trkpt><trkpt lat="42.2462126" lon="13.2595456"><ele>1254.2</ele><time>2026-05-02T15:31:22.106Z</time></trkpt><trkpt lat="42.2462454" lon="13.2596946"><ele>1254.0</ele><time>2026-05-02T15:31:24.108Z</time></trkpt><trkpt lat="42.2462132" lon="13.2598735"><ele>1257.6000000000001</ele><time>2026-05-02T15:31:26.113Z</time></trkpt><trkpt lat="42.2462057" lon="13.2599732"><ele>1261.2</ele><time>2026-05-02T15:31:27.11Z</time></trkpt><trkpt lat="42.2462191" lon="13.2600872"><ele>1264.8000000000002</ele><time>2026-05-02T15:31:29.114Z</time></trkpt><trkpt lat="42.2463124" lon="13.2601024"><ele>1268.4</ele><time>2026-05-02T15:31:32.109Z</time></trkpt><trkpt lat="42.246421" lon="13.2601175"><ele>1272.0</ele><time>2026-05-02T15:31:34.113Z</time></trkpt><trkpt lat="42.2465577" lon="13.2600989"><ele>1271.1666666666667</ele><time>2026-05-02T15:31:36.115Z</time></trkpt><trkpt lat="42.2466352" lon="13.2600568"><ele>1270.3333333333333</ele><time>2026-05-02T15:31:37.115Z</time></trkpt><trkpt lat="42.2467129" lon="13.2599936"><ele>1269.5</ele><time>2026-05-02T15:31:38.114Z</time></trkpt><trkpt lat="42.2467773" lon="13.2599185"><ele>1268.6666666666665</ele><time>2026-05-02T15:31:39.117Z</time></trkpt><trkpt lat="42.2468332" lon="13.2598295"><ele>1267.8333333333333</ele><time>2026-05-02T15:31:40.12Z</time></trkpt><trkpt lat="42.2468822" lon="13.2597431"><ele>1267.0</ele><time>2026-05-02T15:31:41.113Z</time></trkpt><trkpt lat="42.2469301" lon="13.2596757"><ele>1267.0</ele><time>2026-05-02T15:31:42.108Z</time></trkpt><trkpt lat="42.2470294" lon="13.2596733"><ele>1267.0</ele><time>2026-05-02T15:31:44.112Z</time></trkpt><trkpt lat="42.247065" lon="13.2597455"><ele>1267.0</ele><time>2026-05-02T15:31:45.103Z</time></trkpt><trkpt lat="42.247099" lon="13.25983"><ele>1267.0</ele><time>2026-05-02T15:31:46.109Z</time></trkpt><trkpt lat="42.2471123" lon="13.2599216"><ele>1267.0</ele><time>2026-05-02T15:31:47.114Z</time></trkpt><trkpt lat="42.2470894" lon="13.2600574"><ele>1267.0</ele><time>2026-05-02T15:31:49.106Z</time></trkpt><trkpt lat="42.2470423" lon="13.2602073"><ele>1269.2</ele><time>2026-05-02T15:31:51.115Z</time></trkpt><trkpt lat="42.2470217" lon="13.2603323"><ele>1271.4</ele><time>2026-05-02T15:31:53.112Z</time></trkpt><trkpt lat="42.2470874" lon="13.2603863"><ele>1273.6</ele><time>2026-05-02T15:31:56.11Z</time></trkpt><trkpt lat="42.2471586" lon="13.2603412"><ele>1275.8</ele><time>2026-05-02T15:31:58.111Z</time></trkpt><trkpt lat="42.2472154" lon="13.2601639"><ele>1278.0</ele><time>2026-05-02T15:32:00.113Z</time></trkpt><trkpt lat="42.2472304" lon="13.2600187"><ele>1278.0</ele><time>2026-05-02T15:32:01.114Z</time></trkpt><trkpt lat="42.2472648" lon="13.259857"><ele>1278.0</ele><time>2026-05-02T15:32:02.114Z</time></trkpt><trkpt lat="42.2473087" lon="13.2596994"><ele>1278.0</ele><time>2026-05-02T15:32:03.112Z</time></trkpt><trkpt lat="42.2473658" lon="13.2595782"><ele>1278.0</ele><time>2026-05-02T15:32:04.113Z</time></trkpt><trkpt lat="42.2474332" lon="13.2594916"><ele>1278.0</ele><time>2026-05-02T15:32:05.115Z</time></trkpt><trkpt lat="42.247515" lon="13.2594145"><ele>1279.3333333333333</ele><time>2026-05-02T15:32:06.119Z</time></trkpt><trkpt lat="42.2476076" lon="13.2593546"><ele>1280.6666666666667</ele><time>2026-05-02T15:32:07.113Z</time></trkpt><trkpt lat="42.2476874" lon="13.2592984"><ele>1282.0</ele><time>2026-05-02T15:32:08.117Z</time></trkpt><trkpt lat="42.2477522" lon="13.2592286"><ele>1283.3333333333335</ele><time>2026-05-02T15:32:09.119Z</time></trkpt><trkpt lat="42.247799" lon="13.2591484"><ele>1284.6666666666667</ele><time>2026-05-02T15:32:10.117Z</time></trkpt><trkpt lat="42.2478394" lon="13.2590621"><ele>1286.0</ele><time>2026-05-02T15:32:11.117Z</time></trkpt><trkpt lat="42.2478996" lon="13.2589887"><ele>1283.6</ele><time>2026-05-02T15:32:12.116Z</time></trkpt><trkpt lat="42.2479779" lon="13.2589215"><ele>1281.1999999999998</ele><time>2026-05-02T15:32:13.116Z</time></trkpt><trkpt lat="42.248054" lon="13.258856"><ele>1278.8000000000002</ele><time>2026-05-02T15:32:14.119Z</time></trkpt><trkpt lat="42.2481116" lon="13.2587668"><ele>1276.4</ele><time>2026-05-02T15:32:15.117Z</time></trkpt><trkpt lat="42.2481578" lon="13.2586562"><ele>1274.0</ele><time>2026-05-02T15:32:16.122Z</time></trkpt><trkpt lat="42.248202" lon="13.2585381"><ele>1275.6666666666667</ele><time>2026-05-02T15:32:17.122Z</time></trkpt><trkpt lat="42.2482334" lon="13.2584294"><ele>1277.3333333333335</ele><time>2026-05-02T15:32:18.117Z</time></trkpt><trkpt lat="42.2482632" lon="13.2583338"><ele>1279.0</ele><time>2026-05-02T15:32:19.124Z</time></trkpt><trkpt lat="42.2483018" lon="13.2582366"><ele>1280.6666666666667</ele><time>2026-05-02T15:32:20.116Z</time></trkpt><trkpt lat="42.2483475" lon="13.2581355"><ele>1282.3333333333333</ele><time>2026-05-02T15:32:21.119Z</time></trkpt><trkpt lat="42.2484059" lon="13.2580355"><ele>1284.0</ele><time>2026-05-02T15:32:22.12Z</time></trkpt><trkpt lat="42.2484736" lon="13.2579445"><ele>1284.0</ele><time>2026-05-02T15:32:23.124Z</time></trkpt><trkpt lat="42.2485356" lon="13.2578622"><ele>1284.0</ele><time>2026-05-02T15:32:24.12Z</time></trkpt><trkpt lat="42.2485741" lon="13.2577733"><ele>1284.0</ele><time>2026-05-02T15:32:25.124Z</time></trkpt><trkpt lat="42.2486033" lon="13.2576746"><ele>1284.0</ele><time>2026-05-02T15:32:26.118Z</time></trkpt><trkpt lat="42.2486367" lon="13.2575599"><ele>1284.0</ele><time>2026-05-02T15:32:27.118Z</time></trkpt><trkpt lat="42.2486852" lon="13.2574308"><ele>1284.0</ele><time>2026-05-02T15:32:28.119Z</time></trkpt><trkpt lat="42.2487392" lon="13.2573111"><ele>1285.4</ele><time>2026-05-02T15:32:29.122Z</time></trkpt><trkpt lat="42.248797" lon="13.2572048"><ele>1286.8000000000002</ele><time>2026-05-02T15:32:30.121Z</time></trkpt><trkpt lat="42.2488561" lon="13.2571216"><ele>1288.1999999999998</ele><time>2026-05-02T15:32:31.118Z</time></trkpt><trkpt lat="42.2489235" lon="13.2570623"><ele>1289.6</ele><time>2026-05-02T15:32:32.116Z</time></trkpt><trkpt lat="42.2490041" lon="13.257016"><ele>1291.0</ele><time>2026-05-02T15:32:33.116Z</time></trkpt><trkpt lat="42.2491018" lon="13.2569669"><ele>1291.0</ele><time>2026-05-02T15:32:34.119Z</time></trkpt><trkpt lat="42.2492038" lon="13.256919"><ele>1291.0</ele><time>2026-05-02T15:32:35.121Z</time></trkpt><trkpt lat="42.2492921" lon="13.2568815"><ele>1291.0</ele><time>2026-05-02T15:32:36.117Z</time></trkpt><trkpt lat="42.2493741" lon="13.2568623"><ele>1291.0</ele><time>2026-05-02T15:32:37.115Z</time></trkpt><trkpt lat="42.2494602" lon="13.2568489"><ele>1291.0</ele><time>2026-05-02T15:32:38.117Z</time></trkpt><trkpt lat="42.2495556" lon="13.2568418"><ele>1291.0</ele><time>2026-05-02T15:32:39.118Z</time></trkpt><trkpt lat="42.249637" lon="13.2568545"><ele>1291.0</ele><time>2026-05-02T15:32:40.117Z</time></trkpt><trkpt lat="42.2497024" lon="13.2568646"><ele>1291.0</ele><time>2026-05-02T15:32:41.118Z</time></trkpt><trkpt lat="42.2498143" lon="13.2568748"><ele>1291.0</ele><time>2026-05-02T15:32:43.115Z</time></trkpt><trkpt lat="42.2499239" lon="13.2568585"><ele>1291.0</ele><time>2026-05-02T15:32:45.107Z</time></trkpt><trkpt lat="42.2499955" lon="13.2568217"><ele>1291.0</ele><time>2026-05-02T15:32:46.111Z</time></trkpt><trkpt lat="42.2500804" lon="13.2567576"><ele>1291.6</ele><time>2026-05-02T15:32:47.12Z</time></trkpt><trkpt lat="42.2501812" lon="13.2566962"><ele>1292.1999999999998</ele><time>2026-05-02T15:32:48.112Z</time></trkpt><trkpt lat="42.2502809" lon="13.256623"><ele>1292.8000000000002</ele><time>2026-05-02T15:32:49.111Z</time></trkpt><trkpt lat="42.2503803" lon="13.2565526"><ele>1293.4</ele><time>2026-05-02T15:32:50.116Z</time></trkpt><trkpt lat="42.2504599" lon="13.2564887"><ele>1294.0</ele><time>2026-05-02T15:32:51.115Z</time></trkpt><trkpt lat="42.2505284" lon="13.2564418"><ele>1290.6000000000001</ele><time>2026-05-02T15:32:52.119Z</time></trkpt><trkpt lat="42.2505907" lon="13.256395"><ele>1287.2</ele><time>2026-05-02T15:32:53.112Z</time></trkpt><trkpt lat="42.2506671" lon="13.2563737"><ele>1283.8000000000002</ele><time>2026-05-02T15:32:54.113Z</time></trkpt><trkpt lat="42.2507708" lon="13.2563822"><ele>1280.4</ele><time>2026-05-02T15:32:55.123Z</time></trkpt><trkpt lat="42.2508807" lon="13.2563835"><ele>1277.0</ele><time>2026-05-02T15:32:56.117Z</time></trkpt><trkpt lat="42.2509904" lon="13.2563789"><ele>1277.0</ele><time>2026-05-02T15:32:57.12Z</time></trkpt><trkpt lat="42.2510984" lon="13.2563821"><ele>1277.0</ele><time>2026-05-02T15:32:58.109Z</time></trkpt><trkpt lat="42.2511918" lon="13.2563946"><ele>1277.0</ele><time>2026-05-02T15:32:59.114Z</time></trkpt><trkpt lat="42.251272" lon="13.2564262"><ele>1277.0</ele><time>2026-05-02T15:33:00.11Z</time></trkpt><trkpt lat="42.2513542" lon="13.2564729"><ele>1277.0</ele><time>2026-05-02T15:33:01.13Z</time></trkpt><trkpt lat="42.2514416" lon="13.2565283"><ele>1280.5</ele><time>2026-05-02T15:33:02.122Z</time></trkpt><trkpt lat="42.2515365" lon="13.256591"><ele>1284.0</ele><time>2026-05-02T15:33:03.129Z</time></trkpt><trkpt lat="42.251613" lon="13.2566427"><ele>1287.5</ele><time>2026-05-02T15:33:04.124Z</time></trkpt><trkpt lat="42.2516808" lon="13.2566911"><ele>1291.0</ele><time>2026-05-02T15:33:05.126Z</time></trkpt><trkpt lat="42.2517729" lon="13.2567622"><ele>1294.5</ele><time>2026-05-02T15:33:07.122Z</time></trkpt><trkpt lat="42.2518429" lon="13.256727"><ele>1298.0</ele><time>2026-05-02T15:33:09.13Z</time></trkpt><trkpt lat="42.2519176" lon="13.2566651"><ele>1298.0</ele><time>2026-05-02T15:35:06.133Z</time></trkpt><trkpt lat="42.2520047" lon="13.2565236"><ele>1298.0</ele><time>2026-05-02T15:35:08.13Z</time></trkpt><trkpt lat="42.2520678" lon="13.2564067"><ele>1298.0</ele><time>2026-05-02T15:35:09.132Z</time></trkpt><trkpt lat="42.2521263" lon="13.2562776"><ele>1298.0</ele><time>2026-05-02T15:35:10.135Z</time></trkpt><trkpt lat="42.2521912" lon="13.2561398"><ele>1298.6000000000001</ele><time>2026-05-02T15:35:11.137Z</time></trkpt><trkpt lat="42.2522629" lon="13.2560083"><ele>1299.2</ele><time>2026-05-02T15:35:12.125Z</time></trkpt><trkpt lat="42.2523286" lon="13.2558934"><ele>1299.8</ele><time>2026-05-02T15:35:13.134Z</time></trkpt><trkpt lat="42.2523848" lon="13.2557857"><ele>1300.4</ele><time>2026-05-02T15:35:14.134Z</time></trkpt><trkpt lat="42.2524357" lon="13.255682"><ele>1301.0</ele><time>2026-05-02T15:35:15.135Z</time></trkpt><trkpt lat="42.2524837" lon="13.2555804"><ele>1298.4</ele><time>2026-05-02T15:35:16.137Z</time></trkpt><trkpt lat="42.2525414" lon="13.255492"><ele>1295.8</ele><time>2026-05-02T15:35:17.134Z</time></trkpt><trkpt lat="42.2526053" lon="13.2554057"><ele>1293.2</ele><time>2026-05-02T15:35:18.133Z</time></trkpt><trkpt lat="42.2526757" lon="13.2553199"><ele>1290.6000000000001</ele><time>2026-05-02T15:35:19.132Z</time></trkpt><trkpt lat="42.2527691" lon="13.2552489"><ele>1288.0</ele><time>2026-05-02T15:35:20.135Z</time></trkpt><trkpt lat="42.2528548" lon="13.2551791"><ele>1288.0</ele><time>2026-05-02T15:35:21.14Z</time></trkpt><trkpt lat="42.2529339" lon="13.2551228"><ele>1288.0</ele><time>2026-05-02T15:35:22.14Z</time></trkpt><trkpt lat="42.2529994" lon="13.2550829"><ele>1288.0</ele><time>2026-05-02T15:35:23.14Z</time></trkpt><trkpt lat="42.253063" lon="13.255065"><ele>1288.0</ele><time>2026-05-02T15:35:24.15Z</time></trkpt><trkpt lat="42.2531362" lon="13.2550555"><ele>1288.0</ele><time>2026-05-02T15:35:25.141Z</time></trkpt><trkpt lat="42.2532177" lon="13.2550368"><ele>1288.0</ele><time>2026-05-02T15:35:26.142Z</time></trkpt><trkpt lat="42.2533034" lon="13.2550026"><ele>1289.0</ele><time>2026-05-02T15:35:27.139Z</time></trkpt><trkpt lat="42.2533743" lon="13.2549669"><ele>1290.0</ele><time>2026-05-02T15:35:28.14Z</time></trkpt><trkpt lat="42.2534448" lon="13.2549355"><ele>1291.0</ele><time>2026-05-02T15:35:29.142Z</time></trkpt><trkpt lat="42.2535122" lon="13.2548988"><ele>1292.0</ele><time>2026-05-02T15:35:30.142Z</time></trkpt><trkpt lat="42.253589" lon="13.254844"><ele>1293.0</ele><time>2026-05-02T15:35:31.142Z</time></trkpt><trkpt lat="42.253685" lon="13.2547801"><ele>1294.0</ele><time>2026-05-02T15:35:32.147Z</time></trkpt><trkpt lat="42.2537759" lon="13.2547198"><ele>1292.0</ele><time>2026-05-02T15:35:33.136Z</time></trkpt><trkpt lat="42.253871" lon="13.2546784"><ele>1290.0</ele><time>2026-05-02T15:35:34.139Z</time></trkpt><trkpt lat="42.2539632" lon="13.2546299"><ele>1288.0</ele><time>2026-05-02T15:35:35.139Z</time></trkpt><trkpt lat="42.2540531" lon="13.2545927"><ele>1286.0</ele><time>2026-05-02T15:35:36.145Z</time></trkpt><trkpt lat="42.2541424" lon="13.254555"><ele>1284.0</ele><time>2026-05-02T15:35:37.136Z</time></trkpt><trkpt lat="42.2542317" lon="13.2545112"><ele>1284.0</ele><time>2026-05-02T15:35:38.134Z</time></trkpt><trkpt lat="42.2543302" lon="13.2544567"><ele>1284.0</ele><time>2026-05-02T15:35:39.137Z</time></trkpt><trkpt lat="42.254436" lon="13.2544045"><ele>1284.0</ele><time>2026-05-02T15:35:40.138Z</time></trkpt><trkpt lat="42.254534" lon="13.2543434"><ele>1284.0</ele><time>2026-05-02T15:35:41.14Z</time></trkpt><trkpt lat="42.2546232" lon="13.254282"><ele>1284.0</ele><time>2026-05-02T15:35:42.145Z</time></trkpt><trkpt lat="42.2547019" lon="13.254222"><ele>1284.0</ele><time>2026-05-02T15:35:43.144Z</time></trkpt><trkpt lat="42.2547781" lon="13.2541585"><ele>1284.0</ele><time>2026-05-02T15:35:44.14Z</time></trkpt><trkpt lat="42.2548601" lon="13.2541056"><ele>1284.0</ele><time>2026-05-02T15:35:45.149Z</time></trkpt><trkpt lat="42.2549476" lon="13.2540568"><ele>1284.0</ele><time>2026-05-02T15:35:46.144Z</time></trkpt><trkpt lat="42.2550421" lon="13.2540146"><ele>1284.0</ele><time>2026-05-02T15:35:47.141Z</time></trkpt><trkpt lat="42.2551441" lon="13.2539727"><ele>1282.2</ele><time>2026-05-02T15:35:48.142Z</time></trkpt><trkpt lat="42.2552415" lon="13.2539325"><ele>1280.4</ele><time>2026-05-02T15:35:49.142Z</time></trkpt><trkpt lat="42.2553398" lon="13.2538854"><ele>1278.6</ele><time>2026-05-02T15:35:50.145Z</time></trkpt><trkpt lat="42.2554396" lon="13.2538234"><ele>1276.8</ele><time>2026-05-02T15:35:51.143Z</time></trkpt><trkpt lat="42.2555334" lon="13.2537494"><ele>1275.0</ele><time>2026-05-02T15:35:52.142Z</time></trkpt><trkpt lat="42.2556112" lon="13.2536785"><ele>1277.1666666666667</ele><time>2026-05-02T15:35:53.142Z</time></trkpt><trkpt lat="42.2556859" lon="13.2536085"><ele>1279.3333333333333</ele><time>2026-05-02T15:35:54.142Z</time></trkpt><trkpt lat="42.2557548" lon="13.2535432"><ele>1281.5</ele><time>2026-05-02T15:35:55.146Z</time></trkpt><trkpt lat="42.2558063" lon="13.2534692"><ele>1283.6666666666665</ele><time>2026-05-02T15:35:56.136Z</time></trkpt><trkpt lat="42.2558388" lon="13.2533824"><ele>1285.8333333333333</ele><time>2026-05-02T15:35:57.139Z</time></trkpt><trkpt lat="42.2558525" lon="13.2532778"><ele>1288.0</ele><time>2026-05-02T15:35:58.133Z</time></trkpt><trkpt lat="42.2558616" lon="13.2531564"><ele>1287.8000000000002</ele><time>2026-05-02T15:35:59.133Z</time></trkpt><trkpt lat="42.2558659" lon="13.253019"><ele>1287.6</ele><time>2026-05-02T15:36:00.14Z</time></trkpt><trkpt lat="42.2558747" lon="13.2528865"><ele>1287.4</ele><time>2026-05-02T15:36:01.136Z</time></trkpt><trkpt lat="42.2558795" lon="13.2527635"><ele>1287.1999999999998</ele><time>2026-05-02T15:36:02.138Z</time></trkpt><trkpt lat="42.2558852" lon="13.2526475"><ele>1287.0</ele><time>2026-05-02T15:36:03.125Z</time></trkpt><trkpt lat="42.2559082" lon="13.2525178"><ele>1287.0</ele><time>2026-05-02T15:36:04.135Z</time></trkpt><trkpt lat="42.2559522" lon="13.2523825"><ele>1287.0</ele><time>2026-05-02T15:36:05.127Z</time></trkpt><trkpt lat="42.255989" lon="13.2522501"><ele>1287.0</ele><time>2026-05-02T15:36:06.123Z</time></trkpt><trkpt lat="42.2560218" lon="13.2521349"><ele>1287.0</ele><time>2026-05-02T15:36:07.122Z</time></trkpt><trkpt lat="42.2560633" lon="13.2520562"><ele>1287.0</ele><time>2026-05-02T15:36:08.125Z</time></trkpt><trkpt lat="42.2561213" lon="13.2520047"><ele>1287.0</ele><time>2026-05-02T15:36:09.132Z</time></trkpt><trkpt lat="42.2562074" lon="13.2519634"><ele>1286.3333333333333</ele><time>2026-05-02T15:36:10.139Z</time></trkpt><trkpt lat="42.2562925" lon="13.2519016"><ele>1285.6666666666667</ele><time>2026-05-02T15:36:11.139Z</time></trkpt><trkpt lat="42.2563617" lon="13.2518296"><ele>1285.0</ele><time>2026-05-02T15:36:12.143Z</time></trkpt><trkpt lat="42.2564257" lon="13.2517525"><ele>1284.3333333333335</ele><time>2026-05-02T15:36:13.134Z</time></trkpt><trkpt lat="42.2564933" lon="13.2516927"><ele>1283.6666666666667</ele><time>2026-05-02T15:36:14.14Z</time></trkpt><trkpt lat="42.2565582" lon="13.2516448"><ele>1283.0</ele><time>2026-05-02T15:36:15.142Z</time></trkpt><trkpt lat="42.2566318" lon="13.251608"><ele>1285.3333333333335</ele><time>2026-05-02T15:36:16.138Z</time></trkpt><trkpt lat="42.256722" lon="13.2515787"><ele>1287.6666666666667</ele><time>2026-05-02T15:36:17.147Z</time></trkpt><trkpt lat="42.2568207" lon="13.2515436"><ele>1290.0</ele><time>2026-05-02T15:36:18.14Z</time></trkpt><trkpt lat="42.2569136" lon="13.2515148"><ele>1292.3333333333333</ele><time>2026-05-02T15:36:19.141Z</time></trkpt><trkpt lat="42.2570003" lon="13.251498"><ele>1294.6666666666665</ele><time>2026-05-02T15:36:20.134Z</time></trkpt><trkpt lat="42.2570644" lon="13.2514937"><ele>1297.0</ele><time>2026-05-02T15:36:21.135Z</time></trkpt><trkpt lat="42.2571457" lon="13.2515447"><ele>1297.0</ele><time>2026-05-02T15:36:23.124Z</time></trkpt><trkpt lat="42.2571826" lon="13.2517065"><ele>1297.0</ele><time>2026-05-02T15:36:25.129Z</time></trkpt><trkpt lat="42.2571938" lon="13.2518262"><ele>1297.0</ele><time>2026-05-02T15:36:26.123Z</time></trkpt><trkpt lat="42.2572026" lon="13.2519491"><ele>1297.0</ele><time>2026-05-02T15:36:27.121Z</time></trkpt><trkpt lat="42.2572139" lon="13.252066"><ele>1297.0</ele><time>2026-05-02T15:36:28.132Z</time></trkpt><trkpt lat="42.2572244" lon="13.2521841"><ele>1297.8333333333333</ele><time>2026-05-02T15:36:29.137Z</time></trkpt><trkpt lat="42.2572235" lon="13.2522942"><ele>1298.6666666666665</ele><time>2026-05-02T15:36:30.126Z</time></trkpt><trkpt lat="42.2572221" lon="13.2524011"><ele>1299.5</ele><time>2026-05-02T15:36:31.132Z</time></trkpt><trkpt lat="42.2572248" lon="13.252492"><ele>1300.3333333333333</ele><time>2026-05-02T15:36:32.13Z</time></trkpt><trkpt lat="42.2572314" lon="13.2526269"><ele>1301.1666666666667</ele><time>2026-05-02T15:36:34.128Z</time></trkpt><trkpt lat="42.2572655" lon="13.2527235"><ele>1302.0</ele><time>2026-05-02T15:36:36.124Z</time></trkpt><trkpt lat="42.2573422" lon="13.2527425"><ele>1299.0</ele><time>2026-05-02T15:36:38.118Z</time></trkpt><trkpt lat="42.2574536" lon="13.2526755"><ele>1296.0</ele><time>2026-05-02T15:36:40.126Z</time></trkpt><trkpt lat="42.2575698" lon="13.2526152"><ele>1293.0</ele><time>2026-05-02T15:36:42.127Z</time></trkpt><trkpt lat="42.2576909" lon="13.2526108"><ele>1290.0</ele><time>2026-05-02T15:36:44.129Z</time></trkpt><trkpt lat="42.2577732" lon="13.2526138"><ele>1290.0</ele><time>2026-05-02T15:36:45.127Z</time></trkpt><trkpt lat="42.2578616" lon="13.2526055"><ele>1290.0</ele><time>2026-05-02T15:36:46.133Z</time></trkpt><trkpt lat="42.2579619" lon="13.252606"><ele>1290.0</ele><time>2026-05-02T15:36:47.135Z</time></trkpt><trkpt lat="42.25806" lon="13.2525946"><ele>1290.0</ele><time>2026-05-02T15:36:48.132Z</time></trkpt><trkpt lat="42.2581553" lon="13.2525645"><ele>1290.0</ele><time>2026-05-02T15:36:49.135Z</time></trkpt><trkpt lat="42.258251" lon="13.2525152"><ele>1290.0</ele><time>2026-05-02T15:36:50.13Z</time></trkpt><trkpt lat="42.2583421" lon="13.2524536"><ele>1290.0</ele><time>2026-05-02T15:36:51.131Z</time></trkpt><trkpt lat="42.2584254" lon="13.2523894"><ele>1290.0</ele><time>2026-05-02T15:36:52.133Z</time></trkpt><trkpt lat="42.2584958" lon="13.2523278"><ele>1290.0</ele><time>2026-05-02T15:36:53.142Z</time></trkpt><trkpt lat="42.2585549" lon="13.2522636"><ele>1290.0</ele><time>2026-05-02T15:36:54.14Z</time></trkpt><trkpt lat="42.2586007" lon="13.252192"><ele>1290.0</ele><time>2026-05-02T15:36:55.133Z</time></trkpt><trkpt lat="42.2586386" lon="13.2521144"><ele>1287.8333333333333</ele><time>2026-05-02T15:36:56.134Z</time></trkpt><trkpt lat="42.2586675" lon="13.2520239"><ele>1285.6666666666667</ele><time>2026-05-02T15:36:57.136Z</time></trkpt><trkpt lat="42.2586969" lon="13.2519382"><ele>1283.5</ele><time>2026-05-02T15:36:58.133Z</time></trkpt><trkpt lat="42.258746" lon="13.2518411"><ele>1281.3333333333335</ele><time>2026-05-02T15:36:59.139Z</time></trkpt><trkpt lat="42.2588022" lon="13.2517464"><ele>1279.1666666666667</ele><time>2026-05-02T15:37:00.138Z</time></trkpt><trkpt lat="42.2588639" lon="13.2516561"><ele>1277.0</ele><time>2026-05-02T15:37:01.138Z</time></trkpt><trkpt lat="42.258931" lon="13.2515631"><ele>1275.5</ele><time>2026-05-02T15:37:02.137Z</time></trkpt><trkpt lat="42.2590023" lon="13.2514824"><ele>1274.0</ele><time>2026-05-02T15:37:03.138Z</time></trkpt><trkpt lat="42.2590651" lon="13.2514074"><ele>1272.5</ele><time>2026-05-02T15:37:04.133Z</time></trkpt><trkpt lat="42.2591355" lon="13.2513552"><ele>1271.0</ele><time>2026-05-02T15:37:05.14Z</time></trkpt><trkpt lat="42.259208" lon="13.2513122"><ele>1269.5</ele><time>2026-05-02T15:37:06.138Z</time></trkpt><trkpt lat="42.2592771" lon="13.2512823"><ele>1268.0</ele><time>2026-05-02T15:37:07.137Z</time></trkpt><trkpt lat="42.2593444" lon="13.2512648"><ele>1268.0</ele><time>2026-05-02T15:37:08.136Z</time></trkpt><trkpt lat="42.2594089" lon="13.2512507"><ele>1268.0</ele><time>2026-05-02T15:37:09.139Z</time></trkpt><trkpt lat="42.2595317" lon="13.2511716"><ele>1268.0</ele><time>2026-05-02T15:37:11.13Z</time></trkpt><trkpt lat="42.2595995" lon="13.2511161"><ele>1268.0</ele><time>2026-05-02T15:37:12.131Z</time></trkpt><trkpt lat="42.2596688" lon="13.2510592"><ele>1268.0</ele><time>2026-05-02T15:37:13.13Z</time></trkpt><trkpt lat="42.2597339" lon="13.2509825"><ele>1268.0</ele><time>2026-05-02T15:37:14.127Z</time></trkpt><trkpt lat="42.2597866" lon="13.2508891"><ele>1268.8</ele><time>2026-05-02T15:37:15.133Z</time></trkpt><trkpt lat="42.259832" lon="13.2507837"><ele>1269.6</ele><time>2026-05-02T15:37:16.125Z</time></trkpt><trkpt lat="42.2598872" lon="13.250672"><ele>1270.4</ele><time>2026-05-02T15:37:17.146Z</time></trkpt><trkpt lat="42.2599335" lon="13.2505402"><ele>1271.2</ele><time>2026-05-02T15:37:18.131Z</time></trkpt><trkpt lat="42.2599589" lon="13.2503976"><ele>1272.0</ele><time>2026-05-02T15:37:19.138Z</time></trkpt><trkpt lat="42.2599736" lon="13.2502386"><ele>1272.0</ele><time>2026-05-02T15:37:20.135Z</time></trkpt><trkpt lat="42.2599756" lon="13.2500979"><ele>1272.0</ele><time>2026-05-02T15:37:21.137Z</time></trkpt><trkpt lat="42.2599724" lon="13.2499574"><ele>1272.0</ele><time>2026-05-02T15:37:22.138Z</time></trkpt><trkpt lat="42.2599742" lon="13.2498225"><ele>1272.0</ele><time>2026-05-02T15:37:23.14Z</time></trkpt><trkpt lat="42.2599884" lon="13.2496945"><ele>1272.0</ele><time>2026-05-02T15:37:24.143Z</time></trkpt><trkpt lat="42.2600166" lon="13.24958"><ele>1270.4</ele><time>2026-05-02T15:37:25.138Z</time></trkpt><trkpt lat="42.2600497" lon="13.2494732"><ele>1268.8000000000002</ele><time>2026-05-02T15:37:26.132Z</time></trkpt><trkpt lat="42.260085" lon="13.2493617"><ele>1267.2</ele><time>2026-05-02T15:37:27.14Z</time></trkpt><trkpt lat="42.2601088" lon="13.249247"><ele>1265.6000000000001</ele><time>2026-05-02T15:37:28.141Z</time></trkpt><trkpt lat="42.2601408" lon="13.249123"><ele>1264.0</ele><time>2026-05-02T15:37:29.138Z</time></trkpt><trkpt lat="42.2601702" lon="13.2489825"><ele>1262.75</ele><time>2026-05-02T15:37:30.141Z</time></trkpt><trkpt lat="42.2602084" lon="13.2488402"><ele>1261.5</ele><time>2026-05-02T15:37:31.138Z</time></trkpt><trkpt lat="42.260234" lon="13.2486832"><ele>1260.25</ele><time>2026-05-02T15:37:32.143Z</time></trkpt><trkpt lat="42.2602557" lon="13.2485266"><ele>1259.0</ele><time>2026-05-02T15:37:33.143Z</time></trkpt><trkpt lat="42.2602747" lon="13.2483715"><ele>1259.0</ele><time>2026-05-02T15:37:34.143Z</time></trkpt><trkpt lat="42.2603037" lon="13.2482285"><ele>1259.0</ele><time>2026-05-02T15:37:35.146Z</time></trkpt><trkpt lat="42.2603248" lon="13.2480848"><ele>1259.0</ele><time>2026-05-02T15:37:36.142Z</time></trkpt><trkpt lat="42.2603493" lon="13.2479449"><ele>1259.0</ele><time>2026-05-02T15:37:37.146Z</time></trkpt><trkpt lat="42.2603733" lon="13.2478105"><ele>1259.0</ele><time>2026-05-02T15:37:38.141Z</time></trkpt><trkpt lat="42.2603979" lon="13.2476852"><ele>1258.0</ele><time>2026-05-02T15:37:39.134Z</time></trkpt><trkpt lat="42.2604195" lon="13.2475695"><ele>1257.0</ele><time>2026-05-02T15:37:40.131Z</time></trkpt><trkpt lat="42.2604397" lon="13.2474695"><ele>1256.0</ele><time>2026-05-02T15:37:41.131Z</time></trkpt><trkpt lat="42.2604599" lon="13.2473813"><ele>1255.0</ele><time>2026-05-02T15:37:42.131Z</time></trkpt><trkpt lat="42.2604766" lon="13.2472974"><ele>1254.0</ele><time>2026-05-02T15:37:43.129Z</time></trkpt><trkpt lat="42.2605208" lon="13.2472196"><ele>1253.0</ele><time>2026-05-02T15:37:44.134Z</time></trkpt><trkpt lat="42.2605816" lon="13.2471372"><ele>1253.75</ele><time>2026-05-02T15:37:45.124Z</time></trkpt><trkpt lat="42.2606622" lon="13.2470512"><ele>1254.5</ele><time>2026-05-02T15:37:46.126Z</time></trkpt><trkpt lat="42.2607467" lon="13.2469435"><ele>1255.25</ele><time>2026-05-02T15:37:47.124Z</time></trkpt><trkpt lat="42.2608234" lon="13.2468243"><ele>1256.0</ele><time>2026-05-02T15:37:48.121Z</time></trkpt><trkpt lat="42.2608969" lon="13.2466837"><ele>1256.0</ele><time>2026-05-02T15:37:49.119Z</time></trkpt><trkpt lat="42.260972" lon="13.2465421"><ele>1256.0</ele><time>2026-05-02T15:37:50.119Z</time></trkpt><trkpt lat="42.2610521" lon="13.2463962"><ele>1256.0</ele><time>2026-05-02T15:37:51.124Z</time></trkpt><trkpt lat="42.2611297" lon="13.246256"><ele>1256.0</ele><time>2026-05-02T15:37:52.127Z</time></trkpt><trkpt lat="42.2612008" lon="13.2461153"><ele>1255.75</ele><time>2026-05-02T15:37:53.125Z</time></trkpt><trkpt lat="42.2612765" lon="13.2459812"><ele>1255.5</ele><time>2026-05-02T15:37:54.126Z</time></trkpt><trkpt lat="42.2613474" lon="13.2458575"><ele>1255.25</ele><time>2026-05-02T15:37:55.132Z</time></trkpt><trkpt lat="42.261413" lon="13.245733"><ele>1255.0</ele><time>2026-05-02T15:37:56.128Z</time></trkpt><trkpt lat="42.2614765" lon="13.2456103"><ele>1255.0</ele><time>2026-05-02T15:37:57.125Z</time></trkpt><trkpt lat="42.261541" lon="13.2454866"><ele>1255.0</ele><time>2026-05-02T15:37:58.127Z</time></trkpt><trkpt lat="42.2615998" lon="13.2453624"><ele>1255.0</ele><time>2026-05-02T15:37:59.125Z</time></trkpt><trkpt lat="42.2616625" lon="13.2452423"><ele>1255.0</ele><time>2026-05-02T15:38:00.123Z</time></trkpt><trkpt lat="42.2617176" lon="13.245124"><ele>1255.0</ele><time>2026-05-02T15:38:01.125Z</time></trkpt><trkpt lat="42.2617652" lon="13.2450193"><ele>1255.0</ele><time>2026-05-02T15:38:02.131Z</time></trkpt><trkpt lat="42.261804" lon="13.2449192"><ele>1255.0</ele><time>2026-05-02T15:38:03.127Z</time></trkpt><trkpt lat="42.2618348" lon="13.2448175"><ele>1255.0</ele><time>2026-05-02T15:38:04.128Z</time></trkpt><trkpt lat="42.2618638" lon="13.2447078"><ele>1255.0</ele><time>2026-05-02T15:38:05.131Z</time></trkpt><trkpt lat="42.2618826" lon="13.2445893"><ele>1255.0</ele><time>2026-05-02T15:38:06.131Z</time></trkpt><trkpt lat="42.2618874" lon="13.2444602"><ele>1255.0</ele><time>2026-05-02T15:38:07.13Z</time></trkpt><trkpt lat="42.2618785" lon="13.244324"><ele>1254.6</ele><time>2026-05-02T15:38:08.132Z</time></trkpt><trkpt lat="42.261849" lon="13.2441869"><ele>1254.2</ele><time>2026-05-02T15:38:09.133Z</time></trkpt><trkpt lat="42.2618062" lon="13.2440552"><ele>1253.8</ele><time>2026-05-02T15:38:10.129Z</time></trkpt><trkpt lat="42.2617506" lon="13.2439298"><ele>1253.4</ele><time>2026-05-02T15:38:11.133Z</time></trkpt><trkpt lat="42.2616796" lon="13.2438063"><ele>1253.0</ele><time>2026-05-02T15:38:12.13Z</time></trkpt><trkpt lat="42.261579" lon="13.2436925"><ele>1253.0</ele><time>2026-05-02T15:38:13.134Z</time></trkpt><trkpt lat="42.2614687" lon="13.2435886"><ele>1253.0</ele><time>2026-05-02T15:38:14.131Z</time></trkpt><trkpt lat="42.261349" lon="13.2434821"><ele>1253.0</ele><time>2026-05-02T15:38:15.133Z</time></trkpt><trkpt lat="42.2612243" lon="13.243378"><ele>1253.0</ele><time>2026-05-02T15:38:16.13Z</time></trkpt><trkpt lat="42.2611076" lon="13.2432874"><ele>1253.0</ele><time>2026-05-02T15:38:17.131Z</time></trkpt><trkpt lat="42.2609978" lon="13.2432056"><ele>1253.0</ele><time>2026-05-02T15:38:18.13Z</time></trkpt><trkpt lat="42.260912" lon="13.2431354"><ele>1253.0</ele><time>2026-05-02T15:38:19.126Z</time></trkpt><trkpt lat="42.2608367" lon="13.243057"><ele>1253.0</ele><time>2026-05-02T15:38:20.126Z</time></trkpt><trkpt lat="42.2607898" lon="13.2429644"><ele>1253.0</ele><time>2026-05-02T15:38:21.125Z</time></trkpt><trkpt lat="42.2607672" lon="13.2428455"><ele>1253.0</ele><time>2026-05-02T15:38:22.131Z</time></trkpt><trkpt lat="42.2607568" lon="13.2427184"><ele>1253.0</ele><time>2026-05-02T15:38:23.123Z</time></trkpt><trkpt lat="42.260754" lon="13.2425693"><ele>1253.0</ele><time>2026-05-02T15:38:24.127Z</time></trkpt><trkpt lat="42.2607515" lon="13.2424142"><ele>1253.0</ele><time>2026-05-02T15:38:25.13Z</time></trkpt><trkpt lat="42.2607303" lon="13.2422603"><ele>1253.0</ele><time>2026-05-02T15:38:26.133Z</time></trkpt><trkpt lat="42.2606965" lon="13.2421114"><ele>1252.6</ele><time>2026-05-02T15:38:27.131Z</time></trkpt><trkpt lat="42.2606539" lon="13.2419893"><ele>1252.1999999999998</ele><time>2026-05-02T15:38:28.124Z</time></trkpt><trkpt lat="42.2606105" lon="13.2418744"><ele>1251.8</ele><time>2026-05-02T15:38:29.134Z</time></trkpt><trkpt lat="42.2605805" lon="13.241746"><ele>1251.3999999999999</ele><time>2026-05-02T15:38:30.132Z</time></trkpt><trkpt lat="42.2605617" lon="13.2416048"><ele>1251.0</ele><time>2026-05-02T15:38:31.132Z</time></trkpt><trkpt lat="42.2605586" lon="13.2414553"><ele>1249.6666666666667</ele><time>2026-05-02T15:38:32.136Z</time></trkpt><trkpt lat="42.2605734" lon="13.241308"><ele>1248.3333333333333</ele><time>2026-05-02T15:38:33.13Z</time></trkpt><trkpt lat="42.2605955" lon="13.2411723"><ele>1247.0</ele><time>2026-05-02T15:38:34.131Z</time></trkpt><trkpt lat="42.2606172" lon="13.2410591"><ele>1245.6666666666665</ele><time>2026-05-02T15:38:35.13Z</time></trkpt><trkpt lat="42.2606431" lon="13.2409648"><ele>1244.3333333333333</ele><time>2026-05-02T15:38:36.135Z</time></trkpt><trkpt lat="42.2606749" lon="13.2408856"><ele>1243.0</ele><time>2026-05-02T15:38:37.131Z</time></trkpt><trkpt lat="42.2607273" lon="13.2408264"><ele>1243.0</ele><time>2026-05-02T15:38:38.134Z</time></trkpt><trkpt lat="42.2608019" lon="13.2407751"><ele>1243.0</ele><time>2026-05-02T15:38:39.135Z</time></trkpt><trkpt lat="42.2608969" lon="13.2407286"><ele>1243.0</ele><time>2026-05-02T15:38:40.134Z</time></trkpt><trkpt lat="42.2609968" lon="13.240674"><ele>1243.0</ele><time>2026-05-02T15:38:41.133Z</time></trkpt><trkpt lat="42.2610969" lon="13.2406228"><ele>1243.0</ele><time>2026-05-02T15:38:42.137Z</time></trkpt><trkpt lat="42.2611846" lon="13.2405701"><ele>1241.8333333333333</ele><time>2026-05-02T15:38:43.136Z</time></trkpt><trkpt lat="42.261262" lon="13.2405292"><ele>1240.6666666666665</ele><time>2026-05-02T15:38:44.135Z</time></trkpt><trkpt lat="42.2613397" lon="13.2404984"><ele>1239.5</ele><time>2026-05-02T15:38:45.129Z</time></trkpt><trkpt lat="42.2614171" lon="13.2404644"><ele>1238.3333333333333</ele><time>2026-05-02T15:38:46.13Z</time></trkpt><trkpt lat="42.2614906" lon="13.2404148"><ele>1237.1666666666667</ele><time>2026-05-02T15:38:47.133Z</time></trkpt><trkpt lat="42.2615586" lon="13.2403478"><ele>1236.0</ele><time>2026-05-02T15:38:48.127Z</time></trkpt><trkpt lat="42.2616269" lon="13.2402763"><ele>1236.0</ele><time>2026-05-02T15:38:49.137Z</time></trkpt><trkpt lat="42.2616949" lon="13.2402022"><ele>1236.0</ele><time>2026-05-02T15:38:50.137Z</time></trkpt><trkpt lat="42.2617625" lon="13.2401392"><ele>1236.0</ele><time>2026-05-02T15:38:51.132Z</time></trkpt><trkpt lat="42.2618245" lon="13.2400676"><ele>1236.0</ele><time>2026-05-02T15:38:52.136Z</time></trkpt><trkpt lat="42.261887" lon="13.2400094"><ele>1236.0</ele><time>2026-05-02T15:38:53.133Z</time></trkpt><trkpt lat="42.2619536" lon="13.239953"><ele>1236.0</ele><time>2026-05-02T15:38:54.127Z</time></trkpt><trkpt lat="42.2620215" lon="13.2398971"><ele>1236.0</ele><time>2026-05-02T15:38:55.142Z</time></trkpt><trkpt lat="42.2621029" lon="13.2398533"><ele>1236.0</ele><time>2026-05-02T15:38:56.132Z</time></trkpt><trkpt lat="42.2621851" lon="13.2398253"><ele>1236.0</ele><time>2026-05-02T15:38:57.136Z</time></trkpt><trkpt lat="42.2622764" lon="13.2398063"><ele>1236.0</ele><time>2026-05-02T15:38:58.138Z</time></trkpt><trkpt lat="42.262364" lon="13.2397772"><ele>1236.0</ele><time>2026-05-02T15:38:59.128Z</time></trkpt><trkpt lat="42.2624575" lon="13.239763"><ele>1236.0</ele><time>2026-05-02T15:39:00.137Z</time></trkpt><trkpt lat="42.262554" lon="13.2397497"><ele>1232.6666666666667</ele><time>2026-05-02T15:39:01.139Z</time></trkpt><trkpt lat="42.262648" lon="13.2397452"><ele>1229.3333333333333</ele><time>2026-05-02T15:39:02.148Z</time></trkpt><trkpt lat="42.2627383" lon="13.2397505"><ele>1226.0</ele><time>2026-05-02T15:39:03.132Z</time></trkpt><trkpt lat="42.2628281" lon="13.2397576"><ele>1222.6666666666665</ele><time>2026-05-02T15:39:04.129Z</time></trkpt><trkpt lat="42.2629116" lon="13.239761"><ele>1219.3333333333333</ele><time>2026-05-02T15:39:05.122Z</time></trkpt><trkpt lat="42.2629952" lon="13.2397476"><ele>1216.0</ele><time>2026-05-02T15:39:06.13Z</time></trkpt><trkpt lat="42.2630707" lon="13.2397054"><ele>1217.6666666666665</ele><time>2026-05-02T15:39:07.13Z</time></trkpt><trkpt lat="42.2631351" lon="13.2396474"><ele>1219.3333333333333</ele><time>2026-05-02T15:39:08.123Z</time></trkpt><trkpt lat="42.2631928" lon="13.2395755"><ele>1221.0</ele><time>2026-05-02T15:39:09.138Z</time></trkpt><trkpt lat="42.2632333" lon="13.2394895"><ele>1222.6666666666667</ele><time>2026-05-02T15:39:10.131Z</time></trkpt><trkpt lat="42.2632606" lon="13.2393832"><ele>1224.3333333333335</ele><time>2026-05-02T15:39:11.125Z</time></trkpt><trkpt lat="42.2632803" lon="13.2392417"><ele>1226.0</ele><time>2026-05-02T15:39:12.131Z</time></trkpt><trkpt lat="42.2632935" lon="13.2390767"><ele>1223.8</ele><time>2026-05-02T15:39:13.127Z</time></trkpt><trkpt lat="42.2633085" lon="13.2389251"><ele>1221.6</ele><time>2026-05-02T15:39:14.132Z</time></trkpt><trkpt lat="42.2633196" lon="13.2387856"><ele>1219.4</ele><time>2026-05-02T15:39:15.127Z</time></trkpt><trkpt lat="42.2633218" lon="13.2386488"><ele>1217.2</ele><time>2026-05-02T15:39:16.13Z</time></trkpt><trkpt lat="42.2633326" lon="13.2385231"><ele>1215.0</ele><time>2026-05-02T15:39:17.133Z</time></trkpt><trkpt lat="42.2633566" lon="13.2384197"><ele>1215.0</ele><time>2026-05-02T15:39:18.131Z</time></trkpt><trkpt lat="42.2633984" lon="13.2383173"><ele>1215.0</ele><time>2026-05-02T15:39:19.136Z</time></trkpt><trkpt lat="42.2634609" lon="13.2382197"><ele>1215.0</ele><time>2026-05-02T15:39:20.137Z</time></trkpt><trkpt lat="42.2635226" lon="13.2381132"><ele>1215.0</ele><time>2026-05-02T15:39:21.137Z</time></trkpt><trkpt lat="42.2635834" lon="13.2380233"><ele>1215.0</ele><time>2026-05-02T15:39:22.135Z</time></trkpt><trkpt lat="42.2636377" lon="13.2379386"><ele>1214.5</ele><time>2026-05-02T15:39:23.137Z</time></trkpt><trkpt lat="42.2636832" lon="13.237863"><ele>1214.0</ele><time>2026-05-02T15:39:24.131Z</time></trkpt><trkpt lat="42.2637652" lon="13.2377541"><ele>1213.5</ele><time>2026-05-02T15:39:26.132Z</time></trkpt><trkpt lat="42.2638266" lon="13.2376722"><ele>1213.0</ele><time>2026-05-02T15:39:28.14Z</time></trkpt><trkpt lat="42.263916" lon="13.2376634"><ele>1212.5</ele><time>2026-05-02T15:39:31.14Z</time></trkpt><trkpt lat="42.2639975" lon="13.2376671"><ele>1212.0</ele><time>2026-05-02T15:39:34.139Z</time></trkpt><trkpt lat="42.264076" lon="13.2376178"><ele>1212.0</ele><time>2026-05-02T15:39:37.134Z</time></trkpt><trkpt lat="42.2641326" lon="13.2375787"><ele>1212.0</ele><time>2026-05-02T15:39:41.138Z</time></trkpt><trkpt lat="42.2641928" lon="13.2375403"><ele>1212.0</ele><time>2026-05-02T15:39:45.135Z</time></trkpt><trkpt lat="42.2642605" lon="13.2375244"><ele>1212.0</ele><time>2026-05-02T15:39:48.132Z</time></trkpt><trkpt lat="42.2643254" lon="13.2374927"><ele>1212.0</ele><time>2026-05-02T15:39:54.131Z</time></trkpt><trkpt lat="42.2644154" lon="13.2374752"><ele>1212.0</ele><time>2026-05-02T15:39:56.126Z</time></trkpt><trkpt lat="42.2644943" lon="13.2374534"><ele>1212.0</ele><time>2026-05-02T15:39:57.121Z</time></trkpt><trkpt lat="42.2645913" lon="13.2374562"><ele>1212.0</ele><time>2026-05-02T15:39:58.128Z</time></trkpt><trkpt lat="42.264684" lon="13.2374748"><ele>1212.0</ele><time>2026-05-02T15:39:59.133Z</time></trkpt><trkpt lat="42.2647507" lon="13.2375231"><ele>1212.0</ele><time>2026-05-02T15:40:00.126Z</time></trkpt><trkpt lat="42.2648335" lon="13.237643"><ele>1212.0</ele><time>2026-05-02T15:40:02.13Z</time></trkpt><trkpt lat="42.2648838" lon="13.2377346"><ele>1212.0</ele><time>2026-05-02T15:40:03.137Z</time></trkpt><trkpt lat="42.2649371" lon="13.2378314"><ele>1212.6</ele><time>2026-05-02T15:40:04.13Z</time></trkpt><trkpt lat="42.2650156" lon="13.2379167"><ele>1213.2</ele><time>2026-05-02T15:40:05.141Z</time></trkpt><trkpt lat="42.2651015" lon="13.2379961"><ele>1213.8</ele><time>2026-05-02T15:40:06.136Z</time></trkpt><trkpt lat="42.2651826" lon="13.2380762"><ele>1214.4</ele><time>2026-05-02T15:40:07.14Z</time></trkpt><trkpt lat="42.2652579" lon="13.2381735"><ele>1215.0</ele><time>2026-05-02T15:40:08.129Z</time></trkpt><trkpt lat="42.2653216" lon="13.2383063"><ele>1213.0</ele><time>2026-05-02T15:40:09.132Z</time></trkpt><trkpt lat="42.2653807" lon="13.2384494"><ele>1211.0</ele><time>2026-05-02T15:40:10.126Z</time></trkpt><trkpt lat="42.265437" lon="13.2386009"><ele>1209.0</ele><time>2026-05-02T15:40:11.136Z</time></trkpt><trkpt lat="42.2654975" lon="13.238735"><ele>1207.0</ele><time>2026-05-02T15:40:12.132Z</time></trkpt><trkpt lat="42.2655603" lon="13.2388588"><ele>1206.3333333333333</ele><time>2026-05-02T15:40:13.136Z</time></trkpt><trkpt lat="42.2656191" lon="13.2389809"><ele>1205.6666666666665</ele><time>2026-05-02T15:40:14.133Z</time></trkpt><trkpt lat="42.2656701" lon="13.2390864"><ele>1205.0</ele><time>2026-05-02T15:40:15.133Z</time></trkpt><trkpt lat="42.2657099" lon="13.2391807"><ele>1204.3333333333333</ele><time>2026-05-02T15:40:16.125Z</time></trkpt><trkpt lat="42.2657358" lon="13.2392745"><ele>1203.6666666666667</ele><time>2026-05-02T15:40:17.149Z</time></trkpt><trkpt lat="42.2657565" lon="13.2393728"><ele>1203.0</ele><time>2026-05-02T15:40:18.137Z</time></trkpt><trkpt lat="42.2657795" lon="13.2394911"><ele>1203.0</ele><time>2026-05-02T15:40:19.135Z</time></trkpt><trkpt lat="42.2658165" lon="13.2396185"><ele>1203.0</ele><time>2026-05-02T15:40:20.134Z</time></trkpt><trkpt lat="42.265874" lon="13.239746"><ele>1203.0</ele><time>2026-05-02T15:40:21.136Z</time></trkpt><trkpt lat="42.2659532" lon="13.2398732"><ele>1203.0</ele><time>2026-05-02T15:40:22.135Z</time></trkpt><trkpt lat="42.2660507" lon="13.2400103"><ele>1201.5</ele><time>2026-05-02T15:40:23.135Z</time></trkpt><trkpt lat="42.2661571" lon="13.2401438"><ele>1200.0</ele><time>2026-05-02T15:40:24.137Z</time></trkpt><trkpt lat="42.2662655" lon="13.2402983"><ele>1198.5</ele><time>2026-05-02T15:40:25.136Z</time></trkpt><trkpt lat="42.2663624" lon="13.240417"><ele>1197.0</ele><time>2026-05-02T15:40:26.135Z</time></trkpt><trkpt lat="42.2664758" lon="13.2405163"><ele>1197.0</ele><time>2026-05-02T15:40:27.13Z</time></trkpt><trkpt lat="42.2665912" lon="13.2406045"><ele>1197.0</ele><time>2026-05-02T15:40:28.14Z</time></trkpt><trkpt lat="42.2667155" lon="13.2407009"><ele>1197.0</ele><time>2026-05-02T15:40:29.144Z</time></trkpt><trkpt lat="42.2668513" lon="13.2407875"><ele>1197.0</ele><time>2026-05-02T15:40:30.135Z</time></trkpt><trkpt lat="42.2669794" lon="13.2408414"><ele>1194.0</ele><time>2026-05-02T15:40:31.137Z</time></trkpt><trkpt lat="42.2671014" lon="13.2408868"><ele>1191.0</ele><time>2026-05-02T15:40:32.13Z</time></trkpt><trkpt lat="42.2672233" lon="13.2409224"><ele>1188.0</ele><time>2026-05-02T15:40:33.137Z</time></trkpt><trkpt lat="42.2673438" lon="13.2409471"><ele>1185.0</ele><time>2026-05-02T15:40:34.133Z</time></trkpt><trkpt lat="42.2674581" lon="13.2409802"><ele>1184.8</ele><time>2026-05-02T15:40:35.135Z</time></trkpt><trkpt lat="42.2675658" lon="13.2410186"><ele>1184.6</ele><time>2026-05-02T15:40:36.131Z</time></trkpt><trkpt lat="42.2676698" lon="13.2410584"><ele>1184.4</ele><time>2026-05-02T15:40:37.133Z</time></trkpt><trkpt lat="42.267777" lon="13.2411165"><ele>1184.2</ele><time>2026-05-02T15:40:38.138Z</time></trkpt><trkpt lat="42.267875" lon="13.2411897"><ele>1184.0</ele><time>2026-05-02T15:40:39.129Z</time></trkpt><trkpt lat="42.2679551" lon="13.2412829"><ele>1184.0</ele><time>2026-05-02T15:40:40.138Z</time></trkpt><trkpt lat="42.2680057" lon="13.2413787"><ele>1184.0</ele><time>2026-05-02T15:40:41.133Z</time></trkpt><trkpt lat="42.2680255" lon="13.2414953"><ele>1184.0</ele><time>2026-05-02T15:40:42.135Z</time></trkpt><trkpt lat="42.2680157" lon="13.2416495"><ele>1184.0</ele><time>2026-05-02T15:40:43.13Z</time></trkpt><trkpt lat="42.2679996" lon="13.241817"><ele>1184.0</ele><time>2026-05-02T15:40:44.136Z</time></trkpt><trkpt lat="42.2679843" lon="13.2419765"><ele>1184.2</ele><time>2026-05-02T15:40:45.129Z</time></trkpt><trkpt lat="42.2679811" lon="13.2421168"><ele>1184.4</ele><time>2026-05-02T15:40:46.135Z</time></trkpt><trkpt lat="42.2679993" lon="13.2422673"><ele>1184.6</ele><time>2026-05-02T15:40:47.136Z</time></trkpt><trkpt lat="42.268026" lon="13.2424257"><ele>1184.8</ele><time>2026-05-02T15:40:48.134Z</time></trkpt><trkpt lat="42.2680562" lon="13.2425662"><ele>1185.0</ele><time>2026-05-02T15:40:49.132Z</time></trkpt><trkpt lat="42.2680941" lon="13.2426971"><ele>1183.8</ele><time>2026-05-02T15:40:50.137Z</time></trkpt><trkpt lat="42.2681311" lon="13.2428134"><ele>1182.6</ele><time>2026-05-02T15:40:51.136Z</time></trkpt><trkpt lat="42.2681708" lon="13.2429191"><ele>1181.4</ele><time>2026-05-02T15:40:52.134Z</time></trkpt><trkpt lat="42.2682278" lon="13.2430051"><ele>1180.2</ele><time>2026-05-02T15:40:53.138Z</time></trkpt><trkpt lat="42.2683111" lon="13.2430734"><ele>1179.0</ele><time>2026-05-02T15:40:54.14Z</time></trkpt><trkpt lat="42.2684178" lon="13.2431009"><ele>1179.0</ele><time>2026-05-02T15:40:55.136Z</time></trkpt><trkpt lat="42.2685298" lon="13.243111"><ele>1179.0</ele><time>2026-05-02T15:40:56.136Z</time></trkpt><trkpt lat="42.2686542" lon="13.2431009"><ele>1179.0</ele><time>2026-05-02T15:40:57.132Z</time></trkpt><trkpt lat="42.2687849" lon="13.2430898"><ele>1179.0</ele><time>2026-05-02T15:40:58.13Z</time></trkpt><trkpt lat="42.2689118" lon="13.2431118"><ele>1180.6000000000001</ele><time>2026-05-02T15:40:59.132Z</time></trkpt><trkpt lat="42.2690373" lon="13.243153"><ele>1182.2</ele><time>2026-05-02T15:41:00.132Z</time></trkpt><trkpt lat="42.2691552" lon="13.2432162"><ele>1183.8000000000002</ele><time>2026-05-02T15:41:01.131Z</time></trkpt><trkpt lat="42.2692561" lon="13.2432885"><ele>1185.4</ele><time>2026-05-02T15:41:02.124Z</time></trkpt><trkpt lat="42.2693248" lon="13.2433375"><ele>1187.0</ele><time>2026-05-02T15:41:03.123Z</time></trkpt><trkpt lat="42.2693853" lon="13.2433654"><ele>1187.0</ele><time>2026-05-02T15:41:04.128Z</time></trkpt><trkpt lat="42.2694569" lon="13.243382"><ele>1187.0</ele><time>2026-05-02T15:41:05.126Z</time></trkpt><trkpt lat="42.2695405" lon="13.2433952"><ele>1187.0</ele><time>2026-05-02T15:41:06.124Z</time></trkpt><trkpt lat="42.2696266" lon="13.243416"><ele>1187.0</ele><time>2026-05-02T15:41:07.13Z</time></trkpt><trkpt lat="42.269714" lon="13.2434263"><ele>1187.0</ele><time>2026-05-02T15:41:08.134Z</time></trkpt><trkpt lat="42.269804" lon="13.2434229"><ele>1187.0</ele><time>2026-05-02T15:41:09.127Z</time></trkpt><trkpt lat="42.269901" lon="13.2433996"><ele>1188.2</ele><time>2026-05-02T15:41:10.124Z</time></trkpt><trkpt lat="42.2700057" lon="13.2433712"><ele>1189.4</ele><time>2026-05-02T15:41:11.125Z</time></trkpt><trkpt lat="42.2701013" lon="13.2433304"><ele>1190.6</ele><time>2026-05-02T15:41:12.126Z</time></trkpt><trkpt lat="42.2701923" lon="13.2432645"><ele>1191.8</ele><time>2026-05-02T15:41:13.126Z</time></trkpt><trkpt lat="42.2702781" lon="13.2431801"><ele>1193.0</ele><time>2026-05-02T15:41:14.121Z</time></trkpt><trkpt lat="42.2703552" lon="13.2430674"><ele>1193.4</ele><time>2026-05-02T15:41:15.12Z</time></trkpt><trkpt lat="42.2704409" lon="13.2429479"><ele>1193.8</ele><time>2026-05-02T15:41:16.122Z</time></trkpt><trkpt lat="42.2705258" lon="13.2428559"><ele>1194.2</ele><time>2026-05-02T15:41:17.125Z</time></trkpt><trkpt lat="42.2706155" lon="13.2427835"><ele>1194.6</ele><time>2026-05-02T15:41:18.132Z</time></trkpt><trkpt lat="42.2707137" lon="13.2427207"><ele>1195.0</ele><time>2026-05-02T15:41:19.124Z</time></trkpt><trkpt lat="42.2708145" lon="13.2426677"><ele>1193.75</ele><time>2026-05-02T15:41:20.13Z</time></trkpt><trkpt lat="42.2709115" lon="13.2426111"><ele>1192.5</ele><time>2026-05-02T15:41:21.124Z</time></trkpt><trkpt lat="42.2710138" lon="13.2425451"><ele>1191.25</ele><time>2026-05-02T15:41:22.13Z</time></trkpt><trkpt lat="42.271117" lon="13.2424701"><ele>1190.0</ele><time>2026-05-02T15:41:23.129Z</time></trkpt><trkpt lat="42.2712199" lon="13.2424003"><ele>1190.0</ele><time>2026-05-02T15:41:24.133Z</time></trkpt><trkpt lat="42.2713172" lon="13.2423355"><ele>1190.0</ele><time>2026-05-02T15:41:25.131Z</time></trkpt><trkpt lat="42.2714041" lon="13.2422845"><ele>1190.0</ele><time>2026-05-02T15:41:26.131Z</time></trkpt><trkpt lat="42.2714893" lon="13.242236"><ele>1190.0</ele><time>2026-05-02T15:41:27.133Z</time></trkpt><trkpt lat="42.2715741" lon="13.242186"><ele>1190.0</ele><time>2026-05-02T15:41:28.128Z</time></trkpt><trkpt lat="42.2716594" lon="13.2421211"><ele>1189.4</ele><time>2026-05-02T15:41:29.129Z</time></trkpt><trkpt lat="42.2717406" lon="13.2420428"><ele>1188.8</ele><time>2026-05-02T15:41:30.127Z</time></trkpt><trkpt lat="42.2718177" lon="13.2419575"><ele>1188.2</ele><time>2026-05-02T15:41:31.132Z</time></trkpt><trkpt lat="42.2718909" lon="13.2418664"><ele>1187.6</ele><time>2026-05-02T15:41:32.125Z</time></trkpt><trkpt lat="42.2719687" lon="13.241772"><ele>1187.0</ele><time>2026-05-02T15:41:33.127Z</time></trkpt><trkpt lat="42.2720449" lon="13.2416884"><ele>1187.0</ele><time>2026-05-02T15:41:34.119Z</time></trkpt><trkpt lat="42.2721185" lon="13.241614"><ele>1187.0</ele><time>2026-05-02T15:41:35.128Z</time></trkpt><trkpt lat="42.2721842" lon="13.2415596"><ele>1187.0</ele><time>2026-05-02T15:41:36.12Z</time></trkpt><trkpt lat="42.2722524" lon="13.2415333"><ele>1187.0</ele><time>2026-05-02T15:41:37.122Z</time></trkpt><trkpt lat="42.2723351" lon="13.2415283"><ele>1187.0</ele><time>2026-05-02T15:41:38.128Z</time></trkpt><trkpt lat="42.2724233" lon="13.2415394"><ele>1187.0</ele><time>2026-05-02T15:41:39.128Z</time></trkpt><trkpt lat="42.2725239" lon="13.2415688"><ele>1185.75</ele><time>2026-05-02T15:41:40.132Z</time></trkpt><trkpt lat="42.2726361" lon="13.2415999"><ele>1184.5</ele><time>2026-05-02T15:41:41.129Z</time></trkpt><trkpt lat="42.2727447" lon="13.2416279"><ele>1183.25</ele><time>2026-05-02T15:41:42.134Z</time></trkpt><trkpt lat="42.2728694" lon="13.2416569"><ele>1182.0</ele><time>2026-05-02T15:41:43.126Z</time></trkpt><trkpt lat="42.2729977" lon="13.2416827"><ele>1181.4</ele><time>2026-05-02T15:41:44.125Z</time></trkpt><trkpt lat="42.2731263" lon="13.2417065"><ele>1180.8000000000002</ele><time>2026-05-02T15:41:45.127Z</time></trkpt><trkpt lat="42.2732387" lon="13.2417237"><ele>1180.2</ele><time>2026-05-02T15:41:46.123Z</time></trkpt><trkpt lat="42.2733439" lon="13.2417335"><ele>1179.6000000000001</ele><time>2026-05-02T15:41:47.131Z</time></trkpt><trkpt lat="42.2734396" lon="13.2417324"><ele>1179.0</ele><time>2026-05-02T15:41:48.123Z</time></trkpt><trkpt lat="42.2735154" lon="13.2417411"><ele>1179.0</ele><time>2026-05-02T15:41:49.128Z</time></trkpt><trkpt lat="42.2735849" lon="13.2417687"><ele>1179.0</ele><time>2026-05-02T15:41:50.121Z</time></trkpt><trkpt lat="42.2736471" lon="13.241819"><ele>1179.0</ele><time>2026-05-02T15:41:51.123Z</time></trkpt><trkpt lat="42.27371" lon="13.2418959"><ele>1179.0</ele><time>2026-05-02T15:41:52.124Z</time></trkpt><trkpt lat="42.2737778" lon="13.2419946"><ele>1179.0</ele><time>2026-05-02T15:41:53.128Z</time></trkpt><trkpt lat="42.2738538" lon="13.242102"><ele>1179.0</ele><time>2026-05-02T15:41:54.134Z</time></trkpt><trkpt lat="42.2739335" lon="13.2421916"><ele>1179.5</ele><time>2026-05-02T15:41:55.137Z</time></trkpt><trkpt lat="42.2740029" lon="13.2422581"><ele>1180.0</ele><time>2026-05-02T15:41:56.116Z</time></trkpt><trkpt lat="42.2740551" lon="13.2423081"><ele>1180.5</ele><time>2026-05-02T15:41:57.12Z</time></trkpt><trkpt lat="42.2741236" lon="13.2423626"><ele>1181.0</ele><time>2026-05-02T15:41:59.131Z</time></trkpt><trkpt lat="42.2741947" lon="13.2424593"><ele>1181.5</ele><time>2026-05-02T15:42:02.129Z</time></trkpt><trkpt lat="42.2742382" lon="13.2425965"><ele>1182.0</ele><time>2026-05-02T15:42:04.118Z</time></trkpt><trkpt lat="42.2742486" lon="13.2426906"><ele>1183.2</ele><time>2026-05-02T15:42:05.122Z</time></trkpt><trkpt lat="42.2742456" lon="13.2427784"><ele>1184.4</ele><time>2026-05-02T15:42:06.123Z</time></trkpt><trkpt lat="42.2742505" lon="13.242928"><ele>1185.6</ele><time>2026-05-02T15:42:08.121Z</time></trkpt><trkpt lat="42.274249" lon="13.2430529"><ele>1186.8</ele><time>2026-05-02T15:42:10.132Z</time></trkpt><trkpt lat="42.2742752" lon="13.2431647"><ele>1188.0</ele><time>2026-05-02T15:42:12.131Z</time></trkpt><trkpt lat="42.2743604" lon="13.2433223"><ele>1188.0</ele><time>2026-05-02T15:42:14.131Z</time></trkpt><trkpt lat="42.2744309" lon="13.2434048"><ele>1188.0</ele><time>2026-05-02T15:42:15.129Z</time></trkpt><trkpt lat="42.2745226" lon="13.2434816"><ele>1188.0</ele><time>2026-05-02T15:42:16.13Z</time></trkpt><trkpt lat="42.2746193" lon="13.2435511"><ele>1188.0</ele><time>2026-05-02T15:42:17.134Z</time></trkpt><trkpt lat="42.2747156" lon="13.2436167"><ele>1188.0</ele><time>2026-05-02T15:42:18.131Z</time></trkpt><trkpt lat="42.2748145" lon="13.2436932"><ele>1191.0</ele><time>2026-05-02T15:42:19.127Z</time></trkpt><trkpt lat="42.2749122" lon="13.2437782"><ele>1194.0</ele><time>2026-05-02T15:42:20.13Z</time></trkpt><trkpt lat="42.2750088" lon="13.2438646"><ele>1197.0</ele><time>2026-05-02T15:42:21.127Z</time></trkpt><trkpt lat="42.2750991" lon="13.2439395"><ele>1200.0</ele><time>2026-05-02T15:42:22.121Z</time></trkpt><trkpt lat="42.2751973" lon="13.2440152"><ele>1200.0</ele><time>2026-05-02T15:42:23.128Z</time></trkpt><trkpt lat="42.2752983" lon="13.2440885"><ele>1200.0</ele><time>2026-05-02T15:42:24.132Z</time></trkpt><trkpt lat="42.2754" lon="13.2441716"><ele>1200.0</ele><time>2026-05-02T15:42:25.13Z</time></trkpt><trkpt lat="42.2754902" lon="13.2442415"><ele>1200.0</ele><time>2026-05-02T15:42:26.131Z</time></trkpt><trkpt lat="42.2755808" lon="13.2443116"><ele>1200.0</ele><time>2026-05-02T15:42:27.127Z</time></trkpt><trkpt lat="42.2756648" lon="13.2443907"><ele>1201.8</ele><time>2026-05-02T15:42:28.129Z</time></trkpt><trkpt lat="42.2757467" lon="13.2444638"><ele>1203.6</ele><time>2026-05-02T15:42:29.128Z</time></trkpt><trkpt lat="42.2758259" lon="13.2445212"><ele>1205.4</ele><time>2026-05-02T15:42:30.121Z</time></trkpt><trkpt lat="42.2759112" lon="13.2445539"><ele>1207.2</ele><time>2026-05-02T15:42:31.129Z</time></trkpt><trkpt lat="42.2759997" lon="13.2445828"><ele>1209.0</ele><time>2026-05-02T15:42:32.124Z</time></trkpt><trkpt lat="42.2760871" lon="13.2446097"><ele>1209.0</ele><time>2026-05-02T15:42:33.138Z</time></trkpt><trkpt lat="42.2761701" lon="13.2446374"><ele>1209.0</ele><time>2026-05-02T15:42:34.122Z</time></trkpt><trkpt lat="42.2762438" lon="13.2446579"><ele>1209.0</ele><time>2026-05-02T15:42:35.128Z</time></trkpt><trkpt lat="42.2763606" lon="13.2446976"><ele>1209.0</ele><time>2026-05-02T15:42:37.13Z</time></trkpt><trkpt lat="42.2764161" lon="13.244743"><ele>1209.0</ele><time>2026-05-02T15:42:38.127Z</time></trkpt><trkpt lat="42.27648" lon="13.2447995"><ele>1209.0</ele><time>2026-05-02T15:42:39.13Z</time></trkpt><trkpt lat="42.2765571" lon="13.2448713"><ele>1209.6666666666667</ele><time>2026-05-02T15:42:40.126Z</time></trkpt><trkpt lat="42.276635" lon="13.2449574"><ele>1210.3333333333333</ele><time>2026-05-02T15:42:41.127Z</time></trkpt><trkpt lat="42.276699" lon="13.245034"><ele>1211.0</ele><time>2026-05-02T15:42:42.132Z</time></trkpt><trkpt lat="42.2767507" lon="13.2450982"><ele>1211.6666666666665</ele><time>2026-05-02T15:42:43.125Z</time></trkpt><trkpt lat="42.2768023" lon="13.2451493"><ele>1212.3333333333333</ele><time>2026-05-02T15:42:44.133Z</time></trkpt><trkpt lat="42.2769098" lon="13.2452046"><ele>1213.0</ele><time>2026-05-02T15:42:46.12Z</time></trkpt><trkpt lat="42.276975" lon="13.2452327"><ele>1213.0</ele><time>2026-05-02T15:42:47.129Z</time></trkpt><trkpt lat="42.2770556" lon="13.2452699"><ele>1213.0</ele><time>2026-05-02T15:42:48.128Z</time></trkpt><trkpt lat="42.2771324" lon="13.2453148"><ele>1213.0</ele><time>2026-05-02T15:42:49.126Z</time></trkpt><trkpt lat="42.2772004" lon="13.2453609"><ele>1213.0</ele><time>2026-05-02T15:42:50.13Z</time></trkpt><trkpt lat="42.2772669" lon="13.2454079"><ele>1213.0</ele><time>2026-05-02T15:42:51.125Z</time></trkpt><trkpt lat="42.2773315" lon="13.2454691"><ele>1213.0</ele><time>2026-05-02T15:42:52.121Z</time></trkpt><trkpt lat="42.2774051" lon="13.2455487"><ele>1211.6666666666665</ele><time>2026-05-02T15:42:53.129Z</time></trkpt><trkpt lat="42.2774599" lon="13.2456562"><ele>1210.3333333333333</ele><time>2026-05-02T15:42:54.135Z</time></trkpt><trkpt lat="42.2775072" lon="13.2457468"><ele>1209.0</ele><time>2026-05-02T15:42:55.136Z</time></trkpt><trkpt lat="42.2775625" lon="13.245832"><ele>1207.6666666666667</ele><time>2026-05-02T15:42:56.128Z</time></trkpt><trkpt lat="42.277621" lon="13.2458936"><ele>1206.3333333333335</ele><time>2026-05-02T15:42:57.128Z</time></trkpt><trkpt lat="42.2776899" lon="13.2459389"><ele>1205.0</ele><time>2026-05-02T15:42:58.127Z</time></trkpt><trkpt lat="42.2777562" lon="13.2459814"><ele>1205.0</ele><time>2026-05-02T15:42:59.125Z</time></trkpt><trkpt lat="42.277873" lon="13.2459989"><ele>1205.0</ele><time>2026-05-02T15:43:00.13Z</time></trkpt><trkpt lat="42.2779743" lon="13.2460205"><ele>1205.0</ele><time>2026-05-02T15:43:01.135Z</time></trkpt><trkpt lat="42.2780779" lon="13.2460411"><ele>1205.0</ele><time>2026-05-02T15:43:02.13Z</time></trkpt><trkpt lat="42.278178" lon="13.2460482"><ele>1205.0</ele><time>2026-05-02T15:43:03.129Z</time></trkpt><trkpt lat="42.2782723" lon="13.2460533"><ele>1202.6</ele><time>2026-05-02T15:43:04.136Z</time></trkpt><trkpt lat="42.2783689" lon="13.2460398"><ele>1200.2</ele><time>2026-05-02T15:43:05.127Z</time></trkpt><trkpt lat="42.2784639" lon="13.2460153"><ele>1197.8</ele><time>2026-05-02T15:43:06.133Z</time></trkpt><trkpt lat="42.2785597" lon="13.2459707"><ele>1195.4</ele><time>2026-05-02T15:43:07.132Z</time></trkpt><trkpt lat="42.2786669" lon="13.2459047"><ele>1193.0</ele><time>2026-05-02T15:43:08.135Z</time></trkpt><trkpt lat="42.2787825" lon="13.2458319"><ele>1193.0</ele><time>2026-05-02T15:43:09.131Z</time></trkpt><trkpt lat="42.2789032" lon="13.2457652"><ele>1193.0</ele><time>2026-05-02T15:43:10.13Z</time></trkpt><trkpt lat="42.279027" lon="13.2457058"><ele>1193.0</ele><time>2026-05-02T15:43:11.132Z</time></trkpt><trkpt lat="42.2791546" lon="13.2456571"><ele>1193.0</ele><time>2026-05-02T15:43:12.131Z</time></trkpt><trkpt lat="42.2792824" lon="13.2456146"><ele>1194.25</ele><time>2026-05-02T15:43:13.131Z</time></trkpt><trkpt lat="42.2794106" lon="13.2455712"><ele>1195.5</ele><time>2026-05-02T15:43:14.133Z</time></trkpt><trkpt lat="42.2795312" lon="13.2455233"><ele>1196.75</ele><time>2026-05-02T15:43:15.132Z</time></trkpt><trkpt lat="42.2796465" lon="13.2454713"><ele>1198.0</ele><time>2026-05-02T15:43:16.131Z</time></trkpt><trkpt lat="42.2797594" lon="13.245425"><ele>1196.5</ele><time>2026-05-02T15:43:17.138Z</time></trkpt><trkpt lat="42.2798717" lon="13.2453717"><ele>1195.0</ele><time>2026-05-02T15:43:18.132Z</time></trkpt><trkpt lat="42.2799861" lon="13.245309"><ele>1193.5</ele><time>2026-05-02T15:43:19.129Z</time></trkpt><trkpt lat="42.2800971" lon="13.2452318"><ele>1192.0</ele><time>2026-05-02T15:43:20.133Z</time></trkpt><trkpt lat="42.2802058" lon="13.245147"><ele>1192.0</ele><time>2026-05-02T15:43:21.128Z</time></trkpt><trkpt lat="42.2803148" lon="13.2450533"><ele>1192.0</ele><time>2026-05-02T15:43:22.132Z</time></trkpt><trkpt lat="42.2804216" lon="13.2449574"><ele>1192.0</ele><time>2026-05-02T15:43:23.125Z</time></trkpt><trkpt lat="42.2805323" lon="13.2448709"><ele>1192.0</ele><time>2026-05-02T15:43:24.124Z</time></trkpt><trkpt lat="42.280648" lon="13.244788"><ele>1192.75</ele><time>2026-05-02T15:43:25.123Z</time></trkpt><trkpt lat="42.280776" lon="13.2447241"><ele>1193.5</ele><time>2026-05-02T15:43:26.128Z</time></trkpt><trkpt lat="42.2809159" lon="13.2447088"><ele>1194.25</ele><time>2026-05-02T15:43:27.13Z</time></trkpt><trkpt lat="42.2810185" lon="13.2446526"><ele>1195.0</ele><time>2026-05-02T15:43:28.128Z</time></trkpt><trkpt lat="42.2811253" lon="13.2446084"><ele>1195.0</ele><time>2026-05-02T15:43:29.126Z</time></trkpt><trkpt lat="42.2812068" lon="13.2445712"><ele>1195.0</ele><time>2026-05-02T15:43:30.125Z</time></trkpt><trkpt lat="42.2812881" lon="13.2445601"><ele>1195.0</ele><time>2026-05-02T15:43:31.131Z</time></trkpt><trkpt lat="42.2813779" lon="13.2445586"><ele>1195.0</ele><time>2026-05-02T15:43:32.123Z</time></trkpt><trkpt lat="42.2814787" lon="13.2445738"><ele>1195.0</ele><time>2026-05-02T15:43:33.123Z</time></trkpt><trkpt lat="42.2815812" lon="13.2445991"><ele>1193.4</ele><time>2026-05-02T15:43:34.124Z</time></trkpt><trkpt lat="42.2816918" lon="13.2446329"><ele>1191.8</ele><time>2026-05-02T15:43:35.131Z</time></trkpt><trkpt lat="42.2818032" lon="13.2446701"><ele>1190.2</ele><time>2026-05-02T15:43:36.129Z</time></trkpt><trkpt lat="42.2819071" lon="13.2447058"><ele>1188.6</ele><time>2026-05-02T15:43:37.129Z</time></trkpt><trkpt lat="42.282005" lon="13.2447381"><ele>1187.0</ele><time>2026-05-02T15:43:38.126Z</time></trkpt><trkpt lat="42.2820937" lon="13.2447641"><ele>1187.0</ele><time>2026-05-02T15:43:39.123Z</time></trkpt><trkpt lat="42.2821708" lon="13.2447768"><ele>1187.0</ele><time>2026-05-02T15:43:40.121Z</time></trkpt><trkpt lat="42.2822384" lon="13.2447677"><ele>1187.0</ele><time>2026-05-02T15:43:41.119Z</time></trkpt><trkpt lat="42.2823273" lon="13.2446767"><ele>1187.0</ele><time>2026-05-02T15:43:43.119Z</time></trkpt><trkpt lat="42.2823525" lon="13.2445964"><ele>1187.0</ele><time>2026-05-02T15:43:44.125Z</time></trkpt><trkpt lat="42.2823742" lon="13.2444977"><ele>1187.0</ele><time>2026-05-02T15:43:45.125Z</time></trkpt><trkpt lat="42.2823946" lon="13.2443788"><ele>1187.0</ele><time>2026-05-02T15:43:46.127Z</time></trkpt><trkpt lat="42.2824268" lon="13.2442485"><ele>1187.0</ele><time>2026-05-02T15:43:47.126Z</time></trkpt><trkpt lat="42.2824804" lon="13.2441239"><ele>1187.0</ele><time>2026-05-02T15:43:48.121Z</time></trkpt><trkpt lat="42.2825488" lon="13.2440003"><ele>1187.0</ele><time>2026-05-02T15:43:49.122Z</time></trkpt><trkpt lat="42.2826371" lon="13.2438893"><ele>1187.0</ele><time>2026-05-02T15:43:50.127Z</time></trkpt><trkpt lat="42.2827301" lon="13.2437832"><ele>1187.0</ele><time>2026-05-02T15:43:51.129Z</time></trkpt><trkpt lat="42.2828161" lon="13.2436934"><ele>1187.0</ele><time>2026-05-02T15:43:52.129Z</time></trkpt><trkpt lat="42.2828924" lon="13.2436078"><ele>1187.0</ele><time>2026-05-02T15:43:53.125Z</time></trkpt><trkpt lat="42.2829524" lon="13.2435279"><ele>1187.0</ele><time>2026-05-02T15:43:54.123Z</time></trkpt><trkpt lat="42.2829949" lon="13.243442"><ele>1187.0</ele><time>2026-05-02T15:43:55.126Z</time></trkpt><trkpt lat="42.2830305" lon="13.2433486"><ele>1187.0</ele><time>2026-05-02T15:43:56.126Z</time></trkpt><trkpt lat="42.2830548" lon="13.2432403"><ele>1186.0</ele><time>2026-05-02T15:43:57.123Z</time></trkpt><trkpt lat="42.2830697" lon="13.243119"><ele>1185.0</ele><time>2026-05-02T15:43:58.126Z</time></trkpt><trkpt lat="42.2830646" lon="13.2429786"><ele>1184.0</ele><time>2026-05-02T15:43:59.128Z</time></trkpt><trkpt lat="42.2830444" lon="13.2428342"><ele>1183.0</ele><time>2026-05-02T15:44:00.121Z</time></trkpt><trkpt lat="42.2830099" lon="13.2426834"><ele>1182.0</ele><time>2026-05-02T15:44:01.125Z</time></trkpt><trkpt lat="42.2829672" lon="13.2425254"><ele>1182.0</ele><time>2026-05-02T15:44:02.129Z</time></trkpt><trkpt lat="42.2829293" lon="13.2423801"><ele>1182.0</ele><time>2026-05-02T15:44:03.121Z</time></trkpt><trkpt lat="42.2828987" lon="13.2422419"><ele>1182.0</ele><time>2026-05-02T15:44:04.126Z</time></trkpt><trkpt lat="42.2828757" lon="13.24212"><ele>1182.0</ele><time>2026-05-02T15:44:05.122Z</time></trkpt><trkpt lat="42.2828661" lon="13.2420144"><ele>1182.0</ele><time>2026-05-02T15:44:06.131Z</time></trkpt><trkpt lat="42.282868" lon="13.241918"><ele>1182.6</ele><time>2026-05-02T15:44:07.12Z</time></trkpt><trkpt lat="42.2829066" lon="13.2417899"><ele>1183.2</ele><time>2026-05-02T15:44:09.125Z</time></trkpt><trkpt lat="42.2830251" lon="13.2417695"><ele>1183.8</ele><time>2026-05-02T15:44:11.125Z</time></trkpt><trkpt lat="42.2830949" lon="13.2417953"><ele>1184.4</ele><time>2026-05-02T15:44:12.125Z</time></trkpt><trkpt lat="42.2831783" lon="13.2418258"><ele>1185.0</ele><time>2026-05-02T15:44:13.121Z</time></trkpt><trkpt lat="42.2832745" lon="13.2418506"><ele>1185.0</ele><time>2026-05-02T15:44:14.129Z</time></trkpt><trkpt lat="42.2833817" lon="13.2418721"><ele>1185.0</ele><time>2026-05-02T15:44:15.126Z</time></trkpt><trkpt lat="42.2834934" lon="13.2418995"><ele>1185.0</ele><time>2026-05-02T15:44:16.128Z</time></trkpt><trkpt lat="42.2836059" lon="13.2419193"><ele>1185.0</ele><time>2026-05-02T15:44:17.129Z</time></trkpt><trkpt lat="42.2837118" lon="13.2419248"><ele>1185.0</ele><time>2026-05-02T15:44:18.126Z</time></trkpt><trkpt lat="42.283807" lon="13.2419116"><ele>1185.0</ele><time>2026-05-02T15:44:19.127Z</time></trkpt><trkpt lat="42.2838904" lon="13.2418776"><ele>1185.0</ele><time>2026-05-02T15:44:20.122Z</time></trkpt><trkpt lat="42.2839708" lon="13.2418259"><ele>1185.0</ele><time>2026-05-02T15:44:21.129Z</time></trkpt><trkpt lat="42.2840458" lon="13.2417577"><ele>1185.0</ele><time>2026-05-02T15:44:22.123Z</time></trkpt><trkpt lat="42.2841153" lon="13.2416802"><ele>1185.0</ele><time>2026-05-02T15:44:23.13Z</time></trkpt><trkpt lat="42.2841845" lon="13.2415979"><ele>1185.0</ele><time>2026-05-02T15:44:24.128Z</time></trkpt><trkpt lat="42.2842679" lon="13.2415182"><ele>1189.25</ele><time>2026-05-02T15:44:25.128Z</time></trkpt><trkpt lat="42.2843704" lon="13.2414399"><ele>1193.5</ele><time>2026-05-02T15:44:26.125Z</time></trkpt><trkpt lat="42.284487" lon="13.2413574"><ele>1197.75</ele><time>2026-05-02T15:44:27.126Z</time></trkpt><trkpt lat="42.2846103" lon="13.241262"><ele>1202.0</ele><time>2026-05-02T15:44:28.135Z</time></trkpt><trkpt lat="42.2847497" lon="13.2411284"><ele>1198.3333333333335</ele><time>2026-05-02T15:44:29.126Z</time></trkpt><trkpt lat="42.2848771" lon="13.2409596"><ele>1194.6666666666667</ele><time>2026-05-02T15:44:30.121Z</time></trkpt><trkpt lat="42.2849866" lon="13.2408049"><ele>1191.0</ele><time>2026-05-02T15:44:31.132Z</time></trkpt><trkpt lat="42.2850975" lon="13.2406583"><ele>1195.25</ele><time>2026-05-02T15:44:32.127Z</time></trkpt><trkpt lat="42.2852185" lon="13.2405444"><ele>1199.5</ele><time>2026-05-02T15:44:33.129Z</time></trkpt><trkpt lat="42.2853412" lon="13.240446"><ele>1203.75</ele><time>2026-05-02T15:44:34.125Z</time></trkpt><trkpt lat="42.2854795" lon="13.2403714"><ele>1208.0</ele><time>2026-05-02T15:44:35.124Z</time></trkpt><trkpt lat="42.2856411" lon="13.2402834"><ele>1208.0</ele><time>2026-05-02T15:44:36.131Z</time></trkpt><trkpt lat="42.285807" lon="13.2401839"><ele>1208.0</ele><time>2026-05-02T15:44:37.124Z</time></trkpt><trkpt lat="42.2859463" lon="13.2400806"><ele>1208.0</ele><time>2026-05-02T15:44:38.127Z</time></trkpt><trkpt lat="42.2860863" lon="13.2399971"><ele>1208.0</ele><time>2026-05-02T15:44:39.118Z</time></trkpt><trkpt lat="42.2862513" lon="13.2399154"><ele>1208.0</ele><time>2026-05-02T15:44:40.125Z</time></trkpt><trkpt lat="42.2863922" lon="13.2398515"><ele>1208.0</ele><time>2026-05-02T15:44:41.12Z</time></trkpt><trkpt lat="42.2865312" lon="13.239756"><ele>1213.25</ele><time>2026-05-02T15:44:42.122Z</time></trkpt><trkpt lat="42.2866543" lon="13.2397057"><ele>1218.5</ele><time>2026-05-02T15:44:43.119Z</time></trkpt><trkpt lat="42.2867749" lon="13.2396805"><ele>1223.75</ele><time>2026-05-02T15:44:44.127Z</time></trkpt><trkpt lat="42.2868781" lon="13.2396827"><ele>1229.0</ele><time>2026-05-02T15:44:45.12Z</time></trkpt><trkpt lat="42.2870094" lon="13.2397048"><ele>1229.0</ele><time>2026-05-02T15:44:46.122Z</time></trkpt><trkpt lat="42.2871519" lon="13.2397187"><ele>1229.0</ele><time>2026-05-02T15:44:47.126Z</time></trkpt><trkpt lat="42.2872842" lon="13.2397016"><ele>1229.0</ele><time>2026-05-02T15:44:48.117Z</time></trkpt><trkpt lat="42.2874015" lon="13.239666"><ele>1229.0</ele><time>2026-05-02T15:44:49.119Z</time></trkpt><trkpt lat="42.2875023" lon="13.2396797"><ele>1228.0</ele><time>2026-05-02T15:44:50.118Z</time></trkpt><trkpt lat="42.2876108" lon="13.2397592"><ele>1227.0</ele><time>2026-05-02T15:44:51.121Z</time></trkpt><trkpt lat="42.2876994" lon="13.2398486"><ele>1226.0</ele><time>2026-05-02T15:44:52.122Z</time></trkpt><trkpt lat="42.2877816" lon="13.2399323"><ele>1225.0</ele><time>2026-05-02T15:44:53.129Z</time></trkpt><trkpt lat="42.2878749" lon="13.2399883"><ele>1224.0</ele><time>2026-05-02T15:44:54.128Z</time></trkpt><trkpt lat="42.2879784" lon="13.2399671"><ele>1225.5</ele><time>2026-05-02T15:44:55.122Z</time></trkpt><trkpt lat="42.2880941" lon="13.2399008"><ele>1227.0</ele><time>2026-05-02T15:44:56.122Z</time></trkpt><trkpt lat="42.2882188" lon="13.2398052"><ele>1228.5</ele><time>2026-05-02T15:44:57.12Z</time></trkpt><trkpt lat="42.2883571" lon="13.2397035"><ele>1230.0</ele><time>2026-05-02T15:44:58.127Z</time></trkpt><trkpt lat="42.2885368" lon="13.2396142"><ele>1230.0</ele><time>2026-05-02T15:44:59.122Z</time></trkpt><trkpt lat="42.2887066" lon="13.239552"><ele>1230.0</ele><time>2026-05-02T15:45:00.121Z</time></trkpt><trkpt lat="42.2888594" lon="13.2394781"><ele>1230.0</ele><time>2026-05-02T15:45:01.124Z</time></trkpt><trkpt lat="42.2890142" lon="13.2394028"><ele>1229.5</ele><time>2026-05-02T15:45:02.125Z</time></trkpt><trkpt lat="42.2891468" lon="13.239351"><ele>1229.0</ele><time>2026-05-02T15:45:03.123Z</time></trkpt><trkpt lat="42.2892816" lon="13.2393339"><ele>1228.5</ele><time>2026-05-02T15:45:04.118Z</time></trkpt><trkpt lat="42.2894246" lon="13.2393452"><ele>1228.0</ele><time>2026-05-02T15:45:05.119Z</time></trkpt><trkpt lat="42.2895674" lon="13.2393503"><ele>1228.0</ele><time>2026-05-02T15:45:06.125Z</time></trkpt><trkpt lat="42.2896946" lon="13.2393654"><ele>1228.0</ele><time>2026-05-02T15:45:07.115Z</time></trkpt><trkpt lat="42.28983" lon="13.2393215"><ele>1228.0</ele><time>2026-05-02T15:45:08.123Z</time></trkpt><trkpt lat="42.2899665" lon="13.2392394"><ele>1228.0</ele><time>2026-05-02T15:45:09.123Z</time></trkpt><trkpt lat="42.2901125" lon="13.23919"><ele>1229.0</ele><time>2026-05-02T15:45:10.118Z</time></trkpt><trkpt lat="42.2902539" lon="13.239216"><ele>1230.0</ele><time>2026-05-02T15:45:11.117Z</time></trkpt><trkpt lat="42.2903807" lon="13.2392679"><ele>1231.0</ele><time>2026-05-02T15:45:12.123Z</time></trkpt><trkpt lat="42.2905" lon="13.2393209"><ele>1232.0</ele><time>2026-05-02T15:45:13.118Z</time></trkpt><trkpt lat="42.2906406" lon="13.2393554"><ele>1232.25</ele><time>2026-05-02T15:45:14.118Z</time></trkpt><trkpt lat="42.2907701" lon="13.2393165"><ele>1232.5</ele><time>2026-05-02T15:45:15.127Z</time></trkpt><trkpt lat="42.2908993" lon="13.2392428"><ele>1232.75</ele><time>2026-05-02T15:45:16.127Z</time></trkpt><trkpt lat="42.2910487" lon="13.2391393"><ele>1233.0</ele><time>2026-05-02T15:45:17.134Z</time></trkpt><trkpt lat="42.2911816" lon="13.2390429"><ele>1233.0</ele><time>2026-05-02T15:45:18.121Z</time></trkpt><trkpt lat="42.2913386" lon="13.2390138"><ele>1233.0</ele><time>2026-05-02T15:45:19.124Z</time></trkpt><trkpt lat="42.2914985" lon="13.2390013"><ele>1233.0</ele><time>2026-05-02T15:45:20.118Z</time></trkpt><trkpt lat="42.2916477" lon="13.238974"><ele>1243.3333333333333</ele><time>2026-05-02T15:45:21.121Z</time></trkpt><trkpt lat="42.2918107" lon="13.2389457"><ele>1253.6666666666665</ele><time>2026-05-02T15:45:22.115Z</time></trkpt><trkpt lat="42.2919696" lon="13.2388798"><ele>1264.0</ele><time>2026-05-02T15:45:23.114Z</time></trkpt><trkpt lat="42.2921245" lon="13.2388131"><ele>1262.75</ele><time>2026-05-02T15:45:24.124Z</time></trkpt><trkpt lat="42.2922594" lon="13.2387661"><ele>1261.5</ele><time>2026-05-02T15:45:25.113Z</time></trkpt><trkpt lat="42.2923978" lon="13.2387312"><ele>1260.25</ele><time>2026-05-02T15:45:26.117Z</time></trkpt><trkpt lat="42.2925352" lon="13.2387198"><ele>1259.0</ele><time>2026-05-02T15:45:27.119Z</time></trkpt><trkpt lat="42.2926748" lon="13.2387124"><ele>1259.0</ele><time>2026-05-02T15:45:28.127Z</time></trkpt><trkpt lat="42.2928229" lon="13.2386741"><ele>1259.0</ele><time>2026-05-02T15:45:29.123Z</time></trkpt><trkpt lat="42.2929721" lon="13.2385938"><ele>1259.0</ele><time>2026-05-02T15:45:30.121Z</time></trkpt><trkpt lat="42.2931206" lon="13.2384929"><ele>1256.25</ele><time>2026-05-02T15:45:31.124Z</time></trkpt><trkpt lat="42.2932593" lon="13.238396"><ele>1253.5</ele><time>2026-05-02T15:45:32.125Z</time></trkpt><trkpt lat="42.2933832" lon="13.2383238"><ele>1250.75</ele><time>2026-05-02T15:45:33.123Z</time></trkpt><trkpt lat="42.2935007" lon="13.2382698"><ele>1248.0</ele><time>2026-05-02T15:45:34.128Z</time></trkpt><trkpt lat="42.2936058" lon="13.2382023"><ele>1252.0</ele><time>2026-05-02T15:45:35.122Z</time></trkpt><trkpt lat="42.2936956" lon="13.2381346"><ele>1256.0</ele><time>2026-05-02T15:45:36.125Z</time></trkpt><trkpt lat="42.2937884" lon="13.2380945"><ele>1260.0</ele><time>2026-05-02T15:45:37.123Z</time></trkpt><trkpt lat="42.293895" lon="13.238042"><ele>1264.0</ele><time>2026-05-02T15:45:38.129Z</time></trkpt><trkpt lat="42.2939937" lon="13.2379756"><ele>1268.0</ele><time>2026-05-02T15:45:39.129Z</time></trkpt><trkpt lat="42.2941059" lon="13.237931"><ele>1268.0</ele><time>2026-05-02T15:45:40.124Z</time></trkpt><trkpt lat="42.2942216" lon="13.2378518"><ele>1268.0</ele><time>2026-05-02T15:45:41.122Z</time></trkpt><trkpt lat="42.2943406" lon="13.2377742"><ele>1268.0</ele><time>2026-05-02T15:45:42.124Z</time></trkpt><trkpt lat="42.2944616" lon="13.2376852"><ele>1268.0</ele><time>2026-05-02T15:45:43.121Z</time></trkpt><trkpt lat="42.2945831" lon="13.2376009"><ele>1268.0</ele><time>2026-05-02T15:45:44.124Z</time></trkpt><trkpt lat="42.294714" lon="13.2375393"><ele>1268.0</ele><time>2026-05-02T15:45:45.112Z</time></trkpt><trkpt lat="42.2948412" lon="13.2375173"><ele>1268.0</ele><time>2026-05-02T15:45:46.121Z</time></trkpt><trkpt lat="42.2949802" lon="13.237517"><ele>1268.0</ele><time>2026-05-02T15:45:47.127Z</time></trkpt><trkpt lat="42.2951211" lon="13.2374889"><ele>1266.0</ele><time>2026-05-02T15:45:48.116Z</time></trkpt><trkpt lat="42.2952391" lon="13.2374328"><ele>1264.0</ele><time>2026-05-02T15:45:49.117Z</time></trkpt><trkpt lat="42.2953818" lon="13.2374025"><ele>1262.0</ele><time>2026-05-02T15:45:50.112Z</time></trkpt><trkpt lat="42.2954955" lon="13.2373558"><ele>1260.0</ele><time>2026-05-02T15:45:51.125Z</time></trkpt><trkpt lat="42.2955953" lon="13.2373347"><ele>1260.0</ele><time>2026-05-02T15:45:52.119Z</time></trkpt><trkpt lat="42.2957183" lon="13.2373044"><ele>1260.0</ele><time>2026-05-02T15:45:53.126Z</time></trkpt><trkpt lat="42.2958512" lon="13.2372926"><ele>1260.0</ele><time>2026-05-02T15:45:54.12Z</time></trkpt><trkpt lat="42.2959797" lon="13.2372723"><ele>1260.0</ele><time>2026-05-02T15:45:55.124Z</time></trkpt><trkpt lat="42.2961103" lon="13.2372521"><ele>1266.75</ele><time>2026-05-02T15:45:56.125Z</time></trkpt><trkpt lat="42.2962404" lon="13.2372371"><ele>1273.5</ele><time>2026-05-02T15:45:57.125Z</time></trkpt><trkpt lat="42.2963725" lon="13.2372182"><ele>1280.25</ele><time>2026-05-02T15:45:58.124Z</time></trkpt><trkpt lat="42.2964924" lon="13.2371992"><ele>1287.0</ele><time>2026-05-02T15:45:59.13Z</time></trkpt><trkpt lat="42.2966282" lon="13.2371894"><ele>1287.0</ele><time>2026-05-02T15:46:00.122Z</time></trkpt><trkpt lat="42.2967539" lon="13.2371955"><ele>1287.0</ele><time>2026-05-02T15:46:01.133Z</time></trkpt><trkpt lat="42.2968904" lon="13.237233"><ele>1287.0</ele><time>2026-05-02T15:46:02.119Z</time></trkpt><trkpt lat="42.2970548" lon="13.2372673"><ele>1287.0</ele><time>2026-05-02T15:46:03.122Z</time></trkpt><trkpt lat="42.2972106" lon="13.2373166"><ele>1283.25</ele><time>2026-05-02T15:46:04.129Z</time></trkpt><trkpt lat="42.2973305" lon="13.2373395"><ele>1279.5</ele><time>2026-05-02T15:46:05.126Z</time></trkpt><trkpt lat="42.2974613" lon="13.2373443"><ele>1275.75</ele><time>2026-05-02T15:46:06.117Z</time></trkpt><trkpt lat="42.2975849" lon="13.2373745"><ele>1272.0</ele><time>2026-05-02T15:46:07.119Z</time></trkpt><trkpt lat="42.2977036" lon="13.2374028"><ele>1272.0</ele><time>2026-05-02T15:46:08.116Z</time></trkpt><trkpt lat="42.2978192" lon="13.2374425"><ele>1272.0</ele><time>2026-05-02T15:46:09.127Z</time></trkpt><trkpt lat="42.2979395" lon="13.2374845"><ele>1272.0</ele><time>2026-05-02T15:46:10.121Z</time></trkpt><trkpt lat="42.2980531" lon="13.2375358"><ele>1272.0</ele><time>2026-05-02T15:46:11.122Z</time></trkpt><trkpt lat="42.2981653" lon="13.2375906"><ele>1273.0</ele><time>2026-05-02T15:46:12.12Z</time></trkpt><trkpt lat="42.2982677" lon="13.2376628"><ele>1274.0</ele><time>2026-05-02T15:46:13.131Z</time></trkpt><trkpt lat="42.298355" lon="13.2377489"><ele>1275.0</ele><time>2026-05-02T15:46:14.125Z</time></trkpt><trkpt lat="42.2984317" lon="13.2378374"><ele>1276.0</ele><time>2026-05-02T15:46:15.126Z</time></trkpt><trkpt lat="42.2985044" lon="13.2379296"><ele>1277.0</ele><time>2026-05-02T15:46:16.126Z</time></trkpt><trkpt lat="42.2985836" lon="13.2380166"><ele>1277.0</ele><time>2026-05-02T15:46:17.137Z</time></trkpt><trkpt lat="42.2986751" lon="13.2380855"><ele>1277.0</ele><time>2026-05-02T15:46:18.127Z</time></trkpt><trkpt lat="42.2987745" lon="13.2381285"><ele>1277.0</ele><time>2026-05-02T15:46:19.124Z</time></trkpt><trkpt lat="42.2988817" lon="13.2381402"><ele>1277.0</ele><time>2026-05-02T15:46:20.136Z</time></trkpt><trkpt lat="42.2989986" lon="13.2380983"><ele>1277.0</ele><time>2026-05-02T15:46:21.131Z</time></trkpt><trkpt lat="42.2991153" lon="13.2380306"><ele>1277.75</ele><time>2026-05-02T15:46:22.137Z</time></trkpt><trkpt lat="42.2992309" lon="13.2379608"><ele>1278.5</ele><time>2026-05-02T15:46:23.131Z</time></trkpt><trkpt lat="42.2993547" lon="13.2379101"><ele>1279.25</ele><time>2026-05-02T15:46:24.13Z</time></trkpt><trkpt lat="42.2994852" lon="13.2378748"><ele>1280.0</ele><time>2026-05-02T15:46:25.136Z</time></trkpt><trkpt lat="42.299623" lon="13.237879"><ele>1279.0</ele><time>2026-05-02T15:46:26.131Z</time></trkpt><trkpt lat="42.2997585" lon="13.2379148"><ele>1278.0</ele><time>2026-05-02T15:46:27.127Z</time></trkpt><trkpt lat="42.2998917" lon="13.2379645"><ele>1277.0</ele><time>2026-05-02T15:46:28.131Z</time></trkpt><trkpt lat="42.3000248" lon="13.2380223"><ele>1276.0</ele><time>2026-05-02T15:46:29.136Z</time></trkpt><trkpt lat="42.3001659" lon="13.2380472"><ele>1276.0</ele><time>2026-05-02T15:46:30.123Z</time></trkpt><trkpt lat="42.3003106" lon="13.238028"><ele>1276.0</ele><time>2026-05-02T15:46:31.129Z</time></trkpt><trkpt lat="42.3004551" lon="13.2379829"><ele>1276.0</ele><time>2026-05-02T15:46:32.124Z</time></trkpt><trkpt lat="42.3006053" lon="13.2379034"><ele>1276.25</ele><time>2026-05-02T15:46:33.133Z</time></trkpt><trkpt lat="42.300744" lon="13.2378234"><ele>1276.5</ele><time>2026-05-02T15:46:34.133Z</time></trkpt><trkpt lat="42.3008755" lon="13.2377844"><ele>1276.75</ele><time>2026-05-02T15:46:35.131Z</time></trkpt><trkpt lat="42.3010265" lon="13.2377947"><ele>1277.0</ele><time>2026-05-02T15:46:36.127Z</time></trkpt><trkpt lat="42.3011706" lon="13.2377943"><ele>1277.0</ele><time>2026-05-02T15:46:37.127Z</time></trkpt><trkpt lat="42.301317" lon="13.2378073"><ele>1277.0</ele><time>2026-05-02T15:46:38.128Z</time></trkpt><trkpt lat="42.3014496" lon="13.2378186"><ele>1277.0</ele><time>2026-05-02T15:46:39.132Z</time></trkpt><trkpt lat="42.3015865" lon="13.2378166"><ele>1277.0</ele><time>2026-05-02T15:46:40.133Z</time></trkpt><trkpt lat="42.3017199" lon="13.2378055"><ele>1275.75</ele><time>2026-05-02T15:46:41.132Z</time></trkpt><trkpt lat="42.3018445" lon="13.2378014"><ele>1274.5</ele><time>2026-05-02T15:46:42.135Z</time></trkpt><trkpt lat="42.3019633" lon="13.237792"><ele>1273.25</ele><time>2026-05-02T15:46:43.13Z</time></trkpt><trkpt lat="42.3020847" lon="13.2377715"><ele>1272.0</ele><time>2026-05-02T15:46:44.13Z</time></trkpt><trkpt lat="42.3022235" lon="13.2377606"><ele>1272.25</ele><time>2026-05-02T15:46:45.132Z</time></trkpt><trkpt lat="42.3023458" lon="13.2377273"><ele>1272.5</ele><time>2026-05-02T15:46:46.124Z</time></trkpt><trkpt lat="42.3024628" lon="13.2376992"><ele>1272.75</ele><time>2026-05-02T15:46:47.133Z</time></trkpt><trkpt lat="42.3025766" lon="13.2376931"><ele>1273.0</ele><time>2026-05-02T15:46:48.127Z</time></trkpt><trkpt lat="42.3026765" lon="13.2376998"><ele>1273.0</ele><time>2026-05-02T15:46:49.123Z</time></trkpt><trkpt lat="42.3027654" lon="13.237728"><ele>1273.0</ele><time>2026-05-02T15:46:50.126Z</time></trkpt><trkpt lat="42.3028398" lon="13.2377676"><ele>1273.0</ele><time>2026-05-02T15:46:51.131Z</time></trkpt><trkpt lat="42.302938" lon="13.2378211"><ele>1273.0</ele><time>2026-05-02T15:46:53.129Z</time></trkpt><trkpt lat="42.3030007" lon="13.2378567"><ele>1273.0</ele><time>2026-05-02T15:47:11.132Z</time></trkpt><trkpt lat="42.3029576" lon="13.237768"><ele>1273.0</ele><time>2026-05-02T15:47:32.128Z</time></trkpt><trkpt lat="42.3028264" lon="13.2377193"><ele>1273.0</ele><time>2026-05-02T15:47:34.131Z</time></trkpt><trkpt lat="42.3026818" lon="13.2376772"><ele>1273.0</ele><time>2026-05-02T15:47:35.132Z</time></trkpt><trkpt lat="42.3025478" lon="13.2376571"><ele>1273.0</ele><time>2026-05-02T15:47:36.126Z</time></trkpt><trkpt lat="42.3024201" lon="13.237653"><ele>1273.0</ele><time>2026-05-02T15:47:37.129Z</time></trkpt><trkpt lat="42.3023203" lon="13.237665"><ele>1273.0</ele><time>2026-05-02T15:47:38.128Z</time></trkpt><trkpt lat="42.3022511" lon="13.2376723"><ele>1273.0</ele><time>2026-05-02T15:47:39.138Z</time></trkpt><trkpt lat="42.3022052" lon="13.2377405"><ele>1273.0</ele><time>2026-05-02T15:47:44.141Z</time></trkpt><trkpt lat="42.3022595" lon="13.2377983"><ele>1273.0</ele><time>2026-05-02T15:47:46.134Z</time></trkpt><trkpt lat="42.3023714" lon="13.2379192"><ele>1273.0</ele><time>2026-05-02T15:47:48.136Z</time></trkpt><trkpt lat="42.3024158" lon="13.2379847"><ele>1273.0</ele><time>2026-05-02T15:47:49.136Z</time></trkpt><trkpt lat="42.3024648" lon="13.2381437"><ele>1272.0</ele><time>2026-05-02T15:47:51.131Z</time></trkpt><trkpt lat="42.3024934" lon="13.2382499"><ele>1271.0</ele><time>2026-05-02T15:47:52.127Z</time></trkpt><trkpt lat="42.3025329" lon="13.2383618"><ele>1270.0</ele><time>2026-05-02T15:47:53.131Z</time></trkpt><trkpt lat="42.3025793" lon="13.2384577"><ele>1269.0</ele><time>2026-05-02T15:47:54.128Z</time></trkpt><trkpt lat="42.3026447" lon="13.2385404"><ele>1268.0</ele><time>2026-05-02T15:47:55.135Z</time></trkpt><trkpt lat="42.3027238" lon="13.2386083"><ele>1267.0</ele><time>2026-05-02T15:47:56.132Z</time></trkpt><trkpt lat="42.302812" lon="13.2386736"><ele>1267.0</ele><time>2026-05-02T15:47:57.133Z</time></trkpt><trkpt lat="42.3028931" lon="13.2387256"><ele>1267.0</ele><time>2026-05-02T15:47:58.136Z</time></trkpt><trkpt lat="42.3029735" lon="13.2387715"><ele>1267.0</ele><time>2026-05-02T15:47:59.139Z</time></trkpt><trkpt lat="42.3030516" lon="13.2388166"><ele>1267.0</ele><time>2026-05-02T15:48:00.132Z</time></trkpt><trkpt lat="42.3031336" lon="13.2388691"><ele>1267.0</ele><time>2026-05-02T15:48:01.136Z</time></trkpt><trkpt lat="42.3032192" lon="13.2389279"><ele>1267.0</ele><time>2026-05-02T15:48:02.129Z</time></trkpt><trkpt lat="42.3033016" lon="13.2389972"><ele>1269.0</ele><time>2026-05-02T15:48:03.124Z</time></trkpt><trkpt lat="42.3033754" lon="13.2390706"><ele>1271.0</ele><time>2026-05-02T15:48:04.128Z</time></trkpt><trkpt lat="42.303445" lon="13.2391514"><ele>1273.0</ele><time>2026-05-02T15:48:05.126Z</time></trkpt><trkpt lat="42.3035199" lon="13.2392438"><ele>1275.0</ele><time>2026-05-02T15:48:06.128Z</time></trkpt><trkpt lat="42.3035929" lon="13.23933"><ele>1277.0</ele><time>2026-05-02T15:48:07.129Z</time></trkpt><trkpt lat="42.3036597" lon="13.2393974"><ele>1276.9999999999998</ele><time>2026-05-02T15:48:08.129Z</time></trkpt><trkpt lat="42.3037175" lon="13.239456"><ele>1277.0</ele><time>2026-05-02T15:48:09.125Z</time></trkpt><trkpt lat="42.3037693" lon="13.2395147"><ele>1277.0</ele><time>2026-05-02T15:48:10.126Z</time></trkpt><trkpt lat="42.3038131" lon="13.2395826"><ele>1277.0</ele><time>2026-05-02T15:48:11.127Z</time></trkpt><trkpt lat="42.3038613" lon="13.2396623"><ele>1277.0</ele><time>2026-05-02T15:48:12.131Z</time></trkpt><trkpt lat="42.3039021" lon="13.2397523"><ele>1276.9999999999998</ele><time>2026-05-02T15:48:13.128Z</time></trkpt><trkpt lat="42.3039283" lon="13.2398464"><ele>1277.0</ele><time>2026-05-02T15:48:14.128Z</time></trkpt><trkpt lat="42.3039328" lon="13.2399545"><ele>1277.1666666666667</ele><time>2026-05-02T15:48:15.128Z</time></trkpt><trkpt lat="42.3039377" lon="13.240075"><ele>1277.3333333333335</ele><time>2026-05-02T15:48:16.131Z</time></trkpt><trkpt lat="42.3039427" lon="13.2401905"><ele>1277.5</ele><time>2026-05-02T15:48:17.132Z</time></trkpt><trkpt lat="42.3039544" lon="13.2403095"><ele>1277.6666666666667</ele><time>2026-05-02T15:48:18.128Z</time></trkpt><trkpt lat="42.3039699" lon="13.2404209"><ele>1277.8333333333333</ele><time>2026-05-02T15:48:19.125Z</time></trkpt><trkpt lat="42.3039945" lon="13.240542"><ele>1278.0</ele><time>2026-05-02T15:48:20.122Z</time></trkpt><trkpt lat="42.3040241" lon="13.2406709"><ele>1278.0</ele><time>2026-05-02T15:48:21.124Z</time></trkpt><trkpt lat="42.3040514" lon="13.2408051"><ele>1278.0</ele><time>2026-05-02T15:48:22.127Z</time></trkpt><trkpt lat="42.3040693" lon="13.2409403"><ele>1278.0</ele><time>2026-05-02T15:48:23.124Z</time></trkpt><trkpt lat="42.3040808" lon="13.2410804"><ele>1278.0</ele><time>2026-05-02T15:48:24.124Z</time></trkpt><trkpt lat="42.3040861" lon="13.241197"><ele>1278.0</ele><time>2026-05-02T15:48:25.121Z</time></trkpt><trkpt lat="42.3040827" lon="13.2413058"><ele>1278.0</ele><time>2026-05-02T15:48:26.117Z</time></trkpt><trkpt lat="42.3040647" lon="13.2414171"><ele>1278.0</ele><time>2026-05-02T15:48:27.126Z</time></trkpt><trkpt lat="42.3040326" lon="13.2415218"><ele>1278.0</ele><time>2026-05-02T15:48:28.127Z</time></trkpt><trkpt lat="42.3039913" lon="13.2416141"><ele>1278.0</ele><time>2026-05-02T15:48:29.126Z</time></trkpt><trkpt lat="42.3039579" lon="13.2417071"><ele>1278.0</ele><time>2026-05-02T15:48:30.125Z</time></trkpt><trkpt lat="42.3039281" lon="13.2418077"><ele>1278.0</ele><time>2026-05-02T15:48:31.129Z</time></trkpt><trkpt lat="42.303897" lon="13.2419077"><ele>1282.0</ele><time>2026-05-02T15:48:32.123Z</time></trkpt><trkpt lat="42.3038528" lon="13.2420083"><ele>1286.0</ele><time>2026-05-02T15:48:33.122Z</time></trkpt><trkpt lat="42.3037984" lon="13.2421146"><ele>1290.0</ele><time>2026-05-02T15:48:34.124Z</time></trkpt><trkpt lat="42.3037434" lon="13.2422067"><ele>1294.0</ele><time>2026-05-02T15:48:35.124Z</time></trkpt><trkpt lat="42.3036914" lon="13.2423039"><ele>1298.0</ele><time>2026-05-02T15:48:36.123Z</time></trkpt><trkpt lat="42.303651" lon="13.2424172"><ele>1298.0</ele><time>2026-05-02T15:48:37.129Z</time></trkpt><trkpt lat="42.3036252" lon="13.2425462"><ele>1298.0</ele><time>2026-05-02T15:48:38.121Z</time></trkpt><trkpt lat="42.3035998" lon="13.242678"><ele>1298.0</ele><time>2026-05-02T15:48:39.122Z</time></trkpt><trkpt lat="42.3035772" lon="13.2428053"><ele>1298.0</ele><time>2026-05-02T15:48:40.123Z</time></trkpt><trkpt lat="42.3035642" lon="13.2429218"><ele>1298.0</ele><time>2026-05-02T15:48:41.122Z</time></trkpt><trkpt lat="42.3035549" lon="13.2430429"><ele>1298.0</ele><time>2026-05-02T15:48:42.125Z</time></trkpt><trkpt lat="42.3035512" lon="13.2431747"><ele>1298.0</ele><time>2026-05-02T15:48:43.122Z</time></trkpt><trkpt lat="42.3035539" lon="13.2433096"><ele>1298.0</ele><time>2026-05-02T15:48:44.13Z</time></trkpt><trkpt lat="42.303546" lon="13.2434388"><ele>1298.0</ele><time>2026-05-02T15:48:45.124Z</time></trkpt><trkpt lat="42.3035382" lon="13.2435562"><ele>1298.0</ele><time>2026-05-02T15:48:46.123Z</time></trkpt><trkpt lat="42.3035438" lon="13.2436704"><ele>1298.0</ele><time>2026-05-02T15:48:47.129Z</time></trkpt><trkpt lat="42.3035572" lon="13.2437843"><ele>1298.0</ele><time>2026-05-02T15:48:48.122Z</time></trkpt><trkpt lat="42.3035723" lon="13.2439037"><ele>1298.0</ele><time>2026-05-02T15:48:49.119Z</time></trkpt><trkpt lat="42.3035876" lon="13.2440115"><ele>1298.0</ele><time>2026-05-02T15:48:50.126Z</time></trkpt><trkpt lat="42.3035968" lon="13.2441147"><ele>1298.0</ele><time>2026-05-02T15:48:51.121Z</time></trkpt><trkpt lat="42.3035917" lon="13.2442273"><ele>1298.0</ele><time>2026-05-02T15:48:52.122Z</time></trkpt><trkpt lat="42.3035751" lon="13.2443319"><ele>1299.0</ele><time>2026-05-02T15:48:53.126Z</time></trkpt><trkpt lat="42.3035472" lon="13.2444206"><ele>1300.0</ele><time>2026-05-02T15:48:54.123Z</time></trkpt><trkpt lat="42.3035152" lon="13.2445116"><ele>1301.0</ele><time>2026-05-02T15:48:55.127Z</time></trkpt><trkpt lat="42.3034788" lon="13.2446054"><ele>1302.0</ele><time>2026-05-02T15:48:56.121Z</time></trkpt><trkpt lat="42.3034369" lon="13.2447037"><ele>1303.0</ele><time>2026-05-02T15:48:57.12Z</time></trkpt><trkpt lat="42.3033888" lon="13.2448112"><ele>1304.0</ele><time>2026-05-02T15:48:58.125Z</time></trkpt><trkpt lat="42.3033444" lon="13.2449109"><ele>1304.8333333333335</ele><time>2026-05-02T15:48:59.124Z</time></trkpt><trkpt lat="42.3033016" lon="13.2450047"><ele>1305.6666666666667</ele><time>2026-05-02T15:49:00.124Z</time></trkpt><trkpt lat="42.3032565" lon="13.2451001"><ele>1306.5</ele><time>2026-05-02T15:49:01.134Z</time></trkpt><trkpt lat="42.3032115" lon="13.245198"><ele>1307.3333333333333</ele><time>2026-05-02T15:49:02.123Z</time></trkpt><trkpt lat="42.3031715" lon="13.245297"><ele>1308.1666666666665</ele><time>2026-05-02T15:49:03.126Z</time></trkpt><trkpt lat="42.3031396" lon="13.2453877"><ele>1309.0</ele><time>2026-05-02T15:49:04.123Z</time></trkpt><trkpt lat="42.30312" lon="13.2454811"><ele>1309.0</ele><time>2026-05-02T15:49:05.126Z</time></trkpt><trkpt lat="42.303114" lon="13.2455873"><ele>1309.0</ele><time>2026-05-02T15:49:06.128Z</time></trkpt><trkpt lat="42.3031049" lon="13.2456952"><ele>1309.0</ele><time>2026-05-02T15:49:07.123Z</time></trkpt><trkpt lat="42.3030823" lon="13.2458044"><ele>1309.0</ele><time>2026-05-02T15:49:08.135Z</time></trkpt><trkpt lat="42.3030457" lon="13.2459011"><ele>1309.0</ele><time>2026-05-02T15:49:09.13Z</time></trkpt><trkpt lat="42.3029987" lon="13.2459718"><ele>1309.0</ele><time>2026-05-02T15:49:10.126Z</time></trkpt><trkpt lat="42.3029578" lon="13.2460441"><ele>1310.0</ele><time>2026-05-02T15:49:11.127Z</time></trkpt><trkpt lat="42.3029314" lon="13.246122"><ele>1311.0</ele><time>2026-05-02T15:49:12.132Z</time></trkpt><trkpt lat="42.3029105" lon="13.2462067"><ele>1312.0</ele><time>2026-05-02T15:49:13.125Z</time></trkpt><trkpt lat="42.3028753" lon="13.2462909"><ele>1313.0</ele><time>2026-05-02T15:49:14.12Z</time></trkpt><trkpt lat="42.3028348" lon="13.2463629"><ele>1314.0</ele><time>2026-05-02T15:49:15.125Z</time></trkpt><trkpt lat="42.3027934" lon="13.2464343"><ele>1315.0</ele><time>2026-05-02T15:49:16.121Z</time></trkpt><trkpt lat="42.3027562" lon="13.2465062"><ele>1316.0</ele><time>2026-05-02T15:49:17.131Z</time></trkpt><trkpt lat="42.3027186" lon="13.2465899"><ele>1317.5</ele><time>2026-05-02T15:49:18.127Z</time></trkpt><trkpt lat="42.3026863" lon="13.2466828"><ele>1319.0</ele><time>2026-05-02T15:49:19.125Z</time></trkpt><trkpt lat="42.3026521" lon="13.2467819"><ele>1320.5</ele><time>2026-05-02T15:49:20.122Z</time></trkpt><trkpt lat="42.302609" lon="13.2468862"><ele>1322.0</ele><time>2026-05-02T15:49:21.125Z</time></trkpt><trkpt lat="42.3025598" lon="13.2469903"><ele>1323.5</ele><time>2026-05-02T15:49:22.125Z</time></trkpt><trkpt lat="42.302503" lon="13.2470791"><ele>1325.0</ele><time>2026-05-02T15:49:23.121Z</time></trkpt><trkpt lat="42.3024508" lon="13.2471567"><ele>1325.0</ele><time>2026-05-02T15:49:24.122Z</time></trkpt><trkpt lat="42.3024072" lon="13.2472352"><ele>1325.0</ele><time>2026-05-02T15:49:25.127Z</time></trkpt><trkpt lat="42.302367" lon="13.2473194"><ele>1325.0</ele><time>2026-05-02T15:49:26.122Z</time></trkpt><trkpt lat="42.3023254" lon="13.2474185"><ele>1325.0</ele><time>2026-05-02T15:49:27.124Z</time></trkpt><trkpt lat="42.3022728" lon="13.2475141"><ele>1325.0</ele><time>2026-05-02T15:49:28.122Z</time></trkpt><trkpt lat="42.3022151" lon="13.247607"><ele>1325.0</ele><time>2026-05-02T15:49:29.127Z</time></trkpt><trkpt lat="42.3021538" lon="13.2476903"><ele>1328.6666666666667</ele><time>2026-05-02T15:49:30.127Z</time></trkpt><trkpt lat="42.3020944" lon="13.2477711"><ele>1332.3333333333335</ele><time>2026-05-02T15:49:31.129Z</time></trkpt><trkpt lat="42.3020415" lon="13.2478505"><ele>1336.0</ele><time>2026-05-02T15:49:32.119Z</time></trkpt><trkpt lat="42.3019994" lon="13.2479286"><ele>1339.6666666666667</ele><time>2026-05-02T15:49:33.125Z</time></trkpt><trkpt lat="42.3019676" lon="13.2480031"><ele>1343.3333333333333</ele><time>2026-05-02T15:49:34.132Z</time></trkpt><trkpt lat="42.301937" lon="13.2480812"><ele>1347.0</ele><time>2026-05-02T15:49:35.124Z</time></trkpt><trkpt lat="42.3018768" lon="13.2482374"><ele>1347.6666666666667</ele><time>2026-05-02T15:49:37.121Z</time></trkpt><trkpt lat="42.3018213" lon="13.2483132"><ele>1348.3333333333333</ele><time>2026-05-02T15:49:38.128Z</time></trkpt><trkpt lat="42.301769" lon="13.2484005"><ele>1349.0</ele><time>2026-05-02T15:49:39.126Z</time></trkpt><trkpt lat="42.3017316" lon="13.2484893"><ele>1349.6666666666665</ele><time>2026-05-02T15:49:40.124Z</time></trkpt><trkpt lat="42.3016744" lon="13.2486343"><ele>1350.3333333333333</ele><time>2026-05-02T15:49:42.131Z</time></trkpt><trkpt lat="42.3016185" lon="13.2487198"><ele>1351.0</ele><time>2026-05-02T15:49:44.132Z</time></trkpt><trkpt lat="42.3015587" lon="13.2488404"><ele>1351.0</ele><time>2026-05-02T15:49:46.134Z</time></trkpt><trkpt lat="42.3015279" lon="13.2489421"><ele>1351.0</ele><time>2026-05-02T15:49:48.134Z</time></trkpt><trkpt lat="42.3015137" lon="13.2490575"><ele>1351.0</ele><time>2026-05-02T15:49:50.136Z</time></trkpt><trkpt lat="42.301488" lon="13.2492142"><ele>1351.0</ele><time>2026-05-02T15:49:52.129Z</time></trkpt><trkpt lat="42.3014724" lon="13.2493043"><ele>1351.0</ele><time>2026-05-02T15:49:53.13Z</time></trkpt><trkpt lat="42.3014655" lon="13.249406"><ele>1351.0</ele><time>2026-05-02T15:49:54.131Z</time></trkpt><trkpt lat="42.3014592" lon="13.2495066"><ele>1352.1666666666665</ele><time>2026-05-02T15:49:55.131Z</time></trkpt><trkpt lat="42.3014457" lon="13.2496165"><ele>1353.3333333333333</ele><time>2026-05-02T15:49:56.119Z</time></trkpt><trkpt lat="42.3014289" lon="13.2497293"><ele>1354.5</ele><time>2026-05-02T15:49:57.128Z</time></trkpt><trkpt lat="42.3014121" lon="13.2498434"><ele>1355.6666666666667</ele><time>2026-05-02T15:49:58.131Z</time></trkpt><trkpt lat="42.3014109" lon="13.249971"><ele>1356.8333333333335</ele><time>2026-05-02T15:49:59.131Z</time></trkpt><trkpt lat="42.3014173" lon="13.2501047"><ele>1358.0</ele><time>2026-05-02T15:50:00.133Z</time></trkpt><trkpt lat="42.3014319" lon="13.2502422"><ele>1358.0</ele><time>2026-05-02T15:50:01.133Z</time></trkpt><trkpt lat="42.3014493" lon="13.2503687"><ele>1358.0</ele><time>2026-05-02T15:50:02.129Z</time></trkpt><trkpt lat="42.301476" lon="13.2504887"><ele>1358.0</ele><time>2026-05-02T15:50:03.134Z</time></trkpt><trkpt lat="42.301506" lon="13.2505959"><ele>1358.0</ele><time>2026-05-02T15:50:04.132Z</time></trkpt><trkpt lat="42.3015402" lon="13.2506984"><ele>1358.0</ele><time>2026-05-02T15:50:05.134Z</time></trkpt><trkpt lat="42.3015747" lon="13.2507935"><ele>1358.0</ele><time>2026-05-02T15:50:06.134Z</time></trkpt><trkpt lat="42.3016168" lon="13.2508879"><ele>1355.0</ele><time>2026-05-02T15:50:07.138Z</time></trkpt><trkpt lat="42.3016569" lon="13.2509807"><ele>1352.0</ele><time>2026-05-02T15:50:08.136Z</time></trkpt><trkpt lat="42.3016971" lon="13.2510874"><ele>1349.0</ele><time>2026-05-02T15:50:09.139Z</time></trkpt><trkpt lat="42.3017428" lon="13.2511987"><ele>1346.0</ele><time>2026-05-02T15:50:10.143Z</time></trkpt><trkpt lat="42.3017915" lon="13.251314"><ele>1343.0</ele><time>2026-05-02T15:50:11.142Z</time></trkpt><trkpt lat="42.3018489" lon="13.2514311"><ele>1343.2</ele><time>2026-05-02T15:50:12.136Z</time></trkpt><trkpt lat="42.3019163" lon="13.2515449"><ele>1343.4</ele><time>2026-05-02T15:50:13.14Z</time></trkpt><trkpt lat="42.3019948" lon="13.2516434"><ele>1343.6000000000001</ele><time>2026-05-02T15:50:14.136Z</time></trkpt><trkpt lat="42.3020827" lon="13.2517284"><ele>1343.8000000000002</ele><time>2026-05-02T15:50:15.14Z</time></trkpt><trkpt lat="42.3021742" lon="13.2518105"><ele>1344.0</ele><time>2026-05-02T15:50:16.133Z</time></trkpt><trkpt lat="42.3022664" lon="13.2518845"><ele>1344.0</ele><time>2026-05-02T15:50:17.138Z</time></trkpt><trkpt lat="42.3023609" lon="13.2519371"><ele>1344.0</ele><time>2026-05-02T15:50:18.137Z</time></trkpt><trkpt lat="42.3024651" lon="13.2519701"><ele>1344.0</ele><time>2026-05-02T15:50:19.131Z</time></trkpt><trkpt lat="42.3025703" lon="13.2519762"><ele>1344.0</ele><time>2026-05-02T15:50:20.13Z</time></trkpt><trkpt lat="42.3026704" lon="13.2519597"><ele>1344.0</ele><time>2026-05-02T15:50:21.132Z</time></trkpt><trkpt lat="42.3027677" lon="13.251933"><ele>1344.0</ele><time>2026-05-02T15:50:22.127Z</time></trkpt><trkpt lat="42.3028701" lon="13.2519099"><ele>1344.0</ele><time>2026-05-02T15:50:23.134Z</time></trkpt><trkpt lat="42.3029721" lon="13.2518894"><ele>1344.0</ele><time>2026-05-02T15:50:24.128Z</time></trkpt><trkpt lat="42.3030758" lon="13.251885"><ele>1344.0</ele><time>2026-05-02T15:50:25.128Z</time></trkpt><trkpt lat="42.3031809" lon="13.2518944"><ele>1344.0</ele><time>2026-05-02T15:50:26.128Z</time></trkpt><trkpt lat="42.3032863" lon="13.2519048"><ele>1345.2</ele><time>2026-05-02T15:50:27.131Z</time></trkpt><trkpt lat="42.3033905" lon="13.2519126"><ele>1346.4</ele><time>2026-05-02T15:50:28.133Z</time></trkpt><trkpt lat="42.303496" lon="13.251918"><ele>1347.6</ele><time>2026-05-02T15:50:29.13Z</time></trkpt><trkpt lat="42.3036017" lon="13.2519314"><ele>1348.8</ele><time>2026-05-02T15:50:30.131Z</time></trkpt><trkpt lat="42.3037076" lon="13.2519639"><ele>1350.0</ele><time>2026-05-02T15:50:31.133Z</time></trkpt><trkpt lat="42.3038075" lon="13.2520265"><ele>1350.0</ele><time>2026-05-02T15:50:32.13Z</time></trkpt><trkpt lat="42.3038962" lon="13.2521039"><ele>1350.0</ele><time>2026-05-02T15:50:33.131Z</time></trkpt><trkpt lat="42.3039799" lon="13.2521971"><ele>1350.0</ele><time>2026-05-02T15:50:34.125Z</time></trkpt><trkpt lat="42.3040573" lon="13.2523035"><ele>1350.0</ele><time>2026-05-02T15:50:35.118Z</time></trkpt><trkpt lat="42.3041139" lon="13.2524409"><ele>1350.0</ele><time>2026-05-02T15:50:36.124Z</time></trkpt><trkpt lat="42.3041588" lon="13.2526057"><ele>1347.25</ele><time>2026-05-02T15:50:37.125Z</time></trkpt><trkpt lat="42.3042013" lon="13.2527863"><ele>1344.5</ele><time>2026-05-02T15:50:38.132Z</time></trkpt><trkpt lat="42.3042366" lon="13.25301"><ele>1341.75</ele><time>2026-05-02T15:50:39.129Z</time></trkpt><trkpt lat="42.3042841" lon="13.2531873"><ele>1339.0</ele><time>2026-05-02T15:50:40.129Z</time></trkpt><trkpt lat="42.3043281" lon="13.2533718"><ele>1333.0</ele><time>2026-05-02T15:50:41.13Z</time></trkpt><trkpt lat="42.3043882" lon="13.2535491"><ele>1327.0</ele><time>2026-05-02T15:50:42.126Z</time></trkpt><trkpt lat="42.3044448" lon="13.2537199"><ele>1321.0</ele><time>2026-05-02T15:50:43.127Z</time></trkpt><trkpt lat="42.304508" lon="13.2538856"><ele>1315.0</ele><time>2026-05-02T15:50:44.133Z</time></trkpt><trkpt lat="42.3045689" lon="13.2540144"><ele>1318.2</ele><time>2026-05-02T15:50:45.126Z</time></trkpt><trkpt lat="42.3046195" lon="13.254161"><ele>1321.4</ele><time>2026-05-02T15:50:46.129Z</time></trkpt><trkpt lat="42.3046632" lon="13.2542853"><ele>1324.6</ele><time>2026-05-02T15:50:47.133Z</time></trkpt><trkpt lat="42.3047073" lon="13.2544199"><ele>1327.8</ele><time>2026-05-02T15:50:48.13Z</time></trkpt><trkpt lat="42.3047499" lon="13.2545349"><ele>1331.0</ele><time>2026-05-02T15:50:49.13Z</time></trkpt><trkpt lat="42.3047949" lon="13.2546173"><ele>1331.0</ele><time>2026-05-02T15:50:50.131Z</time></trkpt><trkpt lat="42.3048605" lon="13.254679"><ele>1331.0</ele><time>2026-05-02T15:50:51.127Z</time></trkpt><trkpt lat="42.3049433" lon="13.2547026"><ele>1331.0</ele><time>2026-05-02T15:50:52.128Z</time></trkpt><trkpt lat="42.305043" lon="13.2546866"><ele>1331.0</ele><time>2026-05-02T15:50:53.124Z</time></trkpt><trkpt lat="42.3051561" lon="13.2546521"><ele>1331.0</ele><time>2026-05-02T15:50:54.129Z</time></trkpt><trkpt lat="42.3052821" lon="13.2546045"><ele>1331.0</ele><time>2026-05-02T15:50:55.132Z</time></trkpt><trkpt lat="42.3054153" lon="13.2545373"><ele>1331.0</ele><time>2026-05-02T15:50:56.131Z</time></trkpt><trkpt lat="42.3055529" lon="13.254462"><ele>1331.0</ele><time>2026-05-02T15:50:57.129Z</time></trkpt><trkpt lat="42.3057133" lon="13.2544013"><ele>1329.0</ele><time>2026-05-02T15:50:58.133Z</time></trkpt><trkpt lat="42.3058372" lon="13.2543168"><ele>1327.0</ele><time>2026-05-02T15:50:59.134Z</time></trkpt><trkpt lat="42.3059498" lon="13.2542729"><ele>1325.0</ele><time>2026-05-02T15:51:00.123Z</time></trkpt><trkpt lat="42.3060716" lon="13.2542478"><ele>1323.0</ele><time>2026-05-02T15:51:01.128Z</time></trkpt><trkpt lat="42.3062025" lon="13.254226"><ele>1323.0</ele><time>2026-05-02T15:51:02.126Z</time></trkpt><trkpt lat="42.3063452" lon="13.2542077"><ele>1323.0</ele><time>2026-05-02T15:51:03.127Z</time></trkpt><trkpt lat="42.3064692" lon="13.2541771"><ele>1323.0</ele><time>2026-05-02T15:51:04.131Z</time></trkpt><trkpt lat="42.3065868" lon="13.2541263"><ele>1323.0</ele><time>2026-05-02T15:51:05.127Z</time></trkpt><trkpt lat="42.3067082" lon="13.2540898"><ele>1319.25</ele><time>2026-05-02T15:51:06.128Z</time></trkpt><trkpt lat="42.3068208" lon="13.2540525"><ele>1315.5</ele><time>2026-05-02T15:51:07.122Z</time></trkpt><trkpt lat="42.3069485" lon="13.2540313"><ele>1311.75</ele><time>2026-05-02T15:51:08.118Z</time></trkpt><trkpt lat="42.3070879" lon="13.2540112"><ele>1308.0</ele><time>2026-05-02T15:51:09.125Z</time></trkpt><trkpt lat="42.3072257" lon="13.2539739"><ele>1315.0</ele><time>2026-05-02T15:51:10.124Z</time></trkpt><trkpt lat="42.3073613" lon="13.253947"><ele>1322.0</ele><time>2026-05-02T15:51:11.125Z</time></trkpt><trkpt lat="42.3074731" lon="13.2539058"><ele>1329.0</ele><time>2026-05-02T15:51:12.131Z</time></trkpt><trkpt lat="42.3075849" lon="13.2538753"><ele>1336.0</ele><time>2026-05-02T15:51:13.132Z</time></trkpt><trkpt lat="42.3077079" lon="13.2538763"><ele>1336.0</ele><time>2026-05-02T15:51:14.131Z</time></trkpt><trkpt lat="42.3078542" lon="13.2538856"><ele>1336.0</ele><time>2026-05-02T15:51:15.132Z</time></trkpt><trkpt lat="42.3079995" lon="13.2538833"><ele>1336.0</ele><time>2026-05-02T15:51:16.131Z</time></trkpt><trkpt lat="42.3081423" lon="13.2538824"><ele>1336.0</ele><time>2026-05-02T15:51:17.136Z</time></trkpt><trkpt lat="42.3082741" lon="13.2538779"><ele>1333.5</ele><time>2026-05-02T15:51:18.133Z</time></trkpt><trkpt lat="42.3084037" lon="13.2538889"><ele>1331.0</ele><time>2026-05-02T15:51:19.129Z</time></trkpt><trkpt lat="42.3085203" lon="13.2539255"><ele>1328.5</ele><time>2026-05-02T15:51:20.126Z</time></trkpt><trkpt lat="42.3086357" lon="13.2539702"><ele>1326.0</ele><time>2026-05-02T15:51:21.123Z</time></trkpt><trkpt lat="42.3087591" lon="13.2540159"><ele>1319.0</ele><time>2026-05-02T15:51:22.13Z</time></trkpt><trkpt lat="42.3088814" lon="13.2540543"><ele>1312.0</ele><time>2026-05-02T15:51:23.128Z</time></trkpt><trkpt lat="42.3089896" lon="13.2541048"><ele>1305.0</ele><time>2026-05-02T15:51:24.133Z</time></trkpt><trkpt lat="42.3091073" lon="13.2541408"><ele>1298.0</ele><time>2026-05-02T15:51:25.131Z</time></trkpt><trkpt lat="42.3092218" lon="13.2541682"><ele>1298.0</ele><time>2026-05-02T15:51:26.129Z</time></trkpt><trkpt lat="42.3093335" lon="13.2541682"><ele>1298.0</ele><time>2026-05-02T15:51:27.124Z</time></trkpt><trkpt lat="42.3094449" lon="13.2541279"><ele>1298.0</ele><time>2026-05-02T15:51:28.132Z</time></trkpt><trkpt lat="42.3095508" lon="13.2540386"><ele>1298.0</ele><time>2026-05-02T15:51:29.133Z</time></trkpt><trkpt lat="42.3096453" lon="13.2539388"><ele>1300.25</ele><time>2026-05-02T15:51:30.134Z</time></trkpt><trkpt lat="42.309751" lon="13.2538374"><ele>1302.5</ele><time>2026-05-02T15:51:31.135Z</time></trkpt><trkpt lat="42.3098666" lon="13.2537399"><ele>1304.75</ele><time>2026-05-02T15:51:32.13Z</time></trkpt><trkpt lat="42.309993" lon="13.2536422"><ele>1307.0</ele><time>2026-05-02T15:51:33.134Z</time></trkpt><trkpt lat="42.3101597" lon="13.2535302"><ele>1307.0</ele><time>2026-05-02T15:51:34.132Z</time></trkpt><trkpt lat="42.3103013" lon="13.2534077"><ele>1307.0</ele><time>2026-05-02T15:51:35.131Z</time></trkpt><trkpt lat="42.3104277" lon="13.2533114"><ele>1307.0</ele><time>2026-05-02T15:51:36.131Z</time></trkpt><trkpt lat="42.3105498" lon="13.2532365"><ele>1307.0</ele><time>2026-05-02T15:51:37.135Z</time></trkpt><trkpt lat="42.3106561" lon="13.2531444"><ele>1308.6</ele><time>2026-05-02T15:51:38.134Z</time></trkpt><trkpt lat="42.3107578" lon="13.2530799"><ele>1310.1999999999998</ele><time>2026-05-02T15:51:39.133Z</time></trkpt><trkpt lat="42.3108503" lon="13.2530314"><ele>1311.8</ele><time>2026-05-02T15:51:40.133Z</time></trkpt><trkpt lat="42.3109519" lon="13.2530031"><ele>1313.4</ele><time>2026-05-02T15:51:41.129Z</time></trkpt><trkpt lat="42.3110363" lon="13.2529863"><ele>1315.0</ele><time>2026-05-02T15:51:42.131Z</time></trkpt><trkpt lat="42.3111317" lon="13.2529868"><ele>1315.0</ele><time>2026-05-02T15:51:43.133Z</time></trkpt><trkpt lat="42.3112292" lon="13.2529919"><ele>1315.0</ele><time>2026-05-02T15:51:44.133Z</time></trkpt><trkpt lat="42.3113273" lon="13.252986"><ele>1315.0</ele><time>2026-05-02T15:51:45.131Z</time></trkpt><trkpt lat="42.3114357" lon="13.2529598"><ele>1315.0</ele><time>2026-05-02T15:51:46.131Z</time></trkpt><trkpt lat="42.3115549" lon="13.2529176"><ele>1315.0</ele><time>2026-05-02T15:51:47.135Z</time></trkpt><trkpt lat="42.3116746" lon="13.2528746"><ele>1312.5</ele><time>2026-05-02T15:51:48.126Z</time></trkpt><trkpt lat="42.3117968" lon="13.2528484"><ele>1310.0</ele><time>2026-05-02T15:51:49.132Z</time></trkpt><trkpt lat="42.3119245" lon="13.2528436"><ele>1307.5</ele><time>2026-05-02T15:51:50.124Z</time></trkpt><trkpt lat="42.3120495" lon="13.2528735"><ele>1305.0</ele><time>2026-05-02T15:51:51.128Z</time></trkpt><trkpt lat="42.3121644" lon="13.2529277"><ele>1302.0</ele><time>2026-05-02T15:51:52.127Z</time></trkpt><trkpt lat="42.3122722" lon="13.2529677"><ele>1299.0</ele><time>2026-05-02T15:51:53.127Z</time></trkpt><trkpt lat="42.3123699" lon="13.2529597"><ele>1296.0</ele><time>2026-05-02T15:51:54.132Z</time></trkpt><trkpt lat="42.3124584" lon="13.2528869"><ele>1293.0</ele><time>2026-05-02T15:51:55.122Z</time></trkpt><trkpt lat="42.3125461" lon="13.2527849"><ele>1290.0</ele><time>2026-05-02T15:51:56.128Z</time></trkpt><trkpt lat="42.3126404" lon="13.2526834"><ele>1290.0</ele><time>2026-05-02T15:51:57.12Z</time></trkpt><trkpt lat="42.3127423" lon="13.2525992"><ele>1290.0</ele><time>2026-05-02T15:51:58.128Z</time></trkpt><trkpt lat="42.3128407" lon="13.2525229"><ele>1290.0</ele><time>2026-05-02T15:51:59.125Z</time></trkpt><trkpt lat="42.3129186" lon="13.2524161"><ele>1290.0</ele><time>2026-05-02T15:52:00.122Z</time></trkpt><trkpt lat="42.3129772" lon="13.2522779"><ele>1288.8</ele><time>2026-05-02T15:52:01.136Z</time></trkpt><trkpt lat="42.3130128" lon="13.2521337"><ele>1287.6</ele><time>2026-05-02T15:52:02.132Z</time></trkpt><trkpt lat="42.3130539" lon="13.2520075"><ele>1286.4</ele><time>2026-05-02T15:52:03.122Z</time></trkpt><trkpt lat="42.3131162" lon="13.2519045"><ele>1285.2</ele><time>2026-05-02T15:52:04.124Z</time></trkpt><trkpt lat="42.3132011" lon="13.2518246"><ele>1284.0</ele><time>2026-05-02T15:52:05.128Z</time></trkpt><trkpt lat="42.313317" lon="13.2517873"><ele>1284.0</ele><time>2026-05-02T15:52:06.125Z</time></trkpt><trkpt lat="42.3134237" lon="13.2517443"><ele>1284.0</ele><time>2026-05-02T15:52:07.131Z</time></trkpt><trkpt lat="42.3135251" lon="13.2516716"><ele>1284.0</ele><time>2026-05-02T15:52:08.127Z</time></trkpt><trkpt lat="42.3136083" lon="13.2515585"><ele>1284.0</ele><time>2026-05-02T15:52:09.127Z</time></trkpt><trkpt lat="42.3136727" lon="13.2514416"><ele>1286.4</ele><time>2026-05-02T15:52:10.13Z</time></trkpt><trkpt lat="42.3137413" lon="13.2513487"><ele>1288.8000000000002</ele><time>2026-05-02T15:52:11.134Z</time></trkpt><trkpt lat="42.3138422" lon="13.2513102"><ele>1291.1999999999998</ele><time>2026-05-02T15:52:12.127Z</time></trkpt><trkpt lat="42.3139593" lon="13.2512987"><ele>1293.6</ele><time>2026-05-02T15:52:13.135Z</time></trkpt><trkpt lat="42.3140869" lon="13.2512695"><ele>1296.0</ele><time>2026-05-02T15:52:14.13Z</time></trkpt><trkpt lat="42.3142087" lon="13.2512136"><ele>1296.0</ele><time>2026-05-02T15:52:15.133Z</time></trkpt><trkpt lat="42.3143162" lon="13.251153"><ele>1296.0</ele><time>2026-05-02T15:52:16.13Z</time></trkpt><trkpt lat="42.3144167" lon="13.2511116"><ele>1296.0</ele><time>2026-05-02T15:52:17.141Z</time></trkpt><trkpt lat="42.3145131" lon="13.2511056"><ele>1296.0</ele><time>2026-05-02T15:52:18.137Z</time></trkpt><trkpt lat="42.3146108" lon="13.2511487"><ele>1296.0</ele><time>2026-05-02T15:52:19.139Z</time></trkpt><trkpt lat="42.3147123" lon="13.2512393"><ele>1297.0</ele><time>2026-05-02T15:52:20.125Z</time></trkpt><trkpt lat="42.3148155" lon="13.2513652"><ele>1298.0</ele><time>2026-05-02T15:52:21.133Z</time></trkpt><trkpt lat="42.3149233" lon="13.2514926"><ele>1299.0</ele><time>2026-05-02T15:52:22.133Z</time></trkpt><trkpt lat="42.3150191" lon="13.2516589"><ele>1300.0</ele><time>2026-05-02T15:52:23.132Z</time></trkpt><trkpt lat="42.3151153" lon="13.2517695"><ele>1294.6</ele><time>2026-05-02T15:52:24.136Z</time></trkpt><trkpt lat="42.3152062" lon="13.2518785"><ele>1289.2</ele><time>2026-05-02T15:52:25.13Z</time></trkpt><trkpt lat="42.3152862" lon="13.2519841"><ele>1283.8</ele><time>2026-05-02T15:52:26.126Z</time></trkpt><trkpt lat="42.315357" lon="13.2521029"><ele>1278.4</ele><time>2026-05-02T15:52:27.128Z</time></trkpt><trkpt lat="42.3154177" lon="13.2521723"><ele>1273.0</ele><time>2026-05-02T15:52:28.132Z</time></trkpt><trkpt lat="42.3155115" lon="13.2522298"><ele>1270.75</ele><time>2026-05-02T15:52:29.133Z</time></trkpt><trkpt lat="42.315609" lon="13.2522667"><ele>1268.5</ele><time>2026-05-02T15:52:30.126Z</time></trkpt><trkpt lat="42.3157173" lon="13.252291"><ele>1266.25</ele><time>2026-05-02T15:52:31.132Z</time></trkpt><trkpt lat="42.3158405" lon="13.252279"><ele>1264.0</ele><time>2026-05-02T15:52:32.129Z</time></trkpt><trkpt lat="42.3159701" lon="13.2522406"><ele>1269.4</ele><time>2026-05-02T15:52:33.135Z</time></trkpt><trkpt lat="42.3160896" lon="13.2521989"><ele>1274.8000000000002</ele><time>2026-05-02T15:52:34.137Z</time></trkpt><trkpt lat="42.3161987" lon="13.2521522"><ele>1280.1999999999998</ele><time>2026-05-02T15:52:35.13Z</time></trkpt><trkpt lat="42.3162975" lon="13.252109"><ele>1285.6</ele><time>2026-05-02T15:52:36.135Z</time></trkpt><trkpt lat="42.3163813" lon="13.252065"><ele>1291.0</ele><time>2026-05-02T15:52:37.135Z</time></trkpt><trkpt lat="42.3164623" lon="13.2520448"><ele>1291.0</ele><time>2026-05-02T15:52:38.135Z</time></trkpt><trkpt lat="42.3165417" lon="13.2520488"><ele>1291.0</ele><time>2026-05-02T15:52:39.125Z</time></trkpt><trkpt lat="42.3166215" lon="13.2520767"><ele>1291.0</ele><time>2026-05-02T15:52:40.138Z</time></trkpt><trkpt lat="42.3166743" lon="13.2521516"><ele>1291.0</ele><time>2026-05-02T15:52:41.126Z</time></trkpt><trkpt lat="42.316714" lon="13.2522512"><ele>1291.0</ele><time>2026-05-02T15:52:42.139Z</time></trkpt><trkpt lat="42.316721" lon="13.2523801"><ele>1291.0</ele><time>2026-05-02T15:52:43.132Z</time></trkpt><trkpt lat="42.3166862" lon="13.2525116"><ele>1287.6</ele><time>2026-05-02T15:52:44.133Z</time></trkpt><trkpt lat="42.3166143" lon="13.2526302"><ele>1284.1999999999998</ele><time>2026-05-02T15:52:45.122Z</time></trkpt><trkpt lat="42.3165303" lon="13.2527227"><ele>1280.8000000000002</ele><time>2026-05-02T15:52:46.129Z</time></trkpt><trkpt lat="42.3164582" lon="13.2528147"><ele>1277.4</ele><time>2026-05-02T15:52:47.13Z</time></trkpt><trkpt lat="42.3164025" lon="13.2529089"><ele>1274.0</ele><time>2026-05-02T15:52:48.124Z</time></trkpt><trkpt lat="42.3163819" lon="13.2530033"><ele>1274.0</ele><time>2026-05-02T15:52:49.133Z</time></trkpt><trkpt lat="42.3164183" lon="13.25308"><ele>1274.0</ele><time>2026-05-02T15:52:50.13Z</time></trkpt><trkpt lat="42.316493" lon="13.253123"><ele>1274.0</ele><time>2026-05-02T15:52:51.132Z</time></trkpt><trkpt lat="42.3165792" lon="13.2531359"><ele>1274.0</ele><time>2026-05-02T15:52:52.127Z</time></trkpt><trkpt lat="42.3166776" lon="13.2531242"><ele>1274.0</ele><time>2026-05-02T15:52:53.13Z</time></trkpt><trkpt lat="42.3167861" lon="13.2530852"><ele>1274.0</ele><time>2026-05-02T15:52:54.131Z</time></trkpt><trkpt lat="42.3169096" lon="13.2530299"><ele>1274.0</ele><time>2026-05-02T15:52:55.136Z</time></trkpt><trkpt lat="42.3170406" lon="13.2529685"><ele>1274.0</ele><time>2026-05-02T15:52:56.13Z</time></trkpt><trkpt lat="42.3171761" lon="13.2529113"><ele>1274.0</ele><time>2026-05-02T15:52:57.136Z</time></trkpt><trkpt lat="42.3173117" lon="13.2528496"><ele>1274.0</ele><time>2026-05-02T15:52:58.135Z</time></trkpt><trkpt lat="42.3174449" lon="13.2527926"><ele>1274.5</ele><time>2026-05-02T15:52:59.134Z</time></trkpt><trkpt lat="42.3175801" lon="13.2527418"><ele>1275.0</ele><time>2026-05-02T15:53:00.136Z</time></trkpt><trkpt lat="42.317713" lon="13.2526958"><ele>1275.5</ele><time>2026-05-02T15:53:01.134Z</time></trkpt><trkpt lat="42.3178455" lon="13.2526557"><ele>1276.0</ele><time>2026-05-02T15:53:02.136Z</time></trkpt><trkpt lat="42.3179782" lon="13.2526259"><ele>1274.5</ele><time>2026-05-02T15:53:03.135Z</time></trkpt><trkpt lat="42.3181196" lon="13.2525979"><ele>1273.0</ele><time>2026-05-02T15:53:04.134Z</time></trkpt><trkpt lat="42.318266" lon="13.2525869"><ele>1271.5</ele><time>2026-05-02T15:53:05.132Z</time></trkpt><trkpt lat="42.3184107" lon="13.2525742"><ele>1270.0</ele><time>2026-05-02T15:53:06.137Z</time></trkpt><trkpt lat="42.3185467" lon="13.252572"><ele>1270.0</ele><time>2026-05-02T15:53:07.132Z</time></trkpt><trkpt lat="42.318683" lon="13.252566"><ele>1270.0</ele><time>2026-05-02T15:53:08.135Z</time></trkpt><trkpt lat="42.3188197" lon="13.252545"><ele>1270.0</ele><time>2026-05-02T15:53:09.137Z</time></trkpt><trkpt lat="42.3189547" lon="13.2525189"><ele>1270.0</ele><time>2026-05-02T15:53:10.13Z</time></trkpt><trkpt lat="42.3190821" lon="13.2524853"><ele>1268.75</ele><time>2026-05-02T15:53:11.126Z</time></trkpt><trkpt lat="42.3192123" lon="13.2524644"><ele>1267.5</ele><time>2026-05-02T15:53:12.131Z</time></trkpt><trkpt lat="42.3193402" lon="13.2524434"><ele>1266.25</ele><time>2026-05-02T15:53:13.129Z</time></trkpt><trkpt lat="42.3194559" lon="13.2524231"><ele>1265.0</ele><time>2026-05-02T15:53:14.135Z</time></trkpt><trkpt lat="42.3195772" lon="13.2524022"><ele>1265.0</ele><time>2026-05-02T15:53:15.131Z</time></trkpt><trkpt lat="42.3196891" lon="13.2523788"><ele>1265.0</ele><time>2026-05-02T15:53:16.127Z</time></trkpt><trkpt lat="42.3197973" lon="13.2523331"><ele>1265.0</ele><time>2026-05-02T15:53:17.129Z</time></trkpt><trkpt lat="42.3198916" lon="13.2522555"><ele>1265.0</ele><time>2026-05-02T15:53:18.134Z</time></trkpt><trkpt lat="42.3199737" lon="13.2521399"><ele>1269.0</ele><time>2026-05-02T15:53:19.13Z</time></trkpt><trkpt lat="42.3200478" lon="13.2520016"><ele>1273.0</ele><time>2026-05-02T15:53:20.129Z</time></trkpt><trkpt lat="42.3201249" lon="13.25186"><ele>1277.0</ele><time>2026-05-02T15:53:21.125Z</time></trkpt><trkpt lat="42.32021" lon="13.2517204"><ele>1281.0</ele><time>2026-05-02T15:53:22.133Z</time></trkpt><trkpt lat="42.3202904" lon="13.2515726"><ele>1284.0</ele><time>2026-05-02T15:53:23.128Z</time></trkpt><trkpt lat="42.3203597" lon="13.2514148"><ele>1287.0</ele><time>2026-05-02T15:53:24.125Z</time></trkpt><trkpt lat="42.3204167" lon="13.2512456"><ele>1290.0</ele><time>2026-05-02T15:53:25.129Z</time></trkpt><trkpt lat="42.3204827" lon="13.2510883"><ele>1293.0</ele><time>2026-05-02T15:53:26.125Z</time></trkpt><trkpt lat="42.3205443" lon="13.2509427"><ele>1289.2</ele><time>2026-05-02T15:53:27.123Z</time></trkpt><trkpt lat="42.3205966" lon="13.2507969"><ele>1285.4</ele><time>2026-05-02T15:53:28.116Z</time></trkpt><trkpt lat="42.3206325" lon="13.2506502"><ele>1281.6000000000001</ele><time>2026-05-02T15:53:29.123Z</time></trkpt><trkpt lat="42.3206629" lon="13.2505175"><ele>1277.8000000000002</ele><time>2026-05-02T15:53:30.12Z</time></trkpt><trkpt lat="42.3207039" lon="13.250407"><ele>1274.0</ele><time>2026-05-02T15:53:31.115Z</time></trkpt><trkpt lat="42.3207618" lon="13.2503289"><ele>1274.0</ele><time>2026-05-02T15:53:32.119Z</time></trkpt><trkpt lat="42.3208434" lon="13.2502836"><ele>1274.0</ele><time>2026-05-02T15:53:33.127Z</time></trkpt><trkpt lat="42.3209555" lon="13.250291"><ele>1274.0</ele><time>2026-05-02T15:53:34.125Z</time></trkpt><trkpt lat="42.321069" lon="13.2503269"><ele>1274.0</ele><time>2026-05-02T15:53:35.122Z</time></trkpt><trkpt lat="42.3212074" lon="13.2504001"><ele>1274.0</ele><time>2026-05-02T15:53:36.125Z</time></trkpt><trkpt lat="42.3213543" lon="13.2504959"><ele>1274.0</ele><time>2026-05-02T15:53:37.125Z</time></trkpt><trkpt lat="42.3214943" lon="13.2505897"><ele>1274.0</ele><time>2026-05-02T15:53:38.129Z</time></trkpt><trkpt lat="42.3216467" lon="13.2507143"><ele>1269.0</ele><time>2026-05-02T15:53:39.127Z</time></trkpt><trkpt lat="42.3217625" lon="13.2508331"><ele>1264.0</ele><time>2026-05-02T15:53:40.131Z</time></trkpt><trkpt lat="42.3218486" lon="13.2509019"><ele>1259.0</ele><time>2026-05-02T15:53:41.129Z</time></trkpt><trkpt lat="42.3219206" lon="13.2509385"><ele>1254.0</ele><time>2026-05-02T15:53:42.136Z</time></trkpt><trkpt lat="42.3219978" lon="13.251013"><ele>1249.0</ele><time>2026-05-02T15:53:43.131Z</time></trkpt><trkpt lat="42.3220616" lon="13.2510672"><ele>1249.0</ele><time>2026-05-02T15:53:44.128Z</time></trkpt><trkpt lat="42.3221283" lon="13.2511351"><ele>1249.0</ele><time>2026-05-02T15:53:45.126Z</time></trkpt><trkpt lat="42.3221184" lon="13.2512304"><ele>1249.0</ele><time>2026-05-02T15:53:46.132Z</time></trkpt><trkpt lat="42.3220419" lon="13.251359"><ele>1249.0</ele><time>2026-05-02T15:53:48.127Z</time></trkpt><trkpt lat="42.3219676" lon="13.2513829"><ele>1249.0</ele><time>2026-05-02T15:53:49.13Z</time></trkpt><trkpt lat="42.3218735" lon="13.2513731"><ele>1249.0</ele><time>2026-05-02T15:53:50.122Z</time></trkpt><trkpt lat="42.3217615" lon="13.2513423"><ele>1249.0</ele><time>2026-05-02T15:53:51.122Z</time></trkpt><trkpt lat="42.3216393" lon="13.2512928"><ele>1249.0</ele><time>2026-05-02T15:53:52.13Z</time></trkpt><trkpt lat="42.3215263" lon="13.2512046"><ele>1249.0</ele><time>2026-05-02T15:53:53.132Z</time></trkpt><trkpt lat="42.3214226" lon="13.2510821"><ele>1249.0</ele><time>2026-05-02T15:53:54.129Z</time></trkpt><trkpt lat="42.32133" lon="13.2509423"><ele>1249.5</ele><time>2026-05-02T15:53:55.138Z</time></trkpt><trkpt lat="42.3212436" lon="13.2508112"><ele>1250.0</ele><time>2026-05-02T15:53:56.129Z</time></trkpt><trkpt lat="42.3211513" lon="13.2507067"><ele>1250.5</ele><time>2026-05-02T15:53:57.127Z</time></trkpt><trkpt lat="42.3210498" lon="13.2506332"><ele>1251.0</ele><time>2026-05-02T15:53:58.13Z</time></trkpt><trkpt lat="42.3209425" lon="13.2505861"><ele>1251.0</ele><time>2026-05-02T15:53:59.129Z</time></trkpt><trkpt lat="42.3208438" lon="13.2505579"><ele>1251.0</ele><time>2026-05-02T15:54:00.127Z</time></trkpt><trkpt lat="42.3207532" lon="13.2505534"><ele>1251.0</ele><time>2026-05-02T15:54:01.123Z</time></trkpt><trkpt lat="42.3206741" lon="13.2505799"><ele>1251.0</ele><time>2026-05-02T15:54:02.124Z</time></trkpt><trkpt lat="42.3206334" lon="13.2506586"><ele>1251.0</ele><time>2026-05-02T15:54:03.132Z</time></trkpt><trkpt lat="42.3206289" lon="13.2507937"><ele>1251.0</ele><time>2026-05-02T15:54:04.126Z</time></trkpt><trkpt lat="42.3206104" lon="13.250963"><ele>1251.0</ele><time>2026-05-02T15:54:05.12Z</time></trkpt><trkpt lat="42.3205788" lon="13.2511576"><ele>1251.0</ele><time>2026-05-02T15:54:06.118Z</time></trkpt><trkpt lat="42.3205604" lon="13.2513769"><ele>1251.0</ele><time>2026-05-02T15:54:07.115Z</time></trkpt><trkpt lat="42.3205028" lon="13.251606"><ele>1261.0</ele><time>2026-05-02T15:54:08.112Z</time></trkpt><trkpt lat="42.3204685" lon="13.2518283"><ele>1271.0</ele><time>2026-05-02T15:54:09.118Z</time></trkpt><trkpt lat="42.3203798" lon="13.2520125"><ele>1281.0</ele><time>2026-05-02T15:54:10.116Z</time></trkpt><trkpt lat="42.3202977" lon="13.2522038"><ele>1272.75</ele><time>2026-05-02T15:54:11.11Z</time></trkpt><trkpt lat="42.3201987" lon="13.2523423"><ele>1264.5</ele><time>2026-05-02T15:54:12.113Z</time></trkpt><trkpt lat="42.3201368" lon="13.2524633"><ele>1256.25</ele><time>2026-05-02T15:54:13.116Z</time></trkpt><trkpt lat="42.3200882" lon="13.2525946"><ele>1248.0</ele><time>2026-05-02T15:54:14.123Z</time></trkpt><trkpt lat="42.3200331" lon="13.2527329"><ele>1248.0</ele><time>2026-05-02T15:54:15.122Z</time></trkpt><trkpt lat="42.3199595" lon="13.252831"><ele>1248.0</ele><time>2026-05-02T15:54:16.126Z</time></trkpt><trkpt lat="42.3198683" lon="13.2528892"><ele>1248.0</ele><time>2026-05-02T15:54:17.134Z</time></trkpt><trkpt lat="42.3197807" lon="13.2529487"><ele>1248.0</ele><time>2026-05-02T15:54:18.131Z</time></trkpt><trkpt lat="42.3196935" lon="13.252992"><ele>1248.0</ele><time>2026-05-02T15:54:19.127Z</time></trkpt><trkpt lat="42.3196072" lon="13.2530256"><ele>1251.4</ele><time>2026-05-02T15:54:20.13Z</time></trkpt><trkpt lat="42.319519" lon="13.2530545"><ele>1254.8</ele><time>2026-05-02T15:54:21.133Z</time></trkpt><trkpt lat="42.3194267" lon="13.253069"><ele>1258.2</ele><time>2026-05-02T15:54:22.133Z</time></trkpt><trkpt lat="42.3193393" lon="13.2530836"><ele>1261.6</ele><time>2026-05-02T15:54:23.136Z</time></trkpt><trkpt lat="42.3192519" lon="13.2530964"><ele>1265.0</ele><time>2026-05-02T15:54:24.136Z</time></trkpt><trkpt lat="42.3191601" lon="13.2531143"><ele>1258.8</ele><time>2026-05-02T15:54:25.134Z</time></trkpt><trkpt lat="42.3190652" lon="13.253138"><ele>1252.6</ele><time>2026-05-02T15:54:26.131Z</time></trkpt><trkpt lat="42.3189786" lon="13.2531793"><ele>1246.4</ele><time>2026-05-02T15:54:27.13Z</time></trkpt><trkpt lat="42.3188945" lon="13.2532249"><ele>1240.2</ele><time>2026-05-02T15:54:28.13Z</time></trkpt><trkpt lat="42.3187999" lon="13.2532563"><ele>1234.0</ele><time>2026-05-02T15:54:29.137Z</time></trkpt><trkpt lat="42.318702" lon="13.2532788"><ele>1234.0</ele><time>2026-05-02T15:54:30.13Z</time></trkpt><trkpt lat="42.3186018" lon="13.2532877"><ele>1234.0</ele><time>2026-05-02T15:54:31.131Z</time></trkpt><trkpt lat="42.3184972" lon="13.2532832"><ele>1234.0</ele><time>2026-05-02T15:54:32.134Z</time></trkpt><trkpt lat="42.3183954" lon="13.2532815"><ele>1234.0</ele><time>2026-05-02T15:54:33.135Z</time></trkpt><trkpt lat="42.3182902" lon="13.2532952"><ele>1234.0</ele><time>2026-05-02T15:54:34.13Z</time></trkpt><trkpt lat="42.3181854" lon="13.2533312"><ele>1234.0</ele><time>2026-05-02T15:54:35.134Z</time></trkpt><trkpt lat="42.318076" lon="13.2533806"><ele>1234.0</ele><time>2026-05-02T15:54:36.131Z</time></trkpt><trkpt lat="42.317965" lon="13.2534287"><ele>1234.0</ele><time>2026-05-02T15:54:37.129Z</time></trkpt><trkpt lat="42.3178498" lon="13.2534826"><ele>1234.0</ele><time>2026-05-02T15:54:38.13Z</time></trkpt><trkpt lat="42.3177342" lon="13.253528"><ele>1236.0</ele><time>2026-05-02T15:54:39.132Z</time></trkpt><trkpt lat="42.317625" lon="13.2535682"><ele>1238.0</ele><time>2026-05-02T15:54:40.132Z</time></trkpt><trkpt lat="42.3175163" lon="13.2536015"><ele>1240.0</ele><time>2026-05-02T15:54:41.13Z</time></trkpt><trkpt lat="42.3174027" lon="13.2536312"><ele>1242.0</ele><time>2026-05-02T15:54:42.133Z</time></trkpt><trkpt lat="42.3172858" lon="13.2536744"><ele>1244.5</ele><time>2026-05-02T15:54:43.13Z</time></trkpt><trkpt lat="42.3171709" lon="13.2537285"><ele>1247.0</ele><time>2026-05-02T15:54:44.134Z</time></trkpt><trkpt lat="42.3170606" lon="13.2538003"><ele>1249.5</ele><time>2026-05-02T15:54:45.138Z</time></trkpt><trkpt lat="42.3169511" lon="13.2538691"><ele>1252.0</ele><time>2026-05-02T15:54:46.14Z</time></trkpt><trkpt lat="42.316842" lon="13.2539323"><ele>1241.5</ele><time>2026-05-02T15:54:47.146Z</time></trkpt><trkpt lat="42.3167295" lon="13.2540011"><ele>1231.0</ele><time>2026-05-02T15:54:48.146Z</time></trkpt><trkpt lat="42.3166208" lon="13.2540687"><ele>1220.5</ele><time>2026-05-02T15:54:49.138Z</time></trkpt><trkpt lat="42.3165137" lon="13.2541294"><ele>1210.0</ele><time>2026-05-02T15:54:50.143Z</time></trkpt><trkpt lat="42.316409" lon="13.2541792"><ele>1209.0</ele><time>2026-05-02T15:54:51.144Z</time></trkpt><trkpt lat="42.3163073" lon="13.2542179"><ele>1208.0</ele><time>2026-05-02T15:54:52.141Z</time></trkpt><trkpt lat="42.3162049" lon="13.2542407"><ele>1207.0</ele><time>2026-05-02T15:54:53.132Z</time></trkpt><trkpt lat="42.3161021" lon="13.2542338"><ele>1206.0</ele><time>2026-05-02T15:54:54.139Z</time></trkpt><trkpt lat="42.3160001" lon="13.2541746"><ele>1205.0</ele><time>2026-05-02T15:54:55.132Z</time></trkpt><trkpt lat="42.3158986" lon="13.2540914"><ele>1205.0</ele><time>2026-05-02T15:54:56.135Z</time></trkpt><trkpt lat="42.3157951" lon="13.2539997"><ele>1205.0</ele><time>2026-05-02T15:54:57.131Z</time></trkpt><trkpt lat="42.315689" lon="13.2539322"><ele>1205.0</ele><time>2026-05-02T15:54:58.138Z</time></trkpt><trkpt lat="42.3155852" lon="13.2538954"><ele>1205.0</ele><time>2026-05-02T15:54:59.142Z</time></trkpt><trkpt lat="42.3154889" lon="13.2538571"><ele>1205.0</ele><time>2026-05-02T15:55:00.138Z</time></trkpt><trkpt lat="42.3154017" lon="13.2538101"><ele>1205.6</ele><time>2026-05-02T15:55:01.141Z</time></trkpt><trkpt lat="42.3153266" lon="13.2537249"><ele>1206.2</ele><time>2026-05-02T15:55:02.135Z</time></trkpt><trkpt lat="42.3152776" lon="13.253612"><ele>1206.8</ele><time>2026-05-02T15:55:03.132Z</time></trkpt><trkpt lat="42.315233" lon="13.2534721"><ele>1207.4</ele><time>2026-05-02T15:55:04.139Z</time></trkpt><trkpt lat="42.3151732" lon="13.2533427"><ele>1208.0</ele><time>2026-05-02T15:55:05.124Z</time></trkpt><trkpt lat="42.3150872" lon="13.2532491"><ele>1208.0</ele><time>2026-05-02T15:55:06.133Z</time></trkpt><trkpt lat="42.3149794" lon="13.2531999"><ele>1208.0</ele><time>2026-05-02T15:55:07.136Z</time></trkpt><trkpt lat="42.3148652" lon="13.2531523"><ele>1208.0</ele><time>2026-05-02T15:55:08.136Z</time></trkpt><trkpt lat="42.314764" lon="13.2530829"><ele>1208.0</ele><time>2026-05-02T15:55:09.122Z</time></trkpt><trkpt lat="42.3146821" lon="13.252995"><ele>1212.4</ele><time>2026-05-02T15:55:10.132Z</time></trkpt><trkpt lat="42.3146053" lon="13.2529293"><ele>1216.8</ele><time>2026-05-02T15:55:11.123Z</time></trkpt><trkpt lat="42.3145204" lon="13.2528993"><ele>1221.2</ele><time>2026-05-02T15:55:12.13Z</time></trkpt><trkpt lat="42.3144188" lon="13.2529097"><ele>1225.6</ele><time>2026-05-02T15:55:13.127Z</time></trkpt><trkpt lat="42.314307" lon="13.2529517"><ele>1230.0</ele><time>2026-05-02T15:55:14.129Z</time></trkpt><trkpt lat="42.3141843" lon="13.2530217"><ele>1230.0</ele><time>2026-05-02T15:55:15.134Z</time></trkpt><trkpt lat="42.3140708" lon="13.2531114"><ele>1230.0</ele><time>2026-05-02T15:55:16.131Z</time></trkpt><trkpt lat="42.3139739" lon="13.2532166"><ele>1230.0</ele><time>2026-05-02T15:55:17.143Z</time></trkpt><trkpt lat="42.3138884" lon="13.2533378"><ele>1230.0</ele><time>2026-05-02T15:55:18.133Z</time></trkpt><trkpt lat="42.3138311" lon="13.2534965"><ele>1229.25</ele><time>2026-05-02T15:55:19.145Z</time></trkpt><trkpt lat="42.3137682" lon="13.2536681"><ele>1228.5</ele><time>2026-05-02T15:55:20.133Z</time></trkpt><trkpt lat="42.3136879" lon="13.253826"><ele>1227.75</ele><time>2026-05-02T15:55:21.143Z</time></trkpt><trkpt lat="42.3136072" lon="13.2539805"><ele>1227.0</ele><time>2026-05-02T15:55:22.128Z</time></trkpt><trkpt lat="42.3135386" lon="13.2541466"><ele>1227.0</ele><time>2026-05-02T15:55:23.136Z</time></trkpt><trkpt lat="42.3135128" lon="13.2543604"><ele>1227.0</ele><time>2026-05-02T15:55:24.137Z</time></trkpt><trkpt lat="42.3135023" lon="13.2545311"><ele>1227.0</ele><time>2026-05-02T15:55:25.142Z</time></trkpt><trkpt lat="42.3135167" lon="13.254718"><ele>1227.0</ele><time>2026-05-02T15:55:26.131Z</time></trkpt><trkpt lat="42.3134983" lon="13.2548763"><ele>1223.4</ele><time>2026-05-02T15:55:27.138Z</time></trkpt><trkpt lat="42.3134589" lon="13.2550173"><ele>1219.8000000000002</ele><time>2026-05-02T15:55:28.127Z</time></trkpt><trkpt lat="42.313407" lon="13.2551431"><ele>1216.2</ele><time>2026-05-02T15:55:29.143Z</time></trkpt><trkpt lat="42.3133548" lon="13.2552596"><ele>1212.6000000000001</ele><time>2026-05-02T15:55:30.135Z</time></trkpt><trkpt lat="42.3132815" lon="13.2553359"><ele>1209.0</ele><time>2026-05-02T15:55:31.135Z</time></trkpt><trkpt lat="42.3132046" lon="13.2553698"><ele>1209.0</ele><time>2026-05-02T15:55:32.139Z</time></trkpt><trkpt lat="42.3131182" lon="13.2553727"><ele>1209.0</ele><time>2026-05-02T15:55:33.135Z</time></trkpt><trkpt lat="42.3130205" lon="13.2553486"><ele>1209.0</ele><time>2026-05-02T15:55:34.145Z</time></trkpt><trkpt lat="42.3129069" lon="13.2552746"><ele>1209.0</ele><time>2026-05-02T15:55:35.135Z</time></trkpt><trkpt lat="42.3127925" lon="13.2552023"><ele>1209.0</ele><time>2026-05-02T15:55:36.136Z</time></trkpt><trkpt lat="42.312681" lon="13.2551547"><ele>1211.8</ele><time>2026-05-02T15:55:37.137Z</time></trkpt><trkpt lat="42.3125679" lon="13.2551185"><ele>1214.6000000000001</ele><time>2026-05-02T15:55:38.137Z</time></trkpt><trkpt lat="42.3124569" lon="13.2551066"><ele>1217.4</ele><time>2026-05-02T15:55:39.137Z</time></trkpt><trkpt lat="42.3123493" lon="13.2551458"><ele>1220.2</ele><time>2026-05-02T15:55:40.13Z</time></trkpt><trkpt lat="42.3122698" lon="13.2552402"><ele>1223.0</ele><time>2026-05-02T15:55:41.127Z</time></trkpt><trkpt lat="42.3122205" lon="13.2553765"><ele>1222.0</ele><time>2026-05-02T15:55:42.133Z</time></trkpt><trkpt lat="42.3122" lon="13.2555361"><ele>1221.0</ele><time>2026-05-02T15:55:43.133Z</time></trkpt><trkpt lat="42.3122033" lon="13.2556955"><ele>1220.0</ele><time>2026-05-02T15:55:44.128Z</time></trkpt><trkpt lat="42.312228" lon="13.2558671"><ele>1219.0</ele><time>2026-05-02T15:55:45.13Z</time></trkpt><trkpt lat="42.3122521" lon="13.2560334"><ele>1214.6000000000001</ele><time>2026-05-02T15:55:46.122Z</time></trkpt><trkpt lat="42.3122594" lon="13.2561931"><ele>1210.2</ele><time>2026-05-02T15:55:47.13Z</time></trkpt><trkpt lat="42.3122491" lon="13.2563348"><ele>1205.8000000000002</ele><time>2026-05-02T15:55:48.132Z</time></trkpt><trkpt lat="42.3122221" lon="13.2564702"><ele>1201.4</ele><time>2026-05-02T15:55:49.13Z</time></trkpt><trkpt lat="42.3121682" lon="13.2565849"><ele>1197.0</ele><time>2026-05-02T15:55:50.14Z</time></trkpt><trkpt lat="42.3120773" lon="13.2566748"><ele>1196.2</ele><time>2026-05-02T15:55:51.144Z</time></trkpt><trkpt lat="42.311979" lon="13.256739"><ele>1195.4</ele><time>2026-05-02T15:55:52.139Z</time></trkpt><trkpt lat="42.311883" lon="13.2567657"><ele>1194.6</ele><time>2026-05-02T15:55:53.136Z</time></trkpt><trkpt lat="42.3117777" lon="13.2567697"><ele>1193.8</ele><time>2026-05-02T15:55:54.143Z</time></trkpt><trkpt lat="42.311667" lon="13.2567368"><ele>1193.0</ele><time>2026-05-02T15:55:55.138Z</time></trkpt><trkpt lat="42.3115491" lon="13.2566637"><ele>1193.0</ele><time>2026-05-02T15:55:56.134Z</time></trkpt><trkpt lat="42.311436" lon="13.2565866"><ele>1193.0</ele><time>2026-05-02T15:55:57.132Z</time></trkpt><trkpt lat="42.3113144" lon="13.2565402"><ele>1193.0</ele><time>2026-05-02T15:55:58.14Z</time></trkpt><trkpt lat="42.3111995" lon="13.2565655"><ele>1193.0</ele><time>2026-05-02T15:55:59.128Z</time></trkpt><trkpt lat="42.3110886" lon="13.2566329"><ele>1197.25</ele><time>2026-05-02T15:56:00.132Z</time></trkpt><trkpt lat="42.3109823" lon="13.2567414"><ele>1201.5</ele><time>2026-05-02T15:56:01.124Z</time></trkpt><trkpt lat="42.3108997" lon="13.2568907"><ele>1205.75</ele><time>2026-05-02T15:56:02.118Z</time></trkpt><trkpt lat="42.3108473" lon="13.2570726"><ele>1210.0</ele><time>2026-05-02T15:56:03.12Z</time></trkpt><trkpt lat="42.310807" lon="13.2572472"><ele>1204.0</ele><time>2026-05-02T15:56:04.127Z</time></trkpt><trkpt lat="42.3107683" lon="13.2574108"><ele>1198.0</ele><time>2026-05-02T15:56:05.123Z</time></trkpt><trkpt lat="42.3107241" lon="13.2575706"><ele>1192.0</ele><time>2026-05-02T15:56:06.12Z</time></trkpt><trkpt lat="42.3106614" lon="13.2577303"><ele>1186.0</ele><time>2026-05-02T15:56:07.125Z</time></trkpt><trkpt lat="42.3105845" lon="13.2578759"><ele>1183.25</ele><time>2026-05-02T15:56:08.126Z</time></trkpt><trkpt lat="42.3104919" lon="13.2579932"><ele>1180.5</ele><time>2026-05-02T15:56:09.131Z</time></trkpt><trkpt lat="42.3103864" lon="13.2580812"><ele>1177.75</ele><time>2026-05-02T15:56:10.126Z</time></trkpt><trkpt lat="42.310264" lon="13.2581191"><ele>1175.0</ele><time>2026-05-02T15:56:11.126Z</time></trkpt><trkpt lat="42.3101548" lon="13.2581414"><ele>1175.0</ele><time>2026-05-02T15:56:12.129Z</time></trkpt><trkpt lat="42.3100377" lon="13.2581271"><ele>1175.0</ele><time>2026-05-02T15:56:13.132Z</time></trkpt><trkpt lat="42.3099207" lon="13.2581394"><ele>1175.0</ele><time>2026-05-02T15:56:14.129Z</time></trkpt><trkpt lat="42.3098123" lon="13.2581897"><ele>1175.0</ele><time>2026-05-02T15:56:15.133Z</time></trkpt><trkpt lat="42.3097304" lon="13.2582921"><ele>1180.5</ele><time>2026-05-02T15:56:16.13Z</time></trkpt><trkpt lat="42.3096515" lon="13.2584095"><ele>1186.0</ele><time>2026-05-02T15:56:17.136Z</time></trkpt><trkpt lat="42.3095895" lon="13.258542"><ele>1191.5</ele><time>2026-05-02T15:56:18.137Z</time></trkpt><trkpt lat="42.3095175" lon="13.2586684"><ele>1197.0</ele><time>2026-05-02T15:56:19.137Z</time></trkpt><trkpt lat="42.3094392" lon="13.2587912"><ele>1197.0</ele><time>2026-05-02T15:56:20.137Z</time></trkpt><trkpt lat="42.3093551" lon="13.2589026"><ele>1197.0</ele><time>2026-05-02T15:56:21.132Z</time></trkpt><trkpt lat="42.3092601" lon="13.2589975"><ele>1197.0</ele><time>2026-05-02T15:56:22.131Z</time></trkpt><trkpt lat="42.3091584" lon="13.2590742"><ele>1197.0</ele><time>2026-05-02T15:56:23.135Z</time></trkpt><trkpt lat="42.3090365" lon="13.2591273"><ele>1192.25</ele><time>2026-05-02T15:56:24.136Z</time></trkpt><trkpt lat="42.3089082" lon="13.2591609"><ele>1187.5</ele><time>2026-05-02T15:56:25.137Z</time></trkpt><trkpt lat="42.3087769" lon="13.2591983"><ele>1182.75</ele><time>2026-05-02T15:56:26.135Z</time></trkpt><trkpt lat="42.3086475" lon="13.2592555"><ele>1178.0</ele><time>2026-05-02T15:56:27.136Z</time></trkpt><trkpt lat="42.3085193" lon="13.2593409"><ele>1178.0</ele><time>2026-05-02T15:56:28.14Z</time></trkpt><trkpt lat="42.308395" lon="13.259443"><ele>1178.0</ele><time>2026-05-02T15:56:29.131Z</time></trkpt><trkpt lat="42.3082715" lon="13.2595874"><ele>1178.0</ele><time>2026-05-02T15:56:30.137Z</time></trkpt><trkpt lat="42.3081547" lon="13.2596832"><ele>1178.0</ele><time>2026-05-02T15:56:31.136Z</time></trkpt><trkpt lat="42.3080463" lon="13.2597728"><ele>1173.6</ele><time>2026-05-02T15:56:32.136Z</time></trkpt><trkpt lat="42.3079499" lon="13.259845"><ele>1169.1999999999998</ele><time>2026-05-02T15:56:33.134Z</time></trkpt><trkpt lat="42.3078542" lon="13.2599281"><ele>1164.8</ele><time>2026-05-02T15:56:34.135Z</time></trkpt><trkpt lat="42.3077522" lon="13.2599842"><ele>1160.3999999999999</ele><time>2026-05-02T15:56:35.137Z</time></trkpt><trkpt lat="42.3076456" lon="13.2600158"><ele>1156.0</ele><time>2026-05-02T15:56:36.141Z</time></trkpt><trkpt lat="42.3075407" lon="13.2600518"><ele>1156.0</ele><time>2026-05-02T15:56:37.136Z</time></trkpt><trkpt lat="42.3074315" lon="13.2600622"><ele>1156.0</ele><time>2026-05-02T15:56:38.135Z</time></trkpt><trkpt lat="42.3073258" lon="13.2600355"><ele>1156.0</ele><time>2026-05-02T15:56:39.136Z</time></trkpt><trkpt lat="42.3072308" lon="13.2599639"><ele>1156.0</ele><time>2026-05-02T15:56:40.141Z</time></trkpt><trkpt lat="42.3071512" lon="13.2598341"><ele>1153.5</ele><time>2026-05-02T15:56:41.139Z</time></trkpt><trkpt lat="42.3070793" lon="13.2596843"><ele>1151.0</ele><time>2026-05-02T15:56:42.135Z</time></trkpt><trkpt lat="42.3070128" lon="13.2595415"><ele>1148.5</ele><time>2026-05-02T15:56:43.134Z</time></trkpt><trkpt lat="42.3069544" lon="13.2594147"><ele>1146.0</ele><time>2026-05-02T15:56:44.141Z</time></trkpt><trkpt lat="42.3068937" lon="13.2592865"><ele>1146.0</ele><time>2026-05-02T15:56:45.136Z</time></trkpt><trkpt lat="42.3068377" lon="13.2591512"><ele>1146.0</ele><time>2026-05-02T15:56:46.145Z</time></trkpt><trkpt lat="42.306796" lon="13.2589993"><ele>1146.0</ele><time>2026-05-02T15:56:47.142Z</time></trkpt><trkpt lat="42.306756" lon="13.2588335"><ele>1146.0</ele><time>2026-05-02T15:56:48.139Z</time></trkpt><trkpt lat="42.3067192" lon="13.2586718"><ele>1148.25</ele><time>2026-05-02T15:56:49.142Z</time></trkpt><trkpt lat="42.306676" lon="13.2585214"><ele>1150.5</ele><time>2026-05-02T15:56:50.14Z</time></trkpt><trkpt lat="42.3066298" lon="13.2583771"><ele>1152.75</ele><time>2026-05-02T15:56:51.136Z</time></trkpt><trkpt lat="42.3065808" lon="13.2582446"><ele>1155.0</ele><time>2026-05-02T15:56:52.139Z</time></trkpt><trkpt lat="42.306517" lon="13.2581199"><ele>1157.0</ele><time>2026-05-02T15:56:53.134Z</time></trkpt><trkpt lat="42.3064392" lon="13.2580002"><ele>1159.0</ele><time>2026-05-02T15:56:54.141Z</time></trkpt><trkpt lat="42.3063471" lon="13.2578921"><ele>1161.0</ele><time>2026-05-02T15:56:55.139Z</time></trkpt><trkpt lat="42.3062448" lon="13.2578067"><ele>1163.0</ele><time>2026-05-02T15:56:56.14Z</time></trkpt><trkpt lat="42.3061197" lon="13.2577479"><ele>1163.0</ele><time>2026-05-02T15:56:57.129Z</time></trkpt><trkpt lat="42.3059888" lon="13.2577174"><ele>1163.0</ele><time>2026-05-02T15:56:58.14Z</time></trkpt><trkpt lat="42.305849" lon="13.2577155"><ele>1163.0</ele><time>2026-05-02T15:56:59.14Z</time></trkpt><trkpt lat="42.3057079" lon="13.2577418"><ele>1163.0</ele><time>2026-05-02T15:57:00.134Z</time></trkpt><trkpt lat="42.3055704" lon="13.2577766"><ele>1161.75</ele><time>2026-05-02T15:57:01.141Z</time></trkpt><trkpt lat="42.3054352" lon="13.2578192"><ele>1160.5</ele><time>2026-05-02T15:57:02.14Z</time></trkpt><trkpt lat="42.3053092" lon="13.2578611"><ele>1159.25</ele><time>2026-05-02T15:57:03.139Z</time></trkpt><trkpt lat="42.3051923" lon="13.2578852"><ele>1158.0</ele><time>2026-05-02T15:57:04.131Z</time></trkpt><trkpt lat="42.3050693" lon="13.2578877"><ele>1158.0</ele><time>2026-05-02T15:57:05.128Z</time></trkpt><trkpt lat="42.3049492" lon="13.2578633"><ele>1158.0</ele><time>2026-05-02T15:57:06.132Z</time></trkpt><trkpt lat="42.3048241" lon="13.2578367"><ele>1158.0</ele><time>2026-05-02T15:57:07.137Z</time></trkpt><trkpt lat="42.3046996" lon="13.257815"><ele>1158.0</ele><time>2026-05-02T15:57:08.138Z</time></trkpt><trkpt lat="42.3045741" lon="13.2578159"><ele>1159.5</ele><time>2026-05-02T15:57:09.139Z</time></trkpt><trkpt lat="42.3044423" lon="13.257846"><ele>1161.0</ele><time>2026-05-02T15:57:10.135Z</time></trkpt><trkpt lat="42.3043141" lon="13.2578962"><ele>1162.5</ele><time>2026-05-02T15:57:11.134Z</time></trkpt><trkpt lat="42.3041803" lon="13.2579588"><ele>1164.0</ele><time>2026-05-02T15:57:12.129Z</time></trkpt><trkpt lat="42.3040475" lon="13.2580241"><ele>1164.0</ele><time>2026-05-02T15:57:13.13Z</time></trkpt><trkpt lat="42.3038991" lon="13.2581106"><ele>1164.0</ele><time>2026-05-02T15:57:14.137Z</time></trkpt><trkpt lat="42.3037626" lon="13.2581969"><ele>1164.0</ele><time>2026-05-02T15:57:15.132Z</time></trkpt><trkpt lat="42.3036494" lon="13.2582402"><ele>1164.0</ele><time>2026-05-02T15:57:16.132Z</time></trkpt><trkpt lat="42.3035217" lon="13.2582942"><ele>1157.0</ele><time>2026-05-02T15:57:17.138Z</time></trkpt><trkpt lat="42.3034175" lon="13.2583264"><ele>1150.0</ele><time>2026-05-02T15:57:18.133Z</time></trkpt><trkpt lat="42.3032942" lon="13.2583381"><ele>1143.0</ele><time>2026-05-02T15:57:19.134Z</time></trkpt><trkpt lat="42.3031994" lon="13.2583512"><ele>1136.0</ele><time>2026-05-02T15:57:20.131Z</time></trkpt><trkpt lat="42.3031023" lon="13.258341"><ele>1129.0</ele><time>2026-05-02T15:57:21.142Z</time></trkpt><trkpt lat="42.3030142" lon="13.2583006"><ele>1130.0</ele><time>2026-05-02T15:57:22.134Z</time></trkpt><trkpt lat="42.3029221" lon="13.2582294"><ele>1131.0</ele><time>2026-05-02T15:57:23.14Z</time></trkpt><trkpt lat="42.3028424" lon="13.2581115"><ele>1132.0</ele><time>2026-05-02T15:57:24.133Z</time></trkpt><trkpt lat="42.3027573" lon="13.2579845"><ele>1133.0</ele><time>2026-05-02T15:57:25.14Z</time></trkpt><trkpt lat="42.3026648" lon="13.2578541"><ele>1133.0</ele><time>2026-05-02T15:57:26.138Z</time></trkpt><trkpt lat="42.3025967" lon="13.2577054"><ele>1133.0</ele><time>2026-05-02T15:57:27.128Z</time></trkpt><trkpt lat="42.3024897" lon="13.2575752"><ele>1133.0</ele><time>2026-05-02T15:57:28.142Z</time></trkpt><trkpt lat="42.3023916" lon="13.257446"><ele>1133.0</ele><time>2026-05-02T15:57:29.137Z</time></trkpt><trkpt lat="42.3022834" lon="13.2573274"><ele>1132.25</ele><time>2026-05-02T15:57:30.132Z</time></trkpt><trkpt lat="42.3021866" lon="13.2572125"><ele>1131.5</ele><time>2026-05-02T15:57:31.139Z</time></trkpt><trkpt lat="42.302083" lon="13.2571136"><ele>1130.75</ele><time>2026-05-02T15:57:32.129Z</time></trkpt><trkpt lat="42.3019757" lon="13.2570503"><ele>1130.0</ele><time>2026-05-02T15:57:33.137Z</time></trkpt><trkpt lat="42.3018646" lon="13.256976"><ele>1130.0</ele><time>2026-05-02T15:57:34.14Z</time></trkpt><trkpt lat="42.3017637" lon="13.2569154"><ele>1130.0</ele><time>2026-05-02T15:57:35.134Z</time></trkpt><trkpt lat="42.3016731" lon="13.2568417"><ele>1130.0</ele><time>2026-05-02T15:57:36.133Z</time></trkpt><trkpt lat="42.3015828" lon="13.2567734"><ele>1130.0</ele><time>2026-05-02T15:57:37.138Z</time></trkpt><trkpt lat="42.3014892" lon="13.2567269"><ele>1130.0</ele><time>2026-05-02T15:57:38.127Z</time></trkpt><trkpt lat="42.3013945" lon="13.2567214"><ele>1139.0</ele><time>2026-05-02T15:57:39.128Z</time></trkpt><trkpt lat="42.3013011" lon="13.2567682"><ele>1148.0</ele><time>2026-05-02T15:57:40.137Z</time></trkpt><trkpt lat="42.3012228" lon="13.25687"><ele>1157.0</ele><time>2026-05-02T15:57:41.121Z</time></trkpt><trkpt lat="42.3011545" lon="13.2569982"><ele>1166.0</ele><time>2026-05-02T15:57:42.119Z</time></trkpt><trkpt lat="42.3010966" lon="13.2571643"><ele>1161.0</ele><time>2026-05-02T15:57:43.128Z</time></trkpt><trkpt lat="42.3010548" lon="13.2573616"><ele>1156.0</ele><time>2026-05-02T15:57:44.126Z</time></trkpt><trkpt lat="42.3010346" lon="13.2575776"><ele>1151.0</ele><time>2026-05-02T15:57:45.128Z</time></trkpt><trkpt lat="42.3010193" lon="13.2578267"><ele>1151.0</ele><time>2026-05-02T15:57:46.126Z</time></trkpt><trkpt lat="42.3009943" lon="13.2580424"><ele>1151.0</ele><time>2026-05-02T15:57:47.133Z</time></trkpt><trkpt lat="42.3009967" lon="13.2582594"><ele>1151.0</ele><time>2026-05-02T15:57:48.129Z</time></trkpt><trkpt lat="42.3009647" lon="13.258456"><ele>1148.0</ele><time>2026-05-02T15:57:49.13Z</time></trkpt><trkpt lat="42.300973" lon="13.2586772"><ele>1145.0</ele><time>2026-05-02T15:57:50.125Z</time></trkpt><trkpt lat="42.3009561" lon="13.2588593"><ele>1142.0</ele><time>2026-05-02T15:57:51.133Z</time></trkpt><trkpt lat="42.3009755" lon="13.2590502"><ele>1139.0</ele><time>2026-05-02T15:57:52.126Z</time></trkpt><trkpt lat="42.3010024" lon="13.2592467"><ele>1138.0</ele><time>2026-05-02T15:57:53.127Z</time></trkpt><trkpt lat="42.3010391" lon="13.2594476"><ele>1137.0</ele><time>2026-05-02T15:57:54.128Z</time></trkpt><trkpt lat="42.301052" lon="13.2596233"><ele>1136.0</ele><time>2026-05-02T15:57:55.124Z</time></trkpt><trkpt lat="42.3010743" lon="13.2597775"><ele>1135.0</ele><time>2026-05-02T15:57:56.125Z</time></trkpt><trkpt lat="42.3010844" lon="13.2599381"><ele>1134.25</ele><time>2026-05-02T15:57:57.12Z</time></trkpt><trkpt lat="42.3011032" lon="13.2601197"><ele>1133.5</ele><time>2026-05-02T15:57:58.125Z</time></trkpt><trkpt lat="42.3011485" lon="13.2603053"><ele>1132.75</ele><time>2026-05-02T15:57:59.13Z</time></trkpt><trkpt lat="42.3011644" lon="13.2604684"><ele>1132.0</ele><time>2026-05-02T15:58:00.128Z</time></trkpt><trkpt lat="42.3011763" lon="13.2606302"><ele>1129.4</ele><time>2026-05-02T15:58:01.129Z</time></trkpt><trkpt lat="42.3011839" lon="13.2607636"><ele>1126.8000000000002</ele><time>2026-05-02T15:58:02.13Z</time></trkpt><trkpt lat="42.3011828" lon="13.2609087"><ele>1124.2</ele><time>2026-05-02T15:58:03.124Z</time></trkpt><trkpt lat="42.3011705" lon="13.2610352"><ele>1121.6000000000001</ele><time>2026-05-02T15:58:04.133Z</time></trkpt><trkpt lat="42.3011252" lon="13.2611498"><ele>1119.0</ele><time>2026-05-02T15:58:05.129Z</time></trkpt><trkpt lat="42.3010245" lon="13.2612439"><ele>1119.0</ele><time>2026-05-02T15:58:06.126Z</time></trkpt><trkpt lat="42.3009004" lon="13.2613386"><ele>1119.0</ele><time>2026-05-02T15:58:07.129Z</time></trkpt><trkpt lat="42.3007702" lon="13.2614265"><ele>1119.0</ele><time>2026-05-02T15:58:08.13Z</time></trkpt><trkpt lat="42.3006268" lon="13.2614919"><ele>1119.0</ele><time>2026-05-02T15:58:09.131Z</time></trkpt><trkpt lat="42.3004575" lon="13.2615234"><ele>1117.25</ele><time>2026-05-02T15:58:10.13Z</time></trkpt><trkpt lat="42.300325" lon="13.2615494"><ele>1115.5</ele><time>2026-05-02T15:58:11.128Z</time></trkpt><trkpt lat="42.3002372" lon="13.2616536"><ele>1113.75</ele><time>2026-05-02T15:58:12.146Z</time></trkpt><trkpt lat="42.3001771" lon="13.2618005"><ele>1112.0</ele><time>2026-05-02T15:58:13.137Z</time></trkpt><trkpt lat="42.3001526" lon="13.2619651"><ele>1112.0</ele><time>2026-05-02T15:58:14.137Z</time></trkpt><trkpt lat="42.3001283" lon="13.2621102"><ele>1112.0</ele><time>2026-05-02T15:58:15.135Z</time></trkpt><trkpt lat="42.300074" lon="13.2622346"><ele>1112.0</ele><time>2026-05-02T15:58:16.132Z</time></trkpt><trkpt lat="42.2999952" lon="13.262327"><ele>1112.0</ele><time>2026-05-02T15:58:17.13Z</time></trkpt><trkpt lat="42.2998899" lon="13.2623918"><ele>1112.0</ele><time>2026-05-02T15:58:18.125Z</time></trkpt><trkpt lat="42.2997756" lon="13.2624415"><ele>1106.0</ele><time>2026-05-02T15:58:19.139Z</time></trkpt><trkpt lat="42.2996751" lon="13.2625053"><ele>1100.0</ele><time>2026-05-02T15:58:20.136Z</time></trkpt><trkpt lat="42.2995882" lon="13.2625905"><ele>1094.0</ele><time>2026-05-02T15:58:21.139Z</time></trkpt><trkpt lat="42.2995028" lon="13.2626623"><ele>1088.0</ele><time>2026-05-02T15:58:22.13Z</time></trkpt><trkpt lat="42.2994302" lon="13.2627201"><ele>1082.0</ele><time>2026-05-02T15:58:23.127Z</time></trkpt><trkpt lat="42.2993529" lon="13.2627357"><ele>1082.0</ele><time>2026-05-02T15:58:24.137Z</time></trkpt><trkpt lat="42.2992783" lon="13.2626995"><ele>1082.0</ele><time>2026-05-02T15:58:25.127Z</time></trkpt><trkpt lat="42.2992147" lon="13.2626176"><ele>1082.0</ele><time>2026-05-02T15:58:26.133Z</time></trkpt><trkpt lat="42.2991597" lon="13.2624794"><ele>1082.0</ele><time>2026-05-02T15:58:27.134Z</time></trkpt><trkpt lat="42.2991198" lon="13.2623165"><ele>1082.0</ele><time>2026-05-02T15:58:28.129Z</time></trkpt><trkpt lat="42.2990904" lon="13.2621458"><ele>1086.0</ele><time>2026-05-02T15:58:29.131Z</time></trkpt><trkpt lat="42.2990561" lon="13.2619782"><ele>1090.0</ele><time>2026-05-02T15:58:30.132Z</time></trkpt><trkpt lat="42.2990247" lon="13.2618273"><ele>1094.0</ele><time>2026-05-02T15:58:31.127Z</time></trkpt><trkpt lat="42.298993" lon="13.2616905"><ele>1098.0</ele><time>2026-05-02T15:58:32.123Z</time></trkpt><trkpt lat="42.2989494" lon="13.2615598"><ele>1097.8</ele><time>2026-05-02T15:58:33.117Z</time></trkpt><trkpt lat="42.2988978" lon="13.2614785"><ele>1097.6</ele><time>2026-05-02T15:58:34.122Z</time></trkpt><trkpt lat="42.2988256" lon="13.2614372"><ele>1097.4</ele><time>2026-05-02T15:58:35.121Z</time></trkpt><trkpt lat="42.2987398" lon="13.2614682"><ele>1097.2</ele><time>2026-05-02T15:58:36.125Z</time></trkpt><trkpt lat="42.2986465" lon="13.2615262"><ele>1097.0</ele><time>2026-05-02T15:58:37.119Z</time></trkpt><trkpt lat="42.2985405" lon="13.2615987"><ele>1097.0</ele><time>2026-05-02T15:58:38.118Z</time></trkpt><trkpt lat="42.298437" lon="13.2617303"><ele>1097.0</ele><time>2026-05-02T15:58:39.118Z</time></trkpt><trkpt lat="42.298333" lon="13.261858"><ele>1097.0</ele><time>2026-05-02T15:58:40.12Z</time></trkpt><trkpt lat="42.2982266" lon="13.2619607"><ele>1097.0</ele><time>2026-05-02T15:58:41.125Z</time></trkpt><trkpt lat="42.2981093" lon="13.2620142"><ele>1096.6</ele><time>2026-05-02T15:58:42.13Z</time></trkpt><trkpt lat="42.2979968" lon="13.2620503"><ele>1096.2</ele><time>2026-05-02T15:58:43.126Z</time></trkpt><trkpt lat="42.2978992" lon="13.2621162"><ele>1095.8</ele><time>2026-05-02T15:58:44.125Z</time></trkpt><trkpt lat="42.2978257" lon="13.262214"><ele>1095.4</ele><time>2026-05-02T15:58:45.137Z</time></trkpt><trkpt lat="42.2977918" lon="13.2623445"><ele>1095.0</ele><time>2026-05-02T15:58:46.137Z</time></trkpt><trkpt lat="42.2977948" lon="13.2624952"><ele>1095.0</ele><time>2026-05-02T15:58:47.134Z</time></trkpt><trkpt lat="42.2978087" lon="13.2626505"><ele>1095.0</ele><time>2026-05-02T15:58:48.121Z</time></trkpt><trkpt lat="42.297823" lon="13.262823"><ele>1095.0</ele><time>2026-05-02T15:58:49.117Z</time></trkpt><trkpt lat="42.2978112" lon="13.2629992"><ele>1095.0</ele><time>2026-05-02T15:58:50.113Z</time></trkpt><trkpt lat="42.2977777" lon="13.2631545"><ele>1089.8</ele><time>2026-05-02T15:58:51.12Z</time></trkpt><trkpt lat="42.2977246" lon="13.2632723"><ele>1084.6</ele><time>2026-05-02T15:58:52.122Z</time></trkpt><trkpt lat="42.2976607" lon="13.2633577"><ele>1079.4</ele><time>2026-05-02T15:58:53.129Z</time></trkpt><trkpt lat="42.2975757" lon="13.2634131"><ele>1074.2</ele><time>2026-05-02T15:58:54.123Z</time></trkpt><trkpt lat="42.2974616" lon="13.2634378"><ele>1069.0</ele><time>2026-05-02T15:58:55.13Z</time></trkpt><trkpt lat="42.2973446" lon="13.2634235"><ele>1073.5</ele><time>2026-05-02T15:58:56.126Z</time></trkpt><trkpt lat="42.2972403" lon="13.2633918"><ele>1078.0</ele><time>2026-05-02T15:58:57.121Z</time></trkpt><trkpt lat="42.2971356" lon="13.2633762"><ele>1082.5</ele><time>2026-05-02T15:58:58.125Z</time></trkpt><trkpt lat="42.2970243" lon="13.2633963"><ele>1087.0</ele><time>2026-05-02T15:58:59.135Z</time></trkpt><trkpt lat="42.2968999" lon="13.2634523"><ele>1087.0</ele><time>2026-05-02T15:59:00.135Z</time></trkpt><trkpt lat="42.2967871" lon="13.2635385"><ele>1087.0</ele><time>2026-05-02T15:59:01.132Z</time></trkpt><trkpt lat="42.2967086" lon="13.2636441"><ele>1087.0</ele><time>2026-05-02T15:59:02.132Z</time></trkpt><trkpt lat="42.2966917" lon="13.2637864"><ele>1087.0</ele><time>2026-05-02T15:59:03.131Z</time></trkpt><trkpt lat="42.2967034" lon="13.2639432"><ele>1083.8</ele><time>2026-05-02T15:59:04.132Z</time></trkpt><trkpt lat="42.2967227" lon="13.2640895"><ele>1080.6</ele><time>2026-05-02T15:59:05.128Z</time></trkpt><trkpt lat="42.2967137" lon="13.2642275"><ele>1077.3999999999999</ele><time>2026-05-02T15:59:06.126Z</time></trkpt><trkpt lat="42.2966552" lon="13.2643586"><ele>1074.2</ele><time>2026-05-02T15:59:07.126Z</time></trkpt><trkpt lat="42.2965717" lon="13.2644639"><ele>1071.0</ele><time>2026-05-02T15:59:08.128Z</time></trkpt><trkpt lat="42.2964874" lon="13.2645632"><ele>1071.0</ele><time>2026-05-02T15:59:09.125Z</time></trkpt><trkpt lat="42.2964335" lon="13.2646836"><ele>1071.0</ele><time>2026-05-02T15:59:10.133Z</time></trkpt><trkpt lat="42.2964187" lon="13.2648364"><ele>1071.0</ele><time>2026-05-02T15:59:11.124Z</time></trkpt><trkpt lat="42.2964268" lon="13.2649973"><ele>1071.0</ele><time>2026-05-02T15:59:12.123Z</time></trkpt><trkpt lat="42.2964319" lon="13.2651403"><ele>1071.0</ele><time>2026-05-02T15:59:13.118Z</time></trkpt><trkpt lat="42.2964216" lon="13.2652462"><ele>1071.7142857142858</ele><time>2026-05-02T15:59:14.13Z</time></trkpt><trkpt lat="42.2964165" lon="13.2653383"><ele>1072.4285714285716</ele><time>2026-05-02T15:59:15.13Z</time></trkpt><trkpt lat="42.2964265" lon="13.2654263"><ele>1073.142857142857</ele><time>2026-05-02T15:59:16.129Z</time></trkpt><trkpt lat="42.2964259" lon="13.2655165"><ele>1073.857142857143</ele><time>2026-05-02T15:59:17.134Z</time></trkpt><trkpt lat="42.2963988" lon="13.2656094"><ele>1074.5714285714287</ele><time>2026-05-02T15:59:18.131Z</time></trkpt><trkpt lat="42.296367" lon="13.2657137"><ele>1075.2857142857142</ele><time>2026-05-02T15:59:19.133Z</time></trkpt><trkpt lat="42.2963322" lon="13.2658265"><ele>1076.0</ele><time>2026-05-02T15:59:20.128Z</time></trkpt><trkpt lat="42.2963001" lon="13.2659277"><ele>1076.0</ele><time>2026-05-02T15:59:21.128Z</time></trkpt><trkpt lat="42.296275" lon="13.2660098"><ele>1076.0</ele><time>2026-05-02T15:59:22.133Z</time></trkpt><trkpt lat="42.2962752" lon="13.2661394"><ele>1076.0</ele><time>2026-05-02T15:59:24.137Z</time></trkpt><trkpt lat="42.2964022" lon="13.266143"><ele>1076.0</ele><time>2026-05-02T15:59:26.136Z</time></trkpt><trkpt lat="42.2964972" lon="13.266097"><ele>1076.0</ele><time>2026-05-02T15:59:27.129Z</time></trkpt><trkpt lat="42.2966026" lon="13.2660415"><ele>1070.0</ele><time>2026-05-02T15:59:28.132Z</time></trkpt><trkpt lat="42.2967088" lon="13.265989"><ele>1064.0</ele><time>2026-05-02T15:59:29.135Z</time></trkpt><trkpt lat="42.2968122" lon="13.2659496"><ele>1058.0</ele><time>2026-05-02T15:59:30.129Z</time></trkpt><trkpt lat="42.296905" lon="13.2659312"><ele>1052.0</ele><time>2026-05-02T15:59:31.129Z</time></trkpt><trkpt lat="42.2969937" lon="13.2659312"><ele>1046.0</ele><time>2026-05-02T15:59:32.127Z</time></trkpt><trkpt lat="42.2970723" lon="13.2659493"><ele>1046.0</ele><time>2026-05-02T15:59:33.132Z</time></trkpt><trkpt lat="42.2971374" lon="13.2659906"><ele>1046.0</ele><time>2026-05-02T15:59:34.138Z</time></trkpt><trkpt lat="42.2971869" lon="13.2660546"><ele>1046.0</ele><time>2026-05-02T15:59:35.132Z</time></trkpt><trkpt lat="42.29722" lon="13.2661377"><ele>1046.0</ele><time>2026-05-02T15:59:36.132Z</time></trkpt><trkpt lat="42.2972379" lon="13.2662262"><ele>1046.0</ele><time>2026-05-02T15:59:37.131Z</time></trkpt><trkpt lat="42.2971781" lon="13.2663601"><ele>1046.0</ele><time>2026-05-02T15:59:39.128Z</time></trkpt><trkpt lat="42.2970995" lon="13.2663767"><ele>1046.0</ele><time>2026-05-02T15:59:40.133Z</time></trkpt><trkpt lat="42.2970015" lon="13.2663949"><ele>1046.0</ele><time>2026-05-02T15:59:41.132Z</time></trkpt><trkpt lat="42.296914" lon="13.2664348"><ele>1046.0</ele><time>2026-05-02T15:59:42.131Z</time></trkpt><trkpt lat="42.2968364" lon="13.2665032"><ele>1046.0</ele><time>2026-05-02T15:59:43.135Z</time></trkpt><trkpt lat="42.2967712" lon="13.2666173"><ele>1046.0</ele><time>2026-05-02T15:59:44.138Z</time></trkpt><trkpt lat="42.2967203" lon="13.2667537"><ele>1042.25</ele><time>2026-05-02T15:59:45.132Z</time></trkpt><trkpt lat="42.2966711" lon="13.266893"><ele>1038.5</ele><time>2026-05-02T15:59:46.13Z</time></trkpt><trkpt lat="42.2966176" lon="13.267031"><ele>1034.75</ele><time>2026-05-02T15:59:47.139Z</time></trkpt><trkpt lat="42.2965589" lon="13.2671723"><ele>1031.0</ele><time>2026-05-02T15:59:48.132Z</time></trkpt><trkpt lat="42.2965021" lon="13.2673132"><ele>1033.75</ele><time>2026-05-02T15:59:49.133Z</time></trkpt><trkpt lat="42.2964455" lon="13.2674603"><ele>1036.5</ele><time>2026-05-02T15:59:50.13Z</time></trkpt><trkpt lat="42.2963968" lon="13.2676155"><ele>1039.25</ele><time>2026-05-02T15:59:51.136Z</time></trkpt><trkpt lat="42.2963583" lon="13.2677818"><ele>1042.0</ele><time>2026-05-02T15:59:52.132Z</time></trkpt><trkpt lat="42.2963321" lon="13.267964"><ele>1036.25</ele><time>2026-05-02T15:59:53.135Z</time></trkpt><trkpt lat="42.2963171" lon="13.2681496"><ele>1030.5</ele><time>2026-05-02T15:59:54.138Z</time></trkpt><trkpt lat="42.2963086" lon="13.2683386"><ele>1024.75</ele><time>2026-05-02T15:59:55.145Z</time></trkpt><trkpt lat="42.2962991" lon="13.2685326"><ele>1019.0</ele><time>2026-05-02T15:59:56.122Z</time></trkpt><trkpt lat="42.2962589" lon="13.2687061"><ele>1019.0</ele><time>2026-05-02T15:59:57.128Z</time></trkpt><trkpt lat="42.2961889" lon="13.2688753"><ele>1019.0</ele><time>2026-05-02T15:59:58.135Z</time></trkpt><trkpt lat="42.2961164" lon="13.2690278"><ele>1019.0</ele><time>2026-05-02T15:59:59.135Z</time></trkpt><trkpt lat="42.2960688" lon="13.2691619"><ele>1019.0</ele><time>2026-05-02T16:00:00.126Z</time></trkpt><trkpt lat="42.2960125" lon="13.2692739"><ele>1016.1666666666667</ele><time>2026-05-02T16:00:01.131Z</time></trkpt><trkpt lat="42.2959732" lon="13.2693527"><ele>1013.3333333333334</ele><time>2026-05-02T16:00:02.124Z</time></trkpt><trkpt lat="42.29594" lon="13.2694278"><ele>1010.5</ele><time>2026-05-02T16:00:03.125Z</time></trkpt><trkpt lat="42.2959764" lon="13.2695512"><ele>1007.6666666666667</ele><time>2026-05-02T16:00:05.132Z</time></trkpt><trkpt lat="42.2960551" lon="13.269588"><ele>1004.8333333333334</ele><time>2026-05-02T16:00:06.129Z</time></trkpt><trkpt lat="42.2961258" lon="13.2695801"><ele>1002.0</ele><time>2026-05-02T16:00:07.138Z</time></trkpt><trkpt lat="42.2961912" lon="13.2695374"><ele>1002.0</ele><time>2026-05-02T16:00:08.133Z</time></trkpt><trkpt lat="42.2962613" lon="13.2694741"><ele>1002.0</ele><time>2026-05-02T16:00:09.133Z</time></trkpt><trkpt lat="42.2963444" lon="13.2693941"><ele>1002.0</ele><time>2026-05-02T16:00:10.123Z</time></trkpt><trkpt lat="42.2964295" lon="13.2693217"><ele>1002.0</ele><time>2026-05-02T16:00:11.126Z</time></trkpt><trkpt lat="42.2965364" lon="13.2692695"><ele>1002.0</ele><time>2026-05-02T16:00:12.131Z</time></trkpt><trkpt lat="42.2966403" lon="13.2692191"><ele>998.3333333333334</ele><time>2026-05-02T16:00:13.13Z</time></trkpt><trkpt lat="42.2967392" lon="13.2691788"><ele>994.6666666666667</ele><time>2026-05-02T16:00:14.12Z</time></trkpt><trkpt lat="42.2968224" lon="13.2691467"><ele>991.0</ele><time>2026-05-02T16:00:15.135Z</time></trkpt><trkpt lat="42.2968857" lon="13.2691794"><ele>987.3333333333334</ele><time>2026-05-02T16:00:16.135Z</time></trkpt><trkpt lat="42.2969279" lon="13.2692525"><ele>983.6666666666667</ele><time>2026-05-02T16:00:17.141Z</time></trkpt><trkpt lat="42.2969526" lon="13.2693835"><ele>980.0</ele><time>2026-05-02T16:00:18.143Z</time></trkpt><trkpt lat="42.2969796" lon="13.2695558"><ele>980.0</ele><time>2026-05-02T16:00:19.14Z</time></trkpt><trkpt lat="42.2970018" lon="13.2697648"><ele>980.0</ele><time>2026-05-02T16:00:20.14Z</time></trkpt><trkpt lat="42.297019" lon="13.2699633"><ele>980.0</ele><time>2026-05-02T16:00:21.135Z</time></trkpt><trkpt lat="42.2970308" lon="13.2701583"><ele>980.0</ele><time>2026-05-02T16:00:22.134Z</time></trkpt><trkpt lat="42.2970444" lon="13.2703514"><ele>978.75</ele><time>2026-05-02T16:00:23.13Z</time></trkpt><trkpt lat="42.2970652" lon="13.2705399"><ele>977.5</ele><time>2026-05-02T16:00:24.139Z</time></trkpt><trkpt lat="42.2970989" lon="13.2707269"><ele>976.25</ele><time>2026-05-02T16:00:25.139Z</time></trkpt><trkpt lat="42.2971499" lon="13.2709011"><ele>975.0</ele><time>2026-05-02T16:00:26.135Z</time></trkpt><trkpt lat="42.2972094" lon="13.2710703"><ele>968.5</ele><time>2026-05-02T16:00:27.141Z</time></trkpt><trkpt lat="42.2972835" lon="13.2712406"><ele>962.0</ele><time>2026-05-02T16:00:28.146Z</time></trkpt><trkpt lat="42.2973521" lon="13.2713778"><ele>955.5</ele><time>2026-05-02T16:00:29.149Z</time></trkpt><trkpt lat="42.297428" lon="13.2715088"><ele>949.0</ele><time>2026-05-02T16:00:30.138Z</time></trkpt><trkpt lat="42.2975168" lon="13.2716352"><ele>948.8000000000001</ele><time>2026-05-02T16:00:31.147Z</time></trkpt><trkpt lat="42.2976146" lon="13.271768"><ele>948.6000000000001</ele><time>2026-05-02T16:00:32.14Z</time></trkpt><trkpt lat="42.2976935" lon="13.2718571"><ele>948.4</ele><time>2026-05-02T16:00:33.139Z</time></trkpt><trkpt lat="42.2977588" lon="13.2719344"><ele>948.2</ele><time>2026-05-02T16:00:34.137Z</time></trkpt><trkpt lat="42.2978344" lon="13.2719732"><ele>948.0</ele><time>2026-05-02T16:00:35.142Z</time></trkpt><trkpt lat="42.297903" lon="13.271978"><ele>948.0</ele><time>2026-05-02T16:00:36.142Z</time></trkpt><trkpt lat="42.2979654" lon="13.2719487"><ele>948.0</ele><time>2026-05-02T16:00:37.136Z</time></trkpt><trkpt lat="42.2980154" lon="13.2718638"><ele>948.0</ele><time>2026-05-02T16:00:38.136Z</time></trkpt><trkpt lat="42.2980713" lon="13.2717458"><ele>948.0</ele><time>2026-05-02T16:00:39.142Z</time></trkpt><trkpt lat="42.2981304" lon="13.2716122"><ele>948.0</ele><time>2026-05-02T16:00:40.131Z</time></trkpt><trkpt lat="42.2981811" lon="13.2714812"><ele>944.2</ele><time>2026-05-02T16:00:41.137Z</time></trkpt><trkpt lat="42.298222" lon="13.2713703"><ele>940.4</ele><time>2026-05-02T16:00:42.126Z</time></trkpt><trkpt lat="42.2982576" lon="13.2712866"><ele>936.6000000000001</ele><time>2026-05-02T16:00:43.141Z</time></trkpt><trkpt lat="42.2983604" lon="13.2712586"><ele>932.8000000000001</ele><time>2026-05-02T16:00:45.136Z</time></trkpt><trkpt lat="42.2984369" lon="13.2713218"><ele>929.0</ele><time>2026-05-02T16:00:46.144Z</time></trkpt><trkpt lat="42.2985177" lon="13.2714401"><ele>929.25</ele><time>2026-05-02T16:00:47.133Z</time></trkpt><trkpt lat="42.2985961" lon="13.2715862"><ele>929.5</ele><time>2026-05-02T16:00:48.138Z</time></trkpt><trkpt lat="42.2986635" lon="13.2717365"><ele>929.75</ele><time>2026-05-02T16:00:49.138Z</time></trkpt><trkpt lat="42.2987193" lon="13.2719006"><ele>930.0</ele><time>2026-05-02T16:00:50.143Z</time></trkpt><trkpt lat="42.2987762" lon="13.2720523"><ele>930.0</ele><time>2026-05-02T16:00:51.133Z</time></trkpt><trkpt lat="42.2988327" lon="13.272173"><ele>930.0</ele><time>2026-05-02T16:00:52.132Z</time></trkpt><trkpt lat="42.2988969" lon="13.2722685"><ele>930.0</ele><time>2026-05-02T16:00:53.134Z</time></trkpt><trkpt lat="42.2989815" lon="13.272329"><ele>930.0</ele><time>2026-05-02T16:00:54.135Z</time></trkpt><trkpt lat="42.2990805" lon="13.2723626"><ele>930.0</ele><time>2026-05-02T16:00:55.134Z</time></trkpt><trkpt lat="42.2991969" lon="13.2723732"><ele>925.75</ele><time>2026-05-02T16:00:56.129Z</time></trkpt><trkpt lat="42.2993161" lon="13.2723774"><ele>921.5</ele><time>2026-05-02T16:00:57.134Z</time></trkpt><trkpt lat="42.2994353" lon="13.2723777"><ele>917.25</ele><time>2026-05-02T16:00:58.132Z</time></trkpt><trkpt lat="42.2995598" lon="13.2724012"><ele>913.0</ele><time>2026-05-02T16:00:59.132Z</time></trkpt><trkpt lat="42.2996862" lon="13.2724465"><ele>909.25</ele><time>2026-05-02T16:01:00.136Z</time></trkpt><trkpt lat="42.2998144" lon="13.2724973"><ele>905.5</ele><time>2026-05-02T16:01:01.135Z</time></trkpt><trkpt lat="42.2999478" lon="13.2725538"><ele>901.75</ele><time>2026-05-02T16:01:02.136Z</time></trkpt><trkpt lat="42.3000715" lon="13.2726069"><ele>898.0</ele><time>2026-05-02T16:01:03.132Z</time></trkpt><trkpt lat="42.3001783" lon="13.2726667"><ele>897.9999999999999</ele><time>2026-05-02T16:01:04.125Z</time></trkpt><trkpt lat="42.3002672" lon="13.2727233"><ele>898.0</ele><time>2026-05-02T16:01:05.126Z</time></trkpt><trkpt lat="42.3003277" lon="13.2727844"><ele>898.0</ele><time>2026-05-02T16:01:06.123Z</time></trkpt><trkpt lat="42.3003541" lon="13.2729195"><ele>898.0</ele><time>2026-05-02T16:01:08.138Z</time></trkpt><trkpt lat="42.3003304" lon="13.2730072"><ele>897.9999999999999</ele><time>2026-05-02T16:01:09.126Z</time></trkpt><trkpt lat="42.3002976" lon="13.2731136"><ele>898.0</ele><time>2026-05-02T16:01:10.124Z</time></trkpt><trkpt lat="42.3002803" lon="13.2732193"><ele>896.5</ele><time>2026-05-02T16:01:11.131Z</time></trkpt><trkpt lat="42.3003028" lon="13.2733478"><ele>895.0</ele><time>2026-05-02T16:01:12.132Z</time></trkpt><trkpt lat="42.3003509" lon="13.2734861"><ele>893.5</ele><time>2026-05-02T16:01:13.132Z</time></trkpt><trkpt lat="42.3004031" lon="13.2736283"><ele>892.0</ele><time>2026-05-02T16:01:14.127Z</time></trkpt><trkpt lat="42.3004634" lon="13.2737775"><ele>892.0</ele><time>2026-05-02T16:01:15.132Z</time></trkpt><trkpt lat="42.300518" lon="13.2739266"><ele>892.0</ele><time>2026-05-02T16:01:16.129Z</time></trkpt><trkpt lat="42.3005712" lon="13.2740864"><ele>892.0</ele><time>2026-05-02T16:01:17.14Z</time></trkpt><trkpt lat="42.3006191" lon="13.2742401"><ele>892.0</ele><time>2026-05-02T16:01:18.135Z</time></trkpt><trkpt lat="42.3006757" lon="13.2744026"><ele>889.75</ele><time>2026-05-02T16:01:19.135Z</time></trkpt><trkpt lat="42.3007356" lon="13.2745729"><ele>887.5</ele><time>2026-05-02T16:01:20.132Z</time></trkpt><trkpt lat="42.3008004" lon="13.2747155"><ele>885.25</ele><time>2026-05-02T16:01:21.126Z</time></trkpt><trkpt lat="42.300865" lon="13.274848"><ele>883.0</ele><time>2026-05-02T16:01:22.135Z</time></trkpt><trkpt lat="42.3009297" lon="13.2749604"><ele>880.0</ele><time>2026-05-02T16:01:23.139Z</time></trkpt><trkpt lat="42.3009962" lon="13.2750584"><ele>877.0</ele><time>2026-05-02T16:01:24.133Z</time></trkpt><trkpt lat="42.3010609" lon="13.2751555"><ele>874.0</ele><time>2026-05-02T16:01:25.143Z</time></trkpt><trkpt lat="42.3011236" lon="13.2752525"><ele>871.0</ele><time>2026-05-02T16:01:26.141Z</time></trkpt><trkpt lat="42.3011863" lon="13.2753597"><ele>868.0</ele><time>2026-05-02T16:01:27.137Z</time></trkpt><trkpt lat="42.3012361" lon="13.2754634"><ele>867.9999999999999</ele><time>2026-05-02T16:01:28.138Z</time></trkpt><trkpt lat="42.3012725" lon="13.2755585"><ele>868.0</ele><time>2026-05-02T16:01:29.133Z</time></trkpt><trkpt lat="42.3013115" lon="13.2756276"><ele>868.0</ele><time>2026-05-02T16:01:30.139Z</time></trkpt><trkpt lat="42.3013986" lon="13.2757197"><ele>868.0</ele><time>2026-05-02T16:01:32.136Z</time></trkpt><trkpt lat="42.3014698" lon="13.2758103"><ele>867.9999999999999</ele><time>2026-05-02T16:01:34.136Z</time></trkpt><trkpt lat="42.301508" lon="13.2758842"><ele>868.0</ele><time>2026-05-02T16:01:36.127Z</time></trkpt><trkpt lat="42.3015805" lon="13.2758403"><ele>866.1666666666666</ele><time>2026-05-02T16:01:38.129Z</time></trkpt><trkpt lat="42.3016215" lon="13.2757736"><ele>864.3333333333333</ele><time>2026-05-02T16:01:39.131Z</time></trkpt><trkpt lat="42.3016633" lon="13.2756916"><ele>862.5</ele><time>2026-05-02T16:01:40.135Z</time></trkpt><trkpt lat="42.3017081" lon="13.2755964"><ele>860.6666666666667</ele><time>2026-05-02T16:01:41.134Z</time></trkpt><trkpt lat="42.3017425" lon="13.2754896"><ele>858.8333333333334</ele><time>2026-05-02T16:01:42.137Z</time></trkpt><trkpt lat="42.3017709" lon="13.2753922"><ele>857.0</ele><time>2026-05-02T16:01:43.133Z</time></trkpt><trkpt lat="42.3018173" lon="13.2752657"><ele>857.0000000000001</ele><time>2026-05-02T16:01:45.13Z</time></trkpt><trkpt lat="42.3018683" lon="13.2751838"><ele>857.0</ele><time>2026-05-02T16:01:48.137Z</time></trkpt><trkpt lat="42.3018985" lon="13.2750912"><ele>857.0</ele><time>2026-05-02T16:01:50.138Z</time></trkpt><trkpt lat="42.3019254" lon="13.2750083"><ele>857.0</ele><time>2026-05-02T16:01:52.142Z</time></trkpt><trkpt lat="42.3019481" lon="13.2748928"><ele>857.0000000000001</ele><time>2026-05-02T16:01:54.14Z</time></trkpt><trkpt lat="42.3019828" lon="13.2748175"><ele>857.0</ele><time>2026-05-02T16:01:56.143Z</time></trkpt><trkpt lat="42.3020189" lon="13.2747197"><ele>857.0000000000001</ele><time>2026-05-02T16:01:59.139Z</time></trkpt><trkpt lat="42.301965" lon="13.274804"><ele>857.0</ele><time>2026-05-02T16:02:11.128Z</time></trkpt><trkpt lat="42.301943" lon="13.2748896"><ele>857.0</ele><time>2026-05-02T16:02:12.131Z</time></trkpt><trkpt lat="42.3018897" lon="13.2750286"><ele>857.0</ele><time>2026-05-02T16:02:14.127Z</time></trkpt><trkpt lat="42.301861" lon="13.2751395"><ele>857.0000000000001</ele><time>2026-05-02T16:02:16.139Z</time></trkpt><trkpt lat="42.3018802" lon="13.2752332"><ele>857.0</ele><time>2026-05-02T16:02:18.132Z</time></trkpt><trkpt lat="42.3019079" lon="13.2753626"><ele>857.0</ele><time>2026-05-02T16:02:20.135Z</time></trkpt><trkpt lat="42.3019553" lon="13.2754992"><ele>857.0</ele><time>2026-05-02T16:02:22.128Z</time></trkpt><trkpt lat="42.3019999" lon="13.2756241"><ele>857.0</ele><time>2026-05-02T16:02:24.13Z</time></trkpt><trkpt lat="42.3020526" lon="13.2757423"><ele>857.0</ele><time>2026-05-02T16:02:26.133Z</time></trkpt><trkpt lat="42.3020994" lon="13.2758731"><ele>857.0</ele><time>2026-05-02T16:02:28.129Z</time></trkpt><trkpt lat="42.3021279" lon="13.2759522"><ele>855.8</ele><time>2026-05-02T16:02:29.132Z</time></trkpt><trkpt lat="42.3021578" lon="13.2760355"><ele>854.6</ele><time>2026-05-02T16:02:30.124Z</time></trkpt><trkpt lat="42.3022237" lon="13.2761696"><ele>853.4</ele><time>2026-05-02T16:02:32.133Z</time></trkpt><trkpt lat="42.3022573" lon="13.2762617"><ele>852.1999999999999</ele><time>2026-05-02T16:02:34.127Z</time></trkpt><trkpt lat="42.3022729" lon="13.2763637"><ele>851.0</ele><time>2026-05-02T16:02:36.141Z</time></trkpt><trkpt lat="42.3022615" lon="13.2765125"><ele>850.1999999999999</ele><time>2026-05-02T16:02:38.148Z</time></trkpt><trkpt lat="42.3022302" lon="13.2766658"><ele>849.4</ele><time>2026-05-02T16:02:40.143Z</time></trkpt><trkpt lat="42.3022001" lon="13.2767953"><ele>848.6</ele><time>2026-05-02T16:02:42.14Z</time></trkpt><trkpt lat="42.3021299" lon="13.27691"><ele>847.8</ele><time>2026-05-02T16:02:44.136Z</time></trkpt><trkpt lat="42.302085" lon="13.277055"><ele>847.0</ele><time>2026-05-02T16:02:46.138Z</time></trkpt><trkpt lat="42.3020447" lon="13.2771977"><ele>845.0</ele><time>2026-05-02T16:02:48.143Z</time></trkpt><trkpt lat="42.3020196" lon="13.2773437"><ele>843.0</ele><time>2026-05-02T16:02:50.143Z</time></trkpt><trkpt lat="42.3020429" lon="13.2774943"><ele>841.0</ele><time>2026-05-02T16:02:52.132Z</time></trkpt><trkpt lat="42.3020636" lon="13.2775766"><ele>839.0</ele><time>2026-05-02T16:02:53.129Z</time></trkpt><trkpt lat="42.3021193" lon="13.2777146"><ele>837.0</ele><time>2026-05-02T16:02:55.143Z</time></trkpt><trkpt lat="42.3022081" lon="13.2778206"><ele>836.8333333333334</ele><time>2026-05-02T16:02:57.135Z</time></trkpt><trkpt lat="42.302291" lon="13.2779168"><ele>836.6666666666667</ele><time>2026-05-02T16:02:59.146Z</time></trkpt><trkpt lat="42.3023315" lon="13.277986"><ele>836.5</ele><time>2026-05-02T16:03:01.139Z</time></trkpt><trkpt lat="42.3022924" lon="13.2780628"><ele>836.3333333333334</ele><time>2026-05-02T16:03:03.138Z</time></trkpt><trkpt lat="42.3022424" lon="13.27813"><ele>836.1666666666667</ele><time>2026-05-02T16:03:04.135Z</time></trkpt><trkpt lat="42.3021889" lon="13.2782169"><ele>836.0</ele><time>2026-05-02T16:03:05.145Z</time></trkpt><trkpt lat="42.3021254" lon="13.2783031"><ele>834.4</ele><time>2026-05-02T16:03:06.129Z</time></trkpt><trkpt lat="42.3020372" lon="13.2783447"><ele>832.8</ele><time>2026-05-02T16:03:07.137Z</time></trkpt><trkpt lat="42.3019419" lon="13.2783459"><ele>831.1999999999999</ele><time>2026-05-02T16:03:08.139Z</time></trkpt><trkpt lat="42.3018461" lon="13.2783367"><ele>829.5999999999999</ele><time>2026-05-02T16:03:09.142Z</time></trkpt><trkpt lat="42.3017563" lon="13.2783168"><ele>828.0</ele><time>2026-05-02T16:03:10.144Z</time></trkpt><trkpt lat="42.3016773" lon="13.2782916"><ele>828.0</ele><time>2026-05-02T16:03:11.144Z</time></trkpt><trkpt lat="42.301603" lon="13.2782479"><ele>828.0</ele><time>2026-05-02T16:03:12.145Z</time></trkpt><trkpt lat="42.3015378" lon="13.278184"><ele>828.0</ele><time>2026-05-02T16:03:13.131Z</time></trkpt><trkpt lat="42.3014834" lon="13.278088"><ele>828.0</ele><time>2026-05-02T16:03:14.15Z</time></trkpt><trkpt lat="42.3014405" lon="13.2779738"><ele>828.0</ele><time>2026-05-02T16:03:15.143Z</time></trkpt><trkpt lat="42.3013914" lon="13.2778668"><ele>828.0</ele><time>2026-05-02T16:03:16.138Z</time></trkpt><trkpt lat="42.3013317" lon="13.2777707"><ele>827.4</ele><time>2026-05-02T16:03:17.139Z</time></trkpt><trkpt lat="42.3012533" lon="13.2776828"><ele>826.8</ele><time>2026-05-02T16:03:18.142Z</time></trkpt><trkpt lat="42.3011607" lon="13.2776152"><ele>826.2</ele><time>2026-05-02T16:03:19.135Z</time></trkpt><trkpt lat="42.301063" lon="13.2775526"><ele>825.6</ele><time>2026-05-02T16:03:20.139Z</time></trkpt><trkpt lat="42.3009594" lon="13.2775038"><ele>825.0</ele><time>2026-05-02T16:03:21.153Z</time></trkpt><trkpt lat="42.3008476" lon="13.2774557"><ele>825.0</ele><time>2026-05-02T16:03:22.143Z</time></trkpt><trkpt lat="42.3007314" lon="13.2774266"><ele>825.0</ele><time>2026-05-02T16:03:23.145Z</time></trkpt><trkpt lat="42.3006174" lon="13.277414"><ele>825.0</ele><time>2026-05-02T16:03:24.14Z</time></trkpt><trkpt lat="42.300497" lon="13.2774466"><ele>825.0</ele><time>2026-05-02T16:03:25.137Z</time></trkpt><trkpt lat="42.3003739" lon="13.2774977"><ele>826.0</ele><time>2026-05-02T16:03:26.15Z</time></trkpt><trkpt lat="42.3002565" lon="13.2775647"><ele>827.0</ele><time>2026-05-02T16:03:27.141Z</time></trkpt><trkpt lat="42.300126" lon="13.2776197"><ele>828.0</ele><time>2026-05-02T16:03:28.143Z</time></trkpt><trkpt lat="42.2999968" lon="13.2776443"><ele>829.0</ele><time>2026-05-02T16:03:29.145Z</time></trkpt><trkpt lat="42.2998546" lon="13.2776404"><ele>828.3333333333333</ele><time>2026-05-02T16:03:30.145Z</time></trkpt><trkpt lat="42.2997047" lon="13.2776077"><ele>827.6666666666667</ele><time>2026-05-02T16:03:31.142Z</time></trkpt><trkpt lat="42.2995425" lon="13.2775725"><ele>827.0</ele><time>2026-05-02T16:03:32.139Z</time></trkpt><trkpt lat="42.2993795" lon="13.2775349"><ele>827.0</ele><time>2026-05-02T16:03:33.14Z</time></trkpt><trkpt lat="42.2992562" lon="13.2775421"><ele>827.0</ele><time>2026-05-02T16:03:34.144Z</time></trkpt><trkpt lat="42.2991778" lon="13.2775748"><ele>827.0</ele><time>2026-05-02T16:03:35.147Z</time></trkpt><trkpt lat="42.2990798" lon="13.2776213"><ele>827.0</ele><time>2026-05-02T16:03:36.135Z</time></trkpt><trkpt lat="42.2990267" lon="13.2776881"><ele>827.0</ele><time>2026-05-02T16:03:37.133Z</time></trkpt><trkpt lat="42.2989429" lon="13.277749"><ele>828.2</ele><time>2026-05-02T16:03:38.132Z</time></trkpt><trkpt lat="42.2988853" lon="13.2778574"><ele>829.4000000000001</ele><time>2026-05-02T16:03:39.145Z</time></trkpt><trkpt lat="42.2988373" lon="13.2779862"><ele>830.5999999999999</ele><time>2026-05-02T16:03:40.137Z</time></trkpt><trkpt lat="42.298805" lon="13.2781322"><ele>831.8</ele><time>2026-05-02T16:03:41.141Z</time></trkpt><trkpt lat="42.2987674" lon="13.2782747"><ele>833.0</ele><time>2026-05-02T16:03:42.132Z</time></trkpt><trkpt lat="42.2987172" lon="13.2784048"><ele>833.0</ele><time>2026-05-02T16:03:43.128Z</time></trkpt><trkpt lat="42.2986434" lon="13.2785173"><ele>833.0</ele><time>2026-05-02T16:03:44.127Z</time></trkpt><trkpt lat="42.2985551" lon="13.2786174"><ele>833.0</ele><time>2026-05-02T16:03:45.121Z</time></trkpt><trkpt lat="42.2984464" lon="13.2786961"><ele>833.0</ele><time>2026-05-02T16:03:46.133Z</time></trkpt><trkpt lat="42.2983189" lon="13.2787538"><ele>833.0</ele><time>2026-05-02T16:03:47.132Z</time></trkpt><trkpt lat="42.2981899" lon="13.2788159"><ele>833.0</ele><time>2026-05-02T16:03:48.137Z</time></trkpt><trkpt lat="42.2980625" lon="13.2788925"><ele>833.0</ele><time>2026-05-02T16:03:49.134Z</time></trkpt><trkpt lat="42.297935" lon="13.2789737"><ele>833.0</ele><time>2026-05-02T16:03:50.143Z</time></trkpt><trkpt lat="42.2978317" lon="13.2790941"><ele>835.75</ele><time>2026-05-02T16:03:51.136Z</time></trkpt><trkpt lat="42.2977426" lon="13.2792399"><ele>838.5</ele><time>2026-05-02T16:03:52.139Z</time></trkpt><trkpt lat="42.2976706" lon="13.2793876"><ele>841.25</ele><time>2026-05-02T16:03:53.131Z</time></trkpt><trkpt lat="42.2976052" lon="13.2795206"><ele>844.0</ele><time>2026-05-02T16:03:54.136Z</time></trkpt><trkpt lat="42.2975591" lon="13.2796385"><ele>841.75</ele><time>2026-05-02T16:03:55.138Z</time></trkpt><trkpt lat="42.2975342" lon="13.2797715"><ele>839.5</ele><time>2026-05-02T16:03:56.138Z</time></trkpt><trkpt lat="42.2975346" lon="13.279919"><ele>837.25</ele><time>2026-05-02T16:03:57.136Z</time></trkpt><trkpt lat="42.2975558" lon="13.2800792"><ele>835.0</ele><time>2026-05-02T16:03:58.133Z</time></trkpt><trkpt lat="42.2976156" lon="13.2802364"><ele>835.0</ele><time>2026-05-02T16:03:59.139Z</time></trkpt><trkpt lat="42.2976838" lon="13.2803885"><ele>835.0</ele><time>2026-05-02T16:04:00.125Z</time></trkpt><trkpt lat="42.2977704" lon="13.2805203"><ele>835.0</ele><time>2026-05-02T16:04:01.132Z</time></trkpt><trkpt lat="42.297877" lon="13.2806189"><ele>835.0</ele><time>2026-05-02T16:04:02.138Z</time></trkpt><trkpt lat="42.2979993" lon="13.2806598"><ele>836.5</ele><time>2026-05-02T16:04:03.13Z</time></trkpt><trkpt lat="42.2981315" lon="13.2806739"><ele>838.0</ele><time>2026-05-02T16:04:04.126Z</time></trkpt><trkpt lat="42.2982727" lon="13.2806347"><ele>839.5</ele><time>2026-05-02T16:04:05.132Z</time></trkpt><trkpt lat="42.2984115" lon="13.2805877"><ele>841.0</ele><time>2026-05-02T16:04:06.118Z</time></trkpt><trkpt lat="42.2985888" lon="13.2805194"><ele>841.0</ele><time>2026-05-02T16:04:07.123Z</time></trkpt><trkpt lat="42.2987458" lon="13.2805554"><ele>841.0</ele><time>2026-05-02T16:04:08.124Z</time></trkpt><trkpt lat="42.2989024" lon="13.2806525"><ele>841.0</ele><time>2026-05-02T16:04:09.123Z</time></trkpt><trkpt lat="42.2990556" lon="13.2808037"><ele>839.0</ele><time>2026-05-02T16:04:10.128Z</time></trkpt><trkpt lat="42.299183" lon="13.2809073"><ele>837.0</ele><time>2026-05-02T16:04:11.121Z</time></trkpt><trkpt lat="42.2993285" lon="13.2810174"><ele>835.0</ele><time>2026-05-02T16:04:12.123Z</time></trkpt><trkpt lat="42.2994562" lon="13.281097"><ele>835.0</ele><time>2026-05-02T16:04:13.122Z</time></trkpt><trkpt lat="42.2995974" lon="13.2812196"><ele>835.0</ele><time>2026-05-02T16:04:14.125Z</time></trkpt><trkpt lat="42.2997345" lon="13.2813162"><ele>835.0</ele><time>2026-05-02T16:04:15.126Z</time></trkpt><trkpt lat="42.2998621" lon="13.2814107"><ele>835.75</ele><time>2026-05-02T16:04:16.13Z</time></trkpt><trkpt lat="42.2999774" lon="13.2815059"><ele>836.5</ele><time>2026-05-02T16:04:17.133Z</time></trkpt><trkpt lat="42.3000892" lon="13.2815788"><ele>837.25</ele><time>2026-05-02T16:04:18.128Z</time></trkpt><trkpt lat="42.3002182" lon="13.2816617"><ele>838.0</ele><time>2026-05-02T16:04:19.128Z</time></trkpt><trkpt lat="42.3003745" lon="13.281758"><ele>838.0</ele><time>2026-05-02T16:04:20.12Z</time></trkpt><trkpt lat="42.3004664" lon="13.2818626"><ele>838.0</ele><time>2026-05-02T16:04:21.127Z</time></trkpt><trkpt lat="42.3005541" lon="13.2820017"><ele>838.0</ele><time>2026-05-02T16:04:22.127Z</time></trkpt><trkpt lat="42.3005877" lon="13.2821369"><ele>838.0</ele><time>2026-05-02T16:04:23.133Z</time></trkpt><trkpt lat="42.3005638" lon="13.2822816"><ele>838.75</ele><time>2026-05-02T16:04:24.136Z</time></trkpt><trkpt lat="42.3005637" lon="13.2824721"><ele>839.5</ele><time>2026-05-02T16:04:25.133Z</time></trkpt><trkpt lat="42.3005403" lon="13.2826708"><ele>840.25</ele><time>2026-05-02T16:04:26.133Z</time></trkpt><trkpt lat="42.3005158" lon="13.2828537"><ele>841.0</ele><time>2026-05-02T16:04:27.134Z</time></trkpt><trkpt lat="42.3004998" lon="13.2830268"><ele>839.0</ele><time>2026-05-02T16:04:28.145Z</time></trkpt><trkpt lat="42.3004849" lon="13.2831832"><ele>837.0</ele><time>2026-05-02T16:04:29.14Z</time></trkpt><trkpt lat="42.3004806" lon="13.283317"><ele>835.0</ele><time>2026-05-02T16:04:30.134Z</time></trkpt><trkpt lat="42.3004737" lon="13.2834149"><ele>833.0</ele><time>2026-05-02T16:04:31.143Z</time></trkpt><trkpt lat="42.3004182" lon="13.2834748"><ele>831.0</ele><time>2026-05-02T16:04:33.137Z</time></trkpt><trkpt lat="42.3003053" lon="13.2834814"><ele>831.0</ele><time>2026-05-02T16:04:35.132Z</time></trkpt><trkpt lat="42.3002069" lon="13.2834832"><ele>831.0</ele><time>2026-05-02T16:04:36.138Z</time></trkpt><trkpt lat="42.3000878" lon="13.2834889"><ele>831.0</ele><time>2026-05-02T16:04:37.132Z</time></trkpt><trkpt lat="42.2999648" lon="13.2834933"><ele>831.0</ele><time>2026-05-02T16:04:38.135Z</time></trkpt><trkpt lat="42.2998587" lon="13.2835107"><ele>831.0</ele><time>2026-05-02T16:04:39.132Z</time></trkpt><trkpt lat="42.2997485" lon="13.2835563"><ele>831.5</ele><time>2026-05-02T16:04:40.132Z</time></trkpt><trkpt lat="42.2996319" lon="13.2836193"><ele>832.0</ele><time>2026-05-02T16:04:41.139Z</time></trkpt><trkpt lat="42.2995094" lon="13.2837078"><ele>832.5</ele><time>2026-05-02T16:04:42.136Z</time></trkpt><trkpt lat="42.299389" lon="13.2838103"><ele>833.0</ele><time>2026-05-02T16:04:43.13Z</time></trkpt><trkpt lat="42.2992563" lon="13.2839079"><ele>829.75</ele><time>2026-05-02T16:04:44.133Z</time></trkpt><trkpt lat="42.2991631" lon="13.283965"><ele>826.5</ele><time>2026-05-02T16:04:45.13Z</time></trkpt><trkpt lat="42.2990603" lon="13.2840177"><ele>823.25</ele><time>2026-05-02T16:04:46.132Z</time></trkpt><trkpt lat="42.2989322" lon="13.2840127"><ele>820.0</ele><time>2026-05-02T16:04:47.126Z</time></trkpt><trkpt lat="42.2987989" lon="13.2839549"><ele>822.75</ele><time>2026-05-02T16:04:48.131Z</time></trkpt><trkpt lat="42.2986915" lon="13.283904"><ele>825.5</ele><time>2026-05-02T16:04:49.134Z</time></trkpt><trkpt lat="42.2985653" lon="13.2838003"><ele>828.25</ele><time>2026-05-02T16:04:50.133Z</time></trkpt><trkpt lat="42.2984747" lon="13.2837287"><ele>831.0</ele><time>2026-05-02T16:04:51.133Z</time></trkpt><trkpt lat="42.2983886" lon="13.2836846"><ele>831.0</ele><time>2026-05-02T16:04:52.13Z</time></trkpt><trkpt lat="42.2982914" lon="13.2836613"><ele>831.0</ele><time>2026-05-02T16:04:53.135Z</time></trkpt><trkpt lat="42.2981818" lon="13.2836686"><ele>831.0</ele><time>2026-05-02T16:04:54.136Z</time></trkpt><trkpt lat="42.3005877" lon="13.2821369"><ele>833.5</ele><time>2026-05-02T16:04:23.133Z</time></trkpt><trkpt lat="42.3005638" lon="13.2822816"><ele>836.0</ele><time>2026-05-02T16:04:24.136Z</time></trkpt><trkpt lat="42.3005637" lon="13.2824721"><ele>838.5</ele><time>2026-05-02T16:04:25.133Z</time></trkpt><trkpt lat="42.3005403" lon="13.2826708"><ele>841.0</ele><time>2026-05-02T16:04:26.133Z</time></trkpt><trkpt lat="42.3005158" lon="13.2828537"><ele>841.0</ele><time>2026-05-02T16:04:27.134Z</time></trkpt><trkpt lat="42.3004998" lon="13.2830268"><ele>841.0</ele><time>2026-05-02T16:04:28.145Z</time></trkpt><trkpt lat="42.3004849" lon="13.2831832"><ele>841.0</ele><time>2026-05-02T16:04:29.14Z</time></trkpt><trkpt lat="42.3004806" lon="13.283317"><ele>841.0</ele><time>2026-05-02T16:04:30.134Z</time></trkpt><trkpt lat="42.3004737" lon="13.2834149"><ele>841.0</ele><time>2026-05-02T16:04:31.143Z</time></trkpt><trkpt lat="42.3004182" lon="13.2834748"><ele>838.5</ele><time>2026-05-02T16:04:33.137Z</time></trkpt><trkpt lat="42.3003053" lon="13.2834814"><ele>836.0</ele><time>2026-05-02T16:04:35.132Z</time></trkpt><trkpt lat="42.3002069" lon="13.2834832"><ele>833.5</ele><time>2026-05-02T16:04:36.138Z</time></trkpt><trkpt lat="42.3000878" lon="13.2834889"><ele>831.0</ele><time>2026-05-02T16:04:37.132Z</time></trkpt><trkpt lat="42.2999648" lon="13.2834933"><ele>831.0</ele><time>2026-05-02T16:04:38.135Z</time></trkpt><trkpt lat="42.2998587" lon="13.2835107"><ele>831.0</ele><time>2026-05-02T16:04:39.132Z</time></trkpt><trkpt lat="42.2997485" lon="13.2835563"><ele>831.0</ele><time>2026-05-02T16:04:40.132Z</time></trkpt><trkpt lat="42.2996319" lon="13.2836193"><ele>831.0</ele><time>2026-05-02T16:04:41.139Z</time></trkpt><trkpt lat="42.2995094" lon="13.2837078"><ele>831.5</ele><time>2026-05-02T16:04:42.136Z</time></trkpt><trkpt lat="42.299389" lon="13.2838103"><ele>832.0</ele><time>2026-05-02T16:04:43.13Z</time></trkpt><trkpt lat="42.2992563" lon="13.2839079"><ele>832.5</ele><time>2026-05-02T16:04:44.133Z</time></trkpt><trkpt lat="42.2991631" lon="13.283965"><ele>833.0</ele><time>2026-05-02T16:04:45.13Z</time></trkpt><trkpt lat="42.2990603" lon="13.2840177"><ele>832.5</ele><time>2026-05-02T16:04:46.132Z</time></trkpt><trkpt lat="42.2989322" lon="13.2840127"><ele>832.0</ele><time>2026-05-02T16:04:47.126Z</time></trkpt><trkpt lat="42.2987989" lon="13.2839549"><ele>831.5</ele><time>2026-05-02T16:04:48.131Z</time></trkpt><trkpt lat="42.2986915" lon="13.283904"><ele>831.0</ele><time>2026-05-02T16:04:49.134Z</time></trkpt><trkpt lat="42.2985653" lon="13.2838003"><ele>831.0</ele><time>2026-05-02T16:04:50.133Z</time></trkpt><trkpt lat="42.2984747" lon="13.2837287"><ele>831.0</ele><time>2026-05-02T16:04:51.133Z</time></trkpt><trkpt lat="42.2983886" lon="13.2836846"><ele>831.0</ele><time>2026-05-02T16:04:52.13Z</time></trkpt><trkpt lat="42.2982914" lon="13.2836613"><ele>831.0</ele><time>2026-05-02T16:04:53.135Z</time></trkpt><trkpt lat="42.2981818" lon="13.2836686"><ele>831.0</ele><time>2026-05-02T16:04:54.136Z</time></trkpt><trkpt lat="42.2980683" lon="13.2837218"><ele>830.5999999999999</ele><time>2026-05-02T16:04:55.136Z</time></trkpt><trkpt lat="42.2979648" lon="13.2838036"><ele>830.2</ele><time>2026-05-02T16:04:56.135Z</time></trkpt><trkpt lat="42.2978824" lon="13.28388"><ele>829.8</ele><time>2026-05-02T16:04:57.131Z</time></trkpt><trkpt lat="42.2978246" lon="13.2839454"><ele>829.4000000000001</ele><time>2026-05-02T16:04:58.136Z</time></trkpt><trkpt lat="42.2977805" lon="13.2840684"><ele>829.0</ele><time>2026-05-02T16:05:00.131Z</time></trkpt><trkpt lat="42.2978591" lon="13.2841705"><ele>828.0</ele><time>2026-05-02T16:05:02.133Z</time></trkpt><trkpt lat="42.2979307" lon="13.2841991"><ele>827.0</ele><time>2026-05-02T16:05:03.136Z</time></trkpt><trkpt lat="42.2980326" lon="13.2842196"><ele>826.0</ele><time>2026-05-02T16:05:04.134Z</time></trkpt><trkpt lat="42.2981447" lon="13.2842395"><ele>825.0</ele><time>2026-05-02T16:05:05.137Z</time></trkpt><trkpt lat="42.2982641" lon="13.2842576"><ele>824.0</ele><time>2026-05-02T16:05:06.14Z</time></trkpt><trkpt lat="42.2983905" lon="13.2842816"><ele>822.25</ele><time>2026-05-02T16:05:07.142Z</time></trkpt><trkpt lat="42.2985095" lon="13.2843137"><ele>820.5</ele><time>2026-05-02T16:05:08.139Z</time></trkpt><trkpt lat="42.2986228" lon="13.2843582"><ele>818.75</ele><time>2026-05-02T16:05:09.138Z</time></trkpt><trkpt lat="42.298729" lon="13.2844216"><ele>817.0</ele><time>2026-05-02T16:05:10.133Z</time></trkpt><trkpt lat="42.2988303" lon="13.2845069"><ele>817.0</ele><time>2026-05-02T16:05:11.137Z</time></trkpt><trkpt lat="42.2989173" lon="13.2846178"><ele>817.0</ele><time>2026-05-02T16:05:12.134Z</time></trkpt><trkpt lat="42.2989947" lon="13.2847457"><ele>817.0</ele><time>2026-05-02T16:05:13.142Z</time></trkpt><trkpt lat="42.299072" lon="13.2848875"><ele>817.0</ele><time>2026-05-02T16:05:14.141Z</time></trkpt><trkpt lat="42.2991468" lon="13.2850267"><ele>815.5</ele><time>2026-05-02T16:05:15.138Z</time></trkpt><trkpt lat="42.2992178" lon="13.2851724"><ele>814.0</ele><time>2026-05-02T16:05:16.134Z</time></trkpt><trkpt lat="42.2992804" lon="13.2853226"><ele>812.5</ele><time>2026-05-02T16:05:17.136Z</time></trkpt><trkpt lat="42.2993255" lon="13.2854761"><ele>811.0</ele><time>2026-05-02T16:05:18.144Z</time></trkpt><trkpt lat="42.2993638" lon="13.2856384"><ele>809.75</ele><time>2026-05-02T16:05:19.14Z</time></trkpt><trkpt lat="42.2993922" lon="13.2858113"><ele>808.5</ele><time>2026-05-02T16:05:20.136Z</time></trkpt><trkpt lat="42.2994103" lon="13.2860003"><ele>807.25</ele><time>2026-05-02T16:05:21.14Z</time></trkpt><trkpt lat="42.2994249" lon="13.2861933"><ele>806.0</ele><time>2026-05-02T16:05:22.143Z</time></trkpt><trkpt lat="42.2994032" lon="13.2864012"><ele>804.5</ele><time>2026-05-02T16:05:23.144Z</time></trkpt><trkpt lat="42.2994221" lon="13.2866036"><ele>803.0</ele><time>2026-05-02T16:05:24.138Z</time></trkpt><trkpt lat="42.2994301" lon="13.2867903"><ele>801.5</ele><time>2026-05-02T16:05:25.144Z</time></trkpt><trkpt lat="42.2994385" lon="13.2869729"><ele>800.0</ele><time>2026-05-02T16:05:26.141Z</time></trkpt><trkpt lat="42.2994573" lon="13.2871396"><ele>798.75</ele><time>2026-05-02T16:05:27.144Z</time></trkpt><trkpt lat="42.2994732" lon="13.2872946"><ele>797.5</ele><time>2026-05-02T16:05:28.135Z</time></trkpt><trkpt lat="42.2995304" lon="13.2874378"><ele>796.25</ele><time>2026-05-02T16:05:29.142Z</time></trkpt><trkpt lat="42.299594" lon="13.2875796"><ele>795.0</ele><time>2026-05-02T16:05:30.137Z</time></trkpt><trkpt lat="42.2996807" lon="13.2877073"><ele>796.75</ele><time>2026-05-02T16:05:31.134Z</time></trkpt><trkpt lat="42.2997787" lon="13.2878036"><ele>798.5</ele><time>2026-05-02T16:05:32.143Z</time></trkpt><trkpt lat="42.2998967" lon="13.2878384"><ele>800.25</ele><time>2026-05-02T16:05:33.142Z</time></trkpt><trkpt lat="42.3000236" lon="13.2878215"><ele>802.0</ele><time>2026-05-02T16:05:34.145Z</time></trkpt><trkpt lat="42.3001633" lon="13.2877726"><ele>802.0</ele><time>2026-05-02T16:05:35.135Z</time></trkpt><trkpt lat="42.3003424" lon="13.2877501"><ele>802.0</ele><time>2026-05-02T16:05:36.137Z</time></trkpt><trkpt lat="42.3005231" lon="13.2877494"><ele>802.0</ele><time>2026-05-02T16:05:37.132Z</time></trkpt><trkpt lat="42.3006968" lon="13.2877591"><ele>800.75</ele><time>2026-05-02T16:05:38.148Z</time></trkpt><trkpt lat="42.3008517" lon="13.2877579"><ele>799.5</ele><time>2026-05-02T16:05:39.133Z</time></trkpt><trkpt lat="42.3009854" lon="13.2877414"><ele>798.25</ele><time>2026-05-02T16:05:40.134Z</time></trkpt><trkpt lat="42.3011298" lon="13.2877399"><ele>797.0</ele><time>2026-05-02T16:05:41.13Z</time></trkpt><trkpt lat="42.3012678" lon="13.2877098"><ele>797.0</ele><time>2026-05-02T16:05:42.126Z</time></trkpt><trkpt lat="42.3014145" lon="13.287633"><ele>797.0</ele><time>2026-05-02T16:05:43.137Z</time></trkpt><trkpt lat="42.3015511" lon="13.2875123"><ele>797.0</ele><time>2026-05-02T16:05:44.136Z</time></trkpt><trkpt lat="42.3017011" lon="13.2874491"><ele>793.8</ele><time>2026-05-02T16:05:45.14Z</time></trkpt><trkpt lat="42.3018294" lon="13.2874235"><ele>790.6</ele><time>2026-05-02T16:05:46.131Z</time></trkpt><trkpt lat="42.3019568" lon="13.287414"><ele>787.4</ele><time>2026-05-02T16:05:47.135Z</time></trkpt><trkpt lat="42.3020464" lon="13.2873813"><ele>784.1999999999999</ele><time>2026-05-02T16:05:48.135Z</time></trkpt><trkpt lat="42.3021341" lon="13.2873804"><ele>781.0</ele><time>2026-05-02T16:05:49.128Z</time></trkpt><trkpt lat="42.3021489" lon="13.2874803"><ele>780.9999999999999</ele><time>2026-05-02T16:05:53.142Z</time></trkpt><trkpt lat="42.3021144" lon="13.2875536"><ele>781.0</ele><time>2026-05-02T16:05:55.139Z</time></trkpt><trkpt lat="42.3020859" lon="13.2876994"><ele>781.0</ele><time>2026-05-02T16:05:57.135Z</time></trkpt><trkpt lat="42.3020728" lon="13.2877867"><ele>781.0</ele><time>2026-05-02T16:05:58.136Z</time></trkpt><trkpt lat="42.3020622" lon="13.2878904"><ele>780.9999999999999</ele><time>2026-05-02T16:05:59.137Z</time></trkpt><trkpt lat="42.3020565" lon="13.2880135"><ele>781.0</ele><time>2026-05-02T16:06:00.132Z</time></trkpt><trkpt lat="42.3020548" lon="13.2881597"><ele>779.4</ele><time>2026-05-02T16:06:01.132Z</time></trkpt><trkpt lat="42.3020523" lon="13.2883021"><ele>777.8</ele><time>2026-05-02T16:06:02.132Z</time></trkpt><trkpt lat="42.3020521" lon="13.2884311"><ele>776.1999999999999</ele><time>2026-05-02T16:06:03.133Z</time></trkpt><trkpt lat="42.3020569" lon="13.2885509"><ele>774.5999999999999</ele><time>2026-05-02T16:06:04.131Z</time></trkpt><trkpt lat="42.3020558" lon="13.2886578"><ele>773.0</ele><time>2026-05-02T16:06:05.13Z</time></trkpt><trkpt lat="42.3020775" lon="13.2888215"><ele>773.0000000000001</ele><time>2026-05-02T16:06:07.132Z</time></trkpt><trkpt lat="42.3021246" lon="13.2889256"><ele>773.0</ele><time>2026-05-02T16:06:09.13Z</time></trkpt><trkpt lat="42.3022154" lon="13.2889883"><ele>773.0</ele><time>2026-05-02T16:06:11.13Z</time></trkpt><trkpt lat="42.3022765" lon="13.2890227"><ele>773.0</ele><time>2026-05-02T16:06:12.123Z</time></trkpt><trkpt lat="42.3023958" lon="13.289071"><ele>773.0000000000001</ele><time>2026-05-02T16:06:14.131Z</time></trkpt><trkpt lat="42.3024572" lon="13.2891029"><ele>773.0</ele><time>2026-05-02T16:06:15.126Z</time></trkpt><trkpt lat="42.3025248" lon="13.2891126"><ele>774.2</ele><time>2026-05-02T16:06:16.124Z</time></trkpt><trkpt lat="42.3026106" lon="13.2891065"><ele>775.4</ele><time>2026-05-02T16:06:17.127Z</time></trkpt><trkpt lat="42.3027154" lon="13.2890901"><ele>776.6</ele><time>2026-05-02T16:06:18.132Z</time></trkpt><trkpt lat="42.3028291" lon="13.2890665"><ele>777.8000000000001</ele><time>2026-05-02T16:06:19.129Z</time></trkpt><trkpt lat="42.3029333" lon="13.2890404"><ele>779.0</ele><time>2026-05-02T16:06:20.131Z</time></trkpt><trkpt lat="42.3030354" lon="13.28901"><ele>780.2</ele><time>2026-05-02T16:06:21.122Z</time></trkpt><trkpt lat="42.3031442" lon="13.2889791"><ele>781.4000000000001</ele><time>2026-05-02T16:06:22.123Z</time></trkpt><trkpt lat="42.3032505" lon="13.288941"><ele>782.6</ele><time>2026-05-02T16:06:23.117Z</time></trkpt><trkpt lat="42.3033495" lon="13.2889052"><ele>783.8</ele><time>2026-05-02T16:06:24.12Z</time></trkpt><trkpt lat="42.3034351" lon="13.2888622"><ele>785.0</ele><time>2026-05-02T16:06:25.121Z</time></trkpt><trkpt lat="42.3035243" lon="13.2888234"><ele>782.3333333333334</ele><time>2026-05-02T16:06:26.123Z</time></trkpt><trkpt lat="42.3036128" lon="13.2887826"><ele>779.6666666666667</ele><time>2026-05-02T16:06:27.127Z</time></trkpt><trkpt lat="42.3037024" lon="13.2887676"><ele>777.0</ele><time>2026-05-02T16:06:28.12Z</time></trkpt><trkpt lat="42.3037874" lon="13.2887717"><ele>774.3333333333333</ele><time>2026-05-02T16:06:29.125Z</time></trkpt><trkpt lat="42.3038732" lon="13.288777"><ele>771.6666666666666</ele><time>2026-05-02T16:06:30.118Z</time></trkpt><trkpt lat="42.3039561" lon="13.2887695"><ele>769.0</ele><time>2026-05-02T16:06:31.121Z</time></trkpt><trkpt lat="42.3040523" lon="13.2887556"><ele>769.0</ele><time>2026-05-02T16:06:32.118Z</time></trkpt><trkpt lat="42.3041445" lon="13.2887314"><ele>769.0</ele><time>2026-05-02T16:06:33.119Z</time></trkpt><trkpt lat="42.304237" lon="13.2887002"><ele>769.0</ele><time>2026-05-02T16:06:34.121Z</time></trkpt><trkpt lat="42.3043376" lon="13.2886731"><ele>769.0</ele><time>2026-05-02T16:06:35.127Z</time></trkpt><trkpt lat="42.3044363" lon="13.2886374"><ele>769.0</ele><time>2026-05-02T16:06:36.129Z</time></trkpt><trkpt lat="42.3045301" lon="13.2885948"><ele>769.0</ele><time>2026-05-02T16:06:37.125Z</time></trkpt><trkpt lat="42.3046328" lon="13.2885385"><ele>769.0</ele><time>2026-05-02T16:06:38.123Z</time></trkpt><trkpt lat="42.3047422" lon="13.288492"><ele>769.0</ele><time>2026-05-02T16:06:39.132Z</time></trkpt><trkpt lat="42.3048399" lon="13.2884557"><ele>769.0</ele><time>2026-05-02T16:06:40.124Z</time></trkpt><trkpt lat="42.3049368" lon="13.2884103"><ele>769.0</ele><time>2026-05-02T16:06:41.128Z</time></trkpt><trkpt lat="42.3050294" lon="13.2883643"><ele>768.8000000000001</ele><time>2026-05-02T16:06:42.12Z</time></trkpt><trkpt lat="42.305115" lon="13.2883316"><ele>768.6</ele><time>2026-05-02T16:06:43.125Z</time></trkpt><trkpt lat="42.3051907" lon="13.2882959"><ele>768.4</ele><time>2026-05-02T16:06:44.118Z</time></trkpt><trkpt lat="42.3052763" lon="13.2882669"><ele>768.2</ele><time>2026-05-02T16:06:45.124Z</time></trkpt><trkpt lat="42.3053711" lon="13.2882583"><ele>768.0</ele><time>2026-05-02T16:06:46.122Z</time></trkpt><trkpt lat="42.3054822" lon="13.2882748"><ele>767.8</ele><time>2026-05-02T16:06:47.12Z</time></trkpt><trkpt lat="42.3056001" lon="13.2882993"><ele>767.5999999999999</ele><time>2026-05-02T16:06:48.136Z</time></trkpt><trkpt lat="42.3057238" lon="13.28833"><ele>767.4000000000001</ele><time>2026-05-02T16:06:49.139Z</time></trkpt><trkpt lat="42.3058261" lon="13.2883392"><ele>767.2</ele><time>2026-05-02T16:06:50.136Z</time></trkpt><trkpt lat="42.305904" lon="13.2883266"><ele>767.0</ele><time>2026-05-02T16:06:51.14Z</time></trkpt><trkpt lat="42.3059844" lon="13.288305"><ele>767.0</ele><time>2026-05-02T16:06:52.137Z</time></trkpt><trkpt lat="42.3060634" lon="13.2882702"><ele>767.0</ele><time>2026-05-02T16:06:53.14Z</time></trkpt><trkpt lat="42.3061419" lon="13.2882122"><ele>767.0</ele><time>2026-05-02T16:06:54.133Z</time></trkpt><trkpt lat="42.3062318" lon="13.2881498"><ele>767.0</ele><time>2026-05-02T16:06:55.134Z</time></trkpt><trkpt lat="42.3063269" lon="13.2880766"><ele>767.0</ele><time>2026-05-02T16:06:56.139Z</time></trkpt><trkpt lat="42.3064314" lon="13.2880041"><ele>766.6</ele><time>2026-05-02T16:06:57.139Z</time></trkpt><trkpt lat="42.3065384" lon="13.2879255"><ele>766.2</ele><time>2026-05-02T16:06:58.146Z</time></trkpt><trkpt lat="42.3066415" lon="13.2878612"><ele>765.8</ele><time>2026-05-02T16:06:59.143Z</time></trkpt><trkpt lat="42.306739" lon="13.2878169"><ele>765.4</ele><time>2026-05-02T16:07:00.136Z</time></trkpt><trkpt lat="42.3068144" lon="13.2877808"><ele>765.0</ele><time>2026-05-02T16:07:01.139Z</time></trkpt><trkpt lat="42.3069219" lon="13.2877646"><ele>765.0</ele><time>2026-05-02T16:07:03.144Z</time></trkpt><trkpt lat="42.3070058" lon="13.2877475"><ele>765.0</ele><time>2026-05-02T16:07:05.133Z</time></trkpt><trkpt lat="42.3071166" lon="13.2876476"><ele>765.0</ele><time>2026-05-02T16:07:07.134Z</time></trkpt><trkpt lat="42.3071883" lon="13.2875577"><ele>765.0</ele><time>2026-05-02T16:07:08.135Z</time></trkpt><trkpt lat="42.3072628" lon="13.2874506"><ele>765.0</ele><time>2026-05-02T16:07:09.136Z</time></trkpt><trkpt lat="42.3073444" lon="13.2873389"><ele>764.5</ele><time>2026-05-02T16:07:10.143Z</time></trkpt><trkpt lat="42.3074267" lon="13.2872234"><ele>764.0</ele><time>2026-05-02T16:07:11.137Z</time></trkpt><trkpt lat="42.3075147" lon="13.2871029"><ele>763.5</ele><time>2026-05-02T16:07:12.143Z</time></trkpt><trkpt lat="42.3076075" lon="13.2869873"><ele>763.0</ele><time>2026-05-02T16:07:13.136Z</time></trkpt><trkpt lat="42.3077009" lon="13.2868696"><ele>763.0</ele><time>2026-05-02T16:07:14.136Z</time></trkpt><trkpt lat="42.3077967" lon="13.2867521"><ele>763.0</ele><time>2026-05-02T16:07:15.134Z</time></trkpt><trkpt lat="42.3078968" lon="13.286646"><ele>763.0</ele><time>2026-05-02T16:07:16.139Z</time></trkpt><trkpt lat="42.3080033" lon="13.2865521"><ele>763.0</ele><time>2026-05-02T16:07:17.136Z</time></trkpt><trkpt lat="42.3081221" lon="13.2864698"><ele>761.5</ele><time>2026-05-02T16:07:18.142Z</time></trkpt><trkpt lat="42.3082314" lon="13.2864032"><ele>760.0</ele><time>2026-05-02T16:07:19.138Z</time></trkpt><trkpt lat="42.3083382" lon="13.2863507"><ele>758.5</ele><time>2026-05-02T16:07:20.137Z</time></trkpt><trkpt lat="42.3084424" lon="13.2863005"><ele>757.0</ele><time>2026-05-02T16:07:21.138Z</time></trkpt><trkpt lat="42.3085489" lon="13.2862448"><ele>757.0</ele><time>2026-05-02T16:07:22.141Z</time></trkpt><trkpt lat="42.30866" lon="13.2861818"><ele>757.0</ele><time>2026-05-02T16:07:23.139Z</time></trkpt><trkpt lat="42.3087806" lon="13.2861159"><ele>757.0</ele><time>2026-05-02T16:07:24.139Z</time></trkpt><trkpt lat="42.3089074" lon="13.2860394"><ele>757.0</ele><time>2026-05-02T16:07:25.136Z</time></trkpt><trkpt lat="42.3090623" lon="13.2859745"><ele>757.0</ele><time>2026-05-02T16:07:26.136Z</time></trkpt><trkpt lat="42.3092055" lon="13.2859398"><ele>757.0</ele><time>2026-05-02T16:07:27.132Z</time></trkpt><trkpt lat="42.3093572" lon="13.2859187"><ele>757.0</ele><time>2026-05-02T16:07:28.133Z</time></trkpt><trkpt lat="42.3094744" lon="13.2858657"><ele>757.0</ele><time>2026-05-02T16:07:29.13Z</time></trkpt><trkpt lat="42.3095713" lon="13.285838"><ele>757.0</ele><time>2026-05-02T16:07:30.131Z</time></trkpt><trkpt lat="42.3096414" lon="13.2858083"><ele>757.0</ele><time>2026-05-02T16:07:31.127Z</time></trkpt><trkpt lat="42.3097397" lon="13.2858278"><ele>757.0</ele><time>2026-05-02T16:07:33.12Z</time></trkpt><trkpt lat="42.3096739" lon="13.2859186"><ele>757.0</ele><time>2026-05-02T16:07:36.128Z</time></trkpt><trkpt lat="42.309609" lon="13.2859219"><ele>757.0</ele><time>2026-05-02T16:07:37.125Z</time></trkpt><trkpt lat="42.3095184" lon="13.285916"><ele>757.0</ele><time>2026-05-02T16:07:38.125Z</time></trkpt><trkpt lat="42.3094015" lon="13.2859104"><ele>757.0</ele><time>2026-05-02T16:07:39.121Z</time></trkpt><trkpt lat="42.3092706" lon="13.2859121"><ele>757.0</ele><time>2026-05-02T16:07:40.125Z</time></trkpt><trkpt lat="42.3091387" lon="13.2859407"><ele>757.0</ele><time>2026-05-02T16:07:41.127Z</time></trkpt><trkpt lat="42.309013" lon="13.285991"><ele>757.0</ele><time>2026-05-02T16:07:42.129Z</time></trkpt><trkpt lat="42.308893" lon="13.2860549"><ele>757.0</ele><time>2026-05-02T16:07:43.131Z</time></trkpt><trkpt lat="42.3087732" lon="13.2861121"><ele>757.0</ele><time>2026-05-02T16:07:44.13Z</time></trkpt><trkpt lat="42.3086659" lon="13.2861717"><ele>757.0</ele><time>2026-05-02T16:07:45.128Z</time></trkpt><trkpt lat="42.3085795" lon="13.2862382"><ele>757.0</ele><time>2026-05-02T16:07:46.134Z</time></trkpt><trkpt lat="42.3085091" lon="13.286296"><ele>757.0</ele><time>2026-05-02T16:07:47.129Z</time></trkpt><trkpt lat="42.3084558" lon="13.2863437"><ele>758.6666666666667</ele><time>2026-05-02T16:07:48.131Z</time></trkpt><trkpt lat="42.3084017" lon="13.2864934"><ele>760.3333333333334</ele><time>2026-05-02T16:07:50.135Z</time></trkpt><trkpt lat="42.308432" lon="13.2865743"><ele>762.0</ele><time>2026-05-02T16:07:51.127Z</time></trkpt><trkpt lat="42.308485" lon="13.2866378"><ele>763.6666666666666</ele><time>2026-05-02T16:07:52.136Z</time></trkpt><trkpt lat="42.3085605" lon="13.2866593"><ele>765.3333333333333</ele><time>2026-05-02T16:07:53.13Z</time></trkpt><trkpt lat="42.3086553" lon="13.2866493"><ele>767.0</ele><time>2026-05-02T16:07:54.129Z</time></trkpt><trkpt lat="42.308774" lon="13.2866272"><ele>767.0</ele><time>2026-05-02T16:07:55.129Z</time></trkpt><trkpt lat="42.3089084" lon="13.2866029"><ele>767.0</ele><time>2026-05-02T16:07:56.133Z</time></trkpt><trkpt lat="42.3090579" lon="13.2865895"><ele>767.0</ele><time>2026-05-02T16:07:57.134Z</time></trkpt><trkpt lat="42.3092126" lon="13.2865767"><ele>767.0</ele><time>2026-05-02T16:07:58.136Z</time></trkpt><trkpt lat="42.3094131" lon="13.2865178"><ele>769.0</ele><time>2026-05-02T16:07:59.126Z</time></trkpt><trkpt lat="42.3095886" lon="13.2864958"><ele>771.0</ele><time>2026-05-02T16:08:00.129Z</time></trkpt><trkpt lat="42.3097382" lon="13.2864937"><ele>773.0</ele><time>2026-05-02T16:08:01.126Z</time></trkpt><trkpt lat="42.3098759" lon="13.2864721"><ele>770.5</ele><time>2026-05-02T16:08:02.128Z</time></trkpt><trkpt lat="42.3100198" lon="13.2864514"><ele>768.0</ele><time>2026-05-02T16:08:03.123Z</time></trkpt><trkpt lat="42.3101642" lon="13.2864279"><ele>765.5</ele><time>2026-05-02T16:08:04.123Z</time></trkpt><trkpt lat="42.310312" lon="13.2864146"><ele>763.0</ele><time>2026-05-02T16:08:05.126Z</time></trkpt><trkpt lat="42.3104712" lon="13.286364"><ele>765.5</ele><time>2026-05-02T16:08:06.136Z</time></trkpt><trkpt lat="42.3106188" lon="13.286339"><ele>768.0</ele><time>2026-05-02T16:08:07.132Z</time></trkpt><trkpt lat="42.3107475" lon="13.2863116"><ele>770.5</ele><time>2026-05-02T16:08:08.132Z</time></trkpt><trkpt lat="42.3108802" lon="13.2863094"><ele>773.0</ele><time>2026-05-02T16:08:09.138Z</time></trkpt><trkpt lat="42.3110049" lon="13.2863382"><ele>773.0</ele><time>2026-05-02T16:08:10.138Z</time></trkpt><trkpt lat="42.3111468" lon="13.286414"><ele>773.0</ele><time>2026-05-02T16:08:11.142Z</time></trkpt><trkpt lat="42.3112752" lon="13.2864339"><ele>773.0</ele><time>2026-05-02T16:08:12.142Z</time></trkpt><trkpt lat="42.3113864" lon="13.2863607"><ele>773.0</ele><time>2026-05-02T16:08:13.143Z</time></trkpt><trkpt lat="42.3114837" lon="13.2862608"><ele>775.4</ele><time>2026-05-02T16:08:14.148Z</time></trkpt><trkpt lat="42.3115513" lon="13.2861711"><ele>777.8</ele><time>2026-05-02T16:08:15.144Z</time></trkpt><trkpt lat="42.3116098" lon="13.2860977"><ele>780.2</ele><time>2026-05-02T16:08:16.148Z</time></trkpt><trkpt lat="42.3116619" lon="13.2860463"><ele>782.6</ele><time>2026-05-02T16:08:17.145Z</time></trkpt><trkpt lat="42.3117372" lon="13.2860815"><ele>785.0</ele><time>2026-05-02T16:08:19.141Z</time></trkpt><trkpt lat="42.3116754" lon="13.2862672"><ele>785.0</ele><time>2026-05-02T16:08:21.144Z</time></trkpt><trkpt lat="42.3115768" lon="13.2864206"><ele>785.0</ele><time>2026-05-02T16:08:22.142Z</time></trkpt><trkpt lat="42.31148" lon="13.2865828"><ele>785.0</ele><time>2026-05-02T16:08:23.144Z</time></trkpt><trkpt lat="42.3113864" lon="13.2867688"><ele>787.0</ele><time>2026-05-02T16:08:24.135Z</time></trkpt><trkpt lat="42.3112686" lon="13.2870253"><ele>789.0</ele><time>2026-05-02T16:08:25.141Z</time></trkpt><trkpt lat="42.3111653" lon="13.2872154"><ele>791.0</ele><time>2026-05-02T16:08:26.142Z</time></trkpt><trkpt lat="42.3110552" lon="13.2873735"><ele>792.25</ele><time>2026-05-02T16:08:27.137Z</time></trkpt><trkpt lat="42.3109484" lon="13.2875148"><ele>793.5</ele><time>2026-05-02T16:08:28.143Z</time></trkpt><trkpt lat="42.3108372" lon="13.2876353"><ele>794.75</ele><time>2026-05-02T16:08:29.144Z</time></trkpt><trkpt lat="42.3107105" lon="13.2877568"><ele>796.0</ele><time>2026-05-02T16:08:30.138Z</time></trkpt><trkpt lat="42.310574" lon="13.2878751"><ele>796.0</ele><time>2026-05-02T16:08:31.145Z</time></trkpt><trkpt lat="42.3104641" lon="13.2880048"><ele>796.0</ele><time>2026-05-02T16:08:32.137Z</time></trkpt><trkpt lat="42.31035" lon="13.2881262"><ele>796.0</ele><time>2026-05-02T16:08:33.141Z</time></trkpt><trkpt lat="42.31022" lon="13.2882596"><ele>796.6666666666666</ele><time>2026-05-02T16:08:34.14Z</time></trkpt><trkpt lat="42.3100977" lon="13.2884078"><ele>797.3333333333333</ele><time>2026-05-02T16:08:35.142Z</time></trkpt><trkpt lat="42.3099612" lon="13.2885514"><ele>798.0</ele><time>2026-05-02T16:08:36.139Z</time></trkpt><trkpt lat="42.3098259" lon="13.288717"><ele>798.0</ele><time>2026-05-02T16:08:37.143Z</time></trkpt><trkpt lat="42.3096972" lon="13.2888726"><ele>798.0</ele><time>2026-05-02T16:08:38.147Z</time></trkpt><trkpt lat="42.309562" lon="13.2890076"><ele>798.0</ele><time>2026-05-02T16:08:39.148Z</time></trkpt><trkpt lat="42.3094226" lon="13.2891299"><ele>798.0</ele><time>2026-05-02T16:08:40.145Z</time></trkpt><trkpt lat="42.3092928" lon="13.2892801"><ele>798.0</ele><time>2026-05-02T16:08:41.148Z</time></trkpt><trkpt lat="42.3091427" lon="13.2894065"><ele>798.0</ele><time>2026-05-02T16:08:42.143Z</time></trkpt><trkpt lat="42.3090199" lon="13.2895231"><ele>797.5999999999999</ele><time>2026-05-02T16:08:43.151Z</time></trkpt><trkpt lat="42.3089045" lon="13.2896295"><ele>797.1999999999999</ele><time>2026-05-02T16:08:44.141Z</time></trkpt><trkpt lat="42.3088357" lon="13.2897229"><ele>796.8</ele><time>2026-05-02T16:08:45.143Z</time></trkpt><trkpt lat="42.3087715" lon="13.2897903"><ele>796.4</ele><time>2026-05-02T16:08:46.144Z</time></trkpt><trkpt lat="42.3087435" lon="13.289926"><ele>796.0</ele><time>2026-05-02T16:08:48.144Z</time></trkpt><trkpt lat="42.3087945" lon="13.2900844"><ele>796.9999999999999</ele><time>2026-05-02T16:08:50.138Z</time></trkpt><trkpt lat="42.3088434" lon="13.2901452"><ele>798.0</ele><time>2026-05-02T16:08:51.135Z</time></trkpt><trkpt lat="42.3089027" lon="13.2902303"><ele>799.0</ele><time>2026-05-02T16:08:52.131Z</time></trkpt><trkpt lat="42.308962" lon="13.290324"><ele>800.0</ele><time>2026-05-02T16:08:53.128Z</time></trkpt><trkpt lat="42.3090125" lon="13.2904161"><ele>800.9999999999999</ele><time>2026-05-02T16:08:54.142Z</time></trkpt><trkpt lat="42.3090622" lon="13.2904978"><ele>802.0</ele><time>2026-05-02T16:08:55.134Z</time></trkpt><trkpt lat="42.3091058" lon="13.2905685"><ele>801.9999999999999</ele><time>2026-05-02T16:08:56.133Z</time></trkpt><trkpt lat="42.3091471" lon="13.2906332"><ele>802.0</ele><time>2026-05-02T16:08:57.128Z</time></trkpt><trkpt lat="42.3091982" lon="13.2907091"><ele>802.0</ele><time>2026-05-02T16:08:59.137Z</time></trkpt><trkpt lat="42.3091858" lon="13.2908497"><ele>802.0</ele><time>2026-05-02T16:09:01.134Z</time></trkpt><trkpt lat="42.3091885" lon="13.2909537"><ele>801.9999999999999</ele><time>2026-05-02T16:09:02.13Z</time></trkpt><trkpt lat="42.3092171" lon="13.2910736"><ele>802.0</ele><time>2026-05-02T16:09:03.131Z</time></trkpt><trkpt lat="42.3092509" lon="13.2912065"><ele>802.0</ele><time>2026-05-02T16:09:04.14Z</time></trkpt><trkpt lat="42.3092812" lon="13.2913385"><ele>802.0</ele><time>2026-05-02T16:09:05.132Z</time></trkpt><trkpt lat="42.3093109" lon="13.2914629"><ele>802.0</ele><time>2026-05-02T16:09:06.131Z</time></trkpt><trkpt lat="42.3093335" lon="13.2915741"><ele>802.0</ele><time>2026-05-02T16:09:07.133Z</time></trkpt><trkpt lat="42.3093621" lon="13.2916865"><ele>802.0</ele><time>2026-05-02T16:09:08.134Z</time></trkpt><trkpt lat="42.3093807" lon="13.2917887"><ele>801.6</ele><time>2026-05-02T16:09:09.129Z</time></trkpt><trkpt lat="42.3093932" lon="13.2918868"><ele>801.2</ele><time>2026-05-02T16:09:10.134Z</time></trkpt><trkpt lat="42.3094017" lon="13.2919812"><ele>800.8</ele><time>2026-05-02T16:09:11.137Z</time></trkpt><trkpt lat="42.3094138" lon="13.2920657"><ele>800.4</ele><time>2026-05-02T16:09:12.13Z</time></trkpt><trkpt lat="42.309424" lon="13.2922364"><ele>800.0</ele><time>2026-05-02T16:09:14.139Z</time></trkpt><trkpt lat="42.3094215" lon="13.2923969"><ele>799.6</ele><time>2026-05-02T16:09:16.141Z</time></trkpt><trkpt lat="42.3094532" lon="13.292551"><ele>799.2</ele><time>2026-05-02T16:09:18.144Z</time></trkpt><trkpt lat="42.3094826" lon="13.2926392"><ele>798.8</ele><time>2026-05-02T16:09:19.145Z</time></trkpt><trkpt lat="42.309512" lon="13.2927441"><ele>798.4</ele><time>2026-05-02T16:09:20.144Z</time></trkpt><trkpt lat="42.3095358" lon="13.2928616"><ele>798.0</ele><time>2026-05-02T16:09:21.143Z</time></trkpt><trkpt lat="42.309547" lon="13.2929907"><ele>797.1666666666666</ele><time>2026-05-02T16:09:22.142Z</time></trkpt><trkpt lat="42.309555" lon="13.2931161"><ele>796.3333333333333</ele><time>2026-05-02T16:09:23.146Z</time></trkpt><trkpt lat="42.3095656" lon="13.2932298"><ele>795.5</ele><time>2026-05-02T16:09:24.145Z</time></trkpt><trkpt lat="42.3095741" lon="13.2933369"><ele>794.6666666666666</ele><time>2026-05-02T16:09:25.145Z</time></trkpt><trkpt lat="42.3095756" lon="13.2934354"><ele>793.8333333333333</ele><time>2026-05-02T16:09:26.141Z</time></trkpt><trkpt lat="42.3095732" lon="13.2935245"><ele>793.0</ele><time>2026-05-02T16:09:27.142Z</time></trkpt><trkpt lat="42.3095928" lon="13.2936646"><ele>793.0</ele><time>2026-05-02T16:09:29.143Z</time></trkpt><trkpt lat="42.3096657" lon="13.2937213"><ele>793.0</ele><time>2026-05-02T16:09:31.141Z</time></trkpt><trkpt lat="42.3097748" lon="13.293687"><ele>793.0</ele><time>2026-05-02T16:09:33.142Z</time></trkpt><trkpt lat="42.3098655" lon="13.2936016"><ele>793.0</ele><time>2026-05-02T16:09:35.14Z</time></trkpt><trkpt lat="42.3099675" lon="13.293612"><ele>793.0</ele><time>2026-05-02T16:09:37.139Z</time></trkpt><trkpt lat="42.3100488" lon="13.2936823"><ele>790.8</ele><time>2026-05-02T16:09:39.137Z</time></trkpt><trkpt lat="42.3100985" lon="13.2938249"><ele>788.5999999999999</ele><time>2026-05-02T16:09:41.135Z</time></trkpt><trkpt lat="42.3100837" lon="13.2939652"><ele>786.4000000000001</ele><time>2026-05-02T16:09:43.138Z</time></trkpt><trkpt lat="42.3099974" lon="13.2940632"><ele>784.2</ele><time>2026-05-02T16:09:45.146Z</time></trkpt><trkpt lat="42.3099306" lon="13.2940897"><ele>782.0</ele><time>2026-05-02T16:09:46.136Z</time></trkpt><trkpt lat="42.309842" lon="13.2941006"><ele>782.1666666666667</ele><time>2026-05-02T16:09:47.137Z</time></trkpt><trkpt lat="42.3097607" lon="13.2941129"><ele>782.3333333333334</ele><time>2026-05-02T16:09:48.136Z</time></trkpt><trkpt lat="42.3096856" lon="13.2941254"><ele>782.5</ele><time>2026-05-02T16:09:49.136Z</time></trkpt><trkpt lat="42.3096167" lon="13.2941461"><ele>782.6666666666667</ele><time>2026-05-02T16:09:50.138Z</time></trkpt><trkpt lat="42.3095494" lon="13.2941644"><ele>782.8333333333334</ele><time>2026-05-02T16:09:51.135Z</time></trkpt><trkpt lat="42.3094497" lon="13.294263"><ele>783.0</ele><time>2026-05-02T16:09:53.131Z</time></trkpt><trkpt lat="42.3094222" lon="13.2943451"><ele>783.0</ele><time>2026-05-02T16:09:54.123Z</time></trkpt><trkpt lat="42.3094232" lon="13.2944443"><ele>783.0</ele><time>2026-05-02T16:09:55.136Z</time></trkpt><trkpt lat="42.309441" lon="13.2945366"><ele>783.0</ele><time>2026-05-02T16:09:56.131Z</time></trkpt><trkpt lat="42.3094613" lon="13.2946297"><ele>783.0</ele><time>2026-05-02T16:09:57.132Z</time></trkpt><trkpt lat="42.3094838" lon="13.2947224"><ele>783.0</ele><time>2026-05-02T16:09:58.128Z</time></trkpt><trkpt lat="42.309491" lon="13.2948076"><ele>783.0</ele><time>2026-05-02T16:09:59.132Z</time></trkpt><trkpt lat="42.3094826" lon="13.2949009"><ele>783.0</ele><time>2026-05-02T16:10:00.124Z</time></trkpt><trkpt lat="42.3094655" lon="13.2949892"><ele>782.1666666666666</ele><time>2026-05-02T16:10:01.131Z</time></trkpt><trkpt lat="42.3094449" lon="13.2950704"><ele>781.3333333333333</ele><time>2026-05-02T16:10:02.135Z</time></trkpt><trkpt lat="42.3094091" lon="13.2951441"><ele>780.5</ele><time>2026-05-02T16:10:03.13Z</time></trkpt><trkpt lat="42.309354" lon="13.295298"><ele>779.6666666666666</ele><time>2026-05-02T16:10:05.128Z</time></trkpt><trkpt lat="42.3093328" lon="13.2953793"><ele>778.8333333333333</ele><time>2026-05-02T16:10:06.136Z</time></trkpt><trkpt lat="42.3093031" lon="13.2954697"><ele>778.0</ele><time>2026-05-02T16:10:07.132Z</time></trkpt><trkpt lat="42.3092713" lon="13.2955627"><ele>776.5999999999999</ele><time>2026-05-02T16:10:08.132Z</time></trkpt><trkpt lat="42.3092338" lon="13.2956632"><ele>775.1999999999999</ele><time>2026-05-02T16:10:09.132Z</time></trkpt><trkpt lat="42.3091923" lon="13.2957728"><ele>773.8</ele><time>2026-05-02T16:10:10.133Z</time></trkpt><trkpt lat="42.3091505" lon="13.2958827"><ele>772.4</ele><time>2026-05-02T16:10:11.129Z</time></trkpt><trkpt lat="42.3090938" lon="13.295988"><ele>771.0</ele><time>2026-05-02T16:10:12.134Z</time></trkpt><trkpt lat="42.3090313" lon="13.2960998"><ele>771.0</ele><time>2026-05-02T16:10:13.128Z</time></trkpt><trkpt lat="42.3089548" lon="13.2962204"><ele>771.0</ele><time>2026-05-02T16:10:14.134Z</time></trkpt><trkpt lat="42.3088787" lon="13.2963435"><ele>771.0</ele><time>2026-05-02T16:10:15.135Z</time></trkpt><trkpt lat="42.3088053" lon="13.2964717"><ele>771.0</ele><time>2026-05-02T16:10:16.149Z</time></trkpt><trkpt lat="42.3087414" lon="13.2965945"><ele>771.5999999999999</ele><time>2026-05-02T16:10:17.135Z</time></trkpt><trkpt lat="42.3086927" lon="13.2967169"><ele>772.2</ele><time>2026-05-02T16:10:18.144Z</time></trkpt><trkpt lat="42.3086563" lon="13.2968417"><ele>772.8</ele><time>2026-05-02T16:10:19.136Z</time></trkpt><trkpt lat="42.308614" lon="13.2969562"><ele>773.4000000000001</ele><time>2026-05-02T16:10:20.138Z</time></trkpt><trkpt lat="42.3085761" lon="13.2970753"><ele>774.0</ele><time>2026-05-02T16:10:21.134Z</time></trkpt><trkpt lat="42.3085318" lon="13.2971911"><ele>773.5</ele><time>2026-05-02T16:10:22.137Z</time></trkpt><trkpt lat="42.3084768" lon="13.297295"><ele>773.0</ele><time>2026-05-02T16:10:23.131Z</time></trkpt><trkpt lat="42.3084125" lon="13.2973946"><ele>772.5</ele><time>2026-05-02T16:10:24.134Z</time></trkpt><trkpt lat="42.308351" lon="13.2974758"><ele>772.0</ele><time>2026-05-02T16:10:25.137Z</time></trkpt><trkpt lat="42.3083019" lon="13.2975603"><ele>771.5</ele><time>2026-05-02T16:10:26.136Z</time></trkpt><trkpt lat="42.3082776" lon="13.2976653"><ele>771.0</ele><time>2026-05-02T16:10:27.134Z</time></trkpt><trkpt lat="42.3082786" lon="13.29779"><ele>771.0</ele><time>2026-05-02T16:10:28.137Z</time></trkpt><trkpt lat="42.3082909" lon="13.2979099"><ele>771.0</ele><time>2026-05-02T16:10:29.136Z</time></trkpt><trkpt lat="42.3083044" lon="13.2980118"><ele>771.0</ele><time>2026-05-02T16:10:30.133Z</time></trkpt><trkpt lat="42.3083181" lon="13.2980978"><ele>771.0</ele><time>2026-05-02T16:10:31.138Z</time></trkpt><trkpt lat="42.3083546" lon="13.2982114"><ele>771.0</ele><time>2026-05-02T16:10:33.138Z</time></trkpt><trkpt lat="42.3083751" lon="13.2983176"><ele>771.0</ele><time>2026-05-02T16:10:35.13Z</time></trkpt><trkpt lat="42.3082948" lon="13.2984338"><ele>770.5</ele><time>2026-05-02T16:10:37.133Z</time></trkpt><trkpt lat="42.3082199" lon="13.2984995"><ele>770.0</ele><time>2026-05-02T16:10:38.133Z</time></trkpt><trkpt lat="42.3081371" lon="13.298557"><ele>769.5</ele><time>2026-05-02T16:10:39.136Z</time></trkpt><trkpt lat="42.3080602" lon="13.2986029"><ele>769.0</ele><time>2026-05-02T16:10:40.132Z</time></trkpt><trkpt lat="42.3079776" lon="13.298612"><ele>768.5</ele><time>2026-05-02T16:10:41.133Z</time></trkpt><trkpt lat="42.3078885" lon="13.2986033"><ele>768.0</ele><time>2026-05-02T16:10:42.131Z</time></trkpt><trkpt lat="42.3078001" lon="13.2985952"><ele>769.4</ele><time>2026-05-02T16:10:43.129Z</time></trkpt><trkpt lat="42.3077149" lon="13.2985999"><ele>770.8</ele><time>2026-05-02T16:10:44.116Z</time></trkpt><trkpt lat="42.3076245" lon="13.2986217"><ele>772.2</ele><time>2026-05-02T16:10:45.124Z</time></trkpt><trkpt lat="42.3075401" lon="13.2986567"><ele>773.6</ele><time>2026-05-02T16:10:46.131Z</time></trkpt><trkpt lat="42.3074835" lon="13.2987222"><ele>775.0</ele><time>2026-05-02T16:10:47.126Z</time></trkpt><trkpt lat="42.3074304" lon="13.298871"><ele>775.1666666666666</ele><time>2026-05-02T16:10:49.129Z</time></trkpt><trkpt lat="42.3074129" lon="13.2989587"><ele>775.3333333333333</ele><time>2026-05-02T16:10:50.127Z</time></trkpt><trkpt lat="42.3074076" lon="13.2990658"><ele>775.5</ele><time>2026-05-02T16:10:51.126Z</time></trkpt><trkpt lat="42.3073986" lon="13.2991759"><ele>775.6666666666667</ele><time>2026-05-02T16:10:52.122Z</time></trkpt><trkpt lat="42.3073486" lon="13.299307"><ele>775.8333333333334</ele><time>2026-05-02T16:10:54.128Z</time></trkpt><trkpt lat="42.3072852" lon="13.2993143"><ele>776.0</ele><time>2026-05-02T16:10:55.131Z</time></trkpt><trkpt lat="42.30721" lon="13.2993107"><ele>776.0</ele><time>2026-05-02T16:10:56.134Z</time></trkpt><trkpt lat="42.307131" lon="13.2993047"><ele>776.0</ele><time>2026-05-02T16:10:57.138Z</time></trkpt><trkpt lat="42.3070663" lon="13.2992842"><ele>776.0</ele><time>2026-05-02T16:10:58.132Z</time></trkpt><trkpt lat="42.3069466" lon="13.2992658"><ele>776.0</ele><time>2026-05-02T16:11:00.13Z</time></trkpt><trkpt lat="42.3068598" lon="13.2993246"><ele>776.0</ele><time>2026-05-02T16:11:02.126Z</time></trkpt><trkpt lat="42.3067876" lon="13.2994361"><ele>776.0</ele><time>2026-05-02T16:11:04.131Z</time></trkpt><trkpt lat="42.3066986" lon="13.2994455"><ele>776.0</ele><time>2026-05-02T16:11:06.13Z</time></trkpt><trkpt lat="42.308995" lon="13.3007026"><ele>781.0</ele><time>2026-05-02T16:11:17.545Z</time></trkpt><trkpt lat="42.3046751" lon="13.3018776"><ele>789.0</ele><time>2026-05-02T16:12:07.794Z</time></trkpt><trkpt lat="42.3048701" lon="13.3023775"><ele>797.0</ele><time>2026-05-02T16:12:09.757Z</time></trkpt><trkpt lat="42.3045225" lon="13.3022898"><ele>791.6666666666667</ele><time>2026-05-02T16:12:11.423Z</time></trkpt><trkpt lat="42.3043107" lon="13.3022379"><ele>786.3333333333333</ele><time>2026-05-02T16:12:15.421Z</time></trkpt><trkpt lat="42.3044896" lon="13.3020955"><ele>781.0</ele><time>2026-05-02T16:12:16.404Z</time></trkpt><trkpt lat="42.3043939" lon="13.3020611"><ele>781.0</ele><time>2026-05-02T16:12:18.402Z</time></trkpt><trkpt lat="42.3044058" lon="13.3019744"><ele>781.0</ele><time>2026-05-02T16:12:20.402Z</time></trkpt><trkpt lat="42.3043421" lon="13.3019545"><ele>781.0</ele><time>2026-05-02T16:12:23.409Z</time></trkpt><trkpt lat="42.3042697" lon="13.3019339"><ele>781.0</ele><time>2026-05-02T16:12:24.407Z</time></trkpt><trkpt lat="42.3044593" lon="13.3034182"><ele>786.1428571428571</ele><time>2026-05-02T16:12:28.4Z</time></trkpt><trkpt lat="42.3043956" lon="13.3033843"><ele>791.2857142857143</ele><time>2026-05-02T16:12:30.219Z</time></trkpt><trkpt lat="42.3043296" lon="13.3034132"><ele>796.4285714285713</ele><time>2026-05-02T16:12:40.033Z</time></trkpt><trkpt lat="42.3042645" lon="13.3034273"><ele>801.5714285714286</ele><time>2026-05-02T16:12:44.026Z</time></trkpt><trkpt lat="42.3042013" lon="13.3034475"><ele>806.7142857142857</ele><time>2026-05-02T16:12:47.032Z</time></trkpt><trkpt lat="42.3041298" lon="13.3034619"><ele>811.8571428571428</ele><time>2026-05-02T16:12:50.033Z</time></trkpt><trkpt lat="42.3040682" lon="13.3034871"><ele>817.0</ele><time>2026-05-02T16:12:53.043Z</time></trkpt><trkpt lat="42.3040018" lon="13.3035133"><ele>816.9999999999999</ele><time>2026-05-02T16:12:59.042Z</time></trkpt><trkpt lat="42.3039555" lon="13.3035984"><ele>817.0</ele><time>2026-05-02T16:13:02.04Z</time></trkpt><trkpt lat="42.3039421" lon="13.3036859"><ele>817.0</ele><time>2026-05-02T16:13:04.039Z</time></trkpt><trkpt lat="42.3039732" lon="13.3038576"><ele>817.0</ele><time>2026-05-02T16:13:06.038Z</time></trkpt><trkpt lat="42.3039883" lon="13.3039463"><ele>816.9999999999999</ele><time>2026-05-02T16:13:07.039Z</time></trkpt><trkpt lat="42.3040027" lon="13.3040366"><ele>817.0</ele><time>2026-05-02T16:13:08.037Z</time></trkpt><trkpt lat="42.303942" lon="13.3040945"><ele>822.5</ele><time>2026-05-02T16:13:13.048Z</time></trkpt><trkpt lat="42.3039393" lon="13.3042027"><ele>828.0</ele><time>2026-05-02T16:13:22.047Z</time></trkpt><trkpt lat="42.3040405" lon="13.3043769"><ele>833.5</ele><time>2026-05-02T16:13:24.049Z</time></trkpt><trkpt lat="42.30413" lon="13.3045057"><ele>839.0</ele><time>2026-05-02T16:13:25.05Z</time></trkpt><trkpt lat="42.3041996" lon="13.3046106"><ele>839.0</ele><time>2026-05-02T16:13:26.05Z</time></trkpt><trkpt lat="42.3041186" lon="13.3046356"><ele>839.0</ele><time>2026-05-02T16:13:32.046Z</time></trkpt><trkpt lat="42.3041874" lon="13.3046987"><ele>839.0</ele><time>2026-05-02T16:13:33.048Z</time></trkpt><trkpt lat="42.3043041" lon="13.3047964"><ele>839.0</ele><time>2026-05-02T16:13:34.045Z</time></trkpt><trkpt lat="42.3044071" lon="13.3048789"><ele>839.0</ele><time>2026-05-02T16:13:35.051Z</time></trkpt><trkpt lat="42.3045114" lon="13.304741"><ele>839.0000000000001</ele><time>2026-05-02T16:13:37.051Z</time></trkpt><trkpt lat="42.3045652" lon="13.3046687"><ele>839.0</ele><time>2026-05-02T16:13:38.048Z</time></trkpt><trkpt lat="42.30462" lon="13.3046197"><ele>839.0</ele><time>2026-05-02T16:13:39.05Z</time></trkpt><trkpt lat="42.3046756" lon="13.3045684"><ele>839.0</ele><time>2026-05-02T16:13:40.05Z</time></trkpt><trkpt lat="42.3047852" lon="13.304496"><ele>839.0000000000001</ele><time>2026-05-02T16:13:42.025Z</time></trkpt><trkpt lat="42.3048463" lon="13.3044746"><ele>839.0</ele><time>2026-05-02T16:13:43.027Z</time></trkpt><trkpt lat="42.3049902" lon="13.3044623"><ele>839.0</ele><time>2026-05-02T16:13:45.057Z</time></trkpt><trkpt lat="42.3042571" lon="13.3044618"><ele>839.0</ele><time>2026-05-02T16:13:46.069Z</time></trkpt><trkpt lat="42.3043891" lon="13.3044853"><ele>839.0</ele><time>2026-05-02T16:13:47.052Z</time></trkpt><trkpt lat="42.3044854" lon="13.3045064"><ele>839.0</ele><time>2026-05-02T16:13:48.055Z</time></trkpt><trkpt lat="42.3045841" lon="13.3045253"><ele>839.0</ele><time>2026-05-02T16:13:49.051Z</time></trkpt><trkpt lat="42.3047022" lon="13.304533"><ele>839.0</ele><time>2026-05-02T16:13:50.054Z</time></trkpt><trkpt lat="42.3048056" lon="13.3045071"><ele>841.25</ele><time>2026-05-02T16:13:51.059Z</time></trkpt><trkpt lat="42.3049209" lon="13.3044674"><ele>843.5</ele><time>2026-05-02T16:13:52.054Z</time></trkpt><trkpt lat="42.3050622" lon="13.3044224"><ele>845.75</ele><time>2026-05-02T16:13:53.056Z</time></trkpt><trkpt lat="42.3051886" lon="13.3043707"><ele>848.0</ele><time>2026-05-02T16:13:54.056Z</time></trkpt><trkpt lat="42.3053156" lon="13.3043266"><ele>848.0</ele><time>2026-05-02T16:13:55.051Z</time></trkpt><trkpt lat="42.3054383" lon="13.3042658"><ele>848.0</ele><time>2026-05-02T16:13:56.057Z</time></trkpt><trkpt lat="42.3055614" lon="13.3042123"><ele>848.0</ele><time>2026-05-02T16:13:57.056Z</time></trkpt><trkpt lat="42.3056564" lon="13.3041792"><ele>848.0</ele><time>2026-05-02T16:13:58.056Z</time></trkpt><trkpt lat="42.3057378" lon="13.3041675"><ele>848.0</ele><time>2026-05-02T16:13:59.058Z</time></trkpt><trkpt lat="42.3058221" lon="13.3041515"><ele>851.2</ele><time>2026-05-02T16:14:00.056Z</time></trkpt><trkpt lat="42.3059065" lon="13.3041428"><ele>854.4</ele><time>2026-05-02T16:14:01.058Z</time></trkpt><trkpt lat="42.3059925" lon="13.3041347"><ele>857.6000000000001</ele><time>2026-05-02T16:14:02.054Z</time></trkpt><trkpt lat="42.306091" lon="13.30411"><ele>860.8000000000001</ele><time>2026-05-02T16:14:03.059Z</time></trkpt><trkpt lat="42.306188" lon="13.304079"><ele>864.0</ele><time>2026-05-02T16:14:04.06Z</time></trkpt><trkpt lat="42.3062919" lon="13.304049"><ele>864.0</ele><time>2026-05-02T16:14:05.058Z</time></trkpt><trkpt lat="42.3063918" lon="13.3040175"><ele>864.0</ele><time>2026-05-02T16:14:06.053Z</time></trkpt><trkpt lat="42.3064934" lon="13.3039747"><ele>864.0</ele><time>2026-05-02T16:14:07.057Z</time></trkpt><trkpt lat="42.3066011" lon="13.3039252"><ele>864.0</ele><time>2026-05-02T16:14:08.053Z</time></trkpt><trkpt lat="42.3067229" lon="13.3038773"><ele>863.25</ele><time>2026-05-02T16:14:09.053Z</time></trkpt><trkpt lat="42.3068497" lon="13.3038208"><ele>862.5</ele><time>2026-05-02T16:14:10.055Z</time></trkpt><trkpt lat="42.3069749" lon="13.3037691"><ele>861.75</ele><time>2026-05-02T16:14:11.057Z</time></trkpt><trkpt lat="42.3071162" lon="13.3037224"><ele>861.0</ele><time>2026-05-02T16:14:12.054Z</time></trkpt><trkpt lat="42.3072542" lon="13.30368"><ele>861.0</ele><time>2026-05-02T16:14:13.053Z</time></trkpt><trkpt lat="42.3074048" lon="13.3036695"><ele>861.0</ele><time>2026-05-02T16:14:14.051Z</time></trkpt><trkpt lat="42.3075448" lon="13.3036269"><ele>861.0</ele><time>2026-05-02T16:14:15.054Z</time></trkpt><trkpt lat="42.3076907" lon="13.3035733"><ele>861.0</ele><time>2026-05-02T16:14:16.039Z</time></trkpt><trkpt lat="42.3078318" lon="13.3035035"><ele>861.0</ele><time>2026-05-02T16:14:17.047Z</time></trkpt><trkpt lat="42.3079515" lon="13.3033716"><ele>861.0</ele><time>2026-05-02T16:14:18.05Z</time></trkpt><trkpt lat="42.3080523" lon="13.3032651"><ele>861.0</ele><time>2026-05-02T16:14:19.051Z</time></trkpt><trkpt lat="42.3081509" lon="13.3031324"><ele>861.0</ele><time>2026-05-02T16:14:20.05Z</time></trkpt><trkpt lat="42.30824" lon="13.3029755"><ele>854.25</ele><time>2026-05-02T16:14:21.051Z</time></trkpt><trkpt lat="42.308321" lon="13.3028139"><ele>847.5</ele><time>2026-05-02T16:14:22.057Z</time></trkpt><trkpt lat="42.3084018" lon="13.3026554"><ele>840.75</ele><time>2026-05-02T16:14:23.058Z</time></trkpt><trkpt lat="42.3084857" lon="13.3024977"><ele>834.0</ele><time>2026-05-02T16:14:24.051Z</time></trkpt><trkpt lat="42.3085817" lon="13.3023362"><ele>824.3333333333333</ele><time>2026-05-02T16:14:25.051Z</time></trkpt><trkpt lat="42.3086758" lon="13.3022192"><ele>814.6666666666666</ele><time>2026-05-02T16:14:26.049Z</time></trkpt><trkpt lat="42.3087892" lon="13.3019477"><ele>805.0</ele><time>2026-05-02T16:14:27.055Z</time></trkpt><trkpt lat="42.3088973" lon="13.3018247"><ele>807.0</ele><time>2026-05-02T16:14:28.054Z</time></trkpt><trkpt lat="42.3090235" lon="13.3015166"><ele>809.0</ele><time>2026-05-02T16:14:29.059Z</time></trkpt><trkpt lat="42.3091399" lon="13.3013787"><ele>811.0</ele><time>2026-05-02T16:14:30.055Z</time></trkpt><trkpt lat="42.3092928" lon="13.3012572"><ele>811.0</ele><time>2026-05-02T16:14:31.055Z</time></trkpt><trkpt lat="42.3094369" lon="13.3010423"><ele>811.0</ele><time>2026-05-02T16:14:32.058Z</time></trkpt><trkpt lat="42.309561" lon="13.3008742"><ele>811.0</ele><time>2026-05-02T16:14:33.06Z</time></trkpt><trkpt lat="42.3096895" lon="13.3006644"><ele>810.0</ele><time>2026-05-02T16:14:34.064Z</time></trkpt><trkpt lat="42.3098175" lon="13.3005046"><ele>809.0</ele><time>2026-05-02T16:14:35.06Z</time></trkpt><trkpt lat="42.3099521" lon="13.3003491"><ele>808.0</ele><time>2026-05-02T16:14:36.059Z</time></trkpt><trkpt lat="42.3100696" lon="13.3001808"><ele>808.0</ele><time>2026-05-02T16:14:37.058Z</time></trkpt><trkpt lat="42.3101733" lon="13.3000291"><ele>808.0</ele><time>2026-05-02T16:14:38.063Z</time></trkpt><trkpt lat="42.3102417" lon="13.299899"><ele>808.0</ele><time>2026-05-02T16:14:39.06Z</time></trkpt><trkpt lat="42.3102852" lon="13.2997431"><ele>808.0</ele><time>2026-05-02T16:14:40.075Z</time></trkpt><trkpt lat="42.3103318" lon="13.2996097"><ele>808.5</ele><time>2026-05-02T16:14:41.072Z</time></trkpt><trkpt lat="42.3103941" lon="13.2994884"><ele>809.0</ele><time>2026-05-02T16:14:42.06Z</time></trkpt><trkpt lat="42.3104781" lon="13.2993743"><ele>809.5</ele><time>2026-05-02T16:14:43.066Z</time></trkpt><trkpt lat="42.3105692" lon="13.2992635"><ele>810.0</ele><time>2026-05-02T16:14:44.066Z</time></trkpt><trkpt lat="42.3106573" lon="13.2991665"><ele>810.0</ele><time>2026-05-02T16:14:45.065Z</time></trkpt><trkpt lat="42.3107631" lon="13.2990732"><ele>810.0</ele><time>2026-05-02T16:14:46.07Z</time></trkpt><trkpt lat="42.3108743" lon="13.2989909"><ele>810.0</ele><time>2026-05-02T16:14:47.068Z</time></trkpt><trkpt lat="42.3109876" lon="13.2989125"><ele>810.0</ele><time>2026-05-02T16:14:48.069Z</time></trkpt><trkpt lat="42.311091" lon="13.2988307"><ele>810.0</ele><time>2026-05-02T16:14:49.07Z</time></trkpt><trkpt lat="42.3111837" lon="13.2987544"><ele>810.0</ele><time>2026-05-02T16:14:50.061Z</time></trkpt><trkpt lat="42.3112696" lon="13.2986946"><ele>810.0</ele><time>2026-05-02T16:14:51.061Z</time></trkpt><trkpt lat="42.3113564" lon="13.2986265"><ele>810.0</ele><time>2026-05-02T16:14:52.066Z</time></trkpt><trkpt lat="42.3114506" lon="13.298557"><ele>810.0</ele><time>2026-05-02T16:14:53.067Z</time></trkpt><trkpt lat="42.3115443" lon="13.2984985"><ele>810.5</ele><time>2026-05-02T16:14:54.066Z</time></trkpt><trkpt lat="42.311648" lon="13.2984601"><ele>811.0</ele><time>2026-05-02T16:14:55.066Z</time></trkpt><trkpt lat="42.3117526" lon="13.2984107"><ele>811.5</ele><time>2026-05-02T16:14:56.067Z</time></trkpt><trkpt lat="42.3118612" lon="13.2983532"><ele>812.0</ele><time>2026-05-02T16:14:57.067Z</time></trkpt><trkpt lat="42.3119688" lon="13.2982989"><ele>812.0</ele><time>2026-05-02T16:14:58.069Z</time></trkpt><trkpt lat="42.3120883" lon="13.2982415"><ele>812.0</ele><time>2026-05-02T16:14:59.062Z</time></trkpt><trkpt lat="42.3122109" lon="13.2981905"><ele>812.0</ele><time>2026-05-02T16:15:00.065Z</time></trkpt><trkpt lat="42.3123376" lon="13.2981528"><ele>812.0</ele><time>2026-05-02T16:15:01.073Z</time></trkpt><trkpt lat="42.3124556" lon="13.2981458"><ele>811.8</ele><time>2026-05-02T16:15:02.071Z</time></trkpt><trkpt lat="42.3125666" lon="13.2981359"><ele>811.6</ele><time>2026-05-02T16:15:03.072Z</time></trkpt><trkpt lat="42.3126667" lon="13.2981284"><ele>811.4</ele><time>2026-05-02T16:15:04.069Z</time></trkpt><trkpt lat="42.3127576" lon="13.298121"><ele>811.1999999999999</ele><time>2026-05-02T16:15:05.07Z</time></trkpt><trkpt lat="42.312837" lon="13.2981225"><ele>811.0</ele><time>2026-05-02T16:15:06.073Z</time></trkpt><trkpt lat="42.3129111" lon="13.2981224"><ele>810.9999999999999</ele><time>2026-05-02T16:15:07.071Z</time></trkpt><trkpt lat="42.3129846" lon="13.2981307"><ele>811.0</ele><time>2026-05-02T16:15:08.066Z</time></trkpt><trkpt lat="42.3130593" lon="13.2981319"><ele>811.0</ele><time>2026-05-02T16:15:09.071Z</time></trkpt><trkpt lat="42.3131413" lon="13.2981273"><ele>811.0</ele><time>2026-05-02T16:15:10.066Z</time></trkpt><trkpt lat="42.3132251" lon="13.2981078"><ele>810.9999999999999</ele><time>2026-05-02T16:15:11.073Z</time></trkpt><trkpt lat="42.3133025" lon="13.2980748"><ele>811.0</ele><time>2026-05-02T16:15:12.069Z</time></trkpt><trkpt lat="42.3133783" lon="13.2980461"><ele>810.4999999999999</ele><time>2026-05-02T16:15:13.07Z</time></trkpt><trkpt lat="42.3134461" lon="13.2980166"><ele>810.0</ele><time>2026-05-02T16:15:14.077Z</time></trkpt><trkpt lat="42.3135109" lon="13.297976"><ele>809.5</ele><time>2026-05-02T16:15:15.072Z</time></trkpt><trkpt lat="42.313577" lon="13.2979219"><ele>809.0</ele><time>2026-05-02T16:15:16.078Z</time></trkpt><trkpt lat="42.3136509" lon="13.2978507"><ele>808.4999999999999</ele><time>2026-05-02T16:15:17.07Z</time></trkpt><trkpt lat="42.3137184" lon="13.2977925"><ele>808.0</ele><time>2026-05-02T16:15:18.078Z</time></trkpt><trkpt lat="42.3137916" lon="13.2977488"><ele>807.9999999999999</ele><time>2026-05-02T16:15:19.066Z</time></trkpt><trkpt lat="42.313874" lon="13.297705"><ele>808.0</ele><time>2026-05-02T16:15:20.072Z</time></trkpt><trkpt lat="42.3139534" lon="13.297683"><ele>808.0</ele><time>2026-05-02T16:15:21.069Z</time></trkpt><trkpt lat="42.3140317" lon="13.2976775"><ele>808.0</ele><time>2026-05-02T16:15:22.066Z</time></trkpt><trkpt lat="42.3141348" lon="13.2976918"><ele>807.9999999999999</ele><time>2026-05-02T16:15:24.092Z</time></trkpt><trkpt lat="42.3141765" lon="13.2977752"><ele>808.0</ele><time>2026-05-02T16:15:26.065Z</time></trkpt><trkpt lat="42.3141809" lon="13.2978614"><ele>807.4</ele><time>2026-05-02T16:15:27.075Z</time></trkpt><trkpt lat="42.3141833" lon="13.2979776"><ele>806.8</ele><time>2026-05-02T16:15:28.066Z</time></trkpt><trkpt lat="42.3141867" lon="13.2981168"><ele>806.2</ele><time>2026-05-02T16:15:29.071Z</time></trkpt><trkpt lat="42.3141975" lon="13.2982555"><ele>805.6</ele><time>2026-05-02T16:15:30.097Z</time></trkpt><trkpt lat="42.3142123" lon="13.2983817"><ele>805.0</ele><time>2026-05-02T16:15:31.075Z</time></trkpt><trkpt lat="42.3142289" lon="13.2985088"><ele>805.0</ele><time>2026-05-02T16:15:32.075Z</time></trkpt><trkpt lat="42.3142436" lon="13.2986364"><ele>805.0</ele><time>2026-05-02T16:15:33.074Z</time></trkpt><trkpt lat="42.3142645" lon="13.2987628"><ele>805.0</ele><time>2026-05-02T16:15:34.077Z</time></trkpt><trkpt lat="42.3142958" lon="13.2988944"><ele>805.0</ele><time>2026-05-02T16:15:35.077Z</time></trkpt><trkpt lat="42.3143191" lon="13.2990283"><ele>805.0</ele><time>2026-05-02T16:15:36.076Z</time></trkpt><trkpt lat="42.3143464" lon="13.2991702"><ele>804.0</ele><time>2026-05-02T16:15:37.071Z</time></trkpt><trkpt lat="42.3143786" lon="13.2992946"><ele>803.0</ele><time>2026-05-02T16:15:38.07Z</time></trkpt><trkpt lat="42.3144148" lon="13.2994076"><ele>802.0</ele><time>2026-05-02T16:15:39.074Z</time></trkpt><trkpt lat="42.3144829" lon="13.299486"><ele>801.0</ele><time>2026-05-02T16:15:40.078Z</time></trkpt><trkpt lat="42.3145706" lon="13.2995488"><ele>800.0</ele><time>2026-05-02T16:15:41.075Z</time></trkpt><trkpt lat="42.3146792" lon="13.2995927"><ele>798.0</ele><time>2026-05-02T16:15:42.074Z</time></trkpt><trkpt lat="42.314796" lon="13.299626"><ele>796.0</ele><time>2026-05-02T16:15:43.076Z</time></trkpt><trkpt lat="42.3149246" lon="13.2996482"><ele>794.0</ele><time>2026-05-02T16:15:44.079Z</time></trkpt><trkpt lat="42.3150552" lon="13.2996667"><ele>792.0</ele><time>2026-05-02T16:15:45.072Z</time></trkpt><trkpt lat="42.3151863" lon="13.2996702"><ele>792.0</ele><time>2026-05-02T16:15:46.074Z</time></trkpt><trkpt lat="42.3153124" lon="13.2996521"><ele>792.0</ele><time>2026-05-02T16:15:47.066Z</time></trkpt><trkpt lat="42.3154379" lon="13.2996289"><ele>792.0</ele><time>2026-05-02T16:15:48.074Z</time></trkpt><trkpt lat="42.3155598" lon="13.2996147"><ele>792.0</ele><time>2026-05-02T16:15:49.077Z</time></trkpt><trkpt lat="42.3156861" lon="13.2996071"><ele>791.0</ele><time>2026-05-02T16:15:50.07Z</time></trkpt><trkpt lat="42.3158054" lon="13.2996356"><ele>790.0</ele><time>2026-05-02T16:15:51.079Z</time></trkpt><trkpt lat="42.315906" lon="13.2997468"><ele>789.0</ele><time>2026-05-02T16:15:52.082Z</time></trkpt><trkpt lat="42.3160277" lon="13.2998362"><ele>788.0</ele><time>2026-05-02T16:15:53.074Z</time></trkpt><trkpt lat="42.3161666" lon="13.2999197"><ele>788.0</ele><time>2026-05-02T16:15:54.07Z</time></trkpt><trkpt lat="42.3163396" lon="13.3000338"><ele>788.0</ele><time>2026-05-02T16:15:55.074Z</time></trkpt><trkpt lat="42.3164581" lon="13.3002535"><ele>788.0</ele><time>2026-05-02T16:15:56.066Z</time></trkpt><trkpt lat="42.316627" lon="13.3002293"><ele>789.0</ele><time>2026-05-02T16:15:57.072Z</time></trkpt><trkpt lat="42.3167899" lon="13.3001519"><ele>790.0</ele><time>2026-05-02T16:15:58.063Z</time></trkpt><trkpt lat="42.3169927" lon="13.3000951"><ele>791.0</ele><time>2026-05-02T16:15:59.065Z</time></trkpt><trkpt lat="42.3171821" lon="13.3000309"><ele>791.6666666666667</ele><time>2026-05-02T16:16:00.07Z</time></trkpt><trkpt lat="42.3173645" lon="13.3000504"><ele>792.3333333333333</ele><time>2026-05-02T16:16:01.071Z</time></trkpt><trkpt lat="42.3175435" lon="13.3000263"><ele>793.0</ele><time>2026-05-02T16:16:02.066Z</time></trkpt><trkpt lat="42.317656" lon="13.3000456"><ele>793.0</ele><time>2026-05-02T16:16:03.071Z</time></trkpt><trkpt lat="42.3177543" lon="13.3000624"><ele>793.0</ele><time>2026-05-02T16:16:04.068Z</time></trkpt><trkpt lat="42.3178627" lon="13.300136"><ele>793.0</ele><time>2026-05-02T16:16:05.073Z</time></trkpt><trkpt lat="42.3179431" lon="13.3002203"><ele>793.0</ele><time>2026-05-02T16:16:06.072Z</time></trkpt><trkpt lat="42.3179842" lon="13.3003734"><ele>793.0</ele><time>2026-05-02T16:16:07.075Z</time></trkpt><trkpt lat="42.3180151" lon="13.3005409"><ele>797.0</ele><time>2026-05-02T16:16:08.071Z</time></trkpt><trkpt lat="42.3181198" lon="13.3006616"><ele>801.0</ele><time>2026-05-02T16:16:09.076Z</time></trkpt><trkpt lat="42.3182068" lon="13.3008564"><ele>805.0</ele><time>2026-05-02T16:16:10.083Z</time></trkpt><trkpt lat="42.3183186" lon="13.3010335"><ele>805.0</ele><time>2026-05-02T16:16:11.072Z</time></trkpt><trkpt lat="42.3184097" lon="13.3011496"><ele>805.0</ele><time>2026-05-02T16:16:12.076Z</time></trkpt><trkpt lat="42.3185049" lon="13.3013146"><ele>805.0</ele><time>2026-05-02T16:16:13.07Z</time></trkpt><trkpt lat="42.3185802" lon="13.3014597"><ele>805.0</ele><time>2026-05-02T16:16:14.076Z</time></trkpt><trkpt lat="42.3186698" lon="13.3015123"><ele>806.4</ele><time>2026-05-02T16:16:15.076Z</time></trkpt><trkpt lat="42.3187508" lon="13.3015653"><ele>807.8</ele><time>2026-05-02T16:16:16.083Z</time></trkpt><trkpt lat="42.3188505" lon="13.3015903"><ele>809.2</ele><time>2026-05-02T16:16:18.081Z</time></trkpt><trkpt lat="42.3188951" lon="13.3016649"><ele>810.6</ele><time>2026-05-02T16:16:21.067Z</time></trkpt><trkpt lat="42.3188082" lon="13.3018293"><ele>812.0</ele><time>2026-05-02T16:16:23.066Z</time></trkpt><trkpt lat="42.3187436" lon="13.3019078"><ele>812.0</ele><time>2026-05-02T16:16:24.067Z</time></trkpt><trkpt lat="42.3186739" lon="13.3020136"><ele>812.0</ele><time>2026-05-02T16:16:25.078Z</time></trkpt><trkpt lat="42.3185981" lon="13.3021519"><ele>812.0</ele><time>2026-05-02T16:16:26.076Z</time></trkpt><trkpt lat="42.3185418" lon="13.3022801"><ele>812.0</ele><time>2026-05-02T16:16:27.068Z</time></trkpt><trkpt lat="42.3184904" lon="13.3024286"><ele>811.0</ele><time>2026-05-02T16:16:28.089Z</time></trkpt><trkpt lat="42.3184356" lon="13.3025607"><ele>810.0</ele><time>2026-05-02T16:16:29.077Z</time></trkpt><trkpt lat="42.3183845" lon="13.3026819"><ele>809.0</ele><time>2026-05-02T16:16:30.077Z</time></trkpt><trkpt lat="42.3183283" lon="13.3028146"><ele>808.0</ele><time>2026-05-02T16:16:31.086Z</time></trkpt><trkpt lat="42.3182724" lon="13.3029501"><ele>807.0</ele><time>2026-05-02T16:16:32.084Z</time></trkpt><trkpt lat="42.3182188" lon="13.3030842"><ele>806.5</ele><time>2026-05-02T16:16:33.078Z</time></trkpt><trkpt lat="42.3181735" lon="13.3032294"><ele>806.0</ele><time>2026-05-02T16:16:34.085Z</time></trkpt><trkpt lat="42.3181326" lon="13.3033855"><ele>805.5</ele><time>2026-05-02T16:16:35.083Z</time></trkpt><trkpt lat="42.3180967" lon="13.3035297"><ele>805.0</ele><time>2026-05-02T16:16:36.083Z</time></trkpt><trkpt lat="42.3180558" lon="13.3036633"><ele>807.8</ele><time>2026-05-02T16:16:37.088Z</time></trkpt><trkpt lat="42.3180103" lon="13.3037921"><ele>810.6</ele><time>2026-05-02T16:16:38.083Z</time></trkpt><trkpt lat="42.3179612" lon="13.3039166"><ele>813.4000000000001</ele><time>2026-05-02T16:16:39.087Z</time></trkpt><trkpt lat="42.3179122" lon="13.304047"><ele>816.2</ele><time>2026-05-02T16:16:40.086Z</time></trkpt><trkpt lat="42.3178626" lon="13.3041755"><ele>819.0</ele><time>2026-05-02T16:16:41.084Z</time></trkpt><trkpt lat="42.3178171" lon="13.3043061"><ele>819.0</ele><time>2026-05-02T16:16:42.084Z</time></trkpt><trkpt lat="42.3177721" lon="13.3044411"><ele>819.0</ele><time>2026-05-02T16:16:43.087Z</time></trkpt><trkpt lat="42.3177194" lon="13.3045775"><ele>819.0</ele><time>2026-05-02T16:16:44.08Z</time></trkpt><trkpt lat="42.3176657" lon="13.3047119"><ele>819.0</ele><time>2026-05-02T16:16:45.088Z</time></trkpt><trkpt lat="42.3176086" lon="13.3048319"><ele>819.0</ele><time>2026-05-02T16:16:46.101Z</time></trkpt><trkpt lat="42.3175469" lon="13.3049509"><ele>818.2</ele><time>2026-05-02T16:16:47.089Z</time></trkpt><trkpt lat="42.3174838" lon="13.305063"><ele>817.4000000000001</ele><time>2026-05-02T16:16:48.091Z</time></trkpt><trkpt lat="42.317427" lon="13.3051748"><ele>816.6</ele><time>2026-05-02T16:16:49.09Z</time></trkpt><trkpt lat="42.3173686" lon="13.3052841"><ele>815.8</ele><time>2026-05-02T16:16:50.087Z</time></trkpt><trkpt lat="42.3173064" lon="13.3053904"><ele>815.0</ele><time>2026-05-02T16:16:51.091Z</time></trkpt><trkpt lat="42.3172546" lon="13.3054864"><ele>816.0000000000001</ele><time>2026-05-02T16:16:52.089Z</time></trkpt><trkpt lat="42.317207" lon="13.3055742"><ele>817.0</ele><time>2026-05-02T16:16:53.088Z</time></trkpt><trkpt lat="42.3171623" lon="13.3056621"><ele>818.0</ele><time>2026-05-02T16:16:54.079Z</time></trkpt><trkpt lat="42.3171309" lon="13.3057558"><ele>819.0</ele><time>2026-05-02T16:16:55.085Z</time></trkpt><trkpt lat="42.3171055" lon="13.3058682"><ele>820.0000000000001</ele><time>2026-05-02T16:16:56.093Z</time></trkpt><trkpt lat="42.3170846" lon="13.3059983"><ele>821.0</ele><time>2026-05-02T16:16:57.088Z</time></trkpt><trkpt lat="42.3170763" lon="13.3061333"><ele>821.0000000000001</ele><time>2026-05-02T16:16:58.091Z</time></trkpt><trkpt lat="42.3170634" lon="13.306264"><ele>821.0</ele><time>2026-05-02T16:16:59.086Z</time></trkpt><trkpt lat="42.3170445" lon="13.3063825"><ele>821.0</ele><time>2026-05-02T16:17:00.087Z</time></trkpt><trkpt lat="42.3170375" lon="13.3064942"><ele>821.0</ele><time>2026-05-02T16:17:01.095Z</time></trkpt><trkpt lat="42.3170325" lon="13.3065955"><ele>821.0000000000001</ele><time>2026-05-02T16:17:02.095Z</time></trkpt><trkpt lat="42.3170232" lon="13.3066998"><ele>821.0</ele><time>2026-05-02T16:17:03.095Z</time></trkpt><trkpt lat="42.3170161" lon="13.3068058"><ele>820.8</ele><time>2026-05-02T16:17:04.088Z</time></trkpt><trkpt lat="42.3170082" lon="13.3069283"><ele>820.5999999999999</ele><time>2026-05-02T16:17:05.088Z</time></trkpt><trkpt lat="42.3169919" lon="13.3070584"><ele>820.4</ele><time>2026-05-02T16:17:06.087Z</time></trkpt><trkpt lat="42.316967" lon="13.3071993"><ele>820.2</ele><time>2026-05-02T16:17:07.088Z</time></trkpt><trkpt lat="42.3169408" lon="13.3073281"><ele>820.0</ele><time>2026-05-02T16:17:08.092Z</time></trkpt><trkpt lat="42.3169233" lon="13.307464"><ele>820.2</ele><time>2026-05-02T16:17:09.089Z</time></trkpt><trkpt lat="42.3169052" lon="13.3075946"><ele>820.4</ele><time>2026-05-02T16:17:10.084Z</time></trkpt><trkpt lat="42.3168897" lon="13.3077254"><ele>820.5999999999999</ele><time>2026-05-02T16:17:11.082Z</time></trkpt><trkpt lat="42.3168725" lon="13.3078519"><ele>820.8</ele><time>2026-05-02T16:17:12.079Z</time></trkpt><trkpt lat="42.3168496" lon="13.3079724"><ele>821.0</ele><time>2026-05-02T16:17:13.091Z</time></trkpt><trkpt lat="42.3168084" lon="13.3080831"><ele>821.0</ele><time>2026-05-02T16:17:14.084Z</time></trkpt><trkpt lat="42.3167521" lon="13.3081941"><ele>821.0</ele><time>2026-05-02T16:17:15.081Z</time></trkpt><trkpt lat="42.3166825" lon="13.3083115"><ele>821.0</ele><time>2026-05-02T16:17:16.073Z</time></trkpt><trkpt lat="42.3166122" lon="13.3084189"><ele>821.0</ele><time>2026-05-02T16:17:17.094Z</time></trkpt><trkpt lat="42.3165417" lon="13.3085153"><ele>821.0</ele><time>2026-05-02T16:17:18.082Z</time></trkpt><trkpt lat="42.3164768" lon="13.3085986"><ele>821.0</ele><time>2026-05-02T16:17:19.078Z</time></trkpt><trkpt lat="42.3164289" lon="13.3086798"><ele>821.0</ele><time>2026-05-02T16:17:20.087Z</time></trkpt><trkpt lat="42.3163861" lon="13.3087807"><ele>821.0</ele><time>2026-05-02T16:17:21.091Z</time></trkpt><trkpt lat="42.3163562" lon="13.3088987"><ele>821.0</ele><time>2026-05-02T16:17:22.092Z</time></trkpt><trkpt lat="42.3163181" lon="13.309018"><ele>821.0</ele><time>2026-05-02T16:17:23.083Z</time></trkpt><trkpt lat="42.316264" lon="13.3091414"><ele>821.5</ele><time>2026-05-02T16:17:24.087Z</time></trkpt><trkpt lat="42.3161945" lon="13.3092622"><ele>822.0</ele><time>2026-05-02T16:17:25.087Z</time></trkpt><trkpt lat="42.3161161" lon="13.3093889"><ele>822.5</ele><time>2026-05-02T16:17:26.089Z</time></trkpt><trkpt lat="42.3160395" lon="13.3095177"><ele>823.0</ele><time>2026-05-02T16:17:27.089Z</time></trkpt><trkpt lat="42.3159672" lon="13.3096385"><ele>824.0</ele><time>2026-05-02T16:17:28.07Z</time></trkpt><trkpt lat="42.3158962" lon="13.3097559"><ele>825.0</ele><time>2026-05-02T16:17:29.078Z</time></trkpt><trkpt lat="42.3158204" lon="13.3098652"><ele>826.0</ele><time>2026-05-02T16:17:30.082Z</time></trkpt><trkpt lat="42.3157499" lon="13.309983"><ele>827.0</ele><time>2026-05-02T16:17:31.071Z</time></trkpt><trkpt lat="42.3156883" lon="13.3101086"><ele>828.0</ele><time>2026-05-02T16:17:32.073Z</time></trkpt><trkpt lat="42.315627" lon="13.3102125"><ele>828.0</ele><time>2026-05-02T16:17:33.074Z</time></trkpt><trkpt lat="42.3155728" lon="13.3103096"><ele>828.0</ele><time>2026-05-02T16:17:34.08Z</time></trkpt><trkpt lat="42.3155171" lon="13.3104117"><ele>828.0</ele><time>2026-05-02T16:17:35.072Z</time></trkpt><trkpt lat="42.3154553" lon="13.3105017"><ele>828.0</ele><time>2026-05-02T16:17:36.077Z</time></trkpt><trkpt lat="42.3153899" lon="13.3105825"><ele>828.0</ele><time>2026-05-02T16:17:37.072Z</time></trkpt><trkpt lat="42.3153355" lon="13.3106523"><ele>828.0</ele><time>2026-05-02T16:17:38.079Z</time></trkpt><trkpt lat="42.3152843" lon="13.3107299"><ele>829.1666666666666</ele><time>2026-05-02T16:17:39.075Z</time></trkpt><trkpt lat="42.3152385" lon="13.3108112"><ele>830.3333333333333</ele><time>2026-05-02T16:17:40.09Z</time></trkpt><trkpt lat="42.3151958" lon="13.310908"><ele>831.5</ele><time>2026-05-02T16:17:41.088Z</time></trkpt><trkpt lat="42.3151461" lon="13.311"><ele>832.6666666666666</ele><time>2026-05-02T16:17:42.078Z</time></trkpt><trkpt lat="42.3150899" lon="13.3110744"><ele>833.8333333333333</ele><time>2026-05-02T16:17:43.075Z</time></trkpt><trkpt lat="42.315027" lon="13.3111417"><ele>835.0</ele><time>2026-05-02T16:17:44.07Z</time></trkpt><trkpt lat="42.3149551" lon="13.3111947"><ele>834.9999999999999</ele><time>2026-05-02T16:17:45.078Z</time></trkpt><trkpt lat="42.3148906" lon="13.3112373"><ele>835.0</ele><time>2026-05-02T16:17:46.079Z</time></trkpt><trkpt lat="42.3148348" lon="13.3112832"><ele>835.0</ele><time>2026-05-02T16:17:47.08Z</time></trkpt><trkpt lat="42.3147637" lon="13.3113529"><ele>835.0</ele><time>2026-05-02T16:17:49.084Z</time></trkpt><trkpt lat="42.3147483" lon="13.3114841"><ele>834.9999999999999</ele><time>2026-05-02T16:17:52.087Z</time></trkpt><trkpt lat="42.3147879" lon="13.3115763"><ele>835.0</ele><time>2026-05-02T16:17:54.079Z</time></trkpt><trkpt lat="42.3148721" lon="13.3116747"><ele>833.8333333333333</ele><time>2026-05-02T16:17:56.079Z</time></trkpt><trkpt lat="42.3149405" lon="13.3117355"><ele>832.6666666666666</ele><time>2026-05-02T16:17:57.071Z</time></trkpt><trkpt lat="42.3150042" lon="13.3117984"><ele>831.5</ele><time>2026-05-02T16:17:58.08Z</time></trkpt><trkpt lat="42.3150561" lon="13.3118911"><ele>830.3333333333333</ele><time>2026-05-02T16:17:59.076Z</time></trkpt><trkpt lat="42.3151167" lon="13.3119793"><ele>829.1666666666666</ele><time>2026-05-02T16:18:00.09Z</time></trkpt><trkpt lat="42.3151701" lon="13.3120851"><ele>828.0</ele><time>2026-05-02T16:18:01.088Z</time></trkpt><trkpt lat="42.3152313" lon="13.3121985"><ele>828.4</ele><time>2026-05-02T16:18:02.076Z</time></trkpt><trkpt lat="42.3152924" lon="13.3123118"><ele>828.8</ele><time>2026-05-02T16:18:03.083Z</time></trkpt><trkpt lat="42.3153592" lon="13.3124246"><ele>829.2</ele><time>2026-05-02T16:18:04.083Z</time></trkpt><trkpt lat="42.3154245" lon="13.3125302"><ele>829.6</ele><time>2026-05-02T16:18:05.082Z</time></trkpt><trkpt lat="42.3154821" lon="13.3126105"><ele>830.0</ele><time>2026-05-02T16:18:06.085Z</time></trkpt><trkpt lat="42.3155402" lon="13.3126753"><ele>830.4</ele><time>2026-05-02T16:18:07.079Z</time></trkpt><trkpt lat="42.3156428" lon="13.3127481"><ele>830.8</ele><time>2026-05-02T16:18:09.079Z</time></trkpt><trkpt lat="42.3157644" lon="13.3127024"><ele>831.2</ele><time>2026-05-02T16:18:11.078Z</time></trkpt><trkpt lat="42.3158327" lon="13.312687"><ele>831.6</ele><time>2026-05-02T16:18:12.076Z</time></trkpt><trkpt lat="42.3159098" lon="13.3127004"><ele>832.0</ele><time>2026-05-02T16:18:13.077Z</time></trkpt><trkpt lat="42.3159885" lon="13.3127325"><ele>832.0</ele><time>2026-05-02T16:18:14.081Z</time></trkpt><trkpt lat="42.3160658" lon="13.3127735"><ele>832.0</ele><time>2026-05-02T16:18:15.083Z</time></trkpt><trkpt lat="42.3161515" lon="13.3128153"><ele>832.0</ele><time>2026-05-02T16:18:16.084Z</time></trkpt><trkpt lat="42.3162493" lon="13.3128493"><ele>832.0</ele><time>2026-05-02T16:18:17.086Z</time></trkpt><trkpt lat="42.3163552" lon="13.3129025"><ele>832.0</ele><time>2026-05-02T16:18:18.085Z</time></trkpt><trkpt lat="42.316451" lon="13.3129625"><ele>834.0</ele><time>2026-05-02T16:18:19.085Z</time></trkpt><trkpt lat="42.316532" lon="13.3130186"><ele>836.0</ele><time>2026-05-02T16:18:20.083Z</time></trkpt><trkpt lat="42.3166112" lon="13.3130676"><ele>838.0</ele><time>2026-05-02T16:18:21.074Z</time></trkpt><trkpt lat="42.316697" lon="13.3131132"><ele>840.0</ele><time>2026-05-02T16:18:22.074Z</time></trkpt><trkpt lat="42.3168054" lon="13.3131752"><ele>842.0</ele><time>2026-05-02T16:18:23.081Z</time></trkpt><trkpt lat="42.3169019" lon="13.3132295"><ele>843.0000000000001</ele><time>2026-05-02T16:18:24.084Z</time></trkpt><trkpt lat="42.3169841" lon="13.3132664"><ele>844.0</ele><time>2026-05-02T16:18:25.085Z</time></trkpt><trkpt lat="42.3170634" lon="13.3132722"><ele>845.0</ele><time>2026-05-02T16:18:26.076Z</time></trkpt><trkpt lat="42.3171389" lon="13.3132568"><ele>846.0</ele><time>2026-05-02T16:18:27.081Z</time></trkpt><trkpt lat="42.3172018" lon="13.3132298"><ele>847.0000000000001</ele><time>2026-05-02T16:18:28.072Z</time></trkpt><trkpt lat="42.3173198" lon="13.3132453"><ele>848.0</ele><time>2026-05-02T16:18:30.082Z</time></trkpt><trkpt lat="42.317372" lon="13.3132997"><ele>848.8333333333334</ele><time>2026-05-02T16:18:31.079Z</time></trkpt><trkpt lat="42.317437" lon="13.3133552"><ele>849.6666666666667</ele><time>2026-05-02T16:18:32.083Z</time></trkpt><trkpt lat="42.3174924" lon="13.3134415"><ele>850.5</ele><time>2026-05-02T16:18:33.088Z</time></trkpt><trkpt lat="42.3175516" lon="13.3135154"><ele>851.3333333333333</ele><time>2026-05-02T16:18:34.089Z</time></trkpt><trkpt lat="42.317615" lon="13.3135927"><ele>852.1666666666666</ele><time>2026-05-02T16:18:35.082Z</time></trkpt><trkpt lat="42.3176912" lon="13.31366"><ele>853.0</ele><time>2026-05-02T16:18:36.081Z</time></trkpt><trkpt lat="42.317756" lon="13.3137387"><ele>852.9999999999999</ele><time>2026-05-02T16:18:37.087Z</time></trkpt><trkpt lat="42.3178154" lon="13.3138067"><ele>853.0</ele><time>2026-05-02T16:18:38.081Z</time></trkpt><trkpt lat="42.3178721" lon="13.3138631"><ele>853.0</ele><time>2026-05-02T16:18:39.087Z</time></trkpt><trkpt lat="42.3179283" lon="13.3139239"><ele>853.0</ele><time>2026-05-02T16:18:40.084Z</time></trkpt><trkpt lat="42.3179894" lon="13.3139852"><ele>852.9999999999999</ele><time>2026-05-02T16:18:41.076Z</time></trkpt><trkpt lat="42.3180522" lon="13.3140455"><ele>853.0</ele><time>2026-05-02T16:18:42.077Z</time></trkpt><trkpt lat="42.3181523" lon="13.3141313"><ele>853.4999999999999</ele><time>2026-05-02T16:18:44.074Z</time></trkpt><trkpt lat="42.3182163" lon="13.3141884"><ele>854.0</ele><time>2026-05-02T16:18:46.072Z</time></trkpt><trkpt lat="42.3183227" lon="13.3142174"><ele>854.5</ele><time>2026-05-02T16:18:54.087Z</time></trkpt><trkpt lat="42.318386" lon="13.3141814"><ele>855.0</ele><time>2026-05-02T16:18:55.083Z</time></trkpt><trkpt lat="42.3184475" lon="13.3141157"><ele>855.4999999999999</ele><time>2026-05-02T16:18:56.081Z</time></trkpt><trkpt lat="42.3184995" lon="13.3140346"><ele>856.0</ele><time>2026-05-02T16:18:57.081Z</time></trkpt><trkpt lat="42.3185521" lon="13.3139537"><ele>855.9999999999999</ele><time>2026-05-02T16:18:58.095Z</time></trkpt><trkpt lat="42.3186032" lon="13.3138967"><ele>856.0</ele><time>2026-05-02T16:18:59.073Z</time></trkpt><trkpt lat="42.3186642" lon="13.313861"><ele>856.0</ele><time>2026-05-02T16:19:00.075Z</time></trkpt><trkpt lat="42.3187302" lon="13.3138466"><ele>856.0</ele><time>2026-05-02T16:19:01.08Z</time></trkpt><trkpt lat="42.3188055" lon="13.3138665"><ele>855.9999999999999</ele><time>2026-05-02T16:19:02.075Z</time></trkpt><trkpt lat="42.3188981" lon="13.3139216"><ele>856.0</ele><time>2026-05-02T16:19:03.079Z</time></trkpt><trkpt lat="42.3189843" lon="13.3139928"><ele>854.1999999999999</ele><time>2026-05-02T16:19:04.077Z</time></trkpt><trkpt lat="42.3190681" lon="13.314074"><ele>852.3999999999999</ele><time>2026-05-02T16:19:05.078Z</time></trkpt><trkpt lat="42.3191586" lon="13.3141579"><ele>850.6</ele><time>2026-05-02T16:19:06.078Z</time></trkpt><trkpt lat="42.3192456" lon="13.3142326"><ele>848.8</ele><time>2026-05-02T16:19:07.083Z</time></trkpt><trkpt lat="42.3193359" lon="13.314314"><ele>847.0</ele><time>2026-05-02T16:19:08.084Z</time></trkpt><trkpt lat="42.319426" lon="13.314381"><ele>847.0</ele><time>2026-05-02T16:19:09.077Z</time></trkpt><trkpt lat="42.3195181" lon="13.314451"><ele>847.0</ele><time>2026-05-02T16:19:10.084Z</time></trkpt><trkpt lat="42.3196209" lon="13.3145173"><ele>847.0</ele><time>2026-05-02T16:19:11.078Z</time></trkpt><trkpt lat="42.3197269" lon="13.3145888"><ele>847.0</ele><time>2026-05-02T16:19:12.079Z</time></trkpt><trkpt lat="42.3198279" lon="13.3146671"><ele>845.2</ele><time>2026-05-02T16:19:13.086Z</time></trkpt><trkpt lat="42.3199322" lon="13.3147487"><ele>843.4000000000001</ele><time>2026-05-02T16:19:14.086Z</time></trkpt><trkpt lat="42.3200391" lon="13.3148141"><ele>841.5999999999999</ele><time>2026-05-02T16:19:15.082Z</time></trkpt><trkpt lat="42.3201303" lon="13.3148804"><ele>839.8</ele><time>2026-05-02T16:19:16.08Z</time></trkpt><trkpt lat="42.3202125" lon="13.3149402"><ele>838.0</ele><time>2026-05-02T16:19:17.079Z</time></trkpt><trkpt lat="42.3202913" lon="13.3150072"><ele>837.9999999999999</ele><time>2026-05-02T16:19:18.076Z</time></trkpt><trkpt lat="42.3203649" lon="13.3150695"><ele>838.0</ele><time>2026-05-02T16:19:19.082Z</time></trkpt><trkpt lat="42.320427" lon="13.3151199"><ele>838.0</ele><time>2026-05-02T16:19:20.077Z</time></trkpt><trkpt lat="42.3204494" lon="13.3152936"><ele>838.0</ele><time>2026-05-02T16:19:22.079Z</time></trkpt><trkpt lat="42.3204229" lon="13.3153859"><ele>837.9999999999999</ele><time>2026-05-02T16:19:23.079Z</time></trkpt><trkpt lat="42.3203896" lon="13.3154702"><ele>838.0</ele><time>2026-05-02T16:19:24.068Z</time></trkpt><trkpt lat="42.3203521" lon="13.3155445"><ele>837.8</ele><time>2026-05-02T16:19:25.074Z</time></trkpt><trkpt lat="42.3202708" lon="13.3156446"><ele>837.5999999999999</ele><time>2026-05-02T16:19:27.071Z</time></trkpt><trkpt lat="42.3202014" lon="13.3158058"><ele>837.4000000000001</ele><time>2026-05-02T16:19:29.072Z</time></trkpt><trkpt lat="42.3201658" lon="13.3159369"><ele>837.2</ele><time>2026-05-02T16:19:31.081Z</time></trkpt><trkpt lat="42.3202214" lon="13.315872"><ele>837.0</ele><time>2026-05-02T16:19:47.082Z</time></trkpt><trkpt lat="42.3202521" lon="13.3157497"><ele>837.0</ele><time>2026-05-02T16:19:49.081Z</time></trkpt><trkpt lat="42.3202985" lon="13.3156364"><ele>837.0</ele><time>2026-05-02T16:19:51.083Z</time></trkpt><trkpt lat="42.3203526" lon="13.3155488"><ele>837.0</ele><time>2026-05-02T16:19:53.084Z</time></trkpt><trkpt lat="42.3204799" lon="13.3156369"><ele>837.0</ele><time>2026-05-02T16:20:44.087Z</time></trkpt><trkpt lat="42.320591" lon="13.3157154"><ele>837.0</ele><time>2026-05-02T16:20:46.078Z</time></trkpt><trkpt lat="42.320692" lon="13.31578"><ele>835.4000000000001</ele><time>2026-05-02T16:20:48.081Z</time></trkpt><trkpt lat="42.3207446" lon="13.315845"><ele>833.8000000000001</ele><time>2026-05-02T16:20:50.085Z</time></trkpt><trkpt lat="42.320771" lon="13.3159709"><ele>832.2</ele><time>2026-05-02T16:20:52.077Z</time></trkpt><trkpt lat="42.3208762" lon="13.3160776"><ele>830.6</ele><time>2026-05-02T16:20:54.084Z</time></trkpt><trkpt lat="42.3209787" lon="13.316138"><ele>829.0</ele><time>2026-05-02T16:20:56.093Z</time></trkpt><trkpt lat="42.321106" lon="13.3161373"><ele>828.9999999999999</ele><time>2026-05-02T16:20:58.089Z</time></trkpt><trkpt lat="42.3211898" lon="13.3161262"><ele>829.0</ele><time>2026-05-02T16:20:59.091Z</time></trkpt><trkpt lat="42.3212689" lon="13.316132"><ele>829.0</ele><time>2026-05-02T16:21:00.081Z</time></trkpt><trkpt lat="42.3213373" lon="13.3161395"><ele>829.0</ele><time>2026-05-02T16:21:01.084Z</time></trkpt><trkpt lat="42.3214413" lon="13.3161782"><ele>828.9999999999999</ele><time>2026-05-02T16:21:03.086Z</time></trkpt><trkpt lat="42.3215356" lon="13.3162307"><ele>829.0</ele><time>2026-05-02T16:21:05.091Z</time></trkpt><trkpt lat="42.3216555" lon="13.3162658"><ele>828.0</ele><time>2026-05-02T16:21:07.09Z</time></trkpt><trkpt lat="42.3217677" lon="13.3162916"><ele>827.0</ele><time>2026-05-02T16:21:09.09Z</time></trkpt><trkpt lat="42.321896" lon="13.3162949"><ele>826.0</ele><time>2026-05-02T16:21:11.081Z</time></trkpt><trkpt lat="42.3219809" lon="13.316305"><ele>825.0</ele><time>2026-05-02T16:21:12.082Z</time></trkpt><trkpt lat="42.3220743" lon="13.3163286"><ele>824.0</ele><time>2026-05-02T16:21:13.091Z</time></trkpt><trkpt lat="42.3221639" lon="13.3163489"><ele>823.1666666666667</ele><time>2026-05-02T16:21:14.094Z</time></trkpt><trkpt lat="42.3222526" lon="13.3163813"><ele>822.3333333333334</ele><time>2026-05-02T16:21:15.087Z</time></trkpt><trkpt lat="42.3223361" lon="13.3164288"><ele>821.5</ele><time>2026-05-02T16:21:16.089Z</time></trkpt><trkpt lat="42.322412" lon="13.3164792"><ele>820.6666666666667</ele><time>2026-05-02T16:21:17.083Z</time></trkpt><trkpt lat="42.322486" lon="13.3165175"><ele>819.8333333333334</ele><time>2026-05-02T16:21:18.096Z</time></trkpt><trkpt lat="42.3225532" lon="13.3165585"><ele>819.0</ele><time>2026-05-02T16:21:19.088Z</time></trkpt><trkpt lat="42.3226158" lon="13.3166005"><ele>819.0</ele><time>2026-05-02T16:21:20.09Z</time></trkpt><trkpt lat="42.3226765" lon="13.3166443"><ele>819.0</ele><time>2026-05-02T16:21:21.09Z</time></trkpt><trkpt lat="42.322735" lon="13.3166823"><ele>819.0</ele><time>2026-05-02T16:21:22.086Z</time></trkpt><trkpt lat="42.3228053" lon="13.3167113"><ele>819.0</ele><time>2026-05-02T16:21:24.091Z</time></trkpt><trkpt lat="42.3228211" lon="13.3165993"><ele>819.0</ele><time>2026-05-02T16:21:47.09Z</time></trkpt><trkpt lat="42.3228418" lon="13.3165072"><ele>819.0</ele><time>2026-05-02T16:21:49.068Z</time></trkpt><trkpt lat="42.322869" lon="13.3163759"><ele>818.0</ele><time>2026-05-02T16:21:51.072Z</time></trkpt><trkpt lat="42.3229355" lon="13.3162262"><ele>817.0</ele><time>2026-05-02T16:21:53.07Z</time></trkpt><trkpt lat="42.3229803" lon="13.3161272"><ele>816.0</ele><time>2026-05-02T16:21:55.073Z</time></trkpt><trkpt lat="42.3230628" lon="13.3160889"><ele>815.0</ele><time>2026-05-02T16:21:57.077Z</time></trkpt><trkpt lat="42.323184" lon="13.3161108"><ele>814.0</ele><time>2026-05-02T16:21:59.077Z</time></trkpt><trkpt lat="42.3232641" lon="13.3161319"><ele>812.4000000000001</ele><time>2026-05-02T16:22:00.093Z</time></trkpt><trkpt lat="42.3233571" lon="13.3161668"><ele>810.8</ele><time>2026-05-02T16:22:01.083Z</time></trkpt><trkpt lat="42.3234548" lon="13.3162007"><ele>809.2</ele><time>2026-05-02T16:22:02.086Z</time></trkpt><trkpt lat="42.3235516" lon="13.3162173"><ele>807.5999999999999</ele><time>2026-05-02T16:22:03.083Z</time></trkpt><trkpt lat="42.3236373" lon="13.3162398"><ele>806.0</ele><time>2026-05-02T16:22:04.086Z</time></trkpt><trkpt lat="42.3237174" lon="13.3162636"><ele>806.0000000000001</ele><time>2026-05-02T16:22:05.087Z</time></trkpt><trkpt lat="42.3237932" lon="13.316292"><ele>806.0</ele><time>2026-05-02T16:22:06.086Z</time></trkpt><trkpt lat="42.3238719" lon="13.3163249"><ele>806.0</ele><time>2026-05-02T16:22:07.089Z</time></trkpt><trkpt lat="42.3239616" lon="13.3163557"><ele>806.0</ele><time>2026-05-02T16:22:08.084Z</time></trkpt><trkpt lat="42.3240525" lon="13.3163992"><ele>806.0000000000001</ele><time>2026-05-02T16:22:09.089Z</time></trkpt><trkpt lat="42.3241321" lon="13.3164439"><ele>806.0</ele><time>2026-05-02T16:22:10.097Z</time></trkpt><trkpt lat="42.3242004" lon="13.3164889"><ele>806.6666666666667</ele><time>2026-05-02T16:22:11.088Z</time></trkpt><trkpt lat="42.3242734" lon="13.316516"><ele>807.3333333333334</ele><time>2026-05-02T16:22:12.09Z</time></trkpt><trkpt lat="42.3243432" lon="13.3165457"><ele>808.0</ele><time>2026-05-02T16:22:13.091Z</time></trkpt><trkpt lat="42.3244073" lon="13.3165769"><ele>808.6666666666667</ele><time>2026-05-02T16:22:14.094Z</time></trkpt><trkpt lat="42.3244701" lon="13.3166053"><ele>809.3333333333334</ele><time>2026-05-02T16:22:15.083Z</time></trkpt><trkpt lat="42.3245885" lon="13.3166217"><ele>810.0</ele><time>2026-05-02T16:22:17.086Z</time></trkpt><trkpt lat="42.3247089" lon="13.3166205"><ele>809.5</ele><time>2026-05-02T16:22:19.095Z</time></trkpt><trkpt lat="42.3248305" lon="13.3166451"><ele>809.0</ele><time>2026-05-02T16:22:21.087Z</time></trkpt><trkpt lat="42.3249004" lon="13.3166446"><ele>808.5</ele><time>2026-05-02T16:22:22.093Z</time></trkpt><trkpt lat="42.3249721" lon="13.3166489"><ele>808.0</ele><time>2026-05-02T16:22:23.091Z</time></trkpt><trkpt lat="42.32504" lon="13.3166576"><ele>807.5</ele><time>2026-05-02T16:22:24.086Z</time></trkpt><trkpt lat="42.3251101" lon="13.3166485"><ele>807.0</ele><time>2026-05-02T16:22:25.099Z</time></trkpt><trkpt lat="42.3251828" lon="13.3166405"><ele>807.0</ele><time>2026-05-02T16:22:26.093Z</time></trkpt><trkpt lat="42.3252458" lon="13.3166358"><ele>807.0</ele><time>2026-05-02T16:22:27.086Z</time></trkpt><trkpt lat="42.325361" lon="13.3166126"><ele>807.0</ele><time>2026-05-02T16:22:29.088Z</time></trkpt><trkpt lat="42.3254236" lon="13.3165762"><ele>807.0</ele><time>2026-05-02T16:22:30.081Z</time></trkpt><trkpt lat="42.3254817" lon="13.3165371"><ele>807.0</ele><time>2026-05-02T16:22:31.089Z</time></trkpt><trkpt lat="42.3255743" lon="13.3164428"><ele>807.0</ele><time>2026-05-02T16:22:33.088Z</time></trkpt><trkpt lat="42.3256703" lon="13.3163454"><ele>804.6</ele><time>2026-05-02T16:22:35.081Z</time></trkpt><trkpt lat="42.3257834" lon="13.3162933"><ele>802.2</ele><time>2026-05-02T16:22:37.077Z</time></trkpt><trkpt lat="42.3258959" lon="13.3162247"><ele>799.8</ele><time>2026-05-02T16:22:39.076Z</time></trkpt><trkpt lat="42.3259592" lon="13.3161974"><ele>797.4</ele><time>2026-05-02T16:22:40.091Z</time></trkpt><trkpt lat="42.3260333" lon="13.3161701"><ele>795.0</ele><time>2026-05-02T16:22:41.083Z</time></trkpt><trkpt lat="42.3261091" lon="13.3161513"><ele>795.0</ele><time>2026-05-02T16:22:42.08Z</time></trkpt><trkpt lat="42.3261835" lon="13.3161408"><ele>795.0</ele><time>2026-05-02T16:22:43.083Z</time></trkpt><trkpt lat="42.3262555" lon="13.3161347"><ele>795.0</ele><time>2026-05-02T16:22:44.086Z</time></trkpt><trkpt lat="42.3263692" lon="13.3161267"><ele>795.0</ele><time>2026-05-02T16:22:46.078Z</time></trkpt><trkpt lat="42.32647" lon="13.3160857"><ele>795.0</ele><time>2026-05-02T16:22:48.084Z</time></trkpt><trkpt lat="42.3265572" lon="13.3160149"><ele>795.0</ele><time>2026-05-02T16:22:50.073Z</time></trkpt><trkpt lat="42.326675" lon="13.3159646"><ele>795.0</ele><time>2026-05-02T16:22:52.074Z</time></trkpt><trkpt lat="42.326751" lon="13.3159637"><ele>795.0</ele><time>2026-05-02T16:22:53.08Z</time></trkpt><trkpt lat="42.3268408" lon="13.3159765"><ele>795.0</ele><time>2026-05-02T16:22:54.081Z</time></trkpt><trkpt lat="42.3269315" lon="13.3159972"><ele>795.0</ele><time>2026-05-02T16:22:55.088Z</time></trkpt><trkpt lat="42.3270219" lon="13.316003"><ele>795.0</ele><time>2026-05-02T16:22:56.081Z</time></trkpt><trkpt lat="42.3271105" lon="13.3160088"><ele>795.0</ele><time>2026-05-02T16:22:57.088Z</time></trkpt><trkpt lat="42.3271943" lon="13.3160155"><ele>795.0</ele><time>2026-05-02T16:22:58.091Z</time></trkpt><trkpt lat="42.3272791" lon="13.3160281"><ele>795.0</ele><time>2026-05-02T16:22:59.087Z</time></trkpt><trkpt lat="42.3273743" lon="13.3160393"><ele>795.0</ele><time>2026-05-02T16:23:00.083Z</time></trkpt><trkpt lat="42.3274639" lon="13.3160542"><ele>795.0</ele><time>2026-05-02T16:23:01.08Z</time></trkpt><trkpt lat="42.3275497" lon="13.3160598"><ele>794.3333333333334</ele><time>2026-05-02T16:23:02.084Z</time></trkpt><trkpt lat="42.3276322" lon="13.3160551"><ele>793.6666666666667</ele><time>2026-05-02T16:23:03.086Z</time></trkpt><trkpt lat="42.3277123" lon="13.3160509"><ele>793.0</ele><time>2026-05-02T16:23:04.083Z</time></trkpt><trkpt lat="42.3277893" lon="13.3160525"><ele>792.3333333333334</ele><time>2026-05-02T16:23:05.077Z</time></trkpt><trkpt lat="42.3278682" lon="13.3160687"><ele>791.6666666666667</ele><time>2026-05-02T16:23:06.084Z</time></trkpt><trkpt lat="42.3279535" lon="13.3160884"><ele>791.0</ele><time>2026-05-02T16:23:07.08Z</time></trkpt><trkpt lat="42.3280476" lon="13.3161213"><ele>789.6666666666667</ele><time>2026-05-02T16:23:08.079Z</time></trkpt><trkpt lat="42.3281349" lon="13.3161662"><ele>788.3333333333334</ele><time>2026-05-02T16:23:09.083Z</time></trkpt><trkpt lat="42.3282242" lon="13.3162102"><ele>787.0</ele><time>2026-05-02T16:23:10.088Z</time></trkpt><trkpt lat="42.3283012" lon="13.3162521"><ele>785.6666666666667</ele><time>2026-05-02T16:23:11.083Z</time></trkpt><trkpt lat="42.3283791" lon="13.3162946"><ele>784.3333333333334</ele><time>2026-05-02T16:23:12.086Z</time></trkpt><trkpt lat="42.3284646" lon="13.3163441"><ele>783.0</ele><time>2026-05-02T16:23:13.072Z</time></trkpt><trkpt lat="42.3285329" lon="13.3163866"><ele>784.3333333333334</ele><time>2026-05-02T16:23:14.078Z</time></trkpt><trkpt lat="42.3285989" lon="13.3164281"><ele>785.6666666666667</ele><time>2026-05-02T16:23:15.083Z</time></trkpt><trkpt lat="42.3287123" lon="13.3164939"><ele>787.0</ele><time>2026-05-02T16:23:17.086Z</time></trkpt><trkpt lat="42.328776" lon="13.3165321"><ele>788.3333333333334</ele><time>2026-05-02T16:23:18.081Z</time></trkpt><trkpt lat="42.3288452" lon="13.3165768"><ele>789.6666666666667</ele><time>2026-05-02T16:23:19.077Z</time></trkpt><trkpt lat="42.3289209" lon="13.3165941"><ele>791.0</ele><time>2026-05-02T16:23:20.082Z</time></trkpt><trkpt lat="42.3289995" lon="13.3166104"><ele>791.0000000000001</ele><time>2026-05-02T16:23:21.086Z</time></trkpt><trkpt lat="42.3290803" lon="13.316621"><ele>791.0</ele><time>2026-05-02T16:23:22.079Z</time></trkpt><trkpt lat="42.3291556" lon="13.3166312"><ele>791.0</ele><time>2026-05-02T16:23:23.093Z</time></trkpt><trkpt lat="42.3292352" lon="13.3166439"><ele>791.0</ele><time>2026-05-02T16:23:24.086Z</time></trkpt><trkpt lat="42.3293157" lon="13.3166495"><ele>791.0000000000001</ele><time>2026-05-02T16:23:25.087Z</time></trkpt><trkpt lat="42.3294078" lon="13.3166442"><ele>791.0</ele><time>2026-05-02T16:23:26.09Z</time></trkpt><trkpt lat="42.3294995" lon="13.3166345"><ele>791.0000000000001</ele><time>2026-05-02T16:23:27.083Z</time></trkpt><trkpt lat="42.329593" lon="13.3166304"><ele>791.0</ele><time>2026-05-02T16:23:28.087Z</time></trkpt><trkpt lat="42.3296778" lon="13.3166422"><ele>791.0</ele><time>2026-05-02T16:23:29.09Z</time></trkpt><trkpt lat="42.3297573" lon="13.3166397"><ele>791.0</ele><time>2026-05-02T16:23:30.089Z</time></trkpt><trkpt lat="42.3298381" lon="13.3166362"><ele>791.0000000000001</ele><time>2026-05-02T16:23:31.095Z</time></trkpt><trkpt lat="42.3299165" lon="13.316633"><ele>791.0</ele><time>2026-05-02T16:23:32.09Z</time></trkpt><trkpt lat="42.3299905" lon="13.3166362"><ele>790.3333333333334</ele><time>2026-05-02T16:23:33.099Z</time></trkpt><trkpt lat="42.3300664" lon="13.3166394"><ele>789.6666666666667</ele><time>2026-05-02T16:23:34.087Z</time></trkpt><trkpt lat="42.3301389" lon="13.3166358"><ele>789.0</ele><time>2026-05-02T16:23:35.087Z</time></trkpt><trkpt lat="42.3302146" lon="13.3166337"><ele>788.3333333333333</ele><time>2026-05-02T16:23:36.087Z</time></trkpt><trkpt lat="42.3302917" lon="13.3166272"><ele>787.6666666666666</ele><time>2026-05-02T16:23:37.092Z</time></trkpt><trkpt lat="42.3303714" lon="13.3166155"><ele>787.0</ele><time>2026-05-02T16:23:38.089Z</time></trkpt><trkpt lat="42.3304553" lon="13.3166067"><ele>786.9999999999999</ele><time>2026-05-02T16:23:39.096Z</time></trkpt><trkpt lat="42.330537" lon="13.3166019"><ele>787.0</ele><time>2026-05-02T16:23:40.086Z</time></trkpt><trkpt lat="42.3306181" lon="13.3165936"><ele>787.0</ele><time>2026-05-02T16:23:41.089Z</time></trkpt><trkpt lat="42.3307048" lon="13.31658"><ele>787.0</ele><time>2026-05-02T16:23:42.091Z</time></trkpt><trkpt lat="42.3307841" lon="13.3165658"><ele>786.9999999999999</ele><time>2026-05-02T16:23:43.088Z</time></trkpt><trkpt lat="42.3308601" lon="13.3165587"><ele>787.0</ele><time>2026-05-02T16:23:44.09Z</time></trkpt><trkpt lat="42.3309307" lon="13.3165635"><ele>786.8</ele><time>2026-05-02T16:23:45.095Z</time></trkpt><trkpt lat="42.3310479" lon="13.3165518"><ele>786.6</ele><time>2026-05-02T16:23:47.091Z</time></trkpt><trkpt lat="42.3311497" lon="13.3165305"><ele>786.4</ele><time>2026-05-02T16:23:49.09Z</time></trkpt><trkpt lat="42.3312634" lon="13.3164653"><ele>786.1999999999999</ele><time>2026-05-02T16:23:51.081Z</time></trkpt><trkpt lat="42.3313432" lon="13.3164082"><ele>786.0</ele><time>2026-05-02T16:23:52.075Z</time></trkpt><trkpt lat="42.3314275" lon="13.3163495"><ele>784.6666666666666</ele><time>2026-05-02T16:23:53.081Z</time></trkpt><trkpt lat="42.3315036" lon="13.3163214"><ele>783.3333333333333</ele><time>2026-05-02T16:23:54.077Z</time></trkpt><trkpt lat="42.3315738" lon="13.3163041"><ele>782.0</ele><time>2026-05-02T16:23:55.073Z</time></trkpt><trkpt lat="42.3316436" lon="13.3162708"><ele>780.6666666666666</ele><time>2026-05-02T16:23:56.088Z</time></trkpt><trkpt lat="42.3317154" lon="13.3162335"><ele>779.3333333333333</ele><time>2026-05-02T16:23:57.085Z</time></trkpt><trkpt lat="42.3317893" lon="13.3162002"><ele>778.0</ele><time>2026-05-02T16:23:58.081Z</time></trkpt><trkpt lat="42.3318593" lon="13.3161841"><ele>777.9999999999999</ele><time>2026-05-02T16:23:59.089Z</time></trkpt><trkpt lat="42.3319275" lon="13.3161847"><ele>778.0</ele><time>2026-05-02T16:24:00.076Z</time></trkpt><trkpt lat="42.3319948" lon="13.3162265"><ele>778.0</ele><time>2026-05-02T16:24:01.089Z</time></trkpt><trkpt lat="42.3320895" lon="13.3162686"><ele>778.0</ele><time>2026-05-02T16:24:02.082Z</time></trkpt><trkpt lat="42.3321842" lon="13.3163113"><ele>777.9999999999999</ele><time>2026-05-02T16:24:03.082Z</time></trkpt><trkpt lat="42.3322669" lon="13.3163481"><ele>778.0</ele><time>2026-05-02T16:24:04.092Z</time></trkpt><trkpt lat="42.3323507" lon="13.3163754"><ele>777.4285714285714</ele><time>2026-05-02T16:24:05.08Z</time></trkpt><trkpt lat="42.332438" lon="13.3163926"><ele>776.8571428571428</ele><time>2026-05-02T16:24:06.084Z</time></trkpt><trkpt lat="42.33252" lon="13.3163923"><ele>776.2857142857142</ele><time>2026-05-02T16:24:07.089Z</time></trkpt><trkpt lat="42.3325881" lon="13.3163687"><ele>775.7142857142858</ele><time>2026-05-02T16:24:08.083Z</time></trkpt><trkpt lat="42.3326531" lon="13.3163545"><ele>775.1428571428571</ele><time>2026-05-02T16:24:09.087Z</time></trkpt><trkpt lat="42.332717" lon="13.3163344"><ele>774.5714285714286</ele><time>2026-05-02T16:24:10.081Z</time></trkpt><trkpt lat="42.3327825" lon="13.3163234"><ele>774.0</ele><time>2026-05-02T16:24:11.083Z</time></trkpt><trkpt lat="42.3328531" lon="13.3163212"><ele>774.0</ele><time>2026-05-02T16:24:12.089Z</time></trkpt><trkpt lat="42.3329289" lon="13.3163283"><ele>774.0</ele><time>2026-05-02T16:24:13.092Z</time></trkpt><trkpt lat="42.3330025" lon="13.3163411"><ele>774.0</ele><time>2026-05-02T16:24:14.083Z</time></trkpt><trkpt lat="42.3330725" lon="13.3163599"><ele>774.0</ele><time>2026-05-02T16:24:15.097Z</time></trkpt><trkpt lat="42.3331387" lon="13.3163832"><ele>774.0</ele><time>2026-05-02T16:24:16.086Z</time></trkpt><trkpt lat="42.3332053" lon="13.3164029"><ele>774.0</ele><time>2026-05-02T16:24:17.088Z</time></trkpt><trkpt lat="42.3332702" lon="13.3164114"><ele>774.0</ele><time>2026-05-02T16:24:18.095Z</time></trkpt><trkpt lat="42.3333488" lon="13.3164086"><ele>774.1666666666666</ele><time>2026-05-02T16:24:19.099Z</time></trkpt><trkpt lat="42.3334345" lon="13.3164051"><ele>774.3333333333333</ele><time>2026-05-02T16:24:20.088Z</time></trkpt><trkpt lat="42.3335235" lon="13.3164098"><ele>774.5</ele><time>2026-05-02T16:24:21.082Z</time></trkpt><trkpt lat="42.3336102" lon="13.3164107"><ele>774.6666666666666</ele><time>2026-05-02T16:24:22.087Z</time></trkpt><trkpt lat="42.333694" lon="13.31642"><ele>774.8333333333333</ele><time>2026-05-02T16:24:23.083Z</time></trkpt><trkpt lat="42.3337817" lon="13.3164318"><ele>775.0</ele><time>2026-05-02T16:24:24.093Z</time></trkpt><trkpt lat="42.3338672" lon="13.3164332"><ele>773.9999999999999</ele><time>2026-05-02T16:24:25.082Z</time></trkpt><trkpt lat="42.3339565" lon="13.3164269"><ele>773.0</ele><time>2026-05-02T16:24:26.094Z</time></trkpt><trkpt lat="42.33405" lon="13.3164288"><ele>772.0</ele><time>2026-05-02T16:24:27.079Z</time></trkpt><trkpt lat="42.3341387" lon="13.3164361"><ele>771.0</ele><time>2026-05-02T16:24:28.084Z</time></trkpt><trkpt lat="42.3342187" lon="13.3164385"><ele>769.9999999999999</ele><time>2026-05-02T16:24:29.083Z</time></trkpt><trkpt lat="42.3342952" lon="13.3164354"><ele>769.0</ele><time>2026-05-02T16:24:30.087Z</time></trkpt><trkpt lat="42.3343682" lon="13.316419"><ele>766.9999999999999</ele><time>2026-05-02T16:24:31.085Z</time></trkpt><trkpt lat="42.3344393" lon="13.3163953"><ele>765.0</ele><time>2026-05-02T16:24:32.088Z</time></trkpt><trkpt lat="42.3345111" lon="13.3163606"><ele>763.0</ele><time>2026-05-02T16:24:33.076Z</time></trkpt><trkpt lat="42.3345802" lon="13.3163197"><ele>761.0</ele><time>2026-05-02T16:24:34.08Z</time></trkpt><trkpt lat="42.3346543" lon="13.3162788"><ele>759.0</ele><time>2026-05-02T16:24:35.082Z</time></trkpt><trkpt lat="42.3347294" lon="13.3162443"><ele>757.0</ele><time>2026-05-02T16:24:36.079Z</time></trkpt><trkpt lat="42.3348116" lon="13.3162239"><ele>757.0</ele><time>2026-05-02T16:24:37.079Z</time></trkpt><trkpt lat="42.3348981" lon="13.316203"><ele>757.0</ele><time>2026-05-02T16:24:38.09Z</time></trkpt><trkpt lat="42.3349843" lon="13.3161781"><ele>757.0</ele><time>2026-05-02T16:24:39.081Z</time></trkpt><trkpt lat="42.3350767" lon="13.3161548"><ele>757.0</ele><time>2026-05-02T16:24:40.086Z</time></trkpt><trkpt lat="42.3351681" lon="13.3161302"><ele>757.0</ele><time>2026-05-02T16:24:41.079Z</time></trkpt><trkpt lat="42.3352596" lon="13.3161193"><ele>757.0</ele><time>2026-05-02T16:24:42.076Z</time></trkpt><trkpt lat="42.3353599" lon="13.3161185"><ele>757.0</ele><time>2026-05-02T16:24:43.078Z</time></trkpt><trkpt lat="42.3354658" lon="13.316119"><ele>757.0</ele><time>2026-05-02T16:24:44.084Z</time></trkpt><trkpt lat="42.3355618" lon="13.3161169"><ele>757.0</ele><time>2026-05-02T16:24:45.08Z</time></trkpt><trkpt lat="42.3356511" lon="13.3161115"><ele>757.0</ele><time>2026-05-02T16:24:46.08Z</time></trkpt><trkpt lat="42.3357385" lon="13.3161069"><ele>757.2</ele><time>2026-05-02T16:24:47.089Z</time></trkpt><trkpt lat="42.335823" lon="13.316107"><ele>757.4000000000001</ele><time>2026-05-02T16:24:48.085Z</time></trkpt><trkpt lat="42.3359027" lon="13.3161039"><ele>757.5999999999999</ele><time>2026-05-02T16:24:49.08Z</time></trkpt><trkpt lat="42.3359928" lon="13.3161036"><ele>757.8</ele><time>2026-05-02T16:24:50.081Z</time></trkpt><trkpt lat="42.3360898" lon="13.316094"><ele>758.0</ele><time>2026-05-02T16:24:51.08Z</time></trkpt><trkpt lat="42.3361962" lon="13.3160785"><ele>758.0</ele><time>2026-05-02T16:24:52.091Z</time></trkpt><trkpt lat="42.3363032" lon="13.3160544"><ele>758.0</ele><time>2026-05-02T16:24:53.08Z</time></trkpt><trkpt lat="42.3363928" lon="13.3160321"><ele>758.0</ele><time>2026-05-02T16:24:54.082Z</time></trkpt><trkpt lat="42.3364753" lon="13.3160149"><ele>758.0</ele><time>2026-05-02T16:24:55.085Z</time></trkpt><trkpt lat="42.3365574" lon="13.3160243"><ele>758.0</ele><time>2026-05-02T16:24:56.089Z</time></trkpt><trkpt lat="42.3366427" lon="13.3160399"><ele>757.8333333333333</ele><time>2026-05-02T16:24:57.088Z</time></trkpt><trkpt lat="42.3367302" lon="13.3160556"><ele>757.6666666666666</ele><time>2026-05-02T16:24:58.081Z</time></trkpt><trkpt lat="42.3368153" lon="13.3160672"><ele>757.5</ele><time>2026-05-02T16:24:59.086Z</time></trkpt><trkpt lat="42.3368966" lon="13.3160783"><ele>757.3333333333334</ele><time>2026-05-02T16:25:00.087Z</time></trkpt><trkpt lat="42.3369844" lon="13.3161079"><ele>757.1666666666667</ele><time>2026-05-02T16:25:02.09Z</time></trkpt><trkpt lat="42.3370827" lon="13.3161291"><ele>757.0</ele><time>2026-05-02T16:25:07.078Z</time></trkpt><trkpt lat="42.3371723" lon="13.3161102"><ele>757.5</ele><time>2026-05-02T16:25:09.081Z</time></trkpt><trkpt lat="42.3373018" lon="13.3160921"><ele>758.0</ele><time>2026-05-02T16:25:11.082Z</time></trkpt><trkpt lat="42.3373746" lon="13.3160808"><ele>758.5</ele><time>2026-05-02T16:25:12.087Z</time></trkpt><trkpt lat="42.3374454" lon="13.3160677"><ele>759.0</ele><time>2026-05-02T16:25:13.086Z</time></trkpt><trkpt lat="42.3375293" lon="13.3160509"><ele>759.5</ele><time>2026-05-02T16:25:14.084Z</time></trkpt><trkpt lat="42.3376048" lon="13.3160391"><ele>760.0</ele><time>2026-05-02T16:25:15.087Z</time></trkpt><trkpt lat="42.337672" lon="13.3160207"><ele>760.0</ele><time>2026-05-02T16:25:16.081Z</time></trkpt><trkpt lat="42.3377375" lon="13.3159909"><ele>760.0</ele><time>2026-05-02T16:25:17.085Z</time></trkpt><trkpt lat="42.3378046" lon="13.3159789"><ele>760.0</ele><time>2026-05-02T16:25:18.083Z</time></trkpt><trkpt lat="42.3378838" lon="13.3159671"><ele>760.0</ele><time>2026-05-02T16:25:19.09Z</time></trkpt><trkpt lat="42.3379734" lon="13.3159533"><ele>760.0</ele><time>2026-05-02T16:25:20.084Z</time></trkpt><trkpt lat="42.3380695" lon="13.3159274"><ele>760.0</ele><time>2026-05-02T16:25:21.085Z</time></trkpt><trkpt lat="42.3381636" lon="13.3159106"><ele>760.4</ele><time>2026-05-02T16:25:22.087Z</time></trkpt><trkpt lat="42.3382522" lon="13.3158872"><ele>760.8</ele><time>2026-05-02T16:25:23.081Z</time></trkpt><trkpt lat="42.3383452" lon="13.3158636"><ele>761.2</ele><time>2026-05-02T16:25:24.092Z</time></trkpt><trkpt lat="42.3384383" lon="13.3158439"><ele>761.6</ele><time>2026-05-02T16:25:25.085Z</time></trkpt><trkpt lat="42.3385362" lon="13.3158311"><ele>762.0</ele><time>2026-05-02T16:25:26.086Z</time></trkpt><trkpt lat="42.33863" lon="13.3158256"><ele>762.0</ele><time>2026-05-02T16:25:27.091Z</time></trkpt><trkpt lat="42.338721" lon="13.3158199"><ele>762.0</ele><time>2026-05-02T16:25:28.078Z</time></trkpt><trkpt lat="42.3388155" lon="13.315804"><ele>762.0</ele><time>2026-05-02T16:25:29.086Z</time></trkpt><trkpt lat="42.3389142" lon="13.3157944"><ele>762.0</ele><time>2026-05-02T16:25:30.091Z</time></trkpt><trkpt lat="42.3390253" lon="13.3157907"><ele>762.0</ele><time>2026-05-02T16:25:31.085Z</time></trkpt><trkpt lat="42.3391366" lon="13.3158039"><ele>761.4000000000001</ele><time>2026-05-02T16:25:32.088Z</time></trkpt><trkpt lat="42.3392397" lon="13.3158034"><ele>760.8000000000001</ele><time>2026-05-02T16:25:33.084Z</time></trkpt><trkpt lat="42.3393343" lon="13.3158147"><ele>760.2</ele><time>2026-05-02T16:25:34.083Z</time></trkpt><trkpt lat="42.3394237" lon="13.3158251"><ele>759.6</ele><time>2026-05-02T16:25:35.088Z</time></trkpt><trkpt lat="42.3395231" lon="13.315838"><ele>759.0</ele><time>2026-05-02T16:25:36.087Z</time></trkpt><trkpt lat="42.339623" lon="13.3158543"><ele>758.0</ele><time>2026-05-02T16:25:37.084Z</time></trkpt><trkpt lat="42.3397283" lon="13.315861"><ele>757.0</ele><time>2026-05-02T16:25:38.084Z</time></trkpt><trkpt lat="42.3398282" lon="13.3158693"><ele>756.0</ele><time>2026-05-02T16:25:39.093Z</time></trkpt><trkpt lat="42.3399099" lon="13.3158766"><ele>755.0</ele><time>2026-05-02T16:25:40.08Z</time></trkpt><trkpt lat="42.3399923" lon="13.3158771"><ele>754.0</ele><time>2026-05-02T16:25:41.091Z</time></trkpt><trkpt lat="42.340082" lon="13.3158692"><ele>754.0</ele><time>2026-05-02T16:25:42.084Z</time></trkpt><trkpt lat="42.3401686" lon="13.3158702"><ele>754.0</ele><time>2026-05-02T16:25:43.077Z</time></trkpt><trkpt lat="42.3402484" lon="13.3158803"><ele>754.0</ele><time>2026-05-02T16:25:44.078Z</time></trkpt><trkpt lat="42.3403194" lon="13.3158882"><ele>754.0</ele><time>2026-05-02T16:25:45.084Z</time></trkpt><trkpt lat="42.3403835" lon="13.3158851"><ele>754.0</ele><time>2026-05-02T16:25:46.088Z</time></trkpt><trkpt lat="42.340509" lon="13.3158804"><ele>754.0</ele><time>2026-05-02T16:25:48.088Z</time></trkpt><trkpt lat="42.3405796" lon="13.3158954"><ele>753.5</ele><time>2026-05-02T16:25:49.078Z</time></trkpt><trkpt lat="42.3406416" lon="13.3159203"><ele>753.0</ele><time>2026-05-02T16:25:50.084Z</time></trkpt><trkpt lat="42.340709" lon="13.3159393"><ele>752.5</ele><time>2026-05-02T16:25:51.081Z</time></trkpt><trkpt lat="42.3407806" lon="13.3159532"><ele>752.0</ele><time>2026-05-02T16:25:52.086Z</time></trkpt><trkpt lat="42.340865" lon="13.3159534"><ele>751.5</ele><time>2026-05-02T16:25:53.087Z</time></trkpt><trkpt lat="42.3409503" lon="13.3159543"><ele>751.0</ele><time>2026-05-02T16:25:54.081Z</time></trkpt><trkpt lat="42.341034" lon="13.3159592"><ele>751.0</ele><time>2026-05-02T16:25:55.085Z</time></trkpt><trkpt lat="42.3411162" lon="13.3159614"><ele>751.0</ele><time>2026-05-02T16:25:56.094Z</time></trkpt><trkpt lat="42.3411995" lon="13.3159567"><ele>751.0</ele><time>2026-05-02T16:25:57.083Z</time></trkpt><trkpt lat="42.3412895" lon="13.3159564"><ele>751.0</ele><time>2026-05-02T16:25:58.076Z</time></trkpt><trkpt lat="42.341375" lon="13.31597"><ele>751.0</ele><time>2026-05-02T16:25:59.087Z</time></trkpt><trkpt lat="42.3414586" lon="13.3159924"><ele>751.0</ele><time>2026-05-02T16:26:00.079Z</time></trkpt><trkpt lat="42.3415465" lon="13.3160121"><ele>748.8</ele><time>2026-05-02T16:26:01.087Z</time></trkpt><trkpt lat="42.3416331" lon="13.3160297"><ele>746.5999999999999</ele><time>2026-05-02T16:26:02.085Z</time></trkpt><trkpt lat="42.3417234" lon="13.3160269"><ele>744.4</ele><time>2026-05-02T16:26:03.077Z</time></trkpt><trkpt lat="42.341826" lon="13.3160191"><ele>742.2</ele><time>2026-05-02T16:26:04.082Z</time></trkpt><trkpt lat="42.3419259" lon="13.3160164"><ele>740.0</ele><time>2026-05-02T16:26:05.085Z</time></trkpt><trkpt lat="42.3420162" lon="13.3160266"><ele>739.9999999999999</ele><time>2026-05-02T16:26:06.088Z</time></trkpt><trkpt lat="42.3421037" lon="13.3160295"><ele>740.0</ele><time>2026-05-02T16:26:07.086Z</time></trkpt><trkpt lat="42.3421828" lon="13.3160371"><ele>740.0</ele><time>2026-05-02T16:26:08.083Z</time></trkpt><trkpt lat="42.3422497" lon="13.3160546"><ele>740.0</ele><time>2026-05-02T16:26:09.092Z</time></trkpt><trkpt lat="42.3423128" lon="13.316074"><ele>740.0</ele><time>2026-05-02T16:26:10.084Z</time></trkpt><trkpt lat="42.3423854" lon="13.3160717"><ele>739.9999999999999</ele><time>2026-05-02T16:26:11.083Z</time></trkpt><trkpt lat="42.3424551" lon="13.316046"><ele>740.0</ele><time>2026-05-02T16:26:12.091Z</time></trkpt><trkpt lat="42.3425282" lon="13.3159945"><ele>739.5</ele><time>2026-05-02T16:26:13.085Z</time></trkpt><trkpt lat="42.3425948" lon="13.3159137"><ele>739.0</ele><time>2026-05-02T16:26:14.092Z</time></trkpt><trkpt lat="42.3426641" lon="13.3158262"><ele>738.5</ele><time>2026-05-02T16:26:15.09Z</time></trkpt><trkpt lat="42.3427303" lon="13.3157614"><ele>738.0</ele><time>2026-05-02T16:26:16.077Z</time></trkpt><trkpt lat="42.3428098" lon="13.3157023"><ele>737.5</ele><time>2026-05-02T16:26:17.083Z</time></trkpt><trkpt lat="42.3428877" lon="13.3156432"><ele>737.0</ele><time>2026-05-02T16:26:18.084Z</time></trkpt><trkpt lat="42.3429579" lon="13.3155948"><ele>735.8571428571429</ele><time>2026-05-02T16:26:19.093Z</time></trkpt><trkpt lat="42.3430201" lon="13.3155446"><ele>734.7142857142858</ele><time>2026-05-02T16:26:20.081Z</time></trkpt><trkpt lat="42.34309" lon="13.315499"><ele>733.5714285714287</ele><time>2026-05-02T16:26:21.084Z</time></trkpt><trkpt lat="42.343167" lon="13.3154618"><ele>732.4285714285714</ele><time>2026-05-02T16:26:22.078Z</time></trkpt><trkpt lat="42.3432333" lon="13.3154328"><ele>731.2857142857142</ele><time>2026-05-02T16:26:23.079Z</time></trkpt><trkpt lat="42.3433003" lon="13.3154153"><ele>730.1428571428572</ele><time>2026-05-02T16:26:24.077Z</time></trkpt><trkpt lat="42.3433703" lon="13.3154189"><ele>729.0</ele><time>2026-05-02T16:26:25.09Z</time></trkpt><trkpt lat="42.3434459" lon="13.3154506"><ele>729.0</ele><time>2026-05-02T16:26:26.077Z</time></trkpt><trkpt lat="42.3435225" lon="13.3154933"><ele>729.0</ele><time>2026-05-02T16:26:27.083Z</time></trkpt><trkpt lat="42.3436049" lon="13.3155365"><ele>729.0</ele><time>2026-05-02T16:26:28.085Z</time></trkpt><trkpt lat="42.3436825" lon="13.3155746"><ele>729.0</ele><time>2026-05-02T16:26:29.083Z</time></trkpt><trkpt lat="42.3437612" lon="13.3156089"><ele>729.0</ele><time>2026-05-02T16:26:30.083Z</time></trkpt><trkpt lat="42.3438459" lon="13.315621"><ele>729.0</ele><time>2026-05-02T16:26:31.09Z</time></trkpt><trkpt lat="42.3439362" lon="13.3156225"><ele>728.6</ele><time>2026-05-02T16:26:32.078Z</time></trkpt><trkpt lat="42.3440307" lon="13.3156235"><ele>728.2</ele><time>2026-05-02T16:26:33.084Z</time></trkpt><trkpt lat="42.3441333" lon="13.315628"><ele>727.8000000000001</ele><time>2026-05-02T16:26:34.086Z</time></trkpt><trkpt lat="42.344236" lon="13.3156294"><ele>727.4000000000001</ele><time>2026-05-02T16:26:35.087Z</time></trkpt><trkpt lat="42.3443395" lon="13.3156357"><ele>727.0</ele><time>2026-05-02T16:26:36.084Z</time></trkpt><trkpt lat="42.3444387" lon="13.315636"><ele>727.0</ele><time>2026-05-02T16:26:37.086Z</time></trkpt><trkpt lat="42.3445318" lon="13.3156449"><ele>727.0</ele><time>2026-05-02T16:26:38.08Z</time></trkpt><trkpt lat="42.3446127" lon="13.3156497"><ele>727.0</ele><time>2026-05-02T16:26:39.086Z</time></trkpt><trkpt lat="42.3446856" lon="13.3156522"><ele>727.0</ele><time>2026-05-02T16:26:40.083Z</time></trkpt><trkpt lat="42.3447606" lon="13.3156584"><ele>727.0</ele><time>2026-05-02T16:26:41.088Z</time></trkpt><trkpt lat="42.3448429" lon="13.3156479"><ele>727.0</ele><time>2026-05-02T16:26:42.086Z</time></trkpt><trkpt lat="42.344929" lon="13.3156308"><ele>726.3333333333334</ele><time>2026-05-02T16:26:43.086Z</time></trkpt><trkpt lat="42.3450126" lon="13.3156037"><ele>725.6666666666667</ele><time>2026-05-02T16:26:44.095Z</time></trkpt><trkpt lat="42.3450881" lon="13.3155775"><ele>725.0</ele><time>2026-05-02T16:26:45.085Z</time></trkpt><trkpt lat="42.3451614" lon="13.3155541"><ele>724.3333333333334</ele><time>2026-05-02T16:26:46.079Z</time></trkpt><trkpt lat="42.3452302" lon="13.3155298"><ele>723.6666666666666</ele><time>2026-05-02T16:26:47.089Z</time></trkpt><trkpt lat="42.3452927" lon="13.3155059"><ele>723.0</ele><time>2026-05-02T16:26:48.084Z</time></trkpt><trkpt lat="42.3454027" lon="13.3154688"><ele>722.4</ele><time>2026-05-02T16:26:50.082Z</time></trkpt><trkpt lat="42.3455138" lon="13.3154833"><ele>721.8</ele><time>2026-05-02T16:26:52.086Z</time></trkpt><trkpt lat="42.3455867" lon="13.3155233"><ele>721.2</ele><time>2026-05-02T16:26:53.081Z</time></trkpt><trkpt lat="42.3456785" lon="13.3155807"><ele>720.6</ele><time>2026-05-02T16:26:54.078Z</time></trkpt><trkpt lat="42.3457648" lon="13.3156246"><ele>720.0</ele><time>2026-05-02T16:26:55.083Z</time></trkpt><trkpt lat="42.345851" lon="13.3156541"><ele>720.0</ele><time>2026-05-02T16:26:56.087Z</time></trkpt><trkpt lat="42.3459401" lon="13.3156808"><ele>720.0</ele><time>2026-05-02T16:26:57.087Z</time></trkpt><trkpt lat="42.3460429" lon="13.3157003"><ele>720.0</ele><time>2026-05-02T16:26:58.072Z</time></trkpt><trkpt lat="42.3461577" lon="13.3157063"><ele>720.0</ele><time>2026-05-02T16:26:59.082Z</time></trkpt><trkpt lat="42.3462781" lon="13.3157109"><ele>720.0</ele><time>2026-05-02T16:27:00.081Z</time></trkpt><trkpt lat="42.3463984" lon="13.3157159"><ele>720.4</ele><time>2026-05-02T16:27:01.084Z</time></trkpt><trkpt lat="42.3465097" lon="13.3157264"><ele>720.8</ele><time>2026-05-02T16:27:02.066Z</time></trkpt><trkpt lat="42.3466189" lon="13.3157377"><ele>721.2</ele><time>2026-05-02T16:27:03.08Z</time></trkpt><trkpt lat="42.3467121" lon="13.3157593"><ele>721.6</ele><time>2026-05-02T16:27:04.087Z</time></trkpt><trkpt lat="42.3467846" lon="13.3157747"><ele>722.0</ele><time>2026-05-02T16:27:05.08Z</time></trkpt><trkpt lat="42.3468975" lon="13.3158375"><ele>722.0</ele><time>2026-05-02T16:27:07.088Z</time></trkpt><trkpt lat="42.3469565" lon="13.3158939"><ele>722.0</ele><time>2026-05-02T16:27:08.079Z</time></trkpt><trkpt lat="42.3470289" lon="13.3159539"><ele>722.0</ele><time>2026-05-02T16:27:09.072Z</time></trkpt><trkpt lat="42.347106" lon="13.3160309"><ele>722.0</ele><time>2026-05-02T16:27:10.08Z</time></trkpt><trkpt lat="42.3471827" lon="13.3161255"><ele>722.0</ele><time>2026-05-02T16:27:11.083Z</time></trkpt><trkpt lat="42.3472598" lon="13.3162261"><ele>721.4000000000001</ele><time>2026-05-02T16:27:12.088Z</time></trkpt><trkpt lat="42.3473255" lon="13.3163124"><ele>720.8000000000001</ele><time>2026-05-02T16:27:13.08Z</time></trkpt><trkpt lat="42.347386" lon="13.3163937"><ele>720.2</ele><time>2026-05-02T16:27:14.08Z</time></trkpt><trkpt lat="42.3474644" lon="13.3164609"><ele>719.6</ele><time>2026-05-02T16:27:15.087Z</time></trkpt><trkpt lat="42.3475498" lon="13.3165247"><ele>719.0</ele><time>2026-05-02T16:27:16.089Z</time></trkpt><trkpt lat="42.3476364" lon="13.3165632"><ele>719.0</ele><time>2026-05-02T16:27:17.081Z</time></trkpt><trkpt lat="42.3477239" lon="13.3165864"><ele>719.0</ele><time>2026-05-02T16:27:18.091Z</time></trkpt><trkpt lat="42.3478034" lon="13.3166185"><ele>719.0</ele><time>2026-05-02T16:27:19.089Z</time></trkpt><trkpt lat="42.3478809" lon="13.3166527"><ele>719.0</ele><time>2026-05-02T16:27:20.088Z</time></trkpt><trkpt lat="42.3479617" lon="13.3167056"><ele>719.0</ele><time>2026-05-02T16:27:21.081Z</time></trkpt><trkpt lat="42.3480272" lon="13.3167547"><ele>719.0</ele><time>2026-05-02T16:27:22.085Z</time></trkpt><trkpt lat="42.3481021" lon="13.3168079"><ele>718.6666666666666</ele><time>2026-05-02T16:27:23.082Z</time></trkpt><trkpt lat="42.3481744" lon="13.316852"><ele>718.3333333333333</ele><time>2026-05-02T16:27:24.084Z</time></trkpt><trkpt lat="42.3482432" lon="13.3169022"><ele>718.0</ele><time>2026-05-02T16:27:25.086Z</time></trkpt><trkpt lat="42.3483182" lon="13.3169584"><ele>717.6666666666666</ele><time>2026-05-02T16:27:26.093Z</time></trkpt><trkpt lat="42.348395" lon="13.3170063"><ele>717.3333333333334</ele><time>2026-05-02T16:27:27.085Z</time></trkpt><trkpt lat="42.3484711" lon="13.317041"><ele>717.0</ele><time>2026-05-02T16:27:28.092Z</time></trkpt><trkpt lat="42.3485542" lon="13.317055"><ele>717.0</ele><time>2026-05-02T16:27:29.084Z</time></trkpt><trkpt lat="42.3486414" lon="13.3170588"><ele>717.0</ele><time>2026-05-02T16:27:30.083Z</time></trkpt><trkpt lat="42.3487242" lon="13.3170535"><ele>717.0</ele><time>2026-05-02T16:27:31.089Z</time></trkpt><trkpt lat="42.3488052" lon="13.3170426"><ele>717.0</ele><time>2026-05-02T16:27:32.087Z</time></trkpt><trkpt lat="42.3488675" lon="13.3170291"><ele>717.0</ele><time>2026-05-02T16:27:33.084Z</time></trkpt><trkpt lat="42.3489415" lon="13.3170092"><ele>717.0</ele><time>2026-05-02T16:27:35.089Z</time></trkpt><trkpt lat="42.3490214" lon="13.3170707"><ele>716.3333333333334</ele><time>2026-05-02T16:27:39.081Z</time></trkpt><trkpt lat="42.3490755" lon="13.3171538"><ele>715.6666666666666</ele><time>2026-05-02T16:27:41.083Z</time></trkpt><trkpt lat="42.3490761" lon="13.3172476"><ele>715.0</ele><time>2026-05-02T16:27:43.076Z</time></trkpt><trkpt lat="42.349077" lon="13.3173402"><ele>714.3333333333333</ele><time>2026-05-02T16:27:45.08Z</time></trkpt><trkpt lat="42.349109" lon="13.3174486"><ele>713.6666666666666</ele><time>2026-05-02T16:27:48.092Z</time></trkpt><trkpt lat="42.3490965" lon="13.3173345"><ele>713.0</ele><time>2026-05-02T16:28:09.082Z</time></trkpt><trkpt lat="42.3490837" lon="13.3172052"><ele>711.4</ele><time>2026-05-02T16:28:11.082Z</time></trkpt><trkpt lat="42.3490352" lon="13.3170651"><ele>709.8</ele><time>2026-05-02T16:28:13.086Z</time></trkpt><trkpt lat="42.3489942" lon="13.3169146"><ele>708.2</ele><time>2026-05-02T16:28:15.084Z</time></trkpt><trkpt lat="42.3489752" lon="13.3167756"><ele>706.6</ele><time>2026-05-02T16:28:17.079Z</time></trkpt><trkpt lat="42.3490121" lon="13.3166948"><ele>705.0</ele><time>2026-05-02T16:28:20.082Z</time></trkpt><trkpt lat="42.3490741" lon="13.3167329"><ele>705.0</ele><time>2026-05-02T16:28:22.089Z</time></trkpt><trkpt lat="42.3491312" lon="13.3168425"><ele>705.0</ele><time>2026-05-02T16:28:24.099Z</time></trkpt><trkpt lat="42.3492242" lon="13.3169734"><ele>705.0</ele><time>2026-05-02T16:28:26.1Z</time></trkpt><trkpt lat="42.3492945" lon="13.3170262"><ele>705.0</ele><time>2026-05-02T16:28:27.096Z</time></trkpt><trkpt lat="42.3493574" lon="13.3170761"><ele>705.0</ele><time>2026-05-02T16:28:28.095Z</time></trkpt><trkpt lat="42.3494149" lon="13.3171114"><ele>705.0</ele><time>2026-05-02T16:28:29.094Z</time></trkpt><trkpt lat="42.349473" lon="13.3171468"><ele>705.0</ele><time>2026-05-02T16:28:30.083Z</time></trkpt><trkpt lat="42.3495936" lon="13.3172083"><ele>705.0</ele><time>2026-05-02T16:28:32.078Z</time></trkpt><trkpt lat="42.3496577" lon="13.3172531"><ele>705.0</ele><time>2026-05-02T16:28:33.08Z</time></trkpt><trkpt lat="42.3497138" lon="13.3173125"><ele>705.0</ele><time>2026-05-02T16:28:34.08Z</time></trkpt><trkpt lat="42.3497641" lon="13.3173835"><ele>705.0</ele><time>2026-05-02T16:28:35.081Z</time></trkpt><trkpt lat="42.3498196" lon="13.3174459"><ele>703.7142857142857</ele><time>2026-05-02T16:28:36.089Z</time></trkpt><trkpt lat="42.3498756" lon="13.3175097"><ele>702.4285714285714</ele><time>2026-05-02T16:28:37.088Z</time></trkpt><trkpt lat="42.3499266" lon="13.3175829"><ele>701.1428571428571</ele><time>2026-05-02T16:28:38.092Z</time></trkpt><trkpt lat="42.3499784" lon="13.3176514"><ele>699.8571428571429</ele><time>2026-05-02T16:28:39.093Z</time></trkpt><trkpt lat="42.350032" lon="13.3177243"><ele>698.5714285714286</ele><time>2026-05-02T16:28:40.086Z</time></trkpt><trkpt lat="42.3500844" lon="13.3177992"><ele>697.2857142857142</ele><time>2026-05-02T16:28:41.091Z</time></trkpt><trkpt lat="42.3501339" lon="13.3178718"><ele>696.0</ele><time>2026-05-02T16:28:42.095Z</time></trkpt><trkpt lat="42.3501778" lon="13.3179479"><ele>696.0</ele><time>2026-05-02T16:28:43.091Z</time></trkpt><trkpt lat="42.3502257" lon="13.3180271"><ele>696.0</ele><time>2026-05-02T16:28:44.098Z</time></trkpt><trkpt lat="42.3502752" lon="13.3181032"><ele>696.0</ele><time>2026-05-02T16:28:45.085Z</time></trkpt><trkpt lat="42.3503271" lon="13.3181854"><ele>696.0</ele><time>2026-05-02T16:28:46.099Z</time></trkpt><trkpt lat="42.3503767" lon="13.3182671"><ele>696.0</ele><time>2026-05-02T16:28:47.101Z</time></trkpt><trkpt lat="42.3504241" lon="13.3183477"><ele>696.0</ele><time>2026-05-02T16:28:48.097Z</time></trkpt><trkpt lat="42.3504708" lon="13.3184282"><ele>696.1428571428571</ele><time>2026-05-02T16:28:49.096Z</time></trkpt><trkpt lat="42.350523" lon="13.3184956"><ele>696.2857142857143</ele><time>2026-05-02T16:28:50.098Z</time></trkpt><trkpt lat="42.3505753" lon="13.3185658"><ele>696.4285714285714</ele><time>2026-05-02T16:28:51.095Z</time></trkpt><trkpt lat="42.3506299" lon="13.3186357"><ele>696.5714285714286</ele><time>2026-05-02T16:28:52.095Z</time></trkpt><trkpt lat="42.3506818" lon="13.318707"><ele>696.7142857142857</ele><time>2026-05-02T16:28:53.091Z</time></trkpt><trkpt lat="42.3507337" lon="13.3187691"><ele>696.8571428571429</ele><time>2026-05-02T16:28:54.089Z</time></trkpt><trkpt lat="42.3507919" lon="13.3188396"><ele>697.0</ele><time>2026-05-02T16:28:55.092Z</time></trkpt><trkpt lat="42.3508473" lon="13.3189083"><ele>694.2</ele><time>2026-05-02T16:28:56.1Z</time></trkpt><trkpt lat="42.3509023" lon="13.3189915"><ele>691.4000000000001</ele><time>2026-05-02T16:28:57.104Z</time></trkpt><trkpt lat="42.3509576" lon="13.3190774"><ele>688.5999999999999</ele><time>2026-05-02T16:28:58.087Z</time></trkpt><trkpt lat="42.3510242" lon="13.3191608"><ele>685.8</ele><time>2026-05-02T16:28:59.098Z</time></trkpt><trkpt lat="42.351094" lon="13.3192482"><ele>683.0</ele><time>2026-05-02T16:29:00.086Z</time></trkpt><trkpt lat="42.3511756" lon="13.3193492"><ele>683.0</ele><time>2026-05-02T16:29:01.094Z</time></trkpt><trkpt lat="42.3512563" lon="13.3194399"><ele>683.0</ele><time>2026-05-02T16:29:02.099Z</time></trkpt><trkpt lat="42.3513298" lon="13.3195239"><ele>683.0</ele><time>2026-05-02T16:29:03.087Z</time></trkpt><trkpt lat="42.3513994" lon="13.3196077"><ele>683.0</ele><time>2026-05-02T16:29:04.092Z</time></trkpt><trkpt lat="42.3514836" lon="13.3196914"><ele>683.0</ele><time>2026-05-02T16:29:05.093Z</time></trkpt><trkpt lat="42.3515905" lon="13.3197742"><ele>683.0</ele><time>2026-05-02T16:29:06.094Z</time></trkpt><trkpt lat="42.3517061" lon="13.3198539"><ele>683.0</ele><time>2026-05-02T16:29:07.093Z</time></trkpt><trkpt lat="42.3518171" lon="13.3199409"><ele>683.0</ele><time>2026-05-02T16:29:08.104Z</time></trkpt><trkpt lat="42.3519201" lon="13.3200304"><ele>683.0</ele><time>2026-05-02T16:29:09.097Z</time></trkpt><trkpt lat="42.3520181" lon="13.3201179"><ele>683.0</ele><time>2026-05-02T16:29:10.088Z</time></trkpt><trkpt lat="42.3521123" lon="13.320204"><ele>683.0</ele><time>2026-05-02T16:29:11.097Z</time></trkpt><trkpt lat="42.352204" lon="13.3203054"><ele>683.0</ele><time>2026-05-02T16:29:12.092Z</time></trkpt><trkpt lat="42.352287" lon="13.3203937"><ele>683.0</ele><time>2026-05-02T16:29:13.092Z</time></trkpt><trkpt lat="42.352367" lon="13.3204729"><ele>683.0</ele><time>2026-05-02T16:29:14.091Z</time></trkpt><trkpt lat="42.3524455" lon="13.3205479"><ele>681.8333333333333</ele><time>2026-05-02T16:29:15.094Z</time></trkpt><trkpt lat="42.3525143" lon="13.3206178"><ele>680.6666666666666</ele><time>2026-05-02T16:29:16.089Z</time></trkpt><trkpt lat="42.3525776" lon="13.3206773"><ele>679.5</ele><time>2026-05-02T16:29:17.084Z</time></trkpt><trkpt lat="42.3526439" lon="13.3207314"><ele>678.3333333333334</ele><time>2026-05-02T16:29:18.092Z</time></trkpt><trkpt lat="42.3527065" lon="13.3207778"><ele>677.1666666666667</ele><time>2026-05-02T16:29:19.086Z</time></trkpt><trkpt lat="42.3527667" lon="13.3208201"><ele>676.0</ele><time>2026-05-02T16:29:20.088Z</time></trkpt><trkpt lat="42.3528405" lon="13.3208786"><ele>676.0</ele><time>2026-05-02T16:29:22.081Z</time></trkpt><trkpt lat="42.3528679" lon="13.3209579"><ele>676.0</ele><time>2026-05-02T16:29:24.086Z</time></trkpt><trkpt lat="42.3528614" lon="13.3211665"><ele>676.0</ele><time>2026-05-02T16:29:26.084Z</time></trkpt><trkpt lat="42.3528546" lon="13.3213144"><ele>676.0</ele><time>2026-05-02T16:29:27.087Z</time></trkpt><trkpt lat="42.3528539" lon="13.3214662"><ele>676.0</ele><time>2026-05-02T16:29:28.092Z</time></trkpt><trkpt lat="42.3528601" lon="13.3216199"><ele>674.5</ele><time>2026-05-02T16:29:29.084Z</time></trkpt><trkpt lat="42.3528831" lon="13.3217713"><ele>673.0</ele><time>2026-05-02T16:29:30.092Z</time></trkpt><trkpt lat="42.3529199" lon="13.3219116"><ele>671.5</ele><time>2026-05-02T16:29:31.097Z</time></trkpt><trkpt lat="42.3529614" lon="13.3220596"><ele>670.0</ele><time>2026-05-02T16:29:32.091Z</time></trkpt><trkpt lat="42.3530065" lon="13.3221953"><ele>669.0</ele><time>2026-05-02T16:29:33.094Z</time></trkpt><trkpt lat="42.3530571" lon="13.3223187"><ele>668.0</ele><time>2026-05-02T16:29:34.094Z</time></trkpt><trkpt lat="42.353101" lon="13.3224417"><ele>667.0</ele><time>2026-05-02T16:29:35.092Z</time></trkpt><trkpt lat="42.3531388" lon="13.3225548"><ele>666.0</ele><time>2026-05-02T16:29:36.096Z</time></trkpt><trkpt lat="42.3531706" lon="13.3226607"><ele>665.0</ele><time>2026-05-02T16:29:37.093Z</time></trkpt><trkpt lat="42.3531943" lon="13.3227583"><ele>665.0</ele><time>2026-05-02T16:29:38.087Z</time></trkpt><trkpt lat="42.3531988" lon="13.3228504"><ele>665.0</ele><time>2026-05-02T16:29:39.096Z</time></trkpt><trkpt lat="42.353207" lon="13.3229412"><ele>665.0</ele><time>2026-05-02T16:29:40.084Z</time></trkpt><trkpt lat="42.3532414" lon="13.323038"><ele>665.0</ele><time>2026-05-02T16:29:41.091Z</time></trkpt><trkpt lat="42.353301" lon="13.3231325"><ele>665.0</ele><time>2026-05-02T16:29:42.096Z</time></trkpt><trkpt lat="42.3533753" lon="13.3232306"><ele>665.0</ele><time>2026-05-02T16:29:43.092Z</time></trkpt><trkpt lat="42.3534436" lon="13.3233502"><ele>664.25</ele><time>2026-05-02T16:29:44.082Z</time></trkpt><trkpt lat="42.3535046" lon="13.3234973"><ele>663.5</ele><time>2026-05-02T16:29:45.08Z</time></trkpt><trkpt lat="42.3535703" lon="13.3236621"><ele>662.75</ele><time>2026-05-02T16:29:46.082Z</time></trkpt><trkpt lat="42.35364" lon="13.3238283"><ele>662.0</ele><time>2026-05-02T16:29:47.089Z</time></trkpt><trkpt lat="42.353709" lon="13.323983"><ele>661.8333333333333</ele><time>2026-05-02T16:29:48.089Z</time></trkpt><trkpt lat="42.3537624" lon="13.3241242"><ele>661.6666666666666</ele><time>2026-05-02T16:29:49.087Z</time></trkpt><trkpt lat="42.3538076" lon="13.3242518"><ele>661.5</ele><time>2026-05-02T16:29:50.084Z</time></trkpt><trkpt lat="42.3538511" lon="13.3243533"><ele>661.3333333333334</ele><time>2026-05-02T16:29:51.092Z</time></trkpt><trkpt lat="42.3538909" lon="13.3244352"><ele>661.1666666666667</ele><time>2026-05-02T16:29:52.096Z</time></trkpt><trkpt lat="42.3539262" lon="13.3245059"><ele>661.0</ele><time>2026-05-02T16:29:53.091Z</time></trkpt><trkpt lat="42.353998" lon="13.3246401"><ele>661.0</ele><time>2026-05-02T16:29:55.087Z</time></trkpt><trkpt lat="42.3540399" lon="13.3247253"><ele>661.0</ele><time>2026-05-02T16:29:56.088Z</time></trkpt><trkpt lat="42.3540932" lon="13.3248292"><ele>661.0</ele><time>2026-05-02T16:29:57.088Z</time></trkpt><trkpt lat="42.3541559" lon="13.3249629"><ele>661.0</ele><time>2026-05-02T16:29:58.091Z</time></trkpt><trkpt lat="42.3542242" lon="13.325112"><ele>661.0</ele><time>2026-05-02T16:29:59.088Z</time></trkpt><trkpt lat="42.3543013" lon="13.3252683"><ele>659.6666666666667</ele><time>2026-05-02T16:30:00.096Z</time></trkpt><trkpt lat="42.354386" lon="13.3254365"><ele>658.3333333333334</ele><time>2026-05-02T16:30:01.096Z</time></trkpt><trkpt lat="42.3545034" lon="13.3256252"><ele>657.0</ele><time>2026-05-02T16:30:02.094Z</time></trkpt><trkpt lat="42.3546112" lon="13.325801"><ele>656.3333333333334</ele><time>2026-05-02T16:30:03.089Z</time></trkpt><trkpt lat="42.3546895" lon="13.3259749"><ele>655.6666666666667</ele><time>2026-05-02T16:30:04.086Z</time></trkpt><trkpt lat="42.3547669" lon="13.326163"><ele>655.0</ele><time>2026-05-02T16:30:05.083Z</time></trkpt><trkpt lat="42.3548448" lon="13.3263358"><ele>655.0</ele><time>2026-05-02T16:30:06.089Z</time></trkpt><trkpt lat="42.3549308" lon="13.3264984"><ele>655.0</ele><time>2026-05-02T16:30:07.088Z</time></trkpt><trkpt lat="42.3550379" lon="13.3266603"><ele>655.0</ele><time>2026-05-02T16:30:08.086Z</time></trkpt><trkpt lat="42.3551493" lon="13.3268452"><ele>655.0</ele><time>2026-05-02T16:30:09.118Z</time></trkpt><trkpt lat="42.3552712" lon="13.327021"><ele>655.0</ele><time>2026-05-02T16:30:10.102Z</time></trkpt><trkpt lat="42.3553906" lon="13.3272205"><ele>655.0</ele><time>2026-05-02T16:30:11.1Z</time></trkpt><trkpt lat="42.3554947" lon="13.3274061"><ele>654.3333333333334</ele><time>2026-05-02T16:30:12.093Z</time></trkpt><trkpt lat="42.3555964" lon="13.3276146"><ele>653.6666666666666</ele><time>2026-05-02T16:30:13.106Z</time></trkpt><trkpt lat="42.3556985" lon="13.3278116"><ele>653.0</ele><time>2026-05-02T16:30:14.101Z</time></trkpt><trkpt lat="42.3557946" lon="13.3279846"><ele>652.75</ele><time>2026-05-02T16:30:15.1Z</time></trkpt><trkpt lat="42.355866" lon="13.3281463"><ele>652.5</ele><time>2026-05-02T16:30:16.1Z</time></trkpt><trkpt lat="42.3559584" lon="13.3283095"><ele>652.25</ele><time>2026-05-02T16:30:17.103Z</time></trkpt><trkpt lat="42.356053" lon="13.3284467"><ele>652.0</ele><time>2026-05-02T16:30:18.103Z</time></trkpt><trkpt lat="42.3561338" lon="13.3285926"><ele>652.0</ele><time>2026-05-02T16:30:19.104Z</time></trkpt><trkpt lat="42.3562083" lon="13.3287707"><ele>652.0</ele><time>2026-05-02T16:30:20.1Z</time></trkpt><trkpt lat="42.3562703" lon="13.3289247"><ele>652.0</ele><time>2026-05-02T16:30:21.09Z</time></trkpt><trkpt lat="42.3562711" lon="13.3291091"><ele>652.0</ele><time>2026-05-02T16:30:22.097Z</time></trkpt><trkpt lat="42.3562165" lon="13.329313"><ele>652.0</ele><time>2026-05-02T16:30:23.081Z</time></trkpt><trkpt lat="42.3561572" lon="13.3295282"><ele>652.0</ele><time>2026-05-02T16:30:24.089Z</time></trkpt><trkpt lat="42.3560957" lon="13.3297342"><ele>652.0</ele><time>2026-05-02T16:30:25.09Z</time></trkpt><trkpt lat="42.3560384" lon="13.3299372"><ele>652.0</ele><time>2026-05-02T16:30:26.093Z</time></trkpt><trkpt lat="42.3559901" lon="13.3301352"><ele>652.0</ele><time>2026-05-02T16:30:27.1Z</time></trkpt><trkpt lat="42.3559428" lon="13.330359"><ele>652.0</ele><time>2026-05-02T16:30:28.1Z</time></trkpt><trkpt lat="42.3559011" lon="13.3305654"><ele>652.25</ele><time>2026-05-02T16:30:29.091Z</time></trkpt><trkpt lat="42.3558769" lon="13.3307451"><ele>652.5</ele><time>2026-05-02T16:30:30.104Z</time></trkpt><trkpt lat="42.3558481" lon="13.3309492"><ele>652.75</ele><time>2026-05-02T16:30:31.099Z</time></trkpt><trkpt lat="42.3558238" lon="13.3311513"><ele>653.0</ele><time>2026-05-02T16:30:32.095Z</time></trkpt><trkpt lat="42.3558121" lon="13.3313713"><ele>652.6666666666666</ele><time>2026-05-02T16:30:33.091Z</time></trkpt><trkpt lat="42.3557982" lon="13.3316295"><ele>652.3333333333334</ele><time>2026-05-02T16:30:34.097Z</time></trkpt><trkpt lat="42.3557896" lon="13.3318755"><ele>652.0</ele><time>2026-05-02T16:30:35.089Z</time></trkpt><trkpt lat="42.3557749" lon="13.3320989"><ele>650.6666666666667</ele><time>2026-05-02T16:30:36.096Z</time></trkpt><trkpt lat="42.3557547" lon="13.3323381"><ele>649.3333333333334</ele><time>2026-05-02T16:30:37.091Z</time></trkpt><trkpt lat="42.3557344" lon="13.3325772"><ele>648.0</ele><time>2026-05-02T16:30:38.096Z</time></trkpt><trkpt lat="42.3557265" lon="13.3328096"><ele>648.0</ele><time>2026-05-02T16:30:39.1Z</time></trkpt><trkpt lat="42.355706" lon="13.333013"><ele>648.0</ele><time>2026-05-02T16:30:40.108Z</time></trkpt><trkpt lat="42.3556972" lon="13.3332039"><ele>648.0</ele><time>2026-05-02T16:30:41.101Z</time></trkpt><trkpt lat="42.3556837" lon="13.333412"><ele>648.0</ele><time>2026-05-02T16:30:42.098Z</time></trkpt><trkpt lat="42.355679" lon="13.3336171"><ele>647.75</ele><time>2026-05-02T16:30:43.099Z</time></trkpt><trkpt lat="42.3556759" lon="13.3338142"><ele>647.5</ele><time>2026-05-02T16:30:44.101Z</time></trkpt><trkpt lat="42.3556659" lon="13.3340295"><ele>647.25</ele><time>2026-05-02T16:30:45.098Z</time></trkpt><trkpt lat="42.3556536" lon="13.3342228"><ele>647.0</ele><time>2026-05-02T16:30:46.095Z</time></trkpt><trkpt lat="42.3556421" lon="13.3343903"><ele>646.8</ele><time>2026-05-02T16:30:47.095Z</time></trkpt><trkpt lat="42.3556428" lon="13.334564"><ele>646.6</ele><time>2026-05-02T16:30:48.103Z</time></trkpt><trkpt lat="42.3556352" lon="13.3347133"><ele>646.4</ele><time>2026-05-02T16:30:49.099Z</time></trkpt><trkpt lat="42.3556513" lon="13.3348454"><ele>646.1999999999999</ele><time>2026-05-02T16:30:50.102Z</time></trkpt><trkpt lat="42.3556843" lon="13.3349775"><ele>646.0</ele><time>2026-05-02T16:30:51.088Z</time></trkpt><trkpt lat="42.3557199" lon="13.3351128"><ele>645.1999999999999</ele><time>2026-05-02T16:30:52.098Z</time></trkpt><trkpt lat="42.3557529" lon="13.3352332"><ele>644.4</ele><time>2026-05-02T16:30:54.095Z</time></trkpt><trkpt lat="42.355797" lon="13.3353438"><ele>643.6</ele><time>2026-05-02T16:30:56.097Z</time></trkpt><trkpt lat="42.3558576" lon="13.33546"><ele>642.8</ele><time>2026-05-02T16:30:58.096Z</time></trkpt><trkpt lat="42.3559818" lon="13.3355208"><ele>642.0</ele><time>2026-05-02T16:31:00.09Z</time></trkpt><trkpt lat="42.3560456" lon="13.3355569"><ele>641.6</ele><time>2026-05-02T16:31:01.09Z</time></trkpt><trkpt lat="42.356112" lon="13.3356139"><ele>641.2</ele><time>2026-05-02T16:31:02.1Z</time></trkpt><trkpt lat="42.3561864" lon="13.3356882"><ele>640.8</ele><time>2026-05-02T16:31:03.094Z</time></trkpt><trkpt lat="42.356271" lon="13.3357776"><ele>640.4</ele><time>2026-05-02T16:31:04.101Z</time></trkpt><trkpt lat="42.3563681" lon="13.335862"><ele>640.0</ele><time>2026-05-02T16:31:05.101Z</time></trkpt><trkpt lat="42.3564547" lon="13.3359459"><ele>639.6</ele><time>2026-05-02T16:31:06.101Z</time></trkpt><trkpt lat="42.3565331" lon="13.3360201"><ele>639.2</ele><time>2026-05-02T16:31:07.097Z</time></trkpt><trkpt lat="42.3566105" lon="13.3360883"><ele>638.8</ele><time>2026-05-02T16:31:08.099Z</time></trkpt><trkpt lat="42.3566922" lon="13.3361544"><ele>638.4</ele><time>2026-05-02T16:31:09.091Z</time></trkpt><trkpt lat="42.3567779" lon="13.3362291"><ele>638.0</ele><time>2026-05-02T16:31:10.096Z</time></trkpt><trkpt lat="42.3568605" lon="13.3363088"><ele>638.0</ele><time>2026-05-02T16:31:11.104Z</time></trkpt><trkpt lat="42.3569311" lon="13.3363791"><ele>638.0</ele><time>2026-05-02T16:31:12.096Z</time></trkpt><trkpt lat="42.3569926" lon="13.336445"><ele>638.0</ele><time>2026-05-02T16:31:13.095Z</time></trkpt><trkpt lat="42.3570398" lon="13.3365112"><ele>638.0</ele><time>2026-05-02T16:31:14.092Z</time></trkpt><trkpt lat="42.3570618" lon="13.3366646"><ele>638.0</ele><time>2026-05-02T16:31:16.087Z</time></trkpt><trkpt lat="42.3570409" lon="13.3367615"><ele>638.0</ele><time>2026-05-02T16:31:17.082Z</time></trkpt><trkpt lat="42.3570002" lon="13.3368791"><ele>638.75</ele><time>2026-05-02T16:31:18.087Z</time></trkpt><trkpt lat="42.3569574" lon="13.3370173"><ele>639.5</ele><time>2026-05-02T16:31:19.092Z</time></trkpt><trkpt lat="42.3569213" lon="13.3371616"><ele>640.25</ele><time>2026-05-02T16:31:20.088Z</time></trkpt><trkpt lat="42.3568886" lon="13.3373165"><ele>641.0</ele><time>2026-05-02T16:31:21.089Z</time></trkpt><trkpt lat="42.3568542" lon="13.3374868"><ele>641.3333333333333</ele><time>2026-05-02T16:31:22.082Z</time></trkpt><trkpt lat="42.3568165" lon="13.3376859"><ele>641.6666666666666</ele><time>2026-05-02T16:31:23.087Z</time></trkpt><trkpt lat="42.35675" lon="13.3379407"><ele>642.0</ele><time>2026-05-02T16:31:24.088Z</time></trkpt><trkpt lat="42.356688" lon="13.3382084"><ele>642.3333333333334</ele><time>2026-05-02T16:31:25.094Z</time></trkpt><trkpt lat="42.3566345" lon="13.3384793"><ele>642.6666666666667</ele><time>2026-05-02T16:31:26.086Z</time></trkpt><trkpt lat="42.3565871" lon="13.3387199"><ele>643.0</ele><time>2026-05-02T16:31:27.093Z</time></trkpt><trkpt lat="42.3565446" lon="13.338963"><ele>643.0</ele><time>2026-05-02T16:31:28.097Z</time></trkpt><trkpt lat="42.3565022" lon="13.3391944"><ele>643.0</ele><time>2026-05-02T16:31:29.094Z</time></trkpt><trkpt lat="42.356456" lon="13.3394208"><ele>643.0</ele><time>2026-05-02T16:31:30.099Z</time></trkpt><trkpt lat="42.3564134" lon="13.3396675"><ele>641.3333333333334</ele><time>2026-05-02T16:31:31.1Z</time></trkpt><trkpt lat="42.3563647" lon="13.3398992"><ele>639.6666666666666</ele><time>2026-05-02T16:31:32.092Z</time></trkpt><trkpt lat="42.3563313" lon="13.3401234"><ele>638.0</ele><time>2026-05-02T16:31:33.099Z</time></trkpt><trkpt lat="42.3562819" lon="13.3403425"><ele>638.3333333333333</ele><time>2026-05-02T16:31:34.097Z</time></trkpt><trkpt lat="42.3562476" lon="13.3405566"><ele>638.6666666666666</ele><time>2026-05-02T16:31:35.092Z</time></trkpt><trkpt lat="42.3562046" lon="13.3407609"><ele>639.0</ele><time>2026-05-02T16:31:36.101Z</time></trkpt><trkpt lat="42.3561608" lon="13.3409725"><ele>639.0</ele><time>2026-05-02T16:31:37.096Z</time></trkpt><trkpt lat="42.3561145" lon="13.3411886"><ele>639.0</ele><time>2026-05-02T16:31:38.095Z</time></trkpt><trkpt lat="42.3560857" lon="13.3414071"><ele>639.0</ele><time>2026-05-02T16:31:39.098Z</time></trkpt><trkpt lat="42.3560518" lon="13.3416285"><ele>639.0</ele><time>2026-05-02T16:31:40.104Z</time></trkpt><trkpt lat="42.3560108" lon="13.3418459"><ele>639.0</ele><time>2026-05-02T16:31:41.098Z</time></trkpt><trkpt lat="42.3559687" lon="13.3420711"><ele>639.0</ele><time>2026-05-02T16:31:42.101Z</time></trkpt><trkpt lat="42.3559194" lon="13.3422838"><ele>638.3333333333334</ele><time>2026-05-02T16:31:43.099Z</time></trkpt><trkpt lat="42.3558765" lon="13.3425025"><ele>637.6666666666667</ele><time>2026-05-02T16:31:44.1Z</time></trkpt><trkpt lat="42.3558325" lon="13.3427259"><ele>637.0</ele><time>2026-05-02T16:31:45.098Z</time></trkpt><trkpt lat="42.3557991" lon="13.3429717"><ele>637.3333333333334</ele><time>2026-05-02T16:31:46.1Z</time></trkpt><trkpt lat="42.3557637" lon="13.3432"><ele>637.6666666666666</ele><time>2026-05-02T16:31:47.101Z</time></trkpt><trkpt lat="42.3557099" lon="13.3434131"><ele>638.0</ele><time>2026-05-02T16:31:48.103Z</time></trkpt><trkpt lat="42.3556969" lon="13.343662"><ele>637.0</ele><time>2026-05-02T16:31:49.101Z</time></trkpt><trkpt lat="42.3557141" lon="13.3439099"><ele>636.0</ele><time>2026-05-02T16:31:50.096Z</time></trkpt><trkpt lat="42.3557322" lon="13.3441501"><ele>635.0</ele><time>2026-05-02T16:31:51.097Z</time></trkpt><trkpt lat="42.3557777" lon="13.3443954"><ele>635.0</ele><time>2026-05-02T16:31:52.101Z</time></trkpt><trkpt lat="42.3558322" lon="13.3446212"><ele>635.0</ele><time>2026-05-02T16:31:53.097Z</time></trkpt><trkpt lat="42.3558992" lon="13.3448684"><ele>635.0</ele><time>2026-05-02T16:31:54.102Z</time></trkpt><trkpt lat="42.3559572" lon="13.345091"><ele>634.0</ele><time>2026-05-02T16:31:55.104Z</time></trkpt><trkpt lat="42.3560112" lon="13.3453114"><ele>633.0</ele><time>2026-05-02T16:31:56.1Z</time></trkpt><trkpt lat="42.3560656" lon="13.3455332"><ele>632.0</ele><time>2026-05-02T16:31:57.093Z</time></trkpt><trkpt lat="42.3561132" lon="13.345727"><ele>632.0</ele><time>2026-05-02T16:31:58.105Z</time></trkpt><trkpt lat="42.3561664" lon="13.3459374"><ele>632.0</ele><time>2026-05-02T16:31:59.104Z</time></trkpt><trkpt lat="42.3562237" lon="13.3461293"><ele>632.0</ele><time>2026-05-02T16:32:00.101Z</time></trkpt><trkpt lat="42.3562726" lon="13.3463383"><ele>632.0</ele><time>2026-05-02T16:32:01.098Z</time></trkpt><trkpt lat="42.3563091" lon="13.3465235"><ele>632.0</ele><time>2026-05-02T16:32:02.105Z</time></trkpt><trkpt lat="42.3563403" lon="13.3467009"><ele>632.0</ele><time>2026-05-02T16:32:03.097Z</time></trkpt><trkpt lat="42.3563818" lon="13.3468816"><ele>632.0</ele><time>2026-05-02T16:32:04.102Z</time></trkpt><trkpt lat="42.3564224" lon="13.347047"><ele>633.25</ele><time>2026-05-02T16:32:05.093Z</time></trkpt><trkpt lat="42.3564621" lon="13.3472332"><ele>634.5</ele><time>2026-05-02T16:32:06.097Z</time></trkpt><trkpt lat="42.3564903" lon="13.3474023"><ele>635.75</ele><time>2026-05-02T16:32:07.102Z</time></trkpt><trkpt lat="42.3565301" lon="13.3475618"><ele>637.0</ele><time>2026-05-02T16:32:08.105Z</time></trkpt><trkpt lat="42.356574" lon="13.3477359"><ele>637.0</ele><time>2026-05-02T16:32:09.103Z</time></trkpt><trkpt lat="42.3566138" lon="13.3478905"><ele>637.0</ele><time>2026-05-02T16:32:10.101Z</time></trkpt><trkpt lat="42.3566658" lon="13.3480488"><ele>637.0</ele><time>2026-05-02T16:32:11.101Z</time></trkpt><trkpt lat="42.3566905" lon="13.3481889"><ele>637.0</ele><time>2026-05-02T16:32:12.103Z</time></trkpt><trkpt lat="42.3567195" lon="13.3483161"><ele>636.4</ele><time>2026-05-02T16:32:13.11Z</time></trkpt><trkpt lat="42.3567433" lon="13.3484536"><ele>635.8000000000001</ele><time>2026-05-02T16:32:14.102Z</time></trkpt><trkpt lat="42.3567809" lon="13.348595"><ele>635.2</ele><time>2026-05-02T16:32:15.103Z</time></trkpt><trkpt lat="42.3568206" lon="13.3487268"><ele>634.6</ele><time>2026-05-02T16:32:16.098Z</time></trkpt><trkpt lat="42.3568526" lon="13.34886"><ele>634.0</ele><time>2026-05-02T16:32:17.103Z</time></trkpt><trkpt lat="42.3568798" lon="13.3489901"><ele>633.8333333333334</ele><time>2026-05-02T16:32:18.099Z</time></trkpt><trkpt lat="42.3568979" lon="13.3491148"><ele>633.6666666666667</ele><time>2026-05-02T16:32:19.097Z</time></trkpt><trkpt lat="42.3569159" lon="13.3492332"><ele>633.5</ele><time>2026-05-02T16:32:20.092Z</time></trkpt><trkpt lat="42.3569248" lon="13.3493275"><ele>633.3333333333334</ele><time>2026-05-02T16:32:21.097Z</time></trkpt><trkpt lat="42.3569364" lon="13.3494615"><ele>633.1666666666666</ele><time>2026-05-02T16:32:23.095Z</time></trkpt><trkpt lat="42.3569217" lon="13.349572"><ele>633.0</ele><time>2026-05-02T16:32:26.102Z</time></trkpt><trkpt lat="42.3568905" lon="13.3496732"><ele>632.6666666666666</ele><time>2026-05-02T16:32:28.094Z</time></trkpt><trkpt lat="42.3568611" lon="13.3497668"><ele>632.3333333333334</ele><time>2026-05-02T16:32:29.099Z</time></trkpt><trkpt lat="42.3568488" lon="13.3498743"><ele>632.0</ele><time>2026-05-02T16:32:30.098Z</time></trkpt><trkpt lat="42.3568578" lon="13.3499829"><ele>631.6666666666667</ele><time>2026-05-02T16:32:31.104Z</time></trkpt><trkpt lat="42.3568806" lon="13.3500858"><ele>631.3333333333334</ele><time>2026-05-02T16:32:32.092Z</time></trkpt><trkpt lat="42.3569164" lon="13.3501741"><ele>631.0</ele><time>2026-05-02T16:32:33.093Z</time></trkpt><trkpt lat="42.3569723" lon="13.3502526"><ele>631.0</ele><time>2026-05-02T16:32:34.096Z</time></trkpt><trkpt lat="42.3570435" lon="13.3503098"><ele>631.0</ele><time>2026-05-02T16:32:35.087Z</time></trkpt><trkpt lat="42.3571316" lon="13.350352"><ele>631.0</ele><time>2026-05-02T16:32:36.09Z</time></trkpt><trkpt lat="42.3572311" lon="13.3503784"><ele>631.0</ele><time>2026-05-02T16:32:37.094Z</time></trkpt><trkpt lat="42.3573304" lon="13.3503925"><ele>631.0</ele><time>2026-05-02T16:32:38.092Z</time></trkpt><trkpt lat="42.3574322" lon="13.3504011"><ele>631.0</ele><time>2026-05-02T16:32:39.1Z</time></trkpt><trkpt lat="42.3575307" lon="13.3504306"><ele>631.0</ele><time>2026-05-02T16:32:40.1Z</time></trkpt><trkpt lat="42.3576266" lon="13.35049"><ele>631.0</ele><time>2026-05-02T16:32:41.102Z</time></trkpt><trkpt lat="42.3577147" lon="13.3505629"><ele>631.0</ele><time>2026-05-02T16:32:42.107Z</time></trkpt><trkpt lat="42.3577907" lon="13.3506489"><ele>631.0</ele><time>2026-05-02T16:32:43.108Z</time></trkpt><trkpt lat="42.3578625" lon="13.3507355"><ele>631.0</ele><time>2026-05-02T16:32:44.108Z</time></trkpt><trkpt lat="42.3579345" lon="13.3508275"><ele>631.0</ele><time>2026-05-02T16:32:45.107Z</time></trkpt><trkpt lat="42.3580042" lon="13.3509189"><ele>631.0</ele><time>2026-05-02T16:32:46.112Z</time></trkpt><trkpt lat="42.3580737" lon="13.3510141"><ele>631.0</ele><time>2026-05-02T16:32:47.108Z</time></trkpt><trkpt lat="42.3581412" lon="13.3511169"><ele>631.0</ele><time>2026-05-02T16:32:48.107Z</time></trkpt><trkpt lat="42.3582041" lon="13.351222"><ele>630.6</ele><time>2026-05-02T16:32:49.105Z</time></trkpt><trkpt lat="42.358265" lon="13.3513384"><ele>630.2</ele><time>2026-05-02T16:32:50.11Z</time></trkpt><trkpt lat="42.3583181" lon="13.3514567"><ele>629.8</ele><time>2026-05-02T16:32:51.101Z</time></trkpt><trkpt lat="42.3583754" lon="13.3515669"><ele>629.4</ele><time>2026-05-02T16:32:52.107Z</time></trkpt><trkpt lat="42.3584385" lon="13.3516772"><ele>629.0</ele><time>2026-05-02T16:32:53.109Z</time></trkpt><trkpt lat="42.3584907" lon="13.3517868"><ele>628.8333333333333</ele><time>2026-05-02T16:32:54.104Z</time></trkpt><trkpt lat="42.3585444" lon="13.351895"><ele>628.6666666666666</ele><time>2026-05-02T16:32:55.104Z</time></trkpt><trkpt lat="42.3585934" lon="13.3519923"><ele>628.5</ele><time>2026-05-02T16:32:56.11Z</time></trkpt><trkpt lat="42.3586367" lon="13.3520812"><ele>628.3333333333334</ele><time>2026-05-02T16:32:57.113Z</time></trkpt><trkpt lat="42.3586707" lon="13.3521753"><ele>628.1666666666667</ele><time>2026-05-02T16:32:58.112Z</time></trkpt><trkpt lat="42.3586943" lon="13.3522733"><ele>628.0</ele><time>2026-05-02T16:32:59.103Z</time></trkpt><trkpt lat="42.3586885" lon="13.3523773"><ele>628.0</ele><time>2026-05-02T16:33:00.102Z</time></trkpt><trkpt lat="42.3586831" lon="13.3525028"><ele>628.0</ele><time>2026-05-02T16:33:01.109Z</time></trkpt><trkpt lat="42.3587042" lon="13.3526345"><ele>628.0</ele><time>2026-05-02T16:33:02.096Z</time></trkpt><trkpt lat="42.3587599" lon="13.3527619"><ele>628.0</ele><time>2026-05-02T16:33:03.095Z</time></trkpt><trkpt lat="42.3588344" lon="13.3528824"><ele>628.0</ele><time>2026-05-02T16:33:04.101Z</time></trkpt><trkpt lat="42.3589003" lon="13.3529984"><ele>628.5</ele><time>2026-05-02T16:33:05.103Z</time></trkpt><trkpt lat="42.3589484" lon="13.3531315"><ele>629.0</ele><time>2026-05-02T16:33:06.101Z</time></trkpt><trkpt lat="42.3589899" lon="13.3532733"><ele>629.5</ele><time>2026-05-02T16:33:07.096Z</time></trkpt><trkpt lat="42.3590436" lon="13.3534322"><ele>630.0</ele><time>2026-05-02T16:33:08.1Z</time></trkpt><trkpt lat="42.3590939" lon="13.3536006"><ele>630.0</ele><time>2026-05-02T16:33:09.094Z</time></trkpt><trkpt lat="42.3591363" lon="13.353763"><ele>630.0</ele><time>2026-05-02T16:33:10.1Z</time></trkpt><trkpt lat="42.3591762" lon="13.3539111"><ele>630.0</ele><time>2026-05-02T16:33:11.101Z</time></trkpt><trkpt lat="42.3592124" lon="13.3540539"><ele>630.0</ele><time>2026-05-02T16:33:12.104Z</time></trkpt><trkpt lat="42.3592483" lon="13.3542026"><ele>629.5</ele><time>2026-05-02T16:33:13.1Z</time></trkpt><trkpt lat="42.3592859" lon="13.3543484"><ele>629.0</ele><time>2026-05-02T16:33:14.108Z</time></trkpt><trkpt lat="42.3593283" lon="13.3545066"><ele>628.5</ele><time>2026-05-02T16:33:15.105Z</time></trkpt><trkpt lat="42.3593646" lon="13.3546667"><ele>628.0</ele><time>2026-05-02T16:33:16.102Z</time></trkpt><trkpt lat="42.3594082" lon="13.354825"><ele>628.0</ele><time>2026-05-02T16:33:17.106Z</time></trkpt><trkpt lat="42.3594506" lon="13.3549854"><ele>628.0</ele><time>2026-05-02T16:33:18.107Z</time></trkpt><trkpt lat="42.3594958" lon="13.3551522"><ele>628.0</ele><time>2026-05-02T16:33:19.102Z</time></trkpt><trkpt lat="42.3595458" lon="13.3553196"><ele>628.0</ele><time>2026-05-02T16:33:20.108Z</time></trkpt><trkpt lat="42.3595946" lon="13.35549"><ele>627.5</ele><time>2026-05-02T16:33:21.102Z</time></trkpt><trkpt lat="42.3596419" lon="13.3556556"><ele>627.0</ele><time>2026-05-02T16:33:22.107Z</time></trkpt><trkpt lat="42.3596859" lon="13.3558229"><ele>626.5</ele><time>2026-05-02T16:33:23.102Z</time></trkpt><trkpt lat="42.359735" lon="13.3559915"><ele>626.0</ele><time>2026-05-02T16:33:24.104Z</time></trkpt><trkpt lat="42.3597768" lon="13.3561596"><ele>626.0</ele><time>2026-05-02T16:33:25.1Z</time></trkpt><trkpt lat="42.3598148" lon="13.3563356"><ele>626.0</ele><time>2026-05-02T16:33:26.105Z</time></trkpt><trkpt lat="42.3598531" lon="13.356509"><ele>626.0</ele><time>2026-05-02T16:33:27.104Z</time></trkpt><trkpt lat="42.3598955" lon="13.3566779"><ele>626.0</ele><time>2026-05-02T16:33:28.105Z</time></trkpt><trkpt lat="42.3599372" lon="13.3568412"><ele>626.0</ele><time>2026-05-02T16:33:29.104Z</time></trkpt><trkpt lat="42.3599686" lon="13.3570095"><ele>626.0</ele><time>2026-05-02T16:33:30.107Z</time></trkpt><trkpt lat="42.3599958" lon="13.357179"><ele>626.0</ele><time>2026-05-02T16:33:31.102Z</time></trkpt><trkpt lat="42.3600128" lon="13.3573441"><ele>626.0</ele><time>2026-05-02T16:33:32.104Z</time></trkpt><trkpt lat="42.3600191" lon="13.3575295"><ele>626.0</ele><time>2026-05-02T16:33:33.092Z</time></trkpt><trkpt lat="42.3600201" lon="13.3577199"><ele>626.0</ele><time>2026-05-02T16:33:34.098Z</time></trkpt><trkpt lat="42.3599984" lon="13.3579008"><ele>626.0</ele><time>2026-05-02T16:33:35.098Z</time></trkpt><trkpt lat="42.3599793" lon="13.3580816"><ele>626.0</ele><time>2026-05-02T16:33:36.102Z</time></trkpt><trkpt lat="42.3599618" lon="13.3582462"><ele>626.0</ele><time>2026-05-02T16:33:37.1Z</time></trkpt><trkpt lat="42.3599309" lon="13.3584117"><ele>626.0</ele><time>2026-05-02T16:33:38.097Z</time></trkpt><trkpt lat="42.359905" lon="13.3585745"><ele>626.0</ele><time>2026-05-02T16:33:39.098Z</time></trkpt><trkpt lat="42.3598754" lon="13.3587249"><ele>626.0</ele><time>2026-05-02T16:33:40.1Z</time></trkpt><trkpt lat="42.359837" lon="13.3588779"><ele>625.5</ele><time>2026-05-02T16:33:41.098Z</time></trkpt><trkpt lat="42.3597877" lon="13.3590231"><ele>625.0</ele><time>2026-05-02T16:33:42.096Z</time></trkpt><trkpt lat="42.3597395" lon="13.3591668"><ele>624.5</ele><time>2026-05-02T16:33:43.094Z</time></trkpt><trkpt lat="42.3596853" lon="13.3593192"><ele>624.0</ele><time>2026-05-02T16:33:44.1Z</time></trkpt><trkpt lat="42.3596327" lon="13.3594763"><ele>624.0</ele><time>2026-05-02T16:33:45.094Z</time></trkpt><trkpt lat="42.3595791" lon="13.3596371"><ele>624.0</ele><time>2026-05-02T16:33:46.102Z</time></trkpt><trkpt lat="42.3595283" lon="13.3598021"><ele>624.0</ele><time>2026-05-02T16:33:47.093Z</time></trkpt><trkpt lat="42.3594802" lon="13.3599741"><ele>624.0</ele><time>2026-05-02T16:33:48.099Z</time></trkpt><trkpt lat="42.3594314" lon="13.3601502"><ele>624.75</ele><time>2026-05-02T16:33:49.096Z</time></trkpt><trkpt lat="42.3593861" lon="13.3603166"><ele>625.5</ele><time>2026-05-02T16:33:50.097Z</time></trkpt><trkpt lat="42.3593404" lon="13.3604815"><ele>626.25</ele><time>2026-05-02T16:33:51.098Z</time></trkpt><trkpt lat="42.3593007" lon="13.3606415"><ele>627.0</ele><time>2026-05-02T16:33:52.101Z</time></trkpt><trkpt lat="42.3592602" lon="13.3608073"><ele>627.25</ele><time>2026-05-02T16:33:53.1Z</time></trkpt><trkpt lat="42.3592125" lon="13.3609743"><ele>627.5</ele><time>2026-05-02T16:33:54.105Z</time></trkpt><trkpt lat="42.3591685" lon="13.3611475"><ele>627.75</ele><time>2026-05-02T16:33:55.098Z</time></trkpt><trkpt lat="42.3591188" lon="13.3612995"><ele>628.0</ele><time>2026-05-02T16:33:56.098Z</time></trkpt><trkpt lat="42.3590543" lon="13.3614455"><ele>629.5</ele><time>2026-05-02T16:33:57.102Z</time></trkpt><trkpt lat="42.3590152" lon="13.3616085"><ele>631.0</ele><time>2026-05-02T16:33:58.098Z</time></trkpt><trkpt lat="42.3589644" lon="13.3617781"><ele>632.5</ele><time>2026-05-02T16:33:59.096Z</time></trkpt><trkpt lat="42.3589158" lon="13.3619313"><ele>634.0</ele><time>2026-05-02T16:34:00.096Z</time></trkpt><trkpt lat="42.3588808" lon="13.362065"><ele>632.0</ele><time>2026-05-02T16:34:01.086Z</time></trkpt><trkpt lat="42.3588229" lon="13.3622447"><ele>630.0</ele><time>2026-05-02T16:34:02.084Z</time></trkpt><trkpt lat="42.3587867" lon="13.3623848"><ele>628.0</ele><time>2026-05-02T16:34:03.091Z</time></trkpt><trkpt lat="42.3587418" lon="13.3625217"><ele>626.0</ele><time>2026-05-02T16:34:04.096Z</time></trkpt><trkpt lat="42.3586938" lon="13.3626687"><ele>626.0</ele><time>2026-05-02T16:34:05.095Z</time></trkpt><trkpt lat="42.3586576" lon="13.3628058"><ele>626.0</ele><time>2026-05-02T16:34:06.098Z</time></trkpt><trkpt lat="42.3586222" lon="13.3629421"><ele>626.0</ele><time>2026-05-02T16:34:07.097Z</time></trkpt><trkpt lat="42.358584" lon="13.3630785"><ele>626.0</ele><time>2026-05-02T16:34:08.099Z</time></trkpt><trkpt lat="42.3585461" lon="13.3632086"><ele>626.0</ele><time>2026-05-02T16:34:09.096Z</time></trkpt><trkpt lat="42.358508" lon="13.3633341"><ele>626.4</ele><time>2026-05-02T16:34:10.097Z</time></trkpt><trkpt lat="42.3584698" lon="13.3634585"><ele>626.8</ele><time>2026-05-02T16:34:11.09Z</time></trkpt><trkpt lat="42.3584306" lon="13.3635891"><ele>627.1999999999999</ele><time>2026-05-02T16:34:12.098Z</time></trkpt><trkpt lat="42.358398" lon="13.3637114"><ele>627.6</ele><time>2026-05-02T16:34:13.095Z</time></trkpt><trkpt lat="42.3583651" lon="13.3638314"><ele>628.0</ele><time>2026-05-02T16:34:14.092Z</time></trkpt><trkpt lat="42.3583343" lon="13.3639547"><ele>628.4</ele><time>2026-05-02T16:34:15.096Z</time></trkpt><trkpt lat="42.3583042" lon="13.3640778"><ele>628.8</ele><time>2026-05-02T16:34:16.098Z</time></trkpt><trkpt lat="42.3582728" lon="13.3642034"><ele>629.2</ele><time>2026-05-02T16:34:17.098Z</time></trkpt><trkpt lat="42.3582466" lon="13.3643283"><ele>629.6</ele><time>2026-05-02T16:34:18.096Z</time></trkpt><trkpt lat="42.3582201" lon="13.3644472"><ele>630.0</ele><time>2026-05-02T16:34:19.094Z</time></trkpt><trkpt lat="42.3581978" lon="13.3645604"><ele>630.0</ele><time>2026-05-02T16:34:20.096Z</time></trkpt><trkpt lat="42.358174" lon="13.3646692"><ele>630.0</ele><time>2026-05-02T16:34:21.096Z</time></trkpt><trkpt lat="42.3581539" lon="13.3647674"><ele>630.0</ele><time>2026-05-02T16:34:22.101Z</time></trkpt><trkpt lat="42.3581393" lon="13.3648726"><ele>630.0</ele><time>2026-05-02T16:34:23.095Z</time></trkpt><trkpt lat="42.3581347" lon="13.3649882"><ele>630.0</ele><time>2026-05-02T16:34:24.103Z</time></trkpt><trkpt lat="42.3581268" lon="13.3651099"><ele>630.0</ele><time>2026-05-02T16:34:25.096Z</time></trkpt><trkpt lat="42.3581223" lon="13.3652334"><ele>629.8333333333334</ele><time>2026-05-02T16:34:26.1Z</time></trkpt><trkpt lat="42.3581224" lon="13.3653494"><ele>629.6666666666666</ele><time>2026-05-02T16:34:27.097Z</time></trkpt><trkpt lat="42.3581275" lon="13.3654596"><ele>629.5</ele><time>2026-05-02T16:34:28.097Z</time></trkpt><trkpt lat="42.3581332" lon="13.3655611"><ele>629.3333333333333</ele><time>2026-05-02T16:34:29.099Z</time></trkpt><trkpt lat="42.358145" lon="13.3656759"><ele>629.1666666666666</ele><time>2026-05-02T16:34:30.102Z</time></trkpt><trkpt lat="42.358164" lon="13.3657974"><ele>629.0</ele><time>2026-05-02T16:34:31.102Z</time></trkpt><trkpt lat="42.358184" lon="13.3659197"><ele>628.8</ele><time>2026-05-02T16:34:32.095Z</time></trkpt><trkpt lat="42.3582124" lon="13.3660373"><ele>628.5999999999999</ele><time>2026-05-02T16:34:33.092Z</time></trkpt><trkpt lat="42.358246" lon="13.3661616"><ele>628.4</ele><time>2026-05-02T16:34:34.098Z</time></trkpt><trkpt lat="42.3582834" lon="13.366282"><ele>628.1999999999999</ele><time>2026-05-02T16:34:35.099Z</time></trkpt><trkpt lat="42.3583262" lon="13.3663979"><ele>628.0</ele><time>2026-05-02T16:34:36.094Z</time></trkpt><trkpt lat="42.3583725" lon="13.3665138"><ele>628.0</ele><time>2026-05-02T16:34:37.095Z</time></trkpt><trkpt lat="42.3584211" lon="13.366622"><ele>628.0</ele><time>2026-05-02T16:34:38.102Z</time></trkpt><trkpt lat="42.3584729" lon="13.366726"><ele>628.0</ele><time>2026-05-02T16:34:39.098Z</time></trkpt><trkpt lat="42.3585289" lon="13.3668323"><ele>628.0</ele><time>2026-05-02T16:34:40.093Z</time></trkpt><trkpt lat="42.3585775" lon="13.3669385"><ele>628.0</ele><time>2026-05-02T16:34:41.096Z</time></trkpt><trkpt lat="42.358626" lon="13.3670326"><ele>628.0</ele><time>2026-05-02T16:34:42.099Z</time></trkpt><trkpt lat="42.3586677" lon="13.3671281"><ele>628.0</ele><time>2026-05-02T16:34:43.104Z</time></trkpt><trkpt lat="42.3587062" lon="13.3672261"><ele>628.0</ele><time>2026-05-02T16:34:44.095Z</time></trkpt><trkpt lat="42.3587427" lon="13.3673234"><ele>628.0</ele><time>2026-05-02T16:34:45.104Z</time></trkpt><trkpt lat="42.3587786" lon="13.3674099"><ele>628.0</ele><time>2026-05-02T16:34:46.096Z</time></trkpt><trkpt lat="42.3588153" lon="13.3675016"><ele>628.0</ele><time>2026-05-02T16:34:47.107Z</time></trkpt><trkpt lat="42.3588559" lon="13.3675929"><ele>628.1666666666667</ele><time>2026-05-02T16:34:48.101Z</time></trkpt><trkpt lat="42.3588929" lon="13.3676851"><ele>628.3333333333334</ele><time>2026-05-02T16:34:49.108Z</time></trkpt><trkpt lat="42.3589299" lon="13.3677816"><ele>628.5</ele><time>2026-05-02T16:34:50.095Z</time></trkpt><trkpt lat="42.3589604" lon="13.3678635"><ele>628.6666666666666</ele><time>2026-05-02T16:34:51.102Z</time></trkpt><trkpt lat="42.3589814" lon="13.3679877"><ele>628.8333333333333</ele><time>2026-05-02T16:34:53.097Z</time></trkpt><trkpt lat="42.358969" lon="13.3681234"><ele>629.0</ele><time>2026-05-02T16:34:56.097Z</time></trkpt><trkpt lat="42.3590023" lon="13.3682802"><ele>629.0</ele><time>2026-05-02T16:34:58.094Z</time></trkpt><trkpt lat="42.3590413" lon="13.3683713"><ele>629.0</ele><time>2026-05-02T16:34:59.099Z</time></trkpt><trkpt lat="42.3590807" lon="13.3684789"><ele>629.0</ele><time>2026-05-02T16:35:00.1Z</time></trkpt><trkpt lat="42.3591134" lon="13.368592"><ele>629.0</ele><time>2026-05-02T16:35:01.099Z</time></trkpt><trkpt lat="42.3591328" lon="13.3687142"><ele>629.0</ele><time>2026-05-02T16:35:02.104Z</time></trkpt><trkpt lat="42.3591482" lon="13.3688365"><ele>629.0</ele><time>2026-05-02T16:35:03.097Z</time></trkpt><trkpt lat="42.3591706" lon="13.3689551"><ele>629.1666666666666</ele><time>2026-05-02T16:35:04.103Z</time></trkpt><trkpt lat="42.3591883" lon="13.3690787"><ele>629.3333333333333</ele><time>2026-05-02T16:35:05.094Z</time></trkpt><trkpt lat="42.3592049" lon="13.3692096"><ele>629.5</ele><time>2026-05-02T16:35:06.098Z</time></trkpt><trkpt lat="42.3592196" lon="13.3693291"><ele>629.6666666666666</ele><time>2026-05-02T16:35:07.096Z</time></trkpt><trkpt lat="42.3592372" lon="13.3694322"><ele>629.8333333333334</ele><time>2026-05-02T16:35:08.106Z</time></trkpt><trkpt lat="42.3592499" lon="13.3695178"><ele>630.0</ele><time>2026-05-02T16:35:09.097Z</time></trkpt><trkpt lat="42.3592659" lon="13.3696602"><ele>630.4</ele><time>2026-05-02T16:35:11.097Z</time></trkpt><trkpt lat="42.3592878" lon="13.3697668"><ele>630.8</ele><time>2026-05-02T16:35:13.095Z</time></trkpt><trkpt lat="42.3592964" lon="13.369945"><ele>631.2</ele><time>2026-05-02T16:35:15.09Z</time></trkpt><trkpt lat="42.359319" lon="13.3700835"><ele>631.6</ele><time>2026-05-02T16:35:16.099Z</time></trkpt><trkpt lat="42.3593446" lon="13.3702291"><ele>632.0</ele><time>2026-05-02T16:35:17.1Z</time></trkpt><trkpt lat="42.3593703" lon="13.3703942"><ele>633.6666666666666</ele><time>2026-05-02T16:35:18.098Z</time></trkpt><trkpt lat="42.3594013" lon="13.3705763"><ele>635.3333333333334</ele><time>2026-05-02T16:35:19.096Z</time></trkpt><trkpt lat="42.3594314" lon="13.3707612"><ele>637.0</ele><time>2026-05-02T16:35:20.092Z</time></trkpt><trkpt lat="42.3594492" lon="13.3709991"><ele>637.0</ele><time>2026-05-02T16:35:21.091Z</time></trkpt><trkpt lat="42.35948" lon="13.3712045"><ele>637.0</ele><time>2026-05-02T16:35:22.093Z</time></trkpt><trkpt lat="42.3595049" lon="13.3713975"><ele>637.0</ele><time>2026-05-02T16:35:23.091Z</time></trkpt><trkpt lat="42.3595468" lon="13.3716084"><ele>637.25</ele><time>2026-05-02T16:35:24.102Z</time></trkpt><trkpt lat="42.3595786" lon="13.3718197"><ele>637.5</ele><time>2026-05-02T16:35:25.1Z</time></trkpt><trkpt lat="42.3595983" lon="13.372014"><ele>637.75</ele><time>2026-05-02T16:35:26.1Z</time></trkpt><trkpt lat="42.3596334" lon="13.3722045"><ele>638.0</ele><time>2026-05-02T16:35:27.102Z</time></trkpt><trkpt lat="42.3596693" lon="13.3723817"><ele>638.5</ele><time>2026-05-02T16:35:28.099Z</time></trkpt><trkpt lat="42.3596919" lon="13.3725387"><ele>639.0</ele><time>2026-05-02T16:35:29.099Z</time></trkpt><trkpt lat="42.3597157" lon="13.3726894"><ele>639.5</ele><time>2026-05-02T16:35:30.104Z</time></trkpt><trkpt lat="42.3597414" lon="13.372843"><ele>640.0</ele><time>2026-05-02T16:35:31.1Z</time></trkpt><trkpt lat="42.3597579" lon="13.3729917"><ele>641.0</ele><time>2026-05-02T16:35:32.103Z</time></trkpt><trkpt lat="42.3597799" lon="13.3731443"><ele>642.0</ele><time>2026-05-02T16:35:33.097Z</time></trkpt><trkpt lat="42.3598018" lon="13.3733022"><ele>643.0</ele><time>2026-05-02T16:35:34.098Z</time></trkpt><trkpt lat="42.3598226" lon="13.3734583"><ele>644.0</ele><time>2026-05-02T16:35:35.103Z</time></trkpt><trkpt lat="42.359842" lon="13.3736071"><ele>644.0</ele><time>2026-05-02T16:35:36.098Z</time></trkpt><trkpt lat="42.3598578" lon="13.3737415"><ele>644.0</ele><time>2026-05-02T16:35:37.101Z</time></trkpt><trkpt lat="42.3598737" lon="13.3738721"><ele>644.0</ele><time>2026-05-02T16:35:38.102Z</time></trkpt><trkpt lat="42.3598864" lon="13.3739951"><ele>644.0</ele><time>2026-05-02T16:35:39.092Z</time></trkpt><trkpt lat="42.3598981" lon="13.3741222"><ele>644.0</ele><time>2026-05-02T16:35:40.095Z</time></trkpt><trkpt lat="42.3599113" lon="13.3742445"><ele>644.2</ele><time>2026-05-02T16:35:41.099Z</time></trkpt><trkpt lat="42.3599267" lon="13.374365"><ele>644.4000000000001</ele><time>2026-05-02T16:35:42.103Z</time></trkpt><trkpt lat="42.3599419" lon="13.3744828"><ele>644.6</ele><time>2026-05-02T16:35:43.101Z</time></trkpt><trkpt lat="42.3599594" lon="13.3746113"><ele>644.8</ele><time>2026-05-02T16:35:44.102Z</time></trkpt><trkpt lat="42.3599806" lon="13.3747353"><ele>645.0</ele><time>2026-05-02T16:35:45.101Z</time></trkpt><trkpt lat="42.3600018" lon="13.3748589"><ele>645.2</ele><time>2026-05-02T16:35:46.1Z</time></trkpt><trkpt lat="42.3600262" lon="13.3749863"><ele>645.4</ele><time>2026-05-02T16:35:47.1Z</time></trkpt><trkpt lat="42.3600486" lon="13.3751156"><ele>645.5999999999999</ele><time>2026-05-02T16:35:48.1Z</time></trkpt><trkpt lat="42.3600665" lon="13.3752503"><ele>645.8</ele><time>2026-05-02T16:35:49.101Z</time></trkpt><trkpt lat="42.3600868" lon="13.3753793"><ele>646.0</ele><time>2026-05-02T16:35:50.1Z</time></trkpt><trkpt lat="42.3601079" lon="13.3755036"><ele>646.3333333333334</ele><time>2026-05-02T16:35:51.102Z</time></trkpt><trkpt lat="42.3601307" lon="13.3756181"><ele>646.6666666666667</ele><time>2026-05-02T16:35:52.103Z</time></trkpt><trkpt lat="42.3601505" lon="13.3757279"><ele>647.0</ele><time>2026-05-02T16:35:53.097Z</time></trkpt><trkpt lat="42.3601647" lon="13.3758252"><ele>647.3333333333334</ele><time>2026-05-02T16:35:54.1Z</time></trkpt><trkpt lat="42.3601838" lon="13.3759278"><ele>647.6666666666666</ele><time>2026-05-02T16:35:55.1Z</time></trkpt><trkpt lat="42.3601967" lon="13.3760291"><ele>648.0</ele><time>2026-05-02T16:35:56.103Z</time></trkpt><trkpt lat="42.3602117" lon="13.3761231"><ele>648.0</ele><time>2026-05-02T16:35:57.099Z</time></trkpt><trkpt lat="42.3602305" lon="13.376216"><ele>648.0</ele><time>2026-05-02T16:35:58.097Z</time></trkpt><trkpt lat="42.360243" lon="13.376319"><ele>648.0</ele><time>2026-05-02T16:35:59.095Z</time></trkpt><trkpt lat="42.3602595" lon="13.3764342"><ele>648.0</ele><time>2026-05-02T16:36:00.098Z</time></trkpt><trkpt lat="42.3602762" lon="13.3765536"><ele>648.0</ele><time>2026-05-02T16:36:01.093Z</time></trkpt><trkpt lat="42.3602882" lon="13.376668"><ele>648.0</ele><time>2026-05-02T16:36:02.097Z</time></trkpt><trkpt lat="42.3602994" lon="13.3767807"><ele>648.3333333333334</ele><time>2026-05-02T16:36:03.097Z</time></trkpt><trkpt lat="42.3603097" lon="13.376908"><ele>648.6666666666666</ele><time>2026-05-02T16:36:04.093Z</time></trkpt><trkpt lat="42.3603218" lon="13.3770234"><ele>649.0</ele><time>2026-05-02T16:36:05.095Z</time></trkpt><trkpt lat="42.3603331" lon="13.3771308"><ele>649.3333333333333</ele><time>2026-05-02T16:36:06.095Z</time></trkpt><trkpt lat="42.3603332" lon="13.3772203"><ele>649.6666666666666</ele><time>2026-05-02T16:36:07.096Z</time></trkpt><trkpt lat="42.3603344" lon="13.377363"><ele>650.0</ele><time>2026-05-02T16:36:09.098Z</time></trkpt><trkpt lat="42.3603407" lon="13.3775059"><ele>650.0</ele><time>2026-05-02T16:36:11.093Z</time></trkpt><trkpt lat="42.3603401" lon="13.3775979"><ele>650.0</ele><time>2026-05-02T16:36:12.096Z</time></trkpt><trkpt lat="42.3603453" lon="13.3777509"><ele>650.0</ele><time>2026-05-02T16:36:14.095Z</time></trkpt><trkpt lat="42.3603424" lon="13.377854"><ele>650.0</ele><time>2026-05-02T16:36:16.093Z</time></trkpt><trkpt lat="42.3603466" lon="13.3779833"><ele>650.0</ele><time>2026-05-02T16:36:19.095Z</time></trkpt><trkpt lat="42.3603439" lon="13.3780753"><ele>650.0</ele><time>2026-05-02T16:36:20.098Z</time></trkpt><trkpt lat="42.3603353" lon="13.3781796"><ele>650.2</ele><time>2026-05-02T16:36:21.096Z</time></trkpt><trkpt lat="42.3603197" lon="13.3782964"><ele>650.4</ele><time>2026-05-02T16:36:22.1Z</time></trkpt><trkpt lat="42.3603046" lon="13.3784056"><ele>650.5999999999999</ele><time>2026-05-02T16:36:23.092Z</time></trkpt><trkpt lat="42.3602822" lon="13.3785485"><ele>650.8</ele><time>2026-05-02T16:36:25.094Z</time></trkpt><trkpt lat="42.3602575" lon="13.3786867"><ele>651.0</ele><time>2026-05-02T16:36:27.095Z</time></trkpt><trkpt lat="42.3602203" lon="13.378846"><ele>651.1666666666666</ele><time>2026-05-02T16:36:29.1Z</time></trkpt><trkpt lat="42.3601948" lon="13.3789274"><ele>651.3333333333334</ele><time>2026-05-02T16:36:30.101Z</time></trkpt><trkpt lat="42.3601615" lon="13.3790217"><ele>651.5</ele><time>2026-05-02T16:36:31.094Z</time></trkpt><trkpt lat="42.3601232" lon="13.3791229"><ele>651.6666666666667</ele><time>2026-05-02T16:36:32.094Z</time></trkpt><trkpt lat="42.3600894" lon="13.3792144"><ele>651.8333333333334</ele><time>2026-05-02T16:36:33.095Z</time></trkpt><trkpt lat="42.3600539" lon="13.379301"><ele>652.0</ele><time>2026-05-02T16:36:34.105Z</time></trkpt><trkpt lat="42.3600001" lon="13.379431"><ele>652.0</ele><time>2026-05-02T16:36:36.101Z</time></trkpt><trkpt lat="42.3599361" lon="13.3795576"><ele>652.0</ele><time>2026-05-02T16:36:38.103Z</time></trkpt><trkpt lat="42.3598875" lon="13.3796143"><ele>652.0</ele><time>2026-05-02T16:36:39.102Z</time></trkpt><trkpt lat="42.3598136" lon="13.3797461"><ele>652.0</ele><time>2026-05-02T16:36:41.099Z</time></trkpt><trkpt lat="42.3597906" lon="13.379831"><ele>652.0</ele><time>2026-05-02T16:36:42.104Z</time></trkpt><trkpt lat="42.3597978" lon="13.3799261"><ele>652.0</ele><time>2026-05-02T16:36:43.096Z</time></trkpt><trkpt lat="42.3598131" lon="13.3800849"><ele>651.8</ele><time>2026-05-02T16:36:45.096Z</time></trkpt><trkpt lat="42.3598016" lon="13.3801699"><ele>651.6</ele><time>2026-05-02T16:36:46.095Z</time></trkpt><trkpt lat="42.3597627" lon="13.3802743"><ele>651.4</ele><time>2026-05-02T16:36:47.096Z</time></trkpt><trkpt lat="42.3597018" lon="13.3804091"><ele>651.1999999999999</ele><time>2026-05-02T16:36:48.096Z</time></trkpt><trkpt lat="42.3596304" lon="13.3805507"><ele>651.0</ele><time>2026-05-02T16:36:49.1Z</time></trkpt><trkpt lat="42.3595513" lon="13.380693"><ele>650.75</ele><time>2026-05-02T16:36:50.108Z</time></trkpt><trkpt lat="42.3594751" lon="13.3808431"><ele>650.5</ele><time>2026-05-02T16:36:51.1Z</time></trkpt><trkpt lat="42.3594065" lon="13.3809953"><ele>650.25</ele><time>2026-05-02T16:36:52.1Z</time></trkpt><trkpt lat="42.3593437" lon="13.3811354"><ele>650.0</ele><time>2026-05-02T16:36:53.104Z</time></trkpt><trkpt lat="42.3592794" lon="13.3812719"><ele>649.75</ele><time>2026-05-02T16:36:54.103Z</time></trkpt><trkpt lat="42.3592198" lon="13.3814119"><ele>649.5</ele><time>2026-05-02T16:36:55.101Z</time></trkpt><trkpt lat="42.3591567" lon="13.3815445"><ele>649.25</ele><time>2026-05-02T16:36:56.097Z</time></trkpt><trkpt lat="42.3590973" lon="13.381676"><ele>649.0</ele><time>2026-05-02T16:36:57.106Z</time></trkpt><trkpt lat="42.3590404" lon="13.381812"><ele>649.0</ele><time>2026-05-02T16:36:58.101Z</time></trkpt><trkpt lat="42.3589778" lon="13.3819468"><ele>649.0</ele><time>2026-05-02T16:36:59.101Z</time></trkpt><trkpt lat="42.3589217" lon="13.3820873"><ele>649.0</ele><time>2026-05-02T16:37:00.106Z</time></trkpt><trkpt lat="42.3588566" lon="13.3822272"><ele>649.0</ele><time>2026-05-02T16:37:01.104Z</time></trkpt><trkpt lat="42.3587984" lon="13.3823571"><ele>649.4000000000001</ele><time>2026-05-02T16:37:02.103Z</time></trkpt><trkpt lat="42.3587439" lon="13.3824844"><ele>649.8</ele><time>2026-05-02T16:37:03.096Z</time></trkpt><trkpt lat="42.358692" lon="13.3826077"><ele>650.2</ele><time>2026-05-02T16:37:04.105Z</time></trkpt><trkpt lat="42.3586381" lon="13.3827222"><ele>650.5999999999999</ele><time>2026-05-02T16:37:05.103Z</time></trkpt><trkpt lat="42.3585855" lon="13.3828406"><ele>651.0</ele><time>2026-05-02T16:37:06.102Z</time></trkpt><trkpt lat="42.3585358" lon="13.3829556"><ele>650.6666666666666</ele><time>2026-05-02T16:37:07.099Z</time></trkpt><trkpt lat="42.3584885" lon="13.3830643"><ele>650.3333333333334</ele><time>2026-05-02T16:37:08.104Z</time></trkpt><trkpt lat="42.3584405" lon="13.3831691"><ele>650.0</ele><time>2026-05-02T16:37:09.103Z</time></trkpt><trkpt lat="42.3583884" lon="13.383263"><ele>649.6666666666667</ele><time>2026-05-02T16:37:10.105Z</time></trkpt><trkpt lat="42.358345" lon="13.3833685"><ele>649.3333333333334</ele><time>2026-05-02T16:37:11.099Z</time></trkpt><trkpt lat="42.3583003" lon="13.3834673"><ele>649.0</ele><time>2026-05-02T16:37:12.105Z</time></trkpt><trkpt lat="42.3582564" lon="13.3835663"><ele>649.0</ele><time>2026-05-02T16:37:13.103Z</time></trkpt><trkpt lat="42.3582075" lon="13.3836618"><ele>649.0</ele><time>2026-05-02T16:37:14.103Z</time></trkpt><trkpt lat="42.3581588" lon="13.383759"><ele>649.0</ele><time>2026-05-02T16:37:15.102Z</time></trkpt><trkpt lat="42.358115" lon="13.3838601"><ele>649.0</ele><time>2026-05-02T16:37:16.102Z</time></trkpt><trkpt lat="42.3580742" lon="13.3839557"><ele>649.0</ele><time>2026-05-02T16:37:17.101Z</time></trkpt><trkpt lat="42.3580341" lon="13.3840465"><ele>649.0</ele><time>2026-05-02T16:37:18.106Z</time></trkpt><trkpt lat="42.3579943" lon="13.3841301"><ele>649.0</ele><time>2026-05-02T16:37:19.109Z</time></trkpt><trkpt lat="42.3579506" lon="13.3842179"><ele>649.0</ele><time>2026-05-02T16:37:20.104Z</time></trkpt><trkpt lat="42.3579151" lon="13.3842997"><ele>649.0</ele><time>2026-05-02T16:37:21.106Z</time></trkpt><trkpt lat="42.3578827" lon="13.3843803"><ele>649.0</ele><time>2026-05-02T16:37:22.112Z</time></trkpt><trkpt lat="42.3578529" lon="13.3844576"><ele>649.0</ele><time>2026-05-02T16:37:23.102Z</time></trkpt><trkpt lat="42.3578059" lon="13.3846013"><ele>649.0</ele><time>2026-05-02T16:37:25.098Z</time></trkpt><trkpt lat="42.3577723" lon="13.3847345"><ele>649.0</ele><time>2026-05-02T16:37:27.103Z</time></trkpt><trkpt lat="42.3577499" lon="13.3848826"><ele>649.0</ele><time>2026-05-02T16:37:29.104Z</time></trkpt><trkpt lat="42.357723" lon="13.3849675"><ele>649.0</ele><time>2026-05-02T16:37:30.101Z</time></trkpt><trkpt lat="42.3576897" lon="13.3850499"><ele>649.0</ele><time>2026-05-02T16:37:31.103Z</time></trkpt><trkpt lat="42.3576571" lon="13.3851272"><ele>649.0</ele><time>2026-05-02T16:37:32.104Z</time></trkpt><trkpt lat="42.3576159" lon="13.3852069"><ele>649.0</ele><time>2026-05-02T16:37:33.102Z</time></trkpt><trkpt lat="42.3575654" lon="13.3852779"><ele>648.9999999999999</ele><time>2026-05-02T16:37:34.099Z</time></trkpt><trkpt lat="42.3575122" lon="13.3853456"><ele>649.0</ele><time>2026-05-02T16:37:35.104Z</time></trkpt><trkpt lat="42.3574665" lon="13.385417"><ele>649.0</ele><time>2026-05-02T16:37:36.102Z</time></trkpt><trkpt lat="42.3574206" lon="13.3854953"><ele>649.0</ele><time>2026-05-02T16:37:37.101Z</time></trkpt><trkpt lat="42.3573712" lon="13.3855731"><ele>649.0</ele><time>2026-05-02T16:37:38.105Z</time></trkpt><trkpt lat="42.3573238" lon="13.3856487"><ele>648.9999999999999</ele><time>2026-05-02T16:37:39.101Z</time></trkpt><trkpt lat="42.357278" lon="13.3857252"><ele>649.0</ele><time>2026-05-02T16:37:40.109Z</time></trkpt><trkpt lat="42.3572267" lon="13.3858034"><ele>648.5</ele><time>2026-05-02T16:37:41.101Z</time></trkpt><trkpt lat="42.3571732" lon="13.3858855"><ele>648.0</ele><time>2026-05-02T16:37:42.107Z</time></trkpt><trkpt lat="42.3571198" lon="13.3859634"><ele>647.5</ele><time>2026-05-02T16:37:43.101Z</time></trkpt><trkpt lat="42.3570661" lon="13.3860365"><ele>647.0</ele><time>2026-05-02T16:37:44.104Z</time></trkpt><trkpt lat="42.3570136" lon="13.3861136"><ele>646.5</ele><time>2026-05-02T16:37:45.103Z</time></trkpt><trkpt lat="42.3569665" lon="13.386202"><ele>646.0</ele><time>2026-05-02T16:37:46.103Z</time></trkpt><trkpt lat="42.3569173" lon="13.3862865"><ele>646.3333333333334</ele><time>2026-05-02T16:37:47.104Z</time></trkpt><trkpt lat="42.3568667" lon="13.3863734"><ele>646.6666666666667</ele><time>2026-05-02T16:37:48.109Z</time></trkpt><trkpt lat="42.3568164" lon="13.3864598"><ele>647.0</ele><time>2026-05-02T16:37:49.105Z</time></trkpt><trkpt lat="42.3567701" lon="13.3865374"><ele>647.3333333333334</ele><time>2026-05-02T16:37:50.104Z</time></trkpt><trkpt lat="42.3567243" lon="13.3866114"><ele>647.6666666666666</ele><time>2026-05-02T16:37:51.097Z</time></trkpt><trkpt lat="42.3566794" lon="13.3866847"><ele>648.0</ele><time>2026-05-02T16:37:52.104Z</time></trkpt><trkpt lat="42.3566356" lon="13.3867683"><ele>648.0</ele><time>2026-05-02T16:37:53.112Z</time></trkpt><trkpt lat="42.3565891" lon="13.386854"><ele>648.0</ele><time>2026-05-02T16:37:54.103Z</time></trkpt><trkpt lat="42.3565367" lon="13.3869385"><ele>648.0</ele><time>2026-05-02T16:37:55.098Z</time></trkpt><trkpt lat="42.3564922" lon="13.3870278"><ele>648.0</ele><time>2026-05-02T16:37:56.103Z</time></trkpt><trkpt lat="42.3564396" lon="13.3871189"><ele>648.0</ele><time>2026-05-02T16:37:57.1Z</time></trkpt><trkpt lat="42.3563872" lon="13.3872101"><ele>648.0</ele><time>2026-05-02T16:37:58.103Z</time></trkpt><trkpt lat="42.3563315" lon="13.3872888"><ele>647.6666666666666</ele><time>2026-05-02T16:37:59.104Z</time></trkpt><trkpt lat="42.3562789" lon="13.3873693"><ele>647.3333333333334</ele><time>2026-05-02T16:38:00.103Z</time></trkpt><trkpt lat="42.3562314" lon="13.3874526"><ele>647.0</ele><time>2026-05-02T16:38:01.105Z</time></trkpt><trkpt lat="42.3561803" lon="13.3875302"><ele>646.6666666666667</ele><time>2026-05-02T16:38:02.102Z</time></trkpt><trkpt lat="42.3561298" lon="13.3876062"><ele>646.3333333333334</ele><time>2026-05-02T16:38:03.1Z</time></trkpt><trkpt lat="42.3560847" lon="13.3876839"><ele>646.0</ele><time>2026-05-02T16:38:04.102Z</time></trkpt><trkpt lat="42.3560421" lon="13.3877608"><ele>646.0</ele><time>2026-05-02T16:38:05.108Z</time></trkpt><trkpt lat="42.3560035" lon="13.3878321"><ele>646.0</ele><time>2026-05-02T16:38:06.099Z</time></trkpt><trkpt lat="42.3559301" lon="13.3879693"><ele>646.0</ele><time>2026-05-02T16:38:08.097Z</time></trkpt><trkpt lat="42.3558526" lon="13.3880854"><ele>646.0</ele><time>2026-05-02T16:38:10.099Z</time></trkpt><trkpt lat="42.3557893" lon="13.3881476"><ele>646.0</ele><time>2026-05-02T16:38:12.098Z</time></trkpt><trkpt lat="42.3557109" lon="13.3881971"><ele>647.0</ele><time>2026-05-02T16:38:14.104Z</time></trkpt><trkpt lat="42.3556255" lon="13.3882271"><ele>648.0</ele><time>2026-05-02T16:38:16.101Z</time></trkpt><trkpt lat="42.3555274" lon="13.3882675"><ele>649.0</ele><time>2026-05-02T16:38:18.103Z</time></trkpt><trkpt lat="42.3554687" lon="13.3883724"><ele>650.0</ele><time>2026-05-02T16:38:20.098Z</time></trkpt><trkpt lat="42.3554713" lon="13.3885036"><ele>651.0</ele><time>2026-05-02T16:38:22.109Z</time></trkpt><trkpt lat="42.355514" lon="13.3886294"><ele>651.1999999999999</ele><time>2026-05-02T16:38:24.112Z</time></trkpt><trkpt lat="42.3555677" lon="13.3887226"><ele>651.4</ele><time>2026-05-02T16:38:28.107Z</time></trkpt><trkpt lat="42.3556181" lon="13.3887967"><ele>651.6</ele><time>2026-05-02T16:38:30.11Z</time></trkpt><trkpt lat="42.3556882" lon="13.3888705"><ele>651.8</ele><time>2026-05-02T16:38:32.108Z</time></trkpt><trkpt lat="42.3557804" lon="13.3889665"><ele>652.0</ele><time>2026-05-02T16:38:34.097Z</time></trkpt><trkpt lat="42.3558557" lon="13.3890477"><ele>653.25</ele><time>2026-05-02T16:38:35.093Z</time></trkpt><trkpt lat="42.3559365" lon="13.3891604"><ele>654.5</ele><time>2026-05-02T16:38:36.091Z</time></trkpt><trkpt lat="42.3560141" lon="13.3892975"><ele>655.75</ele><time>2026-05-02T16:38:37.103Z</time></trkpt><trkpt lat="42.3560842" lon="13.3894358"><ele>657.0</ele><time>2026-05-02T16:38:38.1Z</time></trkpt><trkpt lat="42.3561534" lon="13.3895628"><ele>657.6</ele><time>2026-05-02T16:38:39.105Z</time></trkpt><trkpt lat="42.3562184" lon="13.3896891"><ele>658.2</ele><time>2026-05-02T16:38:40.105Z</time></trkpt><trkpt lat="42.3562782" lon="13.3898045"><ele>658.8</ele><time>2026-05-02T16:38:41.103Z</time></trkpt><trkpt lat="42.3563464" lon="13.3899222"><ele>659.4</ele><time>2026-05-02T16:38:42.106Z</time></trkpt><trkpt lat="42.3564177" lon="13.390036"><ele>660.0</ele><time>2026-05-02T16:38:43.1Z</time></trkpt><trkpt lat="42.3564854" lon="13.3901544"><ele>659.0</ele><time>2026-05-02T16:38:44.104Z</time></trkpt><trkpt lat="42.3565509" lon="13.3902595"><ele>658.0</ele><time>2026-05-02T16:38:45.095Z</time></trkpt><trkpt lat="42.3566132" lon="13.3903476"><ele>657.0</ele><time>2026-05-02T16:38:46.104Z</time></trkpt><trkpt lat="42.3566723" lon="13.3904207"><ele>656.0</ele><time>2026-05-02T16:38:47.104Z</time></trkpt><trkpt lat="42.3567196" lon="13.3904995"><ele>655.0</ele><time>2026-05-02T16:38:48.107Z</time></trkpt><trkpt lat="42.3567596" lon="13.3905859"><ele>654.0</ele><time>2026-05-02T16:38:49.103Z</time></trkpt><trkpt lat="42.3567822" lon="13.3906691"><ele>654.0</ele><time>2026-05-02T16:38:50.102Z</time></trkpt><trkpt lat="42.3568004" lon="13.3908417"><ele>654.0</ele><time>2026-05-02T16:38:52.091Z</time></trkpt><trkpt lat="42.3567771" lon="13.39095"><ele>654.0</ele><time>2026-05-02T16:38:53.1Z</time></trkpt><trkpt lat="42.3567396" lon="13.3910778"><ele>654.0</ele><time>2026-05-02T16:38:54.105Z</time></trkpt><trkpt lat="42.3567065" lon="13.3912203"><ele>654.0</ele><time>2026-05-02T16:38:55.108Z</time></trkpt><trkpt lat="42.3566729" lon="13.391366"><ele>655.0</ele><time>2026-05-02T16:38:56.1Z</time></trkpt><trkpt lat="42.3566492" lon="13.391511"><ele>656.0</ele><time>2026-05-02T16:38:57.102Z</time></trkpt><trkpt lat="42.3566356" lon="13.3916645"><ele>657.0</ele><time>2026-05-02T16:38:58.104Z</time></trkpt><trkpt lat="42.3566308" lon="13.3918149"><ele>658.0</ele><time>2026-05-02T16:38:59.106Z</time></trkpt><trkpt lat="42.3566252" lon="13.391962"><ele>659.0</ele><time>2026-05-02T16:39:00.103Z</time></trkpt><trkpt lat="42.3566262" lon="13.3920989"><ele>660.0</ele><time>2026-05-02T16:39:01.107Z</time></trkpt><trkpt lat="42.3566206" lon="13.3922207"><ele>661.0</ele><time>2026-05-02T16:39:02.099Z</time></trkpt><trkpt lat="42.3566202" lon="13.3923363"><ele>662.0</ele><time>2026-05-02T16:39:03.105Z</time></trkpt><trkpt lat="42.3566222" lon="13.3924402"><ele>663.0</ele><time>2026-05-02T16:39:04.105Z</time></trkpt><trkpt lat="42.3566248" lon="13.3925353"><ele>664.0</ele><time>2026-05-02T16:39:05.098Z</time></trkpt><trkpt lat="42.3566218" lon="13.3926251"><ele>665.0</ele><time>2026-05-02T16:39:06.099Z</time></trkpt><trkpt lat="42.3566196" lon="13.3927274"><ele>665.0</ele><time>2026-05-02T16:39:07.104Z</time></trkpt><trkpt lat="42.3566213" lon="13.3928348"><ele>665.0</ele><time>2026-05-02T16:39:08.094Z</time></trkpt><trkpt lat="42.3566162" lon="13.3929347"><ele>665.0</ele><time>2026-05-02T16:39:09.109Z</time></trkpt><trkpt lat="42.356614" lon="13.3930373"><ele>665.0</ele><time>2026-05-02T16:39:10.097Z</time></trkpt><trkpt lat="42.3566124" lon="13.393146"><ele>665.0</ele><time>2026-05-02T16:39:11.101Z</time></trkpt><trkpt lat="42.3566123" lon="13.3932572"><ele>665.0</ele><time>2026-05-02T16:39:12.1Z</time></trkpt><trkpt lat="42.3566077" lon="13.3933624"><ele>665.6666666666666</ele><time>2026-05-02T16:39:13.098Z</time></trkpt><trkpt lat="42.3566033" lon="13.3934563"><ele>666.3333333333333</ele><time>2026-05-02T16:39:14.102Z</time></trkpt><trkpt lat="42.3566052" lon="13.3935882"><ele>667.0</ele><time>2026-05-02T16:39:16.104Z</time></trkpt><trkpt lat="42.3565948" lon="13.3937067"><ele>667.6666666666666</ele><time>2026-05-02T16:39:18.101Z</time></trkpt><trkpt lat="42.3565916" lon="13.3938633"><ele>668.3333333333334</ele><time>2026-05-02T16:39:20.098Z</time></trkpt><trkpt lat="42.3565913" lon="13.3939522"><ele>669.0</ele><time>2026-05-02T16:39:21.094Z</time></trkpt><trkpt lat="42.3565879" lon="13.3940607"><ele>670.0</ele><time>2026-05-02T16:39:22.099Z</time></trkpt><trkpt lat="42.3565901" lon="13.3941794"><ele>671.0</ele><time>2026-05-02T16:39:23.102Z</time></trkpt><trkpt lat="42.3565934" lon="13.3942985"><ele>672.0</ele><time>2026-05-02T16:39:24.102Z</time></trkpt><trkpt lat="42.3565954" lon="13.3944016"><ele>673.0</ele><time>2026-05-02T16:39:25.102Z</time></trkpt><trkpt lat="42.356594" lon="13.3945078"><ele>674.0</ele><time>2026-05-02T16:39:26.098Z</time></trkpt><trkpt lat="42.3565889" lon="13.3946248"><ele>675.0</ele><time>2026-05-02T16:39:27.091Z</time></trkpt><trkpt lat="42.3565828" lon="13.3947421"><ele>675.1666666666666</ele><time>2026-05-02T16:39:28.091Z</time></trkpt><trkpt lat="42.3565785" lon="13.3948491"><ele>675.3333333333334</ele><time>2026-05-02T16:39:29.1Z</time></trkpt><trkpt lat="42.35658" lon="13.3949526"><ele>675.5</ele><time>2026-05-02T16:39:30.1Z</time></trkpt><trkpt lat="42.3565773" lon="13.3950646"><ele>675.6666666666667</ele><time>2026-05-02T16:39:31.096Z</time></trkpt><trkpt lat="42.3565706" lon="13.3951772"><ele>675.8333333333334</ele><time>2026-05-02T16:39:32.1Z</time></trkpt><trkpt lat="42.3565697" lon="13.3952957"><ele>676.0</ele><time>2026-05-02T16:39:33.091Z</time></trkpt><trkpt lat="42.3565681" lon="13.395412"><ele>675.6666666666667</ele><time>2026-05-02T16:39:34.098Z</time></trkpt><trkpt lat="42.3565697" lon="13.3955351"><ele>675.3333333333334</ele><time>2026-05-02T16:39:35.097Z</time></trkpt><trkpt lat="42.3565663" lon="13.3956527"><ele>675.0</ele><time>2026-05-02T16:39:36.099Z</time></trkpt><trkpt lat="42.3565685" lon="13.3957606"><ele>674.6666666666666</ele><time>2026-05-02T16:39:37.1Z</time></trkpt><trkpt lat="42.3565668" lon="13.395867"><ele>674.3333333333333</ele><time>2026-05-02T16:39:38.101Z</time></trkpt><trkpt lat="42.3565614" lon="13.3959646"><ele>674.0</ele><time>2026-05-02T16:39:39.097Z</time></trkpt><trkpt lat="42.3565587" lon="13.3961177"><ele>674.0</ele><time>2026-05-02T16:39:41.1Z</time></trkpt><trkpt lat="42.3565514" lon="13.3962855"><ele>674.0</ele><time>2026-05-02T16:39:43.098Z</time></trkpt><trkpt lat="42.3565485" lon="13.3963848"><ele>674.0</ele><time>2026-05-02T16:39:44.099Z</time></trkpt><trkpt lat="42.356543" lon="13.3964955"><ele>674.0</ele><time>2026-05-02T16:39:45.101Z</time></trkpt><trkpt lat="42.3565397" lon="13.396609"><ele>674.0</ele><time>2026-05-02T16:39:46.103Z</time></trkpt><trkpt lat="42.356535" lon="13.3967297"><ele>675.0</ele><time>2026-05-02T16:39:47.099Z</time></trkpt><trkpt lat="42.3565246" lon="13.396854"><ele>676.0</ele><time>2026-05-02T16:39:48.099Z</time></trkpt><trkpt lat="42.3565139" lon="13.3969842"><ele>677.0</ele><time>2026-05-02T16:39:49.104Z</time></trkpt><trkpt lat="42.3565052" lon="13.3971259"><ele>678.0</ele><time>2026-05-02T16:39:50.095Z</time></trkpt><trkpt lat="42.3565005" lon="13.397272"><ele>679.0</ele><time>2026-05-02T16:39:51.102Z</time></trkpt><trkpt lat="42.3565012" lon="13.3974188"><ele>681.25</ele><time>2026-05-02T16:39:52.108Z</time></trkpt><trkpt lat="42.3565133" lon="13.3975772"><ele>683.5</ele><time>2026-05-02T16:39:53.1Z</time></trkpt><trkpt lat="42.3565347" lon="13.3977331"><ele>685.75</ele><time>2026-05-02T16:39:54.109Z</time></trkpt><trkpt lat="42.3565725" lon="13.3978882"><ele>688.0</ele><time>2026-05-02T16:39:55.109Z</time></trkpt><trkpt lat="42.3566228" lon="13.3980406"><ele>688.25</ele><time>2026-05-02T16:39:56.105Z</time></trkpt><trkpt lat="42.3566842" lon="13.3981833"><ele>688.5</ele><time>2026-05-02T16:39:57.103Z</time></trkpt><trkpt lat="42.3567401" lon="13.398312"><ele>688.75</ele><time>2026-05-02T16:39:58.102Z</time></trkpt><trkpt lat="42.3567987" lon="13.3984502"><ele>689.0</ele><time>2026-05-02T16:39:59.106Z</time></trkpt><trkpt lat="42.3568563" lon="13.3985805"><ele>689.0</ele><time>2026-05-02T16:40:00.1Z</time></trkpt><trkpt lat="42.356914" lon="13.3987131"><ele>689.0</ele><time>2026-05-02T16:40:01.096Z</time></trkpt><trkpt lat="42.3569677" lon="13.3988498"><ele>689.0</ele><time>2026-05-02T16:40:02.092Z</time></trkpt><trkpt lat="42.3570092" lon="13.3989884"><ele>689.0</ele><time>2026-05-02T16:40:03.091Z</time></trkpt><trkpt lat="42.3570406" lon="13.399125"><ele>689.0</ele><time>2026-05-02T16:40:04.089Z</time></trkpt><trkpt lat="42.3570607" lon="13.3992662"><ele>690.0</ele><time>2026-05-02T16:40:05.091Z</time></trkpt><trkpt lat="42.3570574" lon="13.3994117"><ele>691.0</ele><time>2026-05-02T16:40:06.084Z</time></trkpt><trkpt lat="42.357051" lon="13.399558"><ele>692.0</ele><time>2026-05-02T16:40:07.102Z</time></trkpt><trkpt lat="42.3570469" lon="13.3997007"><ele>693.0</ele><time>2026-05-02T16:40:08.094Z</time></trkpt><trkpt lat="42.357048" lon="13.3998401"><ele>694.0</ele><time>2026-05-02T16:40:09.107Z</time></trkpt><trkpt lat="42.3570458" lon="13.3999712"><ele>695.0</ele><time>2026-05-02T16:40:10.093Z</time></trkpt><trkpt lat="42.3570437" lon="13.4001062"><ele>696.0</ele><time>2026-05-02T16:40:11.1Z</time></trkpt><trkpt lat="42.3570443" lon="13.400233"><ele>697.0</ele><time>2026-05-02T16:40:12.101Z</time></trkpt><trkpt lat="42.3570446" lon="13.4003517"><ele>698.0</ele><time>2026-05-02T16:40:13.101Z</time></trkpt><trkpt lat="42.357046" lon="13.4004585"><ele>699.0</ele><time>2026-05-02T16:40:14.102Z</time></trkpt><trkpt lat="42.3570488" lon="13.400551"><ele>700.0</ele><time>2026-05-02T16:40:15.094Z</time></trkpt><trkpt lat="42.3570497" lon="13.4007126"><ele>700.5</ele><time>2026-05-02T16:40:17.094Z</time></trkpt><trkpt lat="42.3570478" lon="13.4008812"><ele>701.0</ele><time>2026-05-02T16:40:19.103Z</time></trkpt><trkpt lat="42.3570436" lon="13.4009758"><ele>701.5</ele><time>2026-05-02T16:40:20.096Z</time></trkpt><trkpt lat="42.3570416" lon="13.401081"><ele>702.0</ele><time>2026-05-02T16:40:21.1Z</time></trkpt><trkpt lat="42.3570419" lon="13.4011845"><ele>702.5</ele><time>2026-05-02T16:40:22.099Z</time></trkpt><trkpt lat="42.3570463" lon="13.4012899"><ele>703.0</ele><time>2026-05-02T16:40:23.099Z</time></trkpt><trkpt lat="42.3570458" lon="13.4013999"><ele>703.0</ele><time>2026-05-02T16:40:24.098Z</time></trkpt><trkpt lat="42.3570445" lon="13.4015232"><ele>703.0</ele><time>2026-05-02T16:40:25.098Z</time></trkpt><trkpt lat="42.3570471" lon="13.4016529"><ele>703.0</ele><time>2026-05-02T16:40:26.101Z</time></trkpt><trkpt lat="42.3570516" lon="13.4017845"><ele>703.0</ele><time>2026-05-02T16:40:27.104Z</time></trkpt><trkpt lat="42.3570525" lon="13.4019195"><ele>703.0</ele><time>2026-05-02T16:40:28.1Z</time></trkpt><trkpt lat="42.3570497" lon="13.4020618"><ele>702.0</ele><time>2026-05-02T16:40:29.1Z</time></trkpt><trkpt lat="42.3570525" lon="13.4022033"><ele>701.0</ele><time>2026-05-02T16:40:30.104Z</time></trkpt><trkpt lat="42.3570559" lon="13.4023481"><ele>700.0</ele><time>2026-05-02T16:40:31.097Z</time></trkpt><trkpt lat="42.3570605" lon="13.4024881"><ele>699.0</ele><time>2026-05-02T16:40:32.1Z</time></trkpt><trkpt lat="42.3570641" lon="13.4026336"><ele>698.0</ele><time>2026-05-02T16:40:33.105Z</time></trkpt><trkpt lat="42.3570794" lon="13.4027851"><ele>698.0</ele><time>2026-05-02T16:40:34.098Z</time></trkpt><trkpt lat="42.3571055" lon="13.4029337"><ele>698.0</ele><time>2026-05-02T16:40:35.105Z</time></trkpt><trkpt lat="42.3571403" lon="13.4030774"><ele>698.0</ele><time>2026-05-02T16:40:36.105Z</time></trkpt><trkpt lat="42.3571884" lon="13.4032172"><ele>698.0</ele><time>2026-05-02T16:40:37.107Z</time></trkpt><trkpt lat="42.3572442" lon="13.4033463"><ele>698.0</ele><time>2026-05-02T16:40:38.108Z</time></trkpt><trkpt lat="42.3573005" lon="13.4034763"><ele>698.8</ele><time>2026-05-02T16:40:39.102Z</time></trkpt><trkpt lat="42.3573508" lon="13.4035983"><ele>699.5999999999999</ele><time>2026-05-02T16:40:40.102Z</time></trkpt><trkpt lat="42.3574053" lon="13.403711"><ele>700.4000000000001</ele><time>2026-05-02T16:40:41.106Z</time></trkpt><trkpt lat="42.3574614" lon="13.4038201"><ele>701.2</ele><time>2026-05-02T16:40:42.109Z</time></trkpt><trkpt lat="42.3575047" lon="13.4039434"><ele>702.0</ele><time>2026-05-02T16:40:43.099Z</time></trkpt><trkpt lat="42.3575415" lon="13.404062"><ele>702.0</ele><time>2026-05-02T16:40:44.1Z</time></trkpt><trkpt lat="42.3575797" lon="13.4041708"><ele>702.0</ele><time>2026-05-02T16:40:45.095Z</time></trkpt><trkpt lat="42.3576102" lon="13.4042716"><ele>702.0</ele><time>2026-05-02T16:40:46.102Z</time></trkpt><trkpt lat="42.357636" lon="13.4043667"><ele>702.0</ele><time>2026-05-02T16:40:47.102Z</time></trkpt><trkpt lat="42.3576724" lon="13.4045139"><ele>702.0</ele><time>2026-05-02T16:40:49.096Z</time></trkpt><trkpt lat="42.3576612" lon="13.4046445"><ele>703.6</ele><time>2026-05-02T16:40:51.095Z</time></trkpt><trkpt lat="42.3576007" lon="13.404815"><ele>705.2</ele><time>2026-05-02T16:40:53.092Z</time></trkpt><trkpt lat="42.3575394" lon="13.404907"><ele>706.8</ele><time>2026-05-02T16:40:54.101Z</time></trkpt><trkpt lat="42.3574558" lon="13.4049807"><ele>708.4</ele><time>2026-05-02T16:40:55.093Z</time></trkpt><trkpt lat="42.3573585" lon="13.4050201"><ele>710.0</ele><time>2026-05-02T16:40:56.092Z</time></trkpt><trkpt lat="42.3572562" lon="13.4050399"><ele>709.6</ele><time>2026-05-02T16:40:57.101Z</time></trkpt><trkpt lat="42.3571414" lon="13.4050386"><ele>709.2</ele><time>2026-05-02T16:40:58.106Z</time></trkpt><trkpt lat="42.3570377" lon="13.4050615"><ele>708.8</ele><time>2026-05-02T16:40:59.104Z</time></trkpt><trkpt lat="42.3569393" lon="13.4050696"><ele>708.4</ele><time>2026-05-02T16:41:00.1Z</time></trkpt><trkpt lat="42.3568616" lon="13.4050771"><ele>708.0</ele><time>2026-05-02T16:41:01.105Z</time></trkpt><trkpt lat="42.3567777" lon="13.4050974"><ele>708.0</ele><time>2026-05-02T16:41:02.103Z</time></trkpt><trkpt lat="42.3567083" lon="13.4051296"><ele>708.0</ele><time>2026-05-02T16:41:03.106Z</time></trkpt><trkpt lat="42.3566064" lon="13.4052048"><ele>708.0</ele><time>2026-05-02T16:41:05.099Z</time></trkpt><trkpt lat="42.3565287" lon="13.405263"><ele>708.0</ele><time>2026-05-02T16:41:07.1Z</time></trkpt><trkpt lat="42.3564438" lon="13.4053369"><ele>708.0</ele><time>2026-05-02T16:41:10.102Z</time></trkpt><trkpt lat="42.3563568" lon="13.4054136"><ele>708.5</ele><time>2026-05-02T16:41:12.097Z</time></trkpt><trkpt lat="42.3562743" lon="13.4054611"><ele>709.0</ele><time>2026-05-02T16:41:14.101Z</time></trkpt><trkpt lat="42.3561909" lon="13.4055186"><ele>709.5</ele><time>2026-05-02T16:41:16.106Z</time></trkpt><trkpt lat="42.3561272" lon="13.4055675"><ele>710.0</ele><time>2026-05-02T16:41:18.109Z</time></trkpt><trkpt lat="42.3560565" lon="13.4055989"><ele>710.5</ele><time>2026-05-02T16:41:20.109Z</time></trkpt><trkpt lat="42.3559841" lon="13.4056263"><ele>711.0</ele><time>2026-05-02T16:41:22.104Z</time></trkpt><trkpt lat="42.3559072" lon="13.4056302"><ele>711.0</ele><time>2026-05-02T16:41:25.102Z</time></trkpt><trkpt lat="42.3558181" lon="13.4055582"><ele>711.0</ele><time>2026-05-02T16:41:28.1Z</time></trkpt><trkpt lat="42.3557661" lon="13.4053984"><ele>711.0</ele><time>2026-05-02T16:41:30.1Z</time></trkpt><trkpt lat="42.3557456" lon="13.4053002"><ele>711.0</ele><time>2026-05-02T16:41:31.1Z</time></trkpt><trkpt lat="42.3557171" lon="13.4052032"><ele>711.0</ele><time>2026-05-02T16:41:32.103Z</time></trkpt><trkpt lat="42.3556936" lon="13.4050988"><ele>711.0</ele><time>2026-05-02T16:41:33.102Z</time></trkpt><trkpt lat="42.3556741" lon="13.404994"><ele>711.0</ele><time>2026-05-02T16:41:34.1Z</time></trkpt><trkpt lat="42.3556515" lon="13.4048987"><ele>711.0</ele><time>2026-05-02T16:41:35.105Z</time></trkpt><trkpt lat="42.3556294" lon="13.404801"><ele>711.0</ele><time>2026-05-02T16:41:36.108Z</time></trkpt><trkpt lat="42.355609" lon="13.4047005"><ele>711.0</ele><time>2026-05-02T16:41:37.094Z</time></trkpt><trkpt lat="42.3555866" lon="13.4046134"><ele>711.0</ele><time>2026-05-02T16:41:38.105Z</time></trkpt><trkpt lat="42.3555514" lon="13.4044533"><ele>713.4</ele><time>2026-05-02T16:41:40.1Z</time></trkpt><trkpt lat="42.3555313" lon="13.404308"><ele>715.8</ele><time>2026-05-02T16:41:42.1Z</time></trkpt><trkpt lat="42.3555278" lon="13.4041829"><ele>718.1999999999999</ele><time>2026-05-02T16:41:44.098Z</time></trkpt><trkpt lat="42.3555131" lon="13.4040686"><ele>720.5999999999999</ele><time>2026-05-02T16:41:46.095Z</time></trkpt><trkpt lat="42.3554926" lon="13.4039374"><ele>723.0</ele><time>2026-05-02T16:41:48.103Z</time></trkpt><trkpt lat="42.3554634" lon="13.4037803"><ele>723.0000000000001</ele><time>2026-05-02T16:41:50.098Z</time></trkpt><trkpt lat="42.355439" lon="13.4036435"><ele>723.0</ele><time>2026-05-02T16:41:52.098Z</time></trkpt><trkpt lat="42.3554154" lon="13.4035571"><ele>723.0</ele><time>2026-05-02T16:41:55.103Z</time></trkpt><trkpt lat="42.355383" lon="13.4034713"><ele>723.0</ele><time>2026-05-02T16:42:18.103Z</time></trkpt><trkpt lat="42.3553542" lon="13.4033948"><ele>723.0</ele><time>2026-05-02T16:42:30.108Z</time></trkpt><trkpt lat="42.3553332" lon="13.4033108"><ele>723.0000000000001</ele><time>2026-05-02T16:42:33.103Z</time></trkpt><trkpt lat="42.3552987" lon="13.4032235"><ele>723.0</ele><time>2026-05-02T16:42:35.094Z</time></trkpt><trkpt lat="42.3552653" lon="13.4031352"><ele>723.0</ele><time>2026-05-02T16:42:37.099Z</time></trkpt><trkpt lat="42.3552361" lon="13.4030505"><ele>723.0</ele><time>2026-05-02T16:42:39.1Z</time></trkpt><trkpt lat="42.3551914" lon="13.4029691"><ele>723.0</ele><time>2026-05-02T16:42:41.102Z</time></trkpt><trkpt lat="42.35513" lon="13.402877"><ele>723.0</ele><time>2026-05-02T16:42:43.104Z</time></trkpt><trkpt lat="42.3550524" lon="13.4027829"><ele>723.0</ele><time>2026-05-02T16:42:45.096Z</time></trkpt><trkpt lat="42.3549722" lon="13.4027078"><ele>723.0</ele><time>2026-05-02T16:42:47.105Z</time></trkpt><trkpt lat="42.3549052" lon="13.4026365"><ele>721.5999999999999</ele><time>2026-05-02T16:42:49.098Z</time></trkpt><trkpt lat="42.3548318" lon="13.4025724"><ele>720.1999999999999</ele><time>2026-05-02T16:42:51.104Z</time></trkpt><trkpt lat="42.3547587" lon="13.4024994"><ele>718.8</ele><time>2026-05-02T16:42:53.105Z</time></trkpt><trkpt lat="42.354679" lon="13.402414"><ele>717.4</ele><time>2026-05-02T16:42:55.101Z</time></trkpt><trkpt lat="42.3546044" lon="13.402337"><ele>716.0</ele><time>2026-05-02T16:42:57.103Z</time></trkpt><trkpt lat="42.3545341" lon="13.4022487"><ele>718.0</ele><time>2026-05-02T16:42:59.102Z</time></trkpt><trkpt lat="42.3544424" lon="13.4021495"><ele>720.0</ele><time>2026-05-02T16:43:01.097Z</time></trkpt><trkpt lat="42.3543522" lon="13.4020557"><ele>722.0</ele><time>2026-05-02T16:43:03.09Z</time></trkpt><trkpt lat="42.3543109" lon="13.4019644"><ele>724.0</ele><time>2026-05-02T16:43:05.101Z</time></trkpt><trkpt lat="42.3542747" lon="13.4018908"><ele>726.0</ele><time>2026-05-02T16:43:10.106Z</time></trkpt><trkpt lat="42.3542588" lon="13.4018037"><ele>728.0</ele><time>2026-05-02T16:43:15.111Z</time></trkpt><trkpt lat="42.354275" lon="13.401717"><ele>728.0</ele><time>2026-05-02T16:43:17.109Z</time></trkpt><trkpt lat="42.3543127" lon="13.401624"><ele>728.0</ele><time>2026-05-02T16:43:19.101Z</time></trkpt><trkpt lat="42.354339" lon="13.401519"><ele>728.0</ele><time>2026-05-02T16:43:21.1Z</time></trkpt><trkpt lat="42.3542571" lon="13.4014732"><ele>728.0</ele><time>2026-05-02T16:43:28.088Z</time></trkpt><trkpt lat="42.3541935" lon="13.4014552"><ele>728.0</ele><time>2026-05-02T16:43:30.103Z</time></trkpt><trkpt lat="42.3541204" lon="13.4014298"><ele>728.0</ele><time>2026-05-02T16:43:33.098Z</time></trkpt><trkpt lat="42.3540659" lon="13.4013738"><ele>728.5</ele><time>2026-05-02T16:43:37.096Z</time></trkpt><trkpt lat="42.354005" lon="13.4013161"><ele>729.0</ele><time>2026-05-02T16:43:40.099Z</time></trkpt><trkpt lat="42.3539073" lon="13.4013056"><ele>729.5</ele><time>2026-05-02T16:43:44.097Z</time></trkpt><trkpt lat="42.3538558" lon="13.4013713"><ele>730.0</ele><time>2026-05-02T16:43:46.099Z</time></trkpt><trkpt lat="42.3538658" lon="13.401457"><ele>730.5</ele><time>2026-05-02T16:43:48.103Z</time></trkpt><trkpt lat="42.3538442" lon="13.4015731"><ele>731.0</ele><time>2026-05-02T16:43:51.096Z</time></trkpt><trkpt lat="42.3538021" lon="13.4017046"><ele>731.5</ele><time>2026-05-02T16:43:53.098Z</time></trkpt><trkpt lat="42.3537524" lon="13.4018445"><ele>732.0</ele><time>2026-05-02T16:43:55.099Z</time></trkpt><trkpt lat="42.3537322" lon="13.4019695"><ele>732.5</ele><time>2026-05-02T16:43:57.093Z</time></trkpt><trkpt lat="42.353727" lon="13.4020621"><ele>733.0</ele><time>2026-05-02T16:43:59.093Z</time></trkpt><trkpt lat="42.3537173" lon="13.4021754"><ele>733.5</ele><time>2026-05-02T16:44:02.1Z</time></trkpt><trkpt lat="42.3537151" lon="13.4022835"><ele>734.0</ele><time>2026-05-02T16:44:05.098Z</time></trkpt><trkpt lat="42.3537292" lon="13.4023953"><ele>735.0</ele><time>2026-05-02T16:44:09.103Z</time></trkpt><trkpt lat="42.3537451" lon="13.4024968"><ele>735.0</ele><time>2026-05-02T16:44:12.105Z</time></trkpt><trkpt lat="42.3537622" lon="13.4026088"><ele>735.0</ele><time>2026-05-02T16:44:15.102Z</time></trkpt><trkpt lat="42.3538303" lon="13.4026025"><ele>735.0</ele><time>2026-05-02T16:44:19.103Z</time></trkpt><trkpt lat="42.3538739" lon="13.4025202"><ele>731.0</ele><time>2026-05-02T16:44:25.107Z</time></trkpt><trkpt lat="42.3538663" lon="13.4024253"><ele>735.0</ele><time>2026-05-02T16:44:36.104Z</time></trkpt><trkpt lat="42.3538663" lon="13.4024253"><ele>735.0</ele><time>2026-05-02T16:44:36.104Z</time></trkpt><trkpt lat="42.3538663" lon="13.4024253"><ele>735.0</ele><time>2026-05-02T16:44:36.104Z</time></trkpt></trkseg></trk></gpx>